<?xml version="1.0" encoding="UTF-8" standalone="no" ?>
<gpx xmlns="http://www.topografix.com/GPX/1/1" xmlns:xsi="http://www.w3.org/2001/XMLSchema-instance" xsi:schemaLocation="http://www.topografix.com/GPX/1/1 http://www.topografix.com/GPX/1/1/gpx.xsd" version="1.1" creator="VisuGPX - https://www.visugpx.com">
  <metadata>
    <name>Picquigny</name>
  </metadata>
  <trk>
    <name><![CDATA[Picquigny_1]]></name>
    <trkseg>
      <trkpt lat="49.94216" lon="2.13926">
        <ele>53.4</ele>
        <time>2022-09-14T12:03:42Z</time>
      </trkpt>
      <trkpt lat="49.94215" lon="2.13925">
        <ele>53.4</ele>
        <time>2022-09-14T12:03:43Z</time>
      </trkpt>
      <trkpt lat="49.94214" lon="2.13924">
        <ele>53.5</ele>
        <time>2022-09-14T12:03:44Z</time>
      </trkpt>
      <trkpt lat="49.94214" lon="2.13923">
        <ele>53.5</ele>
        <time>2022-09-14T12:03:45Z</time>
      </trkpt>
      <trkpt lat="49.94213" lon="2.13923">
        <ele>53.5</ele>
        <time>2022-09-14T12:03:46Z</time>
      </trkpt>
      <trkpt lat="49.94213" lon="2.13922">
        <ele>53.6</ele>
        <time>2022-09-14T12:03:47Z</time>
      </trkpt>
      <trkpt lat="49.94212" lon="2.13922">
        <ele>53.6</ele>
        <time>2022-09-14T12:03:48Z</time>
      </trkpt>
      <trkpt lat="49.94212" lon="2.13922">
        <ele>53.6</ele>
        <time>2022-09-14T12:03:49Z</time>
      </trkpt>
      <trkpt lat="49.94212" lon="2.13921">
        <ele>53.6</ele>
        <time>2022-09-14T12:03:50Z</time>
      </trkpt>
      <trkpt lat="49.9421" lon="2.13918">
        <ele>53.8</ele>
        <time>2022-09-14T12:03:52Z</time>
      </trkpt>
      <trkpt lat="49.9421" lon="2.13917">
        <ele>53.8</ele>
        <time>2022-09-14T12:03:53Z</time>
      </trkpt>
      <trkpt lat="49.94209" lon="2.13916">
        <ele>53.9</ele>
        <time>2022-09-14T12:03:54Z</time>
      </trkpt>
      <trkpt lat="49.94208" lon="2.13914">
        <ele>53.9</ele>
        <time>2022-09-14T12:03:55Z</time>
      </trkpt>
      <trkpt lat="49.94207" lon="2.13913">
        <ele>54</ele>
        <time>2022-09-14T12:03:57Z</time>
      </trkpt>
      <trkpt lat="49.94206" lon="2.13912">
        <ele>54.1</ele>
        <time>2022-09-14T12:03:58Z</time>
      </trkpt>
      <trkpt lat="49.94205" lon="2.13912">
        <ele>54.1</ele>
        <time>2022-09-14T12:04:00Z</time>
      </trkpt>
      <trkpt lat="49.94205" lon="2.13911">
        <ele>54.2</ele>
        <time>2022-09-14T12:04:01Z</time>
      </trkpt>
      <trkpt lat="49.94204" lon="2.13911">
        <ele>54.2</ele>
        <time>2022-09-14T12:04:02Z</time>
      </trkpt>
      <trkpt lat="49.94204" lon="2.1391">
        <ele>54.2</ele>
        <time>2022-09-14T12:04:03Z</time>
      </trkpt>
      <trkpt lat="49.94203" lon="2.13908">
        <ele>54.3</ele>
        <time>2022-09-14T12:04:04Z</time>
      </trkpt>
      <trkpt lat="49.94203" lon="2.13907">
        <ele>54.3</ele>
        <time>2022-09-14T12:04:05Z</time>
      </trkpt>
      <trkpt lat="49.94203" lon="2.13906">
        <ele>54.4</ele>
        <time>2022-09-14T12:04:07Z</time>
      </trkpt>
      <trkpt lat="49.94202" lon="2.13904">
        <ele>54.4</ele>
        <time>2022-09-14T12:04:08Z</time>
      </trkpt>
      <trkpt lat="49.94202" lon="2.13903">
        <ele>54.5</ele>
        <time>2022-09-14T12:04:09Z</time>
      </trkpt>
      <trkpt lat="49.94201" lon="2.13901">
        <ele>54.5</ele>
        <time>2022-09-14T12:04:10Z</time>
      </trkpt>
      <trkpt lat="49.94201" lon="2.139">
        <ele>54.6</ele>
        <time>2022-09-14T12:04:12Z</time>
      </trkpt>
      <trkpt lat="49.94201" lon="2.13899">
        <ele>54.6</ele>
        <time>2022-09-14T12:04:13Z</time>
      </trkpt>
      <trkpt lat="49.942" lon="2.13898">
        <ele>54.7</ele>
        <time>2022-09-14T12:04:14Z</time>
      </trkpt>
      <trkpt lat="49.94199" lon="2.13895">
        <ele>54.8</ele>
        <time>2022-09-14T12:04:15Z</time>
      </trkpt>
      <trkpt lat="49.94199" lon="2.13894">
        <ele>54.8</ele>
        <time>2022-09-14T12:04:16Z</time>
      </trkpt>
      <trkpt lat="49.94198" lon="2.13893">
        <ele>54.9</ele>
        <time>2022-09-14T12:04:18Z</time>
      </trkpt>
      <trkpt lat="49.94198" lon="2.13891">
        <ele>54.9</ele>
        <time>2022-09-14T12:04:19Z</time>
      </trkpt>
      <trkpt lat="49.94197" lon="2.1389">
        <ele>55</ele>
        <time>2022-09-14T12:04:20Z</time>
      </trkpt>
      <trkpt lat="49.94197" lon="2.13889">
        <ele>55</ele>
        <time>2022-09-14T12:04:21Z</time>
      </trkpt>
      <trkpt lat="49.94196" lon="2.13887">
        <ele>55.1</ele>
        <time>2022-09-14T12:04:22Z</time>
      </trkpt>
      <trkpt lat="49.94196" lon="2.13885">
        <ele>55.2</ele>
        <time>2022-09-14T12:04:24Z</time>
      </trkpt>
      <trkpt lat="49.94195" lon="2.13883">
        <ele>55.2</ele>
        <time>2022-09-14T12:04:25Z</time>
      </trkpt>
      <trkpt lat="49.94195" lon="2.13881">
        <ele>55.3</ele>
        <time>2022-09-14T12:04:26Z</time>
      </trkpt>
      <trkpt lat="49.94194" lon="2.13877">
        <ele>55.4</ele>
        <time>2022-09-14T12:04:27Z</time>
      </trkpt>
      <trkpt lat="49.94193" lon="2.13875">
        <ele>55.5</ele>
        <time>2022-09-14T12:04:29Z</time>
      </trkpt>
      <trkpt lat="49.94193" lon="2.13873">
        <ele>55.5</ele>
        <time>2022-09-14T12:04:30Z</time>
      </trkpt>
      <trkpt lat="49.94192" lon="2.13872">
        <ele>55.6</ele>
        <time>2022-09-14T12:04:31Z</time>
      </trkpt>
      <trkpt lat="49.94192" lon="2.1387">
        <ele>55.7</ele>
        <time>2022-09-14T12:04:32Z</time>
      </trkpt>
      <trkpt lat="49.94191" lon="2.13867">
        <ele>55.8</ele>
        <time>2022-09-14T12:04:33Z</time>
      </trkpt>
      <trkpt lat="49.9419" lon="2.13865">
        <ele>55.8</ele>
        <time>2022-09-14T12:04:35Z</time>
      </trkpt>
      <trkpt lat="49.94189" lon="2.13864">
        <ele>55.9</ele>
        <time>2022-09-14T12:04:36Z</time>
      </trkpt>
      <trkpt lat="49.94188" lon="2.13862">
        <ele>56</ele>
        <time>2022-09-14T12:04:37Z</time>
      </trkpt>
      <trkpt lat="49.94187" lon="2.1386">
        <ele>56</ele>
        <time>2022-09-14T12:04:38Z</time>
      </trkpt>
      <trkpt lat="49.94186" lon="2.13858">
        <ele>56.1</ele>
        <time>2022-09-14T12:04:39Z</time>
      </trkpt>
      <trkpt lat="49.94185" lon="2.13857">
        <ele>56.2</ele>
        <time>2022-09-14T12:04:41Z</time>
      </trkpt>
      <trkpt lat="49.94185" lon="2.13856">
        <ele>56.2</ele>
        <time>2022-09-14T12:04:42Z</time>
      </trkpt>
      <trkpt lat="49.94184" lon="2.13854">
        <ele>56.3</ele>
        <time>2022-09-14T12:04:44Z</time>
      </trkpt>
      <trkpt lat="49.94183" lon="2.13852">
        <ele>56.3</ele>
        <time>2022-09-14T12:04:45Z</time>
      </trkpt>
      <trkpt lat="49.94182" lon="2.13851">
        <ele>56.4</ele>
        <time>2022-09-14T12:04:46Z</time>
      </trkpt>
      <trkpt lat="49.94181" lon="2.13848">
        <ele>56.5</ele>
        <time>2022-09-14T12:04:48Z</time>
      </trkpt>
      <trkpt lat="49.9418" lon="2.13846">
        <ele>56.6</ele>
        <time>2022-09-14T12:04:49Z</time>
      </trkpt>
      <trkpt lat="49.94179" lon="2.13845">
        <ele>56.6</ele>
        <time>2022-09-14T12:04:50Z</time>
      </trkpt>
      <trkpt lat="49.94178" lon="2.13845">
        <ele>56.7</ele>
        <time>2022-09-14T12:04:51Z</time>
      </trkpt>
      <trkpt lat="49.94177" lon="2.13842">
        <ele>56.7</ele>
        <time>2022-09-14T12:04:52Z</time>
      </trkpt>
      <trkpt lat="49.94176" lon="2.13841">
        <ele>56.8</ele>
        <time>2022-09-14T12:04:53Z</time>
      </trkpt>
      <trkpt lat="49.94175" lon="2.1384">
        <ele>56.8</ele>
        <time>2022-09-14T12:04:54Z</time>
      </trkpt>
      <trkpt lat="49.94174" lon="2.13839">
        <ele>56.9</ele>
        <time>2022-09-14T12:04:56Z</time>
      </trkpt>
      <trkpt lat="49.94174" lon="2.13838">
        <ele>56.9</ele>
        <time>2022-09-14T12:04:57Z</time>
      </trkpt>
      <trkpt lat="49.94173" lon="2.13836">
        <ele>57</ele>
        <time>2022-09-14T12:04:58Z</time>
      </trkpt>
      <trkpt lat="49.94173" lon="2.13835">
        <ele>57</ele>
        <time>2022-09-14T12:04:59Z</time>
      </trkpt>
      <trkpt lat="49.94172" lon="2.13834">
        <ele>57.1</ele>
        <time>2022-09-14T12:05:00Z</time>
      </trkpt>
      <trkpt lat="49.94171" lon="2.13832">
        <ele>57.1</ele>
        <time>2022-09-14T12:05:01Z</time>
      </trkpt>
      <trkpt lat="49.9417" lon="2.13831">
        <ele>57.2</ele>
        <time>2022-09-14T12:05:02Z</time>
      </trkpt>
      <trkpt lat="49.94169" lon="2.1383">
        <ele>57.2</ele>
        <time>2022-09-14T12:05:03Z</time>
      </trkpt>
      <trkpt lat="49.94168" lon="2.13828">
        <ele>57.3</ele>
        <time>2022-09-14T12:05:05Z</time>
      </trkpt>
      <trkpt lat="49.94166" lon="2.13825">
        <ele>57.4</ele>
        <time>2022-09-14T12:05:06Z</time>
      </trkpt>
      <trkpt lat="49.94166" lon="2.13824">
        <ele>57.4</ele>
        <time>2022-09-14T12:05:07Z</time>
      </trkpt>
      <trkpt lat="49.94165" lon="2.13823">
        <ele>57.5</ele>
        <time>2022-09-14T12:05:08Z</time>
      </trkpt>
      <trkpt lat="49.94164" lon="2.13822">
        <ele>57.5</ele>
        <time>2022-09-14T12:05:09Z</time>
      </trkpt>
      <trkpt lat="49.94163" lon="2.13819">
        <ele>57.6</ele>
        <time>2022-09-14T12:05:10Z</time>
      </trkpt>
      <trkpt lat="49.94163" lon="2.13818">
        <ele>57.6</ele>
        <time>2022-09-14T12:05:11Z</time>
      </trkpt>
      <trkpt lat="49.94162" lon="2.13817">
        <ele>57.7</ele>
        <time>2022-09-14T12:05:12Z</time>
      </trkpt>
      <trkpt lat="49.94162" lon="2.13816">
        <ele>57.7</ele>
        <time>2022-09-14T12:05:13Z</time>
      </trkpt>
      <trkpt lat="49.94161" lon="2.13814">
        <ele>57.7</ele>
        <time>2022-09-14T12:05:15Z</time>
      </trkpt>
      <trkpt lat="49.9416" lon="2.13813">
        <ele>57.8</ele>
        <time>2022-09-14T12:05:16Z</time>
      </trkpt>
      <trkpt lat="49.94159" lon="2.13811">
        <ele>57.9</ele>
        <time>2022-09-14T12:05:18Z</time>
      </trkpt>
      <trkpt lat="49.94158" lon="2.13809">
        <ele>57.9</ele>
        <time>2022-09-14T12:05:19Z</time>
      </trkpt>
      <trkpt lat="49.94157" lon="2.13807">
        <ele>58</ele>
        <time>2022-09-14T12:05:20Z</time>
      </trkpt>
      <trkpt lat="49.94156" lon="2.13805">
        <ele>58</ele>
        <time>2022-09-14T12:05:21Z</time>
      </trkpt>
      <trkpt lat="49.94156" lon="2.13804">
        <ele>58.1</ele>
        <time>2022-09-14T12:05:22Z</time>
      </trkpt>
      <trkpt lat="49.94155" lon="2.13803">
        <ele>58.1</ele>
        <time>2022-09-14T12:05:23Z</time>
      </trkpt>
      <trkpt lat="49.94154" lon="2.138">
        <ele>58.2</ele>
        <time>2022-09-14T12:05:25Z</time>
      </trkpt>
      <trkpt lat="49.94153" lon="2.13798">
        <ele>58.2</ele>
        <time>2022-09-14T12:05:26Z</time>
      </trkpt>
      <trkpt lat="49.94152" lon="2.13795">
        <ele>58.3</ele>
        <time>2022-09-14T12:05:27Z</time>
      </trkpt>
      <trkpt lat="49.94152" lon="2.13794">
        <ele>58.3</ele>
        <time>2022-09-14T12:05:28Z</time>
      </trkpt>
      <trkpt lat="49.94151" lon="2.13793">
        <ele>58.4</ele>
        <time>2022-09-14T12:05:29Z</time>
      </trkpt>
      <trkpt lat="49.9415" lon="2.1379">
        <ele>58.5</ele>
        <time>2022-09-14T12:05:30Z</time>
      </trkpt>
      <trkpt lat="49.9415" lon="2.13789">
        <ele>58.5</ele>
        <time>2022-09-14T12:05:31Z</time>
      </trkpt>
      <trkpt lat="49.94149" lon="2.13788">
        <ele>58.5</ele>
        <time>2022-09-14T12:05:33Z</time>
      </trkpt>
      <trkpt lat="49.94148" lon="2.13787">
        <ele>58.6</ele>
        <time>2022-09-14T12:05:34Z</time>
      </trkpt>
      <trkpt lat="49.94148" lon="2.13785">
        <ele>58.6</ele>
        <time>2022-09-14T12:05:35Z</time>
      </trkpt>
      <trkpt lat="49.94146" lon="2.13782">
        <ele>58.6</ele>
        <time>2022-09-14T12:05:36Z</time>
      </trkpt>
      <trkpt lat="49.94146" lon="2.13781">
        <ele>58.6</ele>
        <time>2022-09-14T12:05:37Z</time>
      </trkpt>
      <trkpt lat="49.94145" lon="2.1378">
        <ele>58.6</ele>
        <time>2022-09-14T12:05:38Z</time>
      </trkpt>
      <trkpt lat="49.94145" lon="2.13778">
        <ele>58.7</ele>
        <time>2022-09-14T12:05:39Z</time>
      </trkpt>
      <trkpt lat="49.94144" lon="2.13776">
        <ele>58.7</ele>
        <time>2022-09-14T12:05:40Z</time>
      </trkpt>
      <trkpt lat="49.94144" lon="2.13775">
        <ele>58.7</ele>
        <time>2022-09-14T12:05:42Z</time>
      </trkpt>
      <trkpt lat="49.94143" lon="2.13773">
        <ele>58.7</ele>
        <time>2022-09-14T12:05:43Z</time>
      </trkpt>
      <trkpt lat="49.94143" lon="2.13771">
        <ele>58.8</ele>
        <time>2022-09-14T12:05:44Z</time>
      </trkpt>
      <trkpt lat="49.94142" lon="2.13769">
        <ele>58.8</ele>
        <time>2022-09-14T12:05:46Z</time>
      </trkpt>
      <trkpt lat="49.94141" lon="2.13767">
        <ele>58.8</ele>
        <time>2022-09-14T12:05:47Z</time>
      </trkpt>
      <trkpt lat="49.94141" lon="2.13766">
        <ele>58.8</ele>
        <time>2022-09-14T12:05:48Z</time>
      </trkpt>
      <trkpt lat="49.94141" lon="2.13764">
        <ele>58.9</ele>
        <time>2022-09-14T12:05:50Z</time>
      </trkpt>
      <trkpt lat="49.9414" lon="2.13762">
        <ele>58.9</ele>
        <time>2022-09-14T12:05:51Z</time>
      </trkpt>
      <trkpt lat="49.94139" lon="2.1376">
        <ele>58.9</ele>
        <time>2022-09-14T12:05:52Z</time>
      </trkpt>
      <trkpt lat="49.94138" lon="2.13759">
        <ele>58.9</ele>
        <time>2022-09-14T12:05:53Z</time>
      </trkpt>
      <trkpt lat="49.94137" lon="2.13758">
        <ele>59</ele>
        <time>2022-09-14T12:05:54Z</time>
      </trkpt>
      <trkpt lat="49.94137" lon="2.13756">
        <ele>59</ele>
        <time>2022-09-14T12:05:55Z</time>
      </trkpt>
      <trkpt lat="49.94136" lon="2.13755">
        <ele>59</ele>
        <time>2022-09-14T12:05:56Z</time>
      </trkpt>
      <trkpt lat="49.94136" lon="2.13753">
        <ele>59</ele>
        <time>2022-09-14T12:05:58Z</time>
      </trkpt>
      <trkpt lat="49.94137" lon="2.13751">
        <ele>59.1</ele>
        <time>2022-09-14T12:05:59Z</time>
      </trkpt>
      <trkpt lat="49.94137" lon="2.1375">
        <ele>59.1</ele>
        <time>2022-09-14T12:06:00Z</time>
      </trkpt>
      <trkpt lat="49.94138" lon="2.13749">
        <ele>59.1</ele>
        <time>2022-09-14T12:06:01Z</time>
      </trkpt>
      <trkpt lat="49.94139" lon="2.13748">
        <ele>59.1</ele>
        <time>2022-09-14T12:06:02Z</time>
      </trkpt>
      <trkpt lat="49.94139" lon="2.13747">
        <ele>59.1</ele>
        <time>2022-09-14T12:06:03Z</time>
      </trkpt>
      <trkpt lat="49.94138" lon="2.13745">
        <ele>59.2</ele>
        <time>2022-09-14T12:06:04Z</time>
      </trkpt>
      <trkpt lat="49.94138" lon="2.13744">
        <ele>59.2</ele>
        <time>2022-09-14T12:06:05Z</time>
      </trkpt>
      <trkpt lat="49.94137" lon="2.13742">
        <ele>59.2</ele>
        <time>2022-09-14T12:06:06Z</time>
      </trkpt>
      <trkpt lat="49.94136" lon="2.13741">
        <ele>59.3</ele>
        <time>2022-09-14T12:06:08Z</time>
      </trkpt>
      <trkpt lat="49.94135" lon="2.13739">
        <ele>59.3</ele>
        <time>2022-09-14T12:06:09Z</time>
      </trkpt>
      <trkpt lat="49.94134" lon="2.13739">
        <ele>59.3</ele>
        <time>2022-09-14T12:06:10Z</time>
      </trkpt>
      <trkpt lat="49.94133" lon="2.13738">
        <ele>59.3</ele>
        <time>2022-09-14T12:06:11Z</time>
      </trkpt>
      <trkpt lat="49.94132" lon="2.13738">
        <ele>59.4</ele>
        <time>2022-09-14T12:06:12Z</time>
      </trkpt>
      <trkpt lat="49.9413" lon="2.13737">
        <ele>59.4</ele>
        <time>2022-09-14T12:06:13Z</time>
      </trkpt>
      <trkpt lat="49.94129" lon="2.13738">
        <ele>59.4</ele>
        <time>2022-09-14T12:06:15Z</time>
      </trkpt>
      <trkpt lat="49.94128" lon="2.13737">
        <ele>59.5</ele>
        <time>2022-09-14T12:06:16Z</time>
      </trkpt>
      <trkpt lat="49.94127" lon="2.13737">
        <ele>59.5</ele>
        <time>2022-09-14T12:06:17Z</time>
      </trkpt>
      <trkpt lat="49.94126" lon="2.13737">
        <ele>59.5</ele>
        <time>2022-09-14T12:06:18Z</time>
      </trkpt>
      <trkpt lat="49.94125" lon="2.13735">
        <ele>59.6</ele>
        <time>2022-09-14T12:06:19Z</time>
      </trkpt>
      <trkpt lat="49.94124" lon="2.13734">
        <ele>59.6</ele>
        <time>2022-09-14T12:06:20Z</time>
      </trkpt>
      <trkpt lat="49.94122" lon="2.13732">
        <ele>59.7</ele>
        <time>2022-09-14T12:06:22Z</time>
      </trkpt>
      <trkpt lat="49.94122" lon="2.13731">
        <ele>59.7</ele>
        <time>2022-09-14T12:06:23Z</time>
      </trkpt>
      <trkpt lat="49.94121" lon="2.1373">
        <ele>59.7</ele>
        <time>2022-09-14T12:06:24Z</time>
      </trkpt>
      <trkpt lat="49.94121" lon="2.13729">
        <ele>59.7</ele>
        <time>2022-09-14T12:06:25Z</time>
      </trkpt>
      <trkpt lat="49.94121" lon="2.13728">
        <ele>59.8</ele>
        <time>2022-09-14T12:06:26Z</time>
      </trkpt>
      <trkpt lat="49.94121" lon="2.13725">
        <ele>59.8</ele>
        <time>2022-09-14T12:06:27Z</time>
      </trkpt>
      <trkpt lat="49.9412" lon="2.13723">
        <ele>59.9</ele>
        <time>2022-09-14T12:06:29Z</time>
      </trkpt>
      <trkpt lat="49.9412" lon="2.13722">
        <ele>59.9</ele>
        <time>2022-09-14T12:06:30Z</time>
      </trkpt>
      <trkpt lat="49.9412" lon="2.13721">
        <ele>59.9</ele>
        <time>2022-09-14T12:06:31Z</time>
      </trkpt>
      <trkpt lat="49.9412" lon="2.1372">
        <ele>59.9</ele>
        <time>2022-09-14T12:06:32Z</time>
      </trkpt>
      <trkpt lat="49.94119" lon="2.13718">
        <ele>59.9</ele>
        <time>2022-09-14T12:06:33Z</time>
      </trkpt>
      <trkpt lat="49.94119" lon="2.13717">
        <ele>60</ele>
        <time>2022-09-14T12:06:34Z</time>
      </trkpt>
      <trkpt lat="49.94118" lon="2.13716">
        <ele>60</ele>
        <time>2022-09-14T12:06:36Z</time>
      </trkpt>
      <trkpt lat="49.94118" lon="2.13715">
        <ele>60</ele>
        <time>2022-09-14T12:06:37Z</time>
      </trkpt>
      <trkpt lat="49.94117" lon="2.13714">
        <ele>60.1</ele>
        <time>2022-09-14T12:06:38Z</time>
      </trkpt>
      <trkpt lat="49.94117" lon="2.13713">
        <ele>60.1</ele>
        <time>2022-09-14T12:06:39Z</time>
      </trkpt>
      <trkpt lat="49.94116" lon="2.13712">
        <ele>60.1</ele>
        <time>2022-09-14T12:06:40Z</time>
      </trkpt>
      <trkpt lat="49.94115" lon="2.1371">
        <ele>60.1</ele>
        <time>2022-09-14T12:06:42Z</time>
      </trkpt>
      <trkpt lat="49.94115" lon="2.1371">
        <ele>60.2</ele>
        <time>2022-09-14T12:06:43Z</time>
      </trkpt>
      <trkpt lat="49.94114" lon="2.13709">
        <ele>60.2</ele>
        <time>2022-09-14T12:06:44Z</time>
      </trkpt>
      <trkpt lat="49.94113" lon="2.13708">
        <ele>60.2</ele>
        <time>2022-09-14T12:06:45Z</time>
      </trkpt>
      <trkpt lat="49.94113" lon="2.13706">
        <ele>60.2</ele>
        <time>2022-09-14T12:06:47Z</time>
      </trkpt>
      <trkpt lat="49.94112" lon="2.13705">
        <ele>60.3</ele>
        <time>2022-09-14T12:06:48Z</time>
      </trkpt>
      <trkpt lat="49.9411" lon="2.13704">
        <ele>60.3</ele>
        <time>2022-09-14T12:06:49Z</time>
      </trkpt>
      <trkpt lat="49.94109" lon="2.13703">
        <ele>60.4</ele>
        <time>2022-09-14T12:06:50Z</time>
      </trkpt>
      <trkpt lat="49.94108" lon="2.13703">
        <ele>60.4</ele>
        <time>2022-09-14T12:06:52Z</time>
      </trkpt>
      <trkpt lat="49.94107" lon="2.13702">
        <ele>60.4</ele>
        <time>2022-09-14T12:06:53Z</time>
      </trkpt>
      <trkpt lat="49.94106" lon="2.137">
        <ele>60.5</ele>
        <time>2022-09-14T12:06:54Z</time>
      </trkpt>
      <trkpt lat="49.94106" lon="2.137">
        <ele>60.5</ele>
        <time>2022-09-14T12:06:55Z</time>
      </trkpt>
      <trkpt lat="49.94105" lon="2.13699">
        <ele>60.5</ele>
        <time>2022-09-14T12:06:56Z</time>
      </trkpt>
      <trkpt lat="49.94105" lon="2.13697">
        <ele>60.5</ele>
        <time>2022-09-14T12:06:58Z</time>
      </trkpt>
      <trkpt lat="49.94105" lon="2.13695">
        <ele>60.6</ele>
        <time>2022-09-14T12:06:59Z</time>
      </trkpt>
      <trkpt lat="49.94105" lon="2.13694">
        <ele>60.6</ele>
        <time>2022-09-14T12:07:00Z</time>
      </trkpt>
      <trkpt lat="49.94104" lon="2.13693">
        <ele>60.6</ele>
        <time>2022-09-14T12:07:01Z</time>
      </trkpt>
      <trkpt lat="49.94104" lon="2.13692">
        <ele>60.6</ele>
        <time>2022-09-14T12:07:02Z</time>
      </trkpt>
      <trkpt lat="49.94103" lon="2.1369">
        <ele>60.7</ele>
        <time>2022-09-14T12:07:03Z</time>
      </trkpt>
      <trkpt lat="49.94102" lon="2.13689">
        <ele>60.8</ele>
        <time>2022-09-14T12:07:04Z</time>
      </trkpt>
      <trkpt lat="49.94102" lon="2.13688">
        <ele>60.8</ele>
        <time>2022-09-14T12:07:06Z</time>
      </trkpt>
      <trkpt lat="49.94101" lon="2.13686">
        <ele>60.8</ele>
        <time>2022-09-14T12:07:07Z</time>
      </trkpt>
      <trkpt lat="49.94101" lon="2.13683">
        <ele>60.9</ele>
        <time>2022-09-14T12:07:09Z</time>
      </trkpt>
      <trkpt lat="49.94101" lon="2.13682">
        <ele>61</ele>
        <time>2022-09-14T12:07:10Z</time>
      </trkpt>
      <trkpt lat="49.94101" lon="2.13681">
        <ele>61</ele>
        <time>2022-09-14T12:07:11Z</time>
      </trkpt>
      <trkpt lat="49.94101" lon="2.13677">
        <ele>61.1</ele>
        <time>2022-09-14T12:07:12Z</time>
      </trkpt>
      <trkpt lat="49.941" lon="2.13676">
        <ele>61.2</ele>
        <time>2022-09-14T12:07:14Z</time>
      </trkpt>
      <trkpt lat="49.941" lon="2.13675">
        <ele>61.2</ele>
        <time>2022-09-14T12:07:15Z</time>
      </trkpt>
      <trkpt lat="49.94099" lon="2.13673">
        <ele>61.2</ele>
        <time>2022-09-14T12:07:16Z</time>
      </trkpt>
      <trkpt lat="49.94099" lon="2.13672">
        <ele>61.3</ele>
        <time>2022-09-14T12:07:17Z</time>
      </trkpt>
      <trkpt lat="49.94099" lon="2.13671">
        <ele>61.3</ele>
        <time>2022-09-14T12:07:18Z</time>
      </trkpt>
      <trkpt lat="49.94098" lon="2.13669">
        <ele>61.4</ele>
        <time>2022-09-14T12:07:19Z</time>
      </trkpt>
      <trkpt lat="49.94097" lon="2.13668">
        <ele>61.4</ele>
        <time>2022-09-14T12:07:21Z</time>
      </trkpt>
      <trkpt lat="49.94097" lon="2.13667">
        <ele>61.5</ele>
        <time>2022-09-14T12:07:22Z</time>
      </trkpt>
      <trkpt lat="49.94096" lon="2.13665">
        <ele>61.5</ele>
        <time>2022-09-14T12:07:23Z</time>
      </trkpt>
      <trkpt lat="49.94096" lon="2.13663">
        <ele>61.6</ele>
        <time>2022-09-14T12:07:24Z</time>
      </trkpt>
      <trkpt lat="49.94095" lon="2.13663">
        <ele>61.6</ele>
        <time>2022-09-14T12:07:25Z</time>
      </trkpt>
      <trkpt lat="49.94095" lon="2.13661">
        <ele>61.7</ele>
        <time>2022-09-14T12:07:26Z</time>
      </trkpt>
      <trkpt lat="49.94094" lon="2.1366">
        <ele>61.7</ele>
        <time>2022-09-14T12:07:27Z</time>
      </trkpt>
      <trkpt lat="49.94094" lon="2.13659">
        <ele>61.8</ele>
        <time>2022-09-14T12:07:28Z</time>
      </trkpt>
      <trkpt lat="49.94094" lon="2.13658">
        <ele>61.8</ele>
        <time>2022-09-14T12:07:29Z</time>
      </trkpt>
      <trkpt lat="49.94093" lon="2.13657">
        <ele>61.8</ele>
        <time>2022-09-14T12:07:30Z</time>
      </trkpt>
      <trkpt lat="49.94093" lon="2.13656">
        <ele>61.9</ele>
        <time>2022-09-14T12:07:31Z</time>
      </trkpt>
      <trkpt lat="49.94092" lon="2.13655">
        <ele>61.9</ele>
        <time>2022-09-14T12:07:32Z</time>
      </trkpt>
      <trkpt lat="49.94092" lon="2.13653">
        <ele>61.9</ele>
        <time>2022-09-14T12:07:33Z</time>
      </trkpt>
      <trkpt lat="49.94092" lon="2.13651">
        <ele>62</ele>
        <time>2022-09-14T12:07:34Z</time>
      </trkpt>
      <trkpt lat="49.94091" lon="2.1365">
        <ele>62</ele>
        <time>2022-09-14T12:07:35Z</time>
      </trkpt>
      <trkpt lat="49.94091" lon="2.13649">
        <ele>62.1</ele>
        <time>2022-09-14T12:07:36Z</time>
      </trkpt>
      <trkpt lat="49.9409" lon="2.13647">
        <ele>62.1</ele>
        <time>2022-09-14T12:07:37Z</time>
      </trkpt>
      <trkpt lat="49.9409" lon="2.13646">
        <ele>62.2</ele>
        <time>2022-09-14T12:07:38Z</time>
      </trkpt>
      <trkpt lat="49.94089" lon="2.13645">
        <ele>62.2</ele>
        <time>2022-09-14T12:07:39Z</time>
      </trkpt>
      <trkpt lat="49.94088" lon="2.13644">
        <ele>62.3</ele>
        <time>2022-09-14T12:07:40Z</time>
      </trkpt>
      <trkpt lat="49.94088" lon="2.13643">
        <ele>62.3</ele>
        <time>2022-09-14T12:07:41Z</time>
      </trkpt>
      <trkpt lat="49.94087" lon="2.13641">
        <ele>62.4</ele>
        <time>2022-09-14T12:07:42Z</time>
      </trkpt>
      <trkpt lat="49.94086" lon="2.13639">
        <ele>62.4</ele>
        <time>2022-09-14T12:07:44Z</time>
      </trkpt>
      <trkpt lat="49.94086" lon="2.13637">
        <ele>62.5</ele>
        <time>2022-09-14T12:07:45Z</time>
      </trkpt>
      <trkpt lat="49.94085" lon="2.13636">
        <ele>62.5</ele>
        <time>2022-09-14T12:07:46Z</time>
      </trkpt>
      <trkpt lat="49.94085" lon="2.13635">
        <ele>62.6</ele>
        <time>2022-09-14T12:07:47Z</time>
      </trkpt>
      <trkpt lat="49.94084" lon="2.13633">
        <ele>62.6</ele>
        <time>2022-09-14T12:07:49Z</time>
      </trkpt>
      <trkpt lat="49.94083" lon="2.1363">
        <ele>62.7</ele>
        <time>2022-09-14T12:07:50Z</time>
      </trkpt>
      <trkpt lat="49.94083" lon="2.13629">
        <ele>62.7</ele>
        <time>2022-09-14T12:07:51Z</time>
      </trkpt>
      <trkpt lat="49.94082" lon="2.13628">
        <ele>62.8</ele>
        <time>2022-09-14T12:07:52Z</time>
      </trkpt>
      <trkpt lat="49.94082" lon="2.13626">
        <ele>62.8</ele>
        <time>2022-09-14T12:07:53Z</time>
      </trkpt>
      <trkpt lat="49.94081" lon="2.13624">
        <ele>62.9</ele>
        <time>2022-09-14T12:07:54Z</time>
      </trkpt>
      <trkpt lat="49.9408" lon="2.13623">
        <ele>62.9</ele>
        <time>2022-09-14T12:07:56Z</time>
      </trkpt>
      <trkpt lat="49.9408" lon="2.13621">
        <ele>62.9</ele>
        <time>2022-09-14T12:07:57Z</time>
      </trkpt>
      <trkpt lat="49.94079" lon="2.1362">
        <ele>63</ele>
        <time>2022-09-14T12:07:58Z</time>
      </trkpt>
      <trkpt lat="49.94079" lon="2.13618">
        <ele>63</ele>
        <time>2022-09-14T12:07:59Z</time>
      </trkpt>
      <trkpt lat="49.94077" lon="2.13615">
        <ele>63.1</ele>
        <time>2022-09-14T12:08:00Z</time>
      </trkpt>
      <trkpt lat="49.94076" lon="2.13613">
        <ele>63.2</ele>
        <time>2022-09-14T12:08:01Z</time>
      </trkpt>
      <trkpt lat="49.94076" lon="2.13612">
        <ele>63.2</ele>
        <time>2022-09-14T12:08:03Z</time>
      </trkpt>
      <trkpt lat="49.94075" lon="2.1361">
        <ele>63.2</ele>
        <time>2022-09-14T12:08:04Z</time>
      </trkpt>
      <trkpt lat="49.94074" lon="2.13609">
        <ele>63.3</ele>
        <time>2022-09-14T12:08:06Z</time>
      </trkpt>
      <trkpt lat="49.94073" lon="2.13607">
        <ele>63.3</ele>
        <time>2022-09-14T12:08:07Z</time>
      </trkpt>
      <trkpt lat="49.94073" lon="2.13606">
        <ele>63.4</ele>
        <time>2022-09-14T12:08:08Z</time>
      </trkpt>
      <trkpt lat="49.94072" lon="2.13604">
        <ele>63.4</ele>
        <time>2022-09-14T12:08:09Z</time>
      </trkpt>
      <trkpt lat="49.9407" lon="2.13602">
        <ele>63.5</ele>
        <time>2022-09-14T12:08:10Z</time>
      </trkpt>
      <trkpt lat="49.9407" lon="2.13601">
        <ele>63.5</ele>
        <time>2022-09-14T12:08:11Z</time>
      </trkpt>
      <trkpt lat="49.94069" lon="2.136">
        <ele>63.6</ele>
        <time>2022-09-14T12:08:12Z</time>
      </trkpt>
      <trkpt lat="49.94068" lon="2.13598">
        <ele>63.6</ele>
        <time>2022-09-14T12:08:13Z</time>
      </trkpt>
      <trkpt lat="49.94067" lon="2.13596">
        <ele>63.7</ele>
        <time>2022-09-14T12:08:15Z</time>
      </trkpt>
      <trkpt lat="49.94066" lon="2.13594">
        <ele>63.7</ele>
        <time>2022-09-14T12:08:16Z</time>
      </trkpt>
      <trkpt lat="49.94066" lon="2.13593">
        <ele>63.7</ele>
        <time>2022-09-14T12:08:17Z</time>
      </trkpt>
      <trkpt lat="49.94065" lon="2.13592">
        <ele>63.8</ele>
        <time>2022-09-14T12:08:18Z</time>
      </trkpt>
      <trkpt lat="49.94064" lon="2.1359">
        <ele>63.8</ele>
        <time>2022-09-14T12:08:19Z</time>
      </trkpt>
      <trkpt lat="49.94064" lon="2.13588">
        <ele>63.9</ele>
        <time>2022-09-14T12:08:20Z</time>
      </trkpt>
      <trkpt lat="49.94062" lon="2.13586">
        <ele>64</ele>
        <time>2022-09-14T12:08:21Z</time>
      </trkpt>
      <trkpt lat="49.94062" lon="2.13584">
        <ele>64</ele>
        <time>2022-09-14T12:08:23Z</time>
      </trkpt>
      <trkpt lat="49.94061" lon="2.13583">
        <ele>64</ele>
        <time>2022-09-14T12:08:24Z</time>
      </trkpt>
      <trkpt lat="49.9406" lon="2.13583">
        <ele>64</ele>
        <time>2022-09-14T12:08:25Z</time>
      </trkpt>
      <trkpt lat="49.9406" lon="2.13581">
        <ele>64.1</ele>
        <time>2022-09-14T12:08:26Z</time>
      </trkpt>
      <trkpt lat="49.94059" lon="2.13579">
        <ele>64.1</ele>
        <time>2022-09-14T12:08:28Z</time>
      </trkpt>
      <trkpt lat="49.94058" lon="2.13576">
        <ele>64.2</ele>
        <time>2022-09-14T12:08:29Z</time>
      </trkpt>
      <trkpt lat="49.94058" lon="2.13575">
        <ele>64.2</ele>
        <time>2022-09-14T12:08:30Z</time>
      </trkpt>
      <trkpt lat="49.94057" lon="2.13573">
        <ele>64.3</ele>
        <time>2022-09-14T12:08:32Z</time>
      </trkpt>
      <trkpt lat="49.94056" lon="2.13572">
        <ele>64.3</ele>
        <time>2022-09-14T12:08:33Z</time>
      </trkpt>
      <trkpt lat="49.94055" lon="2.13569">
        <ele>64.4</ele>
        <time>2022-09-14T12:08:34Z</time>
      </trkpt>
      <trkpt lat="49.94054" lon="2.13568">
        <ele>64.4</ele>
        <time>2022-09-14T12:08:35Z</time>
      </trkpt>
      <trkpt lat="49.94054" lon="2.13567">
        <ele>64.5</ele>
        <time>2022-09-14T12:08:37Z</time>
      </trkpt>
      <trkpt lat="49.94053" lon="2.13565">
        <ele>64.5</ele>
        <time>2022-09-14T12:08:38Z</time>
      </trkpt>
      <trkpt lat="49.94052" lon="2.13564">
        <ele>64.5</ele>
        <time>2022-09-14T12:08:39Z</time>
      </trkpt>
      <trkpt lat="49.94052" lon="2.13563">
        <ele>64.6</ele>
        <time>2022-09-14T12:08:40Z</time>
      </trkpt>
      <trkpt lat="49.94051" lon="2.13561">
        <ele>64.6</ele>
        <time>2022-09-14T12:08:41Z</time>
      </trkpt>
      <trkpt lat="49.94051" lon="2.1356">
        <ele>64.6</ele>
        <time>2022-09-14T12:08:42Z</time>
      </trkpt>
      <trkpt lat="49.94049" lon="2.13556">
        <ele>64.7</ele>
        <time>2022-09-14T12:08:43Z</time>
      </trkpt>
      <trkpt lat="49.94049" lon="2.13555">
        <ele>64.7</ele>
        <time>2022-09-14T12:08:45Z</time>
      </trkpt>
      <trkpt lat="49.94048" lon="2.13554">
        <ele>64.8</ele>
        <time>2022-09-14T12:08:46Z</time>
      </trkpt>
      <trkpt lat="49.94048" lon="2.13552">
        <ele>64.8</ele>
        <time>2022-09-14T12:08:47Z</time>
      </trkpt>
      <trkpt lat="49.94047" lon="2.13551">
        <ele>64.9</ele>
        <time>2022-09-14T12:08:48Z</time>
      </trkpt>
      <trkpt lat="49.94046" lon="2.13548">
        <ele>64.9</ele>
        <time>2022-09-14T12:08:49Z</time>
      </trkpt>
      <trkpt lat="49.94046" lon="2.13547">
        <ele>65</ele>
        <time>2022-09-14T12:08:50Z</time>
      </trkpt>
      <trkpt lat="49.94045" lon="2.13545">
        <ele>65</ele>
        <time>2022-09-14T12:08:51Z</time>
      </trkpt>
      <trkpt lat="49.94045" lon="2.13544">
        <ele>65</ele>
        <time>2022-09-14T12:08:53Z</time>
      </trkpt>
      <trkpt lat="49.94044" lon="2.13542">
        <ele>65.1</ele>
        <time>2022-09-14T12:08:54Z</time>
      </trkpt>
      <trkpt lat="49.94044" lon="2.13541">
        <ele>65.1</ele>
        <time>2022-09-14T12:08:55Z</time>
      </trkpt>
      <trkpt lat="49.94043" lon="2.1354">
        <ele>65.1</ele>
        <time>2022-09-14T12:08:56Z</time>
      </trkpt>
      <trkpt lat="49.94043" lon="2.13537">
        <ele>65.2</ele>
        <time>2022-09-14T12:08:57Z</time>
      </trkpt>
      <trkpt lat="49.94042" lon="2.13536">
        <ele>65.2</ele>
        <time>2022-09-14T12:08:58Z</time>
      </trkpt>
      <trkpt lat="49.94041" lon="2.13534">
        <ele>65.3</ele>
        <time>2022-09-14T12:08:59Z</time>
      </trkpt>
      <trkpt lat="49.9404" lon="2.13532">
        <ele>65.4</ele>
        <time>2022-09-14T12:09:00Z</time>
      </trkpt>
      <trkpt lat="49.94039" lon="2.1353">
        <ele>65.4</ele>
        <time>2022-09-14T12:09:02Z</time>
      </trkpt>
      <trkpt lat="49.94039" lon="2.13529">
        <ele>65.4</ele>
        <time>2022-09-14T12:09:03Z</time>
      </trkpt>
      <trkpt lat="49.94038" lon="2.13527">
        <ele>65.5</ele>
        <time>2022-09-14T12:09:04Z</time>
      </trkpt>
      <trkpt lat="49.94037" lon="2.13526">
        <ele>65.5</ele>
        <time>2022-09-14T12:09:05Z</time>
      </trkpt>
      <trkpt lat="49.94037" lon="2.13525">
        <ele>65.6</ele>
        <time>2022-09-14T12:09:06Z</time>
      </trkpt>
      <trkpt lat="49.94036" lon="2.13523">
        <ele>65.6</ele>
        <time>2022-09-14T12:09:07Z</time>
      </trkpt>
      <trkpt lat="49.94035" lon="2.13522">
        <ele>65.6</ele>
        <time>2022-09-14T12:09:08Z</time>
      </trkpt>
      <trkpt lat="49.94034" lon="2.1352">
        <ele>65.7</ele>
        <time>2022-09-14T12:09:10Z</time>
      </trkpt>
      <trkpt lat="49.94034" lon="2.13519">
        <ele>65.7</ele>
        <time>2022-09-14T12:09:11Z</time>
      </trkpt>
      <trkpt lat="49.94033" lon="2.13518">
        <ele>65.7</ele>
        <time>2022-09-14T12:09:12Z</time>
      </trkpt>
      <trkpt lat="49.94032" lon="2.13516">
        <ele>65.8</ele>
        <time>2022-09-14T12:09:13Z</time>
      </trkpt>
      <trkpt lat="49.94031" lon="2.13514">
        <ele>65.9</ele>
        <time>2022-09-14T12:09:14Z</time>
      </trkpt>
      <trkpt lat="49.9403" lon="2.13513">
        <ele>65.9</ele>
        <time>2022-09-14T12:09:15Z</time>
      </trkpt>
      <trkpt lat="49.9403" lon="2.13512">
        <ele>65.9</ele>
        <time>2022-09-14T12:09:16Z</time>
      </trkpt>
      <trkpt lat="49.94029" lon="2.1351">
        <ele>66</ele>
        <time>2022-09-14T12:09:18Z</time>
      </trkpt>
      <trkpt lat="49.94028" lon="2.13509">
        <ele>66</ele>
        <time>2022-09-14T12:09:19Z</time>
      </trkpt>
      <trkpt lat="49.94027" lon="2.13508">
        <ele>66</ele>
        <time>2022-09-14T12:09:20Z</time>
      </trkpt>
      <trkpt lat="49.94026" lon="2.13507">
        <ele>66.1</ele>
        <time>2022-09-14T12:09:21Z</time>
      </trkpt>
      <trkpt lat="49.94025" lon="2.13505">
        <ele>66.1</ele>
        <time>2022-09-14T12:09:22Z</time>
      </trkpt>
      <trkpt lat="49.94024" lon="2.13504">
        <ele>66.2</ele>
        <time>2022-09-14T12:09:24Z</time>
      </trkpt>
      <trkpt lat="49.94023" lon="2.13502">
        <ele>66.2</ele>
        <time>2022-09-14T12:09:25Z</time>
      </trkpt>
      <trkpt lat="49.94022" lon="2.135">
        <ele>66.3</ele>
        <time>2022-09-14T12:09:27Z</time>
      </trkpt>
      <trkpt lat="49.94021" lon="2.13499">
        <ele>66.3</ele>
        <time>2022-09-14T12:09:28Z</time>
      </trkpt>
      <trkpt lat="49.94021" lon="2.13498">
        <ele>66.3</ele>
        <time>2022-09-14T12:09:29Z</time>
      </trkpt>
      <trkpt lat="49.9402" lon="2.13496">
        <ele>66.4</ele>
        <time>2022-09-14T12:09:30Z</time>
      </trkpt>
      <trkpt lat="49.94019" lon="2.13494">
        <ele>66.4</ele>
        <time>2022-09-14T12:09:31Z</time>
      </trkpt>
      <trkpt lat="49.94018" lon="2.13493">
        <ele>66.4</ele>
        <time>2022-09-14T12:09:32Z</time>
      </trkpt>
      <trkpt lat="49.94017" lon="2.13491">
        <ele>66.5</ele>
        <time>2022-09-14T12:09:33Z</time>
      </trkpt>
      <trkpt lat="49.94016" lon="2.13487">
        <ele>66.6</ele>
        <time>2022-09-14T12:09:35Z</time>
      </trkpt>
      <trkpt lat="49.94016" lon="2.13486">
        <ele>66.6</ele>
        <time>2022-09-14T12:09:36Z</time>
      </trkpt>
      <trkpt lat="49.94016" lon="2.13485">
        <ele>66.6</ele>
        <time>2022-09-14T12:09:37Z</time>
      </trkpt>
      <trkpt lat="49.94015" lon="2.13484">
        <ele>66.6</ele>
        <time>2022-09-14T12:09:38Z</time>
      </trkpt>
      <trkpt lat="49.94014" lon="2.13482">
        <ele>66.7</ele>
        <time>2022-09-14T12:09:39Z</time>
      </trkpt>
      <trkpt lat="49.94013" lon="2.1348">
        <ele>66.7</ele>
        <time>2022-09-14T12:09:40Z</time>
      </trkpt>
      <trkpt lat="49.94013" lon="2.13479">
        <ele>66.7</ele>
        <time>2022-09-14T12:09:41Z</time>
      </trkpt>
      <trkpt lat="49.94012" lon="2.13477">
        <ele>66.8</ele>
        <time>2022-09-14T12:09:42Z</time>
      </trkpt>
      <trkpt lat="49.94011" lon="2.13476">
        <ele>66.8</ele>
        <time>2022-09-14T12:09:44Z</time>
      </trkpt>
      <trkpt lat="49.94011" lon="2.13474">
        <ele>66.8</ele>
        <time>2022-09-14T12:09:45Z</time>
      </trkpt>
      <trkpt lat="49.9401" lon="2.13472">
        <ele>66.9</ele>
        <time>2022-09-14T12:09:46Z</time>
      </trkpt>
      <trkpt lat="49.9401" lon="2.13469">
        <ele>66.9</ele>
        <time>2022-09-14T12:09:47Z</time>
      </trkpt>
      <trkpt lat="49.94009" lon="2.13467">
        <ele>67</ele>
        <time>2022-09-14T12:09:48Z</time>
      </trkpt>
      <trkpt lat="49.94009" lon="2.13466">
        <ele>67</ele>
        <time>2022-09-14T12:09:49Z</time>
      </trkpt>
      <trkpt lat="49.94008" lon="2.13465">
        <ele>67</ele>
        <time>2022-09-14T12:09:51Z</time>
      </trkpt>
      <trkpt lat="49.94008" lon="2.13463">
        <ele>67.1</ele>
        <time>2022-09-14T12:09:52Z</time>
      </trkpt>
      <trkpt lat="49.94007" lon="2.13462">
        <ele>67.1</ele>
        <time>2022-09-14T12:09:53Z</time>
      </trkpt>
      <trkpt lat="49.94006" lon="2.13459">
        <ele>67.1</ele>
        <time>2022-09-14T12:09:55Z</time>
      </trkpt>
      <trkpt lat="49.94006" lon="2.13458">
        <ele>67.2</ele>
        <time>2022-09-14T12:09:56Z</time>
      </trkpt>
      <trkpt lat="49.94004" lon="2.13455">
        <ele>67.2</ele>
        <time>2022-09-14T12:09:57Z</time>
      </trkpt>
      <trkpt lat="49.94003" lon="2.13454">
        <ele>67.3</ele>
        <time>2022-09-14T12:09:58Z</time>
      </trkpt>
      <trkpt lat="49.94003" lon="2.13453">
        <ele>67.3</ele>
        <time>2022-09-14T12:09:59Z</time>
      </trkpt>
      <trkpt lat="49.94002" lon="2.13453">
        <ele>67.3</ele>
        <time>2022-09-14T12:10:00Z</time>
      </trkpt>
      <trkpt lat="49.94001" lon="2.13451">
        <ele>67.4</ele>
        <time>2022-09-14T12:10:01Z</time>
      </trkpt>
      <trkpt lat="49.94001" lon="2.1345">
        <ele>67.4</ele>
        <time>2022-09-14T12:10:02Z</time>
      </trkpt>
      <trkpt lat="49.94" lon="2.13448">
        <ele>67.5</ele>
        <time>2022-09-14T12:10:04Z</time>
      </trkpt>
      <trkpt lat="49.93999" lon="2.13446">
        <ele>67.5</ele>
        <time>2022-09-14T12:10:05Z</time>
      </trkpt>
      <trkpt lat="49.93999" lon="2.13445">
        <ele>67.5</ele>
        <time>2022-09-14T12:10:06Z</time>
      </trkpt>
      <trkpt lat="49.93998" lon="2.13443">
        <ele>67.6</ele>
        <time>2022-09-14T12:10:07Z</time>
      </trkpt>
      <trkpt lat="49.93997" lon="2.13441">
        <ele>67.6</ele>
        <time>2022-09-14T12:10:08Z</time>
      </trkpt>
      <trkpt lat="49.93996" lon="2.13439">
        <ele>67.7</ele>
        <time>2022-09-14T12:10:10Z</time>
      </trkpt>
      <trkpt lat="49.93996" lon="2.13438">
        <ele>67.7</ele>
        <time>2022-09-14T12:10:11Z</time>
      </trkpt>
      <trkpt lat="49.93995" lon="2.13437">
        <ele>67.7</ele>
        <time>2022-09-14T12:10:12Z</time>
      </trkpt>
      <trkpt lat="49.93995" lon="2.13436">
        <ele>67.8</ele>
        <time>2022-09-14T12:10:13Z</time>
      </trkpt>
      <trkpt lat="49.93993" lon="2.13433">
        <ele>67.8</ele>
        <time>2022-09-14T12:10:15Z</time>
      </trkpt>
      <trkpt lat="49.93993" lon="2.13432">
        <ele>67.9</ele>
        <time>2022-09-14T12:10:16Z</time>
      </trkpt>
      <trkpt lat="49.93992" lon="2.1343">
        <ele>67.9</ele>
        <time>2022-09-14T12:10:17Z</time>
      </trkpt>
      <trkpt lat="49.93991" lon="2.13429">
        <ele>68</ele>
        <time>2022-09-14T12:10:18Z</time>
      </trkpt>
      <trkpt lat="49.9399" lon="2.13426">
        <ele>68</ele>
        <time>2022-09-14T12:10:19Z</time>
      </trkpt>
      <trkpt lat="49.9399" lon="2.13425">
        <ele>68</ele>
        <time>2022-09-14T12:10:21Z</time>
      </trkpt>
      <trkpt lat="49.93989" lon="2.13424">
        <ele>68.1</ele>
        <time>2022-09-14T12:10:22Z</time>
      </trkpt>
      <trkpt lat="49.93988" lon="2.13423">
        <ele>68.1</ele>
        <time>2022-09-14T12:10:23Z</time>
      </trkpt>
      <trkpt lat="49.93988" lon="2.13421">
        <ele>68.2</ele>
        <time>2022-09-14T12:10:24Z</time>
      </trkpt>
      <trkpt lat="49.93986" lon="2.13418">
        <ele>68.2</ele>
        <time>2022-09-14T12:10:25Z</time>
      </trkpt>
      <trkpt lat="49.93986" lon="2.13418">
        <ele>68.3</ele>
        <time>2022-09-14T12:10:26Z</time>
      </trkpt>
      <trkpt lat="49.93985" lon="2.13417">
        <ele>68.3</ele>
        <time>2022-09-14T12:10:27Z</time>
      </trkpt>
      <trkpt lat="49.93985" lon="2.13415">
        <ele>68.3</ele>
        <time>2022-09-14T12:10:29Z</time>
      </trkpt>
      <trkpt lat="49.93984" lon="2.13413">
        <ele>68.4</ele>
        <time>2022-09-14T12:10:30Z</time>
      </trkpt>
      <trkpt lat="49.93983" lon="2.13412">
        <ele>68.4</ele>
        <time>2022-09-14T12:10:31Z</time>
      </trkpt>
      <trkpt lat="49.93983" lon="2.13411">
        <ele>68.4</ele>
        <time>2022-09-14T12:10:32Z</time>
      </trkpt>
      <trkpt lat="49.93982" lon="2.13409">
        <ele>68.5</ele>
        <time>2022-09-14T12:10:33Z</time>
      </trkpt>
      <trkpt lat="49.93981" lon="2.13408">
        <ele>68.5</ele>
        <time>2022-09-14T12:10:34Z</time>
      </trkpt>
      <trkpt lat="49.93981" lon="2.13405">
        <ele>68.6</ele>
        <time>2022-09-14T12:10:35Z</time>
      </trkpt>
      <trkpt lat="49.9398" lon="2.13404">
        <ele>68.6</ele>
        <time>2022-09-14T12:10:36Z</time>
      </trkpt>
      <trkpt lat="49.93979" lon="2.13401">
        <ele>68.7</ele>
        <time>2022-09-14T12:10:38Z</time>
      </trkpt>
      <trkpt lat="49.93978" lon="2.134">
        <ele>68.7</ele>
        <time>2022-09-14T12:10:39Z</time>
      </trkpt>
      <trkpt lat="49.93978" lon="2.13398">
        <ele>68.7</ele>
        <time>2022-09-14T12:10:40Z</time>
      </trkpt>
      <trkpt lat="49.93978" lon="2.13397">
        <ele>68.8</ele>
        <time>2022-09-14T12:10:41Z</time>
      </trkpt>
      <trkpt lat="49.93977" lon="2.13396">
        <ele>68.8</ele>
        <time>2022-09-14T12:10:42Z</time>
      </trkpt>
      <trkpt lat="49.93976" lon="2.13394">
        <ele>68.9</ele>
        <time>2022-09-14T12:10:43Z</time>
      </trkpt>
      <trkpt lat="49.93975" lon="2.13391">
        <ele>68.9</ele>
        <time>2022-09-14T12:10:45Z</time>
      </trkpt>
      <trkpt lat="49.93975" lon="2.1339">
        <ele>69</ele>
        <time>2022-09-14T12:10:46Z</time>
      </trkpt>
      <trkpt lat="49.93974" lon="2.13387">
        <ele>69.1</ele>
        <time>2022-09-14T12:10:47Z</time>
      </trkpt>
      <trkpt lat="49.93973" lon="2.13385">
        <ele>69.1</ele>
        <time>2022-09-14T12:10:48Z</time>
      </trkpt>
      <trkpt lat="49.93973" lon="2.13384">
        <ele>69.1</ele>
        <time>2022-09-14T12:10:49Z</time>
      </trkpt>
      <trkpt lat="49.93973" lon="2.13383">
        <ele>69.2</ele>
        <time>2022-09-14T12:10:51Z</time>
      </trkpt>
      <trkpt lat="49.93972" lon="2.13381">
        <ele>69.2</ele>
        <time>2022-09-14T12:10:52Z</time>
      </trkpt>
      <trkpt lat="49.93971" lon="2.13379">
        <ele>69.3</ele>
        <time>2022-09-14T12:10:53Z</time>
      </trkpt>
      <trkpt lat="49.93971" lon="2.13378">
        <ele>69.3</ele>
        <time>2022-09-14T12:10:54Z</time>
      </trkpt>
      <trkpt lat="49.9397" lon="2.13376">
        <ele>69.4</ele>
        <time>2022-09-14T12:10:55Z</time>
      </trkpt>
      <trkpt lat="49.93969" lon="2.13374">
        <ele>69.4</ele>
        <time>2022-09-14T12:10:57Z</time>
      </trkpt>
      <trkpt lat="49.93968" lon="2.13371">
        <ele>69.5</ele>
        <time>2022-09-14T12:10:58Z</time>
      </trkpt>
      <trkpt lat="49.93967" lon="2.1337">
        <ele>69.5</ele>
        <time>2022-09-14T12:10:59Z</time>
      </trkpt>
      <trkpt lat="49.93966" lon="2.13369">
        <ele>69.6</ele>
        <time>2022-09-14T12:11:00Z</time>
      </trkpt>
      <trkpt lat="49.93966" lon="2.13367">
        <ele>69.6</ele>
        <time>2022-09-14T12:11:01Z</time>
      </trkpt>
      <trkpt lat="49.93965" lon="2.13366">
        <ele>69.7</ele>
        <time>2022-09-14T12:11:02Z</time>
      </trkpt>
      <trkpt lat="49.93964" lon="2.13365">
        <ele>69.7</ele>
        <time>2022-09-14T12:11:04Z</time>
      </trkpt>
      <trkpt lat="49.93963" lon="2.13363">
        <ele>69.8</ele>
        <time>2022-09-14T12:11:05Z</time>
      </trkpt>
      <trkpt lat="49.93962" lon="2.13362">
        <ele>69.8</ele>
        <time>2022-09-14T12:11:06Z</time>
      </trkpt>
      <trkpt lat="49.93962" lon="2.13361">
        <ele>69.9</ele>
        <time>2022-09-14T12:11:07Z</time>
      </trkpt>
      <trkpt lat="49.93961" lon="2.13359">
        <ele>69.9</ele>
        <time>2022-09-14T12:11:08Z</time>
      </trkpt>
      <trkpt lat="49.9396" lon="2.13358">
        <ele>70</ele>
        <time>2022-09-14T12:11:09Z</time>
      </trkpt>
      <trkpt lat="49.93959" lon="2.13356">
        <ele>70</ele>
        <time>2022-09-14T12:11:11Z</time>
      </trkpt>
      <trkpt lat="49.93958" lon="2.13354">
        <ele>70.1</ele>
        <time>2022-09-14T12:11:12Z</time>
      </trkpt>
      <trkpt lat="49.93957" lon="2.13352">
        <ele>70.1</ele>
        <time>2022-09-14T12:11:13Z</time>
      </trkpt>
      <trkpt lat="49.93956" lon="2.13351">
        <ele>70.2</ele>
        <time>2022-09-14T12:11:15Z</time>
      </trkpt>
      <trkpt lat="49.93955" lon="2.1335">
        <ele>70.2</ele>
        <time>2022-09-14T12:11:16Z</time>
      </trkpt>
      <trkpt lat="49.93954" lon="2.13349">
        <ele>70.3</ele>
        <time>2022-09-14T12:11:17Z</time>
      </trkpt>
      <trkpt lat="49.93954" lon="2.13348">
        <ele>70.3</ele>
        <time>2022-09-14T12:11:18Z</time>
      </trkpt>
      <trkpt lat="49.93953" lon="2.13346">
        <ele>70.3</ele>
        <time>2022-09-14T12:11:19Z</time>
      </trkpt>
      <trkpt lat="49.93952" lon="2.13345">
        <ele>70.4</ele>
        <time>2022-09-14T12:11:20Z</time>
      </trkpt>
      <trkpt lat="49.93952" lon="2.13343">
        <ele>70.4</ele>
        <time>2022-09-14T12:11:22Z</time>
      </trkpt>
      <trkpt lat="49.93951" lon="2.13342">
        <ele>70.5</ele>
        <time>2022-09-14T12:11:23Z</time>
      </trkpt>
      <trkpt lat="49.93951" lon="2.13341">
        <ele>70.5</ele>
        <time>2022-09-14T12:11:24Z</time>
      </trkpt>
      <trkpt lat="49.93949" lon="2.13338">
        <ele>70.6</ele>
        <time>2022-09-14T12:11:25Z</time>
      </trkpt>
      <trkpt lat="49.93949" lon="2.13337">
        <ele>70.6</ele>
        <time>2022-09-14T12:11:26Z</time>
      </trkpt>
      <trkpt lat="49.93949" lon="2.13336">
        <ele>70.6</ele>
        <time>2022-09-14T12:11:27Z</time>
      </trkpt>
      <trkpt lat="49.93948" lon="2.13335">
        <ele>70.7</ele>
        <time>2022-09-14T12:11:29Z</time>
      </trkpt>
      <trkpt lat="49.93946" lon="2.13333">
        <ele>70.8</ele>
        <time>2022-09-14T12:11:30Z</time>
      </trkpt>
      <trkpt lat="49.93946" lon="2.13331">
        <ele>70.8</ele>
        <time>2022-09-14T12:11:31Z</time>
      </trkpt>
      <trkpt lat="49.93945" lon="2.1333">
        <ele>70.8</ele>
        <time>2022-09-14T12:11:32Z</time>
      </trkpt>
      <trkpt lat="49.93945" lon="2.13329">
        <ele>70.9</ele>
        <time>2022-09-14T12:11:33Z</time>
      </trkpt>
      <trkpt lat="49.93944" lon="2.13328">
        <ele>70.9</ele>
        <time>2022-09-14T12:11:34Z</time>
      </trkpt>
      <trkpt lat="49.93943" lon="2.13326">
        <ele>71</ele>
        <time>2022-09-14T12:11:35Z</time>
      </trkpt>
      <trkpt lat="49.93943" lon="2.13324">
        <ele>71.1</ele>
        <time>2022-09-14T12:11:36Z</time>
      </trkpt>
      <trkpt lat="49.93942" lon="2.13322">
        <ele>71.2</ele>
        <time>2022-09-14T12:11:37Z</time>
      </trkpt>
      <trkpt lat="49.93942" lon="2.13321">
        <ele>71.3</ele>
        <time>2022-09-14T12:11:39Z</time>
      </trkpt>
      <trkpt lat="49.93941" lon="2.13319">
        <ele>71.4</ele>
        <time>2022-09-14T12:11:40Z</time>
      </trkpt>
      <trkpt lat="49.9394" lon="2.13316">
        <ele>71.6</ele>
        <time>2022-09-14T12:11:41Z</time>
      </trkpt>
      <trkpt lat="49.9394" lon="2.13314">
        <ele>71.6</ele>
        <time>2022-09-14T12:11:43Z</time>
      </trkpt>
      <trkpt lat="49.93939" lon="2.13313">
        <ele>71.7</ele>
        <time>2022-09-14T12:11:44Z</time>
      </trkpt>
      <trkpt lat="49.93939" lon="2.13311">
        <ele>71.8</ele>
        <time>2022-09-14T12:11:45Z</time>
      </trkpt>
      <trkpt lat="49.93938" lon="2.13309">
        <ele>71.9</ele>
        <time>2022-09-14T12:11:46Z</time>
      </trkpt>
      <trkpt lat="49.93938" lon="2.13308">
        <ele>72</ele>
        <time>2022-09-14T12:11:47Z</time>
      </trkpt>
      <trkpt lat="49.93937" lon="2.13307">
        <ele>72.1</ele>
        <time>2022-09-14T12:11:48Z</time>
      </trkpt>
      <trkpt lat="49.93937" lon="2.13306">
        <ele>72.2</ele>
        <time>2022-09-14T12:11:49Z</time>
      </trkpt>
      <trkpt lat="49.93936" lon="2.13304">
        <ele>72.3</ele>
        <time>2022-09-14T12:11:51Z</time>
      </trkpt>
      <trkpt lat="49.93935" lon="2.13302">
        <ele>72.4</ele>
        <time>2022-09-14T12:11:52Z</time>
      </trkpt>
      <trkpt lat="49.93935" lon="2.13301">
        <ele>72.5</ele>
        <time>2022-09-14T12:11:53Z</time>
      </trkpt>
      <trkpt lat="49.93934" lon="2.13299">
        <ele>72.6</ele>
        <time>2022-09-14T12:11:54Z</time>
      </trkpt>
      <trkpt lat="49.93933" lon="2.13297">
        <ele>72.7</ele>
        <time>2022-09-14T12:11:55Z</time>
      </trkpt>
      <trkpt lat="49.93933" lon="2.13295">
        <ele>72.8</ele>
        <time>2022-09-14T12:11:57Z</time>
      </trkpt>
      <trkpt lat="49.93932" lon="2.13294">
        <ele>72.9</ele>
        <time>2022-09-14T12:11:58Z</time>
      </trkpt>
      <trkpt lat="49.93931" lon="2.13293">
        <ele>72.9</ele>
        <time>2022-09-14T12:11:59Z</time>
      </trkpt>
      <trkpt lat="49.93931" lon="2.13292">
        <ele>73</ele>
        <time>2022-09-14T12:12:00Z</time>
      </trkpt>
      <trkpt lat="49.93929" lon="2.1329">
        <ele>73.2</ele>
        <time>2022-09-14T12:12:01Z</time>
      </trkpt>
      <trkpt lat="49.93929" lon="2.13289">
        <ele>73.3</ele>
        <time>2022-09-14T12:12:02Z</time>
      </trkpt>
      <trkpt lat="49.93928" lon="2.13288">
        <ele>73.3</ele>
        <time>2022-09-14T12:12:03Z</time>
      </trkpt>
      <trkpt lat="49.93927" lon="2.13287">
        <ele>73.4</ele>
        <time>2022-09-14T12:12:05Z</time>
      </trkpt>
      <trkpt lat="49.93926" lon="2.13285">
        <ele>73.5</ele>
        <time>2022-09-14T12:12:06Z</time>
      </trkpt>
      <trkpt lat="49.93925" lon="2.13283">
        <ele>73.7</ele>
        <time>2022-09-14T12:12:07Z</time>
      </trkpt>
      <trkpt lat="49.93924" lon="2.13282">
        <ele>73.8</ele>
        <time>2022-09-14T12:12:08Z</time>
      </trkpt>
      <trkpt lat="49.93923" lon="2.13281">
        <ele>73.8</ele>
        <time>2022-09-14T12:12:09Z</time>
      </trkpt>
      <trkpt lat="49.93923" lon="2.1328">
        <ele>74</ele>
        <time>2022-09-14T12:12:10Z</time>
      </trkpt>
      <trkpt lat="49.93921" lon="2.13277">
        <ele>74.1</ele>
        <time>2022-09-14T12:12:12Z</time>
      </trkpt>
      <trkpt lat="49.93921" lon="2.13276">
        <ele>74.2</ele>
        <time>2022-09-14T12:12:13Z</time>
      </trkpt>
      <trkpt lat="49.9392" lon="2.13275">
        <ele>74.2</ele>
        <time>2022-09-14T12:12:14Z</time>
      </trkpt>
      <trkpt lat="49.93919" lon="2.13274">
        <ele>74.4</ele>
        <time>2022-09-14T12:12:15Z</time>
      </trkpt>
      <trkpt lat="49.93918" lon="2.13272">
        <ele>74.5</ele>
        <time>2022-09-14T12:12:16Z</time>
      </trkpt>
      <trkpt lat="49.93917" lon="2.1327">
        <ele>74.6</ele>
        <time>2022-09-14T12:12:17Z</time>
      </trkpt>
      <trkpt lat="49.93916" lon="2.13268">
        <ele>74.8</ele>
        <time>2022-09-14T12:12:19Z</time>
      </trkpt>
      <trkpt lat="49.93916" lon="2.13267">
        <ele>74.8</ele>
        <time>2022-09-14T12:12:20Z</time>
      </trkpt>
      <trkpt lat="49.93915" lon="2.13266">
        <ele>74.9</ele>
        <time>2022-09-14T12:12:21Z</time>
      </trkpt>
      <trkpt lat="49.93915" lon="2.13263">
        <ele>75</ele>
        <time>2022-09-14T12:12:22Z</time>
      </trkpt>
      <trkpt lat="49.93914" lon="2.13262">
        <ele>75.1</ele>
        <time>2022-09-14T12:12:23Z</time>
      </trkpt>
      <trkpt lat="49.93913" lon="2.13258">
        <ele>75.3</ele>
        <time>2022-09-14T12:12:24Z</time>
      </trkpt>
      <trkpt lat="49.93912" lon="2.13257">
        <ele>75.4</ele>
        <time>2022-09-14T12:12:26Z</time>
      </trkpt>
      <trkpt lat="49.93912" lon="2.13255">
        <ele>75.5</ele>
        <time>2022-09-14T12:12:27Z</time>
      </trkpt>
      <trkpt lat="49.93911" lon="2.13255">
        <ele>75.6</ele>
        <time>2022-09-14T12:12:28Z</time>
      </trkpt>
      <trkpt lat="49.93911" lon="2.13253">
        <ele>75.7</ele>
        <time>2022-09-14T12:12:29Z</time>
      </trkpt>
      <trkpt lat="49.9391" lon="2.13251">
        <ele>75.8</ele>
        <time>2022-09-14T12:12:30Z</time>
      </trkpt>
      <trkpt lat="49.93909" lon="2.13248">
        <ele>76</ele>
        <time>2022-09-14T12:12:31Z</time>
      </trkpt>
      <trkpt lat="49.93909" lon="2.13247">
        <ele>76</ele>
        <time>2022-09-14T12:12:33Z</time>
      </trkpt>
      <trkpt lat="49.93908" lon="2.13246">
        <ele>76.1</ele>
        <time>2022-09-14T12:12:34Z</time>
      </trkpt>
      <trkpt lat="49.93908" lon="2.13245">
        <ele>76.2</ele>
        <time>2022-09-14T12:12:35Z</time>
      </trkpt>
      <trkpt lat="49.93907" lon="2.13244">
        <ele>76.3</ele>
        <time>2022-09-14T12:12:36Z</time>
      </trkpt>
      <trkpt lat="49.93907" lon="2.13242">
        <ele>76.3</ele>
        <time>2022-09-14T12:12:37Z</time>
      </trkpt>
      <trkpt lat="49.93906" lon="2.13241">
        <ele>76.4</ele>
        <time>2022-09-14T12:12:38Z</time>
      </trkpt>
      <trkpt lat="49.93906" lon="2.13239">
        <ele>76.5</ele>
        <time>2022-09-14T12:12:39Z</time>
      </trkpt>
      <trkpt lat="49.93905" lon="2.13238">
        <ele>76.6</ele>
        <time>2022-09-14T12:12:40Z</time>
      </trkpt>
      <trkpt lat="49.93904" lon="2.13236">
        <ele>76.8</ele>
        <time>2022-09-14T12:12:42Z</time>
      </trkpt>
      <trkpt lat="49.93903" lon="2.13234">
        <ele>76.9</ele>
        <time>2022-09-14T12:12:43Z</time>
      </trkpt>
      <trkpt lat="49.93902" lon="2.13231">
        <ele>77.1</ele>
        <time>2022-09-14T12:12:44Z</time>
      </trkpt>
      <trkpt lat="49.93901" lon="2.1323">
        <ele>77.2</ele>
        <time>2022-09-14T12:12:46Z</time>
      </trkpt>
      <trkpt lat="49.939" lon="2.13229">
        <ele>77.3</ele>
        <time>2022-09-14T12:12:47Z</time>
      </trkpt>
      <trkpt lat="49.939" lon="2.13228">
        <ele>77.3</ele>
        <time>2022-09-14T12:12:48Z</time>
      </trkpt>
      <trkpt lat="49.93899" lon="2.13227">
        <ele>77.4</ele>
        <time>2022-09-14T12:12:49Z</time>
      </trkpt>
      <trkpt lat="49.93898" lon="2.13226">
        <ele>77.5</ele>
        <time>2022-09-14T12:12:50Z</time>
      </trkpt>
      <trkpt lat="49.93896" lon="2.13224">
        <ele>77.7</ele>
        <time>2022-09-14T12:12:51Z</time>
      </trkpt>
      <trkpt lat="49.93896" lon="2.13223">
        <ele>77.8</ele>
        <time>2022-09-14T12:12:53Z</time>
      </trkpt>
      <trkpt lat="49.93895" lon="2.13223">
        <ele>77.9</ele>
        <time>2022-09-14T12:12:54Z</time>
      </trkpt>
      <trkpt lat="49.93894" lon="2.1322">
        <ele>78.1</ele>
        <time>2022-09-14T12:12:55Z</time>
      </trkpt>
      <trkpt lat="49.93893" lon="2.13219">
        <ele>78.1</ele>
        <time>2022-09-14T12:12:56Z</time>
      </trkpt>
      <trkpt lat="49.93892" lon="2.13218">
        <ele>78.2</ele>
        <time>2022-09-14T12:12:57Z</time>
      </trkpt>
      <trkpt lat="49.93892" lon="2.13217">
        <ele>78.3</ele>
        <time>2022-09-14T12:12:59Z</time>
      </trkpt>
      <trkpt lat="49.93891" lon="2.13215">
        <ele>78.5</ele>
        <time>2022-09-14T12:13:00Z</time>
      </trkpt>
      <trkpt lat="49.9389" lon="2.13213">
        <ele>78.6</ele>
        <time>2022-09-14T12:13:01Z</time>
      </trkpt>
      <trkpt lat="49.93889" lon="2.13212">
        <ele>78.7</ele>
        <time>2022-09-14T12:13:02Z</time>
      </trkpt>
      <trkpt lat="49.93888" lon="2.1321">
        <ele>78.8</ele>
        <time>2022-09-14T12:13:03Z</time>
      </trkpt>
      <trkpt lat="49.93888" lon="2.13208">
        <ele>79</ele>
        <time>2022-09-14T12:13:05Z</time>
      </trkpt>
      <trkpt lat="49.93887" lon="2.13206">
        <ele>79.1</ele>
        <time>2022-09-14T12:13:06Z</time>
      </trkpt>
      <trkpt lat="49.93886" lon="2.13203">
        <ele>79.2</ele>
        <time>2022-09-14T12:13:07Z</time>
      </trkpt>
      <trkpt lat="49.93886" lon="2.13203">
        <ele>79.3</ele>
        <time>2022-09-14T12:13:08Z</time>
      </trkpt>
      <trkpt lat="49.93885" lon="2.13201">
        <ele>79.4</ele>
        <time>2022-09-14T12:13:09Z</time>
      </trkpt>
      <trkpt lat="49.93885" lon="2.13199">
        <ele>79.5</ele>
        <time>2022-09-14T12:13:10Z</time>
      </trkpt>
      <trkpt lat="49.93884" lon="2.13198">
        <ele>79.6</ele>
        <time>2022-09-14T12:13:12Z</time>
      </trkpt>
      <trkpt lat="49.93883" lon="2.13196">
        <ele>79.7</ele>
        <time>2022-09-14T12:13:13Z</time>
      </trkpt>
      <trkpt lat="49.93883" lon="2.13195">
        <ele>79.8</ele>
        <time>2022-09-14T12:13:14Z</time>
      </trkpt>
      <trkpt lat="49.93882" lon="2.13194">
        <ele>79.9</ele>
        <time>2022-09-14T12:13:15Z</time>
      </trkpt>
      <trkpt lat="49.93882" lon="2.13193">
        <ele>80</ele>
        <time>2022-09-14T12:13:16Z</time>
      </trkpt>
      <trkpt lat="49.93881" lon="2.13191">
        <ele>80.1</ele>
        <time>2022-09-14T12:13:17Z</time>
      </trkpt>
      <trkpt lat="49.93881" lon="2.1319">
        <ele>80.2</ele>
        <time>2022-09-14T12:13:18Z</time>
      </trkpt>
      <trkpt lat="49.9388" lon="2.13188">
        <ele>80.3</ele>
        <time>2022-09-14T12:13:19Z</time>
      </trkpt>
      <trkpt lat="49.9388" lon="2.13187">
        <ele>80.4</ele>
        <time>2022-09-14T12:13:20Z</time>
      </trkpt>
      <trkpt lat="49.9388" lon="2.13186">
        <ele>80.4</ele>
        <time>2022-09-14T12:13:21Z</time>
      </trkpt>
      <trkpt lat="49.93879" lon="2.13185">
        <ele>80.5</ele>
        <time>2022-09-14T12:13:22Z</time>
      </trkpt>
      <trkpt lat="49.93878" lon="2.13182">
        <ele>80.7</ele>
        <time>2022-09-14T12:13:23Z</time>
      </trkpt>
      <trkpt lat="49.93878" lon="2.13181">
        <ele>80.8</ele>
        <time>2022-09-14T12:13:25Z</time>
      </trkpt>
      <trkpt lat="49.93877" lon="2.1318">
        <ele>80.8</ele>
        <time>2022-09-14T12:13:26Z</time>
      </trkpt>
      <trkpt lat="49.93877" lon="2.13177">
        <ele>81</ele>
        <time>2022-09-14T12:13:28Z</time>
      </trkpt>
      <trkpt lat="49.93877" lon="2.13176">
        <ele>81.1</ele>
        <time>2022-09-14T12:13:29Z</time>
      </trkpt>
      <trkpt lat="49.93877" lon="2.13174">
        <ele>81.2</ele>
        <time>2022-09-14T12:13:30Z</time>
      </trkpt>
      <trkpt lat="49.93877" lon="2.13173">
        <ele>81.3</ele>
        <time>2022-09-14T12:13:31Z</time>
      </trkpt>
      <trkpt lat="49.93877" lon="2.1317">
        <ele>81.5</ele>
        <time>2022-09-14T12:13:33Z</time>
      </trkpt>
      <trkpt lat="49.93878" lon="2.13168">
        <ele>81.6</ele>
        <time>2022-09-14T12:13:34Z</time>
      </trkpt>
      <trkpt lat="49.93878" lon="2.13166">
        <ele>81.6</ele>
        <time>2022-09-14T12:13:35Z</time>
      </trkpt>
      <trkpt lat="49.93879" lon="2.13165">
        <ele>81.6</ele>
        <time>2022-09-14T12:13:36Z</time>
      </trkpt>
      <trkpt lat="49.93879" lon="2.13164">
        <ele>81.9</ele>
        <time>2022-09-14T12:13:37Z</time>
      </trkpt>
      <trkpt lat="49.9388" lon="2.13162">
        <ele>81.6</ele>
        <time>2022-09-14T12:13:38Z</time>
      </trkpt>
      <trkpt lat="49.93881" lon="2.13161">
        <ele>81.6</ele>
        <time>2022-09-14T12:13:39Z</time>
      </trkpt>
      <trkpt lat="49.93882" lon="2.13159">
        <ele>81.9</ele>
        <time>2022-09-14T12:13:40Z</time>
      </trkpt>
      <trkpt lat="49.93882" lon="2.13158">
        <ele>81.7</ele>
        <time>2022-09-14T12:13:41Z</time>
      </trkpt>
      <trkpt lat="49.93883" lon="2.13157">
        <ele>81.7</ele>
        <time>2022-09-14T12:13:43Z</time>
      </trkpt>
      <trkpt lat="49.93883" lon="2.13156">
        <ele>81.9</ele>
        <time>2022-09-14T12:13:44Z</time>
      </trkpt>
      <trkpt lat="49.93884" lon="2.13155">
        <ele>81.9</ele>
        <time>2022-09-14T12:13:45Z</time>
      </trkpt>
      <trkpt lat="49.93884" lon="2.13154">
        <ele>81.9</ele>
        <time>2022-09-14T12:13:46Z</time>
      </trkpt>
      <trkpt lat="49.93885" lon="2.13153">
        <ele>81.7</ele>
        <time>2022-09-14T12:13:47Z</time>
      </trkpt>
      <trkpt lat="49.93885" lon="2.13151">
        <ele>82</ele>
        <time>2022-09-14T12:13:49Z</time>
      </trkpt>
      <trkpt lat="49.93885" lon="2.1315">
        <ele>82</ele>
        <time>2022-09-14T12:13:50Z</time>
      </trkpt>
      <trkpt lat="49.93885" lon="2.13149">
        <ele>82.2</ele>
        <time>2022-09-14T12:13:51Z</time>
      </trkpt>
      <trkpt lat="49.93884" lon="2.13149">
        <ele>82.2</ele>
        <time>2022-09-14T12:13:52Z</time>
      </trkpt>
      <trkpt lat="49.93884" lon="2.13149">
        <ele>82.2</ele>
        <time>2022-09-14T12:13:53Z</time>
      </trkpt>
      <trkpt lat="49.93884" lon="2.13149">
        <ele>82.2</ele>
        <time>2022-09-14T12:13:54Z</time>
      </trkpt>
      <trkpt lat="49.93884" lon="2.13149">
        <ele>82.2</ele>
        <time>2022-09-14T12:13:55Z</time>
      </trkpt>
      <trkpt lat="49.93884" lon="2.13149">
        <ele>82.2</ele>
        <time>2022-09-14T12:13:56Z</time>
      </trkpt>
      <trkpt lat="49.93884" lon="2.13149">
        <ele>82.2</ele>
        <time>2022-09-14T12:13:57Z</time>
      </trkpt>
      <trkpt lat="49.93884" lon="2.13149">
        <ele>82.2</ele>
        <time>2022-09-14T12:13:58Z</time>
      </trkpt>
      <trkpt lat="49.93884" lon="2.1315">
        <ele>82.2</ele>
        <time>2022-09-14T12:13:59Z</time>
      </trkpt>
      <trkpt lat="49.93884" lon="2.1315">
        <ele>82.2</ele>
        <time>2022-09-14T12:14:00Z</time>
      </trkpt>
      <trkpt lat="49.93884" lon="2.1315">
        <ele>82.2</ele>
        <time>2022-09-14T12:14:01Z</time>
      </trkpt>
      <trkpt lat="49.93884" lon="2.1315">
        <ele>82.2</ele>
        <time>2022-09-14T12:14:02Z</time>
      </trkpt>
      <trkpt lat="49.93884" lon="2.1315">
        <ele>82.2</ele>
        <time>2022-09-14T12:14:03Z</time>
      </trkpt>
      <trkpt lat="49.93884" lon="2.13151">
        <ele>82.2</ele>
        <time>2022-09-14T12:14:04Z</time>
      </trkpt>
      <trkpt lat="49.93884" lon="2.13151">
        <ele>82.2</ele>
        <time>2022-09-14T12:14:05Z</time>
      </trkpt>
      <trkpt lat="49.93884" lon="2.13151">
        <ele>82.2</ele>
        <time>2022-09-14T12:14:06Z</time>
      </trkpt>
      <trkpt lat="49.93884" lon="2.13151">
        <ele>82.2</ele>
        <time>2022-09-14T12:14:07Z</time>
      </trkpt>
      <trkpt lat="49.93884" lon="2.13152">
        <ele>82.2</ele>
        <time>2022-09-14T12:14:08Z</time>
      </trkpt>
      <trkpt lat="49.93883" lon="2.13152">
        <ele>82.2</ele>
        <time>2022-09-14T12:14:09Z</time>
      </trkpt>
      <trkpt lat="49.93883" lon="2.13152">
        <ele>82.2</ele>
        <time>2022-09-14T12:14:10Z</time>
      </trkpt>
      <trkpt lat="49.93883" lon="2.13152">
        <ele>81.9</ele>
        <time>2022-09-14T12:14:11Z</time>
      </trkpt>
      <trkpt lat="49.93883" lon="2.13152">
        <ele>81.9</ele>
        <time>2022-09-14T12:14:12Z</time>
      </trkpt>
      <trkpt lat="49.93883" lon="2.13153">
        <ele>81.9</ele>
        <time>2022-09-14T12:14:13Z</time>
      </trkpt>
      <trkpt lat="49.93883" lon="2.13153">
        <ele>81.9</ele>
        <time>2022-09-14T12:14:14Z</time>
      </trkpt>
      <trkpt lat="49.93883" lon="2.13153">
        <ele>81.9</ele>
        <time>2022-09-14T12:14:15Z</time>
      </trkpt>
      <trkpt lat="49.93883" lon="2.13153">
        <ele>81.9</ele>
        <time>2022-09-14T12:14:16Z</time>
      </trkpt>
      <trkpt lat="49.93883" lon="2.13153">
        <ele>81.9</ele>
        <time>2022-09-14T12:14:17Z</time>
      </trkpt>
      <trkpt lat="49.93883" lon="2.13154">
        <ele>81.9</ele>
        <time>2022-09-14T12:14:18Z</time>
      </trkpt>
      <trkpt lat="49.93883" lon="2.13154">
        <ele>81.9</ele>
        <time>2022-09-14T12:14:19Z</time>
      </trkpt>
      <trkpt lat="49.93883" lon="2.13154">
        <ele>81.9</ele>
        <time>2022-09-14T12:14:20Z</time>
      </trkpt>
      <trkpt lat="49.93883" lon="2.13154">
        <ele>81.9</ele>
        <time>2022-09-14T12:14:21Z</time>
      </trkpt>
      <trkpt lat="49.93883" lon="2.13155">
        <ele>81.9</ele>
        <time>2022-09-14T12:14:22Z</time>
      </trkpt>
      <trkpt lat="49.93883" lon="2.13155">
        <ele>81.9</ele>
        <time>2022-09-14T12:14:23Z</time>
      </trkpt>
      <trkpt lat="49.93883" lon="2.13155">
        <ele>81.9</ele>
        <time>2022-09-14T12:14:24Z</time>
      </trkpt>
      <trkpt lat="49.93884" lon="2.13155">
        <ele>81.9</ele>
        <time>2022-09-14T12:14:25Z</time>
      </trkpt>
      <trkpt lat="49.93884" lon="2.13155">
        <ele>81.9</ele>
        <time>2022-09-14T12:14:26Z</time>
      </trkpt>
      <trkpt lat="49.93885" lon="2.13154">
        <ele>81.7</ele>
        <time>2022-09-14T12:14:27Z</time>
      </trkpt>
      <trkpt lat="49.93886" lon="2.13154">
        <ele>81.7</ele>
        <time>2022-09-14T12:14:28Z</time>
      </trkpt>
      <trkpt lat="49.93888" lon="2.13152">
        <ele>81.5</ele>
        <time>2022-09-14T12:14:29Z</time>
      </trkpt>
      <trkpt lat="49.93889" lon="2.13151">
        <ele>81.8</ele>
        <time>2022-09-14T12:14:31Z</time>
      </trkpt>
      <trkpt lat="49.93889" lon="2.1315">
        <ele>81.8</ele>
        <time>2022-09-14T12:14:32Z</time>
      </trkpt>
      <trkpt lat="49.93891" lon="2.13148">
        <ele>81.6</ele>
        <time>2022-09-14T12:14:33Z</time>
      </trkpt>
      <trkpt lat="49.93892" lon="2.13147">
        <ele>81.8</ele>
        <time>2022-09-14T12:14:34Z</time>
      </trkpt>
      <trkpt lat="49.93893" lon="2.13145">
        <ele>81.8</ele>
        <time>2022-09-14T12:14:35Z</time>
      </trkpt>
      <trkpt lat="49.93894" lon="2.13144">
        <ele>81.6</ele>
        <time>2022-09-14T12:14:36Z</time>
      </trkpt>
      <trkpt lat="49.93895" lon="2.13142">
        <ele>81.9</ele>
        <time>2022-09-14T12:14:38Z</time>
      </trkpt>
      <trkpt lat="49.93896" lon="2.13141">
        <ele>81.9</ele>
        <time>2022-09-14T12:14:39Z</time>
      </trkpt>
      <trkpt lat="49.93896" lon="2.1314">
        <ele>81.7</ele>
        <time>2022-09-14T12:14:40Z</time>
      </trkpt>
      <trkpt lat="49.93897" lon="2.13139">
        <ele>82</ele>
        <time>2022-09-14T12:14:42Z</time>
      </trkpt>
      <trkpt lat="49.93897" lon="2.13138">
        <ele>82</ele>
        <time>2022-09-14T12:14:43Z</time>
      </trkpt>
      <trkpt lat="49.93897" lon="2.13137">
        <ele>82</ele>
        <time>2022-09-14T12:14:44Z</time>
      </trkpt>
      <trkpt lat="49.93898" lon="2.13136">
        <ele>82</ele>
        <time>2022-09-14T12:14:45Z</time>
      </trkpt>
      <trkpt lat="49.93899" lon="2.13134">
        <ele>82.2</ele>
        <time>2022-09-14T12:14:46Z</time>
      </trkpt>
      <trkpt lat="49.939" lon="2.13133">
        <ele>82.2</ele>
        <time>2022-09-14T12:14:47Z</time>
      </trkpt>
      <trkpt lat="49.93901" lon="2.13131">
        <ele>82.2</ele>
        <time>2022-09-14T12:14:49Z</time>
      </trkpt>
      <trkpt lat="49.93902" lon="2.13129">
        <ele>82.3</ele>
        <time>2022-09-14T12:14:50Z</time>
      </trkpt>
      <trkpt lat="49.93903" lon="2.13129">
        <ele>82.3</ele>
        <time>2022-09-14T12:14:51Z</time>
      </trkpt>
      <trkpt lat="49.93904" lon="2.13128">
        <ele>82.3</ele>
        <time>2022-09-14T12:14:52Z</time>
      </trkpt>
      <trkpt lat="49.93904" lon="2.13127">
        <ele>82.3</ele>
        <time>2022-09-14T12:14:53Z</time>
      </trkpt>
      <trkpt lat="49.93905" lon="2.13126">
        <ele>82.4</ele>
        <time>2022-09-14T12:14:55Z</time>
      </trkpt>
      <trkpt lat="49.93907" lon="2.13124">
        <ele>82.4</ele>
        <time>2022-09-14T12:14:56Z</time>
      </trkpt>
      <trkpt lat="49.93908" lon="2.13123">
        <ele>82.2</ele>
        <time>2022-09-14T12:14:57Z</time>
      </trkpt>
      <trkpt lat="49.93909" lon="2.13122">
        <ele>82.5</ele>
        <time>2022-09-14T12:14:58Z</time>
      </trkpt>
      <trkpt lat="49.93911" lon="2.1312">
        <ele>82.3</ele>
        <time>2022-09-14T12:14:59Z</time>
      </trkpt>
      <trkpt lat="49.93912" lon="2.13118">
        <ele>82.3</ele>
        <time>2022-09-14T12:15:00Z</time>
      </trkpt>
      <trkpt lat="49.93913" lon="2.13116">
        <ele>82.4</ele>
        <time>2022-09-14T12:15:01Z</time>
      </trkpt>
      <trkpt lat="49.93914" lon="2.13115">
        <ele>82.4</ele>
        <time>2022-09-14T12:15:02Z</time>
      </trkpt>
      <trkpt lat="49.93916" lon="2.13113">
        <ele>82.5</ele>
        <time>2022-09-14T12:15:03Z</time>
      </trkpt>
      <trkpt lat="49.93917" lon="2.13112">
        <ele>82.5</ele>
        <time>2022-09-14T12:15:04Z</time>
      </trkpt>
      <trkpt lat="49.93919" lon="2.1311">
        <ele>82.3</ele>
        <time>2022-09-14T12:15:06Z</time>
      </trkpt>
      <trkpt lat="49.93919" lon="2.13109">
        <ele>82.3</ele>
        <time>2022-09-14T12:15:07Z</time>
      </trkpt>
      <trkpt lat="49.9392" lon="2.13108">
        <ele>82.6</ele>
        <time>2022-09-14T12:15:08Z</time>
      </trkpt>
      <trkpt lat="49.93921" lon="2.13107">
        <ele>82.4</ele>
        <time>2022-09-14T12:15:09Z</time>
      </trkpt>
      <trkpt lat="49.93922" lon="2.13106">
        <ele>82.4</ele>
        <time>2022-09-14T12:15:10Z</time>
      </trkpt>
      <trkpt lat="49.93924" lon="2.13104">
        <ele>82.5</ele>
        <time>2022-09-14T12:15:12Z</time>
      </trkpt>
      <trkpt lat="49.93925" lon="2.13104">
        <ele>82.5</ele>
        <time>2022-09-14T12:15:13Z</time>
      </trkpt>
      <trkpt lat="49.93926" lon="2.13103">
        <ele>82.5</ele>
        <time>2022-09-14T12:15:14Z</time>
      </trkpt>
      <trkpt lat="49.93927" lon="2.13102">
        <ele>82.3</ele>
        <time>2022-09-14T12:15:15Z</time>
      </trkpt>
      <trkpt lat="49.93928" lon="2.13101">
        <ele>82.3</ele>
        <time>2022-09-14T12:15:16Z</time>
      </trkpt>
      <trkpt lat="49.93929" lon="2.131">
        <ele>82.6</ele>
        <time>2022-09-14T12:15:17Z</time>
      </trkpt>
      <trkpt lat="49.93931" lon="2.13097">
        <ele>82.4</ele>
        <time>2022-09-14T12:15:18Z</time>
      </trkpt>
      <trkpt lat="49.93931" lon="2.13097">
        <ele>82.4</ele>
        <time>2022-09-14T12:15:19Z</time>
      </trkpt>
      <trkpt lat="49.93931" lon="2.13096">
        <ele>82.7</ele>
        <time>2022-09-14T12:15:20Z</time>
      </trkpt>
      <trkpt lat="49.93932" lon="2.13093">
        <ele>82.5</ele>
        <time>2022-09-14T12:15:22Z</time>
      </trkpt>
      <trkpt lat="49.93933" lon="2.13092">
        <ele>82.5</ele>
        <time>2022-09-14T12:15:23Z</time>
      </trkpt>
      <trkpt lat="49.93934" lon="2.13091">
        <ele>82.8</ele>
        <time>2022-09-14T12:15:24Z</time>
      </trkpt>
      <trkpt lat="49.93935" lon="2.13089">
        <ele>82.6</ele>
        <time>2022-09-14T12:15:25Z</time>
      </trkpt>
      <trkpt lat="49.93935" lon="2.13088">
        <ele>82.6</ele>
        <time>2022-09-14T12:15:26Z</time>
      </trkpt>
      <trkpt lat="49.93936" lon="2.13087">
        <ele>82.9</ele>
        <time>2022-09-14T12:15:27Z</time>
      </trkpt>
      <trkpt lat="49.93938" lon="2.13085">
        <ele>82.7</ele>
        <time>2022-09-14T12:15:28Z</time>
      </trkpt>
      <trkpt lat="49.93938" lon="2.13084">
        <ele>82.7</ele>
        <time>2022-09-14T12:15:29Z</time>
      </trkpt>
      <trkpt lat="49.9394" lon="2.13081">
        <ele>83</ele>
        <time>2022-09-14T12:15:30Z</time>
      </trkpt>
      <trkpt lat="49.9394" lon="2.1308">
        <ele>82.8</ele>
        <time>2022-09-14T12:15:32Z</time>
      </trkpt>
      <trkpt lat="49.93941" lon="2.13079">
        <ele>82.8</ele>
        <time>2022-09-14T12:15:33Z</time>
      </trkpt>
      <trkpt lat="49.93942" lon="2.13076">
        <ele>83.1</ele>
        <time>2022-09-14T12:15:34Z</time>
      </trkpt>
      <trkpt lat="49.93943" lon="2.13074">
        <ele>83.1</ele>
        <time>2022-09-14T12:15:36Z</time>
      </trkpt>
      <trkpt lat="49.93944" lon="2.13073">
        <ele>83.1</ele>
        <time>2022-09-14T12:15:37Z</time>
      </trkpt>
      <trkpt lat="49.93945" lon="2.13071">
        <ele>83.1</ele>
        <time>2022-09-14T12:15:38Z</time>
      </trkpt>
      <trkpt lat="49.93945" lon="2.1307">
        <ele>83.4</ele>
        <time>2022-09-14T12:15:39Z</time>
      </trkpt>
      <trkpt lat="49.93946" lon="2.13068">
        <ele>83.2</ele>
        <time>2022-09-14T12:15:40Z</time>
      </trkpt>
      <trkpt lat="49.93947" lon="2.13067">
        <ele>83.2</ele>
        <time>2022-09-14T12:15:41Z</time>
      </trkpt>
      <trkpt lat="49.93948" lon="2.13065">
        <ele>83.5</ele>
        <time>2022-09-14T12:15:42Z</time>
      </trkpt>
      <trkpt lat="49.93949" lon="2.13063">
        <ele>83.3</ele>
        <time>2022-09-14T12:15:43Z</time>
      </trkpt>
      <trkpt lat="49.9395" lon="2.13062">
        <ele>83.5</ele>
        <time>2022-09-14T12:15:45Z</time>
      </trkpt>
      <trkpt lat="49.9395" lon="2.13061">
        <ele>83.5</ele>
        <time>2022-09-14T12:15:46Z</time>
      </trkpt>
      <trkpt lat="49.93951" lon="2.13059">
        <ele>83.5</ele>
        <time>2022-09-14T12:15:47Z</time>
      </trkpt>
      <trkpt lat="49.93951" lon="2.13058">
        <ele>83.5</ele>
        <time>2022-09-14T12:15:48Z</time>
      </trkpt>
      <trkpt lat="49.93952" lon="2.13057">
        <ele>83.6</ele>
        <time>2022-09-14T12:15:49Z</time>
      </trkpt>
      <trkpt lat="49.93953" lon="2.13056">
        <ele>83.6</ele>
        <time>2022-09-14T12:15:51Z</time>
      </trkpt>
      <trkpt lat="49.93954" lon="2.13054">
        <ele>83.6</ele>
        <time>2022-09-14T12:15:52Z</time>
      </trkpt>
      <trkpt lat="49.93955" lon="2.13053">
        <ele>83.6</ele>
        <time>2022-09-14T12:15:53Z</time>
      </trkpt>
      <trkpt lat="49.93957" lon="2.13051">
        <ele>83.6</ele>
        <time>2022-09-14T12:15:55Z</time>
      </trkpt>
      <trkpt lat="49.93957" lon="2.1305">
        <ele>83.3</ele>
        <time>2022-09-14T12:15:56Z</time>
      </trkpt>
      <trkpt lat="49.93958" lon="2.13048">
        <ele>83.6</ele>
        <time>2022-09-14T12:15:57Z</time>
      </trkpt>
      <trkpt lat="49.93959" lon="2.13047">
        <ele>83.6</ele>
        <time>2022-09-14T12:15:58Z</time>
      </trkpt>
      <trkpt lat="49.9396" lon="2.13045">
        <ele>83.6</ele>
        <time>2022-09-14T12:15:59Z</time>
      </trkpt>
      <trkpt lat="49.9396" lon="2.13044">
        <ele>83.6</ele>
        <time>2022-09-14T12:16:00Z</time>
      </trkpt>
      <trkpt lat="49.93961" lon="2.13043">
        <ele>83.6</ele>
        <time>2022-09-14T12:16:01Z</time>
      </trkpt>
      <trkpt lat="49.93961" lon="2.13041">
        <ele>83.6</ele>
        <time>2022-09-14T12:16:02Z</time>
      </trkpt>
      <trkpt lat="49.93962" lon="2.13039">
        <ele>83.6</ele>
        <time>2022-09-14T12:16:03Z</time>
      </trkpt>
      <trkpt lat="49.93963" lon="2.13037">
        <ele>83.6</ele>
        <time>2022-09-14T12:16:04Z</time>
      </trkpt>
      <trkpt lat="49.93964" lon="2.13037">
        <ele>83.6</ele>
        <time>2022-09-14T12:16:06Z</time>
      </trkpt>
      <trkpt lat="49.93964" lon="2.13036">
        <ele>83.8</ele>
        <time>2022-09-14T12:16:07Z</time>
      </trkpt>
      <trkpt lat="49.93965" lon="2.13035">
        <ele>83.6</ele>
        <time>2022-09-14T12:16:08Z</time>
      </trkpt>
      <trkpt lat="49.93966" lon="2.13034">
        <ele>83.6</ele>
        <time>2022-09-14T12:16:09Z</time>
      </trkpt>
      <trkpt lat="49.93967" lon="2.13033">
        <ele>83.6</ele>
        <time>2022-09-14T12:16:10Z</time>
      </trkpt>
      <trkpt lat="49.93968" lon="2.13031">
        <ele>83.8</ele>
        <time>2022-09-14T12:16:11Z</time>
      </trkpt>
      <trkpt lat="49.93969" lon="2.1303">
        <ele>83.5</ele>
        <time>2022-09-14T12:16:12Z</time>
      </trkpt>
      <trkpt lat="49.93971" lon="2.13027">
        <ele>83.5</ele>
        <time>2022-09-14T12:16:14Z</time>
      </trkpt>
      <trkpt lat="49.93973" lon="2.13025">
        <ele>83.5</ele>
        <time>2022-09-14T12:16:15Z</time>
      </trkpt>
      <trkpt lat="49.93974" lon="2.13024">
        <ele>83.2</ele>
        <time>2022-09-14T12:16:16Z</time>
      </trkpt>
      <trkpt lat="49.93975" lon="2.13023">
        <ele>83.2</ele>
        <time>2022-09-14T12:16:17Z</time>
      </trkpt>
      <trkpt lat="49.93976" lon="2.13021">
        <ele>83.2</ele>
        <time>2022-09-14T12:16:19Z</time>
      </trkpt>
      <trkpt lat="49.93977" lon="2.1302">
        <ele>83.2</ele>
        <time>2022-09-14T12:16:20Z</time>
      </trkpt>
      <trkpt lat="49.93977" lon="2.13019">
        <ele>83.2</ele>
        <time>2022-09-14T12:16:21Z</time>
      </trkpt>
      <trkpt lat="49.93978" lon="2.13017">
        <ele>83.4</ele>
        <time>2022-09-14T12:16:22Z</time>
      </trkpt>
      <trkpt lat="49.93979" lon="2.13016">
        <ele>83.1</ele>
        <time>2022-09-14T12:16:23Z</time>
      </trkpt>
      <trkpt lat="49.9398" lon="2.13013">
        <ele>83.3</ele>
        <time>2022-09-14T12:16:24Z</time>
      </trkpt>
      <trkpt lat="49.93981" lon="2.13012">
        <ele>83.3</ele>
        <time>2022-09-14T12:16:25Z</time>
      </trkpt>
      <trkpt lat="49.93981" lon="2.13011">
        <ele>83.3</ele>
        <time>2022-09-14T12:16:26Z</time>
      </trkpt>
      <trkpt lat="49.93982" lon="2.1301">
        <ele>83.2</ele>
        <time>2022-09-14T12:16:27Z</time>
      </trkpt>
      <trkpt lat="49.93983" lon="2.13008">
        <ele>83.2</ele>
        <time>2022-09-14T12:16:28Z</time>
      </trkpt>
      <trkpt lat="49.93985" lon="2.13006">
        <ele>83</ele>
        <time>2022-09-14T12:16:30Z</time>
      </trkpt>
      <trkpt lat="49.93985" lon="2.13005">
        <ele>83.2</ele>
        <time>2022-09-14T12:16:31Z</time>
      </trkpt>
      <trkpt lat="49.93986" lon="2.13004">
        <ele>83.2</ele>
        <time>2022-09-14T12:16:32Z</time>
      </trkpt>
      <trkpt lat="49.93987" lon="2.13003">
        <ele>83.2</ele>
        <time>2022-09-14T12:16:33Z</time>
      </trkpt>
      <trkpt lat="49.93988" lon="2.13001">
        <ele>83.1</ele>
        <time>2022-09-14T12:16:34Z</time>
      </trkpt>
      <trkpt lat="49.93988" lon="2.13">
        <ele>83.1</ele>
        <time>2022-09-14T12:16:35Z</time>
      </trkpt>
      <trkpt lat="49.93989" lon="2.12999">
        <ele>83.1</ele>
        <time>2022-09-14T12:16:36Z</time>
      </trkpt>
      <trkpt lat="49.93991" lon="2.12996">
        <ele>83</ele>
        <time>2022-09-14T12:16:37Z</time>
      </trkpt>
      <trkpt lat="49.93991" lon="2.12995">
        <ele>83</ele>
        <time>2022-09-14T12:16:38Z</time>
      </trkpt>
      <trkpt lat="49.93992" lon="2.12994">
        <ele>83</ele>
        <time>2022-09-14T12:16:39Z</time>
      </trkpt>
      <trkpt lat="49.93993" lon="2.12992">
        <ele>82.9</ele>
        <time>2022-09-14T12:16:40Z</time>
      </trkpt>
      <trkpt lat="49.93993" lon="2.12991">
        <ele>82.9</ele>
        <time>2022-09-14T12:16:41Z</time>
      </trkpt>
      <trkpt lat="49.93994" lon="2.1299">
        <ele>82.9</ele>
        <time>2022-09-14T12:16:42Z</time>
      </trkpt>
      <trkpt lat="49.93995" lon="2.12987">
        <ele>83.1</ele>
        <time>2022-09-14T12:16:44Z</time>
      </trkpt>
      <trkpt lat="49.93996" lon="2.12985">
        <ele>83</ele>
        <time>2022-09-14T12:16:46Z</time>
      </trkpt>
      <trkpt lat="49.93997" lon="2.12983">
        <ele>83</ele>
        <time>2022-09-14T12:16:47Z</time>
      </trkpt>
      <trkpt lat="49.93998" lon="2.12982">
        <ele>83</ele>
        <time>2022-09-14T12:16:48Z</time>
      </trkpt>
      <trkpt lat="49.93999" lon="2.1298">
        <ele>82.8</ele>
        <time>2022-09-14T12:16:49Z</time>
      </trkpt>
      <trkpt lat="49.94" lon="2.12978">
        <ele>82.9</ele>
        <time>2022-09-14T12:16:50Z</time>
      </trkpt>
      <trkpt lat="49.94" lon="2.12977">
        <ele>82.9</ele>
        <time>2022-09-14T12:16:52Z</time>
      </trkpt>
      <trkpt lat="49.94001" lon="2.12976">
        <ele>82.7</ele>
        <time>2022-09-14T12:16:53Z</time>
      </trkpt>
      <trkpt lat="49.94002" lon="2.12974">
        <ele>82.8</ele>
        <time>2022-09-14T12:16:54Z</time>
      </trkpt>
      <trkpt lat="49.94003" lon="2.12973">
        <ele>82.8</ele>
        <time>2022-09-14T12:16:55Z</time>
      </trkpt>
      <trkpt lat="49.94004" lon="2.1297">
        <ele>82.7</ele>
        <time>2022-09-14T12:16:57Z</time>
      </trkpt>
      <trkpt lat="49.94004" lon="2.12969">
        <ele>82.7</ele>
        <time>2022-09-14T12:16:58Z</time>
      </trkpt>
      <trkpt lat="49.94005" lon="2.12967">
        <ele>82.9</ele>
        <time>2022-09-14T12:16:59Z</time>
      </trkpt>
      <trkpt lat="49.94006" lon="2.12966">
        <ele>82.9</ele>
        <time>2022-09-14T12:17:00Z</time>
      </trkpt>
      <trkpt lat="49.94007" lon="2.12965">
        <ele>82.6</ele>
        <time>2022-09-14T12:17:01Z</time>
      </trkpt>
      <trkpt lat="49.94008" lon="2.12962">
        <ele>82.8</ele>
        <time>2022-09-14T12:17:02Z</time>
      </trkpt>
      <trkpt lat="49.94009" lon="2.12961">
        <ele>82.8</ele>
        <time>2022-09-14T12:17:03Z</time>
      </trkpt>
      <trkpt lat="49.94009" lon="2.1296">
        <ele>82.5</ele>
        <time>2022-09-14T12:17:04Z</time>
      </trkpt>
      <trkpt lat="49.94011" lon="2.12957">
        <ele>82.6</ele>
        <time>2022-09-14T12:17:05Z</time>
      </trkpt>
      <trkpt lat="49.94012" lon="2.12956">
        <ele>82.6</ele>
        <time>2022-09-14T12:17:07Z</time>
      </trkpt>
      <trkpt lat="49.94012" lon="2.12955">
        <ele>82.4</ele>
        <time>2022-09-14T12:17:08Z</time>
      </trkpt>
      <trkpt lat="49.94013" lon="2.12953">
        <ele>82.5</ele>
        <time>2022-09-14T12:17:09Z</time>
      </trkpt>
      <trkpt lat="49.94014" lon="2.12952">
        <ele>82.5</ele>
        <time>2022-09-14T12:17:10Z</time>
      </trkpt>
      <trkpt lat="49.94016" lon="2.12949">
        <ele>82.4</ele>
        <time>2022-09-14T12:17:11Z</time>
      </trkpt>
      <trkpt lat="49.94016" lon="2.12948">
        <ele>82.4</ele>
        <time>2022-09-14T12:17:13Z</time>
      </trkpt>
      <trkpt lat="49.94017" lon="2.12947">
        <ele>82.4</ele>
        <time>2022-09-14T12:17:14Z</time>
      </trkpt>
      <trkpt lat="49.94018" lon="2.12946">
        <ele>82.2</ele>
        <time>2022-09-14T12:17:15Z</time>
      </trkpt>
      <trkpt lat="49.94019" lon="2.12945">
        <ele>82.2</ele>
        <time>2022-09-14T12:17:16Z</time>
      </trkpt>
      <trkpt lat="49.9402" lon="2.12944">
        <ele>82.2</ele>
        <time>2022-09-14T12:17:17Z</time>
      </trkpt>
      <trkpt lat="49.94021" lon="2.12942">
        <ele>81.9</ele>
        <time>2022-09-14T12:17:18Z</time>
      </trkpt>
      <trkpt lat="49.94023" lon="2.1294">
        <ele>82</ele>
        <time>2022-09-14T12:17:20Z</time>
      </trkpt>
      <trkpt lat="49.94024" lon="2.12939">
        <ele>81.8</ele>
        <time>2022-09-14T12:17:21Z</time>
      </trkpt>
      <trkpt lat="49.94024" lon="2.12938">
        <ele>81.8</ele>
        <time>2022-09-14T12:17:22Z</time>
      </trkpt>
      <trkpt lat="49.94025" lon="2.12937">
        <ele>81.9</ele>
        <time>2022-09-14T12:17:23Z</time>
      </trkpt>
      <trkpt lat="49.94026" lon="2.12934">
        <ele>81.6</ele>
        <time>2022-09-14T12:17:24Z</time>
      </trkpt>
      <trkpt lat="49.94027" lon="2.12934">
        <ele>81.6</ele>
        <time>2022-09-14T12:17:25Z</time>
      </trkpt>
      <trkpt lat="49.94027" lon="2.12933">
        <ele>81.7</ele>
        <time>2022-09-14T12:17:26Z</time>
      </trkpt>
      <trkpt lat="49.94029" lon="2.1293">
        <ele>81.4</ele>
        <time>2022-09-14T12:17:27Z</time>
      </trkpt>
      <trkpt lat="49.94029" lon="2.1293">
        <ele>81.4</ele>
        <time>2022-09-14T12:17:28Z</time>
      </trkpt>
      <trkpt lat="49.9403" lon="2.12929">
        <ele>81.5</ele>
        <time>2022-09-14T12:17:29Z</time>
      </trkpt>
      <trkpt lat="49.94031" lon="2.12926">
        <ele>81.3</ele>
        <time>2022-09-14T12:17:30Z</time>
      </trkpt>
      <trkpt lat="49.94032" lon="2.12925">
        <ele>81.3</ele>
        <time>2022-09-14T12:17:32Z</time>
      </trkpt>
      <trkpt lat="49.94032" lon="2.12924">
        <ele>81.4</ele>
        <time>2022-09-14T12:17:33Z</time>
      </trkpt>
      <trkpt lat="49.94035" lon="2.12922">
        <ele>81.1</ele>
        <time>2022-09-14T12:17:34Z</time>
      </trkpt>
      <trkpt lat="49.94035" lon="2.12921">
        <ele>81.1</ele>
        <time>2022-09-14T12:17:35Z</time>
      </trkpt>
      <trkpt lat="49.94036" lon="2.12921">
        <ele>81.1</ele>
        <time>2022-09-14T12:17:36Z</time>
      </trkpt>
      <trkpt lat="49.94037" lon="2.12919">
        <ele>80.9</ele>
        <time>2022-09-14T12:17:37Z</time>
      </trkpt>
      <trkpt lat="49.94038" lon="2.12918">
        <ele>80.9</ele>
        <time>2022-09-14T12:17:38Z</time>
      </trkpt>
      <trkpt lat="49.9404" lon="2.12917">
        <ele>80.6</ele>
        <time>2022-09-14T12:17:39Z</time>
      </trkpt>
      <trkpt lat="49.94041" lon="2.12916">
        <ele>80.7</ele>
        <time>2022-09-14T12:17:40Z</time>
      </trkpt>
      <trkpt lat="49.94042" lon="2.12915">
        <ele>80.7</ele>
        <time>2022-09-14T12:17:42Z</time>
      </trkpt>
      <trkpt lat="49.94043" lon="2.12914">
        <ele>80.5</ele>
        <time>2022-09-14T12:17:43Z</time>
      </trkpt>
      <trkpt lat="49.94045" lon="2.12912">
        <ele>80.5</ele>
        <time>2022-09-14T12:17:44Z</time>
      </trkpt>
      <trkpt lat="49.94045" lon="2.12911">
        <ele>80.3</ele>
        <time>2022-09-14T12:17:45Z</time>
      </trkpt>
      <trkpt lat="49.94047" lon="2.12909">
        <ele>80.3</ele>
        <time>2022-09-14T12:17:47Z</time>
      </trkpt>
      <trkpt lat="49.94048" lon="2.12908">
        <ele>80.1</ele>
        <time>2022-09-14T12:17:48Z</time>
      </trkpt>
      <trkpt lat="49.9405" lon="2.12904">
        <ele>80.2</ele>
        <time>2022-09-14T12:17:49Z</time>
      </trkpt>
      <trkpt lat="49.94051" lon="2.12903">
        <ele>80</ele>
        <time>2022-09-14T12:17:51Z</time>
      </trkpt>
      <trkpt lat="49.94052" lon="2.12901">
        <ele>80</ele>
        <time>2022-09-14T12:17:52Z</time>
      </trkpt>
      <trkpt lat="49.94053" lon="2.129">
        <ele>80</ele>
        <time>2022-09-14T12:17:53Z</time>
      </trkpt>
      <trkpt lat="49.94054" lon="2.12898">
        <ele>79.9</ele>
        <time>2022-09-14T12:17:54Z</time>
      </trkpt>
      <trkpt lat="49.94055" lon="2.12896">
        <ele>79.9</ele>
        <time>2022-09-14T12:17:56Z</time>
      </trkpt>
      <trkpt lat="49.94056" lon="2.12895">
        <ele>79.9</ele>
        <time>2022-09-14T12:17:57Z</time>
      </trkpt>
      <trkpt lat="49.94056" lon="2.12894">
        <ele>79.8</ele>
        <time>2022-09-14T12:17:58Z</time>
      </trkpt>
      <trkpt lat="49.94059" lon="2.1289">
        <ele>79.8</ele>
        <time>2022-09-14T12:17:59Z</time>
      </trkpt>
      <trkpt lat="49.94059" lon="2.12889">
        <ele>79.6</ele>
        <time>2022-09-14T12:18:01Z</time>
      </trkpt>
      <trkpt lat="49.9406" lon="2.12887">
        <ele>79.6</ele>
        <time>2022-09-14T12:18:02Z</time>
      </trkpt>
      <trkpt lat="49.9406" lon="2.12886">
        <ele>79.6</ele>
        <time>2022-09-14T12:18:03Z</time>
      </trkpt>
      <trkpt lat="49.94061" lon="2.12885">
        <ele>79.7</ele>
        <time>2022-09-14T12:18:04Z</time>
      </trkpt>
      <trkpt lat="49.94061" lon="2.12882">
        <ele>79.7</ele>
        <time>2022-09-14T12:18:06Z</time>
      </trkpt>
      <trkpt lat="49.94061" lon="2.1288">
        <ele>79.8</ele>
        <time>2022-09-14T12:18:07Z</time>
      </trkpt>
      <trkpt lat="49.9406" lon="2.12877">
        <ele>79.9</ele>
        <time>2022-09-14T12:18:08Z</time>
      </trkpt>
      <trkpt lat="49.9406" lon="2.12875">
        <ele>79.9</ele>
        <time>2022-09-14T12:18:09Z</time>
      </trkpt>
      <trkpt lat="49.94059" lon="2.12873">
        <ele>80.2</ele>
        <time>2022-09-14T12:18:10Z</time>
      </trkpt>
      <trkpt lat="49.94058" lon="2.12872">
        <ele>80.2</ele>
        <time>2022-09-14T12:18:11Z</time>
      </trkpt>
      <trkpt lat="49.94058" lon="2.12871">
        <ele>80.2</ele>
        <time>2022-09-14T12:18:12Z</time>
      </trkpt>
      <trkpt lat="49.94056" lon="2.12868">
        <ele>80.5</ele>
        <time>2022-09-14T12:18:13Z</time>
      </trkpt>
      <trkpt lat="49.94055" lon="2.12866">
        <ele>80.5</ele>
        <time>2022-09-14T12:18:15Z</time>
      </trkpt>
      <trkpt lat="49.94054" lon="2.12865">
        <ele>80.5</ele>
        <time>2022-09-14T12:18:16Z</time>
      </trkpt>
      <trkpt lat="49.94053" lon="2.12864">
        <ele>80.6</ele>
        <time>2022-09-14T12:18:17Z</time>
      </trkpt>
      <trkpt lat="49.94053" lon="2.12862">
        <ele>80.8</ele>
        <time>2022-09-14T12:18:18Z</time>
      </trkpt>
      <trkpt lat="49.94051" lon="2.1286">
        <ele>80.8</ele>
        <time>2022-09-14T12:18:19Z</time>
      </trkpt>
      <trkpt lat="49.94051" lon="2.12859">
        <ele>80.8</ele>
        <time>2022-09-14T12:18:20Z</time>
      </trkpt>
      <trkpt lat="49.9405" lon="2.12856">
        <ele>81.1</ele>
        <time>2022-09-14T12:18:21Z</time>
      </trkpt>
      <trkpt lat="49.94049" lon="2.12854">
        <ele>81.1</ele>
        <time>2022-09-14T12:18:23Z</time>
      </trkpt>
      <trkpt lat="49.94048" lon="2.12853">
        <ele>81.1</ele>
        <time>2022-09-14T12:18:24Z</time>
      </trkpt>
      <trkpt lat="49.94048" lon="2.12852">
        <ele>81.1</ele>
        <time>2022-09-14T12:18:25Z</time>
      </trkpt>
      <trkpt lat="49.94047" lon="2.12851">
        <ele>81.4</ele>
        <time>2022-09-14T12:18:26Z</time>
      </trkpt>
      <trkpt lat="49.94047" lon="2.12849">
        <ele>81.4</ele>
        <time>2022-09-14T12:18:28Z</time>
      </trkpt>
      <trkpt lat="49.94046" lon="2.12848">
        <ele>81.4</ele>
        <time>2022-09-14T12:18:29Z</time>
      </trkpt>
      <trkpt lat="49.94045" lon="2.12846">
        <ele>81.7</ele>
        <time>2022-09-14T12:18:30Z</time>
      </trkpt>
      <trkpt lat="49.94044" lon="2.12845">
        <ele>81.7</ele>
        <time>2022-09-14T12:18:31Z</time>
      </trkpt>
      <trkpt lat="49.94044" lon="2.12844">
        <ele>81.7</ele>
        <time>2022-09-14T12:18:32Z</time>
      </trkpt>
      <trkpt lat="49.94043" lon="2.12843">
        <ele>81.7</ele>
        <time>2022-09-14T12:18:33Z</time>
      </trkpt>
      <trkpt lat="49.94042" lon="2.1284">
        <ele>82</ele>
        <time>2022-09-14T12:18:34Z</time>
      </trkpt>
      <trkpt lat="49.94041" lon="2.12839">
        <ele>82</ele>
        <time>2022-09-14T12:18:35Z</time>
      </trkpt>
      <trkpt lat="49.94041" lon="2.12838">
        <ele>82</ele>
        <time>2022-09-14T12:18:36Z</time>
      </trkpt>
      <trkpt lat="49.9404" lon="2.12837">
        <ele>82</ele>
        <time>2022-09-14T12:18:38Z</time>
      </trkpt>
      <trkpt lat="49.94039" lon="2.12835">
        <ele>82.2</ele>
        <time>2022-09-14T12:18:39Z</time>
      </trkpt>
      <trkpt lat="49.94037" lon="2.12832">
        <ele>82.3</ele>
        <time>2022-09-14T12:18:40Z</time>
      </trkpt>
      <trkpt lat="49.94037" lon="2.12831">
        <ele>82.5</ele>
        <time>2022-09-14T12:18:42Z</time>
      </trkpt>
      <trkpt lat="49.94036" lon="2.12829">
        <ele>82.5</ele>
        <time>2022-09-14T12:18:43Z</time>
      </trkpt>
      <trkpt lat="49.94035" lon="2.12828">
        <ele>82.5</ele>
        <time>2022-09-14T12:18:44Z</time>
      </trkpt>
      <trkpt lat="49.94035" lon="2.12827">
        <ele>82.5</ele>
        <time>2022-09-14T12:18:45Z</time>
      </trkpt>
      <trkpt lat="49.94034" lon="2.12824">
        <ele>82.8</ele>
        <time>2022-09-14T12:18:46Z</time>
      </trkpt>
      <trkpt lat="49.94033" lon="2.12823">
        <ele>82.8</ele>
        <time>2022-09-14T12:18:47Z</time>
      </trkpt>
      <trkpt lat="49.94033" lon="2.12822">
        <ele>82.8</ele>
        <time>2022-09-14T12:18:48Z</time>
      </trkpt>
      <trkpt lat="49.94032" lon="2.12819">
        <ele>82.8</ele>
        <time>2022-09-14T12:18:50Z</time>
      </trkpt>
      <trkpt lat="49.94032" lon="2.12818">
        <ele>82.8</ele>
        <time>2022-09-14T12:18:51Z</time>
      </trkpt>
      <trkpt lat="49.94031" lon="2.12815">
        <ele>83.1</ele>
        <time>2022-09-14T12:18:52Z</time>
      </trkpt>
      <trkpt lat="49.9403" lon="2.12814">
        <ele>83.1</ele>
        <time>2022-09-14T12:18:53Z</time>
      </trkpt>
      <trkpt lat="49.9403" lon="2.12812">
        <ele>83.1</ele>
        <time>2022-09-14T12:18:54Z</time>
      </trkpt>
      <trkpt lat="49.94028" lon="2.12809">
        <ele>83.3</ele>
        <time>2022-09-14T12:18:55Z</time>
      </trkpt>
      <trkpt lat="49.94028" lon="2.12809">
        <ele>83.3</ele>
        <time>2022-09-14T12:18:56Z</time>
      </trkpt>
      <trkpt lat="49.94027" lon="2.12808">
        <ele>83.3</ele>
        <time>2022-09-14T12:18:57Z</time>
      </trkpt>
      <trkpt lat="49.94027" lon="2.12806">
        <ele>83.3</ele>
        <time>2022-09-14T12:18:59Z</time>
      </trkpt>
      <trkpt lat="49.94025" lon="2.12804">
        <ele>83.5</ele>
        <time>2022-09-14T12:19:00Z</time>
      </trkpt>
      <trkpt lat="49.94024" lon="2.12801">
        <ele>83.5</ele>
        <time>2022-09-14T12:19:01Z</time>
      </trkpt>
      <trkpt lat="49.94024" lon="2.128">
        <ele>83.5</ele>
        <time>2022-09-14T12:19:02Z</time>
      </trkpt>
      <trkpt lat="49.94023" lon="2.12799">
        <ele>83.5</ele>
        <time>2022-09-14T12:19:03Z</time>
      </trkpt>
      <trkpt lat="49.94023" lon="2.12797">
        <ele>83.7</ele>
        <time>2022-09-14T12:19:04Z</time>
      </trkpt>
      <trkpt lat="49.94022" lon="2.12795">
        <ele>83.7</ele>
        <time>2022-09-14T12:19:05Z</time>
      </trkpt>
      <trkpt lat="49.94021" lon="2.12794">
        <ele>83.7</ele>
        <time>2022-09-14T12:19:06Z</time>
      </trkpt>
      <trkpt lat="49.94021" lon="2.12793">
        <ele>83.7</ele>
        <time>2022-09-14T12:19:08Z</time>
      </trkpt>
      <trkpt lat="49.9402" lon="2.12791">
        <ele>83.9</ele>
        <time>2022-09-14T12:19:09Z</time>
      </trkpt>
      <trkpt lat="49.94019" lon="2.12788">
        <ele>83.9</ele>
        <time>2022-09-14T12:19:10Z</time>
      </trkpt>
      <trkpt lat="49.94018" lon="2.12787">
        <ele>83.9</ele>
        <time>2022-09-14T12:19:11Z</time>
      </trkpt>
      <trkpt lat="49.94018" lon="2.12786">
        <ele>83.9</ele>
        <time>2022-09-14T12:19:12Z</time>
      </trkpt>
      <trkpt lat="49.94017" lon="2.12784">
        <ele>83.9</ele>
        <time>2022-09-14T12:19:13Z</time>
      </trkpt>
      <trkpt lat="49.94017" lon="2.12782">
        <ele>84.1</ele>
        <time>2022-09-14T12:19:14Z</time>
      </trkpt>
      <trkpt lat="49.94016" lon="2.12781">
        <ele>84.1</ele>
        <time>2022-09-14T12:19:15Z</time>
      </trkpt>
      <trkpt lat="49.94016" lon="2.1278">
        <ele>84.1</ele>
        <time>2022-09-14T12:19:17Z</time>
      </trkpt>
      <trkpt lat="49.94015" lon="2.12778">
        <ele>84.1</ele>
        <time>2022-09-14T12:19:18Z</time>
      </trkpt>
      <trkpt lat="49.94015" lon="2.12777">
        <ele>84.1</ele>
        <time>2022-09-14T12:19:19Z</time>
      </trkpt>
      <trkpt lat="49.94014" lon="2.12775">
        <ele>84.3</ele>
        <time>2022-09-14T12:19:20Z</time>
      </trkpt>
      <trkpt lat="49.94014" lon="2.12774">
        <ele>84.3</ele>
        <time>2022-09-14T12:19:21Z</time>
      </trkpt>
      <trkpt lat="49.94013" lon="2.12772">
        <ele>84.3</ele>
        <time>2022-09-14T12:19:22Z</time>
      </trkpt>
      <trkpt lat="49.94013" lon="2.12771">
        <ele>84.3</ele>
        <time>2022-09-14T12:19:23Z</time>
      </trkpt>
      <trkpt lat="49.94012" lon="2.12769">
        <ele>84.4</ele>
        <time>2022-09-14T12:19:25Z</time>
      </trkpt>
      <trkpt lat="49.94011" lon="2.12768">
        <ele>84.4</ele>
        <time>2022-09-14T12:19:26Z</time>
      </trkpt>
      <trkpt lat="49.94011" lon="2.12766">
        <ele>84.4</ele>
        <time>2022-09-14T12:19:27Z</time>
      </trkpt>
      <trkpt lat="49.94011" lon="2.12765">
        <ele>84.4</ele>
        <time>2022-09-14T12:19:28Z</time>
      </trkpt>
      <trkpt lat="49.94011" lon="2.12763">
        <ele>84.4</ele>
        <time>2022-09-14T12:19:29Z</time>
      </trkpt>
      <trkpt lat="49.9401" lon="2.12761">
        <ele>84.4</ele>
        <time>2022-09-14T12:19:30Z</time>
      </trkpt>
      <trkpt lat="49.9401" lon="2.12759">
        <ele>84.4</ele>
        <time>2022-09-14T12:19:31Z</time>
      </trkpt>
      <trkpt lat="49.94009" lon="2.12758">
        <ele>84.6</ele>
        <time>2022-09-14T12:19:32Z</time>
      </trkpt>
      <trkpt lat="49.94008" lon="2.12756">
        <ele>84.5</ele>
        <time>2022-09-14T12:19:34Z</time>
      </trkpt>
      <trkpt lat="49.94007" lon="2.12753">
        <ele>84.5</ele>
        <time>2022-09-14T12:19:35Z</time>
      </trkpt>
      <trkpt lat="49.94007" lon="2.12752">
        <ele>84.5</ele>
        <time>2022-09-14T12:19:36Z</time>
      </trkpt>
      <trkpt lat="49.94006" lon="2.12749">
        <ele>84.7</ele>
        <time>2022-09-14T12:19:37Z</time>
      </trkpt>
      <trkpt lat="49.94005" lon="2.12748">
        <ele>84.7</ele>
        <time>2022-09-14T12:19:38Z</time>
      </trkpt>
      <trkpt lat="49.94004" lon="2.12746">
        <ele>84.7</ele>
        <time>2022-09-14T12:19:39Z</time>
      </trkpt>
      <trkpt lat="49.94003" lon="2.12743">
        <ele>84.8</ele>
        <time>2022-09-14T12:19:40Z</time>
      </trkpt>
      <trkpt lat="49.94002" lon="2.12741">
        <ele>84.8</ele>
        <time>2022-09-14T12:19:42Z</time>
      </trkpt>
      <trkpt lat="49.94002" lon="2.1274">
        <ele>84.8</ele>
        <time>2022-09-14T12:19:43Z</time>
      </trkpt>
      <trkpt lat="49.94001" lon="2.12739">
        <ele>84.8</ele>
        <time>2022-09-14T12:19:44Z</time>
      </trkpt>
      <trkpt lat="49.94" lon="2.12738">
        <ele>85</ele>
        <time>2022-09-14T12:19:45Z</time>
      </trkpt>
      <trkpt lat="49.94" lon="2.12736">
        <ele>85</ele>
        <time>2022-09-14T12:19:46Z</time>
      </trkpt>
      <trkpt lat="49.93999" lon="2.12735">
        <ele>85</ele>
        <time>2022-09-14T12:19:47Z</time>
      </trkpt>
      <trkpt lat="49.93999" lon="2.12733">
        <ele>85</ele>
        <time>2022-09-14T12:19:48Z</time>
      </trkpt>
      <trkpt lat="49.93998" lon="2.12731">
        <ele>85.2</ele>
        <time>2022-09-14T12:19:50Z</time>
      </trkpt>
      <trkpt lat="49.93997" lon="2.12729">
        <ele>85.2</ele>
        <time>2022-09-14T12:19:51Z</time>
      </trkpt>
      <trkpt lat="49.93995" lon="2.12726">
        <ele>85.1</ele>
        <time>2022-09-14T12:19:52Z</time>
      </trkpt>
      <trkpt lat="49.93995" lon="2.12725">
        <ele>85.4</ele>
        <time>2022-09-14T12:19:54Z</time>
      </trkpt>
      <trkpt lat="49.93994" lon="2.12724">
        <ele>85.4</ele>
        <time>2022-09-14T12:19:55Z</time>
      </trkpt>
      <trkpt lat="49.93993" lon="2.12723">
        <ele>85.3</ele>
        <time>2022-09-14T12:19:56Z</time>
      </trkpt>
      <trkpt lat="49.93992" lon="2.1272">
        <ele>85.6</ele>
        <time>2022-09-14T12:19:58Z</time>
      </trkpt>
      <trkpt lat="49.93991" lon="2.12719">
        <ele>85.6</ele>
        <time>2022-09-14T12:19:59Z</time>
      </trkpt>
      <trkpt lat="49.9399" lon="2.12717">
        <ele>85.5</ele>
        <time>2022-09-14T12:20:00Z</time>
      </trkpt>
      <trkpt lat="49.93989" lon="2.12715">
        <ele>85.8</ele>
        <time>2022-09-14T12:20:01Z</time>
      </trkpt>
      <trkpt lat="49.93988" lon="2.12713">
        <ele>85.8</ele>
        <time>2022-09-14T12:20:02Z</time>
      </trkpt>
      <trkpt lat="49.93988" lon="2.12712">
        <ele>85.8</ele>
        <time>2022-09-14T12:20:03Z</time>
      </trkpt>
      <trkpt lat="49.93987" lon="2.12711">
        <ele>86</ele>
        <time>2022-09-14T12:20:05Z</time>
      </trkpt>
      <trkpt lat="49.93986" lon="2.12709">
        <ele>86</ele>
        <time>2022-09-14T12:20:06Z</time>
      </trkpt>
      <trkpt lat="49.93985" lon="2.12706">
        <ele>86</ele>
        <time>2022-09-14T12:20:07Z</time>
      </trkpt>
      <trkpt lat="49.93984" lon="2.12705">
        <ele>86.3</ele>
        <time>2022-09-14T12:20:08Z</time>
      </trkpt>
      <trkpt lat="49.93983" lon="2.12704">
        <ele>86.3</ele>
        <time>2022-09-14T12:20:09Z</time>
      </trkpt>
      <trkpt lat="49.93982" lon="2.12701">
        <ele>86.2</ele>
        <time>2022-09-14T12:20:10Z</time>
      </trkpt>
      <trkpt lat="49.93982" lon="2.127">
        <ele>86.2</ele>
        <time>2022-09-14T12:20:12Z</time>
      </trkpt>
      <trkpt lat="49.93981" lon="2.12699">
        <ele>86.5</ele>
        <time>2022-09-14T12:20:13Z</time>
      </trkpt>
      <trkpt lat="49.93981" lon="2.12697">
        <ele>86.5</ele>
        <time>2022-09-14T12:20:14Z</time>
      </trkpt>
      <trkpt lat="49.9398" lon="2.12695">
        <ele>86.5</ele>
        <time>2022-09-14T12:20:15Z</time>
      </trkpt>
      <trkpt lat="49.93979" lon="2.12694">
        <ele>86.5</ele>
        <time>2022-09-14T12:20:16Z</time>
      </trkpt>
      <trkpt lat="49.93978" lon="2.12692">
        <ele>86.8</ele>
        <time>2022-09-14T12:20:17Z</time>
      </trkpt>
      <trkpt lat="49.93978" lon="2.12691">
        <ele>86.8</ele>
        <time>2022-09-14T12:20:19Z</time>
      </trkpt>
      <trkpt lat="49.93977" lon="2.12689">
        <ele>86.8</ele>
        <time>2022-09-14T12:20:20Z</time>
      </trkpt>
      <trkpt lat="49.93976" lon="2.12688">
        <ele>86.8</ele>
        <time>2022-09-14T12:20:21Z</time>
      </trkpt>
      <trkpt lat="49.93975" lon="2.12686">
        <ele>87.1</ele>
        <time>2022-09-14T12:20:22Z</time>
      </trkpt>
      <trkpt lat="49.93975" lon="2.12685">
        <ele>87.1</ele>
        <time>2022-09-14T12:20:23Z</time>
      </trkpt>
      <trkpt lat="49.93974" lon="2.12683">
        <ele>87.1</ele>
        <time>2022-09-14T12:20:24Z</time>
      </trkpt>
      <trkpt lat="49.93974" lon="2.12681">
        <ele>87.1</ele>
        <time>2022-09-14T12:20:26Z</time>
      </trkpt>
      <trkpt lat="49.93974" lon="2.1268">
        <ele>87.1</ele>
        <time>2022-09-14T12:20:27Z</time>
      </trkpt>
      <trkpt lat="49.93973" lon="2.12678">
        <ele>87.1</ele>
        <time>2022-09-14T12:20:28Z</time>
      </trkpt>
      <trkpt lat="49.93973" lon="2.12676">
        <ele>87.4</ele>
        <time>2022-09-14T12:20:29Z</time>
      </trkpt>
      <trkpt lat="49.93973" lon="2.12673">
        <ele>87.4</ele>
        <time>2022-09-14T12:20:30Z</time>
      </trkpt>
      <trkpt lat="49.93972" lon="2.12672">
        <ele>87.4</ele>
        <time>2022-09-14T12:20:31Z</time>
      </trkpt>
      <trkpt lat="49.93972" lon="2.1267">
        <ele>87.5</ele>
        <time>2022-09-14T12:20:32Z</time>
      </trkpt>
      <trkpt lat="49.93971" lon="2.12668">
        <ele>87.5</ele>
        <time>2022-09-14T12:20:34Z</time>
      </trkpt>
      <trkpt lat="49.93971" lon="2.12667">
        <ele>87.5</ele>
        <time>2022-09-14T12:20:35Z</time>
      </trkpt>
      <trkpt lat="49.9397" lon="2.12665">
        <ele>87.8</ele>
        <time>2022-09-14T12:20:36Z</time>
      </trkpt>
      <trkpt lat="49.9397" lon="2.12664">
        <ele>87.8</ele>
        <time>2022-09-14T12:20:37Z</time>
      </trkpt>
      <trkpt lat="49.93969" lon="2.12662">
        <ele>87.9</ele>
        <time>2022-09-14T12:20:38Z</time>
      </trkpt>
      <trkpt lat="49.93969" lon="2.1266">
        <ele>87.9</ele>
        <time>2022-09-14T12:20:39Z</time>
      </trkpt>
      <trkpt lat="49.93968" lon="2.12658">
        <ele>87.9</ele>
        <time>2022-09-14T12:20:40Z</time>
      </trkpt>
      <trkpt lat="49.93968" lon="2.12657">
        <ele>87.9</ele>
        <time>2022-09-14T12:20:42Z</time>
      </trkpt>
      <trkpt lat="49.93969" lon="2.12656">
        <ele>87.9</ele>
        <time>2022-09-14T12:20:43Z</time>
      </trkpt>
      <trkpt lat="49.93969" lon="2.12655">
        <ele>87.9</ele>
        <time>2022-09-14T12:20:44Z</time>
      </trkpt>
      <trkpt lat="49.9397" lon="2.12652">
        <ele>87.9</ele>
        <time>2022-09-14T12:20:46Z</time>
      </trkpt>
      <trkpt lat="49.9397" lon="2.1265">
        <ele>87.9</ele>
        <time>2022-09-14T12:20:47Z</time>
      </trkpt>
      <trkpt lat="49.93971" lon="2.12649">
        <ele>87.6</ele>
        <time>2022-09-14T12:20:48Z</time>
      </trkpt>
      <trkpt lat="49.93971" lon="2.12648">
        <ele>87.6</ele>
        <time>2022-09-14T12:20:49Z</time>
      </trkpt>
      <trkpt lat="49.93972" lon="2.12645">
        <ele>87.6</ele>
        <time>2022-09-14T12:20:50Z</time>
      </trkpt>
      <trkpt lat="49.93972" lon="2.12643">
        <ele>87.6</ele>
        <time>2022-09-14T12:20:52Z</time>
      </trkpt>
      <trkpt lat="49.93973" lon="2.12642">
        <ele>87.6</ele>
        <time>2022-09-14T12:20:53Z</time>
      </trkpt>
      <trkpt lat="49.93973" lon="2.1264">
        <ele>87.7</ele>
        <time>2022-09-14T12:20:54Z</time>
      </trkpt>
      <trkpt lat="49.93974" lon="2.12636">
        <ele>87.4</ele>
        <time>2022-09-14T12:20:56Z</time>
      </trkpt>
      <trkpt lat="49.93974" lon="2.12635">
        <ele>87.4</ele>
        <time>2022-09-14T12:20:57Z</time>
      </trkpt>
      <trkpt lat="49.93974" lon="2.12633">
        <ele>87.4</ele>
        <time>2022-09-14T12:20:58Z</time>
      </trkpt>
      <trkpt lat="49.93974" lon="2.12631">
        <ele>87.4</ele>
        <time>2022-09-14T12:20:59Z</time>
      </trkpt>
      <trkpt lat="49.93974" lon="2.12628">
        <ele>87.4</ele>
        <time>2022-09-14T12:21:00Z</time>
      </trkpt>
      <trkpt lat="49.93974" lon="2.12627">
        <ele>87.4</ele>
        <time>2022-09-14T12:21:01Z</time>
      </trkpt>
      <trkpt lat="49.93974" lon="2.12626">
        <ele>87.4</ele>
        <time>2022-09-14T12:21:02Z</time>
      </trkpt>
      <trkpt lat="49.93974" lon="2.12623">
        <ele>87.5</ele>
        <time>2022-09-14T12:21:04Z</time>
      </trkpt>
      <trkpt lat="49.93974" lon="2.12621">
        <ele>87.5</ele>
        <time>2022-09-14T12:21:05Z</time>
      </trkpt>
      <trkpt lat="49.93974" lon="2.1262">
        <ele>87.5</ele>
        <time>2022-09-14T12:21:06Z</time>
      </trkpt>
      <trkpt lat="49.93974" lon="2.12617">
        <ele>87.5</ele>
        <time>2022-09-14T12:21:08Z</time>
      </trkpt>
      <trkpt lat="49.93974" lon="2.12615">
        <ele>87.6</ele>
        <time>2022-09-14T12:21:09Z</time>
      </trkpt>
      <trkpt lat="49.93974" lon="2.12614">
        <ele>87.6</ele>
        <time>2022-09-14T12:21:10Z</time>
      </trkpt>
      <trkpt lat="49.93975" lon="2.12611">
        <ele>87.7</ele>
        <time>2022-09-14T12:21:11Z</time>
      </trkpt>
      <trkpt lat="49.93975" lon="2.1261">
        <ele>87.7</ele>
        <time>2022-09-14T12:21:12Z</time>
      </trkpt>
      <trkpt lat="49.93975" lon="2.12609">
        <ele>87.7</ele>
        <time>2022-09-14T12:21:13Z</time>
      </trkpt>
      <trkpt lat="49.93975" lon="2.12607">
        <ele>87.7</ele>
        <time>2022-09-14T12:21:14Z</time>
      </trkpt>
      <trkpt lat="49.93976" lon="2.12604">
        <ele>87.7</ele>
        <time>2022-09-14T12:21:16Z</time>
      </trkpt>
      <trkpt lat="49.93976" lon="2.12603">
        <ele>87.8</ele>
        <time>2022-09-14T12:21:17Z</time>
      </trkpt>
      <trkpt lat="49.93976" lon="2.12601">
        <ele>87.4</ele>
        <time>2022-09-14T12:21:18Z</time>
      </trkpt>
      <trkpt lat="49.93977" lon="2.12599">
        <ele>87.4</ele>
        <time>2022-09-14T12:21:19Z</time>
      </trkpt>
      <trkpt lat="49.93977" lon="2.12597">
        <ele>87.5</ele>
        <time>2022-09-14T12:21:20Z</time>
      </trkpt>
      <trkpt lat="49.93978" lon="2.12595">
        <ele>87.5</ele>
        <time>2022-09-14T12:21:21Z</time>
      </trkpt>
      <trkpt lat="49.93978" lon="2.12593">
        <ele>87.6</ele>
        <time>2022-09-14T12:21:22Z</time>
      </trkpt>
      <trkpt lat="49.93979" lon="2.12591">
        <ele>87.3</ele>
        <time>2022-09-14T12:21:24Z</time>
      </trkpt>
      <trkpt lat="49.93979" lon="2.12589">
        <ele>87.3</ele>
        <time>2022-09-14T12:21:25Z</time>
      </trkpt>
      <trkpt lat="49.9398" lon="2.12587">
        <ele>87.3</ele>
        <time>2022-09-14T12:21:26Z</time>
      </trkpt>
      <trkpt lat="49.9398" lon="2.12585">
        <ele>87.4</ele>
        <time>2022-09-14T12:21:27Z</time>
      </trkpt>
      <trkpt lat="49.9398" lon="2.12583">
        <ele>87.4</ele>
        <time>2022-09-14T12:21:28Z</time>
      </trkpt>
      <trkpt lat="49.93981" lon="2.12582">
        <ele>87.4</ele>
        <time>2022-09-14T12:21:29Z</time>
      </trkpt>
      <trkpt lat="49.93981" lon="2.12579">
        <ele>87.5</ele>
        <time>2022-09-14T12:21:31Z</time>
      </trkpt>
      <trkpt lat="49.93982" lon="2.12578">
        <ele>87.2</ele>
        <time>2022-09-14T12:21:32Z</time>
      </trkpt>
      <trkpt lat="49.93982" lon="2.12576">
        <ele>87.3</ele>
        <time>2022-09-14T12:21:33Z</time>
      </trkpt>
      <trkpt lat="49.93982" lon="2.12575">
        <ele>87.3</ele>
        <time>2022-09-14T12:21:34Z</time>
      </trkpt>
      <trkpt lat="49.93983" lon="2.12573">
        <ele>87.3</ele>
        <time>2022-09-14T12:21:35Z</time>
      </trkpt>
      <trkpt lat="49.93984" lon="2.12571">
        <ele>87.4</ele>
        <time>2022-09-14T12:21:36Z</time>
      </trkpt>
      <trkpt lat="49.93984" lon="2.1257">
        <ele>87.4</ele>
        <time>2022-09-14T12:21:37Z</time>
      </trkpt>
      <trkpt lat="49.93985" lon="2.12568">
        <ele>87.2</ele>
        <time>2022-09-14T12:21:39Z</time>
      </trkpt>
      <trkpt lat="49.93985" lon="2.12567">
        <ele>87.2</ele>
        <time>2022-09-14T12:21:40Z</time>
      </trkpt>
      <trkpt lat="49.93986" lon="2.12564">
        <ele>87.3</ele>
        <time>2022-09-14T12:21:41Z</time>
      </trkpt>
      <trkpt lat="49.93986" lon="2.12562">
        <ele>87.3</ele>
        <time>2022-09-14T12:21:43Z</time>
      </trkpt>
      <trkpt lat="49.93987" lon="2.1256">
        <ele>87.3</ele>
        <time>2022-09-14T12:21:44Z</time>
      </trkpt>
      <trkpt lat="49.93987" lon="2.12559">
        <ele>87.4</ele>
        <time>2022-09-14T12:21:45Z</time>
      </trkpt>
      <trkpt lat="49.93987" lon="2.12556">
        <ele>87.1</ele>
        <time>2022-09-14T12:21:46Z</time>
      </trkpt>
      <trkpt lat="49.93988" lon="2.12554">
        <ele>87.2</ele>
        <time>2022-09-14T12:21:47Z</time>
      </trkpt>
      <trkpt lat="49.93988" lon="2.12551">
        <ele>87.2</ele>
        <time>2022-09-14T12:21:48Z</time>
      </trkpt>
      <trkpt lat="49.93988" lon="2.1255">
        <ele>87.3</ele>
        <time>2022-09-14T12:21:49Z</time>
      </trkpt>
      <trkpt lat="49.93988" lon="2.12549">
        <ele>87.3</ele>
        <time>2022-09-14T12:21:50Z</time>
      </trkpt>
      <trkpt lat="49.93988" lon="2.12547">
        <ele>87.3</ele>
        <time>2022-09-14T12:21:52Z</time>
      </trkpt>
      <trkpt lat="49.93988" lon="2.12546">
        <ele>87.4</ele>
        <time>2022-09-14T12:21:53Z</time>
      </trkpt>
      <trkpt lat="49.93989" lon="2.12544">
        <ele>87.4</ele>
        <time>2022-09-14T12:21:54Z</time>
      </trkpt>
      <trkpt lat="49.93988" lon="2.12542">
        <ele>87.5</ele>
        <time>2022-09-14T12:21:55Z</time>
      </trkpt>
      <trkpt lat="49.93989" lon="2.1254">
        <ele>87.5</ele>
        <time>2022-09-14T12:21:56Z</time>
      </trkpt>
      <trkpt lat="49.93989" lon="2.12539">
        <ele>87.5</ele>
        <time>2022-09-14T12:21:57Z</time>
      </trkpt>
      <trkpt lat="49.9399" lon="2.12535">
        <ele>87.6</ele>
        <time>2022-09-14T12:21:58Z</time>
      </trkpt>
      <trkpt lat="49.9399" lon="2.12534">
        <ele>87.6</ele>
        <time>2022-09-14T12:21:59Z</time>
      </trkpt>
      <trkpt lat="49.9399" lon="2.12533">
        <ele>87.4</ele>
        <time>2022-09-14T12:22:00Z</time>
      </trkpt>
      <trkpt lat="49.93991" lon="2.1253">
        <ele>87.4</ele>
        <time>2022-09-14T12:22:02Z</time>
      </trkpt>
      <trkpt lat="49.93991" lon="2.12529">
        <ele>87.5</ele>
        <time>2022-09-14T12:22:03Z</time>
      </trkpt>
      <trkpt lat="49.93992" lon="2.12526">
        <ele>87.5</ele>
        <time>2022-09-14T12:22:04Z</time>
      </trkpt>
      <trkpt lat="49.93993" lon="2.12525">
        <ele>87.3</ele>
        <time>2022-09-14T12:22:05Z</time>
      </trkpt>
      <trkpt lat="49.93993" lon="2.12523">
        <ele>87.3</ele>
        <time>2022-09-14T12:22:06Z</time>
      </trkpt>
      <trkpt lat="49.93994" lon="2.12522">
        <ele>87.3</ele>
        <time>2022-09-14T12:22:07Z</time>
      </trkpt>
      <trkpt lat="49.93994" lon="2.1252">
        <ele>87.4</ele>
        <time>2022-09-14T12:22:08Z</time>
      </trkpt>
      <trkpt lat="49.93995" lon="2.12518">
        <ele>87.4</ele>
        <time>2022-09-14T12:22:10Z</time>
      </trkpt>
      <trkpt lat="49.93995" lon="2.12516">
        <ele>87.2</ele>
        <time>2022-09-14T12:22:11Z</time>
      </trkpt>
      <trkpt lat="49.93996" lon="2.12514">
        <ele>87.2</ele>
        <time>2022-09-14T12:22:12Z</time>
      </trkpt>
      <trkpt lat="49.93996" lon="2.12511">
        <ele>87.3</ele>
        <time>2022-09-14T12:22:13Z</time>
      </trkpt>
      <trkpt lat="49.93996" lon="2.12509">
        <ele>87.3</ele>
        <time>2022-09-14T12:22:14Z</time>
      </trkpt>
      <trkpt lat="49.93996" lon="2.12508">
        <ele>87.4</ele>
        <time>2022-09-14T12:22:15Z</time>
      </trkpt>
      <trkpt lat="49.93996" lon="2.12505">
        <ele>87.4</ele>
        <time>2022-09-14T12:22:16Z</time>
      </trkpt>
      <trkpt lat="49.93996" lon="2.12504">
        <ele>87.5</ele>
        <time>2022-09-14T12:22:17Z</time>
      </trkpt>
      <trkpt lat="49.93996" lon="2.12502">
        <ele>87.5</ele>
        <time>2022-09-14T12:22:19Z</time>
      </trkpt>
      <trkpt lat="49.93997" lon="2.125">
        <ele>87.5</ele>
        <time>2022-09-14T12:22:20Z</time>
      </trkpt>
      <trkpt lat="49.93997" lon="2.12498">
        <ele>87.6</ele>
        <time>2022-09-14T12:22:21Z</time>
      </trkpt>
      <trkpt lat="49.93997" lon="2.12495">
        <ele>87.7</ele>
        <time>2022-09-14T12:22:22Z</time>
      </trkpt>
      <trkpt lat="49.93997" lon="2.12494">
        <ele>87.7</ele>
        <time>2022-09-14T12:22:23Z</time>
      </trkpt>
      <trkpt lat="49.93997" lon="2.12492">
        <ele>87.7</ele>
        <time>2022-09-14T12:22:24Z</time>
      </trkpt>
      <trkpt lat="49.93998" lon="2.1249">
        <ele>87.8</ele>
        <time>2022-09-14T12:22:25Z</time>
      </trkpt>
      <trkpt lat="49.93998" lon="2.12488">
        <ele>87.8</ele>
        <time>2022-09-14T12:22:26Z</time>
      </trkpt>
      <trkpt lat="49.93998" lon="2.12484">
        <ele>87.5</ele>
        <time>2022-09-14T12:22:28Z</time>
      </trkpt>
      <trkpt lat="49.93998" lon="2.12483">
        <ele>87.5</ele>
        <time>2022-09-14T12:22:29Z</time>
      </trkpt>
      <trkpt lat="49.93998" lon="2.12482">
        <ele>87.6</ele>
        <time>2022-09-14T12:22:30Z</time>
      </trkpt>
      <trkpt lat="49.93999" lon="2.12479">
        <ele>87.6</ele>
        <time>2022-09-14T12:22:31Z</time>
      </trkpt>
      <trkpt lat="49.93999" lon="2.12477">
        <ele>87.7</ele>
        <time>2022-09-14T12:22:32Z</time>
      </trkpt>
      <trkpt lat="49.94" lon="2.12474">
        <ele>87.7</ele>
        <time>2022-09-14T12:22:33Z</time>
      </trkpt>
      <trkpt lat="49.94" lon="2.12473">
        <ele>87.8</ele>
        <time>2022-09-14T12:22:34Z</time>
      </trkpt>
      <trkpt lat="49.94" lon="2.12471">
        <ele>87.8</ele>
        <time>2022-09-14T12:22:35Z</time>
      </trkpt>
      <trkpt lat="49.94" lon="2.12469">
        <ele>87.9</ele>
        <time>2022-09-14T12:22:37Z</time>
      </trkpt>
      <trkpt lat="49.94001" lon="2.12467">
        <ele>87.9</ele>
        <time>2022-09-14T12:22:38Z</time>
      </trkpt>
      <trkpt lat="49.94001" lon="2.12464">
        <ele>88</ele>
        <time>2022-09-14T12:22:39Z</time>
      </trkpt>
      <trkpt lat="49.94001" lon="2.12462">
        <ele>88</ele>
        <time>2022-09-14T12:22:40Z</time>
      </trkpt>
      <trkpt lat="49.94001" lon="2.1246">
        <ele>87.7</ele>
        <time>2022-09-14T12:22:41Z</time>
      </trkpt>
      <trkpt lat="49.94001" lon="2.12457">
        <ele>87.7</ele>
        <time>2022-09-14T12:22:42Z</time>
      </trkpt>
      <trkpt lat="49.94001" lon="2.12456">
        <ele>87.8</ele>
        <time>2022-09-14T12:22:43Z</time>
      </trkpt>
      <trkpt lat="49.94001" lon="2.12454">
        <ele>87.8</ele>
        <time>2022-09-14T12:22:45Z</time>
      </trkpt>
      <trkpt lat="49.94001" lon="2.12453">
        <ele>87.8</ele>
        <time>2022-09-14T12:22:46Z</time>
      </trkpt>
      <trkpt lat="49.94002" lon="2.12451">
        <ele>87.9</ele>
        <time>2022-09-14T12:22:47Z</time>
      </trkpt>
      <trkpt lat="49.94002" lon="2.1245">
        <ele>87.9</ele>
        <time>2022-09-14T12:22:48Z</time>
      </trkpt>
      <trkpt lat="49.94002" lon="2.12447">
        <ele>88</ele>
        <time>2022-09-14T12:22:49Z</time>
      </trkpt>
      <trkpt lat="49.94002" lon="2.12445">
        <ele>88</ele>
        <time>2022-09-14T12:22:50Z</time>
      </trkpt>
      <trkpt lat="49.94002" lon="2.12443">
        <ele>88.1</ele>
        <time>2022-09-14T12:22:51Z</time>
      </trkpt>
      <trkpt lat="49.94002" lon="2.12442">
        <ele>88.1</ele>
        <time>2022-09-14T12:22:53Z</time>
      </trkpt>
      <trkpt lat="49.94003" lon="2.12441">
        <ele>88.1</ele>
        <time>2022-09-14T12:22:54Z</time>
      </trkpt>
      <trkpt lat="49.94003" lon="2.1244">
        <ele>88.1</ele>
        <time>2022-09-14T12:22:55Z</time>
      </trkpt>
      <trkpt lat="49.94003" lon="2.12439">
        <ele>88.2</ele>
        <time>2022-09-14T12:22:56Z</time>
      </trkpt>
      <trkpt lat="49.94004" lon="2.12436">
        <ele>87.9</ele>
        <time>2022-09-14T12:22:57Z</time>
      </trkpt>
      <trkpt lat="49.94005" lon="2.12435">
        <ele>88</ele>
        <time>2022-09-14T12:22:58Z</time>
      </trkpt>
      <trkpt lat="49.94005" lon="2.12433">
        <ele>88</ele>
        <time>2022-09-14T12:22:59Z</time>
      </trkpt>
      <trkpt lat="49.94005" lon="2.12432">
        <ele>88</ele>
        <time>2022-09-14T12:23:01Z</time>
      </trkpt>
      <trkpt lat="49.94006" lon="2.1243">
        <ele>88.1</ele>
        <time>2022-09-14T12:23:02Z</time>
      </trkpt>
      <trkpt lat="49.94006" lon="2.12429">
        <ele>88.1</ele>
        <time>2022-09-14T12:23:03Z</time>
      </trkpt>
      <trkpt lat="49.94007" lon="2.12426">
        <ele>87.8</ele>
        <time>2022-09-14T12:23:04Z</time>
      </trkpt>
      <trkpt lat="49.94007" lon="2.12424">
        <ele>87.8</ele>
        <time>2022-09-14T12:23:05Z</time>
      </trkpt>
      <trkpt lat="49.94007" lon="2.12423">
        <ele>87.8</ele>
        <time>2022-09-14T12:23:06Z</time>
      </trkpt>
      <trkpt lat="49.94007" lon="2.12422">
        <ele>87.9</ele>
        <time>2022-09-14T12:23:07Z</time>
      </trkpt>
      <trkpt lat="49.94008" lon="2.1242">
        <ele>87.9</ele>
        <time>2022-09-14T12:23:08Z</time>
      </trkpt>
      <trkpt lat="49.94008" lon="2.12418">
        <ele>87.9</ele>
        <time>2022-09-14T12:23:10Z</time>
      </trkpt>
      <trkpt lat="49.94008" lon="2.12416">
        <ele>88</ele>
        <time>2022-09-14T12:23:11Z</time>
      </trkpt>
      <trkpt lat="49.94008" lon="2.12414">
        <ele>88</ele>
        <time>2022-09-14T12:23:12Z</time>
      </trkpt>
      <trkpt lat="49.94008" lon="2.12412">
        <ele>88.1</ele>
        <time>2022-09-14T12:23:13Z</time>
      </trkpt>
      <trkpt lat="49.94008" lon="2.12411">
        <ele>88.1</ele>
        <time>2022-09-14T12:23:14Z</time>
      </trkpt>
      <trkpt lat="49.94008" lon="2.12409">
        <ele>88.2</ele>
        <time>2022-09-14T12:23:15Z</time>
      </trkpt>
      <trkpt lat="49.94008" lon="2.12405">
        <ele>88.3</ele>
        <time>2022-09-14T12:23:16Z</time>
      </trkpt>
      <trkpt lat="49.94008" lon="2.12404">
        <ele>88.3</ele>
        <time>2022-09-14T12:23:18Z</time>
      </trkpt>
      <trkpt lat="49.94008" lon="2.12403">
        <ele>88.3</ele>
        <time>2022-09-14T12:23:19Z</time>
      </trkpt>
      <trkpt lat="49.94008" lon="2.12401">
        <ele>88.4</ele>
        <time>2022-09-14T12:23:20Z</time>
      </trkpt>
      <trkpt lat="49.94009" lon="2.12398">
        <ele>88.4</ele>
        <time>2022-09-14T12:23:21Z</time>
      </trkpt>
      <trkpt lat="49.94009" lon="2.12396">
        <ele>88.5</ele>
        <time>2022-09-14T12:23:22Z</time>
      </trkpt>
      <trkpt lat="49.94009" lon="2.12394">
        <ele>88.5</ele>
        <time>2022-09-14T12:23:23Z</time>
      </trkpt>
      <trkpt lat="49.94009" lon="2.12392">
        <ele>88.6</ele>
        <time>2022-09-14T12:23:25Z</time>
      </trkpt>
      <trkpt lat="49.94009" lon="2.1239">
        <ele>88.6</ele>
        <time>2022-09-14T12:23:26Z</time>
      </trkpt>
      <trkpt lat="49.94009" lon="2.12387">
        <ele>88.7</ele>
        <time>2022-09-14T12:23:27Z</time>
      </trkpt>
      <trkpt lat="49.94009" lon="2.12384">
        <ele>88.4</ele>
        <time>2022-09-14T12:23:28Z</time>
      </trkpt>
      <trkpt lat="49.94009" lon="2.12383">
        <ele>88.5</ele>
        <time>2022-09-14T12:23:29Z</time>
      </trkpt>
      <trkpt lat="49.94009" lon="2.12382">
        <ele>88.5</ele>
        <time>2022-09-14T12:23:30Z</time>
      </trkpt>
      <trkpt lat="49.9401" lon="2.12377">
        <ele>88.6</ele>
        <time>2022-09-14T12:23:31Z</time>
      </trkpt>
      <trkpt lat="49.9401" lon="2.12376">
        <ele>88.6</ele>
        <time>2022-09-14T12:23:33Z</time>
      </trkpt>
      <trkpt lat="49.9401" lon="2.12374">
        <ele>88.7</ele>
        <time>2022-09-14T12:23:34Z</time>
      </trkpt>
      <trkpt lat="49.9401" lon="2.12373">
        <ele>88.7</ele>
        <time>2022-09-14T12:23:35Z</time>
      </trkpt>
      <trkpt lat="49.94011" lon="2.12371">
        <ele>88.7</ele>
        <time>2022-09-14T12:23:36Z</time>
      </trkpt>
      <trkpt lat="49.94011" lon="2.12369">
        <ele>88.8</ele>
        <time>2022-09-14T12:23:37Z</time>
      </trkpt>
      <trkpt lat="49.94011" lon="2.12367">
        <ele>88.8</ele>
        <time>2022-09-14T12:23:38Z</time>
      </trkpt>
      <trkpt lat="49.94011" lon="2.12365">
        <ele>88.9</ele>
        <time>2022-09-14T12:23:39Z</time>
      </trkpt>
      <trkpt lat="49.94012" lon="2.12362">
        <ele>88.9</ele>
        <time>2022-09-14T12:23:41Z</time>
      </trkpt>
      <trkpt lat="49.94012" lon="2.1236">
        <ele>89</ele>
        <time>2022-09-14T12:23:42Z</time>
      </trkpt>
      <trkpt lat="49.94012" lon="2.12358">
        <ele>88.8</ele>
        <time>2022-09-14T12:23:43Z</time>
      </trkpt>
      <trkpt lat="49.94013" lon="2.12356">
        <ele>88.8</ele>
        <time>2022-09-14T12:23:44Z</time>
      </trkpt>
      <trkpt lat="49.94013" lon="2.12353">
        <ele>88.9</ele>
        <time>2022-09-14T12:23:45Z</time>
      </trkpt>
      <trkpt lat="49.94013" lon="2.1235">
        <ele>88.9</ele>
        <time>2022-09-14T12:23:47Z</time>
      </trkpt>
      <trkpt lat="49.94014" lon="2.12349">
        <ele>89</ele>
        <time>2022-09-14T12:23:48Z</time>
      </trkpt>
      <trkpt lat="49.94014" lon="2.12346">
        <ele>89</ele>
        <time>2022-09-14T12:23:49Z</time>
      </trkpt>
      <trkpt lat="49.94015" lon="2.12344">
        <ele>88.7</ele>
        <time>2022-09-14T12:23:50Z</time>
      </trkpt>
      <trkpt lat="49.94015" lon="2.12343">
        <ele>88.7</ele>
        <time>2022-09-14T12:23:51Z</time>
      </trkpt>
      <trkpt lat="49.94016" lon="2.1234">
        <ele>88.8</ele>
        <time>2022-09-14T12:23:52Z</time>
      </trkpt>
      <trkpt lat="49.94016" lon="2.12338">
        <ele>88.8</ele>
        <time>2022-09-14T12:23:53Z</time>
      </trkpt>
      <trkpt lat="49.94017" lon="2.12335">
        <ele>88.9</ele>
        <time>2022-09-14T12:23:54Z</time>
      </trkpt>
      <trkpt lat="49.94017" lon="2.12334">
        <ele>88.9</ele>
        <time>2022-09-14T12:23:56Z</time>
      </trkpt>
      <trkpt lat="49.94017" lon="2.12332">
        <ele>89</ele>
        <time>2022-09-14T12:23:57Z</time>
      </trkpt>
      <trkpt lat="49.94017" lon="2.12331">
        <ele>89</ele>
        <time>2022-09-14T12:23:58Z</time>
      </trkpt>
      <trkpt lat="49.94018" lon="2.12329">
        <ele>88.7</ele>
        <time>2022-09-14T12:23:59Z</time>
      </trkpt>
      <trkpt lat="49.94018" lon="2.12327">
        <ele>88.8</ele>
        <time>2022-09-14T12:24:00Z</time>
      </trkpt>
      <trkpt lat="49.94018" lon="2.12325">
        <ele>88.8</ele>
        <time>2022-09-14T12:24:01Z</time>
      </trkpt>
      <trkpt lat="49.94019" lon="2.12323">
        <ele>88.9</ele>
        <time>2022-09-14T12:24:03Z</time>
      </trkpt>
      <trkpt lat="49.94019" lon="2.12322">
        <ele>88.9</ele>
        <time>2022-09-14T12:24:04Z</time>
      </trkpt>
      <trkpt lat="49.94019" lon="2.1232">
        <ele>88.9</ele>
        <time>2022-09-14T12:24:05Z</time>
      </trkpt>
      <trkpt lat="49.9402" lon="2.12318">
        <ele>89</ele>
        <time>2022-09-14T12:24:06Z</time>
      </trkpt>
      <trkpt lat="49.9402" lon="2.12315">
        <ele>88.7</ele>
        <time>2022-09-14T12:24:07Z</time>
      </trkpt>
      <trkpt lat="49.94021" lon="2.12314">
        <ele>88.8</ele>
        <time>2022-09-14T12:24:08Z</time>
      </trkpt>
      <trkpt lat="49.94021" lon="2.12311">
        <ele>88.9</ele>
        <time>2022-09-14T12:24:10Z</time>
      </trkpt>
      <trkpt lat="49.94022" lon="2.12309">
        <ele>88.9</ele>
        <time>2022-09-14T12:24:11Z</time>
      </trkpt>
      <trkpt lat="49.94022" lon="2.12308">
        <ele>88.9</ele>
        <time>2022-09-14T12:24:12Z</time>
      </trkpt>
      <trkpt lat="49.94023" lon="2.12306">
        <ele>89</ele>
        <time>2022-09-14T12:24:13Z</time>
      </trkpt>
      <trkpt lat="49.94024" lon="2.12304">
        <ele>88.7</ele>
        <time>2022-09-14T12:24:15Z</time>
      </trkpt>
      <trkpt lat="49.94024" lon="2.12302">
        <ele>88.8</ele>
        <time>2022-09-14T12:24:16Z</time>
      </trkpt>
      <trkpt lat="49.94025" lon="2.12299">
        <ele>88.8</ele>
        <time>2022-09-14T12:24:17Z</time>
      </trkpt>
      <trkpt lat="49.94025" lon="2.12297">
        <ele>88.9</ele>
        <time>2022-09-14T12:24:18Z</time>
      </trkpt>
      <trkpt lat="49.94025" lon="2.12295">
        <ele>88.9</ele>
        <time>2022-09-14T12:24:20Z</time>
      </trkpt>
      <trkpt lat="49.94026" lon="2.12293">
        <ele>88.6</ele>
        <time>2022-09-14T12:24:21Z</time>
      </trkpt>
      <trkpt lat="49.94026" lon="2.1229">
        <ele>88.6</ele>
        <time>2022-09-14T12:24:22Z</time>
      </trkpt>
      <trkpt lat="49.94027" lon="2.12287">
        <ele>88.7</ele>
        <time>2022-09-14T12:24:23Z</time>
      </trkpt>
      <trkpt lat="49.94027" lon="2.12286">
        <ele>88.7</ele>
        <time>2022-09-14T12:24:24Z</time>
      </trkpt>
      <trkpt lat="49.94027" lon="2.12285">
        <ele>88.9</ele>
        <time>2022-09-14T12:24:25Z</time>
      </trkpt>
      <trkpt lat="49.94028" lon="2.12283">
        <ele>88.9</ele>
        <time>2022-09-14T12:24:26Z</time>
      </trkpt>
      <trkpt lat="49.94028" lon="2.1228">
        <ele>88.6</ele>
        <time>2022-09-14T12:24:27Z</time>
      </trkpt>
      <trkpt lat="49.94029" lon="2.12279">
        <ele>88.6</ele>
        <time>2022-09-14T12:24:29Z</time>
      </trkpt>
      <trkpt lat="49.94029" lon="2.12277">
        <ele>88.6</ele>
        <time>2022-09-14T12:24:30Z</time>
      </trkpt>
      <trkpt lat="49.9403" lon="2.12275">
        <ele>88.7</ele>
        <time>2022-09-14T12:24:31Z</time>
      </trkpt>
      <trkpt lat="49.9403" lon="2.12272">
        <ele>88.8</ele>
        <time>2022-09-14T12:24:32Z</time>
      </trkpt>
      <trkpt lat="49.94031" lon="2.1227">
        <ele>88.8</ele>
        <time>2022-09-14T12:24:33Z</time>
      </trkpt>
      <trkpt lat="49.94032" lon="2.12267">
        <ele>88.6</ele>
        <time>2022-09-14T12:24:35Z</time>
      </trkpt>
      <trkpt lat="49.94032" lon="2.12265">
        <ele>88.6</ele>
        <time>2022-09-14T12:24:36Z</time>
      </trkpt>
      <trkpt lat="49.94032" lon="2.12264">
        <ele>88.6</ele>
        <time>2022-09-14T12:24:37Z</time>
      </trkpt>
      <trkpt lat="49.94032" lon="2.12261">
        <ele>88.7</ele>
        <time>2022-09-14T12:24:38Z</time>
      </trkpt>
      <trkpt lat="49.94032" lon="2.12259">
        <ele>88.7</ele>
        <time>2022-09-14T12:24:39Z</time>
      </trkpt>
      <trkpt lat="49.94033" lon="2.12258">
        <ele>88.8</ele>
        <time>2022-09-14T12:24:40Z</time>
      </trkpt>
      <trkpt lat="49.94033" lon="2.12256">
        <ele>88.8</ele>
        <time>2022-09-14T12:24:41Z</time>
      </trkpt>
      <trkpt lat="49.94033" lon="2.12254">
        <ele>88.9</ele>
        <time>2022-09-14T12:24:42Z</time>
      </trkpt>
      <trkpt lat="49.94033" lon="2.12252">
        <ele>88.9</ele>
        <time>2022-09-14T12:24:43Z</time>
      </trkpt>
      <trkpt lat="49.94034" lon="2.1225">
        <ele>89.1</ele>
        <time>2022-09-14T12:24:44Z</time>
      </trkpt>
      <trkpt lat="49.94034" lon="2.12247">
        <ele>88.7</ele>
        <time>2022-09-14T12:24:45Z</time>
      </trkpt>
      <trkpt lat="49.94035" lon="2.12245">
        <ele>88.9</ele>
        <time>2022-09-14T12:24:47Z</time>
      </trkpt>
      <trkpt lat="49.94035" lon="2.12243">
        <ele>88.9</ele>
        <time>2022-09-14T12:24:48Z</time>
      </trkpt>
      <trkpt lat="49.94035" lon="2.12242">
        <ele>89</ele>
        <time>2022-09-14T12:24:49Z</time>
      </trkpt>
      <trkpt lat="49.94036" lon="2.1224">
        <ele>89</ele>
        <time>2022-09-14T12:24:50Z</time>
      </trkpt>
      <trkpt lat="49.94036" lon="2.12239">
        <ele>89</ele>
        <time>2022-09-14T12:24:51Z</time>
      </trkpt>
      <trkpt lat="49.94037" lon="2.12237">
        <ele>88.8</ele>
        <time>2022-09-14T12:24:52Z</time>
      </trkpt>
      <trkpt lat="49.94038" lon="2.12235">
        <ele>88.8</ele>
        <time>2022-09-14T12:24:54Z</time>
      </trkpt>
      <trkpt lat="49.94039" lon="2.12233">
        <ele>88.9</ele>
        <time>2022-09-14T12:24:55Z</time>
      </trkpt>
      <trkpt lat="49.94039" lon="2.12232">
        <ele>88.9</ele>
        <time>2022-09-14T12:24:56Z</time>
      </trkpt>
      <trkpt lat="49.9404" lon="2.1223">
        <ele>88.6</ele>
        <time>2022-09-14T12:24:57Z</time>
      </trkpt>
      <trkpt lat="49.94041" lon="2.12228">
        <ele>88.7</ele>
        <time>2022-09-14T12:24:58Z</time>
      </trkpt>
      <trkpt lat="49.94041" lon="2.12227">
        <ele>88.7</ele>
        <time>2022-09-14T12:24:59Z</time>
      </trkpt>
      <trkpt lat="49.94042" lon="2.12225">
        <ele>88.7</ele>
        <time>2022-09-14T12:25:00Z</time>
      </trkpt>
      <trkpt lat="49.94042" lon="2.12224">
        <ele>88.8</ele>
        <time>2022-09-14T12:25:01Z</time>
      </trkpt>
      <trkpt lat="49.94042" lon="2.12221">
        <ele>88.5</ele>
        <time>2022-09-14T12:25:02Z</time>
      </trkpt>
      <trkpt lat="49.94043" lon="2.1222">
        <ele>88.7</ele>
        <time>2022-09-14T12:25:03Z</time>
      </trkpt>
      <trkpt lat="49.94043" lon="2.12218">
        <ele>88.7</ele>
        <time>2022-09-14T12:25:05Z</time>
      </trkpt>
      <trkpt lat="49.94043" lon="2.12216">
        <ele>88.8</ele>
        <time>2022-09-14T12:25:06Z</time>
      </trkpt>
      <trkpt lat="49.94044" lon="2.12211">
        <ele>88.9</ele>
        <time>2022-09-14T12:25:07Z</time>
      </trkpt>
      <trkpt lat="49.94045" lon="2.1221">
        <ele>88.9</ele>
        <time>2022-09-14T12:25:09Z</time>
      </trkpt>
      <trkpt lat="49.94045" lon="2.12208">
        <ele>88.9</ele>
        <time>2022-09-14T12:25:10Z</time>
      </trkpt>
      <trkpt lat="49.94045" lon="2.12206">
        <ele>88.7</ele>
        <time>2022-09-14T12:25:11Z</time>
      </trkpt>
      <trkpt lat="49.94046" lon="2.12205">
        <ele>88.7</ele>
        <time>2022-09-14T12:25:12Z</time>
      </trkpt>
      <trkpt lat="49.94046" lon="2.12202">
        <ele>88.9</ele>
        <time>2022-09-14T12:25:14Z</time>
      </trkpt>
      <trkpt lat="49.94046" lon="2.12201">
        <ele>88.9</ele>
        <time>2022-09-14T12:25:15Z</time>
      </trkpt>
      <trkpt lat="49.94046" lon="2.12199">
        <ele>88.9</ele>
        <time>2022-09-14T12:25:16Z</time>
      </trkpt>
      <trkpt lat="49.94046" lon="2.12198">
        <ele>89</ele>
        <time>2022-09-14T12:25:17Z</time>
      </trkpt>
      <trkpt lat="49.94046" lon="2.12194">
        <ele>89.1</ele>
        <time>2022-09-14T12:25:19Z</time>
      </trkpt>
      <trkpt lat="49.94046" lon="2.12192">
        <ele>89.1</ele>
        <time>2022-09-14T12:25:20Z</time>
      </trkpt>
      <trkpt lat="49.94047" lon="2.12191">
        <ele>89.2</ele>
        <time>2022-09-14T12:25:21Z</time>
      </trkpt>
      <trkpt lat="49.94047" lon="2.12189">
        <ele>89.2</ele>
        <time>2022-09-14T12:25:22Z</time>
      </trkpt>
      <trkpt lat="49.94047" lon="2.12186">
        <ele>89.3</ele>
        <time>2022-09-14T12:25:23Z</time>
      </trkpt>
      <trkpt lat="49.94047" lon="2.12184">
        <ele>89.3</ele>
        <time>2022-09-14T12:25:24Z</time>
      </trkpt>
      <trkpt lat="49.94048" lon="2.12181">
        <ele>89.1</ele>
        <time>2022-09-14T12:25:25Z</time>
      </trkpt>
      <trkpt lat="49.94048" lon="2.1218">
        <ele>89.1</ele>
        <time>2022-09-14T12:25:27Z</time>
      </trkpt>
      <trkpt lat="49.94048" lon="2.12178">
        <ele>89.1</ele>
        <time>2022-09-14T12:25:28Z</time>
      </trkpt>
      <trkpt lat="49.94049" lon="2.12175">
        <ele>89.2</ele>
        <time>2022-09-14T12:25:29Z</time>
      </trkpt>
      <trkpt lat="49.94049" lon="2.12174">
        <ele>89.2</ele>
        <time>2022-09-14T12:25:30Z</time>
      </trkpt>
      <trkpt lat="49.94049" lon="2.12172">
        <ele>89.3</ele>
        <time>2022-09-14T12:25:31Z</time>
      </trkpt>
      <trkpt lat="49.94049" lon="2.1217">
        <ele>89.3</ele>
        <time>2022-09-14T12:25:32Z</time>
      </trkpt>
      <trkpt lat="49.94049" lon="2.12168">
        <ele>89.4</ele>
        <time>2022-09-14T12:25:33Z</time>
      </trkpt>
      <trkpt lat="49.9405" lon="2.12166">
        <ele>89.4</ele>
        <time>2022-09-14T12:25:34Z</time>
      </trkpt>
      <trkpt lat="49.9405" lon="2.12165">
        <ele>89.5</ele>
        <time>2022-09-14T12:25:36Z</time>
      </trkpt>
      <trkpt lat="49.9405" lon="2.12163">
        <ele>89.5</ele>
        <time>2022-09-14T12:25:37Z</time>
      </trkpt>
      <trkpt lat="49.9405" lon="2.12161">
        <ele>89.5</ele>
        <time>2022-09-14T12:25:38Z</time>
      </trkpt>
      <trkpt lat="49.9405" lon="2.1216">
        <ele>89.6</ele>
        <time>2022-09-14T12:25:39Z</time>
      </trkpt>
      <trkpt lat="49.94051" lon="2.12158">
        <ele>89.4</ele>
        <time>2022-09-14T12:25:40Z</time>
      </trkpt>
      <trkpt lat="49.94051" lon="2.12156">
        <ele>89.5</ele>
        <time>2022-09-14T12:25:41Z</time>
      </trkpt>
      <trkpt lat="49.94051" lon="2.12154">
        <ele>89.5</ele>
        <time>2022-09-14T12:25:42Z</time>
      </trkpt>
      <trkpt lat="49.94051" lon="2.12153">
        <ele>89.5</ele>
        <time>2022-09-14T12:25:43Z</time>
      </trkpt>
      <trkpt lat="49.94052" lon="2.1215">
        <ele>89.6</ele>
        <time>2022-09-14T12:25:44Z</time>
      </trkpt>
      <trkpt lat="49.94052" lon="2.12149">
        <ele>89.6</ele>
        <time>2022-09-14T12:25:46Z</time>
      </trkpt>
      <trkpt lat="49.94051" lon="2.12147">
        <ele>89.7</ele>
        <time>2022-09-14T12:25:47Z</time>
      </trkpt>
      <trkpt lat="49.94052" lon="2.12144">
        <ele>89.7</ele>
        <time>2022-09-14T12:25:49Z</time>
      </trkpt>
      <trkpt lat="49.94052" lon="2.12142">
        <ele>89.7</ele>
        <time>2022-09-14T12:25:50Z</time>
      </trkpt>
      <trkpt lat="49.94052" lon="2.1214">
        <ele>89.7</ele>
        <time>2022-09-14T12:25:51Z</time>
      </trkpt>
      <trkpt lat="49.94052" lon="2.12138">
        <ele>89.8</ele>
        <time>2022-09-14T12:25:52Z</time>
      </trkpt>
      <trkpt lat="49.94051" lon="2.12135">
        <ele>89.9</ele>
        <time>2022-09-14T12:25:53Z</time>
      </trkpt>
      <trkpt lat="49.94051" lon="2.12133">
        <ele>89.9</ele>
        <time>2022-09-14T12:25:55Z</time>
      </trkpt>
      <trkpt lat="49.94051" lon="2.12131">
        <ele>89.9</ele>
        <time>2022-09-14T12:25:56Z</time>
      </trkpt>
      <trkpt lat="49.94051" lon="2.1213">
        <ele>90</ele>
        <time>2022-09-14T12:25:57Z</time>
      </trkpt>
      <trkpt lat="49.94051" lon="2.12128">
        <ele>90</ele>
        <time>2022-09-14T12:25:58Z</time>
      </trkpt>
      <trkpt lat="49.94051" lon="2.12126">
        <ele>90.1</ele>
        <time>2022-09-14T12:25:59Z</time>
      </trkpt>
      <trkpt lat="49.94052" lon="2.12123">
        <ele>90.1</ele>
        <time>2022-09-14T12:26:01Z</time>
      </trkpt>
      <trkpt lat="49.94052" lon="2.12121">
        <ele>90.2</ele>
        <time>2022-09-14T12:26:02Z</time>
      </trkpt>
      <trkpt lat="49.94052" lon="2.12117">
        <ele>90.3</ele>
        <time>2022-09-14T12:26:04Z</time>
      </trkpt>
      <trkpt lat="49.94053" lon="2.12114">
        <ele>90.2</ele>
        <time>2022-09-14T12:26:05Z</time>
      </trkpt>
      <trkpt lat="49.94053" lon="2.12113">
        <ele>90.1</ele>
        <time>2022-09-14T12:26:06Z</time>
      </trkpt>
      <trkpt lat="49.94054" lon="2.12112">
        <ele>90.1</ele>
        <time>2022-09-14T12:26:07Z</time>
      </trkpt>
      <trkpt lat="49.94055" lon="2.12108">
        <ele>90.1</ele>
        <time>2022-09-14T12:26:08Z</time>
      </trkpt>
      <trkpt lat="49.94055" lon="2.12107">
        <ele>90.1</ele>
        <time>2022-09-14T12:26:09Z</time>
      </trkpt>
      <trkpt lat="49.94055" lon="2.12106">
        <ele>90.1</ele>
        <time>2022-09-14T12:26:10Z</time>
      </trkpt>
      <trkpt lat="49.94055" lon="2.12104">
        <ele>90.2</ele>
        <time>2022-09-14T12:26:11Z</time>
      </trkpt>
      <trkpt lat="49.94056" lon="2.12102">
        <ele>89.9</ele>
        <time>2022-09-14T12:26:12Z</time>
      </trkpt>
      <trkpt lat="49.94057" lon="2.121">
        <ele>90</ele>
        <time>2022-09-14T12:26:13Z</time>
      </trkpt>
      <trkpt lat="49.94057" lon="2.12098">
        <ele>89.9</ele>
        <time>2022-09-14T12:26:14Z</time>
      </trkpt>
      <trkpt lat="49.94058" lon="2.12095">
        <ele>90.1</ele>
        <time>2022-09-14T12:26:15Z</time>
      </trkpt>
      <trkpt lat="49.94059" lon="2.12093">
        <ele>89.8</ele>
        <time>2022-09-14T12:26:17Z</time>
      </trkpt>
      <trkpt lat="49.94059" lon="2.12092">
        <ele>89.7</ele>
        <time>2022-09-14T12:26:18Z</time>
      </trkpt>
      <trkpt lat="49.94059" lon="2.1209">
        <ele>89.9</ele>
        <time>2022-09-14T12:26:19Z</time>
      </trkpt>
      <trkpt lat="49.9406" lon="2.12089">
        <ele>89.9</ele>
        <time>2022-09-14T12:26:21Z</time>
      </trkpt>
      <trkpt lat="49.9406" lon="2.12087">
        <ele>89.9</ele>
        <time>2022-09-14T12:26:22Z</time>
      </trkpt>
      <trkpt lat="49.94061" lon="2.12084">
        <ele>89.9</ele>
        <time>2022-09-14T12:26:23Z</time>
      </trkpt>
      <trkpt lat="49.94061" lon="2.12083">
        <ele>90.1</ele>
        <time>2022-09-14T12:26:24Z</time>
      </trkpt>
      <trkpt lat="49.94061" lon="2.12082">
        <ele>90</ele>
        <time>2022-09-14T12:26:25Z</time>
      </trkpt>
      <trkpt lat="49.94061" lon="2.12082">
        <ele>90</ele>
        <time>2022-09-14T12:26:26Z</time>
      </trkpt>
      <trkpt lat="49.94061" lon="2.1208">
        <ele>90</ele>
        <time>2022-09-14T12:26:27Z</time>
      </trkpt>
      <trkpt lat="49.94062" lon="2.12078">
        <ele>89.8</ele>
        <time>2022-09-14T12:26:28Z</time>
      </trkpt>
      <trkpt lat="49.94062" lon="2.12077">
        <ele>89.8</ele>
        <time>2022-09-14T12:26:29Z</time>
      </trkpt>
      <trkpt lat="49.94062" lon="2.12075">
        <ele>89.8</ele>
        <time>2022-09-14T12:26:30Z</time>
      </trkpt>
      <trkpt lat="49.94062" lon="2.12074">
        <ele>89.9</ele>
        <time>2022-09-14T12:26:31Z</time>
      </trkpt>
      <trkpt lat="49.94063" lon="2.12071">
        <ele>89.9</ele>
        <time>2022-09-14T12:26:33Z</time>
      </trkpt>
      <trkpt lat="49.94063" lon="2.1207">
        <ele>90.1</ele>
        <time>2022-09-14T12:26:34Z</time>
      </trkpt>
      <trkpt lat="49.94064" lon="2.12069">
        <ele>90</ele>
        <time>2022-09-14T12:26:35Z</time>
      </trkpt>
      <trkpt lat="49.94064" lon="2.12067">
        <ele>90</ele>
        <time>2022-09-14T12:26:36Z</time>
      </trkpt>
      <trkpt lat="49.94065" lon="2.12065">
        <ele>89.9</ele>
        <time>2022-09-14T12:26:37Z</time>
      </trkpt>
      <trkpt lat="49.94065" lon="2.12063">
        <ele>89.8</ele>
        <time>2022-09-14T12:26:38Z</time>
      </trkpt>
      <trkpt lat="49.94065" lon="2.12061">
        <ele>90</ele>
        <time>2022-09-14T12:26:39Z</time>
      </trkpt>
      <trkpt lat="49.94065" lon="2.12059">
        <ele>90</ele>
        <time>2022-09-14T12:26:40Z</time>
      </trkpt>
      <trkpt lat="49.94065" lon="2.12057">
        <ele>90.1</ele>
        <time>2022-09-14T12:26:42Z</time>
      </trkpt>
      <trkpt lat="49.94066" lon="2.12054">
        <ele>90.1</ele>
        <time>2022-09-14T12:26:43Z</time>
      </trkpt>
      <trkpt lat="49.94066" lon="2.12052">
        <ele>90.3</ele>
        <time>2022-09-14T12:26:44Z</time>
      </trkpt>
      <trkpt lat="49.94066" lon="2.12049">
        <ele>90.4</ele>
        <time>2022-09-14T12:26:45Z</time>
      </trkpt>
      <trkpt lat="49.94066" lon="2.12047">
        <ele>90.4</ele>
        <time>2022-09-14T12:26:46Z</time>
      </trkpt>
      <trkpt lat="49.94066" lon="2.12046">
        <ele>90.3</ele>
        <time>2022-09-14T12:26:47Z</time>
      </trkpt>
      <trkpt lat="49.94066" lon="2.12043">
        <ele>90.4</ele>
        <time>2022-09-14T12:26:48Z</time>
      </trkpt>
      <trkpt lat="49.94067" lon="2.12041">
        <ele>90.4</ele>
        <time>2022-09-14T12:26:50Z</time>
      </trkpt>
      <trkpt lat="49.94067" lon="2.12038">
        <ele>90.6</ele>
        <time>2022-09-14T12:26:51Z</time>
      </trkpt>
      <trkpt lat="49.94067" lon="2.12035">
        <ele>90.5</ele>
        <time>2022-09-14T12:26:52Z</time>
      </trkpt>
      <trkpt lat="49.94068" lon="2.12033">
        <ele>90.5</ele>
        <time>2022-09-14T12:26:53Z</time>
      </trkpt>
      <trkpt lat="49.94068" lon="2.12031">
        <ele>90.6</ele>
        <time>2022-09-14T12:26:54Z</time>
      </trkpt>
      <trkpt lat="49.94068" lon="2.12029">
        <ele>90.6</ele>
        <time>2022-09-14T12:26:56Z</time>
      </trkpt>
      <trkpt lat="49.94069" lon="2.12026">
        <ele>90.7</ele>
        <time>2022-09-14T12:26:57Z</time>
      </trkpt>
      <trkpt lat="49.9407" lon="2.12024">
        <ele>90.7</ele>
        <time>2022-09-14T12:26:58Z</time>
      </trkpt>
      <trkpt lat="49.9407" lon="2.12022">
        <ele>90.4</ele>
        <time>2022-09-14T12:26:59Z</time>
      </trkpt>
      <trkpt lat="49.94071" lon="2.1202">
        <ele>90.4</ele>
        <time>2022-09-14T12:27:00Z</time>
      </trkpt>
      <trkpt lat="49.94071" lon="2.12018">
        <ele>90.5</ele>
        <time>2022-09-14T12:27:01Z</time>
      </trkpt>
      <trkpt lat="49.94072" lon="2.12015">
        <ele>90.5</ele>
        <time>2022-09-14T12:27:03Z</time>
      </trkpt>
      <trkpt lat="49.94072" lon="2.12013">
        <ele>90.6</ele>
        <time>2022-09-14T12:27:04Z</time>
      </trkpt>
      <trkpt lat="49.94073" lon="2.12011">
        <ele>90.3</ele>
        <time>2022-09-14T12:27:06Z</time>
      </trkpt>
      <trkpt lat="49.94073" lon="2.12009">
        <ele>90.4</ele>
        <time>2022-09-14T12:27:07Z</time>
      </trkpt>
      <trkpt lat="49.94074" lon="2.12006">
        <ele>90.3</ele>
        <time>2022-09-14T12:27:08Z</time>
      </trkpt>
      <trkpt lat="49.94074" lon="2.12004">
        <ele>90.3</ele>
        <time>2022-09-14T12:27:09Z</time>
      </trkpt>
      <trkpt lat="49.94074" lon="2.12001">
        <ele>90.4</ele>
        <time>2022-09-14T12:27:10Z</time>
      </trkpt>
      <trkpt lat="49.94075" lon="2.11999">
        <ele>90.3</ele>
        <time>2022-09-14T12:27:12Z</time>
      </trkpt>
      <trkpt lat="49.94075" lon="2.11998">
        <ele>90.3</ele>
        <time>2022-09-14T12:27:13Z</time>
      </trkpt>
      <trkpt lat="49.94075" lon="2.11996">
        <ele>90.4</ele>
        <time>2022-09-14T12:27:14Z</time>
      </trkpt>
      <trkpt lat="49.94075" lon="2.11995">
        <ele>90</ele>
        <time>2022-09-14T12:27:15Z</time>
      </trkpt>
      <trkpt lat="49.94076" lon="2.11992">
        <ele>90</ele>
        <time>2022-09-14T12:27:17Z</time>
      </trkpt>
      <trkpt lat="49.94076" lon="2.1199">
        <ele>90</ele>
        <time>2022-09-14T12:27:18Z</time>
      </trkpt>
      <trkpt lat="49.94076" lon="2.11988">
        <ele>90</ele>
        <time>2022-09-14T12:27:19Z</time>
      </trkpt>
      <trkpt lat="49.94076" lon="2.11987">
        <ele>90</ele>
        <time>2022-09-14T12:27:20Z</time>
      </trkpt>
      <trkpt lat="49.94076" lon="2.11985">
        <ele>90</ele>
        <time>2022-09-14T12:27:21Z</time>
      </trkpt>
      <trkpt lat="49.94077" lon="2.11983">
        <ele>89.9</ele>
        <time>2022-09-14T12:27:22Z</time>
      </trkpt>
      <trkpt lat="49.94077" lon="2.1198">
        <ele>89.9</ele>
        <time>2022-09-14T12:27:24Z</time>
      </trkpt>
      <trkpt lat="49.94078" lon="2.11977">
        <ele>89.7</ele>
        <time>2022-09-14T12:27:26Z</time>
      </trkpt>
      <trkpt lat="49.94078" lon="2.11975">
        <ele>89.6</ele>
        <time>2022-09-14T12:27:27Z</time>
      </trkpt>
      <trkpt lat="49.94079" lon="2.11973">
        <ele>89.6</ele>
        <time>2022-09-14T12:27:28Z</time>
      </trkpt>
      <trkpt lat="49.94079" lon="2.11971">
        <ele>89.6</ele>
        <time>2022-09-14T12:27:29Z</time>
      </trkpt>
      <trkpt lat="49.9408" lon="2.1197">
        <ele>89.5</ele>
        <time>2022-09-14T12:27:30Z</time>
      </trkpt>
      <trkpt lat="49.9408" lon="2.11968">
        <ele>89.5</ele>
        <time>2022-09-14T12:27:31Z</time>
      </trkpt>
      <trkpt lat="49.9408" lon="2.11966">
        <ele>89.5</ele>
        <time>2022-09-14T12:27:32Z</time>
      </trkpt>
      <trkpt lat="49.94081" lon="2.11965">
        <ele>89.4</ele>
        <time>2022-09-14T12:27:33Z</time>
      </trkpt>
      <trkpt lat="49.94081" lon="2.11961">
        <ele>89.1</ele>
        <time>2022-09-14T12:27:35Z</time>
      </trkpt>
      <trkpt lat="49.94082" lon="2.11959">
        <ele>89.1</ele>
        <time>2022-09-14T12:27:36Z</time>
      </trkpt>
      <trkpt lat="49.94082" lon="2.11958">
        <ele>89</ele>
        <time>2022-09-14T12:27:37Z</time>
      </trkpt>
      <trkpt lat="49.94082" lon="2.11956">
        <ele>89</ele>
        <time>2022-09-14T12:27:38Z</time>
      </trkpt>
      <trkpt lat="49.94083" lon="2.11955">
        <ele>89</ele>
        <time>2022-09-14T12:27:39Z</time>
      </trkpt>
      <trkpt lat="49.94083" lon="2.11953">
        <ele>88.9</ele>
        <time>2022-09-14T12:27:40Z</time>
      </trkpt>
      <trkpt lat="49.94083" lon="2.11952">
        <ele>88.9</ele>
        <time>2022-09-14T12:27:42Z</time>
      </trkpt>
      <trkpt lat="49.94083" lon="2.11951">
        <ele>88.9</ele>
        <time>2022-09-14T12:27:43Z</time>
      </trkpt>
      <trkpt lat="49.94084" lon="2.11949">
        <ele>88.7</ele>
        <time>2022-09-14T12:27:44Z</time>
      </trkpt>
      <trkpt lat="49.94084" lon="2.11946">
        <ele>88.4</ele>
        <time>2022-09-14T12:27:45Z</time>
      </trkpt>
      <trkpt lat="49.94085" lon="2.11943">
        <ele>88.4</ele>
        <time>2022-09-14T12:27:46Z</time>
      </trkpt>
      <trkpt lat="49.94085" lon="2.11942">
        <ele>88.2</ele>
        <time>2022-09-14T12:27:47Z</time>
      </trkpt>
      <trkpt lat="49.94085" lon="2.1194">
        <ele>88.2</ele>
        <time>2022-09-14T12:27:48Z</time>
      </trkpt>
      <trkpt lat="49.94085" lon="2.11938">
        <ele>88.2</ele>
        <time>2022-09-14T12:27:49Z</time>
      </trkpt>
      <trkpt lat="49.94086" lon="2.11936">
        <ele>88</ele>
        <time>2022-09-14T12:27:50Z</time>
      </trkpt>
      <trkpt lat="49.94086" lon="2.11933">
        <ele>87.9</ele>
        <time>2022-09-14T12:27:51Z</time>
      </trkpt>
      <trkpt lat="49.94086" lon="2.11931">
        <ele>87.9</ele>
        <time>2022-09-14T12:27:52Z</time>
      </trkpt>
      <trkpt lat="49.94086" lon="2.1193">
        <ele>87.8</ele>
        <time>2022-09-14T12:27:53Z</time>
      </trkpt>
      <trkpt lat="49.94086" lon="2.11925">
        <ele>87.7</ele>
        <time>2022-09-14T12:27:54Z</time>
      </trkpt>
      <trkpt lat="49.94087" lon="2.11923">
        <ele>87.3</ele>
        <time>2022-09-14T12:27:56Z</time>
      </trkpt>
      <trkpt lat="49.94087" lon="2.11921">
        <ele>87.2</ele>
        <time>2022-09-14T12:27:57Z</time>
      </trkpt>
      <trkpt lat="49.94087" lon="2.1192">
        <ele>87</ele>
        <time>2022-09-14T12:27:58Z</time>
      </trkpt>
      <trkpt lat="49.94087" lon="2.11918">
        <ele>87</ele>
        <time>2022-09-14T12:27:59Z</time>
      </trkpt>
      <trkpt lat="49.94087" lon="2.11915">
        <ele>86.8</ele>
        <time>2022-09-14T12:28:00Z</time>
      </trkpt>
      <trkpt lat="49.94088" lon="2.11913">
        <ele>86.8</ele>
        <time>2022-09-14T12:28:01Z</time>
      </trkpt>
      <trkpt lat="49.94088" lon="2.11912">
        <ele>86.8</ele>
        <time>2022-09-14T12:28:02Z</time>
      </trkpt>
      <trkpt lat="49.94088" lon="2.1191">
        <ele>86.6</ele>
        <time>2022-09-14T12:28:03Z</time>
      </trkpt>
      <trkpt lat="49.94088" lon="2.11908">
        <ele>86.6</ele>
        <time>2022-09-14T12:28:04Z</time>
      </trkpt>
      <trkpt lat="49.94088" lon="2.11905">
        <ele>86.4</ele>
        <time>2022-09-14T12:28:05Z</time>
      </trkpt>
      <trkpt lat="49.94089" lon="2.11902">
        <ele>86.1</ele>
        <time>2022-09-14T12:28:06Z</time>
      </trkpt>
      <trkpt lat="49.94089" lon="2.119">
        <ele>85.9</ele>
        <time>2022-09-14T12:28:08Z</time>
      </trkpt>
      <trkpt lat="49.9409" lon="2.11898">
        <ele>85.6</ele>
        <time>2022-09-14T12:28:09Z</time>
      </trkpt>
      <trkpt lat="49.9409" lon="2.11896">
        <ele>85.6</ele>
        <time>2022-09-14T12:28:10Z</time>
      </trkpt>
      <trkpt lat="49.9409" lon="2.11895">
        <ele>85.6</ele>
        <time>2022-09-14T12:28:11Z</time>
      </trkpt>
      <trkpt lat="49.9409" lon="2.11893">
        <ele>85.4</ele>
        <time>2022-09-14T12:28:12Z</time>
      </trkpt>
      <trkpt lat="49.9409" lon="2.1189">
        <ele>85.1</ele>
        <time>2022-09-14T12:28:13Z</time>
      </trkpt>
      <trkpt lat="49.94091" lon="2.11887">
        <ele>85.1</ele>
        <time>2022-09-14T12:28:15Z</time>
      </trkpt>
      <trkpt lat="49.94091" lon="2.11885">
        <ele>84.9</ele>
        <time>2022-09-14T12:28:16Z</time>
      </trkpt>
      <trkpt lat="49.94091" lon="2.11882">
        <ele>84.9</ele>
        <time>2022-09-14T12:28:17Z</time>
      </trkpt>
      <trkpt lat="49.94091" lon="2.1188">
        <ele>84.6</ele>
        <time>2022-09-14T12:28:18Z</time>
      </trkpt>
      <trkpt lat="49.94091" lon="2.11879">
        <ele>84.6</ele>
        <time>2022-09-14T12:28:19Z</time>
      </trkpt>
      <trkpt lat="49.94092" lon="2.11874">
        <ele>84.1</ele>
        <time>2022-09-14T12:28:20Z</time>
      </trkpt>
      <trkpt lat="49.94092" lon="2.11873">
        <ele>83.8</ele>
        <time>2022-09-14T12:28:22Z</time>
      </trkpt>
      <trkpt lat="49.94093" lon="2.11871">
        <ele>83.8</ele>
        <time>2022-09-14T12:28:24Z</time>
      </trkpt>
      <trkpt lat="49.94093" lon="2.11869">
        <ele>83.8</ele>
        <time>2022-09-14T12:28:25Z</time>
      </trkpt>
      <trkpt lat="49.94093" lon="2.11868">
        <ele>83.6</ele>
        <time>2022-09-14T12:28:26Z</time>
      </trkpt>
      <trkpt lat="49.94094" lon="2.11866">
        <ele>83.6</ele>
        <time>2022-09-14T12:28:27Z</time>
      </trkpt>
      <trkpt lat="49.94094" lon="2.11864">
        <ele>83.3</ele>
        <time>2022-09-14T12:28:28Z</time>
      </trkpt>
      <trkpt lat="49.94095" lon="2.1186">
        <ele>82.8</ele>
        <time>2022-09-14T12:28:29Z</time>
      </trkpt>
      <trkpt lat="49.94096" lon="2.11858">
        <ele>82.8</ele>
        <time>2022-09-14T12:28:31Z</time>
      </trkpt>
      <trkpt lat="49.94096" lon="2.11857">
        <ele>82.8</ele>
        <time>2022-09-14T12:28:32Z</time>
      </trkpt>
      <trkpt lat="49.94096" lon="2.11855">
        <ele>82.6</ele>
        <time>2022-09-14T12:28:33Z</time>
      </trkpt>
      <trkpt lat="49.94097" lon="2.11854">
        <ele>82.6</ele>
        <time>2022-09-14T12:28:34Z</time>
      </trkpt>
      <trkpt lat="49.94098" lon="2.11851">
        <ele>82</ele>
        <time>2022-09-14T12:28:35Z</time>
      </trkpt>
      <trkpt lat="49.94098" lon="2.11849">
        <ele>82</ele>
        <time>2022-09-14T12:28:36Z</time>
      </trkpt>
      <trkpt lat="49.94099" lon="2.11845">
        <ele>81.8</ele>
        <time>2022-09-14T12:28:38Z</time>
      </trkpt>
      <trkpt lat="49.941" lon="2.11844">
        <ele>81.8</ele>
        <time>2022-09-14T12:28:39Z</time>
      </trkpt>
      <trkpt lat="49.941" lon="2.11842">
        <ele>81.6</ele>
        <time>2022-09-14T12:28:40Z</time>
      </trkpt>
      <trkpt lat="49.941" lon="2.11841">
        <ele>81.6</ele>
        <time>2022-09-14T12:28:41Z</time>
      </trkpt>
      <trkpt lat="49.941" lon="2.11839">
        <ele>81.6</ele>
        <time>2022-09-14T12:28:42Z</time>
      </trkpt>
      <trkpt lat="49.94098" lon="2.11838">
        <ele>81.4</ele>
        <time>2022-09-14T12:28:44Z</time>
      </trkpt>
      <trkpt lat="49.94098" lon="2.11838">
        <ele>81.4</ele>
        <time>2022-09-14T12:28:45Z</time>
      </trkpt>
      <trkpt lat="49.94098" lon="2.11838">
        <ele>81.4</ele>
        <time>2022-09-14T12:28:47Z</time>
      </trkpt>
      <trkpt lat="49.94098" lon="2.11838">
        <ele>81.4</ele>
        <time>2022-09-14T12:28:48Z</time>
      </trkpt>
      <trkpt lat="49.94098" lon="2.11838">
        <ele>81.4</ele>
        <time>2022-09-14T12:28:49Z</time>
      </trkpt>
      <trkpt lat="49.94098" lon="2.11838">
        <ele>81.4</ele>
        <time>2022-09-14T12:28:50Z</time>
      </trkpt>
      <trkpt lat="49.94098" lon="2.11838">
        <ele>81.4</ele>
        <time>2022-09-14T12:28:51Z</time>
      </trkpt>
      <trkpt lat="49.94098" lon="2.11838">
        <ele>81.4</ele>
        <time>2022-09-14T12:28:52Z</time>
      </trkpt>
      <trkpt lat="49.94098" lon="2.11838">
        <ele>81.4</ele>
        <time>2022-09-14T12:28:53Z</time>
      </trkpt>
      <trkpt lat="49.94098" lon="2.11838">
        <ele>81.4</ele>
        <time>2022-09-14T12:28:54Z</time>
      </trkpt>
      <trkpt lat="49.94098" lon="2.11838">
        <ele>81.4</ele>
        <time>2022-09-14T12:28:55Z</time>
      </trkpt>
      <trkpt lat="49.94098" lon="2.11838">
        <ele>81.4</ele>
        <time>2022-09-14T12:28:56Z</time>
      </trkpt>
      <trkpt lat="49.94098" lon="2.11838">
        <ele>81.4</ele>
        <time>2022-09-14T12:28:57Z</time>
      </trkpt>
      <trkpt lat="49.94098" lon="2.11838">
        <ele>81.4</ele>
        <time>2022-09-14T12:28:58Z</time>
      </trkpt>
      <trkpt lat="49.94098" lon="2.11838">
        <ele>81.4</ele>
        <time>2022-09-14T12:28:59Z</time>
      </trkpt>
      <trkpt lat="49.94098" lon="2.11838">
        <ele>81.4</ele>
        <time>2022-09-14T12:29:00Z</time>
      </trkpt>
      <trkpt lat="49.94098" lon="2.11838">
        <ele>81.4</ele>
        <time>2022-09-14T12:29:01Z</time>
      </trkpt>
      <trkpt lat="49.94098" lon="2.11838">
        <ele>81.4</ele>
        <time>2022-09-14T12:29:02Z</time>
      </trkpt>
      <trkpt lat="49.94098" lon="2.11838">
        <ele>81.4</ele>
        <time>2022-09-14T12:29:03Z</time>
      </trkpt>
      <trkpt lat="49.94098" lon="2.11838">
        <ele>81.4</ele>
        <time>2022-09-14T12:29:04Z</time>
      </trkpt>
      <trkpt lat="49.94098" lon="2.11838">
        <ele>81.4</ele>
        <time>2022-09-14T12:29:05Z</time>
      </trkpt>
      <trkpt lat="49.94098" lon="2.11838">
        <ele>81.4</ele>
        <time>2022-09-14T12:29:06Z</time>
      </trkpt>
      <trkpt lat="49.94098" lon="2.11838">
        <ele>81.4</ele>
        <time>2022-09-14T12:29:07Z</time>
      </trkpt>
      <trkpt lat="49.94098" lon="2.11838">
        <ele>81.4</ele>
        <time>2022-09-14T12:29:08Z</time>
      </trkpt>
      <trkpt lat="49.94098" lon="2.11838">
        <ele>81.4</ele>
        <time>2022-09-14T12:29:09Z</time>
      </trkpt>
      <trkpt lat="49.94098" lon="2.11838">
        <ele>81.4</ele>
        <time>2022-09-14T12:29:10Z</time>
      </trkpt>
      <trkpt lat="49.94098" lon="2.11838">
        <ele>81.4</ele>
        <time>2022-09-14T12:29:11Z</time>
      </trkpt>
      <trkpt lat="49.94098" lon="2.11838">
        <ele>81.4</ele>
        <time>2022-09-14T12:29:12Z</time>
      </trkpt>
      <trkpt lat="49.94098" lon="2.11838">
        <ele>81.4</ele>
        <time>2022-09-14T12:29:13Z</time>
      </trkpt>
      <trkpt lat="49.94098" lon="2.11839">
        <ele>81.4</ele>
        <time>2022-09-14T12:29:14Z</time>
      </trkpt>
      <trkpt lat="49.94098" lon="2.11839">
        <ele>81.4</ele>
        <time>2022-09-14T12:29:15Z</time>
      </trkpt>
      <trkpt lat="49.94098" lon="2.11839">
        <ele>81.4</ele>
        <time>2022-09-14T12:29:16Z</time>
      </trkpt>
      <trkpt lat="49.94098" lon="2.11839">
        <ele>81.4</ele>
        <time>2022-09-14T12:29:17Z</time>
      </trkpt>
      <trkpt lat="49.94098" lon="2.11839">
        <ele>81.4</ele>
        <time>2022-09-14T12:29:18Z</time>
      </trkpt>
      <trkpt lat="49.94098" lon="2.11839">
        <ele>81.4</ele>
        <time>2022-09-14T12:29:19Z</time>
      </trkpt>
      <trkpt lat="49.94098" lon="2.11839">
        <ele>81.4</ele>
        <time>2022-09-14T12:29:20Z</time>
      </trkpt>
      <trkpt lat="49.94098" lon="2.11839">
        <ele>81.4</ele>
        <time>2022-09-14T12:29:21Z</time>
      </trkpt>
      <trkpt lat="49.94098" lon="2.11839">
        <ele>81.4</ele>
        <time>2022-09-14T12:29:22Z</time>
      </trkpt>
      <trkpt lat="49.94098" lon="2.11839">
        <ele>81.4</ele>
        <time>2022-09-14T12:29:23Z</time>
      </trkpt>
      <trkpt lat="49.94098" lon="2.11839">
        <ele>81.4</ele>
        <time>2022-09-14T12:29:24Z</time>
      </trkpt>
      <trkpt lat="49.94098" lon="2.11839">
        <ele>81.4</ele>
        <time>2022-09-14T12:29:25Z</time>
      </trkpt>
      <trkpt lat="49.94098" lon="2.11839">
        <ele>81.4</ele>
        <time>2022-09-14T12:29:26Z</time>
      </trkpt>
      <trkpt lat="49.94098" lon="2.11839">
        <ele>81.4</ele>
        <time>2022-09-14T12:29:27Z</time>
      </trkpt>
      <trkpt lat="49.94098" lon="2.11839">
        <ele>81.4</ele>
        <time>2022-09-14T12:29:28Z</time>
      </trkpt>
      <trkpt lat="49.94098" lon="2.11839">
        <ele>81.4</ele>
        <time>2022-09-14T12:29:29Z</time>
      </trkpt>
      <trkpt lat="49.94098" lon="2.11839">
        <ele>81.4</ele>
        <time>2022-09-14T12:29:30Z</time>
      </trkpt>
      <trkpt lat="49.94098" lon="2.11839">
        <ele>81.4</ele>
        <time>2022-09-14T12:29:31Z</time>
      </trkpt>
      <trkpt lat="49.94098" lon="2.11839">
        <ele>81.4</ele>
        <time>2022-09-14T12:29:32Z</time>
      </trkpt>
      <trkpt lat="49.94098" lon="2.11839">
        <ele>81.4</ele>
        <time>2022-09-14T12:29:33Z</time>
      </trkpt>
      <trkpt lat="49.94098" lon="2.11839">
        <ele>81.6</ele>
        <time>2022-09-14T12:29:34Z</time>
      </trkpt>
      <trkpt lat="49.94098" lon="2.11839">
        <ele>81.6</ele>
        <time>2022-09-14T12:29:35Z</time>
      </trkpt>
      <trkpt lat="49.94098" lon="2.11839">
        <ele>81.6</ele>
        <time>2022-09-14T12:29:36Z</time>
      </trkpt>
      <trkpt lat="49.94098" lon="2.11839">
        <ele>81.6</ele>
        <time>2022-09-14T12:29:37Z</time>
      </trkpt>
      <trkpt lat="49.94098" lon="2.11839">
        <ele>81.6</ele>
        <time>2022-09-14T12:29:38Z</time>
      </trkpt>
      <trkpt lat="49.94098" lon="2.11839">
        <ele>81.6</ele>
        <time>2022-09-14T12:29:39Z</time>
      </trkpt>
      <trkpt lat="49.94098" lon="2.11839">
        <ele>81.6</ele>
        <time>2022-09-14T12:29:40Z</time>
      </trkpt>
      <trkpt lat="49.94098" lon="2.11839">
        <ele>81.6</ele>
        <time>2022-09-14T12:29:41Z</time>
      </trkpt>
      <trkpt lat="49.94098" lon="2.11839">
        <ele>81.6</ele>
        <time>2022-09-14T12:29:42Z</time>
      </trkpt>
      <trkpt lat="49.94098" lon="2.11839">
        <ele>81.6</ele>
        <time>2022-09-14T12:29:43Z</time>
      </trkpt>
      <trkpt lat="49.94098" lon="2.11839">
        <ele>81.6</ele>
        <time>2022-09-14T12:29:44Z</time>
      </trkpt>
      <trkpt lat="49.94098" lon="2.11839">
        <ele>81.6</ele>
        <time>2022-09-14T12:29:45Z</time>
      </trkpt>
      <trkpt lat="49.94098" lon="2.11839">
        <ele>81.6</ele>
        <time>2022-09-14T12:29:46Z</time>
      </trkpt>
      <trkpt lat="49.94098" lon="2.11839">
        <ele>81.6</ele>
        <time>2022-09-14T12:29:47Z</time>
      </trkpt>
      <trkpt lat="49.94098" lon="2.11839">
        <ele>81.6</ele>
        <time>2022-09-14T12:29:48Z</time>
      </trkpt>
      <trkpt lat="49.94098" lon="2.11839">
        <ele>81.6</ele>
        <time>2022-09-14T12:29:49Z</time>
      </trkpt>
      <trkpt lat="49.94098" lon="2.11839">
        <ele>81.6</ele>
        <time>2022-09-14T12:29:50Z</time>
      </trkpt>
      <trkpt lat="49.94098" lon="2.11839">
        <ele>81.6</ele>
        <time>2022-09-14T12:29:51Z</time>
      </trkpt>
      <trkpt lat="49.94098" lon="2.11839">
        <ele>81.6</ele>
        <time>2022-09-14T12:29:52Z</time>
      </trkpt>
      <trkpt lat="49.94098" lon="2.11839">
        <ele>81.6</ele>
        <time>2022-09-14T12:29:53Z</time>
      </trkpt>
      <trkpt lat="49.94098" lon="2.11839">
        <ele>81.6</ele>
        <time>2022-09-14T12:29:54Z</time>
      </trkpt>
      <trkpt lat="49.94098" lon="2.11839">
        <ele>81.6</ele>
        <time>2022-09-14T12:29:55Z</time>
      </trkpt>
      <trkpt lat="49.94098" lon="2.11839">
        <ele>81.6</ele>
        <time>2022-09-14T12:29:56Z</time>
      </trkpt>
      <trkpt lat="49.94098" lon="2.11839">
        <ele>81.6</ele>
        <time>2022-09-14T12:29:57Z</time>
      </trkpt>
      <trkpt lat="49.94098" lon="2.11839">
        <ele>81.6</ele>
        <time>2022-09-14T12:29:58Z</time>
      </trkpt>
      <trkpt lat="49.94098" lon="2.11839">
        <ele>81.6</ele>
        <time>2022-09-14T12:29:59Z</time>
      </trkpt>
      <trkpt lat="49.94098" lon="2.11839">
        <ele>81.6</ele>
        <time>2022-09-14T12:30:00Z</time>
      </trkpt>
      <trkpt lat="49.94098" lon="2.11839">
        <ele>81.6</ele>
        <time>2022-09-14T12:30:01Z</time>
      </trkpt>
      <trkpt lat="49.94098" lon="2.11839">
        <ele>81.6</ele>
        <time>2022-09-14T12:30:02Z</time>
      </trkpt>
      <trkpt lat="49.94098" lon="2.11839">
        <ele>81.6</ele>
        <time>2022-09-14T12:30:03Z</time>
      </trkpt>
      <trkpt lat="49.94098" lon="2.11839">
        <ele>81.6</ele>
        <time>2022-09-14T12:30:04Z</time>
      </trkpt>
      <trkpt lat="49.94098" lon="2.11839">
        <ele>81.6</ele>
        <time>2022-09-14T12:30:05Z</time>
      </trkpt>
      <trkpt lat="49.94098" lon="2.11839">
        <ele>81.6</ele>
        <time>2022-09-14T12:30:06Z</time>
      </trkpt>
      <trkpt lat="49.94098" lon="2.11839">
        <ele>81.6</ele>
        <time>2022-09-14T12:30:07Z</time>
      </trkpt>
      <trkpt lat="49.94098" lon="2.11839">
        <ele>81.6</ele>
        <time>2022-09-14T12:30:08Z</time>
      </trkpt>
      <trkpt lat="49.94098" lon="2.11839">
        <ele>81.6</ele>
        <time>2022-09-14T12:30:09Z</time>
      </trkpt>
      <trkpt lat="49.94098" lon="2.11839">
        <ele>81.6</ele>
        <time>2022-09-14T12:30:10Z</time>
      </trkpt>
      <trkpt lat="49.94098" lon="2.11839">
        <ele>81.6</ele>
        <time>2022-09-14T12:30:11Z</time>
      </trkpt>
      <trkpt lat="49.94098" lon="2.11839">
        <ele>81.6</ele>
        <time>2022-09-14T12:30:12Z</time>
      </trkpt>
      <trkpt lat="49.94098" lon="2.11839">
        <ele>81.6</ele>
        <time>2022-09-14T12:30:13Z</time>
      </trkpt>
      <trkpt lat="49.94098" lon="2.11839">
        <ele>81.6</ele>
        <time>2022-09-14T12:30:14Z</time>
      </trkpt>
      <trkpt lat="49.94098" lon="2.11839">
        <ele>81.6</ele>
        <time>2022-09-14T12:30:15Z</time>
      </trkpt>
      <trkpt lat="49.94098" lon="2.11839">
        <ele>81.6</ele>
        <time>2022-09-14T12:30:16Z</time>
      </trkpt>
      <trkpt lat="49.94098" lon="2.11839">
        <ele>81.6</ele>
        <time>2022-09-14T12:30:17Z</time>
      </trkpt>
      <trkpt lat="49.94098" lon="2.1184">
        <ele>81.6</ele>
        <time>2022-09-14T12:30:18Z</time>
      </trkpt>
      <trkpt lat="49.94098" lon="2.1184">
        <ele>81.6</ele>
        <time>2022-09-14T12:30:19Z</time>
      </trkpt>
      <trkpt lat="49.94098" lon="2.1184">
        <ele>81.6</ele>
        <time>2022-09-14T12:30:20Z</time>
      </trkpt>
      <trkpt lat="49.94098" lon="2.1184">
        <ele>81.6</ele>
        <time>2022-09-14T12:30:21Z</time>
      </trkpt>
      <trkpt lat="49.94098" lon="2.1184">
        <ele>81.6</ele>
        <time>2022-09-14T12:30:22Z</time>
      </trkpt>
      <trkpt lat="49.94098" lon="2.1184">
        <ele>81.6</ele>
        <time>2022-09-14T12:30:23Z</time>
      </trkpt>
      <trkpt lat="49.94098" lon="2.1184">
        <ele>81.6</ele>
        <time>2022-09-14T12:30:24Z</time>
      </trkpt>
      <trkpt lat="49.94098" lon="2.1184">
        <ele>81.6</ele>
        <time>2022-09-14T12:30:25Z</time>
      </trkpt>
      <trkpt lat="49.94098" lon="2.1184">
        <ele>81.6</ele>
        <time>2022-09-14T12:30:26Z</time>
      </trkpt>
      <trkpt lat="49.94098" lon="2.1184">
        <ele>81.6</ele>
        <time>2022-09-14T12:30:27Z</time>
      </trkpt>
      <trkpt lat="49.94098" lon="2.1184">
        <ele>81.6</ele>
        <time>2022-09-14T12:30:28Z</time>
      </trkpt>
      <trkpt lat="49.94098" lon="2.1184">
        <ele>81.6</ele>
        <time>2022-09-14T12:30:29Z</time>
      </trkpt>
      <trkpt lat="49.94098" lon="2.1184">
        <ele>81.6</ele>
        <time>2022-09-14T12:30:30Z</time>
      </trkpt>
      <trkpt lat="49.94098" lon="2.1184">
        <ele>81.6</ele>
        <time>2022-09-14T12:30:31Z</time>
      </trkpt>
      <trkpt lat="49.94098" lon="2.1184">
        <ele>81.6</ele>
        <time>2022-09-14T12:30:32Z</time>
      </trkpt>
      <trkpt lat="49.94098" lon="2.1184">
        <ele>81.6</ele>
        <time>2022-09-14T12:30:33Z</time>
      </trkpt>
      <trkpt lat="49.94098" lon="2.1184">
        <ele>81.6</ele>
        <time>2022-09-14T12:30:34Z</time>
      </trkpt>
      <trkpt lat="49.94098" lon="2.1184">
        <ele>81.6</ele>
        <time>2022-09-14T12:30:35Z</time>
      </trkpt>
      <trkpt lat="49.94098" lon="2.1184">
        <ele>81.6</ele>
        <time>2022-09-14T12:30:36Z</time>
      </trkpt>
      <trkpt lat="49.94098" lon="2.1184">
        <ele>81.6</ele>
        <time>2022-09-14T12:30:37Z</time>
      </trkpt>
      <trkpt lat="49.94098" lon="2.1184">
        <ele>81.6</ele>
        <time>2022-09-14T12:30:38Z</time>
      </trkpt>
      <trkpt lat="49.94098" lon="2.1184">
        <ele>81.6</ele>
        <time>2022-09-14T12:30:39Z</time>
      </trkpt>
      <trkpt lat="49.94098" lon="2.1184">
        <ele>81.6</ele>
        <time>2022-09-14T12:30:40Z</time>
      </trkpt>
      <trkpt lat="49.94098" lon="2.1184">
        <ele>81.6</ele>
        <time>2022-09-14T12:30:41Z</time>
      </trkpt>
      <trkpt lat="49.94098" lon="2.1184">
        <ele>81.6</ele>
        <time>2022-09-14T12:30:42Z</time>
      </trkpt>
      <trkpt lat="49.94098" lon="2.1184">
        <ele>81.6</ele>
        <time>2022-09-14T12:30:43Z</time>
      </trkpt>
      <trkpt lat="49.94098" lon="2.1184">
        <ele>81.6</ele>
        <time>2022-09-14T12:30:44Z</time>
      </trkpt>
      <trkpt lat="49.94098" lon="2.1184">
        <ele>81.6</ele>
        <time>2022-09-14T12:30:45Z</time>
      </trkpt>
      <trkpt lat="49.94098" lon="2.1184">
        <ele>81.6</ele>
        <time>2022-09-14T12:30:46Z</time>
      </trkpt>
      <trkpt lat="49.94098" lon="2.1184">
        <ele>81.6</ele>
        <time>2022-09-14T12:30:47Z</time>
      </trkpt>
      <trkpt lat="49.94098" lon="2.1184">
        <ele>81.6</ele>
        <time>2022-09-14T12:30:48Z</time>
      </trkpt>
      <trkpt lat="49.94098" lon="2.1184">
        <ele>81.6</ele>
        <time>2022-09-14T12:30:49Z</time>
      </trkpt>
      <trkpt lat="49.94098" lon="2.1184">
        <ele>81.6</ele>
        <time>2022-09-14T12:30:50Z</time>
      </trkpt>
      <trkpt lat="49.94098" lon="2.1184">
        <ele>81.6</ele>
        <time>2022-09-14T12:30:51Z</time>
      </trkpt>
      <trkpt lat="49.94098" lon="2.1184">
        <ele>81.6</ele>
        <time>2022-09-14T12:30:52Z</time>
      </trkpt>
      <trkpt lat="49.94098" lon="2.1184">
        <ele>81.6</ele>
        <time>2022-09-14T12:30:53Z</time>
      </trkpt>
      <trkpt lat="49.94098" lon="2.1184">
        <ele>81.6</ele>
        <time>2022-09-14T12:30:54Z</time>
      </trkpt>
      <trkpt lat="49.94098" lon="2.1184">
        <ele>81.6</ele>
        <time>2022-09-14T12:30:55Z</time>
      </trkpt>
      <trkpt lat="49.94098" lon="2.1184">
        <ele>81.6</ele>
        <time>2022-09-14T12:30:56Z</time>
      </trkpt>
      <trkpt lat="49.94098" lon="2.1184">
        <ele>81.6</ele>
        <time>2022-09-14T12:30:57Z</time>
      </trkpt>
      <trkpt lat="49.94098" lon="2.1184">
        <ele>81.6</ele>
        <time>2022-09-14T12:30:58Z</time>
      </trkpt>
      <trkpt lat="49.94098" lon="2.1184">
        <ele>81.6</ele>
        <time>2022-09-14T12:30:59Z</time>
      </trkpt>
      <trkpt lat="49.94098" lon="2.1184">
        <ele>81.6</ele>
        <time>2022-09-14T12:31:00Z</time>
      </trkpt>
      <trkpt lat="49.94098" lon="2.1184">
        <ele>81.6</ele>
        <time>2022-09-14T12:31:01Z</time>
      </trkpt>
      <trkpt lat="49.94098" lon="2.1184">
        <ele>81.6</ele>
        <time>2022-09-14T12:31:02Z</time>
      </trkpt>
      <trkpt lat="49.94098" lon="2.1184">
        <ele>81.6</ele>
        <time>2022-09-14T12:31:03Z</time>
      </trkpt>
      <trkpt lat="49.94098" lon="2.1184">
        <ele>81.6</ele>
        <time>2022-09-14T12:31:04Z</time>
      </trkpt>
      <trkpt lat="49.94098" lon="2.1184">
        <ele>81.6</ele>
        <time>2022-09-14T12:31:05Z</time>
      </trkpt>
      <trkpt lat="49.94098" lon="2.1184">
        <ele>81.6</ele>
        <time>2022-09-14T12:31:06Z</time>
      </trkpt>
      <trkpt lat="49.94098" lon="2.1184">
        <ele>81.6</ele>
        <time>2022-09-14T12:31:07Z</time>
      </trkpt>
      <trkpt lat="49.94098" lon="2.1184">
        <ele>81.6</ele>
        <time>2022-09-14T12:31:08Z</time>
      </trkpt>
      <trkpt lat="49.94098" lon="2.1184">
        <ele>81.6</ele>
        <time>2022-09-14T12:31:09Z</time>
      </trkpt>
      <trkpt lat="49.94098" lon="2.1184">
        <ele>81.6</ele>
        <time>2022-09-14T12:31:10Z</time>
      </trkpt>
      <trkpt lat="49.94098" lon="2.1184">
        <ele>81.6</ele>
        <time>2022-09-14T12:31:11Z</time>
      </trkpt>
      <trkpt lat="49.94098" lon="2.1184">
        <ele>81.6</ele>
        <time>2022-09-14T12:31:12Z</time>
      </trkpt>
      <trkpt lat="49.94098" lon="2.1184">
        <ele>81.6</ele>
        <time>2022-09-14T12:31:13Z</time>
      </trkpt>
      <trkpt lat="49.94098" lon="2.1184">
        <ele>81.6</ele>
        <time>2022-09-14T12:31:14Z</time>
      </trkpt>
      <trkpt lat="49.94098" lon="2.1184">
        <ele>81.6</ele>
        <time>2022-09-14T12:31:15Z</time>
      </trkpt>
      <trkpt lat="49.94098" lon="2.1184">
        <ele>81.6</ele>
        <time>2022-09-14T12:31:16Z</time>
      </trkpt>
      <trkpt lat="49.94098" lon="2.1184">
        <ele>81.6</ele>
        <time>2022-09-14T12:31:17Z</time>
      </trkpt>
      <trkpt lat="49.94098" lon="2.1184">
        <ele>81.6</ele>
        <time>2022-09-14T12:31:18Z</time>
      </trkpt>
      <trkpt lat="49.94098" lon="2.1184">
        <ele>81.6</ele>
        <time>2022-09-14T12:31:19Z</time>
      </trkpt>
      <trkpt lat="49.94098" lon="2.1184">
        <ele>81.6</ele>
        <time>2022-09-14T12:31:20Z</time>
      </trkpt>
      <trkpt lat="49.94098" lon="2.1184">
        <ele>81.6</ele>
        <time>2022-09-14T12:31:21Z</time>
      </trkpt>
      <trkpt lat="49.94098" lon="2.11841">
        <ele>81.6</ele>
        <time>2022-09-14T12:31:22Z</time>
      </trkpt>
      <trkpt lat="49.94098" lon="2.11841">
        <ele>81.6</ele>
        <time>2022-09-14T12:31:23Z</time>
      </trkpt>
      <trkpt lat="49.94098" lon="2.11841">
        <ele>81.6</ele>
        <time>2022-09-14T12:31:24Z</time>
      </trkpt>
      <trkpt lat="49.94098" lon="2.11841">
        <ele>81.6</ele>
        <time>2022-09-14T12:31:25Z</time>
      </trkpt>
      <trkpt lat="49.94098" lon="2.11841">
        <ele>81.6</ele>
        <time>2022-09-14T12:31:26Z</time>
      </trkpt>
      <trkpt lat="49.94098" lon="2.11841">
        <ele>81.6</ele>
        <time>2022-09-14T12:31:27Z</time>
      </trkpt>
      <trkpt lat="49.94098" lon="2.11841">
        <ele>81.6</ele>
        <time>2022-09-14T12:31:28Z</time>
      </trkpt>
      <trkpt lat="49.94098" lon="2.11841">
        <ele>81.6</ele>
        <time>2022-09-14T12:31:29Z</time>
      </trkpt>
      <trkpt lat="49.94098" lon="2.11841">
        <ele>81.6</ele>
        <time>2022-09-14T12:31:30Z</time>
      </trkpt>
      <trkpt lat="49.94098" lon="2.11841">
        <ele>81.6</ele>
        <time>2022-09-14T12:31:31Z</time>
      </trkpt>
      <trkpt lat="49.94098" lon="2.11841">
        <ele>81.6</ele>
        <time>2022-09-14T12:31:32Z</time>
      </trkpt>
      <trkpt lat="49.94098" lon="2.11841">
        <ele>81.6</ele>
        <time>2022-09-14T12:31:33Z</time>
      </trkpt>
      <trkpt lat="49.94098" lon="2.11841">
        <ele>81.6</ele>
        <time>2022-09-14T12:31:34Z</time>
      </trkpt>
      <trkpt lat="49.94098" lon="2.11841">
        <ele>81.6</ele>
        <time>2022-09-14T12:31:35Z</time>
      </trkpt>
      <trkpt lat="49.94098" lon="2.11841">
        <ele>81.6</ele>
        <time>2022-09-14T12:31:36Z</time>
      </trkpt>
      <trkpt lat="49.94098" lon="2.11841">
        <ele>81.6</ele>
        <time>2022-09-14T12:31:37Z</time>
      </trkpt>
      <trkpt lat="49.94098" lon="2.11841">
        <ele>81.6</ele>
        <time>2022-09-14T12:31:38Z</time>
      </trkpt>
      <trkpt lat="49.94098" lon="2.11841">
        <ele>81.6</ele>
        <time>2022-09-14T12:31:39Z</time>
      </trkpt>
      <trkpt lat="49.94098" lon="2.11841">
        <ele>81.6</ele>
        <time>2022-09-14T12:31:40Z</time>
      </trkpt>
      <trkpt lat="49.94098" lon="2.11841">
        <ele>81.6</ele>
        <time>2022-09-14T12:31:41Z</time>
      </trkpt>
      <trkpt lat="49.94098" lon="2.11841">
        <ele>81.6</ele>
        <time>2022-09-14T12:31:42Z</time>
      </trkpt>
      <trkpt lat="49.94098" lon="2.11841">
        <ele>81.6</ele>
        <time>2022-09-14T12:31:43Z</time>
      </trkpt>
      <trkpt lat="49.94098" lon="2.11841">
        <ele>81.6</ele>
        <time>2022-09-14T12:31:44Z</time>
      </trkpt>
      <trkpt lat="49.94098" lon="2.11841">
        <ele>81.6</ele>
        <time>2022-09-14T12:31:45Z</time>
      </trkpt>
      <trkpt lat="49.94098" lon="2.11841">
        <ele>81.6</ele>
        <time>2022-09-14T12:31:46Z</time>
      </trkpt>
      <trkpt lat="49.94098" lon="2.11841">
        <ele>81.6</ele>
        <time>2022-09-14T12:31:47Z</time>
      </trkpt>
      <trkpt lat="49.94098" lon="2.11841">
        <ele>81.6</ele>
        <time>2022-09-14T12:31:48Z</time>
      </trkpt>
      <trkpt lat="49.94098" lon="2.11841">
        <ele>81.6</ele>
        <time>2022-09-14T12:31:49Z</time>
      </trkpt>
      <trkpt lat="49.94098" lon="2.11841">
        <ele>81.6</ele>
        <time>2022-09-14T12:31:50Z</time>
      </trkpt>
      <trkpt lat="49.94098" lon="2.11841">
        <ele>81.6</ele>
        <time>2022-09-14T12:31:51Z</time>
      </trkpt>
      <trkpt lat="49.94098" lon="2.11841">
        <ele>81.6</ele>
        <time>2022-09-14T12:31:52Z</time>
      </trkpt>
      <trkpt lat="49.94098" lon="2.11841">
        <ele>81.6</ele>
        <time>2022-09-14T12:31:53Z</time>
      </trkpt>
      <trkpt lat="49.94098" lon="2.11841">
        <ele>81.6</ele>
        <time>2022-09-14T12:31:54Z</time>
      </trkpt>
      <trkpt lat="49.94098" lon="2.11841">
        <ele>81.6</ele>
        <time>2022-09-14T12:31:55Z</time>
      </trkpt>
      <trkpt lat="49.94098" lon="2.11841">
        <ele>81.6</ele>
        <time>2022-09-14T12:31:56Z</time>
      </trkpt>
      <trkpt lat="49.94098" lon="2.11841">
        <ele>81.6</ele>
        <time>2022-09-14T12:31:57Z</time>
      </trkpt>
      <trkpt lat="49.94098" lon="2.11841">
        <ele>81.6</ele>
        <time>2022-09-14T12:31:58Z</time>
      </trkpt>
      <trkpt lat="49.94098" lon="2.11841">
        <ele>81.6</ele>
        <time>2022-09-14T12:31:59Z</time>
      </trkpt>
      <trkpt lat="49.94098" lon="2.11841">
        <ele>81.6</ele>
        <time>2022-09-14T12:32:00Z</time>
      </trkpt>
      <trkpt lat="49.94098" lon="2.11841">
        <ele>81.6</ele>
        <time>2022-09-14T12:32:01Z</time>
      </trkpt>
      <trkpt lat="49.94098" lon="2.11841">
        <ele>81.6</ele>
        <time>2022-09-14T12:32:02Z</time>
      </trkpt>
      <trkpt lat="49.94098" lon="2.11841">
        <ele>81.6</ele>
        <time>2022-09-14T12:32:03Z</time>
      </trkpt>
      <trkpt lat="49.94098" lon="2.11841">
        <ele>81.6</ele>
        <time>2022-09-14T12:32:04Z</time>
      </trkpt>
      <trkpt lat="49.94098" lon="2.11841">
        <ele>81.6</ele>
        <time>2022-09-14T12:32:05Z</time>
      </trkpt>
      <trkpt lat="49.94098" lon="2.11841">
        <ele>81.6</ele>
        <time>2022-09-14T12:32:06Z</time>
      </trkpt>
      <trkpt lat="49.94098" lon="2.11841">
        <ele>81.6</ele>
        <time>2022-09-14T12:32:07Z</time>
      </trkpt>
      <trkpt lat="49.94098" lon="2.11841">
        <ele>81.6</ele>
        <time>2022-09-14T12:32:08Z</time>
      </trkpt>
      <trkpt lat="49.94098" lon="2.11841">
        <ele>81.6</ele>
        <time>2022-09-14T12:32:09Z</time>
      </trkpt>
      <trkpt lat="49.94098" lon="2.11841">
        <ele>81.6</ele>
        <time>2022-09-14T12:32:10Z</time>
      </trkpt>
      <trkpt lat="49.94098" lon="2.11841">
        <ele>81.6</ele>
        <time>2022-09-14T12:32:11Z</time>
      </trkpt>
      <trkpt lat="49.94098" lon="2.11841">
        <ele>81.6</ele>
        <time>2022-09-14T12:32:12Z</time>
      </trkpt>
      <trkpt lat="49.94098" lon="2.11841">
        <ele>81.6</ele>
        <time>2022-09-14T12:32:13Z</time>
      </trkpt>
      <trkpt lat="49.94098" lon="2.11841">
        <ele>81.6</ele>
        <time>2022-09-14T12:32:14Z</time>
      </trkpt>
      <trkpt lat="49.94098" lon="2.11841">
        <ele>81.6</ele>
        <time>2022-09-14T12:32:15Z</time>
      </trkpt>
      <trkpt lat="49.94098" lon="2.11841">
        <ele>81.6</ele>
        <time>2022-09-14T12:32:16Z</time>
      </trkpt>
      <trkpt lat="49.94098" lon="2.11841">
        <ele>81.6</ele>
        <time>2022-09-14T12:32:17Z</time>
      </trkpt>
      <trkpt lat="49.94098" lon="2.11841">
        <ele>81.6</ele>
        <time>2022-09-14T12:32:18Z</time>
      </trkpt>
      <trkpt lat="49.94098" lon="2.11841">
        <ele>81.6</ele>
        <time>2022-09-14T12:32:19Z</time>
      </trkpt>
      <trkpt lat="49.94098" lon="2.11841">
        <ele>81.6</ele>
        <time>2022-09-14T12:32:20Z</time>
      </trkpt>
      <trkpt lat="49.94098" lon="2.11841">
        <ele>81.6</ele>
        <time>2022-09-14T12:32:21Z</time>
      </trkpt>
      <trkpt lat="49.94098" lon="2.11841">
        <ele>81.6</ele>
        <time>2022-09-14T12:32:22Z</time>
      </trkpt>
      <trkpt lat="49.94098" lon="2.11841">
        <ele>81.6</ele>
        <time>2022-09-14T12:32:23Z</time>
      </trkpt>
      <trkpt lat="49.94098" lon="2.11841">
        <ele>81.6</ele>
        <time>2022-09-14T12:32:24Z</time>
      </trkpt>
      <trkpt lat="49.94098" lon="2.11841">
        <ele>81.6</ele>
        <time>2022-09-14T12:32:25Z</time>
      </trkpt>
      <trkpt lat="49.94098" lon="2.11842">
        <ele>81.6</ele>
        <time>2022-09-14T12:32:26Z</time>
      </trkpt>
      <trkpt lat="49.94098" lon="2.11842">
        <ele>81.6</ele>
        <time>2022-09-14T12:32:27Z</time>
      </trkpt>
      <trkpt lat="49.94098" lon="2.11842">
        <ele>81.6</ele>
        <time>2022-09-14T12:32:28Z</time>
      </trkpt>
      <trkpt lat="49.94098" lon="2.11842">
        <ele>81.6</ele>
        <time>2022-09-14T12:32:29Z</time>
      </trkpt>
      <trkpt lat="49.94098" lon="2.11842">
        <ele>81.6</ele>
        <time>2022-09-14T12:32:30Z</time>
      </trkpt>
      <trkpt lat="49.94098" lon="2.11842">
        <ele>81.6</ele>
        <time>2022-09-14T12:32:31Z</time>
      </trkpt>
      <trkpt lat="49.94098" lon="2.11842">
        <ele>81.6</ele>
        <time>2022-09-14T12:32:32Z</time>
      </trkpt>
      <trkpt lat="49.94098" lon="2.11842">
        <ele>81.6</ele>
        <time>2022-09-14T12:32:33Z</time>
      </trkpt>
      <trkpt lat="49.94098" lon="2.11842">
        <ele>81.6</ele>
        <time>2022-09-14T12:32:34Z</time>
      </trkpt>
      <trkpt lat="49.94098" lon="2.11842">
        <ele>81.6</ele>
        <time>2022-09-14T12:32:35Z</time>
      </trkpt>
      <trkpt lat="49.94098" lon="2.11842">
        <ele>81.6</ele>
        <time>2022-09-14T12:32:36Z</time>
      </trkpt>
      <trkpt lat="49.94098" lon="2.11842">
        <ele>81.6</ele>
        <time>2022-09-14T12:32:37Z</time>
      </trkpt>
      <trkpt lat="49.94098" lon="2.11842">
        <ele>81.6</ele>
        <time>2022-09-14T12:32:38Z</time>
      </trkpt>
      <trkpt lat="49.94098" lon="2.11842">
        <ele>81.6</ele>
        <time>2022-09-14T12:32:39Z</time>
      </trkpt>
      <trkpt lat="49.94098" lon="2.11842">
        <ele>81.6</ele>
        <time>2022-09-14T12:32:40Z</time>
      </trkpt>
      <trkpt lat="49.94098" lon="2.11842">
        <ele>81.6</ele>
        <time>2022-09-14T12:32:41Z</time>
      </trkpt>
      <trkpt lat="49.94098" lon="2.11842">
        <ele>81.6</ele>
        <time>2022-09-14T12:32:42Z</time>
      </trkpt>
      <trkpt lat="49.94098" lon="2.11842">
        <ele>81.6</ele>
        <time>2022-09-14T12:32:43Z</time>
      </trkpt>
      <trkpt lat="49.94098" lon="2.11842">
        <ele>81.6</ele>
        <time>2022-09-14T12:32:44Z</time>
      </trkpt>
      <trkpt lat="49.94098" lon="2.11842">
        <ele>81.6</ele>
        <time>2022-09-14T12:32:45Z</time>
      </trkpt>
      <trkpt lat="49.94098" lon="2.11842">
        <ele>81.6</ele>
        <time>2022-09-14T12:32:46Z</time>
      </trkpt>
      <trkpt lat="49.94098" lon="2.11842">
        <ele>81.6</ele>
        <time>2022-09-14T12:32:47Z</time>
      </trkpt>
      <trkpt lat="49.94098" lon="2.11842">
        <ele>81.6</ele>
        <time>2022-09-14T12:32:48Z</time>
      </trkpt>
      <trkpt lat="49.94098" lon="2.11842">
        <ele>81.6</ele>
        <time>2022-09-14T12:32:49Z</time>
      </trkpt>
      <trkpt lat="49.94098" lon="2.11842">
        <ele>81.6</ele>
        <time>2022-09-14T12:32:50Z</time>
      </trkpt>
      <trkpt lat="49.94098" lon="2.11842">
        <ele>81.6</ele>
        <time>2022-09-14T12:32:51Z</time>
      </trkpt>
      <trkpt lat="49.94098" lon="2.11842">
        <ele>81.6</ele>
        <time>2022-09-14T12:32:52Z</time>
      </trkpt>
      <trkpt lat="49.94099" lon="2.11842">
        <ele>81.6</ele>
        <time>2022-09-14T12:32:53Z</time>
      </trkpt>
      <trkpt lat="49.941" lon="2.11843">
        <ele>81.3</ele>
        <time>2022-09-14T12:32:54Z</time>
      </trkpt>
      <trkpt lat="49.94101" lon="2.11843">
        <ele>81.3</ele>
        <time>2022-09-14T12:32:55Z</time>
      </trkpt>
      <trkpt lat="49.94101" lon="2.11843">
        <ele>81.3</ele>
        <time>2022-09-14T12:32:56Z</time>
      </trkpt>
      <trkpt lat="49.94101" lon="2.11843">
        <ele>81.3</ele>
        <time>2022-09-14T12:32:57Z</time>
      </trkpt>
      <trkpt lat="49.94101" lon="2.11843">
        <ele>81.3</ele>
        <time>2022-09-14T12:32:58Z</time>
      </trkpt>
      <trkpt lat="49.94101" lon="2.11843">
        <ele>81.5</ele>
        <time>2022-09-14T12:32:59Z</time>
      </trkpt>
      <trkpt lat="49.94101" lon="2.11843">
        <ele>81.5</ele>
        <time>2022-09-14T12:33:00Z</time>
      </trkpt>
      <trkpt lat="49.94101" lon="2.11843">
        <ele>81.5</ele>
        <time>2022-09-14T12:33:01Z</time>
      </trkpt>
      <trkpt lat="49.94101" lon="2.11843">
        <ele>81.5</ele>
        <time>2022-09-14T12:33:02Z</time>
      </trkpt>
      <trkpt lat="49.94101" lon="2.11843">
        <ele>81.5</ele>
        <time>2022-09-14T12:33:03Z</time>
      </trkpt>
      <trkpt lat="49.94101" lon="2.11843">
        <ele>81.5</ele>
        <time>2022-09-14T12:33:04Z</time>
      </trkpt>
      <trkpt lat="49.94101" lon="2.11843">
        <ele>81.5</ele>
        <time>2022-09-14T12:33:05Z</time>
      </trkpt>
      <trkpt lat="49.94101" lon="2.11843">
        <ele>81.5</ele>
        <time>2022-09-14T12:33:06Z</time>
      </trkpt>
      <trkpt lat="49.94101" lon="2.11843">
        <ele>81.5</ele>
        <time>2022-09-14T12:33:07Z</time>
      </trkpt>
      <trkpt lat="49.94101" lon="2.11843">
        <ele>81.5</ele>
        <time>2022-09-14T12:33:08Z</time>
      </trkpt>
      <trkpt lat="49.94101" lon="2.11843">
        <ele>81.5</ele>
        <time>2022-09-14T12:33:09Z</time>
      </trkpt>
      <trkpt lat="49.94101" lon="2.11843">
        <ele>81.5</ele>
        <time>2022-09-14T12:33:10Z</time>
      </trkpt>
      <trkpt lat="49.94101" lon="2.11843">
        <ele>81.5</ele>
        <time>2022-09-14T12:33:11Z</time>
      </trkpt>
      <trkpt lat="49.94101" lon="2.11843">
        <ele>81.5</ele>
        <time>2022-09-14T12:33:12Z</time>
      </trkpt>
      <trkpt lat="49.94101" lon="2.11843">
        <ele>81.5</ele>
        <time>2022-09-14T12:33:13Z</time>
      </trkpt>
      <trkpt lat="49.94101" lon="2.11843">
        <ele>81.5</ele>
        <time>2022-09-14T12:33:14Z</time>
      </trkpt>
      <trkpt lat="49.94101" lon="2.11843">
        <ele>81.5</ele>
        <time>2022-09-14T12:33:15Z</time>
      </trkpt>
      <trkpt lat="49.94101" lon="2.11843">
        <ele>81.5</ele>
        <time>2022-09-14T12:33:16Z</time>
      </trkpt>
      <trkpt lat="49.94101" lon="2.11843">
        <ele>81.5</ele>
        <time>2022-09-14T12:33:17Z</time>
      </trkpt>
      <trkpt lat="49.94101" lon="2.11843">
        <ele>81.5</ele>
        <time>2022-09-14T12:33:18Z</time>
      </trkpt>
      <trkpt lat="49.94101" lon="2.11843">
        <ele>81.5</ele>
        <time>2022-09-14T12:33:19Z</time>
      </trkpt>
      <trkpt lat="49.94101" lon="2.11843">
        <ele>81.5</ele>
        <time>2022-09-14T12:33:20Z</time>
      </trkpt>
      <trkpt lat="49.94101" lon="2.11843">
        <ele>81.5</ele>
        <time>2022-09-14T12:33:21Z</time>
      </trkpt>
      <trkpt lat="49.94101" lon="2.11843">
        <ele>81.5</ele>
        <time>2022-09-14T12:33:22Z</time>
      </trkpt>
      <trkpt lat="49.94101" lon="2.11843">
        <ele>81.5</ele>
        <time>2022-09-14T12:33:23Z</time>
      </trkpt>
      <trkpt lat="49.94101" lon="2.11843">
        <ele>81.5</ele>
        <time>2022-09-14T12:33:24Z</time>
      </trkpt>
      <trkpt lat="49.94101" lon="2.11843">
        <ele>81.5</ele>
        <time>2022-09-14T12:33:25Z</time>
      </trkpt>
      <trkpt lat="49.94101" lon="2.11843">
        <ele>81.5</ele>
        <time>2022-09-14T12:33:26Z</time>
      </trkpt>
      <trkpt lat="49.94101" lon="2.11843">
        <ele>81.5</ele>
        <time>2022-09-14T12:33:27Z</time>
      </trkpt>
      <trkpt lat="49.94101" lon="2.11843">
        <ele>81.5</ele>
        <time>2022-09-14T12:33:28Z</time>
      </trkpt>
      <trkpt lat="49.94101" lon="2.11843">
        <ele>81.5</ele>
        <time>2022-09-14T12:33:29Z</time>
      </trkpt>
      <trkpt lat="49.94101" lon="2.11843">
        <ele>81.5</ele>
        <time>2022-09-14T12:33:30Z</time>
      </trkpt>
      <trkpt lat="49.94101" lon="2.11843">
        <ele>81.5</ele>
        <time>2022-09-14T12:33:31Z</time>
      </trkpt>
      <trkpt lat="49.94101" lon="2.11843">
        <ele>81.5</ele>
        <time>2022-09-14T12:33:32Z</time>
      </trkpt>
      <trkpt lat="49.94101" lon="2.11843">
        <ele>81.5</ele>
        <time>2022-09-14T12:33:33Z</time>
      </trkpt>
      <trkpt lat="49.94101" lon="2.11843">
        <ele>81.5</ele>
        <time>2022-09-14T12:33:34Z</time>
      </trkpt>
      <trkpt lat="49.94101" lon="2.11843">
        <ele>81.5</ele>
        <time>2022-09-14T12:33:35Z</time>
      </trkpt>
      <trkpt lat="49.94101" lon="2.11843">
        <ele>81.5</ele>
        <time>2022-09-14T12:33:36Z</time>
      </trkpt>
      <trkpt lat="49.94101" lon="2.11843">
        <ele>81.5</ele>
        <time>2022-09-14T12:33:37Z</time>
      </trkpt>
      <trkpt lat="49.94101" lon="2.11843">
        <ele>81.5</ele>
        <time>2022-09-14T12:33:38Z</time>
      </trkpt>
      <trkpt lat="49.94101" lon="2.11843">
        <ele>81.5</ele>
        <time>2022-09-14T12:33:39Z</time>
      </trkpt>
      <trkpt lat="49.94101" lon="2.11843">
        <ele>81.5</ele>
        <time>2022-09-14T12:33:40Z</time>
      </trkpt>
      <trkpt lat="49.94101" lon="2.11843">
        <ele>81.5</ele>
        <time>2022-09-14T12:33:41Z</time>
      </trkpt>
      <trkpt lat="49.94101" lon="2.11843">
        <ele>81.5</ele>
        <time>2022-09-14T12:33:42Z</time>
      </trkpt>
      <trkpt lat="49.94101" lon="2.11843">
        <ele>81.5</ele>
        <time>2022-09-14T12:33:43Z</time>
      </trkpt>
      <trkpt lat="49.94101" lon="2.11843">
        <ele>81.5</ele>
        <time>2022-09-14T12:33:44Z</time>
      </trkpt>
      <trkpt lat="49.94101" lon="2.11843">
        <ele>81.5</ele>
        <time>2022-09-14T12:33:45Z</time>
      </trkpt>
      <trkpt lat="49.94101" lon="2.11843">
        <ele>81.5</ele>
        <time>2022-09-14T12:33:46Z</time>
      </trkpt>
      <trkpt lat="49.94101" lon="2.11839">
        <ele>81.1</ele>
        <time>2022-09-14T12:33:47Z</time>
      </trkpt>
      <trkpt lat="49.94101" lon="2.11837">
        <ele>81.1</ele>
        <time>2022-09-14T12:33:48Z</time>
      </trkpt>
      <trkpt lat="49.941" lon="2.11836">
        <ele>81.1</ele>
        <time>2022-09-14T12:33:49Z</time>
      </trkpt>
      <trkpt lat="49.941" lon="2.11836">
        <ele>81.1</ele>
        <time>2022-09-14T12:33:50Z</time>
      </trkpt>
      <trkpt lat="49.941" lon="2.11836">
        <ele>81.4</ele>
        <time>2022-09-14T12:33:51Z</time>
      </trkpt>
      <trkpt lat="49.941" lon="2.11838">
        <ele>81.1</ele>
        <time>2022-09-14T12:33:52Z</time>
      </trkpt>
      <trkpt lat="49.94101" lon="2.11836">
        <ele>81.1</ele>
        <time>2022-09-14T12:33:54Z</time>
      </trkpt>
      <trkpt lat="49.94101" lon="2.11836">
        <ele>81.1</ele>
        <time>2022-09-14T12:33:55Z</time>
      </trkpt>
      <trkpt lat="49.941" lon="2.11835">
        <ele>81.1</ele>
        <time>2022-09-14T12:33:56Z</time>
      </trkpt>
      <trkpt lat="49.941" lon="2.11834">
        <ele>80.9</ele>
        <time>2022-09-14T12:33:57Z</time>
      </trkpt>
      <trkpt lat="49.941" lon="2.11833">
        <ele>81.2</ele>
        <time>2022-09-14T12:33:59Z</time>
      </trkpt>
      <trkpt lat="49.941" lon="2.11831">
        <ele>81.2</ele>
        <time>2022-09-14T12:34:00Z</time>
      </trkpt>
      <trkpt lat="49.94099" lon="2.11829">
        <ele>81</ele>
        <time>2022-09-14T12:34:02Z</time>
      </trkpt>
      <trkpt lat="49.94099" lon="2.11827">
        <ele>81</ele>
        <time>2022-09-14T12:34:03Z</time>
      </trkpt>
      <trkpt lat="49.94098" lon="2.11825">
        <ele>81.1</ele>
        <time>2022-09-14T12:34:04Z</time>
      </trkpt>
      <trkpt lat="49.94096" lon="2.11824">
        <ele>81.2</ele>
        <time>2022-09-14T12:34:06Z</time>
      </trkpt>
      <trkpt lat="49.94093" lon="2.11823">
        <ele>81.3</ele>
        <time>2022-09-14T12:34:07Z</time>
      </trkpt>
      <trkpt lat="49.9409" lon="2.11822">
        <ele>81.4</ele>
        <time>2022-09-14T12:34:08Z</time>
      </trkpt>
      <trkpt lat="49.94088" lon="2.11822">
        <ele>81.4</ele>
        <time>2022-09-14T12:34:10Z</time>
      </trkpt>
      <trkpt lat="49.94087" lon="2.11822">
        <ele>81.5</ele>
        <time>2022-09-14T12:34:11Z</time>
      </trkpt>
      <trkpt lat="49.94086" lon="2.11822">
        <ele>81.5</ele>
        <time>2022-09-14T12:34:12Z</time>
      </trkpt>
      <trkpt lat="49.94084" lon="2.11821">
        <ele>81.6</ele>
        <time>2022-09-14T12:34:13Z</time>
      </trkpt>
      <trkpt lat="49.94083" lon="2.11821">
        <ele>81.6</ele>
        <time>2022-09-14T12:34:14Z</time>
      </trkpt>
      <trkpt lat="49.94081" lon="2.11821">
        <ele>81.7</ele>
        <time>2022-09-14T12:34:16Z</time>
      </trkpt>
      <trkpt lat="49.9408" lon="2.11823">
        <ele>81.8</ele>
        <time>2022-09-14T12:34:17Z</time>
      </trkpt>
      <trkpt lat="49.94079" lon="2.11823">
        <ele>81.8</ele>
        <time>2022-09-14T12:34:18Z</time>
      </trkpt>
      <trkpt lat="49.94078" lon="2.11822">
        <ele>81.8</ele>
        <time>2022-09-14T12:34:20Z</time>
      </trkpt>
      <trkpt lat="49.94077" lon="2.11822">
        <ele>81.9</ele>
        <time>2022-09-14T12:34:21Z</time>
      </trkpt>
      <trkpt lat="49.94075" lon="2.11821">
        <ele>81.9</ele>
        <time>2022-09-14T12:34:22Z</time>
      </trkpt>
      <trkpt lat="49.94074" lon="2.11821">
        <ele>81.9</ele>
        <time>2022-09-14T12:34:23Z</time>
      </trkpt>
      <trkpt lat="49.94073" lon="2.11821">
        <ele>82</ele>
        <time>2022-09-14T12:34:25Z</time>
      </trkpt>
      <trkpt lat="49.94073" lon="2.11821">
        <ele>82</ele>
        <time>2022-09-14T12:34:26Z</time>
      </trkpt>
      <trkpt lat="49.94072" lon="2.11821">
        <ele>82</ele>
        <time>2022-09-14T12:34:27Z</time>
      </trkpt>
      <trkpt lat="49.94071" lon="2.11821">
        <ele>82</ele>
        <time>2022-09-14T12:34:28Z</time>
      </trkpt>
      <trkpt lat="49.94071" lon="2.1182">
        <ele>82</ele>
        <time>2022-09-14T12:34:29Z</time>
      </trkpt>
      <trkpt lat="49.9407" lon="2.1182">
        <ele>82.1</ele>
        <time>2022-09-14T12:34:30Z</time>
      </trkpt>
      <trkpt lat="49.9407" lon="2.1182">
        <ele>82.1</ele>
        <time>2022-09-14T12:34:31Z</time>
      </trkpt>
      <trkpt lat="49.94069" lon="2.1182">
        <ele>82.1</ele>
        <time>2022-09-14T12:34:32Z</time>
      </trkpt>
      <trkpt lat="49.94068" lon="2.1182">
        <ele>82.1</ele>
        <time>2022-09-14T12:34:33Z</time>
      </trkpt>
      <trkpt lat="49.94066" lon="2.1182">
        <ele>82.1</ele>
        <time>2022-09-14T12:34:34Z</time>
      </trkpt>
      <trkpt lat="49.94065" lon="2.1182">
        <ele>82.2</ele>
        <time>2022-09-14T12:34:36Z</time>
      </trkpt>
      <trkpt lat="49.94064" lon="2.1182">
        <ele>82.2</ele>
        <time>2022-09-14T12:34:37Z</time>
      </trkpt>
      <trkpt lat="49.94064" lon="2.1182">
        <ele>82.2</ele>
        <time>2022-09-14T12:34:38Z</time>
      </trkpt>
      <trkpt lat="49.94062" lon="2.1182">
        <ele>82.2</ele>
        <time>2022-09-14T12:34:40Z</time>
      </trkpt>
      <trkpt lat="49.9406" lon="2.11819">
        <ele>82.2</ele>
        <time>2022-09-14T12:34:41Z</time>
      </trkpt>
      <trkpt lat="49.94057" lon="2.11819">
        <ele>82.3</ele>
        <time>2022-09-14T12:34:43Z</time>
      </trkpt>
      <trkpt lat="49.94056" lon="2.11819">
        <ele>82.3</ele>
        <time>2022-09-14T12:34:44Z</time>
      </trkpt>
      <trkpt lat="49.94055" lon="2.11819">
        <ele>82.3</ele>
        <time>2022-09-14T12:34:45Z</time>
      </trkpt>
      <trkpt lat="49.94053" lon="2.11818">
        <ele>82.3</ele>
        <time>2022-09-14T12:34:46Z</time>
      </trkpt>
      <trkpt lat="49.94051" lon="2.11817">
        <ele>82.3</ele>
        <time>2022-09-14T12:34:47Z</time>
      </trkpt>
      <trkpt lat="49.94049" lon="2.11817">
        <ele>82.4</ele>
        <time>2022-09-14T12:34:49Z</time>
      </trkpt>
      <trkpt lat="49.94048" lon="2.11816">
        <ele>82.4</ele>
        <time>2022-09-14T12:34:50Z</time>
      </trkpt>
      <trkpt lat="49.94046" lon="2.11816">
        <ele>82.4</ele>
        <time>2022-09-14T12:34:51Z</time>
      </trkpt>
      <trkpt lat="49.94045" lon="2.11815">
        <ele>82.4</ele>
        <time>2022-09-14T12:34:52Z</time>
      </trkpt>
      <trkpt lat="49.94043" lon="2.11815">
        <ele>82.4</ele>
        <time>2022-09-14T12:34:53Z</time>
      </trkpt>
      <trkpt lat="49.94042" lon="2.11814">
        <ele>82.4</ele>
        <time>2022-09-14T12:34:54Z</time>
      </trkpt>
      <trkpt lat="49.94041" lon="2.11814">
        <ele>82.4</ele>
        <time>2022-09-14T12:34:56Z</time>
      </trkpt>
      <trkpt lat="49.94039" lon="2.11814">
        <ele>82.4</ele>
        <time>2022-09-14T12:34:57Z</time>
      </trkpt>
      <trkpt lat="49.94038" lon="2.11813">
        <ele>82.4</ele>
        <time>2022-09-14T12:34:58Z</time>
      </trkpt>
      <trkpt lat="49.94036" lon="2.11813">
        <ele>82.4</ele>
        <time>2022-09-14T12:35:00Z</time>
      </trkpt>
      <trkpt lat="49.94036" lon="2.11812">
        <ele>82.4</ele>
        <time>2022-09-14T12:35:01Z</time>
      </trkpt>
      <trkpt lat="49.94034" lon="2.11812">
        <ele>82.4</ele>
        <time>2022-09-14T12:35:02Z</time>
      </trkpt>
      <trkpt lat="49.94034" lon="2.11811">
        <ele>82.4</ele>
        <time>2022-09-14T12:35:03Z</time>
      </trkpt>
      <trkpt lat="49.94033" lon="2.11811">
        <ele>82.3</ele>
        <time>2022-09-14T12:35:04Z</time>
      </trkpt>
      <trkpt lat="49.94031" lon="2.11811">
        <ele>82.3</ele>
        <time>2022-09-14T12:35:06Z</time>
      </trkpt>
      <trkpt lat="49.9403" lon="2.1181">
        <ele>82.3</ele>
        <time>2022-09-14T12:35:07Z</time>
      </trkpt>
      <trkpt lat="49.94029" lon="2.1181">
        <ele>82.3</ele>
        <time>2022-09-14T12:35:08Z</time>
      </trkpt>
      <trkpt lat="49.94028" lon="2.1181">
        <ele>82.3</ele>
        <time>2022-09-14T12:35:09Z</time>
      </trkpt>
      <trkpt lat="49.94028" lon="2.11809">
        <ele>82.3</ele>
        <time>2022-09-14T12:35:10Z</time>
      </trkpt>
      <trkpt lat="49.94025" lon="2.11809">
        <ele>82.3</ele>
        <time>2022-09-14T12:35:12Z</time>
      </trkpt>
      <trkpt lat="49.94025" lon="2.11808">
        <ele>82.2</ele>
        <time>2022-09-14T12:35:13Z</time>
      </trkpt>
      <trkpt lat="49.94024" lon="2.11808">
        <ele>82.2</ele>
        <time>2022-09-14T12:35:14Z</time>
      </trkpt>
      <trkpt lat="49.94023" lon="2.11808">
        <ele>82.2</ele>
        <time>2022-09-14T12:35:15Z</time>
      </trkpt>
      <trkpt lat="49.94022" lon="2.11809">
        <ele>82.2</ele>
        <time>2022-09-14T12:35:16Z</time>
      </trkpt>
      <trkpt lat="49.94021" lon="2.11809">
        <ele>82.2</ele>
        <time>2022-09-14T12:35:17Z</time>
      </trkpt>
      <trkpt lat="49.9402" lon="2.11809">
        <ele>82.2</ele>
        <time>2022-09-14T12:35:18Z</time>
      </trkpt>
      <trkpt lat="49.94019" lon="2.11809">
        <ele>82.2</ele>
        <time>2022-09-14T12:35:19Z</time>
      </trkpt>
      <trkpt lat="49.94018" lon="2.11809">
        <ele>82.1</ele>
        <time>2022-09-14T12:35:21Z</time>
      </trkpt>
      <trkpt lat="49.94016" lon="2.11809">
        <ele>82.1</ele>
        <time>2022-09-14T12:35:22Z</time>
      </trkpt>
      <trkpt lat="49.94015" lon="2.11809">
        <ele>82.1</ele>
        <time>2022-09-14T12:35:23Z</time>
      </trkpt>
      <trkpt lat="49.94014" lon="2.11808">
        <ele>82.1</ele>
        <time>2022-09-14T12:35:24Z</time>
      </trkpt>
      <trkpt lat="49.94013" lon="2.11808">
        <ele>82.1</ele>
        <time>2022-09-14T12:35:25Z</time>
      </trkpt>
      <trkpt lat="49.94011" lon="2.11807">
        <ele>82</ele>
        <time>2022-09-14T12:35:27Z</time>
      </trkpt>
      <trkpt lat="49.9401" lon="2.11806">
        <ele>82</ele>
        <time>2022-09-14T12:35:28Z</time>
      </trkpt>
      <trkpt lat="49.94008" lon="2.11805">
        <ele>82</ele>
        <time>2022-09-14T12:35:29Z</time>
      </trkpt>
      <trkpt lat="49.94007" lon="2.11804">
        <ele>82</ele>
        <time>2022-09-14T12:35:30Z</time>
      </trkpt>
      <trkpt lat="49.94006" lon="2.11804">
        <ele>82</ele>
        <time>2022-09-14T12:35:31Z</time>
      </trkpt>
      <trkpt lat="49.94006" lon="2.11803">
        <ele>82</ele>
        <time>2022-09-14T12:35:32Z</time>
      </trkpt>
      <trkpt lat="49.94005" lon="2.11802">
        <ele>81.9</ele>
        <time>2022-09-14T12:35:34Z</time>
      </trkpt>
      <trkpt lat="49.94004" lon="2.11801">
        <ele>81.9</ele>
        <time>2022-09-14T12:35:35Z</time>
      </trkpt>
      <trkpt lat="49.94003" lon="2.118">
        <ele>81.9</ele>
        <time>2022-09-14T12:35:36Z</time>
      </trkpt>
      <trkpt lat="49.94002" lon="2.118">
        <ele>81.9</ele>
        <time>2022-09-14T12:35:37Z</time>
      </trkpt>
      <trkpt lat="49.94001" lon="2.11799">
        <ele>81.8</ele>
        <time>2022-09-14T12:35:38Z</time>
      </trkpt>
      <trkpt lat="49.93999" lon="2.11798">
        <ele>81.8</ele>
        <time>2022-09-14T12:35:39Z</time>
      </trkpt>
      <trkpt lat="49.93998" lon="2.11797">
        <ele>81.8</ele>
        <time>2022-09-14T12:35:40Z</time>
      </trkpt>
      <trkpt lat="49.93997" lon="2.11796">
        <ele>81.8</ele>
        <time>2022-09-14T12:35:41Z</time>
      </trkpt>
      <trkpt lat="49.93996" lon="2.11795">
        <ele>81.7</ele>
        <time>2022-09-14T12:35:43Z</time>
      </trkpt>
      <trkpt lat="49.93995" lon="2.11794">
        <ele>81.7</ele>
        <time>2022-09-14T12:35:44Z</time>
      </trkpt>
      <trkpt lat="49.93995" lon="2.11793">
        <ele>81.7</ele>
        <time>2022-09-14T12:35:45Z</time>
      </trkpt>
      <trkpt lat="49.93994" lon="2.11791">
        <ele>81.7</ele>
        <time>2022-09-14T12:35:46Z</time>
      </trkpt>
      <trkpt lat="49.93993" lon="2.1179">
        <ele>81.6</ele>
        <time>2022-09-14T12:35:47Z</time>
      </trkpt>
      <trkpt lat="49.93991" lon="2.11788">
        <ele>81.6</ele>
        <time>2022-09-14T12:35:48Z</time>
      </trkpt>
      <trkpt lat="49.9399" lon="2.11787">
        <ele>81.6</ele>
        <time>2022-09-14T12:35:49Z</time>
      </trkpt>
      <trkpt lat="49.93989" lon="2.11787">
        <ele>81.5</ele>
        <time>2022-09-14T12:35:50Z</time>
      </trkpt>
      <trkpt lat="49.93987" lon="2.11785">
        <ele>81.5</ele>
        <time>2022-09-14T12:35:52Z</time>
      </trkpt>
      <trkpt lat="49.93986" lon="2.11785">
        <ele>81.5</ele>
        <time>2022-09-14T12:35:53Z</time>
      </trkpt>
      <trkpt lat="49.93986" lon="2.11785">
        <ele>81.5</ele>
        <time>2022-09-14T12:35:54Z</time>
      </trkpt>
      <trkpt lat="49.93985" lon="2.11785">
        <ele>81.5</ele>
        <time>2022-09-14T12:35:55Z</time>
      </trkpt>
      <trkpt lat="49.93983" lon="2.11784">
        <ele>81.4</ele>
        <time>2022-09-14T12:35:56Z</time>
      </trkpt>
      <trkpt lat="49.93981" lon="2.11783">
        <ele>81.4</ele>
        <time>2022-09-14T12:35:58Z</time>
      </trkpt>
      <trkpt lat="49.9398" lon="2.11783">
        <ele>81.4</ele>
        <time>2022-09-14T12:35:59Z</time>
      </trkpt>
      <trkpt lat="49.93979" lon="2.11783">
        <ele>81.4</ele>
        <time>2022-09-14T12:36:00Z</time>
      </trkpt>
      <trkpt lat="49.93978" lon="2.11782">
        <ele>81.4</ele>
        <time>2022-09-14T12:36:01Z</time>
      </trkpt>
      <trkpt lat="49.93976" lon="2.11782">
        <ele>81.4</ele>
        <time>2022-09-14T12:36:02Z</time>
      </trkpt>
      <trkpt lat="49.93974" lon="2.11781">
        <ele>81.3</ele>
        <time>2022-09-14T12:36:03Z</time>
      </trkpt>
      <trkpt lat="49.93972" lon="2.1178">
        <ele>81.3</ele>
        <time>2022-09-14T12:36:05Z</time>
      </trkpt>
      <trkpt lat="49.93971" lon="2.11779">
        <ele>81.3</ele>
        <time>2022-09-14T12:36:06Z</time>
      </trkpt>
      <trkpt lat="49.9397" lon="2.11779">
        <ele>81.3</ele>
        <time>2022-09-14T12:36:07Z</time>
      </trkpt>
      <trkpt lat="49.93969" lon="2.11778">
        <ele>81.3</ele>
        <time>2022-09-14T12:36:08Z</time>
      </trkpt>
      <trkpt lat="49.93968" lon="2.11778">
        <ele>81.3</ele>
        <time>2022-09-14T12:36:09Z</time>
      </trkpt>
      <trkpt lat="49.93967" lon="2.11778">
        <ele>81.3</ele>
        <time>2022-09-14T12:36:10Z</time>
      </trkpt>
      <trkpt lat="49.93967" lon="2.11777">
        <ele>81.3</ele>
        <time>2022-09-14T12:36:11Z</time>
      </trkpt>
      <trkpt lat="49.93964" lon="2.11777">
        <ele>81.3</ele>
        <time>2022-09-14T12:36:13Z</time>
      </trkpt>
      <trkpt lat="49.93963" lon="2.11777">
        <ele>81.3</ele>
        <time>2022-09-14T12:36:14Z</time>
      </trkpt>
      <trkpt lat="49.93961" lon="2.11776">
        <ele>81.3</ele>
        <time>2022-09-14T12:36:15Z</time>
      </trkpt>
      <trkpt lat="49.9396" lon="2.11776">
        <ele>81.2</ele>
        <time>2022-09-14T12:36:16Z</time>
      </trkpt>
      <trkpt lat="49.93959" lon="2.11776">
        <ele>81.2</ele>
        <time>2022-09-14T12:36:17Z</time>
      </trkpt>
      <trkpt lat="49.93958" lon="2.11776">
        <ele>81.2</ele>
        <time>2022-09-14T12:36:19Z</time>
      </trkpt>
      <trkpt lat="49.93957" lon="2.11775">
        <ele>81.2</ele>
        <time>2022-09-14T12:36:20Z</time>
      </trkpt>
      <trkpt lat="49.93954" lon="2.11774">
        <ele>81.2</ele>
        <time>2022-09-14T12:36:21Z</time>
      </trkpt>
      <trkpt lat="49.93953" lon="2.11773">
        <ele>81.2</ele>
        <time>2022-09-14T12:36:22Z</time>
      </trkpt>
      <trkpt lat="49.93952" lon="2.11772">
        <ele>81.2</ele>
        <time>2022-09-14T12:36:24Z</time>
      </trkpt>
      <trkpt lat="49.93951" lon="2.11772">
        <ele>81.2</ele>
        <time>2022-09-14T12:36:25Z</time>
      </trkpt>
      <trkpt lat="49.93949" lon="2.11771">
        <ele>81.2</ele>
        <time>2022-09-14T12:36:26Z</time>
      </trkpt>
      <trkpt lat="49.93948" lon="2.1177">
        <ele>81.2</ele>
        <time>2022-09-14T12:36:27Z</time>
      </trkpt>
      <trkpt lat="49.93946" lon="2.11769">
        <ele>81.1</ele>
        <time>2022-09-14T12:36:28Z</time>
      </trkpt>
      <trkpt lat="49.93945" lon="2.11769">
        <ele>81.1</ele>
        <time>2022-09-14T12:36:29Z</time>
      </trkpt>
      <trkpt lat="49.93944" lon="2.11768">
        <ele>81.1</ele>
        <time>2022-09-14T12:36:30Z</time>
      </trkpt>
      <trkpt lat="49.93943" lon="2.11768">
        <ele>81.1</ele>
        <time>2022-09-14T12:36:32Z</time>
      </trkpt>
      <trkpt lat="49.93941" lon="2.11767">
        <ele>81.1</ele>
        <time>2022-09-14T12:36:33Z</time>
      </trkpt>
      <trkpt lat="49.9394" lon="2.11767">
        <ele>81.1</ele>
        <time>2022-09-14T12:36:34Z</time>
      </trkpt>
      <trkpt lat="49.93939" lon="2.11766">
        <ele>81.1</ele>
        <time>2022-09-14T12:36:35Z</time>
      </trkpt>
      <trkpt lat="49.93938" lon="2.11765">
        <ele>81</ele>
        <time>2022-09-14T12:36:36Z</time>
      </trkpt>
      <trkpt lat="49.93936" lon="2.11764">
        <ele>81</ele>
        <time>2022-09-14T12:36:37Z</time>
      </trkpt>
      <trkpt lat="49.93936" lon="2.11764">
        <ele>81</ele>
        <time>2022-09-14T12:36:38Z</time>
      </trkpt>
      <trkpt lat="49.93935" lon="2.11764">
        <ele>81</ele>
        <time>2022-09-14T12:36:39Z</time>
      </trkpt>
      <trkpt lat="49.93933" lon="2.11763">
        <ele>81</ele>
        <time>2022-09-14T12:36:41Z</time>
      </trkpt>
      <trkpt lat="49.93932" lon="2.11762">
        <ele>80.9</ele>
        <time>2022-09-14T12:36:42Z</time>
      </trkpt>
      <trkpt lat="49.93931" lon="2.11762">
        <ele>80.9</ele>
        <time>2022-09-14T12:36:43Z</time>
      </trkpt>
      <trkpt lat="49.93929" lon="2.11761">
        <ele>80.9</ele>
        <time>2022-09-14T12:36:44Z</time>
      </trkpt>
      <trkpt lat="49.93928" lon="2.1176">
        <ele>80.9</ele>
        <time>2022-09-14T12:36:45Z</time>
      </trkpt>
      <trkpt lat="49.93927" lon="2.1176">
        <ele>80.9</ele>
        <time>2022-09-14T12:36:46Z</time>
      </trkpt>
      <trkpt lat="49.93925" lon="2.11759">
        <ele>80.8</ele>
        <time>2022-09-14T12:36:47Z</time>
      </trkpt>
      <trkpt lat="49.93925" lon="2.11758">
        <ele>80.8</ele>
        <time>2022-09-14T12:36:49Z</time>
      </trkpt>
      <trkpt lat="49.93924" lon="2.11758">
        <ele>80.8</ele>
        <time>2022-09-14T12:36:50Z</time>
      </trkpt>
      <trkpt lat="49.93923" lon="2.11757">
        <ele>80.8</ele>
        <time>2022-09-14T12:36:51Z</time>
      </trkpt>
      <trkpt lat="49.93922" lon="2.11756">
        <ele>80.8</ele>
        <time>2022-09-14T12:36:52Z</time>
      </trkpt>
      <trkpt lat="49.9392" lon="2.11755">
        <ele>80.7</ele>
        <time>2022-09-14T12:36:54Z</time>
      </trkpt>
      <trkpt lat="49.93919" lon="2.11755">
        <ele>80.7</ele>
        <time>2022-09-14T12:36:55Z</time>
      </trkpt>
      <trkpt lat="49.93917" lon="2.11754">
        <ele>80.7</ele>
        <time>2022-09-14T12:36:57Z</time>
      </trkpt>
      <trkpt lat="49.93916" lon="2.11754">
        <ele>80.7</ele>
        <time>2022-09-14T12:36:58Z</time>
      </trkpt>
      <trkpt lat="49.93914" lon="2.11752">
        <ele>80.7</ele>
        <time>2022-09-14T12:37:00Z</time>
      </trkpt>
      <trkpt lat="49.93913" lon="2.11752">
        <ele>80.7</ele>
        <time>2022-09-14T12:37:01Z</time>
      </trkpt>
      <trkpt lat="49.93912" lon="2.11751">
        <ele>80.7</ele>
        <time>2022-09-14T12:37:02Z</time>
      </trkpt>
      <trkpt lat="49.93911" lon="2.11751">
        <ele>80.6</ele>
        <time>2022-09-14T12:37:03Z</time>
      </trkpt>
      <trkpt lat="49.9391" lon="2.1175">
        <ele>80.6</ele>
        <time>2022-09-14T12:37:04Z</time>
      </trkpt>
      <trkpt lat="49.93909" lon="2.1175">
        <ele>80.6</ele>
        <time>2022-09-14T12:37:05Z</time>
      </trkpt>
      <trkpt lat="49.93908" lon="2.11749">
        <ele>80.6</ele>
        <time>2022-09-14T12:37:06Z</time>
      </trkpt>
      <trkpt lat="49.93907" lon="2.11749">
        <ele>80.6</ele>
        <time>2022-09-14T12:37:07Z</time>
      </trkpt>
      <trkpt lat="49.93905" lon="2.11748">
        <ele>80.6</ele>
        <time>2022-09-14T12:37:08Z</time>
      </trkpt>
      <trkpt lat="49.93903" lon="2.11748">
        <ele>80.5</ele>
        <time>2022-09-14T12:37:10Z</time>
      </trkpt>
      <trkpt lat="49.93902" lon="2.11748">
        <ele>80.5</ele>
        <time>2022-09-14T12:37:11Z</time>
      </trkpt>
      <trkpt lat="49.93901" lon="2.11747">
        <ele>80.5</ele>
        <time>2022-09-14T12:37:12Z</time>
      </trkpt>
      <trkpt lat="49.93899" lon="2.11747">
        <ele>80.5</ele>
        <time>2022-09-14T12:37:13Z</time>
      </trkpt>
      <trkpt lat="49.93898" lon="2.11747">
        <ele>80.5</ele>
        <time>2022-09-14T12:37:14Z</time>
      </trkpt>
      <trkpt lat="49.93897" lon="2.11746">
        <ele>80.4</ele>
        <time>2022-09-14T12:37:15Z</time>
      </trkpt>
      <trkpt lat="49.93896" lon="2.11746">
        <ele>80.4</ele>
        <time>2022-09-14T12:37:16Z</time>
      </trkpt>
      <trkpt lat="49.93893" lon="2.11745">
        <ele>80.4</ele>
        <time>2022-09-14T12:37:18Z</time>
      </trkpt>
      <trkpt lat="49.93893" lon="2.11745">
        <ele>80.4</ele>
        <time>2022-09-14T12:37:19Z</time>
      </trkpt>
      <trkpt lat="49.93892" lon="2.11744">
        <ele>80.4</ele>
        <time>2022-09-14T12:37:20Z</time>
      </trkpt>
      <trkpt lat="49.93891" lon="2.11743">
        <ele>80.3</ele>
        <time>2022-09-14T12:37:21Z</time>
      </trkpt>
      <trkpt lat="49.93889" lon="2.11743">
        <ele>80.3</ele>
        <time>2022-09-14T12:37:22Z</time>
      </trkpt>
      <trkpt lat="49.93887" lon="2.11741">
        <ele>80.3</ele>
        <time>2022-09-14T12:37:23Z</time>
      </trkpt>
      <trkpt lat="49.93886" lon="2.11741">
        <ele>80.3</ele>
        <time>2022-09-14T12:37:24Z</time>
      </trkpt>
      <trkpt lat="49.93884" lon="2.11739">
        <ele>80.2</ele>
        <time>2022-09-14T12:37:25Z</time>
      </trkpt>
      <trkpt lat="49.93883" lon="2.11739">
        <ele>80.2</ele>
        <time>2022-09-14T12:37:27Z</time>
      </trkpt>
      <trkpt lat="49.93882" lon="2.11738">
        <ele>80.2</ele>
        <time>2022-09-14T12:37:28Z</time>
      </trkpt>
      <trkpt lat="49.93881" lon="2.11738">
        <ele>80.2</ele>
        <time>2022-09-14T12:37:29Z</time>
      </trkpt>
      <trkpt lat="49.9388" lon="2.11737">
        <ele>80.1</ele>
        <time>2022-09-14T12:37:30Z</time>
      </trkpt>
      <trkpt lat="49.93879" lon="2.11737">
        <ele>80.1</ele>
        <time>2022-09-14T12:37:31Z</time>
      </trkpt>
      <trkpt lat="49.93878" lon="2.11736">
        <ele>80.1</ele>
        <time>2022-09-14T12:37:32Z</time>
      </trkpt>
      <trkpt lat="49.93877" lon="2.11735">
        <ele>80.1</ele>
        <time>2022-09-14T12:37:33Z</time>
      </trkpt>
      <trkpt lat="49.93876" lon="2.11735">
        <ele>80</ele>
        <time>2022-09-14T12:37:34Z</time>
      </trkpt>
      <trkpt lat="49.93874" lon="2.11733">
        <ele>80</ele>
        <time>2022-09-14T12:37:36Z</time>
      </trkpt>
      <trkpt lat="49.93873" lon="2.11732">
        <ele>80</ele>
        <time>2022-09-14T12:37:37Z</time>
      </trkpt>
      <trkpt lat="49.93871" lon="2.11731">
        <ele>79.9</ele>
        <time>2022-09-14T12:37:38Z</time>
      </trkpt>
      <trkpt lat="49.9387" lon="2.1173">
        <ele>79.9</ele>
        <time>2022-09-14T12:37:39Z</time>
      </trkpt>
      <trkpt lat="49.9387" lon="2.1173">
        <ele>79.9</ele>
        <time>2022-09-14T12:37:40Z</time>
      </trkpt>
      <trkpt lat="49.93868" lon="2.11729">
        <ele>79.9</ele>
        <time>2022-09-14T12:37:42Z</time>
      </trkpt>
      <trkpt lat="49.93867" lon="2.11729">
        <ele>79.8</ele>
        <time>2022-09-14T12:37:43Z</time>
      </trkpt>
      <trkpt lat="49.93865" lon="2.11728">
        <ele>79.8</ele>
        <time>2022-09-14T12:37:45Z</time>
      </trkpt>
      <trkpt lat="49.93865" lon="2.11728">
        <ele>79.8</ele>
        <time>2022-09-14T12:37:46Z</time>
      </trkpt>
      <trkpt lat="49.93864" lon="2.11727">
        <ele>79.8</ele>
        <time>2022-09-14T12:37:47Z</time>
      </trkpt>
      <trkpt lat="49.93863" lon="2.11727">
        <ele>79.8</ele>
        <time>2022-09-14T12:37:48Z</time>
      </trkpt>
      <trkpt lat="49.93862" lon="2.11725">
        <ele>79.7</ele>
        <time>2022-09-14T12:37:49Z</time>
      </trkpt>
      <trkpt lat="49.93861" lon="2.11724">
        <ele>79.7</ele>
        <time>2022-09-14T12:37:51Z</time>
      </trkpt>
      <trkpt lat="49.9386" lon="2.11723">
        <ele>79.7</ele>
        <time>2022-09-14T12:37:52Z</time>
      </trkpt>
      <trkpt lat="49.93859" lon="2.11722">
        <ele>79.6</ele>
        <time>2022-09-14T12:37:53Z</time>
      </trkpt>
      <trkpt lat="49.93858" lon="2.11721">
        <ele>79.6</ele>
        <time>2022-09-14T12:37:54Z</time>
      </trkpt>
      <trkpt lat="49.93857" lon="2.1172">
        <ele>79.6</ele>
        <time>2022-09-14T12:37:55Z</time>
      </trkpt>
      <trkpt lat="49.93855" lon="2.11719">
        <ele>79.5</ele>
        <time>2022-09-14T12:37:57Z</time>
      </trkpt>
      <trkpt lat="49.93854" lon="2.11718">
        <ele>79.5</ele>
        <time>2022-09-14T12:37:58Z</time>
      </trkpt>
      <trkpt lat="49.93853" lon="2.11717">
        <ele>79.4</ele>
        <time>2022-09-14T12:37:59Z</time>
      </trkpt>
      <trkpt lat="49.93851" lon="2.11716">
        <ele>79.4</ele>
        <time>2022-09-14T12:38:01Z</time>
      </trkpt>
      <trkpt lat="49.9385" lon="2.11715">
        <ele>79.3</ele>
        <time>2022-09-14T12:38:02Z</time>
      </trkpt>
      <trkpt lat="49.93849" lon="2.11714">
        <ele>79.3</ele>
        <time>2022-09-14T12:38:03Z</time>
      </trkpt>
      <trkpt lat="49.93848" lon="2.11714">
        <ele>79.3</ele>
        <time>2022-09-14T12:38:04Z</time>
      </trkpt>
      <trkpt lat="49.93847" lon="2.11713">
        <ele>79.2</ele>
        <time>2022-09-14T12:38:05Z</time>
      </trkpt>
      <trkpt lat="49.93845" lon="2.11712">
        <ele>79.2</ele>
        <time>2022-09-14T12:38:06Z</time>
      </trkpt>
      <trkpt lat="49.93844" lon="2.11712">
        <ele>79.2</ele>
        <time>2022-09-14T12:38:07Z</time>
      </trkpt>
      <trkpt lat="49.93843" lon="2.11712">
        <ele>79.1</ele>
        <time>2022-09-14T12:38:08Z</time>
      </trkpt>
      <trkpt lat="49.93842" lon="2.11711">
        <ele>79.1</ele>
        <time>2022-09-14T12:38:10Z</time>
      </trkpt>
      <trkpt lat="49.93841" lon="2.11711">
        <ele>79.1</ele>
        <time>2022-09-14T12:38:11Z</time>
      </trkpt>
      <trkpt lat="49.9384" lon="2.1171">
        <ele>79</ele>
        <time>2022-09-14T12:38:12Z</time>
      </trkpt>
      <trkpt lat="49.93839" lon="2.1171">
        <ele>79</ele>
        <time>2022-09-14T12:38:13Z</time>
      </trkpt>
      <trkpt lat="49.93839" lon="2.11709">
        <ele>79</ele>
        <time>2022-09-14T12:38:14Z</time>
      </trkpt>
      <trkpt lat="49.93838" lon="2.11709">
        <ele>78.9</ele>
        <time>2022-09-14T12:38:15Z</time>
      </trkpt>
      <trkpt lat="49.93837" lon="2.11709">
        <ele>78.9</ele>
        <time>2022-09-14T12:38:16Z</time>
      </trkpt>
      <trkpt lat="49.93835" lon="2.11708">
        <ele>78.8</ele>
        <time>2022-09-14T12:38:17Z</time>
      </trkpt>
      <trkpt lat="49.93834" lon="2.11708">
        <ele>78.8</ele>
        <time>2022-09-14T12:38:19Z</time>
      </trkpt>
      <trkpt lat="49.93833" lon="2.11708">
        <ele>78.8</ele>
        <time>2022-09-14T12:38:20Z</time>
      </trkpt>
      <trkpt lat="49.93832" lon="2.11708">
        <ele>78.7</ele>
        <time>2022-09-14T12:38:21Z</time>
      </trkpt>
      <trkpt lat="49.93831" lon="2.11708">
        <ele>78.7</ele>
        <time>2022-09-14T12:38:22Z</time>
      </trkpt>
      <trkpt lat="49.93829" lon="2.11708">
        <ele>78.6</ele>
        <time>2022-09-14T12:38:23Z</time>
      </trkpt>
      <trkpt lat="49.93828" lon="2.11708">
        <ele>78.5</ele>
        <time>2022-09-14T12:38:25Z</time>
      </trkpt>
      <trkpt lat="49.93827" lon="2.11708">
        <ele>78.5</ele>
        <time>2022-09-14T12:38:26Z</time>
      </trkpt>
      <trkpt lat="49.93825" lon="2.11707">
        <ele>78.4</ele>
        <time>2022-09-14T12:38:28Z</time>
      </trkpt>
      <trkpt lat="49.93824" lon="2.11707">
        <ele>78.4</ele>
        <time>2022-09-14T12:38:29Z</time>
      </trkpt>
      <trkpt lat="49.93822" lon="2.11706">
        <ele>78.3</ele>
        <time>2022-09-14T12:38:30Z</time>
      </trkpt>
      <trkpt lat="49.93821" lon="2.11706">
        <ele>78.3</ele>
        <time>2022-09-14T12:38:31Z</time>
      </trkpt>
      <trkpt lat="49.9382" lon="2.11705">
        <ele>78.3</ele>
        <time>2022-09-14T12:38:32Z</time>
      </trkpt>
      <trkpt lat="49.93819" lon="2.11705">
        <ele>78.2</ele>
        <time>2022-09-14T12:38:33Z</time>
      </trkpt>
      <trkpt lat="49.93818" lon="2.11704">
        <ele>78.2</ele>
        <time>2022-09-14T12:38:34Z</time>
      </trkpt>
      <trkpt lat="49.93817" lon="2.11704">
        <ele>78.1</ele>
        <time>2022-09-14T12:38:35Z</time>
      </trkpt>
      <trkpt lat="49.93816" lon="2.11703">
        <ele>78.1</ele>
        <time>2022-09-14T12:38:37Z</time>
      </trkpt>
      <trkpt lat="49.93814" lon="2.11702">
        <ele>78.1</ele>
        <time>2022-09-14T12:38:38Z</time>
      </trkpt>
      <trkpt lat="49.93813" lon="2.11701">
        <ele>78</ele>
        <time>2022-09-14T12:38:39Z</time>
      </trkpt>
      <trkpt lat="49.93811" lon="2.11699">
        <ele>78</ele>
        <time>2022-09-14T12:38:40Z</time>
      </trkpt>
      <trkpt lat="49.9381" lon="2.11698">
        <ele>77.9</ele>
        <time>2022-09-14T12:38:41Z</time>
      </trkpt>
      <trkpt lat="49.9381" lon="2.11698">
        <ele>77.9</ele>
        <time>2022-09-14T12:38:42Z</time>
      </trkpt>
      <trkpt lat="49.93808" lon="2.11696">
        <ele>77.9</ele>
        <time>2022-09-14T12:38:44Z</time>
      </trkpt>
      <trkpt lat="49.93807" lon="2.11695">
        <ele>77.9</ele>
        <time>2022-09-14T12:38:45Z</time>
      </trkpt>
      <trkpt lat="49.93806" lon="2.11694">
        <ele>77.8</ele>
        <time>2022-09-14T12:38:46Z</time>
      </trkpt>
      <trkpt lat="49.93805" lon="2.11694">
        <ele>77.8</ele>
        <time>2022-09-14T12:38:47Z</time>
      </trkpt>
      <trkpt lat="49.93803" lon="2.11692">
        <ele>77.8</ele>
        <time>2022-09-14T12:38:49Z</time>
      </trkpt>
      <trkpt lat="49.93801" lon="2.1169">
        <ele>77.8</ele>
        <time>2022-09-14T12:38:50Z</time>
      </trkpt>
      <trkpt lat="49.938" lon="2.1169">
        <ele>77.8</ele>
        <time>2022-09-14T12:38:51Z</time>
      </trkpt>
      <trkpt lat="49.93799" lon="2.11689">
        <ele>77.7</ele>
        <time>2022-09-14T12:38:52Z</time>
      </trkpt>
      <trkpt lat="49.93798" lon="2.11688">
        <ele>77.7</ele>
        <time>2022-09-14T12:38:53Z</time>
      </trkpt>
      <trkpt lat="49.93797" lon="2.11688">
        <ele>77.7</ele>
        <time>2022-09-14T12:38:54Z</time>
      </trkpt>
      <trkpt lat="49.93796" lon="2.11687">
        <ele>77.7</ele>
        <time>2022-09-14T12:38:56Z</time>
      </trkpt>
      <trkpt lat="49.93794" lon="2.11687">
        <ele>77.7</ele>
        <time>2022-09-14T12:38:57Z</time>
      </trkpt>
      <trkpt lat="49.93793" lon="2.11686">
        <ele>77.7</ele>
        <time>2022-09-14T12:38:58Z</time>
      </trkpt>
      <trkpt lat="49.93792" lon="2.11685">
        <ele>77.7</ele>
        <time>2022-09-14T12:38:59Z</time>
      </trkpt>
      <trkpt lat="49.93791" lon="2.11685">
        <ele>77.7</ele>
        <time>2022-09-14T12:39:00Z</time>
      </trkpt>
      <trkpt lat="49.9379" lon="2.11684">
        <ele>77.7</ele>
        <time>2022-09-14T12:39:01Z</time>
      </trkpt>
      <trkpt lat="49.93789" lon="2.11684">
        <ele>77.7</ele>
        <time>2022-09-14T12:39:02Z</time>
      </trkpt>
      <trkpt lat="49.93787" lon="2.11684">
        <ele>77.7</ele>
        <time>2022-09-14T12:39:03Z</time>
      </trkpt>
      <trkpt lat="49.93786" lon="2.11684">
        <ele>77.7</ele>
        <time>2022-09-14T12:39:05Z</time>
      </trkpt>
      <trkpt lat="49.93784" lon="2.11683">
        <ele>77.7</ele>
        <time>2022-09-14T12:39:06Z</time>
      </trkpt>
      <trkpt lat="49.93783" lon="2.11682">
        <ele>77.7</ele>
        <time>2022-09-14T12:39:08Z</time>
      </trkpt>
      <trkpt lat="49.93781" lon="2.11682">
        <ele>77.7</ele>
        <time>2022-09-14T12:39:09Z</time>
      </trkpt>
      <trkpt lat="49.9378" lon="2.11681">
        <ele>77.7</ele>
        <time>2022-09-14T12:39:10Z</time>
      </trkpt>
      <trkpt lat="49.93779" lon="2.1168">
        <ele>77.7</ele>
        <time>2022-09-14T12:39:11Z</time>
      </trkpt>
      <trkpt lat="49.93778" lon="2.1168">
        <ele>77.7</ele>
        <time>2022-09-14T12:39:12Z</time>
      </trkpt>
      <trkpt lat="49.93777" lon="2.11679">
        <ele>77.7</ele>
        <time>2022-09-14T12:39:13Z</time>
      </trkpt>
      <trkpt lat="49.93775" lon="2.11679">
        <ele>77.7</ele>
        <time>2022-09-14T12:39:14Z</time>
      </trkpt>
      <trkpt lat="49.93775" lon="2.11678">
        <ele>77.7</ele>
        <time>2022-09-14T12:39:15Z</time>
      </trkpt>
      <trkpt lat="49.93773" lon="2.11678">
        <ele>77.7</ele>
        <time>2022-09-14T12:39:16Z</time>
      </trkpt>
      <trkpt lat="49.93772" lon="2.11677">
        <ele>77.7</ele>
        <time>2022-09-14T12:39:17Z</time>
      </trkpt>
      <trkpt lat="49.93771" lon="2.11677">
        <ele>77.7</ele>
        <time>2022-09-14T12:39:19Z</time>
      </trkpt>
      <trkpt lat="49.93769" lon="2.11676">
        <ele>77.7</ele>
        <time>2022-09-14T12:39:20Z</time>
      </trkpt>
      <trkpt lat="49.93767" lon="2.11676">
        <ele>77.7</ele>
        <time>2022-09-14T12:39:21Z</time>
      </trkpt>
      <trkpt lat="49.93766" lon="2.11676">
        <ele>77.7</ele>
        <time>2022-09-14T12:39:22Z</time>
      </trkpt>
      <trkpt lat="49.93765" lon="2.11676">
        <ele>77.7</ele>
        <time>2022-09-14T12:39:23Z</time>
      </trkpt>
      <trkpt lat="49.93764" lon="2.11676">
        <ele>77.7</ele>
        <time>2022-09-14T12:39:25Z</time>
      </trkpt>
      <trkpt lat="49.93763" lon="2.11675">
        <ele>77.7</ele>
        <time>2022-09-14T12:39:26Z</time>
      </trkpt>
      <trkpt lat="49.93761" lon="2.11675">
        <ele>77.7</ele>
        <time>2022-09-14T12:39:27Z</time>
      </trkpt>
      <trkpt lat="49.9376" lon="2.11675">
        <ele>77.7</ele>
        <time>2022-09-14T12:39:28Z</time>
      </trkpt>
      <trkpt lat="49.93757" lon="2.11675">
        <ele>77.8</ele>
        <time>2022-09-14T12:39:29Z</time>
      </trkpt>
      <trkpt lat="49.93756" lon="2.11675">
        <ele>77.8</ele>
        <time>2022-09-14T12:39:30Z</time>
      </trkpt>
      <trkpt lat="49.93754" lon="2.11674">
        <ele>77.8</ele>
        <time>2022-09-14T12:39:31Z</time>
      </trkpt>
      <trkpt lat="49.93753" lon="2.11673">
        <ele>77.8</ele>
        <time>2022-09-14T12:39:32Z</time>
      </trkpt>
      <trkpt lat="49.93752" lon="2.11673">
        <ele>77.8</ele>
        <time>2022-09-14T12:39:33Z</time>
      </trkpt>
      <trkpt lat="49.93751" lon="2.11673">
        <ele>77.9</ele>
        <time>2022-09-14T12:39:35Z</time>
      </trkpt>
      <trkpt lat="49.93749" lon="2.11672">
        <ele>77.9</ele>
        <time>2022-09-14T12:39:36Z</time>
      </trkpt>
      <trkpt lat="49.93748" lon="2.11672">
        <ele>77.9</ele>
        <time>2022-09-14T12:39:37Z</time>
      </trkpt>
      <trkpt lat="49.93747" lon="2.11671">
        <ele>77.9</ele>
        <time>2022-09-14T12:39:38Z</time>
      </trkpt>
      <trkpt lat="49.93746" lon="2.11671">
        <ele>77.9</ele>
        <time>2022-09-14T12:39:39Z</time>
      </trkpt>
      <trkpt lat="49.93744" lon="2.1167">
        <ele>77.9</ele>
        <time>2022-09-14T12:39:40Z</time>
      </trkpt>
      <trkpt lat="49.93744" lon="2.1167">
        <ele>77.9</ele>
        <time>2022-09-14T12:39:41Z</time>
      </trkpt>
      <trkpt lat="49.93743" lon="2.11669">
        <ele>78</ele>
        <time>2022-09-14T12:39:42Z</time>
      </trkpt>
      <trkpt lat="49.93741" lon="2.11668">
        <ele>78</ele>
        <time>2022-09-14T12:39:43Z</time>
      </trkpt>
      <trkpt lat="49.9374" lon="2.11667">
        <ele>78</ele>
        <time>2022-09-14T12:39:44Z</time>
      </trkpt>
      <trkpt lat="49.93739" lon="2.11666">
        <ele>78</ele>
        <time>2022-09-14T12:39:45Z</time>
      </trkpt>
      <trkpt lat="49.93737" lon="2.11666">
        <ele>78</ele>
        <time>2022-09-14T12:39:46Z</time>
      </trkpt>
      <trkpt lat="49.93736" lon="2.11665">
        <ele>78</ele>
        <time>2022-09-14T12:39:48Z</time>
      </trkpt>
      <trkpt lat="49.93734" lon="2.11665">
        <ele>78.1</ele>
        <time>2022-09-14T12:39:49Z</time>
      </trkpt>
      <trkpt lat="49.93733" lon="2.11664">
        <ele>78.1</ele>
        <time>2022-09-14T12:39:50Z</time>
      </trkpt>
      <trkpt lat="49.93732" lon="2.11664">
        <ele>78.1</ele>
        <time>2022-09-14T12:39:51Z</time>
      </trkpt>
      <trkpt lat="49.93731" lon="2.11663">
        <ele>78.1</ele>
        <time>2022-09-14T12:39:52Z</time>
      </trkpt>
      <trkpt lat="49.9373" lon="2.11662">
        <ele>78.1</ele>
        <time>2022-09-14T12:39:54Z</time>
      </trkpt>
      <trkpt lat="49.93729" lon="2.11661">
        <ele>78.1</ele>
        <time>2022-09-14T12:39:55Z</time>
      </trkpt>
      <trkpt lat="49.93728" lon="2.11661">
        <ele>78.1</ele>
        <time>2022-09-14T12:39:56Z</time>
      </trkpt>
      <trkpt lat="49.93727" lon="2.11661">
        <ele>78.2</ele>
        <time>2022-09-14T12:39:57Z</time>
      </trkpt>
      <trkpt lat="49.93725" lon="2.1166">
        <ele>78.2</ele>
        <time>2022-09-14T12:39:58Z</time>
      </trkpt>
      <trkpt lat="49.93724" lon="2.11659">
        <ele>78.2</ele>
        <time>2022-09-14T12:39:59Z</time>
      </trkpt>
      <trkpt lat="49.93723" lon="2.11658">
        <ele>78.2</ele>
        <time>2022-09-14T12:40:00Z</time>
      </trkpt>
      <trkpt lat="49.93722" lon="2.11658">
        <ele>78.2</ele>
        <time>2022-09-14T12:40:01Z</time>
      </trkpt>
      <trkpt lat="49.93721" lon="2.11657">
        <ele>78.2</ele>
        <time>2022-09-14T12:40:02Z</time>
      </trkpt>
      <trkpt lat="49.93721" lon="2.11657">
        <ele>78.3</ele>
        <time>2022-09-14T12:40:03Z</time>
      </trkpt>
      <trkpt lat="49.9372" lon="2.11656">
        <ele>78.3</ele>
        <time>2022-09-14T12:40:05Z</time>
      </trkpt>
      <trkpt lat="49.93718" lon="2.11656">
        <ele>78.3</ele>
        <time>2022-09-14T12:40:06Z</time>
      </trkpt>
      <trkpt lat="49.93717" lon="2.11655">
        <ele>78.3</ele>
        <time>2022-09-14T12:40:07Z</time>
      </trkpt>
      <trkpt lat="49.93716" lon="2.11655">
        <ele>78.3</ele>
        <time>2022-09-14T12:40:08Z</time>
      </trkpt>
      <trkpt lat="49.93715" lon="2.11653">
        <ele>78.4</ele>
        <time>2022-09-14T12:40:10Z</time>
      </trkpt>
      <trkpt lat="49.93714" lon="2.11652">
        <ele>78.4</ele>
        <time>2022-09-14T12:40:11Z</time>
      </trkpt>
      <trkpt lat="49.93713" lon="2.11651">
        <ele>78.4</ele>
        <time>2022-09-14T12:40:12Z</time>
      </trkpt>
      <trkpt lat="49.93712" lon="2.11651">
        <ele>78.4</ele>
        <time>2022-09-14T12:40:13Z</time>
      </trkpt>
      <trkpt lat="49.9371" lon="2.11649">
        <ele>78.5</ele>
        <time>2022-09-14T12:40:15Z</time>
      </trkpt>
      <trkpt lat="49.93709" lon="2.11648">
        <ele>78.5</ele>
        <time>2022-09-14T12:40:16Z</time>
      </trkpt>
      <trkpt lat="49.93708" lon="2.11647">
        <ele>78.5</ele>
        <time>2022-09-14T12:40:17Z</time>
      </trkpt>
      <trkpt lat="49.93707" lon="2.11647">
        <ele>78.6</ele>
        <time>2022-09-14T12:40:18Z</time>
      </trkpt>
      <trkpt lat="49.93706" lon="2.11646">
        <ele>78.6</ele>
        <time>2022-09-14T12:40:19Z</time>
      </trkpt>
      <trkpt lat="49.93704" lon="2.11643">
        <ele>78.6</ele>
        <time>2022-09-14T12:40:21Z</time>
      </trkpt>
      <trkpt lat="49.93704" lon="2.11642">
        <ele>78.7</ele>
        <time>2022-09-14T12:40:22Z</time>
      </trkpt>
      <trkpt lat="49.93703" lon="2.11641">
        <ele>78.7</ele>
        <time>2022-09-14T12:40:23Z</time>
      </trkpt>
      <trkpt lat="49.93702" lon="2.1164">
        <ele>78.7</ele>
        <time>2022-09-14T12:40:24Z</time>
      </trkpt>
      <trkpt lat="49.937" lon="2.11638">
        <ele>78.8</ele>
        <time>2022-09-14T12:40:25Z</time>
      </trkpt>
      <trkpt lat="49.937" lon="2.11637">
        <ele>78.8</ele>
        <time>2022-09-14T12:40:26Z</time>
      </trkpt>
      <trkpt lat="49.93698" lon="2.11635">
        <ele>78.8</ele>
        <time>2022-09-14T12:40:28Z</time>
      </trkpt>
      <trkpt lat="49.93697" lon="2.11634">
        <ele>78.8</ele>
        <time>2022-09-14T12:40:29Z</time>
      </trkpt>
      <trkpt lat="49.93697" lon="2.11634">
        <ele>78.9</ele>
        <time>2022-09-14T12:40:30Z</time>
      </trkpt>
      <trkpt lat="49.93695" lon="2.11632">
        <ele>78.9</ele>
        <time>2022-09-14T12:40:31Z</time>
      </trkpt>
      <trkpt lat="49.93695" lon="2.11632">
        <ele>78.9</ele>
        <time>2022-09-14T12:40:32Z</time>
      </trkpt>
      <trkpt lat="49.93694" lon="2.11631">
        <ele>78.9</ele>
        <time>2022-09-14T12:40:33Z</time>
      </trkpt>
      <trkpt lat="49.93693" lon="2.1163">
        <ele>79</ele>
        <time>2022-09-14T12:40:34Z</time>
      </trkpt>
      <trkpt lat="49.93691" lon="2.11629">
        <ele>79</ele>
        <time>2022-09-14T12:40:36Z</time>
      </trkpt>
      <trkpt lat="49.9369" lon="2.11628">
        <ele>79</ele>
        <time>2022-09-14T12:40:37Z</time>
      </trkpt>
      <trkpt lat="49.93689" lon="2.11627">
        <ele>79.1</ele>
        <time>2022-09-14T12:40:38Z</time>
      </trkpt>
      <trkpt lat="49.93688" lon="2.11626">
        <ele>79.1</ele>
        <time>2022-09-14T12:40:39Z</time>
      </trkpt>
      <trkpt lat="49.93686" lon="2.11624">
        <ele>79.2</ele>
        <time>2022-09-14T12:40:40Z</time>
      </trkpt>
      <trkpt lat="49.93685" lon="2.11623">
        <ele>79.2</ele>
        <time>2022-09-14T12:40:42Z</time>
      </trkpt>
      <trkpt lat="49.93684" lon="2.11622">
        <ele>79.3</ele>
        <time>2022-09-14T12:40:43Z</time>
      </trkpt>
      <trkpt lat="49.93683" lon="2.11621">
        <ele>79.3</ele>
        <time>2022-09-14T12:40:44Z</time>
      </trkpt>
      <trkpt lat="49.93682" lon="2.1162">
        <ele>79.3</ele>
        <time>2022-09-14T12:40:45Z</time>
      </trkpt>
      <trkpt lat="49.93681" lon="2.1162">
        <ele>79.3</ele>
        <time>2022-09-14T12:40:46Z</time>
      </trkpt>
      <trkpt lat="49.9368" lon="2.11619">
        <ele>79.4</ele>
        <time>2022-09-14T12:40:47Z</time>
      </trkpt>
      <trkpt lat="49.93679" lon="2.11619">
        <ele>79.4</ele>
        <time>2022-09-14T12:40:48Z</time>
      </trkpt>
      <trkpt lat="49.93678" lon="2.11618">
        <ele>79.4</ele>
        <time>2022-09-14T12:40:49Z</time>
      </trkpt>
      <trkpt lat="49.93676" lon="2.11617">
        <ele>79.5</ele>
        <time>2022-09-14T12:40:51Z</time>
      </trkpt>
      <trkpt lat="49.93675" lon="2.11616">
        <ele>79.5</ele>
        <time>2022-09-14T12:40:52Z</time>
      </trkpt>
      <trkpt lat="49.93675" lon="2.11615">
        <ele>79.5</ele>
        <time>2022-09-14T12:40:53Z</time>
      </trkpt>
      <trkpt lat="49.93673" lon="2.11615">
        <ele>79.6</ele>
        <time>2022-09-14T12:40:54Z</time>
      </trkpt>
      <trkpt lat="49.93671" lon="2.11613">
        <ele>79.7</ele>
        <time>2022-09-14T12:40:55Z</time>
      </trkpt>
      <trkpt lat="49.9367" lon="2.11612">
        <ele>79.7</ele>
        <time>2022-09-14T12:40:57Z</time>
      </trkpt>
      <trkpt lat="49.93669" lon="2.11611">
        <ele>79.7</ele>
        <time>2022-09-14T12:40:58Z</time>
      </trkpt>
      <trkpt lat="49.93668" lon="2.1161">
        <ele>79.8</ele>
        <time>2022-09-14T12:40:59Z</time>
      </trkpt>
      <trkpt lat="49.93667" lon="2.11609">
        <ele>79.8</ele>
        <time>2022-09-14T12:41:00Z</time>
      </trkpt>
      <trkpt lat="49.93666" lon="2.11609">
        <ele>79.8</ele>
        <time>2022-09-14T12:41:01Z</time>
      </trkpt>
      <trkpt lat="49.93665" lon="2.11608">
        <ele>79.8</ele>
        <time>2022-09-14T12:41:03Z</time>
      </trkpt>
      <trkpt lat="49.93664" lon="2.11607">
        <ele>79.9</ele>
        <time>2022-09-14T12:41:04Z</time>
      </trkpt>
      <trkpt lat="49.93663" lon="2.11605">
        <ele>79.9</ele>
        <time>2022-09-14T12:41:05Z</time>
      </trkpt>
      <trkpt lat="49.93661" lon="2.11603">
        <ele>80</ele>
        <time>2022-09-14T12:41:06Z</time>
      </trkpt>
      <trkpt lat="49.9366" lon="2.11602">
        <ele>80</ele>
        <time>2022-09-14T12:41:08Z</time>
      </trkpt>
      <trkpt lat="49.93659" lon="2.11601">
        <ele>80.1</ele>
        <time>2022-09-14T12:41:09Z</time>
      </trkpt>
      <trkpt lat="49.93658" lon="2.116">
        <ele>80.1</ele>
        <time>2022-09-14T12:41:10Z</time>
      </trkpt>
      <trkpt lat="49.93657" lon="2.11599">
        <ele>80.1</ele>
        <time>2022-09-14T12:41:11Z</time>
      </trkpt>
      <trkpt lat="49.93656" lon="2.11598">
        <ele>80.2</ele>
        <time>2022-09-14T12:41:12Z</time>
      </trkpt>
      <trkpt lat="49.93655" lon="2.11597">
        <ele>80.2</ele>
        <time>2022-09-14T12:41:13Z</time>
      </trkpt>
      <trkpt lat="49.93653" lon="2.11596">
        <ele>80.2</ele>
        <time>2022-09-14T12:41:14Z</time>
      </trkpt>
      <trkpt lat="49.93651" lon="2.11594">
        <ele>80.3</ele>
        <time>2022-09-14T12:41:16Z</time>
      </trkpt>
      <trkpt lat="49.9365" lon="2.11593">
        <ele>80.3</ele>
        <time>2022-09-14T12:41:17Z</time>
      </trkpt>
      <trkpt lat="49.93649" lon="2.11592">
        <ele>80.4</ele>
        <time>2022-09-14T12:41:18Z</time>
      </trkpt>
      <trkpt lat="49.93648" lon="2.11591">
        <ele>80.4</ele>
        <time>2022-09-14T12:41:19Z</time>
      </trkpt>
      <trkpt lat="49.93646" lon="2.1159">
        <ele>80.5</ele>
        <time>2022-09-14T12:41:20Z</time>
      </trkpt>
      <trkpt lat="49.93645" lon="2.11589">
        <ele>80.5</ele>
        <time>2022-09-14T12:41:21Z</time>
      </trkpt>
      <trkpt lat="49.93643" lon="2.11587">
        <ele>80.5</ele>
        <time>2022-09-14T12:41:23Z</time>
      </trkpt>
      <trkpt lat="49.93643" lon="2.11587">
        <ele>80.5</ele>
        <time>2022-09-14T12:41:24Z</time>
      </trkpt>
      <trkpt lat="49.93642" lon="2.11586">
        <ele>80.6</ele>
        <time>2022-09-14T12:41:25Z</time>
      </trkpt>
      <trkpt lat="49.9364" lon="2.11585">
        <ele>80.6</ele>
        <time>2022-09-14T12:41:26Z</time>
      </trkpt>
      <trkpt lat="49.93639" lon="2.11584">
        <ele>80.6</ele>
        <time>2022-09-14T12:41:27Z</time>
      </trkpt>
      <trkpt lat="49.93639" lon="2.11584">
        <ele>80.7</ele>
        <time>2022-09-14T12:41:28Z</time>
      </trkpt>
      <trkpt lat="49.93638" lon="2.11583">
        <ele>80.7</ele>
        <time>2022-09-14T12:41:30Z</time>
      </trkpt>
      <trkpt lat="49.93636" lon="2.11582">
        <ele>80.7</ele>
        <time>2022-09-14T12:41:31Z</time>
      </trkpt>
      <trkpt lat="49.93635" lon="2.11581">
        <ele>80.8</ele>
        <time>2022-09-14T12:41:32Z</time>
      </trkpt>
      <trkpt lat="49.93634" lon="2.1158">
        <ele>80.8</ele>
        <time>2022-09-14T12:41:33Z</time>
      </trkpt>
      <trkpt lat="49.93634" lon="2.11579">
        <ele>80.8</ele>
        <time>2022-09-14T12:41:34Z</time>
      </trkpt>
      <trkpt lat="49.93633" lon="2.11579">
        <ele>80.8</ele>
        <time>2022-09-14T12:41:35Z</time>
      </trkpt>
      <trkpt lat="49.93631" lon="2.11577">
        <ele>80.9</ele>
        <time>2022-09-14T12:41:36Z</time>
      </trkpt>
      <trkpt lat="49.9363" lon="2.11577">
        <ele>80.9</ele>
        <time>2022-09-14T12:41:37Z</time>
      </trkpt>
      <trkpt lat="49.93629" lon="2.11576">
        <ele>80.9</ele>
        <time>2022-09-14T12:41:38Z</time>
      </trkpt>
      <trkpt lat="49.93628" lon="2.11575">
        <ele>81</ele>
        <time>2022-09-14T12:41:39Z</time>
      </trkpt>
      <trkpt lat="49.93627" lon="2.11574">
        <ele>81</ele>
        <time>2022-09-14T12:41:41Z</time>
      </trkpt>
      <trkpt lat="49.93625" lon="2.11572">
        <ele>81.1</ele>
        <time>2022-09-14T12:41:42Z</time>
      </trkpt>
      <trkpt lat="49.93624" lon="2.11572">
        <ele>81.1</ele>
        <time>2022-09-14T12:41:43Z</time>
      </trkpt>
      <trkpt lat="49.93622" lon="2.11571">
        <ele>81.1</ele>
        <time>2022-09-14T12:41:44Z</time>
      </trkpt>
      <trkpt lat="49.93622" lon="2.1157">
        <ele>81.1</ele>
        <time>2022-09-14T12:41:45Z</time>
      </trkpt>
      <trkpt lat="49.93621" lon="2.11569">
        <ele>81.2</ele>
        <time>2022-09-14T12:41:46Z</time>
      </trkpt>
      <trkpt lat="49.93619" lon="2.11568">
        <ele>81.2</ele>
        <time>2022-09-14T12:41:47Z</time>
      </trkpt>
      <trkpt lat="49.93618" lon="2.11568">
        <ele>81.3</ele>
        <time>2022-09-14T12:41:49Z</time>
      </trkpt>
      <trkpt lat="49.93617" lon="2.11567">
        <ele>81.3</ele>
        <time>2022-09-14T12:41:50Z</time>
      </trkpt>
      <trkpt lat="49.93615" lon="2.11566">
        <ele>81.3</ele>
        <time>2022-09-14T12:41:51Z</time>
      </trkpt>
      <trkpt lat="49.93615" lon="2.11565">
        <ele>81.4</ele>
        <time>2022-09-14T12:41:52Z</time>
      </trkpt>
      <trkpt lat="49.93613" lon="2.11564">
        <ele>81.4</ele>
        <time>2022-09-14T12:41:54Z</time>
      </trkpt>
      <trkpt lat="49.93613" lon="2.11562">
        <ele>81.4</ele>
        <time>2022-09-14T12:41:55Z</time>
      </trkpt>
      <trkpt lat="49.93612" lon="2.11561">
        <ele>81.5</ele>
        <time>2022-09-14T12:41:56Z</time>
      </trkpt>
      <trkpt lat="49.93611" lon="2.1156">
        <ele>81.5</ele>
        <time>2022-09-14T12:41:57Z</time>
      </trkpt>
      <trkpt lat="49.9361" lon="2.11559">
        <ele>81.5</ele>
        <time>2022-09-14T12:41:58Z</time>
      </trkpt>
      <trkpt lat="49.93609" lon="2.11557">
        <ele>81.6</ele>
        <time>2022-09-14T12:41:59Z</time>
      </trkpt>
      <trkpt lat="49.93608" lon="2.11556">
        <ele>81.6</ele>
        <time>2022-09-14T12:42:01Z</time>
      </trkpt>
      <trkpt lat="49.93607" lon="2.11555">
        <ele>81.6</ele>
        <time>2022-09-14T12:42:02Z</time>
      </trkpt>
      <trkpt lat="49.93607" lon="2.11553">
        <ele>81.7</ele>
        <time>2022-09-14T12:42:03Z</time>
      </trkpt>
      <trkpt lat="49.93606" lon="2.11552">
        <ele>81.7</ele>
        <time>2022-09-14T12:42:04Z</time>
      </trkpt>
      <trkpt lat="49.93604" lon="2.11549">
        <ele>81.8</ele>
        <time>2022-09-14T12:42:05Z</time>
      </trkpt>
      <trkpt lat="49.93603" lon="2.11548">
        <ele>81.8</ele>
        <time>2022-09-14T12:42:06Z</time>
      </trkpt>
      <trkpt lat="49.93603" lon="2.11547">
        <ele>81.8</ele>
        <time>2022-09-14T12:42:08Z</time>
      </trkpt>
      <trkpt lat="49.93602" lon="2.11546">
        <ele>81.8</ele>
        <time>2022-09-14T12:42:09Z</time>
      </trkpt>
      <trkpt lat="49.93601" lon="2.11545">
        <ele>81.8</ele>
        <time>2022-09-14T12:42:10Z</time>
      </trkpt>
      <trkpt lat="49.93601" lon="2.11544">
        <ele>81.9</ele>
        <time>2022-09-14T12:42:11Z</time>
      </trkpt>
      <trkpt lat="49.936" lon="2.11542">
        <ele>81.9</ele>
        <time>2022-09-14T12:42:13Z</time>
      </trkpt>
      <trkpt lat="49.93598" lon="2.11541">
        <ele>81.9</ele>
        <time>2022-09-14T12:42:14Z</time>
      </trkpt>
      <trkpt lat="49.93597" lon="2.11539">
        <ele>81.9</ele>
        <time>2022-09-14T12:42:16Z</time>
      </trkpt>
      <trkpt lat="49.93596" lon="2.11539">
        <ele>82</ele>
        <time>2022-09-14T12:42:17Z</time>
      </trkpt>
      <trkpt lat="49.93595" lon="2.11538">
        <ele>82</ele>
        <time>2022-09-14T12:42:18Z</time>
      </trkpt>
      <trkpt lat="49.93593" lon="2.11536">
        <ele>82</ele>
        <time>2022-09-14T12:42:19Z</time>
      </trkpt>
      <trkpt lat="49.93592" lon="2.11535">
        <ele>82</ele>
        <time>2022-09-14T12:42:21Z</time>
      </trkpt>
      <trkpt lat="49.93592" lon="2.11534">
        <ele>82</ele>
        <time>2022-09-14T12:42:22Z</time>
      </trkpt>
      <trkpt lat="49.93591" lon="2.11534">
        <ele>82</ele>
        <time>2022-09-14T12:42:23Z</time>
      </trkpt>
      <trkpt lat="49.9359" lon="2.11532">
        <ele>82</ele>
        <time>2022-09-14T12:42:24Z</time>
      </trkpt>
      <trkpt lat="49.93589" lon="2.11531">
        <ele>82</ele>
        <time>2022-09-14T12:42:25Z</time>
      </trkpt>
      <trkpt lat="49.93588" lon="2.1153">
        <ele>82.1</ele>
        <time>2022-09-14T12:42:26Z</time>
      </trkpt>
      <trkpt lat="49.93587" lon="2.11529">
        <ele>82.1</ele>
        <time>2022-09-14T12:42:28Z</time>
      </trkpt>
      <trkpt lat="49.93586" lon="2.11529">
        <ele>82.1</ele>
        <time>2022-09-14T12:42:29Z</time>
      </trkpt>
      <trkpt lat="49.93585" lon="2.11528">
        <ele>82.1</ele>
        <time>2022-09-14T12:42:30Z</time>
      </trkpt>
      <trkpt lat="49.93583" lon="2.11527">
        <ele>82.1</ele>
        <time>2022-09-14T12:42:31Z</time>
      </trkpt>
      <trkpt lat="49.93582" lon="2.11526">
        <ele>82.1</ele>
        <time>2022-09-14T12:42:32Z</time>
      </trkpt>
      <trkpt lat="49.93581" lon="2.11525">
        <ele>82.1</ele>
        <time>2022-09-14T12:42:33Z</time>
      </trkpt>
      <trkpt lat="49.9358" lon="2.11524">
        <ele>82.1</ele>
        <time>2022-09-14T12:42:34Z</time>
      </trkpt>
      <trkpt lat="49.93579" lon="2.11522">
        <ele>82.1</ele>
        <time>2022-09-14T12:42:36Z</time>
      </trkpt>
      <trkpt lat="49.93578" lon="2.11521">
        <ele>82.1</ele>
        <time>2022-09-14T12:42:37Z</time>
      </trkpt>
      <trkpt lat="49.93577" lon="2.11521">
        <ele>82.1</ele>
        <time>2022-09-14T12:42:38Z</time>
      </trkpt>
      <trkpt lat="49.93576" lon="2.11519">
        <ele>82.1</ele>
        <time>2022-09-14T12:42:39Z</time>
      </trkpt>
      <trkpt lat="49.93575" lon="2.11518">
        <ele>82.1</ele>
        <time>2022-09-14T12:42:40Z</time>
      </trkpt>
      <trkpt lat="49.93574" lon="2.11517">
        <ele>82.1</ele>
        <time>2022-09-14T12:42:41Z</time>
      </trkpt>
      <trkpt lat="49.93573" lon="2.11516">
        <ele>82.1</ele>
        <time>2022-09-14T12:42:43Z</time>
      </trkpt>
      <trkpt lat="49.93573" lon="2.11515">
        <ele>82.1</ele>
        <time>2022-09-14T12:42:44Z</time>
      </trkpt>
      <trkpt lat="49.93572" lon="2.11514">
        <ele>82.1</ele>
        <time>2022-09-14T12:42:45Z</time>
      </trkpt>
      <trkpt lat="49.93571" lon="2.11513">
        <ele>82.1</ele>
        <time>2022-09-14T12:42:46Z</time>
      </trkpt>
      <trkpt lat="49.9357" lon="2.11512">
        <ele>82.1</ele>
        <time>2022-09-14T12:42:47Z</time>
      </trkpt>
      <trkpt lat="49.93568" lon="2.11511">
        <ele>82.1</ele>
        <time>2022-09-14T12:42:48Z</time>
      </trkpt>
      <trkpt lat="49.93568" lon="2.1151">
        <ele>82.1</ele>
        <time>2022-09-14T12:42:49Z</time>
      </trkpt>
      <trkpt lat="49.93567" lon="2.11509">
        <ele>82.1</ele>
        <time>2022-09-14T12:42:51Z</time>
      </trkpt>
      <trkpt lat="49.93566" lon="2.11509">
        <ele>82.1</ele>
        <time>2022-09-14T12:42:52Z</time>
      </trkpt>
      <trkpt lat="49.93565" lon="2.11508">
        <ele>82.1</ele>
        <time>2022-09-14T12:42:53Z</time>
      </trkpt>
      <trkpt lat="49.93564" lon="2.11507">
        <ele>82.1</ele>
        <time>2022-09-14T12:42:54Z</time>
      </trkpt>
      <trkpt lat="49.93563" lon="2.11506">
        <ele>82.1</ele>
        <time>2022-09-14T12:42:55Z</time>
      </trkpt>
      <trkpt lat="49.93562" lon="2.11505">
        <ele>82.1</ele>
        <time>2022-09-14T12:42:56Z</time>
      </trkpt>
      <trkpt lat="49.93562" lon="2.11504">
        <ele>82.1</ele>
        <time>2022-09-14T12:42:58Z</time>
      </trkpt>
      <trkpt lat="49.93561" lon="2.11503">
        <ele>82.1</ele>
        <time>2022-09-14T12:42:59Z</time>
      </trkpt>
      <trkpt lat="49.93559" lon="2.11501">
        <ele>82.1</ele>
        <time>2022-09-14T12:43:00Z</time>
      </trkpt>
      <trkpt lat="49.93558" lon="2.115">
        <ele>82.1</ele>
        <time>2022-09-14T12:43:01Z</time>
      </trkpt>
      <trkpt lat="49.93558" lon="2.11499">
        <ele>82.1</ele>
        <time>2022-09-14T12:43:02Z</time>
      </trkpt>
      <trkpt lat="49.93557" lon="2.11498">
        <ele>82.1</ele>
        <time>2022-09-14T12:43:03Z</time>
      </trkpt>
      <trkpt lat="49.93556" lon="2.11497">
        <ele>82.1</ele>
        <time>2022-09-14T12:43:04Z</time>
      </trkpt>
      <trkpt lat="49.93555" lon="2.11495">
        <ele>82.1</ele>
        <time>2022-09-14T12:43:06Z</time>
      </trkpt>
      <trkpt lat="49.93553" lon="2.11493">
        <ele>82.1</ele>
        <time>2022-09-14T12:43:07Z</time>
      </trkpt>
      <trkpt lat="49.93553" lon="2.11492">
        <ele>82</ele>
        <time>2022-09-14T12:43:08Z</time>
      </trkpt>
      <trkpt lat="49.93551" lon="2.11489">
        <ele>82</ele>
        <time>2022-09-14T12:43:09Z</time>
      </trkpt>
      <trkpt lat="49.93551" lon="2.11488">
        <ele>82</ele>
        <time>2022-09-14T12:43:10Z</time>
      </trkpt>
      <trkpt lat="49.9355" lon="2.11487">
        <ele>82</ele>
        <time>2022-09-14T12:43:11Z</time>
      </trkpt>
      <trkpt lat="49.93549" lon="2.11485">
        <ele>82</ele>
        <time>2022-09-14T12:43:12Z</time>
      </trkpt>
      <trkpt lat="49.93548" lon="2.11484">
        <ele>82</ele>
        <time>2022-09-14T12:43:14Z</time>
      </trkpt>
      <trkpt lat="49.93547" lon="2.11483">
        <ele>82</ele>
        <time>2022-09-14T12:43:15Z</time>
      </trkpt>
      <trkpt lat="49.93547" lon="2.11482">
        <ele>82</ele>
        <time>2022-09-14T12:43:16Z</time>
      </trkpt>
      <trkpt lat="49.93545" lon="2.1148">
        <ele>81.9</ele>
        <time>2022-09-14T12:43:17Z</time>
      </trkpt>
      <trkpt lat="49.93545" lon="2.11479">
        <ele>81.9</ele>
        <time>2022-09-14T12:43:18Z</time>
      </trkpt>
      <trkpt lat="49.93544" lon="2.11477">
        <ele>81.9</ele>
        <time>2022-09-14T12:43:19Z</time>
      </trkpt>
      <trkpt lat="49.93543" lon="2.11476">
        <ele>81.9</ele>
        <time>2022-09-14T12:43:20Z</time>
      </trkpt>
      <trkpt lat="49.93542" lon="2.11474">
        <ele>81.9</ele>
        <time>2022-09-14T12:43:21Z</time>
      </trkpt>
      <trkpt lat="49.93542" lon="2.11473">
        <ele>81.9</ele>
        <time>2022-09-14T12:43:23Z</time>
      </trkpt>
      <trkpt lat="49.93541" lon="2.11471">
        <ele>81.9</ele>
        <time>2022-09-14T12:43:24Z</time>
      </trkpt>
      <trkpt lat="49.9354" lon="2.11469">
        <ele>81.9</ele>
        <time>2022-09-14T12:43:25Z</time>
      </trkpt>
      <trkpt lat="49.93539" lon="2.11468">
        <ele>81.9</ele>
        <time>2022-09-14T12:43:26Z</time>
      </trkpt>
      <trkpt lat="49.93539" lon="2.11466">
        <ele>81.9</ele>
        <time>2022-09-14T12:43:27Z</time>
      </trkpt>
      <trkpt lat="49.93538" lon="2.11465">
        <ele>81.9</ele>
        <time>2022-09-14T12:43:28Z</time>
      </trkpt>
      <trkpt lat="49.93538" lon="2.11464">
        <ele>81.9</ele>
        <time>2022-09-14T12:43:30Z</time>
      </trkpt>
      <trkpt lat="49.93537" lon="2.11462">
        <ele>81.9</ele>
        <time>2022-09-14T12:43:31Z</time>
      </trkpt>
      <trkpt lat="49.93536" lon="2.11459">
        <ele>81.9</ele>
        <time>2022-09-14T12:43:32Z</time>
      </trkpt>
      <trkpt lat="49.93536" lon="2.11458">
        <ele>81.9</ele>
        <time>2022-09-14T12:43:33Z</time>
      </trkpt>
      <trkpt lat="49.93535" lon="2.11457">
        <ele>81.9</ele>
        <time>2022-09-14T12:43:34Z</time>
      </trkpt>
      <trkpt lat="49.93534" lon="2.11454">
        <ele>81.9</ele>
        <time>2022-09-14T12:43:35Z</time>
      </trkpt>
      <trkpt lat="49.93534" lon="2.11453">
        <ele>81.9</ele>
        <time>2022-09-14T12:43:37Z</time>
      </trkpt>
      <trkpt lat="49.93533" lon="2.11452">
        <ele>81.9</ele>
        <time>2022-09-14T12:43:38Z</time>
      </trkpt>
      <trkpt lat="49.93533" lon="2.11451">
        <ele>81.9</ele>
        <time>2022-09-14T12:43:39Z</time>
      </trkpt>
      <trkpt lat="49.93532" lon="2.1145">
        <ele>81.9</ele>
        <time>2022-09-14T12:43:40Z</time>
      </trkpt>
      <trkpt lat="49.93531" lon="2.11448">
        <ele>81.9</ele>
        <time>2022-09-14T12:43:41Z</time>
      </trkpt>
      <trkpt lat="49.9353" lon="2.11447">
        <ele>81.9</ele>
        <time>2022-09-14T12:43:42Z</time>
      </trkpt>
      <trkpt lat="49.93529" lon="2.11445">
        <ele>81.9</ele>
        <time>2022-09-14T12:43:43Z</time>
      </trkpt>
      <trkpt lat="49.93529" lon="2.11444">
        <ele>81.9</ele>
        <time>2022-09-14T12:43:44Z</time>
      </trkpt>
      <trkpt lat="49.93528" lon="2.11443">
        <ele>81.9</ele>
        <time>2022-09-14T12:43:45Z</time>
      </trkpt>
      <trkpt lat="49.93527" lon="2.11442">
        <ele>81.9</ele>
        <time>2022-09-14T12:43:46Z</time>
      </trkpt>
      <trkpt lat="49.93525" lon="2.11439">
        <ele>81.9</ele>
        <time>2022-09-14T12:43:48Z</time>
      </trkpt>
      <trkpt lat="49.93525" lon="2.11438">
        <ele>81.9</ele>
        <time>2022-09-14T12:43:49Z</time>
      </trkpt>
      <trkpt lat="49.93524" lon="2.11438">
        <ele>81.9</ele>
        <time>2022-09-14T12:43:50Z</time>
      </trkpt>
      <trkpt lat="49.93524" lon="2.11437">
        <ele>81.9</ele>
        <time>2022-09-14T12:43:51Z</time>
      </trkpt>
      <trkpt lat="49.93522" lon="2.11434">
        <ele>81.9</ele>
        <time>2022-09-14T12:43:53Z</time>
      </trkpt>
      <trkpt lat="49.93522" lon="2.11433">
        <ele>81.9</ele>
        <time>2022-09-14T12:43:54Z</time>
      </trkpt>
      <trkpt lat="49.93521" lon="2.11432">
        <ele>81.9</ele>
        <time>2022-09-14T12:43:55Z</time>
      </trkpt>
      <trkpt lat="49.9352" lon="2.11431">
        <ele>81.9</ele>
        <time>2022-09-14T12:43:56Z</time>
      </trkpt>
      <trkpt lat="49.93519" lon="2.11429">
        <ele>81.9</ele>
        <time>2022-09-14T12:43:58Z</time>
      </trkpt>
      <trkpt lat="49.93519" lon="2.11428">
        <ele>81.9</ele>
        <time>2022-09-14T12:43:59Z</time>
      </trkpt>
      <trkpt lat="49.93518" lon="2.11426">
        <ele>81.9</ele>
        <time>2022-09-14T12:44:00Z</time>
      </trkpt>
      <trkpt lat="49.93517" lon="2.11425">
        <ele>81.9</ele>
        <time>2022-09-14T12:44:02Z</time>
      </trkpt>
      <trkpt lat="49.93516" lon="2.11423">
        <ele>81.9</ele>
        <time>2022-09-14T12:44:03Z</time>
      </trkpt>
      <trkpt lat="49.93516" lon="2.11422">
        <ele>81.9</ele>
        <time>2022-09-14T12:44:04Z</time>
      </trkpt>
      <trkpt lat="49.93515" lon="2.11421">
        <ele>82</ele>
        <time>2022-09-14T12:44:05Z</time>
      </trkpt>
      <trkpt lat="49.93514" lon="2.1142">
        <ele>82</ele>
        <time>2022-09-14T12:44:06Z</time>
      </trkpt>
      <trkpt lat="49.93514" lon="2.11419">
        <ele>82</ele>
        <time>2022-09-14T12:44:07Z</time>
      </trkpt>
      <trkpt lat="49.93513" lon="2.11417">
        <ele>82</ele>
        <time>2022-09-14T12:44:08Z</time>
      </trkpt>
      <trkpt lat="49.93513" lon="2.11417">
        <ele>82</ele>
        <time>2022-09-14T12:44:09Z</time>
      </trkpt>
      <trkpt lat="49.93512" lon="2.11416">
        <ele>82</ele>
        <time>2022-09-14T12:44:10Z</time>
      </trkpt>
      <trkpt lat="49.93511" lon="2.11414">
        <ele>82</ele>
        <time>2022-09-14T12:44:12Z</time>
      </trkpt>
      <trkpt lat="49.9351" lon="2.11413">
        <ele>82</ele>
        <time>2022-09-14T12:44:13Z</time>
      </trkpt>
      <trkpt lat="49.9351" lon="2.11412">
        <ele>82</ele>
        <time>2022-09-14T12:44:14Z</time>
      </trkpt>
      <trkpt lat="49.93509" lon="2.1141">
        <ele>82</ele>
        <time>2022-09-14T12:44:15Z</time>
      </trkpt>
      <trkpt lat="49.9351" lon="2.11407">
        <ele>82</ele>
        <time>2022-09-14T12:44:16Z</time>
      </trkpt>
      <trkpt lat="49.9351" lon="2.11405">
        <ele>82.1</ele>
        <time>2022-09-14T12:44:17Z</time>
      </trkpt>
      <trkpt lat="49.9351" lon="2.11404">
        <ele>82.1</ele>
        <time>2022-09-14T12:44:18Z</time>
      </trkpt>
      <trkpt lat="49.9351" lon="2.11403">
        <ele>82.1</ele>
        <time>2022-09-14T12:44:19Z</time>
      </trkpt>
      <trkpt lat="49.9351" lon="2.11402">
        <ele>81.8</ele>
        <time>2022-09-14T12:44:20Z</time>
      </trkpt>
      <trkpt lat="49.9351" lon="2.11401">
        <ele>81.8</ele>
        <time>2022-09-14T12:44:21Z</time>
      </trkpt>
      <trkpt lat="49.9351" lon="2.114">
        <ele>81.8</ele>
        <time>2022-09-14T12:44:23Z</time>
      </trkpt>
      <trkpt lat="49.93511" lon="2.11399">
        <ele>81.8</ele>
        <time>2022-09-14T12:44:24Z</time>
      </trkpt>
      <trkpt lat="49.93511" lon="2.114">
        <ele>81.8</ele>
        <time>2022-09-14T12:44:25Z</time>
      </trkpt>
      <trkpt lat="49.93511" lon="2.114">
        <ele>81.7</ele>
        <time>2022-09-14T12:44:26Z</time>
      </trkpt>
      <trkpt lat="49.93511" lon="2.11401">
        <ele>81.7</ele>
        <time>2022-09-14T12:44:27Z</time>
      </trkpt>
      <trkpt lat="49.93512" lon="2.11401">
        <ele>81.7</ele>
        <time>2022-09-14T12:44:28Z</time>
      </trkpt>
      <trkpt lat="49.93512" lon="2.11402">
        <ele>81.7</ele>
        <time>2022-09-14T12:44:29Z</time>
      </trkpt>
      <trkpt lat="49.93512" lon="2.11402">
        <ele>81.7</ele>
        <time>2022-09-14T12:44:30Z</time>
      </trkpt>
      <trkpt lat="49.93512" lon="2.11403">
        <ele>81.7</ele>
        <time>2022-09-14T12:44:32Z</time>
      </trkpt>
      <trkpt lat="49.93512" lon="2.11404">
        <ele>81.7</ele>
        <time>2022-09-14T12:44:33Z</time>
      </trkpt>
      <trkpt lat="49.93512" lon="2.11404">
        <ele>81.6</ele>
        <time>2022-09-14T12:44:34Z</time>
      </trkpt>
      <trkpt lat="49.93512" lon="2.11404">
        <ele>81.6</ele>
        <time>2022-09-14T12:44:35Z</time>
      </trkpt>
      <trkpt lat="49.93512" lon="2.11404">
        <ele>81.6</ele>
        <time>2022-09-14T12:44:36Z</time>
      </trkpt>
      <trkpt lat="49.93512" lon="2.11405">
        <ele>81.6</ele>
        <time>2022-09-14T12:44:37Z</time>
      </trkpt>
      <trkpt lat="49.93512" lon="2.11405">
        <ele>81.6</ele>
        <time>2022-09-14T12:44:38Z</time>
      </trkpt>
      <trkpt lat="49.93512" lon="2.11405">
        <ele>81.6</ele>
        <time>2022-09-14T12:44:39Z</time>
      </trkpt>
      <trkpt lat="49.93512" lon="2.11405">
        <ele>81.6</ele>
        <time>2022-09-14T12:44:40Z</time>
      </trkpt>
      <trkpt lat="49.93512" lon="2.11406">
        <ele>81.6</ele>
        <time>2022-09-14T12:44:41Z</time>
      </trkpt>
      <trkpt lat="49.93512" lon="2.11406">
        <ele>81.6</ele>
        <time>2022-09-14T12:44:42Z</time>
      </trkpt>
      <trkpt lat="49.93512" lon="2.11406">
        <ele>81.6</ele>
        <time>2022-09-14T12:44:43Z</time>
      </trkpt>
      <trkpt lat="49.93512" lon="2.11406">
        <ele>81.6</ele>
        <time>2022-09-14T12:44:44Z</time>
      </trkpt>
      <trkpt lat="49.93512" lon="2.11406">
        <ele>81.6</ele>
        <time>2022-09-14T12:44:45Z</time>
      </trkpt>
      <trkpt lat="49.93512" lon="2.11407">
        <ele>81.6</ele>
        <time>2022-09-14T12:44:46Z</time>
      </trkpt>
      <trkpt lat="49.93512" lon="2.11407">
        <ele>81.6</ele>
        <time>2022-09-14T12:44:47Z</time>
      </trkpt>
      <trkpt lat="49.93512" lon="2.11407">
        <ele>81.6</ele>
        <time>2022-09-14T12:44:48Z</time>
      </trkpt>
      <trkpt lat="49.93512" lon="2.11407">
        <ele>81.6</ele>
        <time>2022-09-14T12:44:49Z</time>
      </trkpt>
      <trkpt lat="49.93512" lon="2.11408">
        <ele>81.5</ele>
        <time>2022-09-14T12:44:50Z</time>
      </trkpt>
      <trkpt lat="49.93512" lon="2.11408">
        <ele>81.5</ele>
        <time>2022-09-14T12:44:51Z</time>
      </trkpt>
      <trkpt lat="49.93512" lon="2.11408">
        <ele>81.5</ele>
        <time>2022-09-14T12:44:52Z</time>
      </trkpt>
      <trkpt lat="49.93512" lon="2.11408">
        <ele>81.5</ele>
        <time>2022-09-14T12:44:53Z</time>
      </trkpt>
      <trkpt lat="49.93512" lon="2.11409">
        <ele>81.5</ele>
        <time>2022-09-14T12:44:54Z</time>
      </trkpt>
      <trkpt lat="49.93512" lon="2.11409">
        <ele>81.5</ele>
        <time>2022-09-14T12:44:55Z</time>
      </trkpt>
      <trkpt lat="49.93512" lon="2.11409">
        <ele>81.5</ele>
        <time>2022-09-14T12:44:56Z</time>
      </trkpt>
      <trkpt lat="49.93512" lon="2.11409">
        <ele>81.5</ele>
        <time>2022-09-14T12:44:57Z</time>
      </trkpt>
      <trkpt lat="49.93512" lon="2.1141">
        <ele>81.5</ele>
        <time>2022-09-14T12:44:58Z</time>
      </trkpt>
      <trkpt lat="49.93512" lon="2.1141">
        <ele>81.5</ele>
        <time>2022-09-14T12:44:59Z</time>
      </trkpt>
      <trkpt lat="49.93512" lon="2.1141">
        <ele>81.5</ele>
        <time>2022-09-14T12:45:00Z</time>
      </trkpt>
      <trkpt lat="49.93512" lon="2.1141">
        <ele>81.5</ele>
        <time>2022-09-14T12:45:01Z</time>
      </trkpt>
      <trkpt lat="49.93512" lon="2.11411">
        <ele>81.5</ele>
        <time>2022-09-14T12:45:02Z</time>
      </trkpt>
      <trkpt lat="49.93512" lon="2.11411">
        <ele>81.5</ele>
        <time>2022-09-14T12:45:03Z</time>
      </trkpt>
      <trkpt lat="49.93512" lon="2.11411">
        <ele>81.5</ele>
        <time>2022-09-14T12:45:04Z</time>
      </trkpt>
      <trkpt lat="49.93512" lon="2.11411">
        <ele>81.5</ele>
        <time>2022-09-14T12:45:05Z</time>
      </trkpt>
      <trkpt lat="49.93512" lon="2.11412">
        <ele>81.5</ele>
        <time>2022-09-14T12:45:06Z</time>
      </trkpt>
      <trkpt lat="49.93512" lon="2.11412">
        <ele>81.4</ele>
        <time>2022-09-14T12:45:07Z</time>
      </trkpt>
      <trkpt lat="49.93512" lon="2.11412">
        <ele>81.4</ele>
        <time>2022-09-14T12:45:08Z</time>
      </trkpt>
      <trkpt lat="49.93512" lon="2.11412">
        <ele>81.4</ele>
        <time>2022-09-14T12:45:09Z</time>
      </trkpt>
      <trkpt lat="49.93512" lon="2.11413">
        <ele>81.4</ele>
        <time>2022-09-14T12:45:10Z</time>
      </trkpt>
      <trkpt lat="49.93512" lon="2.11416">
        <ele>81.3</ele>
        <time>2022-09-14T12:45:11Z</time>
      </trkpt>
      <trkpt lat="49.93512" lon="2.11416">
        <ele>81.3</ele>
        <time>2022-09-14T12:45:12Z</time>
      </trkpt>
      <trkpt lat="49.93511" lon="2.11414">
        <ele>81.3</ele>
        <time>2022-09-14T12:45:13Z</time>
      </trkpt>
      <trkpt lat="49.93511" lon="2.11413">
        <ele>81.2</ele>
        <time>2022-09-14T12:45:14Z</time>
      </trkpt>
      <trkpt lat="49.93511" lon="2.11412">
        <ele>81.2</ele>
        <time>2022-09-14T12:45:15Z</time>
      </trkpt>
      <trkpt lat="49.9351" lon="2.11412">
        <ele>81.2</ele>
        <time>2022-09-14T12:45:16Z</time>
      </trkpt>
      <trkpt lat="49.9351" lon="2.1141">
        <ele>81.1</ele>
        <time>2022-09-14T12:45:17Z</time>
      </trkpt>
      <trkpt lat="49.9351" lon="2.11408">
        <ele>81.1</ele>
        <time>2022-09-14T12:45:18Z</time>
      </trkpt>
      <trkpt lat="49.9351" lon="2.11406">
        <ele>81</ele>
        <time>2022-09-14T12:45:20Z</time>
      </trkpt>
      <trkpt lat="49.93511" lon="2.11404">
        <ele>81</ele>
        <time>2022-09-14T12:45:21Z</time>
      </trkpt>
      <trkpt lat="49.93512" lon="2.11403">
        <ele>80.9</ele>
        <time>2022-09-14T12:45:22Z</time>
      </trkpt>
      <trkpt lat="49.93513" lon="2.11401">
        <ele>80.9</ele>
        <time>2022-09-14T12:45:23Z</time>
      </trkpt>
      <trkpt lat="49.93514" lon="2.114">
        <ele>80.8</ele>
        <time>2022-09-14T12:45:24Z</time>
      </trkpt>
      <trkpt lat="49.93515" lon="2.11399">
        <ele>80.8</ele>
        <time>2022-09-14T12:45:26Z</time>
      </trkpt>
      <trkpt lat="49.93515" lon="2.11398">
        <ele>80.8</ele>
        <time>2022-09-14T12:45:27Z</time>
      </trkpt>
      <trkpt lat="49.93516" lon="2.11397">
        <ele>80.7</ele>
        <time>2022-09-14T12:45:28Z</time>
      </trkpt>
      <trkpt lat="49.93517" lon="2.11397">
        <ele>80.7</ele>
        <time>2022-09-14T12:45:29Z</time>
      </trkpt>
      <trkpt lat="49.93517" lon="2.11396">
        <ele>80.7</ele>
        <time>2022-09-14T12:45:30Z</time>
      </trkpt>
      <trkpt lat="49.93518" lon="2.11396">
        <ele>80.7</ele>
        <time>2022-09-14T12:45:31Z</time>
      </trkpt>
      <trkpt lat="49.93518" lon="2.11395">
        <ele>80.6</ele>
        <time>2022-09-14T12:45:32Z</time>
      </trkpt>
      <trkpt lat="49.93519" lon="2.11394">
        <ele>80.6</ele>
        <time>2022-09-14T12:45:33Z</time>
      </trkpt>
      <trkpt lat="49.9352" lon="2.11393">
        <ele>80.6</ele>
        <time>2022-09-14T12:45:34Z</time>
      </trkpt>
      <trkpt lat="49.9352" lon="2.11392">
        <ele>80.5</ele>
        <time>2022-09-14T12:45:35Z</time>
      </trkpt>
      <trkpt lat="49.93521" lon="2.11392">
        <ele>80.5</ele>
        <time>2022-09-14T12:45:36Z</time>
      </trkpt>
      <trkpt lat="49.93521" lon="2.11391">
        <ele>80.5</ele>
        <time>2022-09-14T12:45:37Z</time>
      </trkpt>
      <trkpt lat="49.93522" lon="2.1139">
        <ele>80.4</ele>
        <time>2022-09-14T12:45:38Z</time>
      </trkpt>
      <trkpt lat="49.93524" lon="2.11388">
        <ele>80.4</ele>
        <time>2022-09-14T12:45:39Z</time>
      </trkpt>
      <trkpt lat="49.93524" lon="2.11388">
        <ele>80.4</ele>
        <time>2022-09-14T12:45:40Z</time>
      </trkpt>
      <trkpt lat="49.93525" lon="2.11387">
        <ele>80.3</ele>
        <time>2022-09-14T12:45:41Z</time>
      </trkpt>
      <trkpt lat="49.93525" lon="2.11386">
        <ele>80.3</ele>
        <time>2022-09-14T12:45:42Z</time>
      </trkpt>
      <trkpt lat="49.93528" lon="2.11383">
        <ele>80.2</ele>
        <time>2022-09-14T12:45:44Z</time>
      </trkpt>
      <trkpt lat="49.93528" lon="2.11382">
        <ele>80.2</ele>
        <time>2022-09-14T12:45:45Z</time>
      </trkpt>
      <trkpt lat="49.9353" lon="2.1138">
        <ele>80.1</ele>
        <time>2022-09-14T12:45:46Z</time>
      </trkpt>
      <trkpt lat="49.93531" lon="2.11379">
        <ele>80</ele>
        <time>2022-09-14T12:45:47Z</time>
      </trkpt>
      <trkpt lat="49.93532" lon="2.11378">
        <ele>80</ele>
        <time>2022-09-14T12:45:48Z</time>
      </trkpt>
      <trkpt lat="49.93533" lon="2.11377">
        <ele>80</ele>
        <time>2022-09-14T12:45:49Z</time>
      </trkpt>
      <trkpt lat="49.93534" lon="2.11376">
        <ele>79.9</ele>
        <time>2022-09-14T12:45:50Z</time>
      </trkpt>
      <trkpt lat="49.93535" lon="2.11374">
        <ele>79.9</ele>
        <time>2022-09-14T12:45:52Z</time>
      </trkpt>
      <trkpt lat="49.93537" lon="2.11372">
        <ele>79.8</ele>
        <time>2022-09-14T12:45:53Z</time>
      </trkpt>
      <trkpt lat="49.93538" lon="2.11371">
        <ele>79.8</ele>
        <time>2022-09-14T12:45:54Z</time>
      </trkpt>
      <trkpt lat="49.93538" lon="2.1137">
        <ele>79.7</ele>
        <time>2022-09-14T12:45:55Z</time>
      </trkpt>
      <trkpt lat="49.93539" lon="2.1137">
        <ele>79.7</ele>
        <time>2022-09-14T12:45:56Z</time>
      </trkpt>
      <trkpt lat="49.93541" lon="2.11368">
        <ele>79.7</ele>
        <time>2022-09-14T12:45:58Z</time>
      </trkpt>
      <trkpt lat="49.93542" lon="2.11367">
        <ele>79.6</ele>
        <time>2022-09-14T12:46:00Z</time>
      </trkpt>
      <trkpt lat="49.93543" lon="2.11366">
        <ele>79.6</ele>
        <time>2022-09-14T12:46:01Z</time>
      </trkpt>
      <trkpt lat="49.93543" lon="2.11365">
        <ele>79.6</ele>
        <time>2022-09-14T12:46:02Z</time>
      </trkpt>
      <trkpt lat="49.93545" lon="2.11364">
        <ele>79.5</ele>
        <time>2022-09-14T12:46:03Z</time>
      </trkpt>
      <trkpt lat="49.93545" lon="2.11363">
        <ele>79.5</ele>
        <time>2022-09-14T12:46:04Z</time>
      </trkpt>
      <trkpt lat="49.93547" lon="2.11361">
        <ele>79.4</ele>
        <time>2022-09-14T12:46:06Z</time>
      </trkpt>
      <trkpt lat="49.93548" lon="2.1136">
        <ele>79.4</ele>
        <time>2022-09-14T12:46:07Z</time>
      </trkpt>
      <trkpt lat="49.93549" lon="2.11359">
        <ele>79.3</ele>
        <time>2022-09-14T12:46:08Z</time>
      </trkpt>
      <trkpt lat="49.93551" lon="2.11357">
        <ele>79.3</ele>
        <time>2022-09-14T12:46:09Z</time>
      </trkpt>
      <trkpt lat="49.93552" lon="2.11356">
        <ele>79.3</ele>
        <time>2022-09-14T12:46:10Z</time>
      </trkpt>
      <trkpt lat="49.93553" lon="2.11356">
        <ele>79.2</ele>
        <time>2022-09-14T12:46:11Z</time>
      </trkpt>
      <trkpt lat="49.93554" lon="2.11354">
        <ele>79.2</ele>
        <time>2022-09-14T12:46:13Z</time>
      </trkpt>
      <trkpt lat="49.93555" lon="2.11353">
        <ele>79.2</ele>
        <time>2022-09-14T12:46:14Z</time>
      </trkpt>
      <trkpt lat="49.93556" lon="2.11352">
        <ele>79.1</ele>
        <time>2022-09-14T12:46:15Z</time>
      </trkpt>
      <trkpt lat="49.93557" lon="2.11351">
        <ele>79.1</ele>
        <time>2022-09-14T12:46:16Z</time>
      </trkpt>
      <trkpt lat="49.93558" lon="2.1135">
        <ele>79.1</ele>
        <time>2022-09-14T12:46:17Z</time>
      </trkpt>
      <trkpt lat="49.93559" lon="2.11348">
        <ele>79</ele>
        <time>2022-09-14T12:46:18Z</time>
      </trkpt>
      <trkpt lat="49.93559" lon="2.11347">
        <ele>79</ele>
        <time>2022-09-14T12:46:19Z</time>
      </trkpt>
      <trkpt lat="49.9356" lon="2.11346">
        <ele>79</ele>
        <time>2022-09-14T12:46:20Z</time>
      </trkpt>
      <trkpt lat="49.93561" lon="2.11345">
        <ele>79</ele>
        <time>2022-09-14T12:46:21Z</time>
      </trkpt>
      <trkpt lat="49.93564" lon="2.11342">
        <ele>78.9</ele>
        <time>2022-09-14T12:46:24Z</time>
      </trkpt>
      <trkpt lat="49.93565" lon="2.11341">
        <ele>78.9</ele>
        <time>2022-09-14T12:46:25Z</time>
      </trkpt>
      <trkpt lat="49.93565" lon="2.11341">
        <ele>78.8</ele>
        <time>2022-09-14T12:46:26Z</time>
      </trkpt>
      <trkpt lat="49.93566" lon="2.11339">
        <ele>78.8</ele>
        <time>2022-09-14T12:46:27Z</time>
      </trkpt>
      <trkpt lat="49.93567" lon="2.11337">
        <ele>78.8</ele>
        <time>2022-09-14T12:46:28Z</time>
      </trkpt>
      <trkpt lat="49.93568" lon="2.11336">
        <ele>78.7</ele>
        <time>2022-09-14T12:46:29Z</time>
      </trkpt>
      <trkpt lat="49.93569" lon="2.11334">
        <ele>78.7</ele>
        <time>2022-09-14T12:46:30Z</time>
      </trkpt>
      <trkpt lat="49.9357" lon="2.11333">
        <ele>78.6</ele>
        <time>2022-09-14T12:46:32Z</time>
      </trkpt>
      <trkpt lat="49.93572" lon="2.11331">
        <ele>78.6</ele>
        <time>2022-09-14T12:46:33Z</time>
      </trkpt>
      <trkpt lat="49.93573" lon="2.1133">
        <ele>78.6</ele>
        <time>2022-09-14T12:46:34Z</time>
      </trkpt>
      <trkpt lat="49.93574" lon="2.11328">
        <ele>78.5</ele>
        <time>2022-09-14T12:46:36Z</time>
      </trkpt>
      <trkpt lat="49.93575" lon="2.11327">
        <ele>78.5</ele>
        <time>2022-09-14T12:46:37Z</time>
      </trkpt>
      <trkpt lat="49.93576" lon="2.11327">
        <ele>78.5</ele>
        <time>2022-09-14T12:46:38Z</time>
      </trkpt>
      <trkpt lat="49.93576" lon="2.11326">
        <ele>78.4</ele>
        <time>2022-09-14T12:46:39Z</time>
      </trkpt>
      <trkpt lat="49.93578" lon="2.11325">
        <ele>78.4</ele>
        <time>2022-09-14T12:46:40Z</time>
      </trkpt>
      <trkpt lat="49.93579" lon="2.11324">
        <ele>78.4</ele>
        <time>2022-09-14T12:46:41Z</time>
      </trkpt>
      <trkpt lat="49.9358" lon="2.11323">
        <ele>78.3</ele>
        <time>2022-09-14T12:46:43Z</time>
      </trkpt>
      <trkpt lat="49.93581" lon="2.11322">
        <ele>78.3</ele>
        <time>2022-09-14T12:46:44Z</time>
      </trkpt>
      <trkpt lat="49.93583" lon="2.1132">
        <ele>78.2</ele>
        <time>2022-09-14T12:46:45Z</time>
      </trkpt>
      <trkpt lat="49.93583" lon="2.11319">
        <ele>78.2</ele>
        <time>2022-09-14T12:46:46Z</time>
      </trkpt>
      <trkpt lat="49.93584" lon="2.11318">
        <ele>78.2</ele>
        <time>2022-09-14T12:46:47Z</time>
      </trkpt>
      <trkpt lat="49.93585" lon="2.11317">
        <ele>78.1</ele>
        <time>2022-09-14T12:46:48Z</time>
      </trkpt>
      <trkpt lat="49.93586" lon="2.11316">
        <ele>78.1</ele>
        <time>2022-09-14T12:46:49Z</time>
      </trkpt>
      <trkpt lat="49.93587" lon="2.11314">
        <ele>78</ele>
        <time>2022-09-14T12:46:50Z</time>
      </trkpt>
      <trkpt lat="49.93588" lon="2.11313">
        <ele>78</ele>
        <time>2022-09-14T12:46:51Z</time>
      </trkpt>
      <trkpt lat="49.93589" lon="2.11312">
        <ele>78</ele>
        <time>2022-09-14T12:46:53Z</time>
      </trkpt>
      <trkpt lat="49.93591" lon="2.11309">
        <ele>77.9</ele>
        <time>2022-09-14T12:46:54Z</time>
      </trkpt>
      <trkpt lat="49.93592" lon="2.11308">
        <ele>77.9</ele>
        <time>2022-09-14T12:46:55Z</time>
      </trkpt>
      <trkpt lat="49.93594" lon="2.11307">
        <ele>77.8</ele>
        <time>2022-09-14T12:46:57Z</time>
      </trkpt>
      <trkpt lat="49.93596" lon="2.11305">
        <ele>77.7</ele>
        <time>2022-09-14T12:46:59Z</time>
      </trkpt>
      <trkpt lat="49.93597" lon="2.11304">
        <ele>77.7</ele>
        <time>2022-09-14T12:47:00Z</time>
      </trkpt>
      <trkpt lat="49.93599" lon="2.11303">
        <ele>77.6</ele>
        <time>2022-09-14T12:47:01Z</time>
      </trkpt>
      <trkpt lat="49.936" lon="2.11302">
        <ele>77.6</ele>
        <time>2022-09-14T12:47:02Z</time>
      </trkpt>
      <trkpt lat="49.93601" lon="2.113">
        <ele>77.6</ele>
        <time>2022-09-14T12:47:04Z</time>
      </trkpt>
      <trkpt lat="49.93602" lon="2.11298">
        <ele>77.5</ele>
        <time>2022-09-14T12:47:05Z</time>
      </trkpt>
      <trkpt lat="49.93603" lon="2.11297">
        <ele>77.5</ele>
        <time>2022-09-14T12:47:06Z</time>
      </trkpt>
      <trkpt lat="49.93605" lon="2.11294">
        <ele>77.4</ele>
        <time>2022-09-14T12:47:07Z</time>
      </trkpt>
      <trkpt lat="49.93606" lon="2.11293">
        <ele>77.3</ele>
        <time>2022-09-14T12:47:09Z</time>
      </trkpt>
      <trkpt lat="49.93607" lon="2.11293">
        <ele>77.3</ele>
        <time>2022-09-14T12:47:10Z</time>
      </trkpt>
      <trkpt lat="49.93608" lon="2.11292">
        <ele>77.2</ele>
        <time>2022-09-14T12:47:11Z</time>
      </trkpt>
      <trkpt lat="49.93609" lon="2.11291">
        <ele>77.2</ele>
        <time>2022-09-14T12:47:12Z</time>
      </trkpt>
      <trkpt lat="49.9361" lon="2.11289">
        <ele>77.1</ele>
        <time>2022-09-14T12:47:14Z</time>
      </trkpt>
      <trkpt lat="49.93612" lon="2.11287">
        <ele>77</ele>
        <time>2022-09-14T12:47:16Z</time>
      </trkpt>
      <trkpt lat="49.93613" lon="2.11286">
        <ele>77</ele>
        <time>2022-09-14T12:47:17Z</time>
      </trkpt>
      <trkpt lat="49.93614" lon="2.11285">
        <ele>76.9</ele>
        <time>2022-09-14T12:47:18Z</time>
      </trkpt>
      <trkpt lat="49.93615" lon="2.11284">
        <ele>76.9</ele>
        <time>2022-09-14T12:47:19Z</time>
      </trkpt>
      <trkpt lat="49.93616" lon="2.11283">
        <ele>76.8</ele>
        <time>2022-09-14T12:47:20Z</time>
      </trkpt>
      <trkpt lat="49.93617" lon="2.11282">
        <ele>76.8</ele>
        <time>2022-09-14T12:47:22Z</time>
      </trkpt>
      <trkpt lat="49.93618" lon="2.11281">
        <ele>76.7</ele>
        <time>2022-09-14T12:47:23Z</time>
      </trkpt>
      <trkpt lat="49.93619" lon="2.1128">
        <ele>76.7</ele>
        <time>2022-09-14T12:47:24Z</time>
      </trkpt>
      <trkpt lat="49.9362" lon="2.11279">
        <ele>76.7</ele>
        <time>2022-09-14T12:47:25Z</time>
      </trkpt>
      <trkpt lat="49.9362" lon="2.11278">
        <ele>76.6</ele>
        <time>2022-09-14T12:47:26Z</time>
      </trkpt>
      <trkpt lat="49.93621" lon="2.11277">
        <ele>76.6</ele>
        <time>2022-09-14T12:47:27Z</time>
      </trkpt>
      <trkpt lat="49.93622" lon="2.11276">
        <ele>76.5</ele>
        <time>2022-09-14T12:47:28Z</time>
      </trkpt>
      <trkpt lat="49.93624" lon="2.11273">
        <ele>76.5</ele>
        <time>2022-09-14T12:47:29Z</time>
      </trkpt>
      <trkpt lat="49.93624" lon="2.11273">
        <ele>76.4</ele>
        <time>2022-09-14T12:47:30Z</time>
      </trkpt>
      <trkpt lat="49.93625" lon="2.11272">
        <ele>76.4</ele>
        <time>2022-09-14T12:47:31Z</time>
      </trkpt>
      <trkpt lat="49.93626" lon="2.1127">
        <ele>76.4</ele>
        <time>2022-09-14T12:47:33Z</time>
      </trkpt>
      <trkpt lat="49.93627" lon="2.11268">
        <ele>76.3</ele>
        <time>2022-09-14T12:47:34Z</time>
      </trkpt>
      <trkpt lat="49.93629" lon="2.11266">
        <ele>76.2</ele>
        <time>2022-09-14T12:47:35Z</time>
      </trkpt>
      <trkpt lat="49.9363" lon="2.11264">
        <ele>76.2</ele>
        <time>2022-09-14T12:47:37Z</time>
      </trkpt>
      <trkpt lat="49.93631" lon="2.11263">
        <ele>76.2</ele>
        <time>2022-09-14T12:47:38Z</time>
      </trkpt>
      <trkpt lat="49.93632" lon="2.11262">
        <ele>76.1</ele>
        <time>2022-09-14T12:47:39Z</time>
      </trkpt>
      <trkpt lat="49.93633" lon="2.11261">
        <ele>76.1</ele>
        <time>2022-09-14T12:47:40Z</time>
      </trkpt>
      <trkpt lat="49.93634" lon="2.11259">
        <ele>76</ele>
        <time>2022-09-14T12:47:42Z</time>
      </trkpt>
      <trkpt lat="49.93635" lon="2.11258">
        <ele>76</ele>
        <time>2022-09-14T12:47:43Z</time>
      </trkpt>
      <trkpt lat="49.93636" lon="2.11257">
        <ele>75.9</ele>
        <time>2022-09-14T12:47:44Z</time>
      </trkpt>
      <trkpt lat="49.93637" lon="2.11256">
        <ele>75.9</ele>
        <time>2022-09-14T12:47:45Z</time>
      </trkpt>
      <trkpt lat="49.93637" lon="2.11255">
        <ele>75.9</ele>
        <time>2022-09-14T12:47:46Z</time>
      </trkpt>
      <trkpt lat="49.93638" lon="2.11254">
        <ele>75.8</ele>
        <time>2022-09-14T12:47:47Z</time>
      </trkpt>
      <trkpt lat="49.93639" lon="2.11252">
        <ele>75.8</ele>
        <time>2022-09-14T12:47:48Z</time>
      </trkpt>
      <trkpt lat="49.93641" lon="2.1125">
        <ele>75.7</ele>
        <time>2022-09-14T12:47:49Z</time>
      </trkpt>
      <trkpt lat="49.93642" lon="2.11249">
        <ele>75.6</ele>
        <time>2022-09-14T12:47:51Z</time>
      </trkpt>
      <trkpt lat="49.93643" lon="2.11247">
        <ele>75.6</ele>
        <time>2022-09-14T12:47:52Z</time>
      </trkpt>
      <trkpt lat="49.93644" lon="2.11246">
        <ele>75.5</ele>
        <time>2022-09-14T12:47:53Z</time>
      </trkpt>
      <trkpt lat="49.93645" lon="2.11244">
        <ele>75.4</ele>
        <time>2022-09-14T12:47:54Z</time>
      </trkpt>
      <trkpt lat="49.93646" lon="2.11242">
        <ele>75.4</ele>
        <time>2022-09-14T12:47:55Z</time>
      </trkpt>
      <trkpt lat="49.93647" lon="2.11241">
        <ele>75.3</ele>
        <time>2022-09-14T12:47:56Z</time>
      </trkpt>
      <trkpt lat="49.93648" lon="2.1124">
        <ele>75.3</ele>
        <time>2022-09-14T12:47:57Z</time>
      </trkpt>
      <trkpt lat="49.93649" lon="2.11238">
        <ele>75.2</ele>
        <time>2022-09-14T12:47:58Z</time>
      </trkpt>
      <trkpt lat="49.9365" lon="2.11237">
        <ele>75.2</ele>
        <time>2022-09-14T12:47:59Z</time>
      </trkpt>
      <trkpt lat="49.93651" lon="2.11236">
        <ele>75.1</ele>
        <time>2022-09-14T12:48:01Z</time>
      </trkpt>
      <trkpt lat="49.93652" lon="2.11234">
        <ele>75.1</ele>
        <time>2022-09-14T12:48:02Z</time>
      </trkpt>
      <trkpt lat="49.93652" lon="2.11233">
        <ele>75</ele>
        <time>2022-09-14T12:48:03Z</time>
      </trkpt>
      <trkpt lat="49.93653" lon="2.11231">
        <ele>75</ele>
        <time>2022-09-14T12:48:04Z</time>
      </trkpt>
      <trkpt lat="49.93654" lon="2.1123">
        <ele>74.9</ele>
        <time>2022-09-14T12:48:05Z</time>
      </trkpt>
      <trkpt lat="49.93655" lon="2.11229">
        <ele>74.9</ele>
        <time>2022-09-14T12:48:06Z</time>
      </trkpt>
      <trkpt lat="49.93655" lon="2.11227">
        <ele>74.9</ele>
        <time>2022-09-14T12:48:07Z</time>
      </trkpt>
      <trkpt lat="49.93656" lon="2.11226">
        <ele>74.8</ele>
        <time>2022-09-14T12:48:08Z</time>
      </trkpt>
      <trkpt lat="49.93657" lon="2.11225">
        <ele>74.8</ele>
        <time>2022-09-14T12:48:10Z</time>
      </trkpt>
      <trkpt lat="49.93658" lon="2.11224">
        <ele>74.7</ele>
        <time>2022-09-14T12:48:11Z</time>
      </trkpt>
      <trkpt lat="49.93659" lon="2.11223">
        <ele>74.7</ele>
        <time>2022-09-14T12:48:12Z</time>
      </trkpt>
      <trkpt lat="49.9366" lon="2.11223">
        <ele>74.7</ele>
        <time>2022-09-14T12:48:13Z</time>
      </trkpt>
      <trkpt lat="49.93661" lon="2.11221">
        <ele>74.6</ele>
        <time>2022-09-14T12:48:14Z</time>
      </trkpt>
      <trkpt lat="49.93662" lon="2.11221">
        <ele>74.6</ele>
        <time>2022-09-14T12:48:15Z</time>
      </trkpt>
      <trkpt lat="49.93663" lon="2.1122">
        <ele>74.5</ele>
        <time>2022-09-14T12:48:16Z</time>
      </trkpt>
      <trkpt lat="49.93665" lon="2.11217">
        <ele>74.4</ele>
        <time>2022-09-14T12:48:18Z</time>
      </trkpt>
      <trkpt lat="49.93666" lon="2.11217">
        <ele>74.4</ele>
        <time>2022-09-14T12:48:19Z</time>
      </trkpt>
      <trkpt lat="49.93668" lon="2.11216">
        <ele>74.3</ele>
        <time>2022-09-14T12:48:20Z</time>
      </trkpt>
      <trkpt lat="49.93668" lon="2.11215">
        <ele>74.3</ele>
        <time>2022-09-14T12:48:21Z</time>
      </trkpt>
      <trkpt lat="49.93669" lon="2.11215">
        <ele>74.3</ele>
        <time>2022-09-14T12:48:22Z</time>
      </trkpt>
      <trkpt lat="49.93671" lon="2.11214">
        <ele>74.2</ele>
        <time>2022-09-14T12:48:23Z</time>
      </trkpt>
      <trkpt lat="49.93672" lon="2.11213">
        <ele>74.1</ele>
        <time>2022-09-14T12:48:24Z</time>
      </trkpt>
      <trkpt lat="49.93673" lon="2.11213">
        <ele>74.1</ele>
        <time>2022-09-14T12:48:25Z</time>
      </trkpt>
      <trkpt lat="49.93675" lon="2.11212">
        <ele>74</ele>
        <time>2022-09-14T12:48:26Z</time>
      </trkpt>
      <trkpt lat="49.93677" lon="2.11211">
        <ele>73.9</ele>
        <time>2022-09-14T12:48:28Z</time>
      </trkpt>
      <trkpt lat="49.93678" lon="2.11209">
        <ele>73.8</ele>
        <time>2022-09-14T12:48:29Z</time>
      </trkpt>
      <trkpt lat="49.93679" lon="2.11209">
        <ele>73.8</ele>
        <time>2022-09-14T12:48:30Z</time>
      </trkpt>
      <trkpt lat="49.93681" lon="2.11208">
        <ele>73.7</ele>
        <time>2022-09-14T12:48:31Z</time>
      </trkpt>
      <trkpt lat="49.93682" lon="2.11207">
        <ele>73.6</ele>
        <time>2022-09-14T12:48:32Z</time>
      </trkpt>
      <trkpt lat="49.93684" lon="2.11204">
        <ele>73.5</ele>
        <time>2022-09-14T12:48:34Z</time>
      </trkpt>
      <trkpt lat="49.93686" lon="2.11203">
        <ele>73.4</ele>
        <time>2022-09-14T12:48:35Z</time>
      </trkpt>
      <trkpt lat="49.93686" lon="2.11202">
        <ele>73.4</ele>
        <time>2022-09-14T12:48:36Z</time>
      </trkpt>
      <trkpt lat="49.93687" lon="2.11202">
        <ele>73.4</ele>
        <time>2022-09-14T12:48:37Z</time>
      </trkpt>
      <trkpt lat="49.93688" lon="2.11201">
        <ele>73.3</ele>
        <time>2022-09-14T12:48:38Z</time>
      </trkpt>
      <trkpt lat="49.93689" lon="2.112">
        <ele>73.2</ele>
        <time>2022-09-14T12:48:39Z</time>
      </trkpt>
      <trkpt lat="49.93691" lon="2.11198">
        <ele>73.1</ele>
        <time>2022-09-14T12:48:40Z</time>
      </trkpt>
      <trkpt lat="49.93692" lon="2.11197">
        <ele>73</ele>
        <time>2022-09-14T12:48:42Z</time>
      </trkpt>
      <trkpt lat="49.93693" lon="2.11195">
        <ele>73</ele>
        <time>2022-09-14T12:48:43Z</time>
      </trkpt>
      <trkpt lat="49.93695" lon="2.11193">
        <ele>72.8</ele>
        <time>2022-09-14T12:48:44Z</time>
      </trkpt>
      <trkpt lat="49.93695" lon="2.11192">
        <ele>72.8</ele>
        <time>2022-09-14T12:48:45Z</time>
      </trkpt>
      <trkpt lat="49.93697" lon="2.1119">
        <ele>72.7</ele>
        <time>2022-09-14T12:48:46Z</time>
      </trkpt>
      <trkpt lat="49.93698" lon="2.11188">
        <ele>72.6</ele>
        <time>2022-09-14T12:48:48Z</time>
      </trkpt>
      <trkpt lat="49.93699" lon="2.11186">
        <ele>72.5</ele>
        <time>2022-09-14T12:48:49Z</time>
      </trkpt>
      <trkpt lat="49.937" lon="2.11185">
        <ele>72.5</ele>
        <time>2022-09-14T12:48:50Z</time>
      </trkpt>
      <trkpt lat="49.93701" lon="2.11184">
        <ele>72.4</ele>
        <time>2022-09-14T12:48:51Z</time>
      </trkpt>
      <trkpt lat="49.93701" lon="2.11183">
        <ele>72.4</ele>
        <time>2022-09-14T12:48:52Z</time>
      </trkpt>
      <trkpt lat="49.93702" lon="2.11181">
        <ele>72.3</ele>
        <time>2022-09-14T12:48:53Z</time>
      </trkpt>
      <trkpt lat="49.93703" lon="2.11179">
        <ele>72.2</ele>
        <time>2022-09-14T12:48:54Z</time>
      </trkpt>
      <trkpt lat="49.93704" lon="2.11178">
        <ele>72.1</ele>
        <time>2022-09-14T12:48:55Z</time>
      </trkpt>
      <trkpt lat="49.93705" lon="2.11176">
        <ele>72</ele>
        <time>2022-09-14T12:48:56Z</time>
      </trkpt>
      <trkpt lat="49.93706" lon="2.11174">
        <ele>72</ele>
        <time>2022-09-14T12:48:58Z</time>
      </trkpt>
      <trkpt lat="49.93707" lon="2.11173">
        <ele>71.9</ele>
        <time>2022-09-14T12:48:59Z</time>
      </trkpt>
      <trkpt lat="49.93708" lon="2.11172">
        <ele>71.9</ele>
        <time>2022-09-14T12:49:00Z</time>
      </trkpt>
      <trkpt lat="49.93708" lon="2.11171">
        <ele>71.8</ele>
        <time>2022-09-14T12:49:01Z</time>
      </trkpt>
      <trkpt lat="49.93709" lon="2.11168">
        <ele>71.7</ele>
        <time>2022-09-14T12:49:02Z</time>
      </trkpt>
      <trkpt lat="49.9371" lon="2.11167">
        <ele>71.6</ele>
        <time>2022-09-14T12:49:03Z</time>
      </trkpt>
      <trkpt lat="49.9371" lon="2.11166">
        <ele>71.6</ele>
        <time>2022-09-14T12:49:04Z</time>
      </trkpt>
      <trkpt lat="49.93711" lon="2.11164">
        <ele>71.5</ele>
        <time>2022-09-14T12:49:05Z</time>
      </trkpt>
      <trkpt lat="49.93712" lon="2.11163">
        <ele>71.4</ele>
        <time>2022-09-14T12:49:07Z</time>
      </trkpt>
      <trkpt lat="49.93713" lon="2.11161">
        <ele>71.3</ele>
        <time>2022-09-14T12:49:08Z</time>
      </trkpt>
      <trkpt lat="49.93714" lon="2.11159">
        <ele>71.2</ele>
        <time>2022-09-14T12:49:09Z</time>
      </trkpt>
      <trkpt lat="49.93714" lon="2.11158">
        <ele>71.2</ele>
        <time>2022-09-14T12:49:10Z</time>
      </trkpt>
      <trkpt lat="49.93715" lon="2.11156">
        <ele>71.1</ele>
        <time>2022-09-14T12:49:11Z</time>
      </trkpt>
      <trkpt lat="49.93716" lon="2.11155">
        <ele>71</ele>
        <time>2022-09-14T12:49:12Z</time>
      </trkpt>
      <trkpt lat="49.93717" lon="2.11154">
        <ele>70.9</ele>
        <time>2022-09-14T12:49:13Z</time>
      </trkpt>
      <trkpt lat="49.93718" lon="2.11152">
        <ele>70.8</ele>
        <time>2022-09-14T12:49:14Z</time>
      </trkpt>
      <trkpt lat="49.93719" lon="2.11151">
        <ele>70.7</ele>
        <time>2022-09-14T12:49:15Z</time>
      </trkpt>
      <trkpt lat="49.9372" lon="2.1115">
        <ele>70.6</ele>
        <time>2022-09-14T12:49:17Z</time>
      </trkpt>
      <trkpt lat="49.9372" lon="2.11149">
        <ele>70.6</ele>
        <time>2022-09-14T12:49:18Z</time>
      </trkpt>
      <trkpt lat="49.93721" lon="2.11147">
        <ele>70.5</ele>
        <time>2022-09-14T12:49:19Z</time>
      </trkpt>
      <trkpt lat="49.93722" lon="2.11146">
        <ele>70.4</ele>
        <time>2022-09-14T12:49:20Z</time>
      </trkpt>
      <trkpt lat="49.93723" lon="2.11145">
        <ele>70.3</ele>
        <time>2022-09-14T12:49:21Z</time>
      </trkpt>
      <trkpt lat="49.93723" lon="2.11144">
        <ele>70.3</ele>
        <time>2022-09-14T12:49:22Z</time>
      </trkpt>
      <trkpt lat="49.93725" lon="2.11141">
        <ele>70.2</ele>
        <time>2022-09-14T12:49:23Z</time>
      </trkpt>
      <trkpt lat="49.93725" lon="2.1114">
        <ele>70.1</ele>
        <time>2022-09-14T12:49:24Z</time>
      </trkpt>
      <trkpt lat="49.93726" lon="2.11139">
        <ele>70</ele>
        <time>2022-09-14T12:49:25Z</time>
      </trkpt>
      <trkpt lat="49.93726" lon="2.11138">
        <ele>70</ele>
        <time>2022-09-14T12:49:26Z</time>
      </trkpt>
      <trkpt lat="49.93728" lon="2.11136">
        <ele>69.8</ele>
        <time>2022-09-14T12:49:28Z</time>
      </trkpt>
      <trkpt lat="49.93729" lon="2.11134">
        <ele>69.7</ele>
        <time>2022-09-14T12:49:29Z</time>
      </trkpt>
      <trkpt lat="49.93729" lon="2.11133">
        <ele>69.6</ele>
        <time>2022-09-14T12:49:30Z</time>
      </trkpt>
      <trkpt lat="49.9373" lon="2.11132">
        <ele>69.5</ele>
        <time>2022-09-14T12:49:31Z</time>
      </trkpt>
      <trkpt lat="49.93732" lon="2.11129">
        <ele>69.3</ele>
        <time>2022-09-14T12:49:32Z</time>
      </trkpt>
      <trkpt lat="49.93733" lon="2.11128">
        <ele>69.2</ele>
        <time>2022-09-14T12:49:33Z</time>
      </trkpt>
      <trkpt lat="49.93733" lon="2.11127">
        <ele>69.2</ele>
        <time>2022-09-14T12:49:34Z</time>
      </trkpt>
      <trkpt lat="49.93734" lon="2.11126">
        <ele>69.1</ele>
        <time>2022-09-14T12:49:35Z</time>
      </trkpt>
      <trkpt lat="49.93735" lon="2.11126">
        <ele>69</ele>
        <time>2022-09-14T12:49:36Z</time>
      </trkpt>
      <trkpt lat="49.93736" lon="2.11124">
        <ele>68.8</ele>
        <time>2022-09-14T12:49:38Z</time>
      </trkpt>
      <trkpt lat="49.93738" lon="2.11122">
        <ele>68.7</ele>
        <time>2022-09-14T12:49:39Z</time>
      </trkpt>
      <trkpt lat="49.93738" lon="2.11121">
        <ele>68.6</ele>
        <time>2022-09-14T12:49:40Z</time>
      </trkpt>
      <trkpt lat="49.93739" lon="2.1112">
        <ele>68.6</ele>
        <time>2022-09-14T12:49:41Z</time>
      </trkpt>
      <trkpt lat="49.9374" lon="2.11117">
        <ele>68.4</ele>
        <time>2022-09-14T12:49:42Z</time>
      </trkpt>
      <trkpt lat="49.93741" lon="2.11116">
        <ele>68.3</ele>
        <time>2022-09-14T12:49:43Z</time>
      </trkpt>
      <trkpt lat="49.93742" lon="2.11115">
        <ele>68.2</ele>
        <time>2022-09-14T12:49:44Z</time>
      </trkpt>
      <trkpt lat="49.93743" lon="2.11113">
        <ele>68</ele>
        <time>2022-09-14T12:49:45Z</time>
      </trkpt>
      <trkpt lat="49.93744" lon="2.11112">
        <ele>68</ele>
        <time>2022-09-14T12:49:47Z</time>
      </trkpt>
      <trkpt lat="49.93745" lon="2.1111">
        <ele>67.8</ele>
        <time>2022-09-14T12:49:48Z</time>
      </trkpt>
      <trkpt lat="49.93746" lon="2.11108">
        <ele>67.7</ele>
        <time>2022-09-14T12:49:50Z</time>
      </trkpt>
      <trkpt lat="49.93747" lon="2.11107">
        <ele>67.6</ele>
        <time>2022-09-14T12:49:51Z</time>
      </trkpt>
      <trkpt lat="49.93748" lon="2.11106">
        <ele>67.5</ele>
        <time>2022-09-14T12:49:52Z</time>
      </trkpt>
      <trkpt lat="49.93749" lon="2.11104">
        <ele>67.4</ele>
        <time>2022-09-14T12:49:53Z</time>
      </trkpt>
      <trkpt lat="49.9375" lon="2.11102">
        <ele>67.2</ele>
        <time>2022-09-14T12:49:54Z</time>
      </trkpt>
      <trkpt lat="49.93751" lon="2.11101">
        <ele>67.1</ele>
        <time>2022-09-14T12:49:55Z</time>
      </trkpt>
      <trkpt lat="49.93752" lon="2.11098">
        <ele>66.9</ele>
        <time>2022-09-14T12:49:57Z</time>
      </trkpt>
      <trkpt lat="49.93753" lon="2.11098">
        <ele>66.8</ele>
        <time>2022-09-14T12:49:58Z</time>
      </trkpt>
      <trkpt lat="49.93754" lon="2.11097">
        <ele>66.8</ele>
        <time>2022-09-14T12:49:59Z</time>
      </trkpt>
      <trkpt lat="49.93755" lon="2.11095">
        <ele>66.6</ele>
        <time>2022-09-14T12:50:00Z</time>
      </trkpt>
      <trkpt lat="49.93756" lon="2.11095">
        <ele>66.6</ele>
        <time>2022-09-14T12:50:01Z</time>
      </trkpt>
      <trkpt lat="49.93756" lon="2.11094">
        <ele>66.5</ele>
        <time>2022-09-14T12:50:02Z</time>
      </trkpt>
      <trkpt lat="49.93757" lon="2.11093">
        <ele>66.4</ele>
        <time>2022-09-14T12:50:03Z</time>
      </trkpt>
      <trkpt lat="49.93758" lon="2.11092">
        <ele>66.3</ele>
        <time>2022-09-14T12:50:04Z</time>
      </trkpt>
      <trkpt lat="49.93758" lon="2.11091">
        <ele>66.2</ele>
        <time>2022-09-14T12:50:05Z</time>
      </trkpt>
      <trkpt lat="49.93759" lon="2.1109">
        <ele>66.1</ele>
        <time>2022-09-14T12:50:06Z</time>
      </trkpt>
      <trkpt lat="49.9376" lon="2.11089">
        <ele>66</ele>
        <time>2022-09-14T12:50:07Z</time>
      </trkpt>
      <trkpt lat="49.93761" lon="2.11087">
        <ele>65.9</ele>
        <time>2022-09-14T12:50:08Z</time>
      </trkpt>
      <trkpt lat="49.93762" lon="2.11085">
        <ele>65.8</ele>
        <time>2022-09-14T12:50:10Z</time>
      </trkpt>
      <trkpt lat="49.93764" lon="2.11083">
        <ele>65.6</ele>
        <time>2022-09-14T12:50:12Z</time>
      </trkpt>
      <trkpt lat="49.93764" lon="2.11082">
        <ele>65.5</ele>
        <time>2022-09-14T12:50:13Z</time>
      </trkpt>
      <trkpt lat="49.93765" lon="2.1108">
        <ele>65.4</ele>
        <time>2022-09-14T12:50:14Z</time>
      </trkpt>
      <trkpt lat="49.93766" lon="2.11079">
        <ele>65.3</ele>
        <time>2022-09-14T12:50:15Z</time>
      </trkpt>
      <trkpt lat="49.93768" lon="2.11076">
        <ele>65.1</ele>
        <time>2022-09-14T12:50:16Z</time>
      </trkpt>
      <trkpt lat="49.93769" lon="2.11075">
        <ele>65</ele>
        <time>2022-09-14T12:50:18Z</time>
      </trkpt>
      <trkpt lat="49.93769" lon="2.11074">
        <ele>64.9</ele>
        <time>2022-09-14T12:50:19Z</time>
      </trkpt>
      <trkpt lat="49.9377" lon="2.11073">
        <ele>64.8</ele>
        <time>2022-09-14T12:50:20Z</time>
      </trkpt>
      <trkpt lat="49.93771" lon="2.11071">
        <ele>64.7</ele>
        <time>2022-09-14T12:50:22Z</time>
      </trkpt>
      <trkpt lat="49.93771" lon="2.11069">
        <ele>64.6</ele>
        <time>2022-09-14T12:50:23Z</time>
      </trkpt>
      <trkpt lat="49.93772" lon="2.11067">
        <ele>64.5</ele>
        <time>2022-09-14T12:50:24Z</time>
      </trkpt>
      <trkpt lat="49.93772" lon="2.11066">
        <ele>64.4</ele>
        <time>2022-09-14T12:50:25Z</time>
      </trkpt>
      <trkpt lat="49.93773" lon="2.11062">
        <ele>64.1</ele>
        <time>2022-09-14T12:50:26Z</time>
      </trkpt>
      <trkpt lat="49.93774" lon="2.11061">
        <ele>64</ele>
        <time>2022-09-14T12:50:28Z</time>
      </trkpt>
      <trkpt lat="49.93774" lon="2.1106">
        <ele>64</ele>
        <time>2022-09-14T12:50:29Z</time>
      </trkpt>
      <trkpt lat="49.93775" lon="2.11057">
        <ele>63.8</ele>
        <time>2022-09-14T12:50:30Z</time>
      </trkpt>
      <trkpt lat="49.93776" lon="2.11056">
        <ele>63.7</ele>
        <time>2022-09-14T12:50:31Z</time>
      </trkpt>
      <trkpt lat="49.93777" lon="2.11055">
        <ele>63.6</ele>
        <time>2022-09-14T12:50:32Z</time>
      </trkpt>
      <trkpt lat="49.93777" lon="2.11053">
        <ele>63.5</ele>
        <time>2022-09-14T12:50:33Z</time>
      </trkpt>
      <trkpt lat="49.93778" lon="2.11051">
        <ele>63.3</ele>
        <time>2022-09-14T12:50:34Z</time>
      </trkpt>
      <trkpt lat="49.93779" lon="2.1105">
        <ele>63.2</ele>
        <time>2022-09-14T12:50:35Z</time>
      </trkpt>
      <trkpt lat="49.93779" lon="2.11048">
        <ele>63.1</ele>
        <time>2022-09-14T12:50:37Z</time>
      </trkpt>
      <trkpt lat="49.9378" lon="2.11047">
        <ele>63</ele>
        <time>2022-09-14T12:50:38Z</time>
      </trkpt>
      <trkpt lat="49.93781" lon="2.11045">
        <ele>62.9</ele>
        <time>2022-09-14T12:50:39Z</time>
      </trkpt>
      <trkpt lat="49.93782" lon="2.11043">
        <ele>62.7</ele>
        <time>2022-09-14T12:50:41Z</time>
      </trkpt>
      <trkpt lat="49.93782" lon="2.11041">
        <ele>62.6</ele>
        <time>2022-09-14T12:50:42Z</time>
      </trkpt>
      <trkpt lat="49.93783" lon="2.1104">
        <ele>62.5</ele>
        <time>2022-09-14T12:50:43Z</time>
      </trkpt>
      <trkpt lat="49.93784" lon="2.11036">
        <ele>62.3</ele>
        <time>2022-09-14T12:50:45Z</time>
      </trkpt>
      <trkpt lat="49.93784" lon="2.11035">
        <ele>62.2</ele>
        <time>2022-09-14T12:50:46Z</time>
      </trkpt>
      <trkpt lat="49.93785" lon="2.11033">
        <ele>62.1</ele>
        <time>2022-09-14T12:50:47Z</time>
      </trkpt>
      <trkpt lat="49.93785" lon="2.11032">
        <ele>62</ele>
        <time>2022-09-14T12:50:48Z</time>
      </trkpt>
      <trkpt lat="49.93787" lon="2.11029">
        <ele>61.8</ele>
        <time>2022-09-14T12:50:50Z</time>
      </trkpt>
      <trkpt lat="49.93787" lon="2.11029">
        <ele>61.8</ele>
        <time>2022-09-14T12:50:51Z</time>
      </trkpt>
      <trkpt lat="49.93788" lon="2.11027">
        <ele>61.7</ele>
        <time>2022-09-14T12:50:52Z</time>
      </trkpt>
      <trkpt lat="49.93788" lon="2.11026">
        <ele>61.6</ele>
        <time>2022-09-14T12:50:53Z</time>
      </trkpt>
      <trkpt lat="49.9379" lon="2.11023">
        <ele>61.3</ele>
        <time>2022-09-14T12:50:55Z</time>
      </trkpt>
      <trkpt lat="49.93791" lon="2.1102">
        <ele>61.1</ele>
        <time>2022-09-14T12:50:56Z</time>
      </trkpt>
      <trkpt lat="49.93791" lon="2.11019">
        <ele>61</ele>
        <time>2022-09-14T12:50:57Z</time>
      </trkpt>
      <trkpt lat="49.93792" lon="2.11018">
        <ele>60.9</ele>
        <time>2022-09-14T12:50:58Z</time>
      </trkpt>
      <trkpt lat="49.93793" lon="2.11016">
        <ele>60.8</ele>
        <time>2022-09-14T12:50:59Z</time>
      </trkpt>
      <trkpt lat="49.93793" lon="2.11014">
        <ele>60.7</ele>
        <time>2022-09-14T12:51:00Z</time>
      </trkpt>
      <trkpt lat="49.93794" lon="2.11013">
        <ele>60.5</ele>
        <time>2022-09-14T12:51:01Z</time>
      </trkpt>
      <trkpt lat="49.93795" lon="2.11011">
        <ele>60.4</ele>
        <time>2022-09-14T12:51:03Z</time>
      </trkpt>
      <trkpt lat="49.93796" lon="2.1101">
        <ele>60.3</ele>
        <time>2022-09-14T12:51:04Z</time>
      </trkpt>
      <trkpt lat="49.93796" lon="2.11008">
        <ele>60.1</ele>
        <time>2022-09-14T12:51:05Z</time>
      </trkpt>
      <trkpt lat="49.93797" lon="2.11007">
        <ele>60.1</ele>
        <time>2022-09-14T12:51:06Z</time>
      </trkpt>
      <trkpt lat="49.93797" lon="2.11006">
        <ele>60</ele>
        <time>2022-09-14T12:51:07Z</time>
      </trkpt>
      <trkpt lat="49.93798" lon="2.11004">
        <ele>59.8</ele>
        <time>2022-09-14T12:51:08Z</time>
      </trkpt>
      <trkpt lat="49.93798" lon="2.11002">
        <ele>59.7</ele>
        <time>2022-09-14T12:51:09Z</time>
      </trkpt>
      <trkpt lat="49.93799" lon="2.11001">
        <ele>59.6</ele>
        <time>2022-09-14T12:51:11Z</time>
      </trkpt>
      <trkpt lat="49.938" lon="2.10999">
        <ele>59.3</ele>
        <time>2022-09-14T12:51:13Z</time>
      </trkpt>
      <trkpt lat="49.93801" lon="2.10998">
        <ele>59.2</ele>
        <time>2022-09-14T12:51:14Z</time>
      </trkpt>
      <trkpt lat="49.93802" lon="2.10997">
        <ele>59.1</ele>
        <time>2022-09-14T12:51:15Z</time>
      </trkpt>
      <trkpt lat="49.93802" lon="2.10995">
        <ele>59</ele>
        <time>2022-09-14T12:51:16Z</time>
      </trkpt>
      <trkpt lat="49.93803" lon="2.10994">
        <ele>58.9</ele>
        <time>2022-09-14T12:51:17Z</time>
      </trkpt>
      <trkpt lat="49.93804" lon="2.10992">
        <ele>58.7</ele>
        <time>2022-09-14T12:51:18Z</time>
      </trkpt>
      <trkpt lat="49.93805" lon="2.1099">
        <ele>58.5</ele>
        <time>2022-09-14T12:51:20Z</time>
      </trkpt>
      <trkpt lat="49.93807" lon="2.10988">
        <ele>58.3</ele>
        <time>2022-09-14T12:51:21Z</time>
      </trkpt>
      <trkpt lat="49.93807" lon="2.10987">
        <ele>58.2</ele>
        <time>2022-09-14T12:51:22Z</time>
      </trkpt>
      <trkpt lat="49.93808" lon="2.10986">
        <ele>58.1</ele>
        <time>2022-09-14T12:51:23Z</time>
      </trkpt>
      <trkpt lat="49.93809" lon="2.10985">
        <ele>58</ele>
        <time>2022-09-14T12:51:24Z</time>
      </trkpt>
      <trkpt lat="49.93809" lon="2.10983">
        <ele>57.9</ele>
        <time>2022-09-14T12:51:25Z</time>
      </trkpt>
      <trkpt lat="49.9381" lon="2.10982">
        <ele>57.7</ele>
        <time>2022-09-14T12:51:27Z</time>
      </trkpt>
      <trkpt lat="49.93811" lon="2.10981">
        <ele>57.6</ele>
        <time>2022-09-14T12:51:28Z</time>
      </trkpt>
      <trkpt lat="49.93811" lon="2.10979">
        <ele>57.5</ele>
        <time>2022-09-14T12:51:29Z</time>
      </trkpt>
      <trkpt lat="49.93812" lon="2.10978">
        <ele>57.3</ele>
        <time>2022-09-14T12:51:30Z</time>
      </trkpt>
      <trkpt lat="49.93813" lon="2.10975">
        <ele>57.1</ele>
        <time>2022-09-14T12:51:31Z</time>
      </trkpt>
      <trkpt lat="49.93814" lon="2.10974">
        <ele>57</ele>
        <time>2022-09-14T12:51:32Z</time>
      </trkpt>
      <trkpt lat="49.93815" lon="2.10973">
        <ele>56.8</ele>
        <time>2022-09-14T12:51:33Z</time>
      </trkpt>
      <trkpt lat="49.93815" lon="2.10971">
        <ele>56.7</ele>
        <time>2022-09-14T12:51:34Z</time>
      </trkpt>
      <trkpt lat="49.93816" lon="2.10969">
        <ele>56.5</ele>
        <time>2022-09-14T12:51:35Z</time>
      </trkpt>
      <trkpt lat="49.93816" lon="2.10969">
        <ele>56.5</ele>
        <time>2022-09-14T12:51:37Z</time>
      </trkpt>
      <trkpt lat="49.93817" lon="2.10968">
        <ele>56.4</ele>
        <time>2022-09-14T12:51:38Z</time>
      </trkpt>
      <trkpt lat="49.93817" lon="2.10967">
        <ele>56.3</ele>
        <time>2022-09-14T12:51:39Z</time>
      </trkpt>
      <trkpt lat="49.93818" lon="2.10966">
        <ele>56.2</ele>
        <time>2022-09-14T12:51:40Z</time>
      </trkpt>
      <trkpt lat="49.93818" lon="2.10965">
        <ele>56</ele>
        <time>2022-09-14T12:51:41Z</time>
      </trkpt>
      <trkpt lat="49.93818" lon="2.10964">
        <ele>55.9</ele>
        <time>2022-09-14T12:51:42Z</time>
      </trkpt>
      <trkpt lat="49.93819" lon="2.10963">
        <ele>55.8</ele>
        <time>2022-09-14T12:51:43Z</time>
      </trkpt>
      <trkpt lat="49.9382" lon="2.1096">
        <ele>55.6</ele>
        <time>2022-09-14T12:51:45Z</time>
      </trkpt>
      <trkpt lat="49.9382" lon="2.10958">
        <ele>55.4</ele>
        <time>2022-09-14T12:51:46Z</time>
      </trkpt>
      <trkpt lat="49.93821" lon="2.10957">
        <ele>55.3</ele>
        <time>2022-09-14T12:51:47Z</time>
      </trkpt>
      <trkpt lat="49.93821" lon="2.10956">
        <ele>55.2</ele>
        <time>2022-09-14T12:51:48Z</time>
      </trkpt>
      <trkpt lat="49.93822" lon="2.10955">
        <ele>55.1</ele>
        <time>2022-09-14T12:51:50Z</time>
      </trkpt>
      <trkpt lat="49.93823" lon="2.10954">
        <ele>54.9</ele>
        <time>2022-09-14T12:51:51Z</time>
      </trkpt>
      <trkpt lat="49.93824" lon="2.10953">
        <ele>54.8</ele>
        <time>2022-09-14T12:51:52Z</time>
      </trkpt>
      <trkpt lat="49.93824" lon="2.10952">
        <ele>54.6</ele>
        <time>2022-09-14T12:51:53Z</time>
      </trkpt>
      <trkpt lat="49.93825" lon="2.10951">
        <ele>54.5</ele>
        <time>2022-09-14T12:51:54Z</time>
      </trkpt>
      <trkpt lat="49.93826" lon="2.1095">
        <ele>54.3</ele>
        <time>2022-09-14T12:51:56Z</time>
      </trkpt>
      <trkpt lat="49.93827" lon="2.10949">
        <ele>54.2</ele>
        <time>2022-09-14T12:51:57Z</time>
      </trkpt>
      <trkpt lat="49.93828" lon="2.10948">
        <ele>54</ele>
        <time>2022-09-14T12:51:58Z</time>
      </trkpt>
      <trkpt lat="49.93828" lon="2.10947">
        <ele>53.9</ele>
        <time>2022-09-14T12:51:59Z</time>
      </trkpt>
      <trkpt lat="49.93829" lon="2.10945">
        <ele>53.7</ele>
        <time>2022-09-14T12:52:00Z</time>
      </trkpt>
      <trkpt lat="49.93829" lon="2.10944">
        <ele>53.6</ele>
        <time>2022-09-14T12:52:01Z</time>
      </trkpt>
      <trkpt lat="49.9383" lon="2.10943">
        <ele>53.5</ele>
        <time>2022-09-14T12:52:02Z</time>
      </trkpt>
      <trkpt lat="49.9383" lon="2.10943">
        <ele>53.5</ele>
        <time>2022-09-14T12:52:04Z</time>
      </trkpt>
      <trkpt lat="49.9383" lon="2.10942">
        <ele>53.4</ele>
        <time>2022-09-14T12:52:05Z</time>
      </trkpt>
      <trkpt lat="49.93831" lon="2.1094">
        <ele>53.2</ele>
        <time>2022-09-14T12:52:07Z</time>
      </trkpt>
      <trkpt lat="49.93832" lon="2.10939">
        <ele>53.1</ele>
        <time>2022-09-14T12:52:08Z</time>
      </trkpt>
      <trkpt lat="49.93832" lon="2.10938">
        <ele>53</ele>
        <time>2022-09-14T12:52:09Z</time>
      </trkpt>
      <trkpt lat="49.93832" lon="2.10938">
        <ele>52.9</ele>
        <time>2022-09-14T12:52:10Z</time>
      </trkpt>
      <trkpt lat="49.93833" lon="2.10937">
        <ele>52.7</ele>
        <time>2022-09-14T12:52:11Z</time>
      </trkpt>
      <trkpt lat="49.93833" lon="2.10935">
        <ele>52.6</ele>
        <time>2022-09-14T12:52:13Z</time>
      </trkpt>
      <trkpt lat="49.93834" lon="2.10934">
        <ele>52.4</ele>
        <time>2022-09-14T12:52:14Z</time>
      </trkpt>
      <trkpt lat="49.93835" lon="2.10933">
        <ele>52.3</ele>
        <time>2022-09-14T12:52:15Z</time>
      </trkpt>
      <trkpt lat="49.93836" lon="2.10931">
        <ele>52.1</ele>
        <time>2022-09-14T12:52:16Z</time>
      </trkpt>
      <trkpt lat="49.93837" lon="2.1093">
        <ele>51.9</ele>
        <time>2022-09-14T12:52:18Z</time>
      </trkpt>
      <trkpt lat="49.93837" lon="2.10927">
        <ele>51.7</ele>
        <time>2022-09-14T12:52:19Z</time>
      </trkpt>
      <trkpt lat="49.93838" lon="2.10925">
        <ele>51.5</ele>
        <time>2022-09-14T12:52:21Z</time>
      </trkpt>
      <trkpt lat="49.93839" lon="2.10924">
        <ele>51.3</ele>
        <time>2022-09-14T12:52:22Z</time>
      </trkpt>
      <trkpt lat="49.93839" lon="2.10922">
        <ele>51.2</ele>
        <time>2022-09-14T12:52:23Z</time>
      </trkpt>
      <trkpt lat="49.9384" lon="2.1092">
        <ele>51.1</ele>
        <time>2022-09-14T12:52:24Z</time>
      </trkpt>
      <trkpt lat="49.93841" lon="2.10917">
        <ele>50.8</ele>
        <time>2022-09-14T12:52:26Z</time>
      </trkpt>
      <trkpt lat="49.93841" lon="2.10916">
        <ele>50.7</ele>
        <time>2022-09-14T12:52:27Z</time>
      </trkpt>
      <trkpt lat="49.93842" lon="2.10915">
        <ele>50.6</ele>
        <time>2022-09-14T12:52:28Z</time>
      </trkpt>
      <trkpt lat="49.93842" lon="2.10913">
        <ele>50.5</ele>
        <time>2022-09-14T12:52:29Z</time>
      </trkpt>
      <trkpt lat="49.93843" lon="2.10912">
        <ele>50.3</ele>
        <time>2022-09-14T12:52:30Z</time>
      </trkpt>
      <trkpt lat="49.93843" lon="2.1091">
        <ele>50.2</ele>
        <time>2022-09-14T12:52:31Z</time>
      </trkpt>
      <trkpt lat="49.93844" lon="2.10908">
        <ele>50.1</ele>
        <time>2022-09-14T12:52:33Z</time>
      </trkpt>
      <trkpt lat="49.93845" lon="2.10906">
        <ele>49.9</ele>
        <time>2022-09-14T12:52:34Z</time>
      </trkpt>
      <trkpt lat="49.93846" lon="2.10904">
        <ele>49.7</ele>
        <time>2022-09-14T12:52:35Z</time>
      </trkpt>
      <trkpt lat="49.93846" lon="2.10903">
        <ele>49.6</ele>
        <time>2022-09-14T12:52:36Z</time>
      </trkpt>
      <trkpt lat="49.93847" lon="2.10902">
        <ele>49.6</ele>
        <time>2022-09-14T12:52:37Z</time>
      </trkpt>
      <trkpt lat="49.93847" lon="2.109">
        <ele>49.5</ele>
        <time>2022-09-14T12:52:38Z</time>
      </trkpt>
      <trkpt lat="49.93848" lon="2.10898">
        <ele>49.3</ele>
        <time>2022-09-14T12:52:40Z</time>
      </trkpt>
      <trkpt lat="49.93849" lon="2.10897">
        <ele>49.2</ele>
        <time>2022-09-14T12:52:41Z</time>
      </trkpt>
      <trkpt lat="49.93849" lon="2.10895">
        <ele>49.2</ele>
        <time>2022-09-14T12:52:42Z</time>
      </trkpt>
      <trkpt lat="49.93848" lon="2.10894">
        <ele>49.1</ele>
        <time>2022-09-14T12:52:43Z</time>
      </trkpt>
      <trkpt lat="49.93848" lon="2.10893">
        <ele>49</ele>
        <time>2022-09-14T12:52:44Z</time>
      </trkpt>
      <trkpt lat="49.93849" lon="2.1089">
        <ele>48.9</ele>
        <time>2022-09-14T12:52:46Z</time>
      </trkpt>
      <trkpt lat="49.9385" lon="2.10889">
        <ele>48.8</ele>
        <time>2022-09-14T12:52:47Z</time>
      </trkpt>
      <trkpt lat="49.9385" lon="2.10888">
        <ele>48.7</ele>
        <time>2022-09-14T12:52:48Z</time>
      </trkpt>
      <trkpt lat="49.93851" lon="2.10886">
        <ele>48.6</ele>
        <time>2022-09-14T12:52:50Z</time>
      </trkpt>
      <trkpt lat="49.93851" lon="2.10887">
        <ele>48.6</ele>
        <time>2022-09-14T12:52:51Z</time>
      </trkpt>
      <trkpt lat="49.93852" lon="2.10887">
        <ele>48.6</ele>
        <time>2022-09-14T12:52:52Z</time>
      </trkpt>
      <trkpt lat="49.93852" lon="2.10887">
        <ele>48.5</ele>
        <time>2022-09-14T12:52:53Z</time>
      </trkpt>
      <trkpt lat="49.93853" lon="2.10887">
        <ele>48.5</ele>
        <time>2022-09-14T12:52:54Z</time>
      </trkpt>
      <trkpt lat="49.93852" lon="2.10888">
        <ele>48.5</ele>
        <time>2022-09-14T12:52:56Z</time>
      </trkpt>
      <trkpt lat="49.93852" lon="2.10888">
        <ele>48.5</ele>
        <time>2022-09-14T12:52:57Z</time>
      </trkpt>
      <trkpt lat="49.93852" lon="2.10889">
        <ele>48.5</ele>
        <time>2022-09-14T12:52:58Z</time>
      </trkpt>
      <trkpt lat="49.93852" lon="2.10889">
        <ele>48.4</ele>
        <time>2022-09-14T12:52:59Z</time>
      </trkpt>
      <trkpt lat="49.93851" lon="2.10889">
        <ele>48.4</ele>
        <time>2022-09-14T12:53:00Z</time>
      </trkpt>
      <trkpt lat="49.93851" lon="2.1089">
        <ele>48.4</ele>
        <time>2022-09-14T12:53:01Z</time>
      </trkpt>
      <trkpt lat="49.93851" lon="2.1089">
        <ele>48.4</ele>
        <time>2022-09-14T12:53:02Z</time>
      </trkpt>
      <trkpt lat="49.93851" lon="2.10891">
        <ele>48.3</ele>
        <time>2022-09-14T12:53:03Z</time>
      </trkpt>
      <trkpt lat="49.93851" lon="2.10891">
        <ele>48.3</ele>
        <time>2022-09-14T12:53:04Z</time>
      </trkpt>
      <trkpt lat="49.9385" lon="2.10891">
        <ele>48.3</ele>
        <time>2022-09-14T12:53:05Z</time>
      </trkpt>
      <trkpt lat="49.9385" lon="2.10892">
        <ele>48.3</ele>
        <time>2022-09-14T12:53:06Z</time>
      </trkpt>
      <trkpt lat="49.9385" lon="2.10892">
        <ele>48.3</ele>
        <time>2022-09-14T12:53:07Z</time>
      </trkpt>
      <trkpt lat="49.9385" lon="2.10892">
        <ele>48.3</ele>
        <time>2022-09-14T12:53:08Z</time>
      </trkpt>
      <trkpt lat="49.9385" lon="2.10892">
        <ele>48.3</ele>
        <time>2022-09-14T12:53:09Z</time>
      </trkpt>
      <trkpt lat="49.9385" lon="2.10892">
        <ele>48.2</ele>
        <time>2022-09-14T12:53:10Z</time>
      </trkpt>
      <trkpt lat="49.9385" lon="2.10892">
        <ele>48.2</ele>
        <time>2022-09-14T12:53:11Z</time>
      </trkpt>
      <trkpt lat="49.93849" lon="2.10892">
        <ele>48.2</ele>
        <time>2022-09-14T12:53:12Z</time>
      </trkpt>
      <trkpt lat="49.93849" lon="2.10892">
        <ele>48.2</ele>
        <time>2022-09-14T12:53:13Z</time>
      </trkpt>
      <trkpt lat="49.93849" lon="2.10892">
        <ele>48.2</ele>
        <time>2022-09-14T12:53:14Z</time>
      </trkpt>
      <trkpt lat="49.93849" lon="2.10892">
        <ele>48.2</ele>
        <time>2022-09-14T12:53:15Z</time>
      </trkpt>
      <trkpt lat="49.93849" lon="2.10893">
        <ele>48.2</ele>
        <time>2022-09-14T12:53:16Z</time>
      </trkpt>
      <trkpt lat="49.93848" lon="2.10893">
        <ele>48.2</ele>
        <time>2022-09-14T12:53:17Z</time>
      </trkpt>
      <trkpt lat="49.93848" lon="2.10893">
        <ele>48.2</ele>
        <time>2022-09-14T12:53:18Z</time>
      </trkpt>
      <trkpt lat="49.93848" lon="2.10893">
        <ele>48.2</ele>
        <time>2022-09-14T12:53:19Z</time>
      </trkpt>
      <trkpt lat="49.93849" lon="2.10893">
        <ele>48.1</ele>
        <time>2022-09-14T12:53:20Z</time>
      </trkpt>
      <trkpt lat="49.93849" lon="2.10892">
        <ele>48.1</ele>
        <time>2022-09-14T12:53:21Z</time>
      </trkpt>
      <trkpt lat="49.9385" lon="2.10891">
        <ele>48.1</ele>
        <time>2022-09-14T12:53:22Z</time>
      </trkpt>
      <trkpt lat="49.9385" lon="2.10891">
        <ele>48</ele>
        <time>2022-09-14T12:53:23Z</time>
      </trkpt>
      <trkpt lat="49.9385" lon="2.1089">
        <ele>48</ele>
        <time>2022-09-14T12:53:24Z</time>
      </trkpt>
      <trkpt lat="49.9385" lon="2.1089">
        <ele>48</ele>
        <time>2022-09-14T12:53:25Z</time>
      </trkpt>
      <trkpt lat="49.93851" lon="2.10889">
        <ele>48</ele>
        <time>2022-09-14T12:53:26Z</time>
      </trkpt>
      <trkpt lat="49.93851" lon="2.10889">
        <ele>48</ele>
        <time>2022-09-14T12:53:27Z</time>
      </trkpt>
      <trkpt lat="49.93851" lon="2.10889">
        <ele>47.9</ele>
        <time>2022-09-14T12:53:28Z</time>
      </trkpt>
      <trkpt lat="49.93851" lon="2.10888">
        <ele>47.9</ele>
        <time>2022-09-14T12:53:29Z</time>
      </trkpt>
      <trkpt lat="49.93851" lon="2.10888">
        <ele>47.9</ele>
        <time>2022-09-14T12:53:30Z</time>
      </trkpt>
      <trkpt lat="49.93852" lon="2.10887">
        <ele>47.9</ele>
        <time>2022-09-14T12:53:31Z</time>
      </trkpt>
      <trkpt lat="49.93852" lon="2.10887">
        <ele>47.9</ele>
        <time>2022-09-14T12:53:32Z</time>
      </trkpt>
      <trkpt lat="49.93852" lon="2.10887">
        <ele>47.9</ele>
        <time>2022-09-14T12:53:33Z</time>
      </trkpt>
      <trkpt lat="49.93852" lon="2.10887">
        <ele>47.9</ele>
        <time>2022-09-14T12:53:34Z</time>
      </trkpt>
      <trkpt lat="49.93852" lon="2.10887">
        <ele>47.9</ele>
        <time>2022-09-14T12:53:35Z</time>
      </trkpt>
      <trkpt lat="49.93852" lon="2.10886">
        <ele>47.8</ele>
        <time>2022-09-14T12:53:36Z</time>
      </trkpt>
      <trkpt lat="49.93853" lon="2.10885">
        <ele>47.8</ele>
        <time>2022-09-14T12:53:37Z</time>
      </trkpt>
      <trkpt lat="49.93853" lon="2.10884">
        <ele>47.8</ele>
        <time>2022-09-14T12:53:38Z</time>
      </trkpt>
      <trkpt lat="49.93853" lon="2.10883">
        <ele>47.8</ele>
        <time>2022-09-14T12:53:39Z</time>
      </trkpt>
      <trkpt lat="49.93853" lon="2.10883">
        <ele>47.7</ele>
        <time>2022-09-14T12:53:40Z</time>
      </trkpt>
      <trkpt lat="49.93852" lon="2.10882">
        <ele>47.7</ele>
        <time>2022-09-14T12:53:41Z</time>
      </trkpt>
      <trkpt lat="49.93852" lon="2.10881">
        <ele>47.7</ele>
        <time>2022-09-14T12:53:42Z</time>
      </trkpt>
      <trkpt lat="49.93852" lon="2.1088">
        <ele>47.7</ele>
        <time>2022-09-14T12:53:43Z</time>
      </trkpt>
      <trkpt lat="49.93852" lon="2.10879">
        <ele>47.6</ele>
        <time>2022-09-14T12:53:44Z</time>
      </trkpt>
      <trkpt lat="49.93852" lon="2.10879">
        <ele>47.6</ele>
        <time>2022-09-14T12:53:45Z</time>
      </trkpt>
      <trkpt lat="49.93852" lon="2.10878">
        <ele>47.6</ele>
        <time>2022-09-14T12:53:46Z</time>
      </trkpt>
      <trkpt lat="49.93852" lon="2.10877">
        <ele>47.6</ele>
        <time>2022-09-14T12:53:47Z</time>
      </trkpt>
      <trkpt lat="49.93852" lon="2.10876">
        <ele>47.6</ele>
        <time>2022-09-14T12:53:48Z</time>
      </trkpt>
      <trkpt lat="49.93853" lon="2.10875">
        <ele>47.5</ele>
        <time>2022-09-14T12:53:49Z</time>
      </trkpt>
      <trkpt lat="49.93853" lon="2.10875">
        <ele>47.5</ele>
        <time>2022-09-14T12:53:50Z</time>
      </trkpt>
      <trkpt lat="49.93853" lon="2.10874">
        <ele>47.5</ele>
        <time>2022-09-14T12:53:51Z</time>
      </trkpt>
      <trkpt lat="49.93853" lon="2.10874">
        <ele>47.5</ele>
        <time>2022-09-14T12:53:52Z</time>
      </trkpt>
      <trkpt lat="49.93853" lon="2.10873">
        <ele>47.5</ele>
        <time>2022-09-14T12:53:53Z</time>
      </trkpt>
      <trkpt lat="49.93853" lon="2.10873">
        <ele>47.5</ele>
        <time>2022-09-14T12:53:54Z</time>
      </trkpt>
      <trkpt lat="49.93853" lon="2.10873">
        <ele>47.5</ele>
        <time>2022-09-14T12:53:55Z</time>
      </trkpt>
      <trkpt lat="49.93854" lon="2.10872">
        <ele>47.4</ele>
        <time>2022-09-14T12:53:56Z</time>
      </trkpt>
      <trkpt lat="49.93854" lon="2.10872">
        <ele>47.4</ele>
        <time>2022-09-14T12:53:57Z</time>
      </trkpt>
      <trkpt lat="49.93854" lon="2.10872">
        <ele>47.4</ele>
        <time>2022-09-14T12:53:58Z</time>
      </trkpt>
      <trkpt lat="49.93854" lon="2.10872">
        <ele>47.4</ele>
        <time>2022-09-14T12:53:59Z</time>
      </trkpt>
      <trkpt lat="49.93854" lon="2.10872">
        <ele>47.4</ele>
        <time>2022-09-14T12:54:00Z</time>
      </trkpt>
      <trkpt lat="49.93854" lon="2.10872">
        <ele>47.4</ele>
        <time>2022-09-14T12:54:01Z</time>
      </trkpt>
      <trkpt lat="49.93854" lon="2.10872">
        <ele>47.4</ele>
        <time>2022-09-14T12:54:02Z</time>
      </trkpt>
      <trkpt lat="49.93854" lon="2.10872">
        <ele>47.4</ele>
        <time>2022-09-14T12:54:03Z</time>
      </trkpt>
      <trkpt lat="49.93854" lon="2.10871">
        <ele>47.4</ele>
        <time>2022-09-14T12:54:04Z</time>
      </trkpt>
      <trkpt lat="49.93854" lon="2.10871">
        <ele>47.4</ele>
        <time>2022-09-14T12:54:05Z</time>
      </trkpt>
      <trkpt lat="49.93854" lon="2.10871">
        <ele>47.4</ele>
        <time>2022-09-14T12:54:06Z</time>
      </trkpt>
      <trkpt lat="49.93854" lon="2.10871">
        <ele>47.4</ele>
        <time>2022-09-14T12:54:07Z</time>
      </trkpt>
      <trkpt lat="49.93854" lon="2.10871">
        <ele>47.4</ele>
        <time>2022-09-14T12:54:08Z</time>
      </trkpt>
      <trkpt lat="49.93854" lon="2.10871">
        <ele>47.4</ele>
        <time>2022-09-14T12:54:09Z</time>
      </trkpt>
      <trkpt lat="49.93854" lon="2.10871">
        <ele>47.4</ele>
        <time>2022-09-14T12:54:10Z</time>
      </trkpt>
      <trkpt lat="49.93854" lon="2.10871">
        <ele>47.4</ele>
        <time>2022-09-14T12:54:11Z</time>
      </trkpt>
      <trkpt lat="49.93854" lon="2.10871">
        <ele>47.4</ele>
        <time>2022-09-14T12:54:12Z</time>
      </trkpt>
      <trkpt lat="49.93854" lon="2.10871">
        <ele>47.4</ele>
        <time>2022-09-14T12:54:13Z</time>
      </trkpt>
      <trkpt lat="49.93854" lon="2.10871">
        <ele>47.4</ele>
        <time>2022-09-14T12:54:14Z</time>
      </trkpt>
      <trkpt lat="49.93854" lon="2.10871">
        <ele>47.4</ele>
        <time>2022-09-14T12:54:15Z</time>
      </trkpt>
      <trkpt lat="49.93854" lon="2.10871">
        <ele>47.4</ele>
        <time>2022-09-14T12:54:16Z</time>
      </trkpt>
      <trkpt lat="49.93854" lon="2.10871">
        <ele>47.4</ele>
        <time>2022-09-14T12:54:17Z</time>
      </trkpt>
      <trkpt lat="49.93854" lon="2.10871">
        <ele>47.4</ele>
        <time>2022-09-14T12:54:18Z</time>
      </trkpt>
      <trkpt lat="49.93854" lon="2.10871">
        <ele>47.4</ele>
        <time>2022-09-14T12:54:19Z</time>
      </trkpt>
      <trkpt lat="49.93854" lon="2.10871">
        <ele>47.4</ele>
        <time>2022-09-14T12:54:20Z</time>
      </trkpt>
      <trkpt lat="49.93854" lon="2.10871">
        <ele>47.4</ele>
        <time>2022-09-14T12:54:21Z</time>
      </trkpt>
      <trkpt lat="49.93854" lon="2.10871">
        <ele>47.4</ele>
        <time>2022-09-14T12:54:22Z</time>
      </trkpt>
      <trkpt lat="49.93854" lon="2.10871">
        <ele>47.4</ele>
        <time>2022-09-14T12:54:23Z</time>
      </trkpt>
      <trkpt lat="49.93854" lon="2.10871">
        <ele>47.4</ele>
        <time>2022-09-14T12:54:24Z</time>
      </trkpt>
      <trkpt lat="49.93854" lon="2.10871">
        <ele>47.4</ele>
        <time>2022-09-14T12:54:25Z</time>
      </trkpt>
      <trkpt lat="49.93854" lon="2.10871">
        <ele>47.4</ele>
        <time>2022-09-14T12:54:26Z</time>
      </trkpt>
      <trkpt lat="49.93854" lon="2.10871">
        <ele>47.4</ele>
        <time>2022-09-14T12:54:27Z</time>
      </trkpt>
      <trkpt lat="49.93854" lon="2.10871">
        <ele>47.4</ele>
        <time>2022-09-14T12:54:28Z</time>
      </trkpt>
      <trkpt lat="49.93854" lon="2.10871">
        <ele>47.4</ele>
        <time>2022-09-14T12:54:29Z</time>
      </trkpt>
      <trkpt lat="49.93854" lon="2.10871">
        <ele>47.4</ele>
        <time>2022-09-14T12:54:30Z</time>
      </trkpt>
      <trkpt lat="49.93854" lon="2.10871">
        <ele>47.4</ele>
        <time>2022-09-14T12:54:31Z</time>
      </trkpt>
      <trkpt lat="49.93854" lon="2.10871">
        <ele>47.4</ele>
        <time>2022-09-14T12:54:32Z</time>
      </trkpt>
      <trkpt lat="49.93855" lon="2.10871">
        <ele>47.3</ele>
        <time>2022-09-14T12:54:33Z</time>
      </trkpt>
      <trkpt lat="49.93855" lon="2.10871">
        <ele>47.3</ele>
        <time>2022-09-14T12:54:35Z</time>
      </trkpt>
      <trkpt lat="49.93855" lon="2.10871">
        <ele>47.3</ele>
        <time>2022-09-14T12:54:36Z</time>
      </trkpt>
      <trkpt lat="49.93855" lon="2.10871">
        <ele>47.3</ele>
        <time>2022-09-14T12:54:38Z</time>
      </trkpt>
      <trkpt lat="49.93855" lon="2.10871">
        <ele>47.3</ele>
        <time>2022-09-14T12:54:39Z</time>
      </trkpt>
      <trkpt lat="49.93855" lon="2.10871">
        <ele>47.3</ele>
        <time>2022-09-14T12:54:40Z</time>
      </trkpt>
      <trkpt lat="49.93855" lon="2.10871">
        <ele>47.3</ele>
        <time>2022-09-14T12:54:41Z</time>
      </trkpt>
      <trkpt lat="49.93855" lon="2.10871">
        <ele>47.3</ele>
        <time>2022-09-14T12:54:42Z</time>
      </trkpt>
      <trkpt lat="49.93855" lon="2.10871">
        <ele>47.3</ele>
        <time>2022-09-14T12:54:43Z</time>
      </trkpt>
      <trkpt lat="49.93855" lon="2.10871">
        <ele>47.3</ele>
        <time>2022-09-14T12:54:44Z</time>
      </trkpt>
      <trkpt lat="49.93855" lon="2.10871">
        <ele>47.3</ele>
        <time>2022-09-14T12:54:45Z</time>
      </trkpt>
      <trkpt lat="49.93855" lon="2.10871">
        <ele>47.3</ele>
        <time>2022-09-14T12:54:46Z</time>
      </trkpt>
      <trkpt lat="49.93855" lon="2.10871">
        <ele>47.3</ele>
        <time>2022-09-14T12:54:47Z</time>
      </trkpt>
      <trkpt lat="49.93855" lon="2.10871">
        <ele>47.3</ele>
        <time>2022-09-14T12:54:48Z</time>
      </trkpt>
      <trkpt lat="49.93855" lon="2.10871">
        <ele>47.3</ele>
        <time>2022-09-14T12:54:49Z</time>
      </trkpt>
      <trkpt lat="49.93855" lon="2.10871">
        <ele>47.3</ele>
        <time>2022-09-14T12:54:50Z</time>
      </trkpt>
      <trkpt lat="49.93854" lon="2.10871">
        <ele>47.3</ele>
        <time>2022-09-14T12:54:51Z</time>
      </trkpt>
      <trkpt lat="49.93854" lon="2.10871">
        <ele>47.3</ele>
        <time>2022-09-14T12:54:52Z</time>
      </trkpt>
      <trkpt lat="49.93854" lon="2.10871">
        <ele>47.3</ele>
        <time>2022-09-14T12:54:53Z</time>
      </trkpt>
      <trkpt lat="49.93854" lon="2.10871">
        <ele>47.3</ele>
        <time>2022-09-14T12:54:54Z</time>
      </trkpt>
      <trkpt lat="49.93854" lon="2.10871">
        <ele>47.3</ele>
        <time>2022-09-14T12:54:55Z</time>
      </trkpt>
      <trkpt lat="49.93854" lon="2.10871">
        <ele>47.3</ele>
        <time>2022-09-14T12:54:56Z</time>
      </trkpt>
      <trkpt lat="49.93854" lon="2.10871">
        <ele>47.3</ele>
        <time>2022-09-14T12:54:57Z</time>
      </trkpt>
      <trkpt lat="49.93854" lon="2.10871">
        <ele>47.3</ele>
        <time>2022-09-14T12:54:58Z</time>
      </trkpt>
      <trkpt lat="49.93854" lon="2.10871">
        <ele>47.3</ele>
        <time>2022-09-14T12:54:59Z</time>
      </trkpt>
      <trkpt lat="49.93854" lon="2.10871">
        <ele>47.3</ele>
        <time>2022-09-14T12:55:00Z</time>
      </trkpt>
      <trkpt lat="49.93854" lon="2.10871">
        <ele>47.3</ele>
        <time>2022-09-14T12:55:01Z</time>
      </trkpt>
      <trkpt lat="49.93854" lon="2.10871">
        <ele>47.3</ele>
        <time>2022-09-14T12:55:02Z</time>
      </trkpt>
      <trkpt lat="49.93854" lon="2.10871">
        <ele>47.3</ele>
        <time>2022-09-14T12:55:03Z</time>
      </trkpt>
      <trkpt lat="49.93854" lon="2.10871">
        <ele>47.3</ele>
        <time>2022-09-14T12:55:04Z</time>
      </trkpt>
      <trkpt lat="49.93854" lon="2.10871">
        <ele>47.3</ele>
        <time>2022-09-14T12:55:05Z</time>
      </trkpt>
      <trkpt lat="49.93854" lon="2.10871">
        <ele>47.3</ele>
        <time>2022-09-14T12:55:06Z</time>
      </trkpt>
      <trkpt lat="49.93854" lon="2.10871">
        <ele>47.3</ele>
        <time>2022-09-14T12:55:07Z</time>
      </trkpt>
      <trkpt lat="49.93854" lon="2.10871">
        <ele>47.3</ele>
        <time>2022-09-14T12:55:08Z</time>
      </trkpt>
      <trkpt lat="49.93854" lon="2.10871">
        <ele>47.3</ele>
        <time>2022-09-14T12:55:09Z</time>
      </trkpt>
      <trkpt lat="49.93854" lon="2.10871">
        <ele>47.3</ele>
        <time>2022-09-14T12:55:10Z</time>
      </trkpt>
      <trkpt lat="49.93855" lon="2.1087">
        <ele>47.2</ele>
        <time>2022-09-14T12:55:11Z</time>
      </trkpt>
      <trkpt lat="49.93855" lon="2.1087">
        <ele>47.2</ele>
        <time>2022-09-14T12:55:12Z</time>
      </trkpt>
      <trkpt lat="49.93856" lon="2.10869">
        <ele>47.2</ele>
        <time>2022-09-14T12:55:13Z</time>
      </trkpt>
      <trkpt lat="49.93856" lon="2.10868">
        <ele>47.1</ele>
        <time>2022-09-14T12:55:15Z</time>
      </trkpt>
      <trkpt lat="49.93857" lon="2.10866">
        <ele>47.1</ele>
        <time>2022-09-14T12:55:16Z</time>
      </trkpt>
      <trkpt lat="49.93857" lon="2.10865">
        <ele>47.1</ele>
        <time>2022-09-14T12:55:17Z</time>
      </trkpt>
      <trkpt lat="49.93858" lon="2.10863">
        <ele>47.1</ele>
        <time>2022-09-14T12:55:18Z</time>
      </trkpt>
      <trkpt lat="49.93859" lon="2.10863">
        <ele>47.1</ele>
        <time>2022-09-14T12:55:19Z</time>
      </trkpt>
      <trkpt lat="49.93859" lon="2.10861">
        <ele>47</ele>
        <time>2022-09-14T12:55:20Z</time>
      </trkpt>
      <trkpt lat="49.9386" lon="2.1086">
        <ele>47</ele>
        <time>2022-09-14T12:55:21Z</time>
      </trkpt>
      <trkpt lat="49.9386" lon="2.10859">
        <ele>47</ele>
        <time>2022-09-14T12:55:22Z</time>
      </trkpt>
      <trkpt lat="49.9386" lon="2.10857">
        <ele>47</ele>
        <time>2022-09-14T12:55:23Z</time>
      </trkpt>
      <trkpt lat="49.93861" lon="2.10856">
        <ele>47</ele>
        <time>2022-09-14T12:55:24Z</time>
      </trkpt>
      <trkpt lat="49.93861" lon="2.10856">
        <ele>47</ele>
        <time>2022-09-14T12:55:25Z</time>
      </trkpt>
      <trkpt lat="49.93862" lon="2.10854">
        <ele>47</ele>
        <time>2022-09-14T12:55:26Z</time>
      </trkpt>
      <trkpt lat="49.93863" lon="2.10853">
        <ele>47</ele>
        <time>2022-09-14T12:55:27Z</time>
      </trkpt>
      <trkpt lat="49.93863" lon="2.10852">
        <ele>47</ele>
        <time>2022-09-14T12:55:28Z</time>
      </trkpt>
      <trkpt lat="49.93864" lon="2.10851">
        <ele>47</ele>
        <time>2022-09-14T12:55:29Z</time>
      </trkpt>
      <trkpt lat="49.93865" lon="2.10848">
        <ele>47</ele>
        <time>2022-09-14T12:55:30Z</time>
      </trkpt>
      <trkpt lat="49.93865" lon="2.10847">
        <ele>47</ele>
        <time>2022-09-14T12:55:32Z</time>
      </trkpt>
      <trkpt lat="49.93866" lon="2.10845">
        <ele>47</ele>
        <time>2022-09-14T12:55:33Z</time>
      </trkpt>
      <trkpt lat="49.93867" lon="2.10844">
        <ele>47</ele>
        <time>2022-09-14T12:55:34Z</time>
      </trkpt>
      <trkpt lat="49.93867" lon="2.10842">
        <ele>47</ele>
        <time>2022-09-14T12:55:35Z</time>
      </trkpt>
      <trkpt lat="49.93868" lon="2.1084">
        <ele>47</ele>
        <time>2022-09-14T12:55:36Z</time>
      </trkpt>
      <trkpt lat="49.93869" lon="2.10838">
        <ele>47</ele>
        <time>2022-09-14T12:55:38Z</time>
      </trkpt>
      <trkpt lat="49.9387" lon="2.10836">
        <ele>47</ele>
        <time>2022-09-14T12:55:39Z</time>
      </trkpt>
      <trkpt lat="49.93871" lon="2.10834">
        <ele>47</ele>
        <time>2022-09-14T12:55:40Z</time>
      </trkpt>
      <trkpt lat="49.93873" lon="2.1083">
        <ele>47</ele>
        <time>2022-09-14T12:55:41Z</time>
      </trkpt>
      <trkpt lat="49.93873" lon="2.10829">
        <ele>47</ele>
        <time>2022-09-14T12:55:42Z</time>
      </trkpt>
      <trkpt lat="49.93874" lon="2.10826">
        <ele>47</ele>
        <time>2022-09-14T12:55:43Z</time>
      </trkpt>
      <trkpt lat="49.93875" lon="2.10824">
        <ele>47</ele>
        <time>2022-09-14T12:55:45Z</time>
      </trkpt>
      <trkpt lat="49.93875" lon="2.10823">
        <ele>47</ele>
        <time>2022-09-14T12:55:46Z</time>
      </trkpt>
      <trkpt lat="49.93876" lon="2.10821">
        <ele>47</ele>
        <time>2022-09-14T12:55:47Z</time>
      </trkpt>
      <trkpt lat="49.93876" lon="2.1082">
        <ele>47.1</ele>
        <time>2022-09-14T12:55:48Z</time>
      </trkpt>
      <trkpt lat="49.93876" lon="2.10818">
        <ele>47.1</ele>
        <time>2022-09-14T12:55:49Z</time>
      </trkpt>
      <trkpt lat="49.93877" lon="2.10817">
        <ele>47.1</ele>
        <time>2022-09-14T12:55:50Z</time>
      </trkpt>
      <trkpt lat="49.93877" lon="2.10815">
        <ele>47.1</ele>
        <time>2022-09-14T12:55:51Z</time>
      </trkpt>
      <trkpt lat="49.93878" lon="2.10813">
        <ele>47.1</ele>
        <time>2022-09-14T12:55:53Z</time>
      </trkpt>
      <trkpt lat="49.93878" lon="2.10812">
        <ele>47.1</ele>
        <time>2022-09-14T12:55:54Z</time>
      </trkpt>
      <trkpt lat="49.93878" lon="2.1081">
        <ele>47.1</ele>
        <time>2022-09-14T12:55:55Z</time>
      </trkpt>
      <trkpt lat="49.93879" lon="2.10808">
        <ele>47.1</ele>
        <time>2022-09-14T12:55:56Z</time>
      </trkpt>
      <trkpt lat="49.93879" lon="2.10807">
        <ele>47.1</ele>
        <time>2022-09-14T12:55:57Z</time>
      </trkpt>
      <trkpt lat="49.9388" lon="2.10805">
        <ele>47.2</ele>
        <time>2022-09-14T12:55:59Z</time>
      </trkpt>
      <trkpt lat="49.9388" lon="2.10804">
        <ele>47.2</ele>
        <time>2022-09-14T12:56:00Z</time>
      </trkpt>
      <trkpt lat="49.93881" lon="2.10802">
        <ele>47.2</ele>
        <time>2022-09-14T12:56:01Z</time>
      </trkpt>
      <trkpt lat="49.93882" lon="2.10797">
        <ele>47.2</ele>
        <time>2022-09-14T12:56:03Z</time>
      </trkpt>
      <trkpt lat="49.93883" lon="2.10796">
        <ele>47.2</ele>
        <time>2022-09-14T12:56:04Z</time>
      </trkpt>
      <trkpt lat="49.93884" lon="2.10794">
        <ele>47.3</ele>
        <time>2022-09-14T12:56:06Z</time>
      </trkpt>
      <trkpt lat="49.93884" lon="2.10793">
        <ele>47.3</ele>
        <time>2022-09-14T12:56:07Z</time>
      </trkpt>
      <trkpt lat="49.93884" lon="2.10791">
        <ele>47.3</ele>
        <time>2022-09-14T12:56:08Z</time>
      </trkpt>
      <trkpt lat="49.93885" lon="2.1079">
        <ele>47.3</ele>
        <time>2022-09-14T12:56:09Z</time>
      </trkpt>
      <trkpt lat="49.93885" lon="2.10789">
        <ele>47.3</ele>
        <time>2022-09-14T12:56:10Z</time>
      </trkpt>
      <trkpt lat="49.93886" lon="2.10787">
        <ele>47.3</ele>
        <time>2022-09-14T12:56:11Z</time>
      </trkpt>
      <trkpt lat="49.93887" lon="2.10784">
        <ele>47.3</ele>
        <time>2022-09-14T12:56:13Z</time>
      </trkpt>
      <trkpt lat="49.93887" lon="2.10782">
        <ele>47.3</ele>
        <time>2022-09-14T12:56:14Z</time>
      </trkpt>
      <trkpt lat="49.93888" lon="2.10781">
        <ele>47.4</ele>
        <time>2022-09-14T12:56:16Z</time>
      </trkpt>
      <trkpt lat="49.93889" lon="2.10778">
        <ele>47.4</ele>
        <time>2022-09-14T12:56:17Z</time>
      </trkpt>
      <trkpt lat="49.93889" lon="2.10777">
        <ele>47.4</ele>
        <time>2022-09-14T12:56:18Z</time>
      </trkpt>
      <trkpt lat="49.9389" lon="2.10775">
        <ele>47.4</ele>
        <time>2022-09-14T12:56:20Z</time>
      </trkpt>
      <trkpt lat="49.93891" lon="2.10774">
        <ele>47.4</ele>
        <time>2022-09-14T12:56:21Z</time>
      </trkpt>
      <trkpt lat="49.93891" lon="2.10772">
        <ele>47.4</ele>
        <time>2022-09-14T12:56:22Z</time>
      </trkpt>
      <trkpt lat="49.93892" lon="2.10771">
        <ele>47.4</ele>
        <time>2022-09-14T12:56:23Z</time>
      </trkpt>
      <trkpt lat="49.93893" lon="2.1077">
        <ele>47.4</ele>
        <time>2022-09-14T12:56:24Z</time>
      </trkpt>
      <trkpt lat="49.93894" lon="2.10768">
        <ele>47.4</ele>
        <time>2022-09-14T12:56:26Z</time>
      </trkpt>
      <trkpt lat="49.93895" lon="2.10768">
        <ele>47.3</ele>
        <time>2022-09-14T12:56:27Z</time>
      </trkpt>
      <trkpt lat="49.93895" lon="2.10767">
        <ele>47.3</ele>
        <time>2022-09-14T12:56:28Z</time>
      </trkpt>
      <trkpt lat="49.93896" lon="2.10766">
        <ele>47.3</ele>
        <time>2022-09-14T12:56:29Z</time>
      </trkpt>
      <trkpt lat="49.93896" lon="2.10764">
        <ele>47.3</ele>
        <time>2022-09-14T12:56:30Z</time>
      </trkpt>
      <trkpt lat="49.93897" lon="2.10763">
        <ele>47.3</ele>
        <time>2022-09-14T12:56:31Z</time>
      </trkpt>
      <trkpt lat="49.93898" lon="2.10762">
        <ele>47.2</ele>
        <time>2022-09-14T12:56:32Z</time>
      </trkpt>
      <trkpt lat="49.93899" lon="2.1076">
        <ele>47.2</ele>
        <time>2022-09-14T12:56:34Z</time>
      </trkpt>
      <trkpt lat="49.939" lon="2.10759">
        <ele>47.2</ele>
        <time>2022-09-14T12:56:35Z</time>
      </trkpt>
      <trkpt lat="49.93901" lon="2.10757">
        <ele>47.2</ele>
        <time>2022-09-14T12:56:36Z</time>
      </trkpt>
      <trkpt lat="49.93902" lon="2.10755">
        <ele>47.2</ele>
        <time>2022-09-14T12:56:37Z</time>
      </trkpt>
      <trkpt lat="49.93902" lon="2.10754">
        <ele>47.1</ele>
        <time>2022-09-14T12:56:38Z</time>
      </trkpt>
      <trkpt lat="49.93903" lon="2.10754">
        <ele>47.1</ele>
        <time>2022-09-14T12:56:39Z</time>
      </trkpt>
      <trkpt lat="49.93906" lon="2.10754">
        <ele>47.1</ele>
        <time>2022-09-14T12:56:41Z</time>
      </trkpt>
      <trkpt lat="49.93907" lon="2.10753">
        <ele>47.1</ele>
        <time>2022-09-14T12:56:42Z</time>
      </trkpt>
      <trkpt lat="49.93908" lon="2.10752">
        <ele>47.1</ele>
        <time>2022-09-14T12:56:43Z</time>
      </trkpt>
      <trkpt lat="49.9391" lon="2.10749">
        <ele>47.1</ele>
        <time>2022-09-14T12:56:44Z</time>
      </trkpt>
      <trkpt lat="49.9391" lon="2.10748">
        <ele>47.1</ele>
        <time>2022-09-14T12:56:46Z</time>
      </trkpt>
      <trkpt lat="49.93911" lon="2.10747">
        <ele>47.1</ele>
        <time>2022-09-14T12:56:47Z</time>
      </trkpt>
      <trkpt lat="49.93911" lon="2.10746">
        <ele>47</ele>
        <time>2022-09-14T12:56:48Z</time>
      </trkpt>
      <trkpt lat="49.93912" lon="2.10743">
        <ele>47</ele>
        <time>2022-09-14T12:56:49Z</time>
      </trkpt>
      <trkpt lat="49.93913" lon="2.10742">
        <ele>47</ele>
        <time>2022-09-14T12:56:50Z</time>
      </trkpt>
      <trkpt lat="49.93913" lon="2.1074">
        <ele>47</ele>
        <time>2022-09-14T12:56:51Z</time>
      </trkpt>
      <trkpt lat="49.93914" lon="2.10737">
        <ele>47</ele>
        <time>2022-09-14T12:56:52Z</time>
      </trkpt>
      <trkpt lat="49.93915" lon="2.10736">
        <ele>47</ele>
        <time>2022-09-14T12:56:54Z</time>
      </trkpt>
      <trkpt lat="49.93915" lon="2.10734">
        <ele>47</ele>
        <time>2022-09-14T12:56:55Z</time>
      </trkpt>
      <trkpt lat="49.93916" lon="2.10733">
        <ele>47</ele>
        <time>2022-09-14T12:56:56Z</time>
      </trkpt>
      <trkpt lat="49.93917" lon="2.10731">
        <ele>47</ele>
        <time>2022-09-14T12:56:57Z</time>
      </trkpt>
      <trkpt lat="49.93917" lon="2.10728">
        <ele>47</ele>
        <time>2022-09-14T12:56:59Z</time>
      </trkpt>
      <trkpt lat="49.93918" lon="2.10726">
        <ele>47</ele>
        <time>2022-09-14T12:57:00Z</time>
      </trkpt>
      <trkpt lat="49.93918" lon="2.10724">
        <ele>47</ele>
        <time>2022-09-14T12:57:01Z</time>
      </trkpt>
      <trkpt lat="49.93919" lon="2.10723">
        <ele>47</ele>
        <time>2022-09-14T12:57:02Z</time>
      </trkpt>
      <trkpt lat="49.93919" lon="2.10721">
        <ele>47</ele>
        <time>2022-09-14T12:57:04Z</time>
      </trkpt>
      <trkpt lat="49.9392" lon="2.10719">
        <ele>47</ele>
        <time>2022-09-14T12:57:05Z</time>
      </trkpt>
      <trkpt lat="49.93921" lon="2.10717">
        <ele>47</ele>
        <time>2022-09-14T12:57:06Z</time>
      </trkpt>
      <trkpt lat="49.93922" lon="2.10716">
        <ele>47</ele>
        <time>2022-09-14T12:57:07Z</time>
      </trkpt>
      <trkpt lat="49.93922" lon="2.10715">
        <ele>47</ele>
        <time>2022-09-14T12:57:08Z</time>
      </trkpt>
      <trkpt lat="49.93924" lon="2.10712">
        <ele>47.1</ele>
        <time>2022-09-14T12:57:09Z</time>
      </trkpt>
      <trkpt lat="49.93924" lon="2.10711">
        <ele>47.1</ele>
        <time>2022-09-14T12:57:10Z</time>
      </trkpt>
      <trkpt lat="49.93925" lon="2.10709">
        <ele>47.1</ele>
        <time>2022-09-14T12:57:12Z</time>
      </trkpt>
      <trkpt lat="49.93925" lon="2.10708">
        <ele>47.1</ele>
        <time>2022-09-14T12:57:13Z</time>
      </trkpt>
      <trkpt lat="49.93926" lon="2.10707">
        <ele>47.1</ele>
        <time>2022-09-14T12:57:14Z</time>
      </trkpt>
      <trkpt lat="49.93926" lon="2.10706">
        <ele>47.1</ele>
        <time>2022-09-14T12:57:15Z</time>
      </trkpt>
      <trkpt lat="49.93927" lon="2.10704">
        <ele>47.1</ele>
        <time>2022-09-14T12:57:16Z</time>
      </trkpt>
      <trkpt lat="49.93928" lon="2.10702">
        <ele>47.2</ele>
        <time>2022-09-14T12:57:17Z</time>
      </trkpt>
      <trkpt lat="49.93929" lon="2.10699">
        <ele>47.2</ele>
        <time>2022-09-14T12:57:18Z</time>
      </trkpt>
      <trkpt lat="49.9393" lon="2.10698">
        <ele>47.2</ele>
        <time>2022-09-14T12:57:20Z</time>
      </trkpt>
      <trkpt lat="49.9393" lon="2.10697">
        <ele>47.2</ele>
        <time>2022-09-14T12:57:21Z</time>
      </trkpt>
      <trkpt lat="49.9393" lon="2.10696">
        <ele>47.2</ele>
        <time>2022-09-14T12:57:22Z</time>
      </trkpt>
      <trkpt lat="49.93931" lon="2.10694">
        <ele>47.2</ele>
        <time>2022-09-14T12:57:23Z</time>
      </trkpt>
      <trkpt lat="49.93932" lon="2.10692">
        <ele>47.3</ele>
        <time>2022-09-14T12:57:24Z</time>
      </trkpt>
      <trkpt lat="49.93932" lon="2.10691">
        <ele>47.3</ele>
        <time>2022-09-14T12:57:25Z</time>
      </trkpt>
      <trkpt lat="49.93933" lon="2.1069">
        <ele>47.3</ele>
        <time>2022-09-14T12:57:26Z</time>
      </trkpt>
      <trkpt lat="49.93934" lon="2.10688">
        <ele>47.3</ele>
        <time>2022-09-14T12:57:27Z</time>
      </trkpt>
      <trkpt lat="49.93934" lon="2.10687">
        <ele>47.3</ele>
        <time>2022-09-14T12:57:28Z</time>
      </trkpt>
      <trkpt lat="49.93935" lon="2.10686">
        <ele>47.4</ele>
        <time>2022-09-14T12:57:29Z</time>
      </trkpt>
      <trkpt lat="49.93936" lon="2.10685">
        <ele>47.4</ele>
        <time>2022-09-14T12:57:30Z</time>
      </trkpt>
      <trkpt lat="49.93937" lon="2.10683">
        <ele>47.4</ele>
        <time>2022-09-14T12:57:31Z</time>
      </trkpt>
      <trkpt lat="49.93938" lon="2.10682">
        <ele>47.4</ele>
        <time>2022-09-14T12:57:32Z</time>
      </trkpt>
      <trkpt lat="49.9394" lon="2.10679">
        <ele>47.5</ele>
        <time>2022-09-14T12:57:33Z</time>
      </trkpt>
      <trkpt lat="49.93941" lon="2.10678">
        <ele>47.5</ele>
        <time>2022-09-14T12:57:35Z</time>
      </trkpt>
      <trkpt lat="49.93942" lon="2.10677">
        <ele>47.6</ele>
        <time>2022-09-14T12:57:36Z</time>
      </trkpt>
      <trkpt lat="49.93942" lon="2.10676">
        <ele>47.6</ele>
        <time>2022-09-14T12:57:37Z</time>
      </trkpt>
      <trkpt lat="49.93943" lon="2.10674">
        <ele>47.6</ele>
        <time>2022-09-14T12:57:38Z</time>
      </trkpt>
      <trkpt lat="49.93944" lon="2.10673">
        <ele>47.7</ele>
        <time>2022-09-14T12:57:39Z</time>
      </trkpt>
      <trkpt lat="49.93945" lon="2.10671">
        <ele>47.7</ele>
        <time>2022-09-14T12:57:40Z</time>
      </trkpt>
      <trkpt lat="49.93946" lon="2.10668">
        <ele>47.8</ele>
        <time>2022-09-14T12:57:42Z</time>
      </trkpt>
      <trkpt lat="49.93946" lon="2.10667">
        <ele>47.8</ele>
        <time>2022-09-14T12:57:43Z</time>
      </trkpt>
      <trkpt lat="49.93947" lon="2.10666">
        <ele>47.8</ele>
        <time>2022-09-14T12:57:44Z</time>
      </trkpt>
      <trkpt lat="49.93948" lon="2.10665">
        <ele>47.9</ele>
        <time>2022-09-14T12:57:45Z</time>
      </trkpt>
      <trkpt lat="49.93949" lon="2.10663">
        <ele>47.9</ele>
        <time>2022-09-14T12:57:46Z</time>
      </trkpt>
      <trkpt lat="49.9395" lon="2.10662">
        <ele>48</ele>
        <time>2022-09-14T12:57:47Z</time>
      </trkpt>
      <trkpt lat="49.93951" lon="2.1066">
        <ele>48</ele>
        <time>2022-09-14T12:57:49Z</time>
      </trkpt>
      <trkpt lat="49.93951" lon="2.10659">
        <ele>48.1</ele>
        <time>2022-09-14T12:57:50Z</time>
      </trkpt>
      <trkpt lat="49.93953" lon="2.10657">
        <ele>48.2</ele>
        <time>2022-09-14T12:57:51Z</time>
      </trkpt>
      <trkpt lat="49.93953" lon="2.10656">
        <ele>48.2</ele>
        <time>2022-09-14T12:57:52Z</time>
      </trkpt>
      <trkpt lat="49.93954" lon="2.10655">
        <ele>48.2</ele>
        <time>2022-09-14T12:57:53Z</time>
      </trkpt>
      <trkpt lat="49.93955" lon="2.10653">
        <ele>48.3</ele>
        <time>2022-09-14T12:57:55Z</time>
      </trkpt>
      <trkpt lat="49.93956" lon="2.10651">
        <ele>48.3</ele>
        <time>2022-09-14T12:57:56Z</time>
      </trkpt>
      <trkpt lat="49.93956" lon="2.1065">
        <ele>48.4</ele>
        <time>2022-09-14T12:57:57Z</time>
      </trkpt>
      <trkpt lat="49.93957" lon="2.10649">
        <ele>48.4</ele>
        <time>2022-09-14T12:57:58Z</time>
      </trkpt>
      <trkpt lat="49.93958" lon="2.10647">
        <ele>48.5</ele>
        <time>2022-09-14T12:57:59Z</time>
      </trkpt>
      <trkpt lat="49.93958" lon="2.10646">
        <ele>48.5</ele>
        <time>2022-09-14T12:58:00Z</time>
      </trkpt>
      <trkpt lat="49.93959" lon="2.10644">
        <ele>48.6</ele>
        <time>2022-09-14T12:58:01Z</time>
      </trkpt>
      <trkpt lat="49.9396" lon="2.10643">
        <ele>48.6</ele>
        <time>2022-09-14T12:58:03Z</time>
      </trkpt>
      <trkpt lat="49.93961" lon="2.10641">
        <ele>48.7</ele>
        <time>2022-09-14T12:58:04Z</time>
      </trkpt>
      <trkpt lat="49.93961" lon="2.1064">
        <ele>48.7</ele>
        <time>2022-09-14T12:58:05Z</time>
      </trkpt>
      <trkpt lat="49.93962" lon="2.10639">
        <ele>48.8</ele>
        <time>2022-09-14T12:58:06Z</time>
      </trkpt>
      <trkpt lat="49.93963" lon="2.10637">
        <ele>48.8</ele>
        <time>2022-09-14T12:58:07Z</time>
      </trkpt>
      <trkpt lat="49.93963" lon="2.10636">
        <ele>48.9</ele>
        <time>2022-09-14T12:58:09Z</time>
      </trkpt>
      <trkpt lat="49.93964" lon="2.10635">
        <ele>48.9</ele>
        <time>2022-09-14T12:58:10Z</time>
      </trkpt>
      <trkpt lat="49.93964" lon="2.10633">
        <ele>49</ele>
        <time>2022-09-14T12:58:11Z</time>
      </trkpt>
      <trkpt lat="49.93965" lon="2.10632">
        <ele>49</ele>
        <time>2022-09-14T12:58:12Z</time>
      </trkpt>
      <trkpt lat="49.93966" lon="2.1063">
        <ele>49.1</ele>
        <time>2022-09-14T12:58:13Z</time>
      </trkpt>
      <trkpt lat="49.93966" lon="2.10628">
        <ele>49.1</ele>
        <time>2022-09-14T12:58:15Z</time>
      </trkpt>
      <trkpt lat="49.93967" lon="2.10627">
        <ele>49.2</ele>
        <time>2022-09-14T12:58:16Z</time>
      </trkpt>
      <trkpt lat="49.93967" lon="2.10626">
        <ele>49.2</ele>
        <time>2022-09-14T12:58:17Z</time>
      </trkpt>
      <trkpt lat="49.93968" lon="2.10624">
        <ele>49.3</ele>
        <time>2022-09-14T12:58:18Z</time>
      </trkpt>
      <trkpt lat="49.93969" lon="2.10622">
        <ele>49.4</ele>
        <time>2022-09-14T12:58:19Z</time>
      </trkpt>
      <trkpt lat="49.9397" lon="2.10621">
        <ele>49.4</ele>
        <time>2022-09-14T12:58:21Z</time>
      </trkpt>
      <trkpt lat="49.93971" lon="2.10619">
        <ele>49.5</ele>
        <time>2022-09-14T12:58:22Z</time>
      </trkpt>
      <trkpt lat="49.93972" lon="2.10618">
        <ele>49.6</ele>
        <time>2022-09-14T12:58:23Z</time>
      </trkpt>
      <trkpt lat="49.93973" lon="2.10617">
        <ele>49.6</ele>
        <time>2022-09-14T12:58:24Z</time>
      </trkpt>
      <trkpt lat="49.93974" lon="2.10615">
        <ele>49.7</ele>
        <time>2022-09-14T12:58:25Z</time>
      </trkpt>
      <trkpt lat="49.93975" lon="2.10614">
        <ele>49.7</ele>
        <time>2022-09-14T12:58:26Z</time>
      </trkpt>
      <trkpt lat="49.93976" lon="2.10613">
        <ele>49.8</ele>
        <time>2022-09-14T12:58:28Z</time>
      </trkpt>
      <trkpt lat="49.93976" lon="2.10612">
        <ele>49.8</ele>
        <time>2022-09-14T12:58:29Z</time>
      </trkpt>
      <trkpt lat="49.93977" lon="2.10611">
        <ele>49.9</ele>
        <time>2022-09-14T12:58:30Z</time>
      </trkpt>
      <trkpt lat="49.93978" lon="2.10611">
        <ele>49.9</ele>
        <time>2022-09-14T12:58:31Z</time>
      </trkpt>
      <trkpt lat="49.93979" lon="2.1061">
        <ele>49.9</ele>
        <time>2022-09-14T12:58:32Z</time>
      </trkpt>
      <trkpt lat="49.93979" lon="2.10609">
        <ele>50</ele>
        <time>2022-09-14T12:58:33Z</time>
      </trkpt>
      <trkpt lat="49.9398" lon="2.10609">
        <ele>50</ele>
        <time>2022-09-14T12:58:34Z</time>
      </trkpt>
      <trkpt lat="49.93981" lon="2.10608">
        <ele>50.1</ele>
        <time>2022-09-14T12:58:35Z</time>
      </trkpt>
      <trkpt lat="49.93982" lon="2.10607">
        <ele>50.2</ele>
        <time>2022-09-14T12:58:36Z</time>
      </trkpt>
      <trkpt lat="49.93983" lon="2.10606">
        <ele>50.2</ele>
        <time>2022-09-14T12:58:37Z</time>
      </trkpt>
      <trkpt lat="49.93984" lon="2.10605">
        <ele>50.3</ele>
        <time>2022-09-14T12:58:39Z</time>
      </trkpt>
      <trkpt lat="49.93985" lon="2.10605">
        <ele>50.3</ele>
        <time>2022-09-14T12:58:40Z</time>
      </trkpt>
      <trkpt lat="49.93986" lon="2.10604">
        <ele>50.4</ele>
        <time>2022-09-14T12:58:41Z</time>
      </trkpt>
      <trkpt lat="49.93987" lon="2.10602">
        <ele>50.5</ele>
        <time>2022-09-14T12:58:42Z</time>
      </trkpt>
      <trkpt lat="49.93988" lon="2.10602">
        <ele>50.5</ele>
        <time>2022-09-14T12:58:43Z</time>
      </trkpt>
      <trkpt lat="49.93989" lon="2.10601">
        <ele>50.6</ele>
        <time>2022-09-14T12:58:45Z</time>
      </trkpt>
      <trkpt lat="49.9399" lon="2.106">
        <ele>50.6</ele>
        <time>2022-09-14T12:58:46Z</time>
      </trkpt>
      <trkpt lat="49.93991" lon="2.106">
        <ele>50.7</ele>
        <time>2022-09-14T12:58:47Z</time>
      </trkpt>
      <trkpt lat="49.93991" lon="2.10599">
        <ele>50.7</ele>
        <time>2022-09-14T12:58:48Z</time>
      </trkpt>
      <trkpt lat="49.93992" lon="2.10598">
        <ele>50.8</ele>
        <time>2022-09-14T12:58:49Z</time>
      </trkpt>
      <trkpt lat="49.93993" lon="2.10597">
        <ele>50.9</ele>
        <time>2022-09-14T12:58:51Z</time>
      </trkpt>
      <trkpt lat="49.93994" lon="2.10596">
        <ele>50.9</ele>
        <time>2022-09-14T12:58:52Z</time>
      </trkpt>
      <trkpt lat="49.93995" lon="2.10595">
        <ele>51</ele>
        <time>2022-09-14T12:58:53Z</time>
      </trkpt>
      <trkpt lat="49.93996" lon="2.10595">
        <ele>51</ele>
        <time>2022-09-14T12:58:54Z</time>
      </trkpt>
      <trkpt lat="49.93997" lon="2.10594">
        <ele>51.1</ele>
        <time>2022-09-14T12:58:55Z</time>
      </trkpt>
      <trkpt lat="49.93998" lon="2.10593">
        <ele>51.2</ele>
        <time>2022-09-14T12:58:56Z</time>
      </trkpt>
      <trkpt lat="49.93998" lon="2.10593">
        <ele>51.2</ele>
        <time>2022-09-14T12:58:57Z</time>
      </trkpt>
      <trkpt lat="49.93999" lon="2.10592">
        <ele>51.3</ele>
        <time>2022-09-14T12:58:58Z</time>
      </trkpt>
      <trkpt lat="49.94" lon="2.10592">
        <ele>51.3</ele>
        <time>2022-09-14T12:58:59Z</time>
      </trkpt>
      <trkpt lat="49.94001" lon="2.10592">
        <ele>51.4</ele>
        <time>2022-09-14T12:59:00Z</time>
      </trkpt>
      <trkpt lat="49.94002" lon="2.10591">
        <ele>51.4</ele>
        <time>2022-09-14T12:59:01Z</time>
      </trkpt>
      <trkpt lat="49.94003" lon="2.10591">
        <ele>51.5</ele>
        <time>2022-09-14T12:59:02Z</time>
      </trkpt>
      <trkpt lat="49.94004" lon="2.10591">
        <ele>51.6</ele>
        <time>2022-09-14T12:59:03Z</time>
      </trkpt>
      <trkpt lat="49.94005" lon="2.1059">
        <ele>51.6</ele>
        <time>2022-09-14T12:59:05Z</time>
      </trkpt>
      <trkpt lat="49.94006" lon="2.1059">
        <ele>51.7</ele>
        <time>2022-09-14T12:59:06Z</time>
      </trkpt>
      <trkpt lat="49.94007" lon="2.1059">
        <ele>51.7</ele>
        <time>2022-09-14T12:59:07Z</time>
      </trkpt>
      <trkpt lat="49.94008" lon="2.1059">
        <ele>51.8</ele>
        <time>2022-09-14T12:59:09Z</time>
      </trkpt>
      <trkpt lat="49.94008" lon="2.1059">
        <ele>51.8</ele>
        <time>2022-09-14T12:59:10Z</time>
      </trkpt>
      <trkpt lat="49.94009" lon="2.1059">
        <ele>51.9</ele>
        <time>2022-09-14T12:59:11Z</time>
      </trkpt>
      <trkpt lat="49.9401" lon="2.1059">
        <ele>51.9</ele>
        <time>2022-09-14T12:59:12Z</time>
      </trkpt>
      <trkpt lat="49.9401" lon="2.1059">
        <ele>52</ele>
        <time>2022-09-14T12:59:13Z</time>
      </trkpt>
      <trkpt lat="49.94011" lon="2.10591">
        <ele>52</ele>
        <time>2022-09-14T12:59:14Z</time>
      </trkpt>
      <trkpt lat="49.94012" lon="2.10591">
        <ele>52.1</ele>
        <time>2022-09-14T12:59:16Z</time>
      </trkpt>
      <trkpt lat="49.94012" lon="2.10591">
        <ele>52.1</ele>
        <time>2022-09-14T12:59:17Z</time>
      </trkpt>
      <trkpt lat="49.94012" lon="2.10591">
        <ele>52.1</ele>
        <time>2022-09-14T12:59:18Z</time>
      </trkpt>
      <trkpt lat="49.94013" lon="2.10592">
        <ele>52.1</ele>
        <time>2022-09-14T12:59:19Z</time>
      </trkpt>
      <trkpt lat="49.94014" lon="2.10592">
        <ele>52.2</ele>
        <time>2022-09-14T12:59:20Z</time>
      </trkpt>
      <trkpt lat="49.94014" lon="2.10592">
        <ele>52.2</ele>
        <time>2022-09-14T12:59:21Z</time>
      </trkpt>
      <trkpt lat="49.94015" lon="2.10592">
        <ele>52.3</ele>
        <time>2022-09-14T12:59:22Z</time>
      </trkpt>
      <trkpt lat="49.94016" lon="2.10592">
        <ele>52.3</ele>
        <time>2022-09-14T12:59:23Z</time>
      </trkpt>
      <trkpt lat="49.94016" lon="2.10592">
        <ele>52.4</ele>
        <time>2022-09-14T12:59:24Z</time>
      </trkpt>
      <trkpt lat="49.94017" lon="2.10591">
        <ele>52.4</ele>
        <time>2022-09-14T12:59:25Z</time>
      </trkpt>
      <trkpt lat="49.94018" lon="2.10591">
        <ele>52.5</ele>
        <time>2022-09-14T12:59:26Z</time>
      </trkpt>
      <trkpt lat="49.94019" lon="2.10589">
        <ele>52.5</ele>
        <time>2022-09-14T12:59:28Z</time>
      </trkpt>
      <trkpt lat="49.94019" lon="2.10588">
        <ele>52.6</ele>
        <time>2022-09-14T12:59:29Z</time>
      </trkpt>
      <trkpt lat="49.9402" lon="2.10587">
        <ele>52.7</ele>
        <time>2022-09-14T12:59:30Z</time>
      </trkpt>
      <trkpt lat="49.94021" lon="2.10586">
        <ele>52.7</ele>
        <time>2022-09-14T12:59:31Z</time>
      </trkpt>
      <trkpt lat="49.94021" lon="2.10583">
        <ele>52.9</ele>
        <time>2022-09-14T12:59:32Z</time>
      </trkpt>
      <trkpt lat="49.94021" lon="2.10581">
        <ele>53</ele>
        <time>2022-09-14T12:59:34Z</time>
      </trkpt>
      <trkpt lat="49.94022" lon="2.1058">
        <ele>53.1</ele>
        <time>2022-09-14T12:59:35Z</time>
      </trkpt>
      <trkpt lat="49.94022" lon="2.10578">
        <ele>53.1</ele>
        <time>2022-09-14T12:59:36Z</time>
      </trkpt>
      <trkpt lat="49.94022" lon="2.10576">
        <ele>53.2</ele>
        <time>2022-09-14T12:59:37Z</time>
      </trkpt>
      <trkpt lat="49.94022" lon="2.10574">
        <ele>53.3</ele>
        <time>2022-09-14T12:59:38Z</time>
      </trkpt>
      <trkpt lat="49.94021" lon="2.10573">
        <ele>53.3</ele>
        <time>2022-09-14T12:59:39Z</time>
      </trkpt>
      <trkpt lat="49.94022" lon="2.10571">
        <ele>53.4</ele>
        <time>2022-09-14T12:59:40Z</time>
      </trkpt>
      <trkpt lat="49.94022" lon="2.10569">
        <ele>53.5</ele>
        <time>2022-09-14T12:59:41Z</time>
      </trkpt>
      <trkpt lat="49.94022" lon="2.10567">
        <ele>53.6</ele>
        <time>2022-09-14T12:59:43Z</time>
      </trkpt>
      <trkpt lat="49.94022" lon="2.10565">
        <ele>53.7</ele>
        <time>2022-09-14T12:59:44Z</time>
      </trkpt>
      <trkpt lat="49.94022" lon="2.10563">
        <ele>53.8</ele>
        <time>2022-09-14T12:59:45Z</time>
      </trkpt>
      <trkpt lat="49.94022" lon="2.10562">
        <ele>53.8</ele>
        <time>2022-09-14T12:59:46Z</time>
      </trkpt>
      <trkpt lat="49.94023" lon="2.1056">
        <ele>53.9</ele>
        <time>2022-09-14T12:59:47Z</time>
      </trkpt>
      <trkpt lat="49.94023" lon="2.10558">
        <ele>54</ele>
        <time>2022-09-14T12:59:48Z</time>
      </trkpt>
      <trkpt lat="49.94023" lon="2.10557">
        <ele>54.1</ele>
        <time>2022-09-14T12:59:49Z</time>
      </trkpt>
      <trkpt lat="49.94023" lon="2.10555">
        <ele>54.1</ele>
        <time>2022-09-14T12:59:50Z</time>
      </trkpt>
      <trkpt lat="49.94024" lon="2.10553">
        <ele>54.2</ele>
        <time>2022-09-14T12:59:52Z</time>
      </trkpt>
      <trkpt lat="49.94024" lon="2.10551">
        <ele>54.3</ele>
        <time>2022-09-14T12:59:53Z</time>
      </trkpt>
      <trkpt lat="49.94024" lon="2.1055">
        <ele>54.4</ele>
        <time>2022-09-14T12:59:54Z</time>
      </trkpt>
      <trkpt lat="49.94025" lon="2.10548">
        <ele>54.4</ele>
        <time>2022-09-14T12:59:55Z</time>
      </trkpt>
      <trkpt lat="49.94025" lon="2.10547">
        <ele>54.5</ele>
        <time>2022-09-14T12:59:56Z</time>
      </trkpt>
      <trkpt lat="49.94026" lon="2.10545">
        <ele>54.6</ele>
        <time>2022-09-14T12:59:57Z</time>
      </trkpt>
      <trkpt lat="49.94026" lon="2.10544">
        <ele>54.7</ele>
        <time>2022-09-14T12:59:58Z</time>
      </trkpt>
      <trkpt lat="49.94027" lon="2.10542">
        <ele>54.7</ele>
        <time>2022-09-14T12:59:59Z</time>
      </trkpt>
      <trkpt lat="49.94028" lon="2.1054">
        <ele>54.8</ele>
        <time>2022-09-14T13:00:01Z</time>
      </trkpt>
      <trkpt lat="49.94028" lon="2.10539">
        <ele>54.9</ele>
        <time>2022-09-14T13:00:02Z</time>
      </trkpt>
      <trkpt lat="49.94029" lon="2.10537">
        <ele>55</ele>
        <time>2022-09-14T13:00:03Z</time>
      </trkpt>
      <trkpt lat="49.9403" lon="2.10536">
        <ele>55</ele>
        <time>2022-09-14T13:00:04Z</time>
      </trkpt>
      <trkpt lat="49.9403" lon="2.10535">
        <ele>55.1</ele>
        <time>2022-09-14T13:00:05Z</time>
      </trkpt>
      <trkpt lat="49.94031" lon="2.10533">
        <ele>55.2</ele>
        <time>2022-09-14T13:00:06Z</time>
      </trkpt>
      <trkpt lat="49.94033" lon="2.10529">
        <ele>55.4</ele>
        <time>2022-09-14T13:00:07Z</time>
      </trkpt>
      <trkpt lat="49.94033" lon="2.10527">
        <ele>55.5</ele>
        <time>2022-09-14T13:00:09Z</time>
      </trkpt>
      <trkpt lat="49.94034" lon="2.10525">
        <ele>55.6</ele>
        <time>2022-09-14T13:00:10Z</time>
      </trkpt>
      <trkpt lat="49.94035" lon="2.10524">
        <ele>55.7</ele>
        <time>2022-09-14T13:00:12Z</time>
      </trkpt>
      <trkpt lat="49.94035" lon="2.10522">
        <ele>55.8</ele>
        <time>2022-09-14T13:00:13Z</time>
      </trkpt>
      <trkpt lat="49.94036" lon="2.10521">
        <ele>55.8</ele>
        <time>2022-09-14T13:00:14Z</time>
      </trkpt>
      <trkpt lat="49.94037" lon="2.10519">
        <ele>55.9</ele>
        <time>2022-09-14T13:00:15Z</time>
      </trkpt>
      <trkpt lat="49.94037" lon="2.10518">
        <ele>56</ele>
        <time>2022-09-14T13:00:17Z</time>
      </trkpt>
      <trkpt lat="49.94037" lon="2.10516">
        <ele>56</ele>
        <time>2022-09-14T13:00:18Z</time>
      </trkpt>
      <trkpt lat="49.94038" lon="2.10515">
        <ele>56.1</ele>
        <time>2022-09-14T13:00:19Z</time>
      </trkpt>
      <trkpt lat="49.94038" lon="2.10514">
        <ele>56.1</ele>
        <time>2022-09-14T13:00:20Z</time>
      </trkpt>
      <trkpt lat="49.94038" lon="2.10513">
        <ele>56.2</ele>
        <time>2022-09-14T13:00:21Z</time>
      </trkpt>
      <trkpt lat="49.94039" lon="2.10511">
        <ele>56.3</ele>
        <time>2022-09-14T13:00:22Z</time>
      </trkpt>
      <trkpt lat="49.94039" lon="2.1051">
        <ele>56.3</ele>
        <time>2022-09-14T13:00:23Z</time>
      </trkpt>
      <trkpt lat="49.9404" lon="2.10508">
        <ele>56.4</ele>
        <time>2022-09-14T13:00:25Z</time>
      </trkpt>
      <trkpt lat="49.9404" lon="2.10507">
        <ele>56.5</ele>
        <time>2022-09-14T13:00:26Z</time>
      </trkpt>
      <trkpt lat="49.94041" lon="2.10506">
        <ele>56.6</ele>
        <time>2022-09-14T13:00:27Z</time>
      </trkpt>
      <trkpt lat="49.94041" lon="2.10504">
        <ele>56.6</ele>
        <time>2022-09-14T13:00:28Z</time>
      </trkpt>
      <trkpt lat="49.94042" lon="2.10502">
        <ele>56.7</ele>
        <time>2022-09-14T13:00:29Z</time>
      </trkpt>
      <trkpt lat="49.94042" lon="2.10501">
        <ele>56.8</ele>
        <time>2022-09-14T13:00:30Z</time>
      </trkpt>
      <trkpt lat="49.94043" lon="2.105">
        <ele>56.8</ele>
        <time>2022-09-14T13:00:31Z</time>
      </trkpt>
      <trkpt lat="49.94043" lon="2.10499">
        <ele>56.9</ele>
        <time>2022-09-14T13:00:32Z</time>
      </trkpt>
      <trkpt lat="49.94043" lon="2.10497">
        <ele>57</ele>
        <time>2022-09-14T13:00:33Z</time>
      </trkpt>
      <trkpt lat="49.94044" lon="2.10495">
        <ele>57</ele>
        <time>2022-09-14T13:00:34Z</time>
      </trkpt>
      <trkpt lat="49.94044" lon="2.10493">
        <ele>57.1</ele>
        <time>2022-09-14T13:00:36Z</time>
      </trkpt>
      <trkpt lat="49.94044" lon="2.10491">
        <ele>57.2</ele>
        <time>2022-09-14T13:00:37Z</time>
      </trkpt>
      <trkpt lat="49.94045" lon="2.1049">
        <ele>57.3</ele>
        <time>2022-09-14T13:00:38Z</time>
      </trkpt>
      <trkpt lat="49.94045" lon="2.10488">
        <ele>57.3</ele>
        <time>2022-09-14T13:00:39Z</time>
      </trkpt>
      <trkpt lat="49.94045" lon="2.10487">
        <ele>57.4</ele>
        <time>2022-09-14T13:00:40Z</time>
      </trkpt>
      <trkpt lat="49.94045" lon="2.10485">
        <ele>57.5</ele>
        <time>2022-09-14T13:00:41Z</time>
      </trkpt>
      <trkpt lat="49.94045" lon="2.10483">
        <ele>57.6</ele>
        <time>2022-09-14T13:00:42Z</time>
      </trkpt>
      <trkpt lat="49.94046" lon="2.1048">
        <ele>57.7</ele>
        <time>2022-09-14T13:00:43Z</time>
      </trkpt>
      <trkpt lat="49.94046" lon="2.10479">
        <ele>57.8</ele>
        <time>2022-09-14T13:00:45Z</time>
      </trkpt>
      <trkpt lat="49.94046" lon="2.10477">
        <ele>57.8</ele>
        <time>2022-09-14T13:00:46Z</time>
      </trkpt>
      <trkpt lat="49.94046" lon="2.10476">
        <ele>57.9</ele>
        <time>2022-09-14T13:00:47Z</time>
      </trkpt>
      <trkpt lat="49.94046" lon="2.10475">
        <ele>58</ele>
        <time>2022-09-14T13:00:48Z</time>
      </trkpt>
      <trkpt lat="49.94046" lon="2.10472">
        <ele>58.1</ele>
        <time>2022-09-14T13:00:49Z</time>
      </trkpt>
      <trkpt lat="49.94046" lon="2.1047">
        <ele>58.2</ele>
        <time>2022-09-14T13:00:50Z</time>
      </trkpt>
      <trkpt lat="49.94046" lon="2.10469">
        <ele>58.2</ele>
        <time>2022-09-14T13:00:51Z</time>
      </trkpt>
      <trkpt lat="49.94046" lon="2.10467">
        <ele>58.3</ele>
        <time>2022-09-14T13:00:53Z</time>
      </trkpt>
      <trkpt lat="49.94046" lon="2.10465">
        <ele>58.4</ele>
        <time>2022-09-14T13:00:54Z</time>
      </trkpt>
      <trkpt lat="49.94046" lon="2.10463">
        <ele>58.5</ele>
        <time>2022-09-14T13:00:55Z</time>
      </trkpt>
      <trkpt lat="49.94046" lon="2.10462">
        <ele>58.5</ele>
        <time>2022-09-14T13:00:56Z</time>
      </trkpt>
      <trkpt lat="49.94047" lon="2.1046">
        <ele>58.6</ele>
        <time>2022-09-14T13:00:57Z</time>
      </trkpt>
      <trkpt lat="49.94047" lon="2.10458">
        <ele>58.7</ele>
        <time>2022-09-14T13:00:58Z</time>
      </trkpt>
      <trkpt lat="49.94047" lon="2.10457">
        <ele>58.8</ele>
        <time>2022-09-14T13:00:59Z</time>
      </trkpt>
      <trkpt lat="49.94048" lon="2.10455">
        <ele>58.8</ele>
        <time>2022-09-14T13:01:00Z</time>
      </trkpt>
      <trkpt lat="49.94048" lon="2.10453">
        <ele>58.9</ele>
        <time>2022-09-14T13:01:02Z</time>
      </trkpt>
      <trkpt lat="49.94049" lon="2.10452">
        <ele>59</ele>
        <time>2022-09-14T13:01:03Z</time>
      </trkpt>
      <trkpt lat="49.94049" lon="2.10451">
        <ele>59.1</ele>
        <time>2022-09-14T13:01:04Z</time>
      </trkpt>
      <trkpt lat="49.94049" lon="2.10449">
        <ele>59.1</ele>
        <time>2022-09-14T13:01:05Z</time>
      </trkpt>
      <trkpt lat="49.9405" lon="2.10447">
        <ele>59.2</ele>
        <time>2022-09-14T13:01:06Z</time>
      </trkpt>
      <trkpt lat="49.9405" lon="2.10446">
        <ele>59.3</ele>
        <time>2022-09-14T13:01:07Z</time>
      </trkpt>
      <trkpt lat="49.94051" lon="2.10444">
        <ele>59.4</ele>
        <time>2022-09-14T13:01:08Z</time>
      </trkpt>
      <trkpt lat="49.94051" lon="2.10442">
        <ele>59.5</ele>
        <time>2022-09-14T13:01:09Z</time>
      </trkpt>
      <trkpt lat="49.94052" lon="2.10441">
        <ele>59.5</ele>
        <time>2022-09-14T13:01:11Z</time>
      </trkpt>
      <trkpt lat="49.94052" lon="2.10439">
        <ele>59.6</ele>
        <time>2022-09-14T13:01:12Z</time>
      </trkpt>
      <trkpt lat="49.94053" lon="2.10438">
        <ele>59.7</ele>
        <time>2022-09-14T13:01:13Z</time>
      </trkpt>
      <trkpt lat="49.94054" lon="2.10436">
        <ele>59.8</ele>
        <time>2022-09-14T13:01:14Z</time>
      </trkpt>
      <trkpt lat="49.94054" lon="2.10434">
        <ele>59.9</ele>
        <time>2022-09-14T13:01:15Z</time>
      </trkpt>
      <trkpt lat="49.94055" lon="2.10433">
        <ele>60</ele>
        <time>2022-09-14T13:01:17Z</time>
      </trkpt>
      <trkpt lat="49.94056" lon="2.10431">
        <ele>60</ele>
        <time>2022-09-14T13:01:18Z</time>
      </trkpt>
      <trkpt lat="49.94056" lon="2.1043">
        <ele>60.1</ele>
        <time>2022-09-14T13:01:19Z</time>
      </trkpt>
      <trkpt lat="49.94057" lon="2.10428">
        <ele>60.2</ele>
        <time>2022-09-14T13:01:20Z</time>
      </trkpt>
      <trkpt lat="49.94057" lon="2.10427">
        <ele>60.2</ele>
        <time>2022-09-14T13:01:21Z</time>
      </trkpt>
      <trkpt lat="49.94058" lon="2.10426">
        <ele>60.3</ele>
        <time>2022-09-14T13:01:22Z</time>
      </trkpt>
      <trkpt lat="49.94059" lon="2.10424">
        <ele>60.4</ele>
        <time>2022-09-14T13:01:23Z</time>
      </trkpt>
      <trkpt lat="49.94059" lon="2.10423">
        <ele>60.5</ele>
        <time>2022-09-14T13:01:24Z</time>
      </trkpt>
      <trkpt lat="49.9406" lon="2.10422">
        <ele>60.6</ele>
        <time>2022-09-14T13:01:25Z</time>
      </trkpt>
      <trkpt lat="49.94061" lon="2.1042">
        <ele>60.7</ele>
        <time>2022-09-14T13:01:27Z</time>
      </trkpt>
      <trkpt lat="49.94062" lon="2.10419">
        <ele>60.8</ele>
        <time>2022-09-14T13:01:28Z</time>
      </trkpt>
      <trkpt lat="49.94062" lon="2.10418">
        <ele>60.8</ele>
        <time>2022-09-14T13:01:29Z</time>
      </trkpt>
      <trkpt lat="49.94063" lon="2.10416">
        <ele>60.9</ele>
        <time>2022-09-14T13:01:30Z</time>
      </trkpt>
      <trkpt lat="49.94064" lon="2.10414">
        <ele>61</ele>
        <time>2022-09-14T13:01:31Z</time>
      </trkpt>
      <trkpt lat="49.94065" lon="2.10413">
        <ele>61.1</ele>
        <time>2022-09-14T13:01:33Z</time>
      </trkpt>
      <trkpt lat="49.94066" lon="2.10411">
        <ele>61.2</ele>
        <time>2022-09-14T13:01:34Z</time>
      </trkpt>
      <trkpt lat="49.94066" lon="2.10409">
        <ele>61.3</ele>
        <time>2022-09-14T13:01:35Z</time>
      </trkpt>
      <trkpt lat="49.94066" lon="2.10408">
        <ele>61.4</ele>
        <time>2022-09-14T13:01:36Z</time>
      </trkpt>
      <trkpt lat="49.94067" lon="2.10406">
        <ele>61.5</ele>
        <time>2022-09-14T13:01:37Z</time>
      </trkpt>
      <trkpt lat="49.94067" lon="2.10404">
        <ele>61.6</ele>
        <time>2022-09-14T13:01:38Z</time>
      </trkpt>
      <trkpt lat="49.94068" lon="2.10402">
        <ele>61.7</ele>
        <time>2022-09-14T13:01:39Z</time>
      </trkpt>
      <trkpt lat="49.94068" lon="2.104">
        <ele>61.7</ele>
        <time>2022-09-14T13:01:40Z</time>
      </trkpt>
      <trkpt lat="49.94069" lon="2.10399">
        <ele>61.8</ele>
        <time>2022-09-14T13:01:41Z</time>
      </trkpt>
      <trkpt lat="49.94069" lon="2.10396">
        <ele>61.9</ele>
        <time>2022-09-14T13:01:42Z</time>
      </trkpt>
      <trkpt lat="49.9407" lon="2.10395">
        <ele>62</ele>
        <time>2022-09-14T13:01:43Z</time>
      </trkpt>
      <trkpt lat="49.94071" lon="2.10392">
        <ele>62.1</ele>
        <time>2022-09-14T13:01:45Z</time>
      </trkpt>
      <trkpt lat="49.94071" lon="2.10391">
        <ele>62.2</ele>
        <time>2022-09-14T13:01:46Z</time>
      </trkpt>
      <trkpt lat="49.94071" lon="2.1039">
        <ele>62.3</ele>
        <time>2022-09-14T13:01:47Z</time>
      </trkpt>
      <trkpt lat="49.94072" lon="2.10388">
        <ele>62.3</ele>
        <time>2022-09-14T13:01:48Z</time>
      </trkpt>
      <trkpt lat="49.94073" lon="2.10386">
        <ele>62.4</ele>
        <time>2022-09-14T13:01:49Z</time>
      </trkpt>
      <trkpt lat="49.94073" lon="2.10382">
        <ele>62.6</ele>
        <time>2022-09-14T13:01:51Z</time>
      </trkpt>
      <trkpt lat="49.94074" lon="2.10381">
        <ele>62.6</ele>
        <time>2022-09-14T13:01:52Z</time>
      </trkpt>
      <trkpt lat="49.94074" lon="2.1038">
        <ele>62.7</ele>
        <time>2022-09-14T13:01:53Z</time>
      </trkpt>
      <trkpt lat="49.94074" lon="2.10379">
        <ele>62.8</ele>
        <time>2022-09-14T13:01:54Z</time>
      </trkpt>
      <trkpt lat="49.94074" lon="2.10377">
        <ele>62.9</ele>
        <time>2022-09-14T13:01:55Z</time>
      </trkpt>
      <trkpt lat="49.94075" lon="2.10375">
        <ele>62.9</ele>
        <time>2022-09-14T13:01:56Z</time>
      </trkpt>
      <trkpt lat="49.94075" lon="2.10374">
        <ele>63</ele>
        <time>2022-09-14T13:01:57Z</time>
      </trkpt>
      <trkpt lat="49.94075" lon="2.10372">
        <ele>63.1</ele>
        <time>2022-09-14T13:01:58Z</time>
      </trkpt>
      <trkpt lat="49.94076" lon="2.10371">
        <ele>63.1</ele>
        <time>2022-09-14T13:01:59Z</time>
      </trkpt>
      <trkpt lat="49.94076" lon="2.10368">
        <ele>63.3</ele>
        <time>2022-09-14T13:02:00Z</time>
      </trkpt>
      <trkpt lat="49.94077" lon="2.10367">
        <ele>63.3</ele>
        <time>2022-09-14T13:02:02Z</time>
      </trkpt>
      <trkpt lat="49.94077" lon="2.10365">
        <ele>63.4</ele>
        <time>2022-09-14T13:02:03Z</time>
      </trkpt>
      <trkpt lat="49.94077" lon="2.10364">
        <ele>63.5</ele>
        <time>2022-09-14T13:02:04Z</time>
      </trkpt>
      <trkpt lat="49.94077" lon="2.10363">
        <ele>63.5</ele>
        <time>2022-09-14T13:02:05Z</time>
      </trkpt>
      <trkpt lat="49.94078" lon="2.10362">
        <ele>63.6</ele>
        <time>2022-09-14T13:02:06Z</time>
      </trkpt>
      <trkpt lat="49.94079" lon="2.1036">
        <ele>63.7</ele>
        <time>2022-09-14T13:02:07Z</time>
      </trkpt>
      <trkpt lat="49.94079" lon="2.10358">
        <ele>63.8</ele>
        <time>2022-09-14T13:02:08Z</time>
      </trkpt>
      <trkpt lat="49.9408" lon="2.10357">
        <ele>63.9</ele>
        <time>2022-09-14T13:02:10Z</time>
      </trkpt>
      <trkpt lat="49.9408" lon="2.10356">
        <ele>63.9</ele>
        <time>2022-09-14T13:02:11Z</time>
      </trkpt>
      <trkpt lat="49.94081" lon="2.10355">
        <ele>64</ele>
        <time>2022-09-14T13:02:12Z</time>
      </trkpt>
      <trkpt lat="49.94081" lon="2.10354">
        <ele>64</ele>
        <time>2022-09-14T13:02:13Z</time>
      </trkpt>
      <trkpt lat="49.94082" lon="2.10353">
        <ele>64.1</ele>
        <time>2022-09-14T13:02:14Z</time>
      </trkpt>
      <trkpt lat="49.94082" lon="2.10352">
        <ele>64.1</ele>
        <time>2022-09-14T13:02:15Z</time>
      </trkpt>
      <trkpt lat="49.94083" lon="2.10351">
        <ele>64.2</ele>
        <time>2022-09-14T13:02:16Z</time>
      </trkpt>
      <trkpt lat="49.94083" lon="2.1035">
        <ele>64.3</ele>
        <time>2022-09-14T13:02:18Z</time>
      </trkpt>
      <trkpt lat="49.94084" lon="2.10349">
        <ele>64.3</ele>
        <time>2022-09-14T13:02:19Z</time>
      </trkpt>
      <trkpt lat="49.94084" lon="2.10347">
        <ele>64.4</ele>
        <time>2022-09-14T13:02:20Z</time>
      </trkpt>
      <trkpt lat="49.94084" lon="2.10346">
        <ele>64.5</ele>
        <time>2022-09-14T13:02:21Z</time>
      </trkpt>
      <trkpt lat="49.94085" lon="2.10344">
        <ele>64.5</ele>
        <time>2022-09-14T13:02:22Z</time>
      </trkpt>
      <trkpt lat="49.94085" lon="2.10342">
        <ele>64.6</ele>
        <time>2022-09-14T13:02:23Z</time>
      </trkpt>
      <trkpt lat="49.94085" lon="2.10341">
        <ele>64.7</ele>
        <time>2022-09-14T13:02:24Z</time>
      </trkpt>
      <trkpt lat="49.94086" lon="2.10339">
        <ele>64.8</ele>
        <time>2022-09-14T13:02:25Z</time>
      </trkpt>
      <trkpt lat="49.94086" lon="2.10336">
        <ele>64.9</ele>
        <time>2022-09-14T13:02:26Z</time>
      </trkpt>
      <trkpt lat="49.94087" lon="2.10335">
        <ele>65</ele>
        <time>2022-09-14T13:02:28Z</time>
      </trkpt>
      <trkpt lat="49.94087" lon="2.10333">
        <ele>65</ele>
        <time>2022-09-14T13:02:29Z</time>
      </trkpt>
      <trkpt lat="49.94087" lon="2.10332">
        <ele>65.1</ele>
        <time>2022-09-14T13:02:30Z</time>
      </trkpt>
      <trkpt lat="49.94088" lon="2.10331">
        <ele>65.1</ele>
        <time>2022-09-14T13:02:31Z</time>
      </trkpt>
      <trkpt lat="49.94088" lon="2.10329">
        <ele>65.2</ele>
        <time>2022-09-14T13:02:32Z</time>
      </trkpt>
      <trkpt lat="49.94089" lon="2.10328">
        <ele>65.3</ele>
        <time>2022-09-14T13:02:33Z</time>
      </trkpt>
      <trkpt lat="49.94089" lon="2.10327">
        <ele>65.3</ele>
        <time>2022-09-14T13:02:34Z</time>
      </trkpt>
      <trkpt lat="49.9409" lon="2.10325">
        <ele>65.4</ele>
        <time>2022-09-14T13:02:35Z</time>
      </trkpt>
      <trkpt lat="49.9409" lon="2.10323">
        <ele>65.5</ele>
        <time>2022-09-14T13:02:36Z</time>
      </trkpt>
      <trkpt lat="49.9409" lon="2.10321">
        <ele>65.6</ele>
        <time>2022-09-14T13:02:37Z</time>
      </trkpt>
      <trkpt lat="49.94091" lon="2.10319">
        <ele>65.7</ele>
        <time>2022-09-14T13:02:39Z</time>
      </trkpt>
      <trkpt lat="49.94091" lon="2.10317">
        <ele>65.8</ele>
        <time>2022-09-14T13:02:40Z</time>
      </trkpt>
      <trkpt lat="49.94092" lon="2.10316">
        <ele>65.9</ele>
        <time>2022-09-14T13:02:41Z</time>
      </trkpt>
      <trkpt lat="49.94092" lon="2.10315">
        <ele>65.9</ele>
        <time>2022-09-14T13:02:42Z</time>
      </trkpt>
      <trkpt lat="49.94093" lon="2.10313">
        <ele>66</ele>
        <time>2022-09-14T13:02:43Z</time>
      </trkpt>
      <trkpt lat="49.94093" lon="2.10312">
        <ele>66.1</ele>
        <time>2022-09-14T13:02:44Z</time>
      </trkpt>
      <trkpt lat="49.94094" lon="2.1031">
        <ele>66.1</ele>
        <time>2022-09-14T13:02:45Z</time>
      </trkpt>
      <trkpt lat="49.94094" lon="2.10308">
        <ele>66.2</ele>
        <time>2022-09-14T13:02:47Z</time>
      </trkpt>
      <trkpt lat="49.94095" lon="2.10307">
        <ele>66.3</ele>
        <time>2022-09-14T13:02:48Z</time>
      </trkpt>
      <trkpt lat="49.94095" lon="2.10306">
        <ele>66.4</ele>
        <time>2022-09-14T13:02:49Z</time>
      </trkpt>
      <trkpt lat="49.94096" lon="2.10305">
        <ele>66.4</ele>
        <time>2022-09-14T13:02:50Z</time>
      </trkpt>
      <trkpt lat="49.94097" lon="2.10303">
        <ele>66.5</ele>
        <time>2022-09-14T13:02:51Z</time>
      </trkpt>
      <trkpt lat="49.94098" lon="2.10302">
        <ele>66.6</ele>
        <time>2022-09-14T13:02:52Z</time>
      </trkpt>
      <trkpt lat="49.94099" lon="2.103">
        <ele>66.7</ele>
        <time>2022-09-14T13:02:54Z</time>
      </trkpt>
      <trkpt lat="49.94099" lon="2.10299">
        <ele>66.8</ele>
        <time>2022-09-14T13:02:55Z</time>
      </trkpt>
      <trkpt lat="49.941" lon="2.10297">
        <ele>66.8</ele>
        <time>2022-09-14T13:02:56Z</time>
      </trkpt>
      <trkpt lat="49.94101" lon="2.10296">
        <ele>66.9</ele>
        <time>2022-09-14T13:02:57Z</time>
      </trkpt>
      <trkpt lat="49.94101" lon="2.10294">
        <ele>67</ele>
        <time>2022-09-14T13:02:59Z</time>
      </trkpt>
      <trkpt lat="49.94102" lon="2.10293">
        <ele>67</ele>
        <time>2022-09-14T13:03:00Z</time>
      </trkpt>
      <trkpt lat="49.94102" lon="2.10292">
        <ele>67.1</ele>
        <time>2022-09-14T13:03:01Z</time>
      </trkpt>
      <trkpt lat="49.94102" lon="2.10291">
        <ele>67.1</ele>
        <time>2022-09-14T13:03:02Z</time>
      </trkpt>
      <trkpt lat="49.94103" lon="2.1029">
        <ele>67.2</ele>
        <time>2022-09-14T13:03:03Z</time>
      </trkpt>
      <trkpt lat="49.94103" lon="2.10288">
        <ele>67.3</ele>
        <time>2022-09-14T13:03:04Z</time>
      </trkpt>
      <trkpt lat="49.94104" lon="2.10287">
        <ele>67.3</ele>
        <time>2022-09-14T13:03:05Z</time>
      </trkpt>
      <trkpt lat="49.94105" lon="2.10285">
        <ele>67.4</ele>
        <time>2022-09-14T13:03:07Z</time>
      </trkpt>
      <trkpt lat="49.94105" lon="2.10284">
        <ele>67.5</ele>
        <time>2022-09-14T13:03:08Z</time>
      </trkpt>
      <trkpt lat="49.94106" lon="2.10282">
        <ele>67.5</ele>
        <time>2022-09-14T13:03:09Z</time>
      </trkpt>
      <trkpt lat="49.94106" lon="2.10281">
        <ele>67.6</ele>
        <time>2022-09-14T13:03:10Z</time>
      </trkpt>
      <trkpt lat="49.94106" lon="2.1028">
        <ele>67.7</ele>
        <time>2022-09-14T13:03:11Z</time>
      </trkpt>
      <trkpt lat="49.94107" lon="2.10279">
        <ele>67.7</ele>
        <time>2022-09-14T13:03:12Z</time>
      </trkpt>
      <trkpt lat="49.94107" lon="2.10277">
        <ele>67.8</ele>
        <time>2022-09-14T13:03:13Z</time>
      </trkpt>
      <trkpt lat="49.94108" lon="2.10276">
        <ele>67.9</ele>
        <time>2022-09-14T13:03:15Z</time>
      </trkpt>
      <trkpt lat="49.94109" lon="2.10273">
        <ele>68</ele>
        <time>2022-09-14T13:03:17Z</time>
      </trkpt>
      <trkpt lat="49.94109" lon="2.10272">
        <ele>68.1</ele>
        <time>2022-09-14T13:03:18Z</time>
      </trkpt>
      <trkpt lat="49.94109" lon="2.1027">
        <ele>68.2</ele>
        <time>2022-09-14T13:03:19Z</time>
      </trkpt>
      <trkpt lat="49.9411" lon="2.10269">
        <ele>68.2</ele>
        <time>2022-09-14T13:03:20Z</time>
      </trkpt>
      <trkpt lat="49.9411" lon="2.10267">
        <ele>68.3</ele>
        <time>2022-09-14T13:03:22Z</time>
      </trkpt>
      <trkpt lat="49.94111" lon="2.10266">
        <ele>68.4</ele>
        <time>2022-09-14T13:03:23Z</time>
      </trkpt>
      <trkpt lat="49.94111" lon="2.10264">
        <ele>68.5</ele>
        <time>2022-09-14T13:03:24Z</time>
      </trkpt>
      <trkpt lat="49.94112" lon="2.10262">
        <ele>68.6</ele>
        <time>2022-09-14T13:03:25Z</time>
      </trkpt>
      <trkpt lat="49.94112" lon="2.10261">
        <ele>68.6</ele>
        <time>2022-09-14T13:03:26Z</time>
      </trkpt>
      <trkpt lat="49.94112" lon="2.1026">
        <ele>68.7</ele>
        <time>2022-09-14T13:03:27Z</time>
      </trkpt>
      <trkpt lat="49.94113" lon="2.10259">
        <ele>68.7</ele>
        <time>2022-09-14T13:03:28Z</time>
      </trkpt>
      <trkpt lat="49.94113" lon="2.10257">
        <ele>68.8</ele>
        <time>2022-09-14T13:03:29Z</time>
      </trkpt>
      <trkpt lat="49.94114" lon="2.10255">
        <ele>68.9</ele>
        <time>2022-09-14T13:03:31Z</time>
      </trkpt>
      <trkpt lat="49.94114" lon="2.10254">
        <ele>69</ele>
        <time>2022-09-14T13:03:32Z</time>
      </trkpt>
      <trkpt lat="49.94114" lon="2.10253">
        <ele>69.1</ele>
        <time>2022-09-14T13:03:33Z</time>
      </trkpt>
      <trkpt lat="49.94115" lon="2.10251">
        <ele>69.1</ele>
        <time>2022-09-14T13:03:34Z</time>
      </trkpt>
      <trkpt lat="49.94115" lon="2.1025">
        <ele>69.2</ele>
        <time>2022-09-14T13:03:35Z</time>
      </trkpt>
      <trkpt lat="49.94116" lon="2.10248">
        <ele>69.3</ele>
        <time>2022-09-14T13:03:36Z</time>
      </trkpt>
      <trkpt lat="49.94116" lon="2.10247">
        <ele>69.3</ele>
        <time>2022-09-14T13:03:37Z</time>
      </trkpt>
      <trkpt lat="49.94117" lon="2.10246">
        <ele>69.4</ele>
        <time>2022-09-14T13:03:38Z</time>
      </trkpt>
      <trkpt lat="49.94117" lon="2.10244">
        <ele>69.5</ele>
        <time>2022-09-14T13:03:39Z</time>
      </trkpt>
      <trkpt lat="49.94118" lon="2.10243">
        <ele>69.6</ele>
        <time>2022-09-14T13:03:40Z</time>
      </trkpt>
      <trkpt lat="49.94118" lon="2.10241">
        <ele>69.6</ele>
        <time>2022-09-14T13:03:42Z</time>
      </trkpt>
      <trkpt lat="49.94119" lon="2.1024">
        <ele>69.7</ele>
        <time>2022-09-14T13:03:43Z</time>
      </trkpt>
      <trkpt lat="49.94119" lon="2.10239">
        <ele>69.8</ele>
        <time>2022-09-14T13:03:44Z</time>
      </trkpt>
      <trkpt lat="49.9412" lon="2.10238">
        <ele>69.8</ele>
        <time>2022-09-14T13:03:45Z</time>
      </trkpt>
      <trkpt lat="49.9412" lon="2.10237">
        <ele>69.9</ele>
        <time>2022-09-14T13:03:46Z</time>
      </trkpt>
      <trkpt lat="49.94121" lon="2.10235">
        <ele>70</ele>
        <time>2022-09-14T13:03:47Z</time>
      </trkpt>
      <trkpt lat="49.94121" lon="2.10234">
        <ele>70</ele>
        <time>2022-09-14T13:03:48Z</time>
      </trkpt>
      <trkpt lat="49.94122" lon="2.10233">
        <ele>70.1</ele>
        <time>2022-09-14T13:03:50Z</time>
      </trkpt>
      <trkpt lat="49.94123" lon="2.10231">
        <ele>70.2</ele>
        <time>2022-09-14T13:03:51Z</time>
      </trkpt>
      <trkpt lat="49.94124" lon="2.1023">
        <ele>70.2</ele>
        <time>2022-09-14T13:03:52Z</time>
      </trkpt>
      <trkpt lat="49.94124" lon="2.10229">
        <ele>70.3</ele>
        <time>2022-09-14T13:03:53Z</time>
      </trkpt>
      <trkpt lat="49.94125" lon="2.10228">
        <ele>70.3</ele>
        <time>2022-09-14T13:03:54Z</time>
      </trkpt>
      <trkpt lat="49.94125" lon="2.10227">
        <ele>70.4</ele>
        <time>2022-09-14T13:03:55Z</time>
      </trkpt>
      <trkpt lat="49.94126" lon="2.10225">
        <ele>70.5</ele>
        <time>2022-09-14T13:03:56Z</time>
      </trkpt>
      <trkpt lat="49.94127" lon="2.10224">
        <ele>70.6</ele>
        <time>2022-09-14T13:03:58Z</time>
      </trkpt>
      <trkpt lat="49.94128" lon="2.10222">
        <ele>70.6</ele>
        <time>2022-09-14T13:03:59Z</time>
      </trkpt>
      <trkpt lat="49.94128" lon="2.10221">
        <ele>70.7</ele>
        <time>2022-09-14T13:04:00Z</time>
      </trkpt>
      <trkpt lat="49.94129" lon="2.1022">
        <ele>70.8</ele>
        <time>2022-09-14T13:04:01Z</time>
      </trkpt>
      <trkpt lat="49.9413" lon="2.10218">
        <ele>70.8</ele>
        <time>2022-09-14T13:04:02Z</time>
      </trkpt>
      <trkpt lat="49.9413" lon="2.10217">
        <ele>70.9</ele>
        <time>2022-09-14T13:04:03Z</time>
      </trkpt>
      <trkpt lat="49.94132" lon="2.10214">
        <ele>71.1</ele>
        <time>2022-09-14T13:04:04Z</time>
      </trkpt>
      <trkpt lat="49.94132" lon="2.10213">
        <ele>71.1</ele>
        <time>2022-09-14T13:04:06Z</time>
      </trkpt>
      <trkpt lat="49.94133" lon="2.10212">
        <ele>71.2</ele>
        <time>2022-09-14T13:04:07Z</time>
      </trkpt>
      <trkpt lat="49.94134" lon="2.1021">
        <ele>71.2</ele>
        <time>2022-09-14T13:04:08Z</time>
      </trkpt>
      <trkpt lat="49.94134" lon="2.1021">
        <ele>71.2</ele>
        <time>2022-09-14T13:04:10Z</time>
      </trkpt>
      <trkpt lat="49.94135" lon="2.10209">
        <ele>71.3</ele>
        <time>2022-09-14T13:04:11Z</time>
      </trkpt>
      <trkpt lat="49.94135" lon="2.10208">
        <ele>71.3</ele>
        <time>2022-09-14T13:04:12Z</time>
      </trkpt>
      <trkpt lat="49.94136" lon="2.10206">
        <ele>71.4</ele>
        <time>2022-09-14T13:04:14Z</time>
      </trkpt>
      <trkpt lat="49.94137" lon="2.10204">
        <ele>71.5</ele>
        <time>2022-09-14T13:04:15Z</time>
      </trkpt>
      <trkpt lat="49.94138" lon="2.10202">
        <ele>71.6</ele>
        <time>2022-09-14T13:04:16Z</time>
      </trkpt>
      <trkpt lat="49.94139" lon="2.10201">
        <ele>71.6</ele>
        <time>2022-09-14T13:04:17Z</time>
      </trkpt>
      <trkpt lat="49.94139" lon="2.10199">
        <ele>71.7</ele>
        <time>2022-09-14T13:04:18Z</time>
      </trkpt>
      <trkpt lat="49.9414" lon="2.10198">
        <ele>71.7</ele>
        <time>2022-09-14T13:04:19Z</time>
      </trkpt>
      <trkpt lat="49.94141" lon="2.10197">
        <ele>71.8</ele>
        <time>2022-09-14T13:04:21Z</time>
      </trkpt>
      <trkpt lat="49.94141" lon="2.10195">
        <ele>71.8</ele>
        <time>2022-09-14T13:04:22Z</time>
      </trkpt>
      <trkpt lat="49.94142" lon="2.10193">
        <ele>71.9</ele>
        <time>2022-09-14T13:04:23Z</time>
      </trkpt>
      <trkpt lat="49.94142" lon="2.10192">
        <ele>71.9</ele>
        <time>2022-09-14T13:04:24Z</time>
      </trkpt>
      <trkpt lat="49.94143" lon="2.10191">
        <ele>71.9</ele>
        <time>2022-09-14T13:04:25Z</time>
      </trkpt>
      <trkpt lat="49.94143" lon="2.1019">
        <ele>72</ele>
        <time>2022-09-14T13:04:26Z</time>
      </trkpt>
      <trkpt lat="49.94144" lon="2.10189">
        <ele>72</ele>
        <time>2022-09-14T13:04:28Z</time>
      </trkpt>
      <trkpt lat="49.94144" lon="2.10187">
        <ele>72.1</ele>
        <time>2022-09-14T13:04:29Z</time>
      </trkpt>
      <trkpt lat="49.94144" lon="2.10186">
        <ele>72.1</ele>
        <time>2022-09-14T13:04:30Z</time>
      </trkpt>
      <trkpt lat="49.94145" lon="2.10185">
        <ele>72.2</ele>
        <time>2022-09-14T13:04:31Z</time>
      </trkpt>
      <trkpt lat="49.94145" lon="2.10183">
        <ele>72.2</ele>
        <time>2022-09-14T13:04:32Z</time>
      </trkpt>
      <trkpt lat="49.94146" lon="2.10182">
        <ele>72.3</ele>
        <time>2022-09-14T13:04:33Z</time>
      </trkpt>
      <trkpt lat="49.94146" lon="2.1018">
        <ele>72.3</ele>
        <time>2022-09-14T13:04:34Z</time>
      </trkpt>
      <trkpt lat="49.94147" lon="2.10179">
        <ele>72.4</ele>
        <time>2022-09-14T13:04:36Z</time>
      </trkpt>
      <trkpt lat="49.94148" lon="2.10177">
        <ele>72.4</ele>
        <time>2022-09-14T13:04:37Z</time>
      </trkpt>
      <trkpt lat="49.94148" lon="2.10175">
        <ele>72.5</ele>
        <time>2022-09-14T13:04:38Z</time>
      </trkpt>
      <trkpt lat="49.94149" lon="2.10174">
        <ele>72.5</ele>
        <time>2022-09-14T13:04:39Z</time>
      </trkpt>
      <trkpt lat="49.94149" lon="2.10173">
        <ele>72.5</ele>
        <time>2022-09-14T13:04:40Z</time>
      </trkpt>
      <trkpt lat="49.94149" lon="2.10172">
        <ele>72.6</ele>
        <time>2022-09-14T13:04:41Z</time>
      </trkpt>
      <trkpt lat="49.9415" lon="2.10169">
        <ele>72.7</ele>
        <time>2022-09-14T13:04:42Z</time>
      </trkpt>
      <trkpt lat="49.94151" lon="2.10168">
        <ele>72.7</ele>
        <time>2022-09-14T13:04:43Z</time>
      </trkpt>
      <trkpt lat="49.94151" lon="2.10167">
        <ele>72.8</ele>
        <time>2022-09-14T13:04:45Z</time>
      </trkpt>
      <trkpt lat="49.94151" lon="2.10166">
        <ele>72.8</ele>
        <time>2022-09-14T13:04:46Z</time>
      </trkpt>
      <trkpt lat="49.94152" lon="2.10165">
        <ele>72.8</ele>
        <time>2022-09-14T13:04:47Z</time>
      </trkpt>
      <trkpt lat="49.94152" lon="2.10163">
        <ele>72.9</ele>
        <time>2022-09-14T13:04:48Z</time>
      </trkpt>
      <trkpt lat="49.94153" lon="2.10162">
        <ele>72.9</ele>
        <time>2022-09-14T13:04:49Z</time>
      </trkpt>
      <trkpt lat="49.94153" lon="2.10161">
        <ele>72.9</ele>
        <time>2022-09-14T13:04:50Z</time>
      </trkpt>
      <trkpt lat="49.94153" lon="2.1016">
        <ele>73</ele>
        <time>2022-09-14T13:04:51Z</time>
      </trkpt>
      <trkpt lat="49.94154" lon="2.10159">
        <ele>73</ele>
        <time>2022-09-14T13:04:52Z</time>
      </trkpt>
      <trkpt lat="49.94155" lon="2.10157">
        <ele>73.1</ele>
        <time>2022-09-14T13:04:53Z</time>
      </trkpt>
      <trkpt lat="49.94155" lon="2.10156">
        <ele>73.1</ele>
        <time>2022-09-14T13:04:54Z</time>
      </trkpt>
      <trkpt lat="49.94156" lon="2.10154">
        <ele>73.2</ele>
        <time>2022-09-14T13:04:56Z</time>
      </trkpt>
      <trkpt lat="49.94156" lon="2.10153">
        <ele>73.2</ele>
        <time>2022-09-14T13:04:57Z</time>
      </trkpt>
      <trkpt lat="49.94157" lon="2.10151">
        <ele>73.3</ele>
        <time>2022-09-14T13:04:58Z</time>
      </trkpt>
      <trkpt lat="49.94158" lon="2.1015">
        <ele>73.3</ele>
        <time>2022-09-14T13:04:59Z</time>
      </trkpt>
      <trkpt lat="49.94159" lon="2.10148">
        <ele>73.4</ele>
        <time>2022-09-14T13:05:00Z</time>
      </trkpt>
      <trkpt lat="49.9416" lon="2.10147">
        <ele>73.4</ele>
        <time>2022-09-14T13:05:01Z</time>
      </trkpt>
      <trkpt lat="49.9416" lon="2.10146">
        <ele>73.5</ele>
        <time>2022-09-14T13:05:02Z</time>
      </trkpt>
      <trkpt lat="49.94162" lon="2.10144">
        <ele>73.6</ele>
        <time>2022-09-14T13:05:03Z</time>
      </trkpt>
      <trkpt lat="49.94163" lon="2.10143">
        <ele>73.6</ele>
        <time>2022-09-14T13:05:05Z</time>
      </trkpt>
      <trkpt lat="49.94163" lon="2.10142">
        <ele>73.7</ele>
        <time>2022-09-14T13:05:06Z</time>
      </trkpt>
      <trkpt lat="49.94164" lon="2.10141">
        <ele>73.7</ele>
        <time>2022-09-14T13:05:07Z</time>
      </trkpt>
      <trkpt lat="49.94164" lon="2.1014">
        <ele>73.7</ele>
        <time>2022-09-14T13:05:08Z</time>
      </trkpt>
      <trkpt lat="49.94164" lon="2.10138">
        <ele>73.8</ele>
        <time>2022-09-14T13:05:09Z</time>
      </trkpt>
      <trkpt lat="49.94165" lon="2.10137">
        <ele>73.8</ele>
        <time>2022-09-14T13:05:10Z</time>
      </trkpt>
      <trkpt lat="49.94166" lon="2.10135">
        <ele>73.9</ele>
        <time>2022-09-14T13:05:11Z</time>
      </trkpt>
      <trkpt lat="49.94167" lon="2.10134">
        <ele>73.9</ele>
        <time>2022-09-14T13:05:13Z</time>
      </trkpt>
      <trkpt lat="49.94167" lon="2.10133">
        <ele>74</ele>
        <time>2022-09-14T13:05:14Z</time>
      </trkpt>
      <trkpt lat="49.94168" lon="2.10132">
        <ele>74</ele>
        <time>2022-09-14T13:05:15Z</time>
      </trkpt>
      <trkpt lat="49.94168" lon="2.1013">
        <ele>74</ele>
        <time>2022-09-14T13:05:16Z</time>
      </trkpt>
      <trkpt lat="49.94169" lon="2.10128">
        <ele>74.1</ele>
        <time>2022-09-14T13:05:17Z</time>
      </trkpt>
      <trkpt lat="49.9417" lon="2.10127">
        <ele>74.2</ele>
        <time>2022-09-14T13:05:19Z</time>
      </trkpt>
      <trkpt lat="49.9417" lon="2.10126">
        <ele>74.2</ele>
        <time>2022-09-14T13:05:20Z</time>
      </trkpt>
      <trkpt lat="49.94171" lon="2.10125">
        <ele>74.2</ele>
        <time>2022-09-14T13:05:21Z</time>
      </trkpt>
      <trkpt lat="49.94172" lon="2.10124">
        <ele>74.2</ele>
        <time>2022-09-14T13:05:23Z</time>
      </trkpt>
      <trkpt lat="49.94173" lon="2.10123">
        <ele>74.2</ele>
        <time>2022-09-14T13:05:24Z</time>
      </trkpt>
      <trkpt lat="49.94173" lon="2.10123">
        <ele>74.2</ele>
        <time>2022-09-14T13:05:25Z</time>
      </trkpt>
      <trkpt lat="49.94174" lon="2.10122">
        <ele>74.2</ele>
        <time>2022-09-14T13:05:26Z</time>
      </trkpt>
      <trkpt lat="49.94174" lon="2.10122">
        <ele>74.2</ele>
        <time>2022-09-14T13:05:27Z</time>
      </trkpt>
      <trkpt lat="49.94175" lon="2.10123">
        <ele>74.2</ele>
        <time>2022-09-14T13:05:28Z</time>
      </trkpt>
      <trkpt lat="49.94176" lon="2.10124">
        <ele>74.2</ele>
        <time>2022-09-14T13:05:30Z</time>
      </trkpt>
      <trkpt lat="49.94177" lon="2.10124">
        <ele>74.2</ele>
        <time>2022-09-14T13:05:31Z</time>
      </trkpt>
      <trkpt lat="49.94178" lon="2.10124">
        <ele>74.2</ele>
        <time>2022-09-14T13:05:32Z</time>
      </trkpt>
      <trkpt lat="49.94179" lon="2.10124">
        <ele>74.2</ele>
        <time>2022-09-14T13:05:33Z</time>
      </trkpt>
      <trkpt lat="49.94179" lon="2.10124">
        <ele>74.2</ele>
        <time>2022-09-14T13:05:34Z</time>
      </trkpt>
      <trkpt lat="49.9418" lon="2.10124">
        <ele>74.2</ele>
        <time>2022-09-14T13:05:35Z</time>
      </trkpt>
      <trkpt lat="49.9418" lon="2.10124">
        <ele>74.2</ele>
        <time>2022-09-14T13:05:36Z</time>
      </trkpt>
      <trkpt lat="49.94181" lon="2.10124">
        <ele>74.2</ele>
        <time>2022-09-14T13:05:37Z</time>
      </trkpt>
      <trkpt lat="49.94182" lon="2.10124">
        <ele>74.2</ele>
        <time>2022-09-14T13:05:38Z</time>
      </trkpt>
      <trkpt lat="49.94182" lon="2.10124">
        <ele>74.2</ele>
        <time>2022-09-14T13:05:39Z</time>
      </trkpt>
      <trkpt lat="49.94182" lon="2.10124">
        <ele>74.2</ele>
        <time>2022-09-14T13:05:40Z</time>
      </trkpt>
      <trkpt lat="49.94182" lon="2.10125">
        <ele>74.2</ele>
        <time>2022-09-14T13:05:41Z</time>
      </trkpt>
      <trkpt lat="49.94182" lon="2.10125">
        <ele>74.2</ele>
        <time>2022-09-14T13:05:42Z</time>
      </trkpt>
      <trkpt lat="49.94182" lon="2.10125">
        <ele>74.2</ele>
        <time>2022-09-14T13:05:43Z</time>
      </trkpt>
      <trkpt lat="49.94182" lon="2.10125">
        <ele>74.2</ele>
        <time>2022-09-14T13:05:44Z</time>
      </trkpt>
      <trkpt lat="49.94182" lon="2.10125">
        <ele>74.2</ele>
        <time>2022-09-14T13:05:45Z</time>
      </trkpt>
      <trkpt lat="49.94182" lon="2.10125">
        <ele>74.2</ele>
        <time>2022-09-14T13:05:46Z</time>
      </trkpt>
      <trkpt lat="49.94182" lon="2.10125">
        <ele>74.2</ele>
        <time>2022-09-14T13:05:47Z</time>
      </trkpt>
      <trkpt lat="49.94182" lon="2.10125">
        <ele>74.2</ele>
        <time>2022-09-14T13:05:48Z</time>
      </trkpt>
      <trkpt lat="49.94182" lon="2.10125">
        <ele>74.2</ele>
        <time>2022-09-14T13:05:49Z</time>
      </trkpt>
      <trkpt lat="49.94182" lon="2.10125">
        <ele>74.2</ele>
        <time>2022-09-14T13:05:50Z</time>
      </trkpt>
      <trkpt lat="49.94182" lon="2.10125">
        <ele>74.2</ele>
        <time>2022-09-14T13:05:51Z</time>
      </trkpt>
      <trkpt lat="49.94182" lon="2.10125">
        <ele>74.2</ele>
        <time>2022-09-14T13:05:52Z</time>
      </trkpt>
      <trkpt lat="49.94182" lon="2.10125">
        <ele>74.2</ele>
        <time>2022-09-14T13:05:53Z</time>
      </trkpt>
      <trkpt lat="49.94181" lon="2.10125">
        <ele>74.2</ele>
        <time>2022-09-14T13:05:54Z</time>
      </trkpt>
      <trkpt lat="49.94181" lon="2.10125">
        <ele>74.2</ele>
        <time>2022-09-14T13:05:55Z</time>
      </trkpt>
      <trkpt lat="49.94181" lon="2.10125">
        <ele>74.2</ele>
        <time>2022-09-14T13:05:56Z</time>
      </trkpt>
      <trkpt lat="49.94181" lon="2.10125">
        <ele>74.2</ele>
        <time>2022-09-14T13:05:57Z</time>
      </trkpt>
      <trkpt lat="49.94181" lon="2.10125">
        <ele>74.2</ele>
        <time>2022-09-14T13:05:58Z</time>
      </trkpt>
      <trkpt lat="49.94181" lon="2.10125">
        <ele>74.2</ele>
        <time>2022-09-14T13:05:59Z</time>
      </trkpt>
      <trkpt lat="49.94181" lon="2.10125">
        <ele>74.2</ele>
        <time>2022-09-14T13:06:00Z</time>
      </trkpt>
      <trkpt lat="49.94181" lon="2.10125">
        <ele>74.2</ele>
        <time>2022-09-14T13:06:01Z</time>
      </trkpt>
      <trkpt lat="49.94181" lon="2.10125">
        <ele>74.2</ele>
        <time>2022-09-14T13:06:02Z</time>
      </trkpt>
      <trkpt lat="49.94181" lon="2.10125">
        <ele>74.2</ele>
        <time>2022-09-14T13:06:03Z</time>
      </trkpt>
      <trkpt lat="49.94181" lon="2.10125">
        <ele>74.2</ele>
        <time>2022-09-14T13:06:04Z</time>
      </trkpt>
      <trkpt lat="49.94181" lon="2.10125">
        <ele>74.2</ele>
        <time>2022-09-14T13:06:05Z</time>
      </trkpt>
      <trkpt lat="49.94181" lon="2.10125">
        <ele>74.2</ele>
        <time>2022-09-14T13:06:06Z</time>
      </trkpt>
      <trkpt lat="49.94181" lon="2.10125">
        <ele>74.2</ele>
        <time>2022-09-14T13:06:07Z</time>
      </trkpt>
      <trkpt lat="49.94181" lon="2.10125">
        <ele>74.2</ele>
        <time>2022-09-14T13:06:08Z</time>
      </trkpt>
      <trkpt lat="49.94181" lon="2.10125">
        <ele>74.2</ele>
        <time>2022-09-14T13:06:09Z</time>
      </trkpt>
      <trkpt lat="49.94181" lon="2.10125">
        <ele>74.2</ele>
        <time>2022-09-14T13:06:10Z</time>
      </trkpt>
      <trkpt lat="49.94181" lon="2.10125">
        <ele>74.2</ele>
        <time>2022-09-14T13:06:11Z</time>
      </trkpt>
      <trkpt lat="49.94181" lon="2.10125">
        <ele>74.2</ele>
        <time>2022-09-14T13:06:12Z</time>
      </trkpt>
      <trkpt lat="49.9418" lon="2.10125">
        <ele>74.2</ele>
        <time>2022-09-14T13:06:13Z</time>
      </trkpt>
      <trkpt lat="49.9418" lon="2.10125">
        <ele>74.2</ele>
        <time>2022-09-14T13:06:14Z</time>
      </trkpt>
      <trkpt lat="49.9418" lon="2.10125">
        <ele>74.2</ele>
        <time>2022-09-14T13:06:15Z</time>
      </trkpt>
      <trkpt lat="49.9418" lon="2.10125">
        <ele>74.2</ele>
        <time>2022-09-14T13:06:16Z</time>
      </trkpt>
      <trkpt lat="49.9418" lon="2.10125">
        <ele>74.2</ele>
        <time>2022-09-14T13:06:17Z</time>
      </trkpt>
      <trkpt lat="49.9418" lon="2.10125">
        <ele>74.2</ele>
        <time>2022-09-14T13:06:18Z</time>
      </trkpt>
      <trkpt lat="49.9418" lon="2.10125">
        <ele>74.2</ele>
        <time>2022-09-14T13:06:19Z</time>
      </trkpt>
      <trkpt lat="49.9418" lon="2.10125">
        <ele>74.2</ele>
        <time>2022-09-14T13:06:20Z</time>
      </trkpt>
      <trkpt lat="49.9418" lon="2.10125">
        <ele>74.2</ele>
        <time>2022-09-14T13:06:21Z</time>
      </trkpt>
      <trkpt lat="49.9418" lon="2.10125">
        <ele>74.2</ele>
        <time>2022-09-14T13:06:22Z</time>
      </trkpt>
      <trkpt lat="49.9418" lon="2.10125">
        <ele>74.2</ele>
        <time>2022-09-14T13:06:23Z</time>
      </trkpt>
      <trkpt lat="49.9418" lon="2.10125">
        <ele>74.2</ele>
        <time>2022-09-14T13:06:24Z</time>
      </trkpt>
      <trkpt lat="49.9418" lon="2.10125">
        <ele>74.2</ele>
        <time>2022-09-14T13:06:25Z</time>
      </trkpt>
      <trkpt lat="49.9418" lon="2.10125">
        <ele>74.2</ele>
        <time>2022-09-14T13:06:26Z</time>
      </trkpt>
      <trkpt lat="49.9418" lon="2.10125">
        <ele>74.2</ele>
        <time>2022-09-14T13:06:27Z</time>
      </trkpt>
      <trkpt lat="49.9418" lon="2.10125">
        <ele>74.2</ele>
        <time>2022-09-14T13:06:28Z</time>
      </trkpt>
      <trkpt lat="49.9418" lon="2.10125">
        <ele>74.2</ele>
        <time>2022-09-14T13:06:29Z</time>
      </trkpt>
      <trkpt lat="49.9418" lon="2.10125">
        <ele>74.2</ele>
        <time>2022-09-14T13:06:30Z</time>
      </trkpt>
      <trkpt lat="49.9418" lon="2.10125">
        <ele>74.2</ele>
        <time>2022-09-14T13:06:31Z</time>
      </trkpt>
      <trkpt lat="49.9418" lon="2.10125">
        <ele>74.2</ele>
        <time>2022-09-14T13:06:32Z</time>
      </trkpt>
      <trkpt lat="49.94179" lon="2.10125">
        <ele>74.2</ele>
        <time>2022-09-14T13:06:33Z</time>
      </trkpt>
      <trkpt lat="49.94179" lon="2.10125">
        <ele>74.2</ele>
        <time>2022-09-14T13:06:34Z</time>
      </trkpt>
      <trkpt lat="49.94179" lon="2.10125">
        <ele>74.2</ele>
        <time>2022-09-14T13:06:35Z</time>
      </trkpt>
      <trkpt lat="49.94179" lon="2.10125">
        <ele>74.2</ele>
        <time>2022-09-14T13:06:36Z</time>
      </trkpt>
      <trkpt lat="49.94179" lon="2.10125">
        <ele>74.2</ele>
        <time>2022-09-14T13:06:37Z</time>
      </trkpt>
      <trkpt lat="49.94179" lon="2.10125">
        <ele>74.2</ele>
        <time>2022-09-14T13:06:38Z</time>
      </trkpt>
      <trkpt lat="49.94179" lon="2.10125">
        <ele>74.2</ele>
        <time>2022-09-14T13:06:39Z</time>
      </trkpt>
      <trkpt lat="49.94179" lon="2.10125">
        <ele>74.2</ele>
        <time>2022-09-14T13:06:40Z</time>
      </trkpt>
      <trkpt lat="49.94179" lon="2.10125">
        <ele>74.2</ele>
        <time>2022-09-14T13:06:41Z</time>
      </trkpt>
      <trkpt lat="49.94179" lon="2.10125">
        <ele>74.2</ele>
        <time>2022-09-14T13:06:42Z</time>
      </trkpt>
      <trkpt lat="49.94179" lon="2.10125">
        <ele>74.2</ele>
        <time>2022-09-14T13:06:43Z</time>
      </trkpt>
      <trkpt lat="49.94179" lon="2.10125">
        <ele>74.2</ele>
        <time>2022-09-14T13:06:44Z</time>
      </trkpt>
      <trkpt lat="49.94179" lon="2.10125">
        <ele>74.2</ele>
        <time>2022-09-14T13:06:45Z</time>
      </trkpt>
      <trkpt lat="49.94179" lon="2.10125">
        <ele>74.2</ele>
        <time>2022-09-14T13:06:46Z</time>
      </trkpt>
      <trkpt lat="49.94179" lon="2.10125">
        <ele>74.2</ele>
        <time>2022-09-14T13:06:47Z</time>
      </trkpt>
      <trkpt lat="49.94179" lon="2.10125">
        <ele>74.2</ele>
        <time>2022-09-14T13:06:48Z</time>
      </trkpt>
      <trkpt lat="49.94179" lon="2.10125">
        <ele>74.2</ele>
        <time>2022-09-14T13:06:49Z</time>
      </trkpt>
      <trkpt lat="49.94179" lon="2.10125">
        <ele>74.2</ele>
        <time>2022-09-14T13:06:50Z</time>
      </trkpt>
      <trkpt lat="49.94179" lon="2.10125">
        <ele>74.2</ele>
        <time>2022-09-14T13:06:51Z</time>
      </trkpt>
      <trkpt lat="49.94179" lon="2.10125">
        <ele>74.2</ele>
        <time>2022-09-14T13:06:52Z</time>
      </trkpt>
      <trkpt lat="49.94178" lon="2.10125">
        <ele>74.2</ele>
        <time>2022-09-14T13:06:53Z</time>
      </trkpt>
      <trkpt lat="49.94178" lon="2.10125">
        <ele>74.2</ele>
        <time>2022-09-14T13:06:54Z</time>
      </trkpt>
      <trkpt lat="49.94178" lon="2.10125">
        <ele>74.2</ele>
        <time>2022-09-14T13:06:55Z</time>
      </trkpt>
      <trkpt lat="49.94178" lon="2.10125">
        <ele>74.2</ele>
        <time>2022-09-14T13:06:56Z</time>
      </trkpt>
      <trkpt lat="49.94178" lon="2.10125">
        <ele>74.2</ele>
        <time>2022-09-14T13:06:57Z</time>
      </trkpt>
      <trkpt lat="49.94178" lon="2.10125">
        <ele>74.2</ele>
        <time>2022-09-14T13:06:58Z</time>
      </trkpt>
      <trkpt lat="49.94178" lon="2.10125">
        <ele>74.2</ele>
        <time>2022-09-14T13:06:59Z</time>
      </trkpt>
      <trkpt lat="49.94178" lon="2.10125">
        <ele>74.2</ele>
        <time>2022-09-14T13:07:00Z</time>
      </trkpt>
      <trkpt lat="49.94178" lon="2.10126">
        <ele>74.2</ele>
        <time>2022-09-14T13:07:01Z</time>
      </trkpt>
      <trkpt lat="49.94178" lon="2.10126">
        <ele>74.2</ele>
        <time>2022-09-14T13:07:02Z</time>
      </trkpt>
      <trkpt lat="49.94178" lon="2.10126">
        <ele>74.2</ele>
        <time>2022-09-14T13:07:03Z</time>
      </trkpt>
      <trkpt lat="49.94178" lon="2.10126">
        <ele>74.2</ele>
        <time>2022-09-14T13:07:04Z</time>
      </trkpt>
      <trkpt lat="49.94178" lon="2.10126">
        <ele>74.2</ele>
        <time>2022-09-14T13:07:05Z</time>
      </trkpt>
      <trkpt lat="49.94178" lon="2.10126">
        <ele>74.2</ele>
        <time>2022-09-14T13:07:06Z</time>
      </trkpt>
      <trkpt lat="49.94178" lon="2.10126">
        <ele>74.2</ele>
        <time>2022-09-14T13:07:07Z</time>
      </trkpt>
      <trkpt lat="49.94178" lon="2.10126">
        <ele>74.2</ele>
        <time>2022-09-14T13:07:08Z</time>
      </trkpt>
      <trkpt lat="49.94178" lon="2.10126">
        <ele>74.2</ele>
        <time>2022-09-14T13:07:09Z</time>
      </trkpt>
      <trkpt lat="49.94178" lon="2.10126">
        <ele>74.2</ele>
        <time>2022-09-14T13:07:10Z</time>
      </trkpt>
      <trkpt lat="49.94178" lon="2.10126">
        <ele>74.2</ele>
        <time>2022-09-14T13:07:11Z</time>
      </trkpt>
      <trkpt lat="49.94178" lon="2.10126">
        <ele>74.2</ele>
        <time>2022-09-14T13:07:12Z</time>
      </trkpt>
      <trkpt lat="49.94177" lon="2.10126">
        <ele>74.2</ele>
        <time>2022-09-14T13:07:13Z</time>
      </trkpt>
      <trkpt lat="49.94177" lon="2.10126">
        <ele>74.2</ele>
        <time>2022-09-14T13:07:14Z</time>
      </trkpt>
      <trkpt lat="49.94177" lon="2.10126">
        <ele>74.2</ele>
        <time>2022-09-14T13:07:15Z</time>
      </trkpt>
      <trkpt lat="49.94177" lon="2.10126">
        <ele>74.2</ele>
        <time>2022-09-14T13:07:16Z</time>
      </trkpt>
      <trkpt lat="49.94177" lon="2.10126">
        <ele>74.2</ele>
        <time>2022-09-14T13:07:17Z</time>
      </trkpt>
      <trkpt lat="49.94177" lon="2.10126">
        <ele>74.2</ele>
        <time>2022-09-14T13:07:18Z</time>
      </trkpt>
      <trkpt lat="49.94177" lon="2.10126">
        <ele>74.2</ele>
        <time>2022-09-14T13:07:19Z</time>
      </trkpt>
      <trkpt lat="49.94177" lon="2.10126">
        <ele>74.2</ele>
        <time>2022-09-14T13:07:20Z</time>
      </trkpt>
      <trkpt lat="49.94177" lon="2.10126">
        <ele>74.2</ele>
        <time>2022-09-14T13:07:21Z</time>
      </trkpt>
      <trkpt lat="49.94177" lon="2.10126">
        <ele>74.2</ele>
        <time>2022-09-14T13:07:22Z</time>
      </trkpt>
      <trkpt lat="49.94177" lon="2.10126">
        <ele>74.2</ele>
        <time>2022-09-14T13:07:23Z</time>
      </trkpt>
      <trkpt lat="49.94177" lon="2.10126">
        <ele>74.2</ele>
        <time>2022-09-14T13:07:24Z</time>
      </trkpt>
      <trkpt lat="49.94177" lon="2.10126">
        <ele>74.2</ele>
        <time>2022-09-14T13:07:25Z</time>
      </trkpt>
      <trkpt lat="49.94177" lon="2.10126">
        <ele>74.2</ele>
        <time>2022-09-14T13:07:26Z</time>
      </trkpt>
      <trkpt lat="49.94177" lon="2.10126">
        <ele>74.3</ele>
        <time>2022-09-14T13:07:27Z</time>
      </trkpt>
      <trkpt lat="49.94177" lon="2.10126">
        <ele>74.3</ele>
        <time>2022-09-14T13:07:28Z</time>
      </trkpt>
      <trkpt lat="49.94177" lon="2.10126">
        <ele>74.3</ele>
        <time>2022-09-14T13:07:29Z</time>
      </trkpt>
      <trkpt lat="49.94177" lon="2.10126">
        <ele>74.3</ele>
        <time>2022-09-14T13:07:30Z</time>
      </trkpt>
      <trkpt lat="49.94177" lon="2.10126">
        <ele>74.3</ele>
        <time>2022-09-14T13:07:31Z</time>
      </trkpt>
      <trkpt lat="49.94177" lon="2.10126">
        <ele>74.3</ele>
        <time>2022-09-14T13:07:32Z</time>
      </trkpt>
      <trkpt lat="49.94176" lon="2.10126">
        <ele>74.3</ele>
        <time>2022-09-14T13:07:33Z</time>
      </trkpt>
      <trkpt lat="49.94176" lon="2.10126">
        <ele>74.3</ele>
        <time>2022-09-14T13:07:34Z</time>
      </trkpt>
      <trkpt lat="49.94176" lon="2.10126">
        <ele>74.3</ele>
        <time>2022-09-14T13:07:35Z</time>
      </trkpt>
      <trkpt lat="49.94176" lon="2.10126">
        <ele>74.3</ele>
        <time>2022-09-14T13:07:36Z</time>
      </trkpt>
      <trkpt lat="49.94176" lon="2.10126">
        <ele>74.3</ele>
        <time>2022-09-14T13:07:37Z</time>
      </trkpt>
      <trkpt lat="49.94176" lon="2.10126">
        <ele>74.3</ele>
        <time>2022-09-14T13:07:38Z</time>
      </trkpt>
      <trkpt lat="49.94176" lon="2.10126">
        <ele>74.3</ele>
        <time>2022-09-14T13:07:39Z</time>
      </trkpt>
      <trkpt lat="49.94176" lon="2.10126">
        <ele>74.3</ele>
        <time>2022-09-14T13:07:40Z</time>
      </trkpt>
      <trkpt lat="49.94176" lon="2.10126">
        <ele>74.3</ele>
        <time>2022-09-14T13:07:41Z</time>
      </trkpt>
      <trkpt lat="49.94176" lon="2.10126">
        <ele>74.3</ele>
        <time>2022-09-14T13:07:42Z</time>
      </trkpt>
      <trkpt lat="49.94176" lon="2.10126">
        <ele>74.3</ele>
        <time>2022-09-14T13:07:43Z</time>
      </trkpt>
      <trkpt lat="49.94174" lon="2.10127">
        <ele>74.3</ele>
        <time>2022-09-14T13:07:44Z</time>
      </trkpt>
      <trkpt lat="49.94174" lon="2.10127">
        <ele>74.3</ele>
        <time>2022-09-14T13:07:45Z</time>
      </trkpt>
      <trkpt lat="49.94173" lon="2.10127">
        <ele>74.3</ele>
        <time>2022-09-14T13:07:46Z</time>
      </trkpt>
      <trkpt lat="49.94173" lon="2.10127">
        <ele>74.3</ele>
        <time>2022-09-14T13:07:47Z</time>
      </trkpt>
      <trkpt lat="49.94173" lon="2.10127">
        <ele>74.3</ele>
        <time>2022-09-14T13:07:48Z</time>
      </trkpt>
      <trkpt lat="49.94173" lon="2.10127">
        <ele>74.3</ele>
        <time>2022-09-14T13:07:49Z</time>
      </trkpt>
      <trkpt lat="49.94173" lon="2.10128">
        <ele>74.3</ele>
        <time>2022-09-14T13:07:50Z</time>
      </trkpt>
      <trkpt lat="49.94173" lon="2.10128">
        <ele>74.3</ele>
        <time>2022-09-14T13:07:51Z</time>
      </trkpt>
      <trkpt lat="49.94173" lon="2.10128">
        <ele>74.3</ele>
        <time>2022-09-14T13:07:52Z</time>
      </trkpt>
      <trkpt lat="49.94173" lon="2.10128">
        <ele>74.3</ele>
        <time>2022-09-14T13:07:53Z</time>
      </trkpt>
      <trkpt lat="49.94174" lon="2.10128">
        <ele>74.3</ele>
        <time>2022-09-14T13:07:54Z</time>
      </trkpt>
      <trkpt lat="49.94174" lon="2.10128">
        <ele>74.3</ele>
        <time>2022-09-14T13:07:55Z</time>
      </trkpt>
      <trkpt lat="49.94174" lon="2.10128">
        <ele>74.3</ele>
        <time>2022-09-14T13:07:57Z</time>
      </trkpt>
      <trkpt lat="49.94175" lon="2.10129">
        <ele>74.3</ele>
        <time>2022-09-14T13:07:58Z</time>
      </trkpt>
      <trkpt lat="49.94176" lon="2.10129">
        <ele>74.3</ele>
        <time>2022-09-14T13:08:00Z</time>
      </trkpt>
      <trkpt lat="49.94176" lon="2.10129">
        <ele>74.3</ele>
        <time>2022-09-14T13:08:01Z</time>
      </trkpt>
      <trkpt lat="49.94176" lon="2.10129">
        <ele>74.3</ele>
        <time>2022-09-14T13:08:02Z</time>
      </trkpt>
      <trkpt lat="49.94177" lon="2.10129">
        <ele>74.3</ele>
        <time>2022-09-14T13:08:03Z</time>
      </trkpt>
      <trkpt lat="49.94178" lon="2.1013">
        <ele>74.3</ele>
        <time>2022-09-14T13:08:04Z</time>
      </trkpt>
      <trkpt lat="49.94178" lon="2.1013">
        <ele>74.3</ele>
        <time>2022-09-14T13:08:06Z</time>
      </trkpt>
      <trkpt lat="49.94178" lon="2.1013">
        <ele>74.3</ele>
        <time>2022-09-14T13:08:07Z</time>
      </trkpt>
      <trkpt lat="49.94178" lon="2.10131">
        <ele>74.3</ele>
        <time>2022-09-14T13:08:08Z</time>
      </trkpt>
      <trkpt lat="49.94178" lon="2.10131">
        <ele>74.3</ele>
        <time>2022-09-14T13:08:09Z</time>
      </trkpt>
      <trkpt lat="49.94178" lon="2.10131">
        <ele>74.3</ele>
        <time>2022-09-14T13:08:10Z</time>
      </trkpt>
      <trkpt lat="49.94178" lon="2.10131">
        <ele>74.3</ele>
        <time>2022-09-14T13:08:11Z</time>
      </trkpt>
      <trkpt lat="49.94178" lon="2.10131">
        <ele>74.3</ele>
        <time>2022-09-14T13:08:12Z</time>
      </trkpt>
      <trkpt lat="49.94178" lon="2.10131">
        <ele>74.3</ele>
        <time>2022-09-14T13:08:13Z</time>
      </trkpt>
      <trkpt lat="49.94179" lon="2.1013">
        <ele>74.3</ele>
        <time>2022-09-14T13:08:14Z</time>
      </trkpt>
      <trkpt lat="49.94179" lon="2.1013">
        <ele>74.3</ele>
        <time>2022-09-14T13:08:15Z</time>
      </trkpt>
      <trkpt lat="49.94179" lon="2.1013">
        <ele>74.3</ele>
        <time>2022-09-14T13:08:16Z</time>
      </trkpt>
      <trkpt lat="49.94179" lon="2.1013">
        <ele>74.3</ele>
        <time>2022-09-14T13:08:17Z</time>
      </trkpt>
      <trkpt lat="49.94179" lon="2.1013">
        <ele>74.3</ele>
        <time>2022-09-14T13:08:18Z</time>
      </trkpt>
      <trkpt lat="49.94179" lon="2.1013">
        <ele>74.3</ele>
        <time>2022-09-14T13:08:19Z</time>
      </trkpt>
      <trkpt lat="49.94179" lon="2.1013">
        <ele>74.3</ele>
        <time>2022-09-14T13:08:20Z</time>
      </trkpt>
      <trkpt lat="49.94179" lon="2.1013">
        <ele>74.3</ele>
        <time>2022-09-14T13:08:21Z</time>
      </trkpt>
      <trkpt lat="49.94179" lon="2.1013">
        <ele>74.3</ele>
        <time>2022-09-14T13:08:22Z</time>
      </trkpt>
      <trkpt lat="49.94179" lon="2.1013">
        <ele>74.3</ele>
        <time>2022-09-14T13:08:23Z</time>
      </trkpt>
      <trkpt lat="49.94179" lon="2.1013">
        <ele>74.3</ele>
        <time>2022-09-14T13:08:24Z</time>
      </trkpt>
      <trkpt lat="49.94179" lon="2.10129">
        <ele>74.3</ele>
        <time>2022-09-14T13:08:26Z</time>
      </trkpt>
      <trkpt lat="49.94179" lon="2.10128">
        <ele>74.3</ele>
        <time>2022-09-14T13:08:27Z</time>
      </trkpt>
      <trkpt lat="49.94179" lon="2.10128">
        <ele>74.3</ele>
        <time>2022-09-14T13:08:28Z</time>
      </trkpt>
      <trkpt lat="49.94179" lon="2.10128">
        <ele>74.3</ele>
        <time>2022-09-14T13:08:29Z</time>
      </trkpt>
      <trkpt lat="49.94179" lon="2.10128">
        <ele>74.3</ele>
        <time>2022-09-14T13:08:30Z</time>
      </trkpt>
      <trkpt lat="49.94179" lon="2.10128">
        <ele>74.3</ele>
        <time>2022-09-14T13:08:31Z</time>
      </trkpt>
      <trkpt lat="49.94179" lon="2.10128">
        <ele>74.3</ele>
        <time>2022-09-14T13:08:32Z</time>
      </trkpt>
      <trkpt lat="49.94179" lon="2.10128">
        <ele>74.3</ele>
        <time>2022-09-14T13:08:33Z</time>
      </trkpt>
      <trkpt lat="49.94179" lon="2.10128">
        <ele>74.3</ele>
        <time>2022-09-14T13:08:34Z</time>
      </trkpt>
      <trkpt lat="49.94179" lon="2.10128">
        <ele>74.3</ele>
        <time>2022-09-14T13:08:35Z</time>
      </trkpt>
      <trkpt lat="49.94179" lon="2.10128">
        <ele>74.3</ele>
        <time>2022-09-14T13:08:36Z</time>
      </trkpt>
      <trkpt lat="49.94179" lon="2.10128">
        <ele>74.3</ele>
        <time>2022-09-14T13:08:37Z</time>
      </trkpt>
      <trkpt lat="49.94179" lon="2.10128">
        <ele>74.3</ele>
        <time>2022-09-14T13:08:38Z</time>
      </trkpt>
      <trkpt lat="49.94179" lon="2.10128">
        <ele>74.3</ele>
        <time>2022-09-14T13:08:39Z</time>
      </trkpt>
      <trkpt lat="49.94179" lon="2.10128">
        <ele>74.3</ele>
        <time>2022-09-14T13:08:40Z</time>
      </trkpt>
      <trkpt lat="49.94179" lon="2.10128">
        <ele>74.3</ele>
        <time>2022-09-14T13:08:41Z</time>
      </trkpt>
      <trkpt lat="49.94179" lon="2.10128">
        <ele>74.3</ele>
        <time>2022-09-14T13:08:42Z</time>
      </trkpt>
      <trkpt lat="49.94179" lon="2.10128">
        <ele>74.3</ele>
        <time>2022-09-14T13:08:43Z</time>
      </trkpt>
      <trkpt lat="49.94179" lon="2.10128">
        <ele>74.3</ele>
        <time>2022-09-14T13:08:44Z</time>
      </trkpt>
      <trkpt lat="49.94179" lon="2.10128">
        <ele>74.3</ele>
        <time>2022-09-14T13:08:45Z</time>
      </trkpt>
      <trkpt lat="49.94179" lon="2.10128">
        <ele>74.3</ele>
        <time>2022-09-14T13:08:46Z</time>
      </trkpt>
      <trkpt lat="49.94179" lon="2.10128">
        <ele>74.3</ele>
        <time>2022-09-14T13:08:47Z</time>
      </trkpt>
      <trkpt lat="49.94179" lon="2.10128">
        <ele>74.3</ele>
        <time>2022-09-14T13:08:48Z</time>
      </trkpt>
      <trkpt lat="49.94179" lon="2.10128">
        <ele>74.3</ele>
        <time>2022-09-14T13:08:49Z</time>
      </trkpt>
      <trkpt lat="49.94179" lon="2.10128">
        <ele>74.3</ele>
        <time>2022-09-14T13:08:50Z</time>
      </trkpt>
      <trkpt lat="49.94179" lon="2.10128">
        <ele>74.3</ele>
        <time>2022-09-14T13:08:51Z</time>
      </trkpt>
      <trkpt lat="49.94179" lon="2.10128">
        <ele>74.3</ele>
        <time>2022-09-14T13:08:52Z</time>
      </trkpt>
      <trkpt lat="49.94179" lon="2.10128">
        <ele>74.3</ele>
        <time>2022-09-14T13:08:53Z</time>
      </trkpt>
      <trkpt lat="49.94179" lon="2.10128">
        <ele>74.3</ele>
        <time>2022-09-14T13:08:54Z</time>
      </trkpt>
      <trkpt lat="49.94179" lon="2.10128">
        <ele>74.3</ele>
        <time>2022-09-14T13:08:55Z</time>
      </trkpt>
      <trkpt lat="49.94179" lon="2.10128">
        <ele>74.3</ele>
        <time>2022-09-14T13:08:56Z</time>
      </trkpt>
      <trkpt lat="49.94179" lon="2.10128">
        <ele>74.3</ele>
        <time>2022-09-14T13:08:57Z</time>
      </trkpt>
      <trkpt lat="49.94179" lon="2.10128">
        <ele>74.3</ele>
        <time>2022-09-14T13:08:58Z</time>
      </trkpt>
      <trkpt lat="49.94179" lon="2.10128">
        <ele>74.3</ele>
        <time>2022-09-14T13:08:59Z</time>
      </trkpt>
      <trkpt lat="49.94179" lon="2.10128">
        <ele>74.3</ele>
        <time>2022-09-14T13:09:00Z</time>
      </trkpt>
      <trkpt lat="49.94179" lon="2.10128">
        <ele>74.3</ele>
        <time>2022-09-14T13:09:01Z</time>
      </trkpt>
      <trkpt lat="49.94179" lon="2.10128">
        <ele>74.3</ele>
        <time>2022-09-14T13:09:02Z</time>
      </trkpt>
      <trkpt lat="49.94179" lon="2.10128">
        <ele>74.3</ele>
        <time>2022-09-14T13:09:03Z</time>
      </trkpt>
      <trkpt lat="49.94179" lon="2.10128">
        <ele>74.3</ele>
        <time>2022-09-14T13:09:04Z</time>
      </trkpt>
      <trkpt lat="49.94179" lon="2.10128">
        <ele>74.3</ele>
        <time>2022-09-14T13:09:05Z</time>
      </trkpt>
      <trkpt lat="49.94179" lon="2.10128">
        <ele>74.3</ele>
        <time>2022-09-14T13:09:06Z</time>
      </trkpt>
      <trkpt lat="49.94179" lon="2.10128">
        <ele>74.3</ele>
        <time>2022-09-14T13:09:07Z</time>
      </trkpt>
      <trkpt lat="49.94179" lon="2.10128">
        <ele>74.3</ele>
        <time>2022-09-14T13:09:08Z</time>
      </trkpt>
      <trkpt lat="49.94179" lon="2.10128">
        <ele>74.3</ele>
        <time>2022-09-14T13:09:09Z</time>
      </trkpt>
      <trkpt lat="49.94179" lon="2.10128">
        <ele>74.3</ele>
        <time>2022-09-14T13:09:10Z</time>
      </trkpt>
      <trkpt lat="49.94179" lon="2.10128">
        <ele>74.3</ele>
        <time>2022-09-14T13:09:11Z</time>
      </trkpt>
      <trkpt lat="49.94179" lon="2.10128">
        <ele>74.3</ele>
        <time>2022-09-14T13:09:12Z</time>
      </trkpt>
      <trkpt lat="49.94179" lon="2.10128">
        <ele>74.3</ele>
        <time>2022-09-14T13:09:13Z</time>
      </trkpt>
      <trkpt lat="49.94179" lon="2.10128">
        <ele>74.3</ele>
        <time>2022-09-14T13:09:14Z</time>
      </trkpt>
      <trkpt lat="49.94179" lon="2.10128">
        <ele>74.3</ele>
        <time>2022-09-14T13:09:15Z</time>
      </trkpt>
      <trkpt lat="49.94179" lon="2.10128">
        <ele>74.3</ele>
        <time>2022-09-14T13:09:16Z</time>
      </trkpt>
      <trkpt lat="49.94179" lon="2.10128">
        <ele>74.3</ele>
        <time>2022-09-14T13:09:17Z</time>
      </trkpt>
      <trkpt lat="49.94179" lon="2.10128">
        <ele>74.3</ele>
        <time>2022-09-14T13:09:18Z</time>
      </trkpt>
      <trkpt lat="49.94179" lon="2.10128">
        <ele>74.3</ele>
        <time>2022-09-14T13:09:20Z</time>
      </trkpt>
      <trkpt lat="49.94179" lon="2.10128">
        <ele>74.3</ele>
        <time>2022-09-14T13:09:21Z</time>
      </trkpt>
      <trkpt lat="49.94179" lon="2.10128">
        <ele>74.3</ele>
        <time>2022-09-14T13:09:22Z</time>
      </trkpt>
      <trkpt lat="49.94179" lon="2.10128">
        <ele>74.3</ele>
        <time>2022-09-14T13:09:23Z</time>
      </trkpt>
      <trkpt lat="49.94179" lon="2.10128">
        <ele>74.3</ele>
        <time>2022-09-14T13:09:24Z</time>
      </trkpt>
      <trkpt lat="49.94179" lon="2.10128">
        <ele>74.3</ele>
        <time>2022-09-14T13:09:25Z</time>
      </trkpt>
      <trkpt lat="49.94179" lon="2.10128">
        <ele>74.3</ele>
        <time>2022-09-14T13:09:26Z</time>
      </trkpt>
      <trkpt lat="49.94179" lon="2.10128">
        <ele>74.3</ele>
        <time>2022-09-14T13:09:27Z</time>
      </trkpt>
      <trkpt lat="49.94179" lon="2.10128">
        <ele>74.3</ele>
        <time>2022-09-14T13:09:28Z</time>
      </trkpt>
      <trkpt lat="49.94179" lon="2.10128">
        <ele>74.3</ele>
        <time>2022-09-14T13:09:29Z</time>
      </trkpt>
      <trkpt lat="49.94179" lon="2.10128">
        <ele>74.3</ele>
        <time>2022-09-14T13:09:30Z</time>
      </trkpt>
      <trkpt lat="49.94179" lon="2.10128">
        <ele>74.3</ele>
        <time>2022-09-14T13:09:31Z</time>
      </trkpt>
      <trkpt lat="49.94179" lon="2.10128">
        <ele>74.3</ele>
        <time>2022-09-14T13:09:32Z</time>
      </trkpt>
      <trkpt lat="49.94179" lon="2.10128">
        <ele>74.3</ele>
        <time>2022-09-14T13:09:33Z</time>
      </trkpt>
      <trkpt lat="49.94179" lon="2.10128">
        <ele>74.3</ele>
        <time>2022-09-14T13:09:34Z</time>
      </trkpt>
      <trkpt lat="49.94179" lon="2.10128">
        <ele>74.3</ele>
        <time>2022-09-14T13:09:35Z</time>
      </trkpt>
      <trkpt lat="49.94179" lon="2.10128">
        <ele>74.3</ele>
        <time>2022-09-14T13:09:36Z</time>
      </trkpt>
      <trkpt lat="49.94179" lon="2.10128">
        <ele>74.3</ele>
        <time>2022-09-14T13:09:37Z</time>
      </trkpt>
      <trkpt lat="49.94179" lon="2.10128">
        <ele>74.3</ele>
        <time>2022-09-14T13:09:38Z</time>
      </trkpt>
      <trkpt lat="49.94179" lon="2.10128">
        <ele>74.3</ele>
        <time>2022-09-14T13:09:39Z</time>
      </trkpt>
      <trkpt lat="49.94179" lon="2.10128">
        <ele>74.3</ele>
        <time>2022-09-14T13:09:40Z</time>
      </trkpt>
      <trkpt lat="49.94179" lon="2.10128">
        <ele>74.3</ele>
        <time>2022-09-14T13:09:41Z</time>
      </trkpt>
      <trkpt lat="49.94179" lon="2.10128">
        <ele>74.3</ele>
        <time>2022-09-14T13:09:42Z</time>
      </trkpt>
      <trkpt lat="49.94179" lon="2.10128">
        <ele>74.3</ele>
        <time>2022-09-14T13:09:43Z</time>
      </trkpt>
      <trkpt lat="49.94179" lon="2.10128">
        <ele>74.3</ele>
        <time>2022-09-14T13:09:44Z</time>
      </trkpt>
      <trkpt lat="49.94179" lon="2.10128">
        <ele>74.3</ele>
        <time>2022-09-14T13:09:45Z</time>
      </trkpt>
      <trkpt lat="49.94179" lon="2.10128">
        <ele>74.3</ele>
        <time>2022-09-14T13:09:46Z</time>
      </trkpt>
      <trkpt lat="49.94179" lon="2.10128">
        <ele>74.3</ele>
        <time>2022-09-14T13:09:47Z</time>
      </trkpt>
      <trkpt lat="49.94179" lon="2.10128">
        <ele>74.3</ele>
        <time>2022-09-14T13:09:48Z</time>
      </trkpt>
      <trkpt lat="49.94179" lon="2.10128">
        <ele>74.3</ele>
        <time>2022-09-14T13:09:49Z</time>
      </trkpt>
      <trkpt lat="49.94179" lon="2.10128">
        <ele>74.3</ele>
        <time>2022-09-14T13:09:50Z</time>
      </trkpt>
      <trkpt lat="49.94179" lon="2.10128">
        <ele>74.3</ele>
        <time>2022-09-14T13:09:51Z</time>
      </trkpt>
      <trkpt lat="49.94179" lon="2.10128">
        <ele>74.3</ele>
        <time>2022-09-14T13:09:52Z</time>
      </trkpt>
      <trkpt lat="49.94179" lon="2.10128">
        <ele>74.3</ele>
        <time>2022-09-14T13:09:53Z</time>
      </trkpt>
      <trkpt lat="49.94179" lon="2.10128">
        <ele>74.3</ele>
        <time>2022-09-14T13:09:54Z</time>
      </trkpt>
      <trkpt lat="49.94179" lon="2.10128">
        <ele>74.3</ele>
        <time>2022-09-14T13:09:55Z</time>
      </trkpt>
      <trkpt lat="49.94179" lon="2.10128">
        <ele>74.3</ele>
        <time>2022-09-14T13:09:56Z</time>
      </trkpt>
      <trkpt lat="49.94179" lon="2.10128">
        <ele>74.3</ele>
        <time>2022-09-14T13:09:57Z</time>
      </trkpt>
      <trkpt lat="49.94179" lon="2.10128">
        <ele>74.3</ele>
        <time>2022-09-14T13:09:58Z</time>
      </trkpt>
      <trkpt lat="49.94179" lon="2.10128">
        <ele>74.3</ele>
        <time>2022-09-14T13:09:59Z</time>
      </trkpt>
      <trkpt lat="49.94179" lon="2.10128">
        <ele>74.2</ele>
        <time>2022-09-14T13:10:00Z</time>
      </trkpt>
      <trkpt lat="49.94179" lon="2.10128">
        <ele>74.2</ele>
        <time>2022-09-14T13:10:01Z</time>
      </trkpt>
      <trkpt lat="49.94179" lon="2.10128">
        <ele>74.2</ele>
        <time>2022-09-14T13:10:02Z</time>
      </trkpt>
      <trkpt lat="49.94179" lon="2.10128">
        <ele>74.2</ele>
        <time>2022-09-14T13:10:03Z</time>
      </trkpt>
      <trkpt lat="49.94179" lon="2.10128">
        <ele>74.2</ele>
        <time>2022-09-14T13:10:04Z</time>
      </trkpt>
      <trkpt lat="49.94179" lon="2.10128">
        <ele>74.2</ele>
        <time>2022-09-14T13:10:05Z</time>
      </trkpt>
      <trkpt lat="49.94179" lon="2.10128">
        <ele>74.2</ele>
        <time>2022-09-14T13:10:06Z</time>
      </trkpt>
      <trkpt lat="49.94179" lon="2.10128">
        <ele>74.2</ele>
        <time>2022-09-14T13:10:07Z</time>
      </trkpt>
      <trkpt lat="49.94179" lon="2.10128">
        <ele>74.2</ele>
        <time>2022-09-14T13:10:08Z</time>
      </trkpt>
      <trkpt lat="49.94179" lon="2.10128">
        <ele>74.2</ele>
        <time>2022-09-14T13:10:09Z</time>
      </trkpt>
      <trkpt lat="49.94179" lon="2.10128">
        <ele>74.2</ele>
        <time>2022-09-14T13:10:10Z</time>
      </trkpt>
      <trkpt lat="49.94179" lon="2.10128">
        <ele>74.2</ele>
        <time>2022-09-14T13:10:11Z</time>
      </trkpt>
      <trkpt lat="49.94179" lon="2.10128">
        <ele>74.2</ele>
        <time>2022-09-14T13:10:12Z</time>
      </trkpt>
      <trkpt lat="49.94179" lon="2.10128">
        <ele>74.2</ele>
        <time>2022-09-14T13:10:13Z</time>
      </trkpt>
      <trkpt lat="49.94179" lon="2.10128">
        <ele>74.2</ele>
        <time>2022-09-14T13:10:14Z</time>
      </trkpt>
      <trkpt lat="49.94179" lon="2.10128">
        <ele>74.2</ele>
        <time>2022-09-14T13:10:15Z</time>
      </trkpt>
      <trkpt lat="49.94179" lon="2.10128">
        <ele>74.2</ele>
        <time>2022-09-14T13:10:16Z</time>
      </trkpt>
      <trkpt lat="49.94179" lon="2.10128">
        <ele>74.2</ele>
        <time>2022-09-14T13:10:17Z</time>
      </trkpt>
      <trkpt lat="49.94179" lon="2.10128">
        <ele>74.2</ele>
        <time>2022-09-14T13:10:18Z</time>
      </trkpt>
      <trkpt lat="49.94179" lon="2.10128">
        <ele>74.2</ele>
        <time>2022-09-14T13:10:19Z</time>
      </trkpt>
      <trkpt lat="49.94179" lon="2.10128">
        <ele>74.2</ele>
        <time>2022-09-14T13:10:20Z</time>
      </trkpt>
      <trkpt lat="49.94179" lon="2.10128">
        <ele>74.2</ele>
        <time>2022-09-14T13:10:21Z</time>
      </trkpt>
      <trkpt lat="49.94179" lon="2.10128">
        <ele>74.2</ele>
        <time>2022-09-14T13:10:22Z</time>
      </trkpt>
      <trkpt lat="49.94179" lon="2.10128">
        <ele>74.2</ele>
        <time>2022-09-14T13:10:23Z</time>
      </trkpt>
      <trkpt lat="49.94179" lon="2.10128">
        <ele>74.2</ele>
        <time>2022-09-14T13:10:24Z</time>
      </trkpt>
      <trkpt lat="49.94179" lon="2.10128">
        <ele>74.2</ele>
        <time>2022-09-14T13:10:25Z</time>
      </trkpt>
      <trkpt lat="49.94179" lon="2.10128">
        <ele>74.2</ele>
        <time>2022-09-14T13:10:26Z</time>
      </trkpt>
      <trkpt lat="49.94179" lon="2.10128">
        <ele>74.2</ele>
        <time>2022-09-14T13:10:27Z</time>
      </trkpt>
      <trkpt lat="49.94179" lon="2.10128">
        <ele>74.2</ele>
        <time>2022-09-14T13:10:28Z</time>
      </trkpt>
      <trkpt lat="49.94179" lon="2.10128">
        <ele>74.2</ele>
        <time>2022-09-14T13:10:29Z</time>
      </trkpt>
      <trkpt lat="49.94179" lon="2.10128">
        <ele>74.2</ele>
        <time>2022-09-14T13:10:30Z</time>
      </trkpt>
      <trkpt lat="49.94179" lon="2.10128">
        <ele>74.2</ele>
        <time>2022-09-14T13:10:31Z</time>
      </trkpt>
      <trkpt lat="49.94179" lon="2.10128">
        <ele>74.2</ele>
        <time>2022-09-14T13:10:32Z</time>
      </trkpt>
      <trkpt lat="49.94179" lon="2.10128">
        <ele>74.2</ele>
        <time>2022-09-14T13:10:33Z</time>
      </trkpt>
      <trkpt lat="49.94179" lon="2.10128">
        <ele>74.2</ele>
        <time>2022-09-14T13:10:34Z</time>
      </trkpt>
      <trkpt lat="49.94179" lon="2.10128">
        <ele>74.2</ele>
        <time>2022-09-14T13:10:35Z</time>
      </trkpt>
      <trkpt lat="49.94179" lon="2.10128">
        <ele>74.2</ele>
        <time>2022-09-14T13:10:36Z</time>
      </trkpt>
      <trkpt lat="49.94179" lon="2.10128">
        <ele>74.2</ele>
        <time>2022-09-14T13:10:37Z</time>
      </trkpt>
      <trkpt lat="49.94179" lon="2.10128">
        <ele>74.2</ele>
        <time>2022-09-14T13:10:38Z</time>
      </trkpt>
      <trkpt lat="49.94179" lon="2.10128">
        <ele>74.2</ele>
        <time>2022-09-14T13:10:39Z</time>
      </trkpt>
      <trkpt lat="49.94179" lon="2.10128">
        <ele>74.2</ele>
        <time>2022-09-14T13:10:40Z</time>
      </trkpt>
      <trkpt lat="49.94179" lon="2.10128">
        <ele>74.2</ele>
        <time>2022-09-14T13:10:41Z</time>
      </trkpt>
      <trkpt lat="49.94179" lon="2.10128">
        <ele>74.2</ele>
        <time>2022-09-14T13:10:42Z</time>
      </trkpt>
      <trkpt lat="49.94179" lon="2.10128">
        <ele>74.2</ele>
        <time>2022-09-14T13:10:43Z</time>
      </trkpt>
      <trkpt lat="49.94179" lon="2.10128">
        <ele>74.2</ele>
        <time>2022-09-14T13:10:44Z</time>
      </trkpt>
      <trkpt lat="49.94179" lon="2.10128">
        <ele>74.2</ele>
        <time>2022-09-14T13:10:45Z</time>
      </trkpt>
      <trkpt lat="49.94179" lon="2.10128">
        <ele>74.2</ele>
        <time>2022-09-14T13:10:46Z</time>
      </trkpt>
      <trkpt lat="49.94179" lon="2.10128">
        <ele>74.2</ele>
        <time>2022-09-14T13:10:47Z</time>
      </trkpt>
      <trkpt lat="49.94179" lon="2.10128">
        <ele>74.2</ele>
        <time>2022-09-14T13:10:48Z</time>
      </trkpt>
      <trkpt lat="49.94179" lon="2.10128">
        <ele>74.2</ele>
        <time>2022-09-14T13:10:49Z</time>
      </trkpt>
      <trkpt lat="49.94179" lon="2.10128">
        <ele>74.2</ele>
        <time>2022-09-14T13:10:50Z</time>
      </trkpt>
      <trkpt lat="49.94179" lon="2.10128">
        <ele>74.2</ele>
        <time>2022-09-14T13:10:51Z</time>
      </trkpt>
      <trkpt lat="49.94179" lon="2.10128">
        <ele>74.2</ele>
        <time>2022-09-14T13:10:52Z</time>
      </trkpt>
      <trkpt lat="49.94179" lon="2.10128">
        <ele>74.2</ele>
        <time>2022-09-14T13:10:53Z</time>
      </trkpt>
      <trkpt lat="49.94179" lon="2.10128">
        <ele>74.2</ele>
        <time>2022-09-14T13:10:54Z</time>
      </trkpt>
      <trkpt lat="49.94179" lon="2.10128">
        <ele>74.2</ele>
        <time>2022-09-14T13:10:55Z</time>
      </trkpt>
      <trkpt lat="49.94179" lon="2.10128">
        <ele>74.2</ele>
        <time>2022-09-14T13:10:56Z</time>
      </trkpt>
      <trkpt lat="49.94179" lon="2.10128">
        <ele>74.2</ele>
        <time>2022-09-14T13:10:57Z</time>
      </trkpt>
      <trkpt lat="49.94179" lon="2.10128">
        <ele>74.2</ele>
        <time>2022-09-14T13:10:58Z</time>
      </trkpt>
      <trkpt lat="49.94179" lon="2.10128">
        <ele>74.2</ele>
        <time>2022-09-14T13:10:59Z</time>
      </trkpt>
      <trkpt lat="49.9418" lon="2.10127">
        <ele>74.2</ele>
        <time>2022-09-14T13:11:00Z</time>
      </trkpt>
      <trkpt lat="49.9418" lon="2.10126">
        <ele>74.2</ele>
        <time>2022-09-14T13:11:01Z</time>
      </trkpt>
      <trkpt lat="49.9418" lon="2.10126">
        <ele>74.2</ele>
        <time>2022-09-14T13:11:02Z</time>
      </trkpt>
      <trkpt lat="49.9418" lon="2.10126">
        <ele>74.2</ele>
        <time>2022-09-14T13:11:03Z</time>
      </trkpt>
      <trkpt lat="49.9418" lon="2.10126">
        <ele>74.2</ele>
        <time>2022-09-14T13:11:04Z</time>
      </trkpt>
      <trkpt lat="49.9418" lon="2.10126">
        <ele>74.2</ele>
        <time>2022-09-14T13:11:05Z</time>
      </trkpt>
      <trkpt lat="49.9418" lon="2.10126">
        <ele>74.2</ele>
        <time>2022-09-14T13:11:06Z</time>
      </trkpt>
      <trkpt lat="49.94181" lon="2.10126">
        <ele>74.2</ele>
        <time>2022-09-14T13:11:07Z</time>
      </trkpt>
      <trkpt lat="49.94181" lon="2.10126">
        <ele>74.2</ele>
        <time>2022-09-14T13:11:08Z</time>
      </trkpt>
      <trkpt lat="49.94181" lon="2.10126">
        <ele>74.2</ele>
        <time>2022-09-14T13:11:09Z</time>
      </trkpt>
      <trkpt lat="49.94181" lon="2.10126">
        <ele>74.2</ele>
        <time>2022-09-14T13:11:10Z</time>
      </trkpt>
      <trkpt lat="49.94181" lon="2.10126">
        <ele>74.2</ele>
        <time>2022-09-14T13:11:11Z</time>
      </trkpt>
      <trkpt lat="49.94181" lon="2.10126">
        <ele>74.2</ele>
        <time>2022-09-14T13:11:12Z</time>
      </trkpt>
      <trkpt lat="49.94181" lon="2.10126">
        <ele>74.2</ele>
        <time>2022-09-14T13:11:13Z</time>
      </trkpt>
      <trkpt lat="49.94181" lon="2.10126">
        <ele>74.2</ele>
        <time>2022-09-14T13:11:14Z</time>
      </trkpt>
      <trkpt lat="49.94181" lon="2.10126">
        <ele>74.2</ele>
        <time>2022-09-14T13:11:15Z</time>
      </trkpt>
      <trkpt lat="49.94181" lon="2.10126">
        <ele>74.2</ele>
        <time>2022-09-14T13:11:16Z</time>
      </trkpt>
      <trkpt lat="49.94181" lon="2.10126">
        <ele>74.2</ele>
        <time>2022-09-14T13:11:17Z</time>
      </trkpt>
      <trkpt lat="49.94181" lon="2.10126">
        <ele>74.2</ele>
        <time>2022-09-14T13:11:18Z</time>
      </trkpt>
      <trkpt lat="49.94181" lon="2.10126">
        <ele>74.2</ele>
        <time>2022-09-14T13:11:19Z</time>
      </trkpt>
      <trkpt lat="49.94181" lon="2.10126">
        <ele>74.2</ele>
        <time>2022-09-14T13:11:20Z</time>
      </trkpt>
      <trkpt lat="49.94181" lon="2.10126">
        <ele>74.2</ele>
        <time>2022-09-14T13:11:21Z</time>
      </trkpt>
      <trkpt lat="49.94181" lon="2.10126">
        <ele>74.2</ele>
        <time>2022-09-14T13:11:22Z</time>
      </trkpt>
      <trkpt lat="49.94181" lon="2.10126">
        <ele>74.2</ele>
        <time>2022-09-14T13:11:23Z</time>
      </trkpt>
      <trkpt lat="49.94181" lon="2.10126">
        <ele>74.2</ele>
        <time>2022-09-14T13:11:24Z</time>
      </trkpt>
      <trkpt lat="49.94181" lon="2.10126">
        <ele>74.2</ele>
        <time>2022-09-14T13:11:25Z</time>
      </trkpt>
      <trkpt lat="49.94181" lon="2.10126">
        <ele>74.2</ele>
        <time>2022-09-14T13:11:26Z</time>
      </trkpt>
      <trkpt lat="49.94181" lon="2.10126">
        <ele>74.2</ele>
        <time>2022-09-14T13:11:27Z</time>
      </trkpt>
      <trkpt lat="49.94181" lon="2.10126">
        <ele>74.2</ele>
        <time>2022-09-14T13:11:28Z</time>
      </trkpt>
      <trkpt lat="49.94181" lon="2.10126">
        <ele>74.2</ele>
        <time>2022-09-14T13:11:29Z</time>
      </trkpt>
      <trkpt lat="49.94181" lon="2.10126">
        <ele>74.2</ele>
        <time>2022-09-14T13:11:30Z</time>
      </trkpt>
      <trkpt lat="49.94181" lon="2.10126">
        <ele>74.2</ele>
        <time>2022-09-14T13:11:31Z</time>
      </trkpt>
      <trkpt lat="49.94181" lon="2.10126">
        <ele>74.2</ele>
        <time>2022-09-14T13:11:32Z</time>
      </trkpt>
      <trkpt lat="49.94181" lon="2.10126">
        <ele>74.2</ele>
        <time>2022-09-14T13:11:33Z</time>
      </trkpt>
      <trkpt lat="49.94181" lon="2.10126">
        <ele>74.2</ele>
        <time>2022-09-14T13:11:34Z</time>
      </trkpt>
      <trkpt lat="49.94181" lon="2.10126">
        <ele>74.2</ele>
        <time>2022-09-14T13:11:35Z</time>
      </trkpt>
      <trkpt lat="49.94181" lon="2.10126">
        <ele>74.2</ele>
        <time>2022-09-14T13:11:36Z</time>
      </trkpt>
      <trkpt lat="49.94181" lon="2.10126">
        <ele>74.2</ele>
        <time>2022-09-14T13:11:37Z</time>
      </trkpt>
      <trkpt lat="49.94181" lon="2.10126">
        <ele>74.2</ele>
        <time>2022-09-14T13:11:38Z</time>
      </trkpt>
      <trkpt lat="49.94181" lon="2.10126">
        <ele>74.2</ele>
        <time>2022-09-14T13:11:39Z</time>
      </trkpt>
      <trkpt lat="49.94181" lon="2.10126">
        <ele>74.2</ele>
        <time>2022-09-14T13:11:40Z</time>
      </trkpt>
      <trkpt lat="49.94181" lon="2.10126">
        <ele>74.2</ele>
        <time>2022-09-14T13:11:41Z</time>
      </trkpt>
      <trkpt lat="49.94181" lon="2.10126">
        <ele>74.2</ele>
        <time>2022-09-14T13:11:42Z</time>
      </trkpt>
      <trkpt lat="49.94181" lon="2.10126">
        <ele>74.2</ele>
        <time>2022-09-14T13:11:43Z</time>
      </trkpt>
      <trkpt lat="49.94181" lon="2.10126">
        <ele>74.2</ele>
        <time>2022-09-14T13:11:44Z</time>
      </trkpt>
      <trkpt lat="49.94181" lon="2.10126">
        <ele>74.2</ele>
        <time>2022-09-14T13:11:45Z</time>
      </trkpt>
      <trkpt lat="49.94181" lon="2.10126">
        <ele>74.2</ele>
        <time>2022-09-14T13:11:46Z</time>
      </trkpt>
      <trkpt lat="49.94181" lon="2.10126">
        <ele>74.2</ele>
        <time>2022-09-14T13:11:47Z</time>
      </trkpt>
      <trkpt lat="49.94181" lon="2.10126">
        <ele>74.2</ele>
        <time>2022-09-14T13:11:48Z</time>
      </trkpt>
      <trkpt lat="49.94181" lon="2.10126">
        <ele>74.2</ele>
        <time>2022-09-14T13:11:49Z</time>
      </trkpt>
      <trkpt lat="49.94181" lon="2.10126">
        <ele>74.2</ele>
        <time>2022-09-14T13:11:50Z</time>
      </trkpt>
      <trkpt lat="49.94181" lon="2.10126">
        <ele>74.2</ele>
        <time>2022-09-14T13:11:51Z</time>
      </trkpt>
      <trkpt lat="49.94181" lon="2.10126">
        <ele>74.2</ele>
        <time>2022-09-14T13:11:52Z</time>
      </trkpt>
      <trkpt lat="49.94181" lon="2.10126">
        <ele>74.2</ele>
        <time>2022-09-14T13:11:53Z</time>
      </trkpt>
      <trkpt lat="49.94181" lon="2.10126">
        <ele>74.2</ele>
        <time>2022-09-14T13:11:54Z</time>
      </trkpt>
      <trkpt lat="49.94181" lon="2.10126">
        <ele>74.2</ele>
        <time>2022-09-14T13:11:55Z</time>
      </trkpt>
      <trkpt lat="49.94181" lon="2.10126">
        <ele>74.2</ele>
        <time>2022-09-14T13:11:56Z</time>
      </trkpt>
      <trkpt lat="49.94181" lon="2.10126">
        <ele>74.2</ele>
        <time>2022-09-14T13:11:57Z</time>
      </trkpt>
      <trkpt lat="49.94181" lon="2.10126">
        <ele>74.2</ele>
        <time>2022-09-14T13:11:58Z</time>
      </trkpt>
      <trkpt lat="49.94181" lon="2.10126">
        <ele>74.2</ele>
        <time>2022-09-14T13:11:59Z</time>
      </trkpt>
      <trkpt lat="49.94181" lon="2.10126">
        <ele>74.2</ele>
        <time>2022-09-14T13:12:00Z</time>
      </trkpt>
      <trkpt lat="49.94181" lon="2.10126">
        <ele>74.2</ele>
        <time>2022-09-14T13:12:01Z</time>
      </trkpt>
      <trkpt lat="49.94181" lon="2.10126">
        <ele>74.2</ele>
        <time>2022-09-14T13:12:02Z</time>
      </trkpt>
      <trkpt lat="49.94181" lon="2.10126">
        <ele>74.2</ele>
        <time>2022-09-14T13:12:03Z</time>
      </trkpt>
      <trkpt lat="49.94181" lon="2.10126">
        <ele>74.2</ele>
        <time>2022-09-14T13:12:04Z</time>
      </trkpt>
      <trkpt lat="49.94181" lon="2.10126">
        <ele>74.2</ele>
        <time>2022-09-14T13:12:05Z</time>
      </trkpt>
      <trkpt lat="49.94181" lon="2.10126">
        <ele>74.2</ele>
        <time>2022-09-14T13:12:06Z</time>
      </trkpt>
      <trkpt lat="49.94181" lon="2.10126">
        <ele>74.2</ele>
        <time>2022-09-14T13:12:07Z</time>
      </trkpt>
      <trkpt lat="49.94181" lon="2.10126">
        <ele>74.2</ele>
        <time>2022-09-14T13:12:08Z</time>
      </trkpt>
      <trkpt lat="49.94181" lon="2.10126">
        <ele>74.2</ele>
        <time>2022-09-14T13:12:09Z</time>
      </trkpt>
      <trkpt lat="49.94181" lon="2.10126">
        <ele>74.2</ele>
        <time>2022-09-14T13:12:10Z</time>
      </trkpt>
      <trkpt lat="49.94181" lon="2.10126">
        <ele>74.2</ele>
        <time>2022-09-14T13:12:11Z</time>
      </trkpt>
      <trkpt lat="49.94181" lon="2.10126">
        <ele>74.2</ele>
        <time>2022-09-14T13:12:12Z</time>
      </trkpt>
      <trkpt lat="49.94181" lon="2.10126">
        <ele>74.2</ele>
        <time>2022-09-14T13:12:13Z</time>
      </trkpt>
      <trkpt lat="49.94181" lon="2.10126">
        <ele>74.2</ele>
        <time>2022-09-14T13:12:14Z</time>
      </trkpt>
      <trkpt lat="49.94181" lon="2.10126">
        <ele>74.2</ele>
        <time>2022-09-14T13:12:15Z</time>
      </trkpt>
      <trkpt lat="49.94181" lon="2.10126">
        <ele>74.2</ele>
        <time>2022-09-14T13:12:16Z</time>
      </trkpt>
      <trkpt lat="49.94181" lon="2.10126">
        <ele>74.2</ele>
        <time>2022-09-14T13:12:17Z</time>
      </trkpt>
      <trkpt lat="49.94181" lon="2.10126">
        <ele>74.2</ele>
        <time>2022-09-14T13:12:18Z</time>
      </trkpt>
      <trkpt lat="49.94181" lon="2.10126">
        <ele>74.2</ele>
        <time>2022-09-14T13:12:19Z</time>
      </trkpt>
      <trkpt lat="49.94181" lon="2.10126">
        <ele>74.2</ele>
        <time>2022-09-14T13:12:20Z</time>
      </trkpt>
      <trkpt lat="49.94181" lon="2.10126">
        <ele>74.2</ele>
        <time>2022-09-14T13:12:21Z</time>
      </trkpt>
      <trkpt lat="49.94181" lon="2.10126">
        <ele>74.2</ele>
        <time>2022-09-14T13:12:22Z</time>
      </trkpt>
      <trkpt lat="49.94181" lon="2.10126">
        <ele>74.2</ele>
        <time>2022-09-14T13:12:23Z</time>
      </trkpt>
      <trkpt lat="49.94181" lon="2.10127">
        <ele>74.2</ele>
        <time>2022-09-14T13:12:24Z</time>
      </trkpt>
      <trkpt lat="49.94181" lon="2.10128">
        <ele>74.2</ele>
        <time>2022-09-14T13:12:25Z</time>
      </trkpt>
      <trkpt lat="49.9418" lon="2.10129">
        <ele>74.2</ele>
        <time>2022-09-14T13:12:26Z</time>
      </trkpt>
      <trkpt lat="49.94181" lon="2.10131">
        <ele>74.2</ele>
        <time>2022-09-14T13:12:27Z</time>
      </trkpt>
      <trkpt lat="49.94181" lon="2.10132">
        <ele>74.2</ele>
        <time>2022-09-14T13:12:28Z</time>
      </trkpt>
      <trkpt lat="49.94182" lon="2.10134">
        <ele>74.2</ele>
        <time>2022-09-14T13:12:29Z</time>
      </trkpt>
      <trkpt lat="49.94182" lon="2.10134">
        <ele>74.2</ele>
        <time>2022-09-14T13:12:30Z</time>
      </trkpt>
      <trkpt lat="49.94183" lon="2.10134">
        <ele>74.2</ele>
        <time>2022-09-14T13:12:31Z</time>
      </trkpt>
      <trkpt lat="49.94183" lon="2.10134">
        <ele>74.2</ele>
        <time>2022-09-14T13:12:32Z</time>
      </trkpt>
      <trkpt lat="49.94185" lon="2.10135">
        <ele>74.2</ele>
        <time>2022-09-14T13:12:33Z</time>
      </trkpt>
      <trkpt lat="49.94186" lon="2.10136">
        <ele>74.2</ele>
        <time>2022-09-14T13:12:34Z</time>
      </trkpt>
      <trkpt lat="49.94187" lon="2.10137">
        <ele>74.2</ele>
        <time>2022-09-14T13:12:35Z</time>
      </trkpt>
      <trkpt lat="49.94189" lon="2.10137">
        <ele>74.2</ele>
        <time>2022-09-14T13:12:36Z</time>
      </trkpt>
      <trkpt lat="49.9419" lon="2.10138">
        <ele>74.2</ele>
        <time>2022-09-14T13:12:38Z</time>
      </trkpt>
      <trkpt lat="49.94191" lon="2.10139">
        <ele>74.2</ele>
        <time>2022-09-14T13:12:39Z</time>
      </trkpt>
      <trkpt lat="49.94192" lon="2.10139">
        <ele>74.2</ele>
        <time>2022-09-14T13:12:40Z</time>
      </trkpt>
      <trkpt lat="49.94194" lon="2.1014">
        <ele>74.2</ele>
        <time>2022-09-14T13:12:41Z</time>
      </trkpt>
      <trkpt lat="49.94195" lon="2.1014">
        <ele>74.2</ele>
        <time>2022-09-14T13:12:42Z</time>
      </trkpt>
      <trkpt lat="49.94196" lon="2.10141">
        <ele>74.2</ele>
        <time>2022-09-14T13:12:43Z</time>
      </trkpt>
      <trkpt lat="49.94197" lon="2.10141">
        <ele>74.2</ele>
        <time>2022-09-14T13:12:44Z</time>
      </trkpt>
      <trkpt lat="49.94198" lon="2.10142">
        <ele>74.2</ele>
        <time>2022-09-14T13:12:45Z</time>
      </trkpt>
      <trkpt lat="49.94199" lon="2.10142">
        <ele>74.2</ele>
        <time>2022-09-14T13:12:46Z</time>
      </trkpt>
      <trkpt lat="49.942" lon="2.10143">
        <ele>74.3</ele>
        <time>2022-09-14T13:12:47Z</time>
      </trkpt>
      <trkpt lat="49.942" lon="2.10143">
        <ele>74.3</ele>
        <time>2022-09-14T13:12:48Z</time>
      </trkpt>
      <trkpt lat="49.94201" lon="2.10144">
        <ele>74.3</ele>
        <time>2022-09-14T13:12:49Z</time>
      </trkpt>
      <trkpt lat="49.94202" lon="2.10144">
        <ele>74.3</ele>
        <time>2022-09-14T13:12:50Z</time>
      </trkpt>
      <trkpt lat="49.94203" lon="2.10145">
        <ele>74.3</ele>
        <time>2022-09-14T13:12:51Z</time>
      </trkpt>
      <trkpt lat="49.94204" lon="2.10146">
        <ele>74.3</ele>
        <time>2022-09-14T13:12:52Z</time>
      </trkpt>
      <trkpt lat="49.94205" lon="2.10146">
        <ele>74.3</ele>
        <time>2022-09-14T13:12:53Z</time>
      </trkpt>
      <trkpt lat="49.94206" lon="2.10147">
        <ele>74.3</ele>
        <time>2022-09-14T13:12:54Z</time>
      </trkpt>
      <trkpt lat="49.94208" lon="2.10148">
        <ele>74.3</ele>
        <time>2022-09-14T13:12:56Z</time>
      </trkpt>
      <trkpt lat="49.94209" lon="2.10148">
        <ele>74.3</ele>
        <time>2022-09-14T13:12:57Z</time>
      </trkpt>
      <trkpt lat="49.9421" lon="2.10148">
        <ele>74.3</ele>
        <time>2022-09-14T13:12:58Z</time>
      </trkpt>
      <trkpt lat="49.94211" lon="2.10148">
        <ele>74.3</ele>
        <time>2022-09-14T13:12:59Z</time>
      </trkpt>
      <trkpt lat="49.94213" lon="2.10149">
        <ele>74.3</ele>
        <time>2022-09-14T13:13:01Z</time>
      </trkpt>
      <trkpt lat="49.94214" lon="2.10149">
        <ele>74.4</ele>
        <time>2022-09-14T13:13:02Z</time>
      </trkpt>
      <trkpt lat="49.94216" lon="2.1015">
        <ele>74.4</ele>
        <time>2022-09-14T13:13:03Z</time>
      </trkpt>
      <trkpt lat="49.94217" lon="2.1015">
        <ele>74.4</ele>
        <time>2022-09-14T13:13:04Z</time>
      </trkpt>
      <trkpt lat="49.94219" lon="2.10151">
        <ele>74.4</ele>
        <time>2022-09-14T13:13:05Z</time>
      </trkpt>
      <trkpt lat="49.9422" lon="2.10151">
        <ele>74.4</ele>
        <time>2022-09-14T13:13:06Z</time>
      </trkpt>
      <trkpt lat="49.94222" lon="2.10152">
        <ele>74.4</ele>
        <time>2022-09-14T13:13:08Z</time>
      </trkpt>
      <trkpt lat="49.94223" lon="2.10152">
        <ele>74.4</ele>
        <time>2022-09-14T13:13:09Z</time>
      </trkpt>
      <trkpt lat="49.94225" lon="2.10153">
        <ele>74.5</ele>
        <time>2022-09-14T13:13:10Z</time>
      </trkpt>
      <trkpt lat="49.94226" lon="2.10153">
        <ele>74.5</ele>
        <time>2022-09-14T13:13:11Z</time>
      </trkpt>
      <trkpt lat="49.94227" lon="2.10154">
        <ele>74.5</ele>
        <time>2022-09-14T13:13:12Z</time>
      </trkpt>
      <trkpt lat="49.94229" lon="2.10154">
        <ele>74.5</ele>
        <time>2022-09-14T13:13:14Z</time>
      </trkpt>
      <trkpt lat="49.9423" lon="2.10155">
        <ele>74.5</ele>
        <time>2022-09-14T13:13:15Z</time>
      </trkpt>
      <trkpt lat="49.94231" lon="2.10155">
        <ele>74.5</ele>
        <time>2022-09-14T13:13:16Z</time>
      </trkpt>
      <trkpt lat="49.94233" lon="2.10156">
        <ele>74.5</ele>
        <time>2022-09-14T13:13:17Z</time>
      </trkpt>
      <trkpt lat="49.94234" lon="2.10156">
        <ele>74.5</ele>
        <time>2022-09-14T13:13:18Z</time>
      </trkpt>
      <trkpt lat="49.94235" lon="2.10157">
        <ele>74.6</ele>
        <time>2022-09-14T13:13:19Z</time>
      </trkpt>
      <trkpt lat="49.94236" lon="2.10158">
        <ele>74.6</ele>
        <time>2022-09-14T13:13:21Z</time>
      </trkpt>
      <trkpt lat="49.94238" lon="2.10159">
        <ele>74.6</ele>
        <time>2022-09-14T13:13:22Z</time>
      </trkpt>
      <trkpt lat="49.94239" lon="2.10159">
        <ele>74.6</ele>
        <time>2022-09-14T13:13:23Z</time>
      </trkpt>
      <trkpt lat="49.9424" lon="2.1016">
        <ele>74.6</ele>
        <time>2022-09-14T13:13:24Z</time>
      </trkpt>
      <trkpt lat="49.9424" lon="2.10161">
        <ele>74.6</ele>
        <time>2022-09-14T13:13:25Z</time>
      </trkpt>
      <trkpt lat="49.94241" lon="2.10163">
        <ele>74.6</ele>
        <time>2022-09-14T13:13:26Z</time>
      </trkpt>
      <trkpt lat="49.94243" lon="2.10164">
        <ele>74.6</ele>
        <time>2022-09-14T13:13:28Z</time>
      </trkpt>
      <trkpt lat="49.94244" lon="2.10166">
        <ele>74.6</ele>
        <time>2022-09-14T13:13:29Z</time>
      </trkpt>
      <trkpt lat="49.94244" lon="2.10167">
        <ele>74.7</ele>
        <time>2022-09-14T13:13:30Z</time>
      </trkpt>
      <trkpt lat="49.94245" lon="2.10169">
        <ele>74.7</ele>
        <time>2022-09-14T13:13:31Z</time>
      </trkpt>
      <trkpt lat="49.94246" lon="2.1017">
        <ele>74.7</ele>
        <time>2022-09-14T13:13:32Z</time>
      </trkpt>
      <trkpt lat="49.94248" lon="2.10172">
        <ele>74.7</ele>
        <time>2022-09-14T13:13:34Z</time>
      </trkpt>
      <trkpt lat="49.94249" lon="2.10174">
        <ele>74.7</ele>
        <time>2022-09-14T13:13:35Z</time>
      </trkpt>
      <trkpt lat="49.94249" lon="2.10175">
        <ele>74.7</ele>
        <time>2022-09-14T13:13:36Z</time>
      </trkpt>
      <trkpt lat="49.9425" lon="2.10176">
        <ele>74.7</ele>
        <time>2022-09-14T13:13:37Z</time>
      </trkpt>
      <trkpt lat="49.94251" lon="2.10178">
        <ele>74.7</ele>
        <time>2022-09-14T13:13:38Z</time>
      </trkpt>
      <trkpt lat="49.94251" lon="2.10179">
        <ele>74.7</ele>
        <time>2022-09-14T13:13:39Z</time>
      </trkpt>
      <trkpt lat="49.94253" lon="2.10181">
        <ele>74.8</ele>
        <time>2022-09-14T13:13:41Z</time>
      </trkpt>
      <trkpt lat="49.94254" lon="2.10183">
        <ele>74.8</ele>
        <time>2022-09-14T13:13:42Z</time>
      </trkpt>
      <trkpt lat="49.94254" lon="2.10184">
        <ele>74.8</ele>
        <time>2022-09-14T13:13:43Z</time>
      </trkpt>
      <trkpt lat="49.94255" lon="2.10185">
        <ele>74.8</ele>
        <time>2022-09-14T13:13:44Z</time>
      </trkpt>
      <trkpt lat="49.94256" lon="2.10186">
        <ele>74.8</ele>
        <time>2022-09-14T13:13:45Z</time>
      </trkpt>
      <trkpt lat="49.94258" lon="2.10188">
        <ele>74.9</ele>
        <time>2022-09-14T13:13:47Z</time>
      </trkpt>
      <trkpt lat="49.94258" lon="2.1019">
        <ele>74.9</ele>
        <time>2022-09-14T13:13:48Z</time>
      </trkpt>
      <trkpt lat="49.94259" lon="2.10191">
        <ele>74.9</ele>
        <time>2022-09-14T13:13:49Z</time>
      </trkpt>
      <trkpt lat="49.9426" lon="2.10192">
        <ele>74.9</ele>
        <time>2022-09-14T13:13:50Z</time>
      </trkpt>
      <trkpt lat="49.94261" lon="2.10193">
        <ele>74.9</ele>
        <time>2022-09-14T13:13:51Z</time>
      </trkpt>
      <trkpt lat="49.94262" lon="2.10194">
        <ele>74.9</ele>
        <time>2022-09-14T13:13:52Z</time>
      </trkpt>
      <trkpt lat="49.94263" lon="2.10195">
        <ele>74.9</ele>
        <time>2022-09-14T13:13:53Z</time>
      </trkpt>
      <trkpt lat="49.94265" lon="2.10197">
        <ele>75</ele>
        <time>2022-09-14T13:13:55Z</time>
      </trkpt>
      <trkpt lat="49.94265" lon="2.10198">
        <ele>75</ele>
        <time>2022-09-14T13:13:56Z</time>
      </trkpt>
      <trkpt lat="49.94266" lon="2.10199">
        <ele>75</ele>
        <time>2022-09-14T13:13:57Z</time>
      </trkpt>
      <trkpt lat="49.94267" lon="2.102">
        <ele>75</ele>
        <time>2022-09-14T13:13:58Z</time>
      </trkpt>
      <trkpt lat="49.94267" lon="2.10201">
        <ele>75</ele>
        <time>2022-09-14T13:13:59Z</time>
      </trkpt>
      <trkpt lat="49.94268" lon="2.10202">
        <ele>75.1</ele>
        <time>2022-09-14T13:14:00Z</time>
      </trkpt>
      <trkpt lat="49.9427" lon="2.10204">
        <ele>75.1</ele>
        <time>2022-09-14T13:14:02Z</time>
      </trkpt>
      <trkpt lat="49.94271" lon="2.10205">
        <ele>75.1</ele>
        <time>2022-09-14T13:14:03Z</time>
      </trkpt>
      <trkpt lat="49.94272" lon="2.10205">
        <ele>75.1</ele>
        <time>2022-09-14T13:14:04Z</time>
      </trkpt>
      <trkpt lat="49.94272" lon="2.10206">
        <ele>75.1</ele>
        <time>2022-09-14T13:14:05Z</time>
      </trkpt>
      <trkpt lat="49.94273" lon="2.10207">
        <ele>75.1</ele>
        <time>2022-09-14T13:14:06Z</time>
      </trkpt>
      <trkpt lat="49.94274" lon="2.10208">
        <ele>75.1</ele>
        <time>2022-09-14T13:14:07Z</time>
      </trkpt>
      <trkpt lat="49.94275" lon="2.10209">
        <ele>75.2</ele>
        <time>2022-09-14T13:14:09Z</time>
      </trkpt>
      <trkpt lat="49.94276" lon="2.10211">
        <ele>75.2</ele>
        <time>2022-09-14T13:14:10Z</time>
      </trkpt>
      <trkpt lat="49.94277" lon="2.10212">
        <ele>75.2</ele>
        <time>2022-09-14T13:14:11Z</time>
      </trkpt>
      <trkpt lat="49.94278" lon="2.10212">
        <ele>75.2</ele>
        <time>2022-09-14T13:14:12Z</time>
      </trkpt>
      <trkpt lat="49.94279" lon="2.10213">
        <ele>75.2</ele>
        <time>2022-09-14T13:14:13Z</time>
      </trkpt>
      <trkpt lat="49.9428" lon="2.10214">
        <ele>75.2</ele>
        <time>2022-09-14T13:14:14Z</time>
      </trkpt>
      <trkpt lat="49.9428" lon="2.10214">
        <ele>75.2</ele>
        <time>2022-09-14T13:14:15Z</time>
      </trkpt>
      <trkpt lat="49.94281" lon="2.10215">
        <ele>75.3</ele>
        <time>2022-09-14T13:14:16Z</time>
      </trkpt>
      <trkpt lat="49.94282" lon="2.10216">
        <ele>75.3</ele>
        <time>2022-09-14T13:14:17Z</time>
      </trkpt>
      <trkpt lat="49.94283" lon="2.10217">
        <ele>75.3</ele>
        <time>2022-09-14T13:14:18Z</time>
      </trkpt>
      <trkpt lat="49.94284" lon="2.10218">
        <ele>75.3</ele>
        <time>2022-09-14T13:14:19Z</time>
      </trkpt>
      <trkpt lat="49.94285" lon="2.10219">
        <ele>75.3</ele>
        <time>2022-09-14T13:14:20Z</time>
      </trkpt>
      <trkpt lat="49.94286" lon="2.1022">
        <ele>75.3</ele>
        <time>2022-09-14T13:14:21Z</time>
      </trkpt>
      <trkpt lat="49.94287" lon="2.10221">
        <ele>75.3</ele>
        <time>2022-09-14T13:14:22Z</time>
      </trkpt>
      <trkpt lat="49.94289" lon="2.10222">
        <ele>75.3</ele>
        <time>2022-09-14T13:14:24Z</time>
      </trkpt>
      <trkpt lat="49.9429" lon="2.10223">
        <ele>75.3</ele>
        <time>2022-09-14T13:14:25Z</time>
      </trkpt>
      <trkpt lat="49.94291" lon="2.10224">
        <ele>75.3</ele>
        <time>2022-09-14T13:14:26Z</time>
      </trkpt>
      <trkpt lat="49.94292" lon="2.10225">
        <ele>75.3</ele>
        <time>2022-09-14T13:14:27Z</time>
      </trkpt>
      <trkpt lat="49.94293" lon="2.10226">
        <ele>75.3</ele>
        <time>2022-09-14T13:14:28Z</time>
      </trkpt>
      <trkpt lat="49.94294" lon="2.10227">
        <ele>75.3</ele>
        <time>2022-09-14T13:14:29Z</time>
      </trkpt>
      <trkpt lat="49.94295" lon="2.10228">
        <ele>75.3</ele>
        <time>2022-09-14T13:14:30Z</time>
      </trkpt>
      <trkpt lat="49.94296" lon="2.1023">
        <ele>75.3</ele>
        <time>2022-09-14T13:14:32Z</time>
      </trkpt>
      <trkpt lat="49.94298" lon="2.10231">
        <ele>75.3</ele>
        <time>2022-09-14T13:14:33Z</time>
      </trkpt>
      <trkpt lat="49.94299" lon="2.10232">
        <ele>75.3</ele>
        <time>2022-09-14T13:14:34Z</time>
      </trkpt>
      <trkpt lat="49.943" lon="2.10232">
        <ele>75.3</ele>
        <time>2022-09-14T13:14:35Z</time>
      </trkpt>
      <trkpt lat="49.94301" lon="2.10233">
        <ele>75.3</ele>
        <time>2022-09-14T13:14:36Z</time>
      </trkpt>
      <trkpt lat="49.94302" lon="2.10234">
        <ele>75.3</ele>
        <time>2022-09-14T13:14:37Z</time>
      </trkpt>
      <trkpt lat="49.94304" lon="2.10235">
        <ele>75.2</ele>
        <time>2022-09-14T13:14:38Z</time>
      </trkpt>
      <trkpt lat="49.94305" lon="2.10236">
        <ele>75.2</ele>
        <time>2022-09-14T13:14:40Z</time>
      </trkpt>
      <trkpt lat="49.94306" lon="2.10237">
        <ele>75.2</ele>
        <time>2022-09-14T13:14:41Z</time>
      </trkpt>
      <trkpt lat="49.94308" lon="2.10239">
        <ele>75.2</ele>
        <time>2022-09-14T13:14:42Z</time>
      </trkpt>
      <trkpt lat="49.94309" lon="2.1024">
        <ele>75.2</ele>
        <time>2022-09-14T13:14:43Z</time>
      </trkpt>
      <trkpt lat="49.94309" lon="2.1024">
        <ele>75.2</ele>
        <time>2022-09-14T13:14:44Z</time>
      </trkpt>
      <trkpt lat="49.9431" lon="2.10242">
        <ele>75.2</ele>
        <time>2022-09-14T13:14:45Z</time>
      </trkpt>
      <trkpt lat="49.94311" lon="2.10243">
        <ele>75.2</ele>
        <time>2022-09-14T13:14:46Z</time>
      </trkpt>
      <trkpt lat="49.94312" lon="2.10244">
        <ele>75.2</ele>
        <time>2022-09-14T13:14:47Z</time>
      </trkpt>
      <trkpt lat="49.94313" lon="2.10245">
        <ele>75.1</ele>
        <time>2022-09-14T13:14:48Z</time>
      </trkpt>
      <trkpt lat="49.94315" lon="2.10247">
        <ele>75.1</ele>
        <time>2022-09-14T13:14:50Z</time>
      </trkpt>
      <trkpt lat="49.94316" lon="2.10248">
        <ele>75.1</ele>
        <time>2022-09-14T13:14:51Z</time>
      </trkpt>
      <trkpt lat="49.94317" lon="2.10249">
        <ele>75.1</ele>
        <time>2022-09-14T13:14:52Z</time>
      </trkpt>
      <trkpt lat="49.94318" lon="2.10249">
        <ele>75.1</ele>
        <time>2022-09-14T13:14:53Z</time>
      </trkpt>
      <trkpt lat="49.94319" lon="2.1025">
        <ele>75.1</ele>
        <time>2022-09-14T13:14:54Z</time>
      </trkpt>
      <trkpt lat="49.9432" lon="2.10251">
        <ele>75.1</ele>
        <time>2022-09-14T13:14:55Z</time>
      </trkpt>
      <trkpt lat="49.94322" lon="2.10253">
        <ele>75</ele>
        <time>2022-09-14T13:14:57Z</time>
      </trkpt>
      <trkpt lat="49.94322" lon="2.10254">
        <ele>75</ele>
        <time>2022-09-14T13:14:58Z</time>
      </trkpt>
      <trkpt lat="49.94323" lon="2.10255">
        <ele>75</ele>
        <time>2022-09-14T13:14:59Z</time>
      </trkpt>
      <trkpt lat="49.94324" lon="2.10256">
        <ele>75</ele>
        <time>2022-09-14T13:15:00Z</time>
      </trkpt>
      <trkpt lat="49.94326" lon="2.10258">
        <ele>75</ele>
        <time>2022-09-14T13:15:01Z</time>
      </trkpt>
      <trkpt lat="49.94326" lon="2.10259">
        <ele>75</ele>
        <time>2022-09-14T13:15:02Z</time>
      </trkpt>
      <trkpt lat="49.94327" lon="2.1026">
        <ele>75</ele>
        <time>2022-09-14T13:15:03Z</time>
      </trkpt>
      <trkpt lat="49.94328" lon="2.10261">
        <ele>75</ele>
        <time>2022-09-14T13:15:05Z</time>
      </trkpt>
      <trkpt lat="49.94329" lon="2.10263">
        <ele>75</ele>
        <time>2022-09-14T13:15:06Z</time>
      </trkpt>
      <trkpt lat="49.9433" lon="2.10264">
        <ele>75</ele>
        <time>2022-09-14T13:15:07Z</time>
      </trkpt>
      <trkpt lat="49.9433" lon="2.10265">
        <ele>75</ele>
        <time>2022-09-14T13:15:08Z</time>
      </trkpt>
      <trkpt lat="49.94331" lon="2.10266">
        <ele>75</ele>
        <time>2022-09-14T13:15:09Z</time>
      </trkpt>
      <trkpt lat="49.94332" lon="2.10267">
        <ele>75</ele>
        <time>2022-09-14T13:15:10Z</time>
      </trkpt>
      <trkpt lat="49.94334" lon="2.10269">
        <ele>75</ele>
        <time>2022-09-14T13:15:11Z</time>
      </trkpt>
      <trkpt lat="49.94335" lon="2.10269">
        <ele>75</ele>
        <time>2022-09-14T13:15:12Z</time>
      </trkpt>
      <trkpt lat="49.94336" lon="2.1027">
        <ele>75.1</ele>
        <time>2022-09-14T13:15:13Z</time>
      </trkpt>
      <trkpt lat="49.94337" lon="2.10271">
        <ele>75.1</ele>
        <time>2022-09-14T13:15:15Z</time>
      </trkpt>
      <trkpt lat="49.94338" lon="2.10273">
        <ele>75.1</ele>
        <time>2022-09-14T13:15:16Z</time>
      </trkpt>
      <trkpt lat="49.94339" lon="2.10273">
        <ele>75.1</ele>
        <time>2022-09-14T13:15:17Z</time>
      </trkpt>
      <trkpt lat="49.9434" lon="2.10275">
        <ele>75.1</ele>
        <time>2022-09-14T13:15:18Z</time>
      </trkpt>
      <trkpt lat="49.9434" lon="2.10275">
        <ele>75.1</ele>
        <time>2022-09-14T13:15:19Z</time>
      </trkpt>
      <trkpt lat="49.94341" lon="2.10276">
        <ele>75.1</ele>
        <time>2022-09-14T13:15:20Z</time>
      </trkpt>
      <trkpt lat="49.94343" lon="2.10278">
        <ele>75.1</ele>
        <time>2022-09-14T13:15:21Z</time>
      </trkpt>
      <trkpt lat="49.94344" lon="2.10278">
        <ele>75.1</ele>
        <time>2022-09-14T13:15:22Z</time>
      </trkpt>
      <trkpt lat="49.94345" lon="2.10279">
        <ele>75.1</ele>
        <time>2022-09-14T13:15:23Z</time>
      </trkpt>
      <trkpt lat="49.94346" lon="2.10281">
        <ele>75.1</ele>
        <time>2022-09-14T13:15:25Z</time>
      </trkpt>
      <trkpt lat="49.94347" lon="2.10282">
        <ele>75.1</ele>
        <time>2022-09-14T13:15:26Z</time>
      </trkpt>
      <trkpt lat="49.94348" lon="2.10283">
        <ele>75.1</ele>
        <time>2022-09-14T13:15:27Z</time>
      </trkpt>
      <trkpt lat="49.94348" lon="2.10284">
        <ele>75.1</ele>
        <time>2022-09-14T13:15:28Z</time>
      </trkpt>
      <trkpt lat="49.94349" lon="2.10285">
        <ele>75.1</ele>
        <time>2022-09-14T13:15:29Z</time>
      </trkpt>
      <trkpt lat="49.9435" lon="2.10286">
        <ele>75.1</ele>
        <time>2022-09-14T13:15:30Z</time>
      </trkpt>
      <trkpt lat="49.94351" lon="2.10288">
        <ele>75.1</ele>
        <time>2022-09-14T13:15:31Z</time>
      </trkpt>
      <trkpt lat="49.94352" lon="2.10289">
        <ele>75.1</ele>
        <time>2022-09-14T13:15:32Z</time>
      </trkpt>
      <trkpt lat="49.94352" lon="2.1029">
        <ele>75.1</ele>
        <time>2022-09-14T13:15:33Z</time>
      </trkpt>
      <trkpt lat="49.94354" lon="2.10292">
        <ele>75.1</ele>
        <time>2022-09-14T13:15:34Z</time>
      </trkpt>
      <trkpt lat="49.94355" lon="2.10293">
        <ele>75.1</ele>
        <time>2022-09-14T13:15:36Z</time>
      </trkpt>
      <trkpt lat="49.94356" lon="2.10294">
        <ele>75.1</ele>
        <time>2022-09-14T13:15:37Z</time>
      </trkpt>
      <trkpt lat="49.94358" lon="2.10295">
        <ele>75.1</ele>
        <time>2022-09-14T13:15:38Z</time>
      </trkpt>
      <trkpt lat="49.94359" lon="2.10296">
        <ele>75.1</ele>
        <time>2022-09-14T13:15:39Z</time>
      </trkpt>
      <trkpt lat="49.9436" lon="2.10297">
        <ele>75.1</ele>
        <time>2022-09-14T13:15:40Z</time>
      </trkpt>
      <trkpt lat="49.94361" lon="2.10298">
        <ele>75.1</ele>
        <time>2022-09-14T13:15:41Z</time>
      </trkpt>
      <trkpt lat="49.94362" lon="2.10298">
        <ele>75.1</ele>
        <time>2022-09-14T13:15:42Z</time>
      </trkpt>
      <trkpt lat="49.94364" lon="2.10299">
        <ele>75.1</ele>
        <time>2022-09-14T13:15:44Z</time>
      </trkpt>
      <trkpt lat="49.94365" lon="2.103">
        <ele>75.1</ele>
        <time>2022-09-14T13:15:45Z</time>
      </trkpt>
      <trkpt lat="49.94366" lon="2.10301">
        <ele>75.1</ele>
        <time>2022-09-14T13:15:46Z</time>
      </trkpt>
      <trkpt lat="49.94367" lon="2.10301">
        <ele>75.1</ele>
        <time>2022-09-14T13:15:47Z</time>
      </trkpt>
      <trkpt lat="49.94368" lon="2.10302">
        <ele>75.1</ele>
        <time>2022-09-14T13:15:48Z</time>
      </trkpt>
      <trkpt lat="49.9437" lon="2.10302">
        <ele>75.1</ele>
        <time>2022-09-14T13:15:49Z</time>
      </trkpt>
      <trkpt lat="49.94371" lon="2.10304">
        <ele>75.1</ele>
        <time>2022-09-14T13:15:50Z</time>
      </trkpt>
      <trkpt lat="49.94373" lon="2.10305">
        <ele>75</ele>
        <time>2022-09-14T13:15:51Z</time>
      </trkpt>
      <trkpt lat="49.94374" lon="2.10306">
        <ele>75</ele>
        <time>2022-09-14T13:15:53Z</time>
      </trkpt>
      <trkpt lat="49.94374" lon="2.10306">
        <ele>75</ele>
        <time>2022-09-14T13:15:54Z</time>
      </trkpt>
      <trkpt lat="49.94376" lon="2.10307">
        <ele>75</ele>
        <time>2022-09-14T13:15:55Z</time>
      </trkpt>
      <trkpt lat="49.94376" lon="2.10308">
        <ele>75</ele>
        <time>2022-09-14T13:15:56Z</time>
      </trkpt>
      <trkpt lat="49.94378" lon="2.10308">
        <ele>75</ele>
        <time>2022-09-14T13:15:57Z</time>
      </trkpt>
      <trkpt lat="49.94379" lon="2.10309">
        <ele>75</ele>
        <time>2022-09-14T13:15:58Z</time>
      </trkpt>
      <trkpt lat="49.9438" lon="2.1031">
        <ele>75</ele>
        <time>2022-09-14T13:15:59Z</time>
      </trkpt>
      <trkpt lat="49.94381" lon="2.10311">
        <ele>75</ele>
        <time>2022-09-14T13:16:00Z</time>
      </trkpt>
      <trkpt lat="49.94382" lon="2.10312">
        <ele>75</ele>
        <time>2022-09-14T13:16:02Z</time>
      </trkpt>
      <trkpt lat="49.94383" lon="2.10313">
        <ele>75</ele>
        <time>2022-09-14T13:16:03Z</time>
      </trkpt>
      <trkpt lat="49.94384" lon="2.10314">
        <ele>75</ele>
        <time>2022-09-14T13:16:04Z</time>
      </trkpt>
      <trkpt lat="49.94385" lon="2.10315">
        <ele>75</ele>
        <time>2022-09-14T13:16:05Z</time>
      </trkpt>
      <trkpt lat="49.94387" lon="2.10317">
        <ele>75</ele>
        <time>2022-09-14T13:16:07Z</time>
      </trkpt>
      <trkpt lat="49.94388" lon="2.10318">
        <ele>75</ele>
        <time>2022-09-14T13:16:08Z</time>
      </trkpt>
      <trkpt lat="49.94388" lon="2.10319">
        <ele>75</ele>
        <time>2022-09-14T13:16:09Z</time>
      </trkpt>
      <trkpt lat="49.94389" lon="2.1032">
        <ele>75</ele>
        <time>2022-09-14T13:16:10Z</time>
      </trkpt>
      <trkpt lat="49.94391" lon="2.10322">
        <ele>75</ele>
        <time>2022-09-14T13:16:12Z</time>
      </trkpt>
      <trkpt lat="49.94392" lon="2.10324">
        <ele>75</ele>
        <time>2022-09-14T13:16:13Z</time>
      </trkpt>
      <trkpt lat="49.94393" lon="2.10325">
        <ele>75</ele>
        <time>2022-09-14T13:16:14Z</time>
      </trkpt>
      <trkpt lat="49.94394" lon="2.10326">
        <ele>75</ele>
        <time>2022-09-14T13:16:15Z</time>
      </trkpt>
      <trkpt lat="49.94395" lon="2.10327">
        <ele>75</ele>
        <time>2022-09-14T13:16:16Z</time>
      </trkpt>
      <trkpt lat="49.94396" lon="2.10329">
        <ele>75</ele>
        <time>2022-09-14T13:16:17Z</time>
      </trkpt>
      <trkpt lat="49.94397" lon="2.1033">
        <ele>75</ele>
        <time>2022-09-14T13:16:18Z</time>
      </trkpt>
      <trkpt lat="49.94398" lon="2.10331">
        <ele>74.9</ele>
        <time>2022-09-14T13:16:19Z</time>
      </trkpt>
      <trkpt lat="49.944" lon="2.10333">
        <ele>74.9</ele>
        <time>2022-09-14T13:16:20Z</time>
      </trkpt>
      <trkpt lat="49.944" lon="2.10334">
        <ele>74.9</ele>
        <time>2022-09-14T13:16:22Z</time>
      </trkpt>
      <trkpt lat="49.94401" lon="2.10335">
        <ele>74.9</ele>
        <time>2022-09-14T13:16:23Z</time>
      </trkpt>
      <trkpt lat="49.94402" lon="2.10336">
        <ele>74.9</ele>
        <time>2022-09-14T13:16:24Z</time>
      </trkpt>
      <trkpt lat="49.94403" lon="2.10337">
        <ele>74.9</ele>
        <time>2022-09-14T13:16:25Z</time>
      </trkpt>
      <trkpt lat="49.94404" lon="2.10339">
        <ele>74.8</ele>
        <time>2022-09-14T13:16:26Z</time>
      </trkpt>
      <trkpt lat="49.94405" lon="2.1034">
        <ele>74.8</ele>
        <time>2022-09-14T13:16:27Z</time>
      </trkpt>
      <trkpt lat="49.94405" lon="2.10341">
        <ele>74.8</ele>
        <time>2022-09-14T13:16:28Z</time>
      </trkpt>
      <trkpt lat="49.94407" lon="2.10343">
        <ele>74.8</ele>
        <time>2022-09-14T13:16:30Z</time>
      </trkpt>
      <trkpt lat="49.94408" lon="2.10344">
        <ele>74.7</ele>
        <time>2022-09-14T13:16:31Z</time>
      </trkpt>
      <trkpt lat="49.94409" lon="2.10345">
        <ele>74.7</ele>
        <time>2022-09-14T13:16:32Z</time>
      </trkpt>
      <trkpt lat="49.9441" lon="2.10346">
        <ele>74.7</ele>
        <time>2022-09-14T13:16:33Z</time>
      </trkpt>
      <trkpt lat="49.94411" lon="2.10346">
        <ele>74.7</ele>
        <time>2022-09-14T13:16:34Z</time>
      </trkpt>
      <trkpt lat="49.94412" lon="2.10347">
        <ele>74.7</ele>
        <time>2022-09-14T13:16:35Z</time>
      </trkpt>
      <trkpt lat="49.94413" lon="2.10348">
        <ele>74.6</ele>
        <time>2022-09-14T13:16:36Z</time>
      </trkpt>
      <trkpt lat="49.94414" lon="2.10349">
        <ele>74.6</ele>
        <time>2022-09-14T13:16:37Z</time>
      </trkpt>
      <trkpt lat="49.94414" lon="2.1035">
        <ele>74.6</ele>
        <time>2022-09-14T13:16:38Z</time>
      </trkpt>
      <trkpt lat="49.94415" lon="2.10351">
        <ele>74.6</ele>
        <time>2022-09-14T13:16:39Z</time>
      </trkpt>
      <trkpt lat="49.94417" lon="2.10353">
        <ele>74.6</ele>
        <time>2022-09-14T13:16:41Z</time>
      </trkpt>
      <trkpt lat="49.94419" lon="2.10355">
        <ele>74.5</ele>
        <time>2022-09-14T13:16:42Z</time>
      </trkpt>
      <trkpt lat="49.9442" lon="2.10355">
        <ele>74.5</ele>
        <time>2022-09-14T13:16:43Z</time>
      </trkpt>
      <trkpt lat="49.9442" lon="2.10356">
        <ele>74.5</ele>
        <time>2022-09-14T13:16:44Z</time>
      </trkpt>
      <trkpt lat="49.94422" lon="2.10358">
        <ele>74.5</ele>
        <time>2022-09-14T13:16:45Z</time>
      </trkpt>
      <trkpt lat="49.94423" lon="2.10358">
        <ele>74.5</ele>
        <time>2022-09-14T13:16:46Z</time>
      </trkpt>
      <trkpt lat="49.94424" lon="2.10359">
        <ele>74.4</ele>
        <time>2022-09-14T13:16:47Z</time>
      </trkpt>
      <trkpt lat="49.94426" lon="2.10361">
        <ele>74.4</ele>
        <time>2022-09-14T13:16:48Z</time>
      </trkpt>
      <trkpt lat="49.94428" lon="2.10361">
        <ele>74.4</ele>
        <time>2022-09-14T13:16:50Z</time>
      </trkpt>
      <trkpt lat="49.94429" lon="2.10362">
        <ele>74.4</ele>
        <time>2022-09-14T13:16:52Z</time>
      </trkpt>
      <trkpt lat="49.9443" lon="2.10363">
        <ele>74.4</ele>
        <time>2022-09-14T13:16:53Z</time>
      </trkpt>
      <trkpt lat="49.94432" lon="2.10364">
        <ele>74.4</ele>
        <time>2022-09-14T13:16:54Z</time>
      </trkpt>
      <trkpt lat="49.94433" lon="2.10365">
        <ele>74.4</ele>
        <time>2022-09-14T13:16:55Z</time>
      </trkpt>
      <trkpt lat="49.94433" lon="2.10366">
        <ele>74.4</ele>
        <time>2022-09-14T13:16:56Z</time>
      </trkpt>
      <trkpt lat="49.94435" lon="2.10366">
        <ele>74.4</ele>
        <time>2022-09-14T13:16:57Z</time>
      </trkpt>
      <trkpt lat="49.94436" lon="2.10368">
        <ele>74.4</ele>
        <time>2022-09-14T13:16:58Z</time>
      </trkpt>
      <trkpt lat="49.94438" lon="2.1037">
        <ele>74.4</ele>
        <time>2022-09-14T13:16:59Z</time>
      </trkpt>
      <trkpt lat="49.94438" lon="2.1037">
        <ele>74.4</ele>
        <time>2022-09-14T13:17:01Z</time>
      </trkpt>
      <trkpt lat="49.94439" lon="2.10371">
        <ele>74.4</ele>
        <time>2022-09-14T13:17:02Z</time>
      </trkpt>
      <trkpt lat="49.9444" lon="2.10372">
        <ele>74.4</ele>
        <time>2022-09-14T13:17:03Z</time>
      </trkpt>
      <trkpt lat="49.94441" lon="2.10373">
        <ele>74.4</ele>
        <time>2022-09-14T13:17:04Z</time>
      </trkpt>
      <trkpt lat="49.94443" lon="2.10375">
        <ele>74.4</ele>
        <time>2022-09-14T13:17:06Z</time>
      </trkpt>
      <trkpt lat="49.94444" lon="2.10375">
        <ele>74.4</ele>
        <time>2022-09-14T13:17:07Z</time>
      </trkpt>
      <trkpt lat="49.94445" lon="2.10376">
        <ele>74.3</ele>
        <time>2022-09-14T13:17:08Z</time>
      </trkpt>
      <trkpt lat="49.94446" lon="2.10377">
        <ele>74.3</ele>
        <time>2022-09-14T13:17:09Z</time>
      </trkpt>
      <trkpt lat="49.94447" lon="2.10378">
        <ele>74.3</ele>
        <time>2022-09-14T13:17:10Z</time>
      </trkpt>
      <trkpt lat="49.94449" lon="2.1038">
        <ele>74.3</ele>
        <time>2022-09-14T13:17:12Z</time>
      </trkpt>
      <trkpt lat="49.9445" lon="2.10381">
        <ele>74.3</ele>
        <time>2022-09-14T13:17:13Z</time>
      </trkpt>
      <trkpt lat="49.94451" lon="2.10382">
        <ele>74.3</ele>
        <time>2022-09-14T13:17:14Z</time>
      </trkpt>
      <trkpt lat="49.94452" lon="2.10383">
        <ele>74.3</ele>
        <time>2022-09-14T13:17:15Z</time>
      </trkpt>
      <trkpt lat="49.94454" lon="2.10385">
        <ele>74.3</ele>
        <time>2022-09-14T13:17:16Z</time>
      </trkpt>
      <trkpt lat="49.94455" lon="2.10385">
        <ele>74.3</ele>
        <time>2022-09-14T13:17:17Z</time>
      </trkpt>
      <trkpt lat="49.94456" lon="2.10386">
        <ele>74.3</ele>
        <time>2022-09-14T13:17:18Z</time>
      </trkpt>
      <trkpt lat="49.94457" lon="2.10387">
        <ele>74.3</ele>
        <time>2022-09-14T13:17:19Z</time>
      </trkpt>
      <trkpt lat="49.94458" lon="2.10388">
        <ele>74.3</ele>
        <time>2022-09-14T13:17:21Z</time>
      </trkpt>
      <trkpt lat="49.94459" lon="2.10389">
        <ele>74.3</ele>
        <time>2022-09-14T13:17:22Z</time>
      </trkpt>
      <trkpt lat="49.94461" lon="2.1039">
        <ele>74.3</ele>
        <time>2022-09-14T13:17:23Z</time>
      </trkpt>
      <trkpt lat="49.94462" lon="2.10391">
        <ele>74.3</ele>
        <time>2022-09-14T13:17:24Z</time>
      </trkpt>
      <trkpt lat="49.94462" lon="2.10391">
        <ele>74.2</ele>
        <time>2022-09-14T13:17:25Z</time>
      </trkpt>
      <trkpt lat="49.94464" lon="2.10393">
        <ele>74.2</ele>
        <time>2022-09-14T13:17:26Z</time>
      </trkpt>
      <trkpt lat="49.94465" lon="2.10394">
        <ele>74.2</ele>
        <time>2022-09-14T13:17:27Z</time>
      </trkpt>
      <trkpt lat="49.94465" lon="2.10395">
        <ele>74.2</ele>
        <time>2022-09-14T13:17:28Z</time>
      </trkpt>
      <trkpt lat="49.94467" lon="2.10396">
        <ele>74.2</ele>
        <time>2022-09-14T13:17:29Z</time>
      </trkpt>
      <trkpt lat="49.94468" lon="2.10398">
        <ele>74.1</ele>
        <time>2022-09-14T13:17:31Z</time>
      </trkpt>
      <trkpt lat="49.94469" lon="2.104">
        <ele>74.1</ele>
        <time>2022-09-14T13:17:32Z</time>
      </trkpt>
      <trkpt lat="49.9447" lon="2.10402">
        <ele>74.1</ele>
        <time>2022-09-14T13:17:33Z</time>
      </trkpt>
      <trkpt lat="49.94472" lon="2.10404">
        <ele>74.1</ele>
        <time>2022-09-14T13:17:35Z</time>
      </trkpt>
      <trkpt lat="49.94472" lon="2.10405">
        <ele>74.1</ele>
        <time>2022-09-14T13:17:36Z</time>
      </trkpt>
      <trkpt lat="49.94474" lon="2.10408">
        <ele>74</ele>
        <time>2022-09-14T13:17:37Z</time>
      </trkpt>
      <trkpt lat="49.94475" lon="2.10408">
        <ele>74</ele>
        <time>2022-09-14T13:17:38Z</time>
      </trkpt>
      <trkpt lat="49.94475" lon="2.10409">
        <ele>74</ele>
        <time>2022-09-14T13:17:39Z</time>
      </trkpt>
      <trkpt lat="49.94476" lon="2.1041">
        <ele>74</ele>
        <time>2022-09-14T13:17:40Z</time>
      </trkpt>
      <trkpt lat="49.94477" lon="2.10411">
        <ele>74</ele>
        <time>2022-09-14T13:17:41Z</time>
      </trkpt>
      <trkpt lat="49.94478" lon="2.10412">
        <ele>74</ele>
        <time>2022-09-14T13:17:42Z</time>
      </trkpt>
      <trkpt lat="49.9448" lon="2.10413">
        <ele>73.9</ele>
        <time>2022-09-14T13:17:44Z</time>
      </trkpt>
      <trkpt lat="49.94481" lon="2.10414">
        <ele>73.9</ele>
        <time>2022-09-14T13:17:45Z</time>
      </trkpt>
      <trkpt lat="49.94482" lon="2.10415">
        <ele>73.9</ele>
        <time>2022-09-14T13:17:46Z</time>
      </trkpt>
      <trkpt lat="49.94484" lon="2.10417">
        <ele>73.9</ele>
        <time>2022-09-14T13:17:47Z</time>
      </trkpt>
      <trkpt lat="49.94485" lon="2.10418">
        <ele>73.8</ele>
        <time>2022-09-14T13:17:48Z</time>
      </trkpt>
      <trkpt lat="49.94486" lon="2.1042">
        <ele>73.8</ele>
        <time>2022-09-14T13:17:49Z</time>
      </trkpt>
      <trkpt lat="49.94487" lon="2.10422">
        <ele>73.8</ele>
        <time>2022-09-14T13:17:51Z</time>
      </trkpt>
      <trkpt lat="49.94488" lon="2.10423">
        <ele>73.8</ele>
        <time>2022-09-14T13:17:52Z</time>
      </trkpt>
      <trkpt lat="49.94489" lon="2.10425">
        <ele>73.8</ele>
        <time>2022-09-14T13:17:53Z</time>
      </trkpt>
      <trkpt lat="49.9449" lon="2.10426">
        <ele>73.7</ele>
        <time>2022-09-14T13:17:54Z</time>
      </trkpt>
      <trkpt lat="49.9449" lon="2.10427">
        <ele>73.7</ele>
        <time>2022-09-14T13:17:55Z</time>
      </trkpt>
      <trkpt lat="49.94492" lon="2.10429">
        <ele>73.7</ele>
        <time>2022-09-14T13:17:56Z</time>
      </trkpt>
      <trkpt lat="49.94493" lon="2.10429">
        <ele>73.7</ele>
        <time>2022-09-14T13:17:57Z</time>
      </trkpt>
      <trkpt lat="49.94493" lon="2.1043">
        <ele>73.7</ele>
        <time>2022-09-14T13:17:58Z</time>
      </trkpt>
      <trkpt lat="49.94495" lon="2.10431">
        <ele>73.7</ele>
        <time>2022-09-14T13:17:59Z</time>
      </trkpt>
      <trkpt lat="49.94496" lon="2.10431">
        <ele>73.6</ele>
        <time>2022-09-14T13:18:00Z</time>
      </trkpt>
      <trkpt lat="49.94497" lon="2.10432">
        <ele>73.6</ele>
        <time>2022-09-14T13:18:01Z</time>
      </trkpt>
      <trkpt lat="49.94498" lon="2.10433">
        <ele>73.6</ele>
        <time>2022-09-14T13:18:02Z</time>
      </trkpt>
      <trkpt lat="49.945" lon="2.10435">
        <ele>73.6</ele>
        <time>2022-09-14T13:18:04Z</time>
      </trkpt>
      <trkpt lat="49.94501" lon="2.10436">
        <ele>73.6</ele>
        <time>2022-09-14T13:18:05Z</time>
      </trkpt>
      <trkpt lat="49.94501" lon="2.10437">
        <ele>73.6</ele>
        <time>2022-09-14T13:18:06Z</time>
      </trkpt>
      <trkpt lat="49.94502" lon="2.10438">
        <ele>73.5</ele>
        <time>2022-09-14T13:18:07Z</time>
      </trkpt>
      <trkpt lat="49.94503" lon="2.10439">
        <ele>73.5</ele>
        <time>2022-09-14T13:18:08Z</time>
      </trkpt>
      <trkpt lat="49.94504" lon="2.1044">
        <ele>73.5</ele>
        <time>2022-09-14T13:18:09Z</time>
      </trkpt>
      <trkpt lat="49.94505" lon="2.10441">
        <ele>73.5</ele>
        <time>2022-09-14T13:18:10Z</time>
      </trkpt>
      <trkpt lat="49.94506" lon="2.10443">
        <ele>73.5</ele>
        <time>2022-09-14T13:18:11Z</time>
      </trkpt>
      <trkpt lat="49.94507" lon="2.10444">
        <ele>73.4</ele>
        <time>2022-09-14T13:18:12Z</time>
      </trkpt>
      <trkpt lat="49.94509" lon="2.10445">
        <ele>73.4</ele>
        <time>2022-09-14T13:18:13Z</time>
      </trkpt>
      <trkpt lat="49.9451" lon="2.10447">
        <ele>73.4</ele>
        <time>2022-09-14T13:18:15Z</time>
      </trkpt>
      <trkpt lat="49.94511" lon="2.10448">
        <ele>73.4</ele>
        <time>2022-09-14T13:18:16Z</time>
      </trkpt>
      <trkpt lat="49.94512" lon="2.10449">
        <ele>73.4</ele>
        <time>2022-09-14T13:18:17Z</time>
      </trkpt>
      <trkpt lat="49.94514" lon="2.1045">
        <ele>73.3</ele>
        <time>2022-09-14T13:18:19Z</time>
      </trkpt>
      <trkpt lat="49.94515" lon="2.10452">
        <ele>73.3</ele>
        <time>2022-09-14T13:18:20Z</time>
      </trkpt>
      <trkpt lat="49.94516" lon="2.10453">
        <ele>73.3</ele>
        <time>2022-09-14T13:18:21Z</time>
      </trkpt>
      <trkpt lat="49.94517" lon="2.10454">
        <ele>73.3</ele>
        <time>2022-09-14T13:18:22Z</time>
      </trkpt>
      <trkpt lat="49.94519" lon="2.10456">
        <ele>73.2</ele>
        <time>2022-09-14T13:18:23Z</time>
      </trkpt>
      <trkpt lat="49.94519" lon="2.10457">
        <ele>73.2</ele>
        <time>2022-09-14T13:18:24Z</time>
      </trkpt>
      <trkpt lat="49.9452" lon="2.10458">
        <ele>73.2</ele>
        <time>2022-09-14T13:18:25Z</time>
      </trkpt>
      <trkpt lat="49.94521" lon="2.1046">
        <ele>73.1</ele>
        <time>2022-09-14T13:18:27Z</time>
      </trkpt>
      <trkpt lat="49.94523" lon="2.10462">
        <ele>73.1</ele>
        <time>2022-09-14T13:18:29Z</time>
      </trkpt>
      <trkpt lat="49.94524" lon="2.10463">
        <ele>73</ele>
        <time>2022-09-14T13:18:30Z</time>
      </trkpt>
      <trkpt lat="49.94525" lon="2.10464">
        <ele>73</ele>
        <time>2022-09-14T13:18:31Z</time>
      </trkpt>
      <trkpt lat="49.94526" lon="2.10465">
        <ele>73</ele>
        <time>2022-09-14T13:18:32Z</time>
      </trkpt>
      <trkpt lat="49.94527" lon="2.10466">
        <ele>72.9</ele>
        <time>2022-09-14T13:18:33Z</time>
      </trkpt>
      <trkpt lat="49.94528" lon="2.10467">
        <ele>72.9</ele>
        <time>2022-09-14T13:18:34Z</time>
      </trkpt>
      <trkpt lat="49.94529" lon="2.10468">
        <ele>72.8</ele>
        <time>2022-09-14T13:18:35Z</time>
      </trkpt>
      <trkpt lat="49.9453" lon="2.1047">
        <ele>72.8</ele>
        <time>2022-09-14T13:18:36Z</time>
      </trkpt>
      <trkpt lat="49.94532" lon="2.10471">
        <ele>72.7</ele>
        <time>2022-09-14T13:18:37Z</time>
      </trkpt>
      <trkpt lat="49.94532" lon="2.10472">
        <ele>72.6</ele>
        <time>2022-09-14T13:18:39Z</time>
      </trkpt>
      <trkpt lat="49.94533" lon="2.10473">
        <ele>72.6</ele>
        <time>2022-09-14T13:18:40Z</time>
      </trkpt>
      <trkpt lat="49.94534" lon="2.10474">
        <ele>72.6</ele>
        <time>2022-09-14T13:18:41Z</time>
      </trkpt>
      <trkpt lat="49.94535" lon="2.10475">
        <ele>72.5</ele>
        <time>2022-09-14T13:18:42Z</time>
      </trkpt>
      <trkpt lat="49.94536" lon="2.10475">
        <ele>72.5</ele>
        <time>2022-09-14T13:18:43Z</time>
      </trkpt>
      <trkpt lat="49.94537" lon="2.10476">
        <ele>72.4</ele>
        <time>2022-09-14T13:18:44Z</time>
      </trkpt>
      <trkpt lat="49.94538" lon="2.10477">
        <ele>72.4</ele>
        <time>2022-09-14T13:18:45Z</time>
      </trkpt>
      <trkpt lat="49.94539" lon="2.10478">
        <ele>72.3</ele>
        <time>2022-09-14T13:18:46Z</time>
      </trkpt>
      <trkpt lat="49.9454" lon="2.10478">
        <ele>72.3</ele>
        <time>2022-09-14T13:18:47Z</time>
      </trkpt>
      <trkpt lat="49.94541" lon="2.10479">
        <ele>72.2</ele>
        <time>2022-09-14T13:18:48Z</time>
      </trkpt>
      <trkpt lat="49.94542" lon="2.1048">
        <ele>72.2</ele>
        <time>2022-09-14T13:18:49Z</time>
      </trkpt>
      <trkpt lat="49.94544" lon="2.10481">
        <ele>72.1</ele>
        <time>2022-09-14T13:18:51Z</time>
      </trkpt>
      <trkpt lat="49.94545" lon="2.10482">
        <ele>72</ele>
        <time>2022-09-14T13:18:52Z</time>
      </trkpt>
      <trkpt lat="49.94547" lon="2.10483">
        <ele>71.9</ele>
        <time>2022-09-14T13:18:53Z</time>
      </trkpt>
      <trkpt lat="49.94548" lon="2.10484">
        <ele>71.9</ele>
        <time>2022-09-14T13:18:54Z</time>
      </trkpt>
      <trkpt lat="49.94549" lon="2.10484">
        <ele>71.9</ele>
        <time>2022-09-14T13:18:55Z</time>
      </trkpt>
      <trkpt lat="49.94551" lon="2.10486">
        <ele>71.8</ele>
        <time>2022-09-14T13:18:56Z</time>
      </trkpt>
      <trkpt lat="49.94552" lon="2.10486">
        <ele>71.7</ele>
        <time>2022-09-14T13:18:58Z</time>
      </trkpt>
      <trkpt lat="49.94553" lon="2.10487">
        <ele>71.7</ele>
        <time>2022-09-14T13:18:59Z</time>
      </trkpt>
      <trkpt lat="49.94554" lon="2.10488">
        <ele>71.6</ele>
        <time>2022-09-14T13:19:00Z</time>
      </trkpt>
      <trkpt lat="49.94555" lon="2.10489">
        <ele>71.6</ele>
        <time>2022-09-14T13:19:01Z</time>
      </trkpt>
      <trkpt lat="49.94557" lon="2.1049">
        <ele>71.5</ele>
        <time>2022-09-14T13:19:02Z</time>
      </trkpt>
      <trkpt lat="49.94558" lon="2.10491">
        <ele>71.5</ele>
        <time>2022-09-14T13:19:03Z</time>
      </trkpt>
      <trkpt lat="49.94558" lon="2.10491">
        <ele>71.4</ele>
        <time>2022-09-14T13:19:04Z</time>
      </trkpt>
      <trkpt lat="49.94559" lon="2.10492">
        <ele>71.4</ele>
        <time>2022-09-14T13:19:05Z</time>
      </trkpt>
      <trkpt lat="49.9456" lon="2.10493">
        <ele>71.3</ele>
        <time>2022-09-14T13:19:06Z</time>
      </trkpt>
      <trkpt lat="49.94561" lon="2.10494">
        <ele>71.3</ele>
        <time>2022-09-14T13:19:07Z</time>
      </trkpt>
      <trkpt lat="49.94562" lon="2.10496">
        <ele>71.2</ele>
        <time>2022-09-14T13:19:08Z</time>
      </trkpt>
      <trkpt lat="49.94563" lon="2.10497">
        <ele>71.2</ele>
        <time>2022-09-14T13:19:09Z</time>
      </trkpt>
      <trkpt lat="49.94564" lon="2.10498">
        <ele>71.1</ele>
        <time>2022-09-14T13:19:10Z</time>
      </trkpt>
      <trkpt lat="49.94565" lon="2.105">
        <ele>71</ele>
        <time>2022-09-14T13:19:12Z</time>
      </trkpt>
      <trkpt lat="49.94566" lon="2.10502">
        <ele>71</ele>
        <time>2022-09-14T13:19:13Z</time>
      </trkpt>
      <trkpt lat="49.94567" lon="2.10503">
        <ele>70.9</ele>
        <time>2022-09-14T13:19:14Z</time>
      </trkpt>
      <trkpt lat="49.94568" lon="2.10503">
        <ele>70.9</ele>
        <time>2022-09-14T13:19:15Z</time>
      </trkpt>
      <trkpt lat="49.94569" lon="2.10504">
        <ele>70.8</ele>
        <time>2022-09-14T13:19:16Z</time>
      </trkpt>
      <trkpt lat="49.94571" lon="2.10505">
        <ele>70.7</ele>
        <time>2022-09-14T13:19:17Z</time>
      </trkpt>
      <trkpt lat="49.94572" lon="2.10506">
        <ele>70.7</ele>
        <time>2022-09-14T13:19:18Z</time>
      </trkpt>
      <trkpt lat="49.94573" lon="2.10506">
        <ele>70.6</ele>
        <time>2022-09-14T13:19:19Z</time>
      </trkpt>
      <trkpt lat="49.94576" lon="2.10508">
        <ele>70.5</ele>
        <time>2022-09-14T13:19:20Z</time>
      </trkpt>
      <trkpt lat="49.94577" lon="2.1051">
        <ele>70.4</ele>
        <time>2022-09-14T13:19:22Z</time>
      </trkpt>
      <trkpt lat="49.94578" lon="2.10511">
        <ele>70.4</ele>
        <time>2022-09-14T13:19:24Z</time>
      </trkpt>
      <trkpt lat="49.94579" lon="2.10512">
        <ele>70.3</ele>
        <time>2022-09-14T13:19:25Z</time>
      </trkpt>
      <trkpt lat="49.9458" lon="2.10513">
        <ele>70.3</ele>
        <time>2022-09-14T13:19:26Z</time>
      </trkpt>
      <trkpt lat="49.94581" lon="2.10514">
        <ele>70.2</ele>
        <time>2022-09-14T13:19:27Z</time>
      </trkpt>
      <trkpt lat="49.94582" lon="2.10515">
        <ele>70.2</ele>
        <time>2022-09-14T13:19:28Z</time>
      </trkpt>
      <trkpt lat="49.94583" lon="2.10516">
        <ele>70.1</ele>
        <time>2022-09-14T13:19:29Z</time>
      </trkpt>
      <trkpt lat="49.94585" lon="2.10518">
        <ele>70</ele>
        <time>2022-09-14T13:19:30Z</time>
      </trkpt>
      <trkpt lat="49.94586" lon="2.1052">
        <ele>69.9</ele>
        <time>2022-09-14T13:19:32Z</time>
      </trkpt>
      <trkpt lat="49.94587" lon="2.1052">
        <ele>69.9</ele>
        <time>2022-09-14T13:19:33Z</time>
      </trkpt>
      <trkpt lat="49.94588" lon="2.10521">
        <ele>69.8</ele>
        <time>2022-09-14T13:19:34Z</time>
      </trkpt>
      <trkpt lat="49.9459" lon="2.10522">
        <ele>69.8</ele>
        <time>2022-09-14T13:19:35Z</time>
      </trkpt>
      <trkpt lat="49.94591" lon="2.10524">
        <ele>69.7</ele>
        <time>2022-09-14T13:19:36Z</time>
      </trkpt>
      <trkpt lat="49.94592" lon="2.10525">
        <ele>69.6</ele>
        <time>2022-09-14T13:19:37Z</time>
      </trkpt>
      <trkpt lat="49.94593" lon="2.10525">
        <ele>69.6</ele>
        <time>2022-09-14T13:19:38Z</time>
      </trkpt>
      <trkpt lat="49.94595" lon="2.10527">
        <ele>69.5</ele>
        <time>2022-09-14T13:19:39Z</time>
      </trkpt>
      <trkpt lat="49.94595" lon="2.10528">
        <ele>69.5</ele>
        <time>2022-09-14T13:19:40Z</time>
      </trkpt>
      <trkpt lat="49.94596" lon="2.10529">
        <ele>69.4</ele>
        <time>2022-09-14T13:19:41Z</time>
      </trkpt>
      <trkpt lat="49.94598" lon="2.10531">
        <ele>69.3</ele>
        <time>2022-09-14T13:19:43Z</time>
      </trkpt>
      <trkpt lat="49.94599" lon="2.10532">
        <ele>69.3</ele>
        <time>2022-09-14T13:19:44Z</time>
      </trkpt>
      <trkpt lat="49.94601" lon="2.10533">
        <ele>69.2</ele>
        <time>2022-09-14T13:19:46Z</time>
      </trkpt>
      <trkpt lat="49.94602" lon="2.10533">
        <ele>69.1</ele>
        <time>2022-09-14T13:19:47Z</time>
      </trkpt>
      <trkpt lat="49.94604" lon="2.10534">
        <ele>69</ele>
        <time>2022-09-14T13:19:48Z</time>
      </trkpt>
      <trkpt lat="49.94605" lon="2.10535">
        <ele>69</ele>
        <time>2022-09-14T13:19:49Z</time>
      </trkpt>
      <trkpt lat="49.94606" lon="2.10535">
        <ele>69</ele>
        <time>2022-09-14T13:19:50Z</time>
      </trkpt>
      <trkpt lat="49.94607" lon="2.10537">
        <ele>68.9</ele>
        <time>2022-09-14T13:19:52Z</time>
      </trkpt>
      <trkpt lat="49.94608" lon="2.10537">
        <ele>68.8</ele>
        <time>2022-09-14T13:19:53Z</time>
      </trkpt>
      <trkpt lat="49.94612" lon="2.1054">
        <ele>68.6</ele>
        <time>2022-09-14T13:19:55Z</time>
      </trkpt>
      <trkpt lat="49.94613" lon="2.10541">
        <ele>68.5</ele>
        <time>2022-09-14T13:19:56Z</time>
      </trkpt>
      <trkpt lat="49.94613" lon="2.10542">
        <ele>68.5</ele>
        <time>2022-09-14T13:19:57Z</time>
      </trkpt>
      <trkpt lat="49.94614" lon="2.10542">
        <ele>68.4</ele>
        <time>2022-09-14T13:19:58Z</time>
      </trkpt>
      <trkpt lat="49.94615" lon="2.10543">
        <ele>68.3</ele>
        <time>2022-09-14T13:19:59Z</time>
      </trkpt>
      <trkpt lat="49.94617" lon="2.10545">
        <ele>68.2</ele>
        <time>2022-09-14T13:20:00Z</time>
      </trkpt>
      <trkpt lat="49.94618" lon="2.10546">
        <ele>68.1</ele>
        <time>2022-09-14T13:20:01Z</time>
      </trkpt>
      <trkpt lat="49.9462" lon="2.10547">
        <ele>68</ele>
        <time>2022-09-14T13:20:02Z</time>
      </trkpt>
      <trkpt lat="49.94621" lon="2.10548">
        <ele>67.9</ele>
        <time>2022-09-14T13:20:04Z</time>
      </trkpt>
      <trkpt lat="49.94622" lon="2.1055">
        <ele>67.8</ele>
        <time>2022-09-14T13:20:05Z</time>
      </trkpt>
      <trkpt lat="49.94623" lon="2.10552">
        <ele>67.6</ele>
        <time>2022-09-14T13:20:06Z</time>
      </trkpt>
      <trkpt lat="49.94624" lon="2.10553">
        <ele>67.5</ele>
        <time>2022-09-14T13:20:07Z</time>
      </trkpt>
      <trkpt lat="49.94625" lon="2.10554">
        <ele>67.4</ele>
        <time>2022-09-14T13:20:08Z</time>
      </trkpt>
      <trkpt lat="49.94625" lon="2.10556">
        <ele>67.3</ele>
        <time>2022-09-14T13:20:09Z</time>
      </trkpt>
      <trkpt lat="49.94626" lon="2.10557">
        <ele>67.2</ele>
        <time>2022-09-14T13:20:10Z</time>
      </trkpt>
      <trkpt lat="49.94628" lon="2.1056">
        <ele>67</ele>
        <time>2022-09-14T13:20:11Z</time>
      </trkpt>
      <trkpt lat="49.94628" lon="2.10561">
        <ele>66.9</ele>
        <time>2022-09-14T13:20:13Z</time>
      </trkpt>
      <trkpt lat="49.94629" lon="2.10562">
        <ele>66.8</ele>
        <time>2022-09-14T13:20:14Z</time>
      </trkpt>
      <trkpt lat="49.94631" lon="2.10565">
        <ele>66.6</ele>
        <time>2022-09-14T13:20:16Z</time>
      </trkpt>
      <trkpt lat="49.94632" lon="2.10567">
        <ele>66.4</ele>
        <time>2022-09-14T13:20:17Z</time>
      </trkpt>
      <trkpt lat="49.94633" lon="2.10568">
        <ele>66.3</ele>
        <time>2022-09-14T13:20:18Z</time>
      </trkpt>
      <trkpt lat="49.94635" lon="2.10571">
        <ele>66.1</ele>
        <time>2022-09-14T13:20:19Z</time>
      </trkpt>
      <trkpt lat="49.94636" lon="2.10572">
        <ele>66</ele>
        <time>2022-09-14T13:20:20Z</time>
      </trkpt>
      <trkpt lat="49.94638" lon="2.10576">
        <ele>65.7</ele>
        <time>2022-09-14T13:20:21Z</time>
      </trkpt>
      <trkpt lat="49.94639" lon="2.10577">
        <ele>65.6</ele>
        <time>2022-09-14T13:20:22Z</time>
      </trkpt>
      <trkpt lat="49.9464" lon="2.10579">
        <ele>65.4</ele>
        <time>2022-09-14T13:20:24Z</time>
      </trkpt>
      <trkpt lat="49.94641" lon="2.1058">
        <ele>65.3</ele>
        <time>2022-09-14T13:20:25Z</time>
      </trkpt>
      <trkpt lat="49.94643" lon="2.10583">
        <ele>65.1</ele>
        <time>2022-09-14T13:20:26Z</time>
      </trkpt>
      <trkpt lat="49.94644" lon="2.10584">
        <ele>65</ele>
        <time>2022-09-14T13:20:27Z</time>
      </trkpt>
      <trkpt lat="49.94645" lon="2.10585">
        <ele>64.9</ele>
        <time>2022-09-14T13:20:28Z</time>
      </trkpt>
      <trkpt lat="49.94646" lon="2.10587">
        <ele>64.8</ele>
        <time>2022-09-14T13:20:30Z</time>
      </trkpt>
      <trkpt lat="49.94646" lon="2.10588">
        <ele>64.7</ele>
        <time>2022-09-14T13:20:31Z</time>
      </trkpt>
      <trkpt lat="49.94647" lon="2.10589">
        <ele>64.6</ele>
        <time>2022-09-14T13:20:32Z</time>
      </trkpt>
      <trkpt lat="49.94648" lon="2.10592">
        <ele>64.4</ele>
        <time>2022-09-14T13:20:33Z</time>
      </trkpt>
      <trkpt lat="49.94649" lon="2.10593">
        <ele>64.3</ele>
        <time>2022-09-14T13:20:34Z</time>
      </trkpt>
      <trkpt lat="49.94649" lon="2.10593">
        <ele>64.3</ele>
        <time>2022-09-14T13:20:35Z</time>
      </trkpt>
      <trkpt lat="49.9465" lon="2.10595">
        <ele>64.2</ele>
        <time>2022-09-14T13:20:36Z</time>
      </trkpt>
      <trkpt lat="49.94651" lon="2.10596">
        <ele>64</ele>
        <time>2022-09-14T13:20:37Z</time>
      </trkpt>
      <trkpt lat="49.94651" lon="2.10598">
        <ele>63.9</ele>
        <time>2022-09-14T13:20:38Z</time>
      </trkpt>
      <trkpt lat="49.94653" lon="2.10599">
        <ele>63.8</ele>
        <time>2022-09-14T13:20:39Z</time>
      </trkpt>
      <trkpt lat="49.94654" lon="2.10601">
        <ele>63.6</ele>
        <time>2022-09-14T13:20:40Z</time>
      </trkpt>
      <trkpt lat="49.94654" lon="2.10602">
        <ele>63.5</ele>
        <time>2022-09-14T13:20:42Z</time>
      </trkpt>
      <trkpt lat="49.94655" lon="2.10603">
        <ele>63.4</ele>
        <time>2022-09-14T13:20:43Z</time>
      </trkpt>
      <trkpt lat="49.94656" lon="2.10604">
        <ele>63.3</ele>
        <time>2022-09-14T13:20:44Z</time>
      </trkpt>
      <trkpt lat="49.94657" lon="2.10605">
        <ele>63.2</ele>
        <time>2022-09-14T13:20:45Z</time>
      </trkpt>
      <trkpt lat="49.94658" lon="2.10606">
        <ele>63.1</ele>
        <time>2022-09-14T13:20:46Z</time>
      </trkpt>
      <trkpt lat="49.94658" lon="2.10607">
        <ele>63</ele>
        <time>2022-09-14T13:20:47Z</time>
      </trkpt>
      <trkpt lat="49.9466" lon="2.10609">
        <ele>62.8</ele>
        <time>2022-09-14T13:20:48Z</time>
      </trkpt>
      <trkpt lat="49.94661" lon="2.1061">
        <ele>62.7</ele>
        <time>2022-09-14T13:20:49Z</time>
      </trkpt>
      <trkpt lat="49.94662" lon="2.10611">
        <ele>62.6</ele>
        <time>2022-09-14T13:20:50Z</time>
      </trkpt>
      <trkpt lat="49.94663" lon="2.10612">
        <ele>62.4</ele>
        <time>2022-09-14T13:20:51Z</time>
      </trkpt>
      <trkpt lat="49.94664" lon="2.10613">
        <ele>62.3</ele>
        <time>2022-09-14T13:20:53Z</time>
      </trkpt>
      <trkpt lat="49.94664" lon="2.10614">
        <ele>62.2</ele>
        <time>2022-09-14T13:20:54Z</time>
      </trkpt>
      <trkpt lat="49.94665" lon="2.10615">
        <ele>62.1</ele>
        <time>2022-09-14T13:20:55Z</time>
      </trkpt>
      <trkpt lat="49.94666" lon="2.10616">
        <ele>62</ele>
        <time>2022-09-14T13:20:56Z</time>
      </trkpt>
      <trkpt lat="49.94667" lon="2.10617">
        <ele>61.9</ele>
        <time>2022-09-14T13:20:57Z</time>
      </trkpt>
      <trkpt lat="49.94668" lon="2.10617">
        <ele>61.8</ele>
        <time>2022-09-14T13:20:58Z</time>
      </trkpt>
      <trkpt lat="49.94669" lon="2.10618">
        <ele>61.7</ele>
        <time>2022-09-14T13:20:59Z</time>
      </trkpt>
      <trkpt lat="49.94671" lon="2.10621">
        <ele>61.5</ele>
        <time>2022-09-14T13:21:01Z</time>
      </trkpt>
      <trkpt lat="49.94672" lon="2.10623">
        <ele>61.4</ele>
        <time>2022-09-14T13:21:02Z</time>
      </trkpt>
      <trkpt lat="49.94673" lon="2.10624">
        <ele>61.3</ele>
        <time>2022-09-14T13:21:03Z</time>
      </trkpt>
      <trkpt lat="49.94675" lon="2.10625">
        <ele>61.2</ele>
        <time>2022-09-14T13:21:05Z</time>
      </trkpt>
      <trkpt lat="49.94675" lon="2.10626">
        <ele>61.1</ele>
        <time>2022-09-14T13:21:06Z</time>
      </trkpt>
      <trkpt lat="49.94676" lon="2.10626">
        <ele>61.1</ele>
        <time>2022-09-14T13:21:07Z</time>
      </trkpt>
      <trkpt lat="49.94677" lon="2.10627">
        <ele>61</ele>
        <time>2022-09-14T13:21:08Z</time>
      </trkpt>
      <trkpt lat="49.94678" lon="2.10628">
        <ele>60.9</ele>
        <time>2022-09-14T13:21:09Z</time>
      </trkpt>
      <trkpt lat="49.9468" lon="2.10629">
        <ele>60.9</ele>
        <time>2022-09-14T13:21:10Z</time>
      </trkpt>
      <trkpt lat="49.94681" lon="2.1063">
        <ele>60.8</ele>
        <time>2022-09-14T13:21:11Z</time>
      </trkpt>
      <trkpt lat="49.94682" lon="2.10632">
        <ele>60.7</ele>
        <time>2022-09-14T13:21:12Z</time>
      </trkpt>
      <trkpt lat="49.94683" lon="2.10633">
        <ele>60.7</ele>
        <time>2022-09-14T13:21:13Z</time>
      </trkpt>
      <trkpt lat="49.94684" lon="2.10634">
        <ele>60.6</ele>
        <time>2022-09-14T13:21:14Z</time>
      </trkpt>
      <trkpt lat="49.94685" lon="2.10634">
        <ele>60.6</ele>
        <time>2022-09-14T13:21:15Z</time>
      </trkpt>
      <trkpt lat="49.94687" lon="2.10635">
        <ele>60.5</ele>
        <time>2022-09-14T13:21:17Z</time>
      </trkpt>
      <trkpt lat="49.94689" lon="2.10636">
        <ele>60.4</ele>
        <time>2022-09-14T13:21:19Z</time>
      </trkpt>
      <trkpt lat="49.94692" lon="2.10638">
        <ele>60.4</ele>
        <time>2022-09-14T13:21:20Z</time>
      </trkpt>
      <trkpt lat="49.94692" lon="2.10638">
        <ele>60.4</ele>
        <time>2022-09-14T13:21:21Z</time>
      </trkpt>
      <trkpt lat="49.94693" lon="2.10639">
        <ele>60.3</ele>
        <time>2022-09-14T13:21:22Z</time>
      </trkpt>
      <trkpt lat="49.94695" lon="2.10639">
        <ele>60.3</ele>
        <time>2022-09-14T13:21:23Z</time>
      </trkpt>
      <trkpt lat="49.94697" lon="2.10641">
        <ele>60.3</ele>
        <time>2022-09-14T13:21:25Z</time>
      </trkpt>
      <trkpt lat="49.94699" lon="2.10642">
        <ele>60.3</ele>
        <time>2022-09-14T13:21:26Z</time>
      </trkpt>
      <trkpt lat="49.947" lon="2.10642">
        <ele>60.2</ele>
        <time>2022-09-14T13:21:27Z</time>
      </trkpt>
      <trkpt lat="49.94702" lon="2.10643">
        <ele>60.2</ele>
        <time>2022-09-14T13:21:28Z</time>
      </trkpt>
      <trkpt lat="49.94703" lon="2.10644">
        <ele>60.2</ele>
        <time>2022-09-14T13:21:29Z</time>
      </trkpt>
      <trkpt lat="49.94704" lon="2.10644">
        <ele>60.2</ele>
        <time>2022-09-14T13:21:30Z</time>
      </trkpt>
      <trkpt lat="49.94706" lon="2.10644">
        <ele>60.2</ele>
        <time>2022-09-14T13:21:31Z</time>
      </trkpt>
      <trkpt lat="49.94706" lon="2.10645">
        <ele>60.2</ele>
        <time>2022-09-14T13:21:32Z</time>
      </trkpt>
      <trkpt lat="49.94708" lon="2.10646">
        <ele>60.3</ele>
        <time>2022-09-14T13:21:34Z</time>
      </trkpt>
      <trkpt lat="49.94709" lon="2.10646">
        <ele>60.3</ele>
        <time>2022-09-14T13:21:35Z</time>
      </trkpt>
      <trkpt lat="49.9471" lon="2.10647">
        <ele>60.3</ele>
        <time>2022-09-14T13:21:36Z</time>
      </trkpt>
      <trkpt lat="49.94711" lon="2.10648">
        <ele>60.3</ele>
        <time>2022-09-14T13:21:37Z</time>
      </trkpt>
      <trkpt lat="49.94712" lon="2.10649">
        <ele>60.3</ele>
        <time>2022-09-14T13:21:38Z</time>
      </trkpt>
      <trkpt lat="49.94713" lon="2.1065">
        <ele>60.3</ele>
        <time>2022-09-14T13:21:39Z</time>
      </trkpt>
      <trkpt lat="49.94714" lon="2.1065">
        <ele>60.3</ele>
        <time>2022-09-14T13:21:40Z</time>
      </trkpt>
      <trkpt lat="49.94715" lon="2.10651">
        <ele>60.4</ele>
        <time>2022-09-14T13:21:41Z</time>
      </trkpt>
      <trkpt lat="49.94716" lon="2.10652">
        <ele>60.4</ele>
        <time>2022-09-14T13:21:42Z</time>
      </trkpt>
      <trkpt lat="49.94717" lon="2.10653">
        <ele>60.4</ele>
        <time>2022-09-14T13:21:44Z</time>
      </trkpt>
      <trkpt lat="49.94718" lon="2.10654">
        <ele>60.4</ele>
        <time>2022-09-14T13:21:45Z</time>
      </trkpt>
      <trkpt lat="49.94719" lon="2.10655">
        <ele>60.4</ele>
        <time>2022-09-14T13:21:46Z</time>
      </trkpt>
      <trkpt lat="49.9472" lon="2.10655">
        <ele>60.5</ele>
        <time>2022-09-14T13:21:47Z</time>
      </trkpt>
      <trkpt lat="49.94721" lon="2.10656">
        <ele>60.5</ele>
        <time>2022-09-14T13:21:48Z</time>
      </trkpt>
      <trkpt lat="49.94722" lon="2.10657">
        <ele>60.5</ele>
        <time>2022-09-14T13:21:49Z</time>
      </trkpt>
      <trkpt lat="49.94723" lon="2.10658">
        <ele>60.5</ele>
        <time>2022-09-14T13:21:50Z</time>
      </trkpt>
      <trkpt lat="49.94725" lon="2.1066">
        <ele>60.6</ele>
        <time>2022-09-14T13:21:51Z</time>
      </trkpt>
      <trkpt lat="49.94725" lon="2.10661">
        <ele>60.6</ele>
        <time>2022-09-14T13:21:53Z</time>
      </trkpt>
      <trkpt lat="49.94726" lon="2.10662">
        <ele>60.6</ele>
        <time>2022-09-14T13:21:54Z</time>
      </trkpt>
      <trkpt lat="49.94727" lon="2.10663">
        <ele>60.6</ele>
        <time>2022-09-14T13:21:55Z</time>
      </trkpt>
      <trkpt lat="49.94728" lon="2.10663">
        <ele>60.7</ele>
        <time>2022-09-14T13:21:56Z</time>
      </trkpt>
      <trkpt lat="49.94729" lon="2.10664">
        <ele>60.7</ele>
        <time>2022-09-14T13:21:57Z</time>
      </trkpt>
      <trkpt lat="49.9473" lon="2.10665">
        <ele>60.7</ele>
        <time>2022-09-14T13:21:58Z</time>
      </trkpt>
      <trkpt lat="49.94731" lon="2.10665">
        <ele>60.8</ele>
        <time>2022-09-14T13:21:59Z</time>
      </trkpt>
      <trkpt lat="49.94732" lon="2.10665">
        <ele>60.8</ele>
        <time>2022-09-14T13:22:00Z</time>
      </trkpt>
      <trkpt lat="49.94733" lon="2.10666">
        <ele>60.8</ele>
        <time>2022-09-14T13:22:01Z</time>
      </trkpt>
      <trkpt lat="49.94734" lon="2.10666">
        <ele>60.9</ele>
        <time>2022-09-14T13:22:02Z</time>
      </trkpt>
      <trkpt lat="49.94735" lon="2.10667">
        <ele>60.9</ele>
        <time>2022-09-14T13:22:03Z</time>
      </trkpt>
      <trkpt lat="49.94737" lon="2.10667">
        <ele>61</ele>
        <time>2022-09-14T13:22:04Z</time>
      </trkpt>
      <trkpt lat="49.94738" lon="2.10668">
        <ele>61</ele>
        <time>2022-09-14T13:22:05Z</time>
      </trkpt>
      <trkpt lat="49.94739" lon="2.10668">
        <ele>61</ele>
        <time>2022-09-14T13:22:06Z</time>
      </trkpt>
      <trkpt lat="49.9474" lon="2.10668">
        <ele>61.1</ele>
        <time>2022-09-14T13:22:07Z</time>
      </trkpt>
      <trkpt lat="49.94741" lon="2.10669">
        <ele>61.1</ele>
        <time>2022-09-14T13:22:08Z</time>
      </trkpt>
      <trkpt lat="49.94742" lon="2.1067">
        <ele>61.1</ele>
        <time>2022-09-14T13:22:09Z</time>
      </trkpt>
      <trkpt lat="49.94744" lon="2.1067">
        <ele>61.2</ele>
        <time>2022-09-14T13:22:10Z</time>
      </trkpt>
      <trkpt lat="49.94745" lon="2.10672">
        <ele>61.3</ele>
        <time>2022-09-14T13:22:12Z</time>
      </trkpt>
      <trkpt lat="49.94746" lon="2.10672">
        <ele>61.3</ele>
        <time>2022-09-14T13:22:13Z</time>
      </trkpt>
      <trkpt lat="49.94747" lon="2.10673">
        <ele>61.4</ele>
        <time>2022-09-14T13:22:14Z</time>
      </trkpt>
      <trkpt lat="49.94749" lon="2.10673">
        <ele>61.4</ele>
        <time>2022-09-14T13:22:15Z</time>
      </trkpt>
      <trkpt lat="49.9475" lon="2.10674">
        <ele>61.5</ele>
        <time>2022-09-14T13:22:16Z</time>
      </trkpt>
      <trkpt lat="49.94752" lon="2.10675">
        <ele>61.5</ele>
        <time>2022-09-14T13:22:18Z</time>
      </trkpt>
      <trkpt lat="49.94754" lon="2.10676">
        <ele>61.6</ele>
        <time>2022-09-14T13:22:20Z</time>
      </trkpt>
      <trkpt lat="49.94754" lon="2.10677">
        <ele>61.7</ele>
        <time>2022-09-14T13:22:21Z</time>
      </trkpt>
      <trkpt lat="49.94756" lon="2.10678">
        <ele>61.7</ele>
        <time>2022-09-14T13:22:22Z</time>
      </trkpt>
      <trkpt lat="49.94757" lon="2.10678">
        <ele>61.7</ele>
        <time>2022-09-14T13:22:23Z</time>
      </trkpt>
      <trkpt lat="49.94758" lon="2.10679">
        <ele>61.8</ele>
        <time>2022-09-14T13:22:24Z</time>
      </trkpt>
      <trkpt lat="49.94758" lon="2.1068">
        <ele>61.8</ele>
        <time>2022-09-14T13:22:26Z</time>
      </trkpt>
      <trkpt lat="49.94759" lon="2.1068">
        <ele>61.9</ele>
        <time>2022-09-14T13:22:27Z</time>
      </trkpt>
      <trkpt lat="49.9476" lon="2.10681">
        <ele>61.9</ele>
        <time>2022-09-14T13:22:28Z</time>
      </trkpt>
      <trkpt lat="49.94761" lon="2.10682">
        <ele>61.9</ele>
        <time>2022-09-14T13:22:29Z</time>
      </trkpt>
      <trkpt lat="49.94762" lon="2.10683">
        <ele>62</ele>
        <time>2022-09-14T13:22:30Z</time>
      </trkpt>
      <trkpt lat="49.94763" lon="2.10683">
        <ele>62</ele>
        <time>2022-09-14T13:22:31Z</time>
      </trkpt>
      <trkpt lat="49.94764" lon="2.10684">
        <ele>62.1</ele>
        <time>2022-09-14T13:22:32Z</time>
      </trkpt>
      <trkpt lat="49.94765" lon="2.10685">
        <ele>62.1</ele>
        <time>2022-09-14T13:22:34Z</time>
      </trkpt>
      <trkpt lat="49.94766" lon="2.10686">
        <ele>62.2</ele>
        <time>2022-09-14T13:22:35Z</time>
      </trkpt>
      <trkpt lat="49.94767" lon="2.10687">
        <ele>62.2</ele>
        <time>2022-09-14T13:22:36Z</time>
      </trkpt>
      <trkpt lat="49.94768" lon="2.10688">
        <ele>62.3</ele>
        <time>2022-09-14T13:22:37Z</time>
      </trkpt>
      <trkpt lat="49.94769" lon="2.10689">
        <ele>62.3</ele>
        <time>2022-09-14T13:22:38Z</time>
      </trkpt>
      <trkpt lat="49.9477" lon="2.1069">
        <ele>62.4</ele>
        <time>2022-09-14T13:22:39Z</time>
      </trkpt>
      <trkpt lat="49.94771" lon="2.10691">
        <ele>62.4</ele>
        <time>2022-09-14T13:22:41Z</time>
      </trkpt>
      <trkpt lat="49.94772" lon="2.10692">
        <ele>62.5</ele>
        <time>2022-09-14T13:22:42Z</time>
      </trkpt>
      <trkpt lat="49.94773" lon="2.10693">
        <ele>62.5</ele>
        <time>2022-09-14T13:22:43Z</time>
      </trkpt>
      <trkpt lat="49.94773" lon="2.10694">
        <ele>62.6</ele>
        <time>2022-09-14T13:22:44Z</time>
      </trkpt>
      <trkpt lat="49.94774" lon="2.10696">
        <ele>62.6</ele>
        <time>2022-09-14T13:22:45Z</time>
      </trkpt>
      <trkpt lat="49.94775" lon="2.10697">
        <ele>62.7</ele>
        <time>2022-09-14T13:22:46Z</time>
      </trkpt>
      <trkpt lat="49.94776" lon="2.10698">
        <ele>62.7</ele>
        <time>2022-09-14T13:22:48Z</time>
      </trkpt>
      <trkpt lat="49.94777" lon="2.107">
        <ele>62.8</ele>
        <time>2022-09-14T13:22:49Z</time>
      </trkpt>
      <trkpt lat="49.94778" lon="2.10701">
        <ele>62.8</ele>
        <time>2022-09-14T13:22:50Z</time>
      </trkpt>
      <trkpt lat="49.94779" lon="2.10702">
        <ele>62.9</ele>
        <time>2022-09-14T13:22:51Z</time>
      </trkpt>
      <trkpt lat="49.9478" lon="2.10704">
        <ele>63</ele>
        <time>2022-09-14T13:22:52Z</time>
      </trkpt>
      <trkpt lat="49.94781" lon="2.10705">
        <ele>63</ele>
        <time>2022-09-14T13:22:53Z</time>
      </trkpt>
      <trkpt lat="49.94782" lon="2.10706">
        <ele>63</ele>
        <time>2022-09-14T13:22:54Z</time>
      </trkpt>
      <trkpt lat="49.94783" lon="2.10708">
        <ele>63.1</ele>
        <time>2022-09-14T13:22:56Z</time>
      </trkpt>
      <trkpt lat="49.94784" lon="2.10709">
        <ele>63.2</ele>
        <time>2022-09-14T13:22:57Z</time>
      </trkpt>
      <trkpt lat="49.94785" lon="2.1071">
        <ele>63.2</ele>
        <time>2022-09-14T13:22:58Z</time>
      </trkpt>
      <trkpt lat="49.94786" lon="2.10712">
        <ele>63.2</ele>
        <time>2022-09-14T13:22:59Z</time>
      </trkpt>
      <trkpt lat="49.94787" lon="2.10713">
        <ele>63.3</ele>
        <time>2022-09-14T13:23:00Z</time>
      </trkpt>
      <trkpt lat="49.94788" lon="2.10714">
        <ele>63.3</ele>
        <time>2022-09-14T13:23:01Z</time>
      </trkpt>
      <trkpt lat="49.9479" lon="2.10715">
        <ele>63.4</ele>
        <time>2022-09-14T13:23:02Z</time>
      </trkpt>
      <trkpt lat="49.94791" lon="2.10716">
        <ele>63.4</ele>
        <time>2022-09-14T13:23:04Z</time>
      </trkpt>
      <trkpt lat="49.94792" lon="2.10718">
        <ele>63.5</ele>
        <time>2022-09-14T13:23:05Z</time>
      </trkpt>
      <trkpt lat="49.94793" lon="2.10719">
        <ele>63.5</ele>
        <time>2022-09-14T13:23:06Z</time>
      </trkpt>
      <trkpt lat="49.94794" lon="2.1072">
        <ele>63.5</ele>
        <time>2022-09-14T13:23:07Z</time>
      </trkpt>
      <trkpt lat="49.94795" lon="2.10721">
        <ele>63.6</ele>
        <time>2022-09-14T13:23:08Z</time>
      </trkpt>
      <trkpt lat="49.94796" lon="2.10722">
        <ele>63.6</ele>
        <time>2022-09-14T13:23:09Z</time>
      </trkpt>
      <trkpt lat="49.94797" lon="2.10723">
        <ele>63.6</ele>
        <time>2022-09-14T13:23:10Z</time>
      </trkpt>
      <trkpt lat="49.94799" lon="2.10724">
        <ele>63.7</ele>
        <time>2022-09-14T13:23:12Z</time>
      </trkpt>
      <trkpt lat="49.948" lon="2.10725">
        <ele>63.7</ele>
        <time>2022-09-14T13:23:13Z</time>
      </trkpt>
      <trkpt lat="49.94801" lon="2.10726">
        <ele>63.7</ele>
        <time>2022-09-14T13:23:14Z</time>
      </trkpt>
      <trkpt lat="49.94802" lon="2.10726">
        <ele>63.7</ele>
        <time>2022-09-14T13:23:15Z</time>
      </trkpt>
      <trkpt lat="49.94803" lon="2.10727">
        <ele>63.7</ele>
        <time>2022-09-14T13:23:16Z</time>
      </trkpt>
      <trkpt lat="49.94804" lon="2.10727">
        <ele>63.7</ele>
        <time>2022-09-14T13:23:17Z</time>
      </trkpt>
      <trkpt lat="49.94807" lon="2.10729">
        <ele>63.8</ele>
        <time>2022-09-14T13:23:18Z</time>
      </trkpt>
      <trkpt lat="49.94808" lon="2.10729">
        <ele>63.8</ele>
        <time>2022-09-14T13:23:20Z</time>
      </trkpt>
      <trkpt lat="49.94809" lon="2.1073">
        <ele>63.8</ele>
        <time>2022-09-14T13:23:21Z</time>
      </trkpt>
      <trkpt lat="49.9481" lon="2.1073">
        <ele>63.8</ele>
        <time>2022-09-14T13:23:22Z</time>
      </trkpt>
      <trkpt lat="49.94811" lon="2.1073">
        <ele>63.8</ele>
        <time>2022-09-14T13:23:23Z</time>
      </trkpt>
      <trkpt lat="49.94812" lon="2.10731">
        <ele>63.8</ele>
        <time>2022-09-14T13:23:24Z</time>
      </trkpt>
      <trkpt lat="49.94813" lon="2.10732">
        <ele>63.9</ele>
        <time>2022-09-14T13:23:25Z</time>
      </trkpt>
      <trkpt lat="49.94814" lon="2.10732">
        <ele>63.9</ele>
        <time>2022-09-14T13:23:26Z</time>
      </trkpt>
      <trkpt lat="49.94815" lon="2.10733">
        <ele>63.9</ele>
        <time>2022-09-14T13:23:28Z</time>
      </trkpt>
      <trkpt lat="49.94817" lon="2.10733">
        <ele>63.9</ele>
        <time>2022-09-14T13:23:29Z</time>
      </trkpt>
      <trkpt lat="49.94818" lon="2.10734">
        <ele>63.9</ele>
        <time>2022-09-14T13:23:30Z</time>
      </trkpt>
      <trkpt lat="49.94819" lon="2.10734">
        <ele>63.9</ele>
        <time>2022-09-14T13:23:31Z</time>
      </trkpt>
      <trkpt lat="49.9482" lon="2.10735">
        <ele>63.9</ele>
        <time>2022-09-14T13:23:32Z</time>
      </trkpt>
      <trkpt lat="49.94821" lon="2.10735">
        <ele>63.9</ele>
        <time>2022-09-14T13:23:33Z</time>
      </trkpt>
      <trkpt lat="49.94823" lon="2.10736">
        <ele>63.9</ele>
        <time>2022-09-14T13:23:34Z</time>
      </trkpt>
      <trkpt lat="49.94824" lon="2.10736">
        <ele>63.9</ele>
        <time>2022-09-14T13:23:36Z</time>
      </trkpt>
      <trkpt lat="49.94825" lon="2.10737">
        <ele>63.9</ele>
        <time>2022-09-14T13:23:37Z</time>
      </trkpt>
      <trkpt lat="49.94826" lon="2.10737">
        <ele>63.9</ele>
        <time>2022-09-14T13:23:38Z</time>
      </trkpt>
      <trkpt lat="49.94827" lon="2.10738">
        <ele>63.9</ele>
        <time>2022-09-14T13:23:39Z</time>
      </trkpt>
      <trkpt lat="49.94828" lon="2.10738">
        <ele>63.9</ele>
        <time>2022-09-14T13:23:40Z</time>
      </trkpt>
      <trkpt lat="49.9483" lon="2.10739">
        <ele>63.9</ele>
        <time>2022-09-14T13:23:41Z</time>
      </trkpt>
      <trkpt lat="49.94831" lon="2.1074">
        <ele>63.9</ele>
        <time>2022-09-14T13:23:42Z</time>
      </trkpt>
      <trkpt lat="49.94832" lon="2.10741">
        <ele>63.9</ele>
        <time>2022-09-14T13:23:43Z</time>
      </trkpt>
      <trkpt lat="49.94834" lon="2.10742">
        <ele>63.9</ele>
        <time>2022-09-14T13:23:45Z</time>
      </trkpt>
      <trkpt lat="49.94835" lon="2.10743">
        <ele>63.9</ele>
        <time>2022-09-14T13:23:46Z</time>
      </trkpt>
      <trkpt lat="49.94836" lon="2.10743">
        <ele>63.9</ele>
        <time>2022-09-14T13:23:47Z</time>
      </trkpt>
      <trkpt lat="49.94837" lon="2.10744">
        <ele>63.9</ele>
        <time>2022-09-14T13:23:48Z</time>
      </trkpt>
      <trkpt lat="49.94838" lon="2.10744">
        <ele>63.9</ele>
        <time>2022-09-14T13:23:49Z</time>
      </trkpt>
      <trkpt lat="49.94839" lon="2.10745">
        <ele>63.9</ele>
        <time>2022-09-14T13:23:50Z</time>
      </trkpt>
      <trkpt lat="49.9484" lon="2.10745">
        <ele>63.9</ele>
        <time>2022-09-14T13:23:51Z</time>
      </trkpt>
      <trkpt lat="49.94841" lon="2.10746">
        <ele>63.9</ele>
        <time>2022-09-14T13:23:52Z</time>
      </trkpt>
      <trkpt lat="49.94843" lon="2.10747">
        <ele>63.9</ele>
        <time>2022-09-14T13:23:54Z</time>
      </trkpt>
      <trkpt lat="49.94844" lon="2.10748">
        <ele>63.9</ele>
        <time>2022-09-14T13:23:55Z</time>
      </trkpt>
      <trkpt lat="49.94846" lon="2.1075">
        <ele>63.9</ele>
        <time>2022-09-14T13:23:56Z</time>
      </trkpt>
      <trkpt lat="49.94848" lon="2.10751">
        <ele>63.9</ele>
        <time>2022-09-14T13:23:57Z</time>
      </trkpt>
      <trkpt lat="49.94848" lon="2.10752">
        <ele>63.9</ele>
        <time>2022-09-14T13:23:58Z</time>
      </trkpt>
      <trkpt lat="49.94849" lon="2.10753">
        <ele>63.9</ele>
        <time>2022-09-14T13:23:59Z</time>
      </trkpt>
      <trkpt lat="49.94851" lon="2.10754">
        <ele>63.9</ele>
        <time>2022-09-14T13:24:00Z</time>
      </trkpt>
      <trkpt lat="49.94852" lon="2.10755">
        <ele>63.9</ele>
        <time>2022-09-14T13:24:01Z</time>
      </trkpt>
      <trkpt lat="49.94853" lon="2.10756">
        <ele>63.9</ele>
        <time>2022-09-14T13:24:02Z</time>
      </trkpt>
      <trkpt lat="49.94856" lon="2.10757">
        <ele>63.9</ele>
        <time>2022-09-14T13:24:04Z</time>
      </trkpt>
      <trkpt lat="49.94856" lon="2.10758">
        <ele>63.9</ele>
        <time>2022-09-14T13:24:05Z</time>
      </trkpt>
      <trkpt lat="49.94858" lon="2.10758">
        <ele>64</ele>
        <time>2022-09-14T13:24:06Z</time>
      </trkpt>
      <trkpt lat="49.94859" lon="2.10759">
        <ele>64</ele>
        <time>2022-09-14T13:24:07Z</time>
      </trkpt>
      <trkpt lat="49.94861" lon="2.1076">
        <ele>64</ele>
        <time>2022-09-14T13:24:08Z</time>
      </trkpt>
      <trkpt lat="49.94862" lon="2.10761">
        <ele>64</ele>
        <time>2022-09-14T13:24:09Z</time>
      </trkpt>
      <trkpt lat="49.94863" lon="2.10761">
        <ele>64</ele>
        <time>2022-09-14T13:24:10Z</time>
      </trkpt>
      <trkpt lat="49.94865" lon="2.10762">
        <ele>64</ele>
        <time>2022-09-14T13:24:11Z</time>
      </trkpt>
      <trkpt lat="49.94866" lon="2.10763">
        <ele>64</ele>
        <time>2022-09-14T13:24:12Z</time>
      </trkpt>
      <trkpt lat="49.94866" lon="2.10763">
        <ele>64</ele>
        <time>2022-09-14T13:24:13Z</time>
      </trkpt>
      <trkpt lat="49.94868" lon="2.10765">
        <ele>64</ele>
        <time>2022-09-14T13:24:14Z</time>
      </trkpt>
      <trkpt lat="49.94869" lon="2.10765">
        <ele>64</ele>
        <time>2022-09-14T13:24:15Z</time>
      </trkpt>
      <trkpt lat="49.9487" lon="2.10766">
        <ele>64</ele>
        <time>2022-09-14T13:24:16Z</time>
      </trkpt>
      <trkpt lat="49.94871" lon="2.10767">
        <ele>64.1</ele>
        <time>2022-09-14T13:24:17Z</time>
      </trkpt>
      <trkpt lat="49.94872" lon="2.10768">
        <ele>64.1</ele>
        <time>2022-09-14T13:24:18Z</time>
      </trkpt>
      <trkpt lat="49.94873" lon="2.10768">
        <ele>64.1</ele>
        <time>2022-09-14T13:24:19Z</time>
      </trkpt>
      <trkpt lat="49.94874" lon="2.10769">
        <ele>64.1</ele>
        <time>2022-09-14T13:24:20Z</time>
      </trkpt>
      <trkpt lat="49.94877" lon="2.10771">
        <ele>64.1</ele>
        <time>2022-09-14T13:24:22Z</time>
      </trkpt>
      <trkpt lat="49.94878" lon="2.10772">
        <ele>64.2</ele>
        <time>2022-09-14T13:24:23Z</time>
      </trkpt>
      <trkpt lat="49.94879" lon="2.10773">
        <ele>64.2</ele>
        <time>2022-09-14T13:24:24Z</time>
      </trkpt>
      <trkpt lat="49.94881" lon="2.10775">
        <ele>64.2</ele>
        <time>2022-09-14T13:24:25Z</time>
      </trkpt>
      <trkpt lat="49.94882" lon="2.10776">
        <ele>64.2</ele>
        <time>2022-09-14T13:24:26Z</time>
      </trkpt>
      <trkpt lat="49.94883" lon="2.10777">
        <ele>64.3</ele>
        <time>2022-09-14T13:24:27Z</time>
      </trkpt>
      <trkpt lat="49.94884" lon="2.10778">
        <ele>64.3</ele>
        <time>2022-09-14T13:24:28Z</time>
      </trkpt>
      <trkpt lat="49.94885" lon="2.10779">
        <ele>64.3</ele>
        <time>2022-09-14T13:24:29Z</time>
      </trkpt>
      <trkpt lat="49.94886" lon="2.1078">
        <ele>64.3</ele>
        <time>2022-09-14T13:24:31Z</time>
      </trkpt>
      <trkpt lat="49.94888" lon="2.10781">
        <ele>64.4</ele>
        <time>2022-09-14T13:24:32Z</time>
      </trkpt>
      <trkpt lat="49.94889" lon="2.10782">
        <ele>64.4</ele>
        <time>2022-09-14T13:24:33Z</time>
      </trkpt>
      <trkpt lat="49.9489" lon="2.10782">
        <ele>64.4</ele>
        <time>2022-09-14T13:24:34Z</time>
      </trkpt>
      <trkpt lat="49.94891" lon="2.10783">
        <ele>64.4</ele>
        <time>2022-09-14T13:24:35Z</time>
      </trkpt>
      <trkpt lat="49.94892" lon="2.10784">
        <ele>64.5</ele>
        <time>2022-09-14T13:24:36Z</time>
      </trkpt>
      <trkpt lat="49.94893" lon="2.10784">
        <ele>64.5</ele>
        <time>2022-09-14T13:24:37Z</time>
      </trkpt>
      <trkpt lat="49.94895" lon="2.10786">
        <ele>64.5</ele>
        <time>2022-09-14T13:24:38Z</time>
      </trkpt>
      <trkpt lat="49.94896" lon="2.10786">
        <ele>64.6</ele>
        <time>2022-09-14T13:24:40Z</time>
      </trkpt>
      <trkpt lat="49.94897" lon="2.10787">
        <ele>64.6</ele>
        <time>2022-09-14T13:24:41Z</time>
      </trkpt>
      <trkpt lat="49.94898" lon="2.10787">
        <ele>64.6</ele>
        <time>2022-09-14T13:24:42Z</time>
      </trkpt>
      <trkpt lat="49.94899" lon="2.10788">
        <ele>64.6</ele>
        <time>2022-09-14T13:24:43Z</time>
      </trkpt>
      <trkpt lat="49.949" lon="2.10788">
        <ele>64.6</ele>
        <time>2022-09-14T13:24:44Z</time>
      </trkpt>
      <trkpt lat="49.94901" lon="2.10788">
        <ele>64.6</ele>
        <time>2022-09-14T13:24:45Z</time>
      </trkpt>
      <trkpt lat="49.94902" lon="2.10789">
        <ele>64.7</ele>
        <time>2022-09-14T13:24:46Z</time>
      </trkpt>
      <trkpt lat="49.94902" lon="2.10789">
        <ele>64.7</ele>
        <time>2022-09-14T13:24:47Z</time>
      </trkpt>
      <trkpt lat="49.94903" lon="2.1079">
        <ele>64.7</ele>
        <time>2022-09-14T13:24:48Z</time>
      </trkpt>
      <trkpt lat="49.94904" lon="2.1079">
        <ele>64.7</ele>
        <time>2022-09-14T13:24:49Z</time>
      </trkpt>
      <trkpt lat="49.94905" lon="2.10791">
        <ele>64.7</ele>
        <time>2022-09-14T13:24:50Z</time>
      </trkpt>
      <trkpt lat="49.94906" lon="2.10791">
        <ele>64.7</ele>
        <time>2022-09-14T13:24:51Z</time>
      </trkpt>
      <trkpt lat="49.94907" lon="2.10792">
        <ele>64.8</ele>
        <time>2022-09-14T13:24:52Z</time>
      </trkpt>
      <trkpt lat="49.94909" lon="2.10792">
        <ele>64.8</ele>
        <time>2022-09-14T13:24:53Z</time>
      </trkpt>
      <trkpt lat="49.94909" lon="2.10792">
        <ele>64.8</ele>
        <time>2022-09-14T13:24:54Z</time>
      </trkpt>
      <trkpt lat="49.9491" lon="2.10792">
        <ele>64.8</ele>
        <time>2022-09-14T13:24:55Z</time>
      </trkpt>
      <trkpt lat="49.94911" lon="2.10792">
        <ele>64.8</ele>
        <time>2022-09-14T13:24:56Z</time>
      </trkpt>
      <trkpt lat="49.94912" lon="2.10792">
        <ele>64.8</ele>
        <time>2022-09-14T13:24:57Z</time>
      </trkpt>
      <trkpt lat="49.94914" lon="2.10793">
        <ele>64.8</ele>
        <time>2022-09-14T13:24:58Z</time>
      </trkpt>
      <trkpt lat="49.94915" lon="2.10794">
        <ele>64.9</ele>
        <time>2022-09-14T13:25:00Z</time>
      </trkpt>
      <trkpt lat="49.94916" lon="2.10794">
        <ele>64.9</ele>
        <time>2022-09-14T13:25:01Z</time>
      </trkpt>
      <trkpt lat="49.94916" lon="2.10795">
        <ele>64.9</ele>
        <time>2022-09-14T13:25:02Z</time>
      </trkpt>
      <trkpt lat="49.94917" lon="2.10796">
        <ele>64.9</ele>
        <time>2022-09-14T13:25:03Z</time>
      </trkpt>
      <trkpt lat="49.94918" lon="2.10796">
        <ele>64.9</ele>
        <time>2022-09-14T13:25:04Z</time>
      </trkpt>
      <trkpt lat="49.94919" lon="2.10797">
        <ele>64.9</ele>
        <time>2022-09-14T13:25:05Z</time>
      </trkpt>
      <trkpt lat="49.9492" lon="2.10797">
        <ele>64.9</ele>
        <time>2022-09-14T13:25:06Z</time>
      </trkpt>
      <trkpt lat="49.94921" lon="2.10798">
        <ele>64.9</ele>
        <time>2022-09-14T13:25:07Z</time>
      </trkpt>
      <trkpt lat="49.94922" lon="2.10799">
        <ele>64.9</ele>
        <time>2022-09-14T13:25:08Z</time>
      </trkpt>
      <trkpt lat="49.94923" lon="2.108">
        <ele>64.9</ele>
        <time>2022-09-14T13:25:09Z</time>
      </trkpt>
      <trkpt lat="49.94924" lon="2.10801">
        <ele>64.9</ele>
        <time>2022-09-14T13:25:10Z</time>
      </trkpt>
      <trkpt lat="49.94924" lon="2.10801">
        <ele>65</ele>
        <time>2022-09-14T13:25:11Z</time>
      </trkpt>
      <trkpt lat="49.94926" lon="2.10803">
        <ele>65</ele>
        <time>2022-09-14T13:25:13Z</time>
      </trkpt>
      <trkpt lat="49.94927" lon="2.10804">
        <ele>65</ele>
        <time>2022-09-14T13:25:14Z</time>
      </trkpt>
      <trkpt lat="49.94928" lon="2.10805">
        <ele>65</ele>
        <time>2022-09-14T13:25:15Z</time>
      </trkpt>
      <trkpt lat="49.94929" lon="2.10806">
        <ele>65</ele>
        <time>2022-09-14T13:25:16Z</time>
      </trkpt>
      <trkpt lat="49.9493" lon="2.10807">
        <ele>65</ele>
        <time>2022-09-14T13:25:17Z</time>
      </trkpt>
      <trkpt lat="49.94931" lon="2.10808">
        <ele>65</ele>
        <time>2022-09-14T13:25:18Z</time>
      </trkpt>
      <trkpt lat="49.94932" lon="2.10809">
        <ele>65</ele>
        <time>2022-09-14T13:25:19Z</time>
      </trkpt>
      <trkpt lat="49.94933" lon="2.10809">
        <ele>65.1</ele>
        <time>2022-09-14T13:25:20Z</time>
      </trkpt>
      <trkpt lat="49.94935" lon="2.1081">
        <ele>65.1</ele>
        <time>2022-09-14T13:25:21Z</time>
      </trkpt>
      <trkpt lat="49.94936" lon="2.10811">
        <ele>65.1</ele>
        <time>2022-09-14T13:25:22Z</time>
      </trkpt>
      <trkpt lat="49.94937" lon="2.10811">
        <ele>65.2</ele>
        <time>2022-09-14T13:25:23Z</time>
      </trkpt>
      <trkpt lat="49.94938" lon="2.10812">
        <ele>65.2</ele>
        <time>2022-09-14T13:25:24Z</time>
      </trkpt>
      <trkpt lat="49.94939" lon="2.10812">
        <ele>65.2</ele>
        <time>2022-09-14T13:25:25Z</time>
      </trkpt>
      <trkpt lat="49.9494" lon="2.10813">
        <ele>65.3</ele>
        <time>2022-09-14T13:25:26Z</time>
      </trkpt>
      <trkpt lat="49.94941" lon="2.10814">
        <ele>65.3</ele>
        <time>2022-09-14T13:25:27Z</time>
      </trkpt>
      <trkpt lat="49.94943" lon="2.10815">
        <ele>65.4</ele>
        <time>2022-09-14T13:25:28Z</time>
      </trkpt>
      <trkpt lat="49.94944" lon="2.10815">
        <ele>65.5</ele>
        <time>2022-09-14T13:25:30Z</time>
      </trkpt>
      <trkpt lat="49.94945" lon="2.10816">
        <ele>65.5</ele>
        <time>2022-09-14T13:25:31Z</time>
      </trkpt>
      <trkpt lat="49.94946" lon="2.10817">
        <ele>65.6</ele>
        <time>2022-09-14T13:25:32Z</time>
      </trkpt>
      <trkpt lat="49.94948" lon="2.10818">
        <ele>65.7</ele>
        <time>2022-09-14T13:25:33Z</time>
      </trkpt>
      <trkpt lat="49.94949" lon="2.10818">
        <ele>65.7</ele>
        <time>2022-09-14T13:25:34Z</time>
      </trkpt>
      <trkpt lat="49.9495" lon="2.10818">
        <ele>65.8</ele>
        <time>2022-09-14T13:25:35Z</time>
      </trkpt>
      <trkpt lat="49.94951" lon="2.10819">
        <ele>65.9</ele>
        <time>2022-09-14T13:25:36Z</time>
      </trkpt>
      <trkpt lat="49.94952" lon="2.10819">
        <ele>65.9</ele>
        <time>2022-09-14T13:25:37Z</time>
      </trkpt>
      <trkpt lat="49.94953" lon="2.10819">
        <ele>66</ele>
        <time>2022-09-14T13:25:38Z</time>
      </trkpt>
      <trkpt lat="49.94956" lon="2.1082">
        <ele>66.2</ele>
        <time>2022-09-14T13:25:40Z</time>
      </trkpt>
      <trkpt lat="49.94957" lon="2.1082">
        <ele>66.3</ele>
        <time>2022-09-14T13:25:41Z</time>
      </trkpt>
      <trkpt lat="49.94959" lon="2.10819">
        <ele>66.4</ele>
        <time>2022-09-14T13:25:42Z</time>
      </trkpt>
      <trkpt lat="49.9496" lon="2.10819">
        <ele>66.5</ele>
        <time>2022-09-14T13:25:43Z</time>
      </trkpt>
      <trkpt lat="49.9496" lon="2.10819">
        <ele>66.5</ele>
        <time>2022-09-14T13:25:44Z</time>
      </trkpt>
      <trkpt lat="49.94961" lon="2.10818">
        <ele>66.6</ele>
        <time>2022-09-14T13:25:45Z</time>
      </trkpt>
      <trkpt lat="49.94962" lon="2.10818">
        <ele>66.7</ele>
        <time>2022-09-14T13:25:46Z</time>
      </trkpt>
      <trkpt lat="49.94964" lon="2.10817">
        <ele>66.8</ele>
        <time>2022-09-14T13:25:48Z</time>
      </trkpt>
      <trkpt lat="49.94965" lon="2.10816">
        <ele>66.9</ele>
        <time>2022-09-14T13:25:49Z</time>
      </trkpt>
      <trkpt lat="49.94966" lon="2.10815">
        <ele>67</ele>
        <time>2022-09-14T13:25:50Z</time>
      </trkpt>
      <trkpt lat="49.94967" lon="2.10814">
        <ele>67.1</ele>
        <time>2022-09-14T13:25:51Z</time>
      </trkpt>
      <trkpt lat="49.94967" lon="2.10812">
        <ele>67.1</ele>
        <time>2022-09-14T13:25:52Z</time>
      </trkpt>
      <trkpt lat="49.94968" lon="2.10811">
        <ele>67.2</ele>
        <time>2022-09-14T13:25:53Z</time>
      </trkpt>
      <trkpt lat="49.94968" lon="2.1081">
        <ele>67.3</ele>
        <time>2022-09-14T13:25:54Z</time>
      </trkpt>
      <trkpt lat="49.94969" lon="2.10809">
        <ele>67.3</ele>
        <time>2022-09-14T13:25:55Z</time>
      </trkpt>
      <trkpt lat="49.94969" lon="2.10808">
        <ele>67.4</ele>
        <time>2022-09-14T13:25:56Z</time>
      </trkpt>
      <trkpt lat="49.9497" lon="2.10806">
        <ele>67.4</ele>
        <time>2022-09-14T13:25:57Z</time>
      </trkpt>
      <trkpt lat="49.9497" lon="2.10805">
        <ele>67.5</ele>
        <time>2022-09-14T13:25:58Z</time>
      </trkpt>
      <trkpt lat="49.9497" lon="2.10804">
        <ele>67.5</ele>
        <time>2022-09-14T13:25:59Z</time>
      </trkpt>
      <trkpt lat="49.94971" lon="2.10803">
        <ele>67.6</ele>
        <time>2022-09-14T13:26:00Z</time>
      </trkpt>
      <trkpt lat="49.94971" lon="2.10801">
        <ele>67.6</ele>
        <time>2022-09-14T13:26:01Z</time>
      </trkpt>
      <trkpt lat="49.94972" lon="2.108">
        <ele>67.7</ele>
        <time>2022-09-14T13:26:02Z</time>
      </trkpt>
      <trkpt lat="49.94973" lon="2.10799">
        <ele>67.7</ele>
        <time>2022-09-14T13:26:03Z</time>
      </trkpt>
      <trkpt lat="49.94973" lon="2.10798">
        <ele>67.8</ele>
        <time>2022-09-14T13:26:04Z</time>
      </trkpt>
      <trkpt lat="49.94974" lon="2.10798">
        <ele>67.8</ele>
        <time>2022-09-14T13:26:05Z</time>
      </trkpt>
      <trkpt lat="49.94974" lon="2.10797">
        <ele>67.8</ele>
        <time>2022-09-14T13:26:06Z</time>
      </trkpt>
      <trkpt lat="49.94976" lon="2.10795">
        <ele>67.9</ele>
        <time>2022-09-14T13:26:08Z</time>
      </trkpt>
      <trkpt lat="49.94977" lon="2.10795">
        <ele>67.9</ele>
        <time>2022-09-14T13:26:09Z</time>
      </trkpt>
      <trkpt lat="49.94977" lon="2.10794">
        <ele>67.9</ele>
        <time>2022-09-14T13:26:10Z</time>
      </trkpt>
      <trkpt lat="49.94978" lon="2.10793">
        <ele>68</ele>
        <time>2022-09-14T13:26:11Z</time>
      </trkpt>
      <trkpt lat="49.94979" lon="2.10792">
        <ele>68</ele>
        <time>2022-09-14T13:26:12Z</time>
      </trkpt>
      <trkpt lat="49.9498" lon="2.10791">
        <ele>68</ele>
        <time>2022-09-14T13:26:14Z</time>
      </trkpt>
      <trkpt lat="49.94981" lon="2.10791">
        <ele>68.1</ele>
        <time>2022-09-14T13:26:15Z</time>
      </trkpt>
      <trkpt lat="49.94982" lon="2.10791">
        <ele>68.1</ele>
        <time>2022-09-14T13:26:16Z</time>
      </trkpt>
      <trkpt lat="49.94982" lon="2.1079">
        <ele>68.1</ele>
        <time>2022-09-14T13:26:17Z</time>
      </trkpt>
      <trkpt lat="49.94983" lon="2.1079">
        <ele>68.1</ele>
        <time>2022-09-14T13:26:18Z</time>
      </trkpt>
      <trkpt lat="49.94984" lon="2.10789">
        <ele>68.1</ele>
        <time>2022-09-14T13:26:19Z</time>
      </trkpt>
      <trkpt lat="49.94985" lon="2.10789">
        <ele>68.1</ele>
        <time>2022-09-14T13:26:21Z</time>
      </trkpt>
      <trkpt lat="49.94986" lon="2.10789">
        <ele>68.1</ele>
        <time>2022-09-14T13:26:22Z</time>
      </trkpt>
      <trkpt lat="49.94987" lon="2.10789">
        <ele>68.1</ele>
        <time>2022-09-14T13:26:23Z</time>
      </trkpt>
      <trkpt lat="49.94987" lon="2.10789">
        <ele>68.2</ele>
        <time>2022-09-14T13:26:24Z</time>
      </trkpt>
      <trkpt lat="49.94987" lon="2.1079">
        <ele>68.2</ele>
        <time>2022-09-14T13:26:25Z</time>
      </trkpt>
      <trkpt lat="49.94987" lon="2.1079">
        <ele>68.2</ele>
        <time>2022-09-14T13:26:26Z</time>
      </trkpt>
      <trkpt lat="49.94987" lon="2.10791">
        <ele>68.2</ele>
        <time>2022-09-14T13:26:27Z</time>
      </trkpt>
      <trkpt lat="49.94987" lon="2.10791">
        <ele>68.2</ele>
        <time>2022-09-14T13:26:28Z</time>
      </trkpt>
      <trkpt lat="49.94987" lon="2.10791">
        <ele>68.2</ele>
        <time>2022-09-14T13:26:29Z</time>
      </trkpt>
      <trkpt lat="49.94987" lon="2.10791">
        <ele>68.2</ele>
        <time>2022-09-14T13:26:30Z</time>
      </trkpt>
      <trkpt lat="49.94987" lon="2.10791">
        <ele>68.2</ele>
        <time>2022-09-14T13:26:31Z</time>
      </trkpt>
      <trkpt lat="49.94987" lon="2.10791">
        <ele>68.2</ele>
        <time>2022-09-14T13:26:32Z</time>
      </trkpt>
      <trkpt lat="49.94987" lon="2.10791">
        <ele>68.2</ele>
        <time>2022-09-14T13:26:33Z</time>
      </trkpt>
      <trkpt lat="49.94987" lon="2.10791">
        <ele>68.2</ele>
        <time>2022-09-14T13:26:34Z</time>
      </trkpt>
      <trkpt lat="49.94987" lon="2.10791">
        <ele>68.2</ele>
        <time>2022-09-14T13:26:35Z</time>
      </trkpt>
      <trkpt lat="49.94987" lon="2.10791">
        <ele>68.2</ele>
        <time>2022-09-14T13:26:36Z</time>
      </trkpt>
      <trkpt lat="49.94987" lon="2.10791">
        <ele>68.2</ele>
        <time>2022-09-14T13:26:37Z</time>
      </trkpt>
      <trkpt lat="49.94987" lon="2.10791">
        <ele>68.2</ele>
        <time>2022-09-14T13:26:38Z</time>
      </trkpt>
      <trkpt lat="49.94987" lon="2.10791">
        <ele>68.2</ele>
        <time>2022-09-14T13:26:39Z</time>
      </trkpt>
      <trkpt lat="49.94987" lon="2.1079">
        <ele>68.2</ele>
        <time>2022-09-14T13:26:40Z</time>
      </trkpt>
      <trkpt lat="49.94987" lon="2.1079">
        <ele>68.2</ele>
        <time>2022-09-14T13:26:41Z</time>
      </trkpt>
      <trkpt lat="49.94986" lon="2.1079">
        <ele>68.2</ele>
        <time>2022-09-14T13:26:42Z</time>
      </trkpt>
      <trkpt lat="49.94986" lon="2.1079">
        <ele>68.2</ele>
        <time>2022-09-14T13:26:43Z</time>
      </trkpt>
      <trkpt lat="49.94986" lon="2.1079">
        <ele>68.2</ele>
        <time>2022-09-14T13:26:44Z</time>
      </trkpt>
      <trkpt lat="49.94986" lon="2.1079">
        <ele>68.2</ele>
        <time>2022-09-14T13:26:45Z</time>
      </trkpt>
      <trkpt lat="49.94986" lon="2.1079">
        <ele>68.2</ele>
        <time>2022-09-14T13:26:46Z</time>
      </trkpt>
      <trkpt lat="49.94986" lon="2.1079">
        <ele>68.2</ele>
        <time>2022-09-14T13:26:47Z</time>
      </trkpt>
      <trkpt lat="49.94986" lon="2.1079">
        <ele>68.2</ele>
        <time>2022-09-14T13:26:48Z</time>
      </trkpt>
      <trkpt lat="49.94986" lon="2.1079">
        <ele>68.2</ele>
        <time>2022-09-14T13:26:49Z</time>
      </trkpt>
      <trkpt lat="49.94986" lon="2.1079">
        <ele>68.2</ele>
        <time>2022-09-14T13:26:50Z</time>
      </trkpt>
      <trkpt lat="49.94986" lon="2.1079">
        <ele>68.2</ele>
        <time>2022-09-14T13:26:51Z</time>
      </trkpt>
      <trkpt lat="49.94986" lon="2.1079">
        <ele>68.2</ele>
        <time>2022-09-14T13:26:52Z</time>
      </trkpt>
      <trkpt lat="49.94986" lon="2.1079">
        <ele>68.2</ele>
        <time>2022-09-14T13:26:53Z</time>
      </trkpt>
      <trkpt lat="49.94986" lon="2.1079">
        <ele>68.2</ele>
        <time>2022-09-14T13:26:54Z</time>
      </trkpt>
      <trkpt lat="49.94986" lon="2.1079">
        <ele>68.2</ele>
        <time>2022-09-14T13:26:55Z</time>
      </trkpt>
      <trkpt lat="49.94986" lon="2.1079">
        <ele>68.2</ele>
        <time>2022-09-14T13:26:56Z</time>
      </trkpt>
      <trkpt lat="49.94986" lon="2.1079">
        <ele>68.2</ele>
        <time>2022-09-14T13:26:57Z</time>
      </trkpt>
      <trkpt lat="49.94986" lon="2.1079">
        <ele>68.2</ele>
        <time>2022-09-14T13:26:58Z</time>
      </trkpt>
      <trkpt lat="49.94986" lon="2.1079">
        <ele>68.2</ele>
        <time>2022-09-14T13:26:59Z</time>
      </trkpt>
      <trkpt lat="49.94986" lon="2.1079">
        <ele>68.2</ele>
        <time>2022-09-14T13:27:00Z</time>
      </trkpt>
      <trkpt lat="49.94986" lon="2.1079">
        <ele>68.2</ele>
        <time>2022-09-14T13:27:01Z</time>
      </trkpt>
      <trkpt lat="49.94986" lon="2.1079">
        <ele>68.2</ele>
        <time>2022-09-14T13:27:02Z</time>
      </trkpt>
      <trkpt lat="49.94986" lon="2.1079">
        <ele>68.2</ele>
        <time>2022-09-14T13:27:03Z</time>
      </trkpt>
      <trkpt lat="49.94986" lon="2.1079">
        <ele>68.2</ele>
        <time>2022-09-14T13:27:04Z</time>
      </trkpt>
      <trkpt lat="49.94986" lon="2.1079">
        <ele>68.2</ele>
        <time>2022-09-14T13:27:05Z</time>
      </trkpt>
      <trkpt lat="49.94986" lon="2.1079">
        <ele>68.2</ele>
        <time>2022-09-14T13:27:06Z</time>
      </trkpt>
      <trkpt lat="49.94986" lon="2.1079">
        <ele>68.2</ele>
        <time>2022-09-14T13:27:07Z</time>
      </trkpt>
      <trkpt lat="49.94986" lon="2.1079">
        <ele>68.2</ele>
        <time>2022-09-14T13:27:08Z</time>
      </trkpt>
      <trkpt lat="49.94986" lon="2.1079">
        <ele>68.2</ele>
        <time>2022-09-14T13:27:09Z</time>
      </trkpt>
      <trkpt lat="49.94986" lon="2.1079">
        <ele>68.2</ele>
        <time>2022-09-14T13:27:10Z</time>
      </trkpt>
      <trkpt lat="49.94986" lon="2.1079">
        <ele>68.2</ele>
        <time>2022-09-14T13:27:11Z</time>
      </trkpt>
      <trkpt lat="49.94986" lon="2.1079">
        <ele>68.2</ele>
        <time>2022-09-14T13:27:12Z</time>
      </trkpt>
      <trkpt lat="49.94986" lon="2.1079">
        <ele>68.2</ele>
        <time>2022-09-14T13:27:13Z</time>
      </trkpt>
      <trkpt lat="49.94986" lon="2.1079">
        <ele>68.2</ele>
        <time>2022-09-14T13:27:14Z</time>
      </trkpt>
      <trkpt lat="49.94986" lon="2.1079">
        <ele>68.2</ele>
        <time>2022-09-14T13:27:15Z</time>
      </trkpt>
      <trkpt lat="49.94986" lon="2.1079">
        <ele>68.2</ele>
        <time>2022-09-14T13:27:16Z</time>
      </trkpt>
      <trkpt lat="49.94986" lon="2.1079">
        <ele>68.2</ele>
        <time>2022-09-14T13:27:17Z</time>
      </trkpt>
      <trkpt lat="49.94986" lon="2.1079">
        <ele>68.2</ele>
        <time>2022-09-14T13:27:18Z</time>
      </trkpt>
      <trkpt lat="49.94986" lon="2.1079">
        <ele>68.2</ele>
        <time>2022-09-14T13:27:19Z</time>
      </trkpt>
      <trkpt lat="49.94986" lon="2.1079">
        <ele>68.2</ele>
        <time>2022-09-14T13:27:20Z</time>
      </trkpt>
      <trkpt lat="49.94986" lon="2.1079">
        <ele>68.2</ele>
        <time>2022-09-14T13:27:21Z</time>
      </trkpt>
      <trkpt lat="49.94986" lon="2.1079">
        <ele>68.2</ele>
        <time>2022-09-14T13:27:22Z</time>
      </trkpt>
      <trkpt lat="49.94986" lon="2.1079">
        <ele>68.2</ele>
        <time>2022-09-14T13:27:23Z</time>
      </trkpt>
      <trkpt lat="49.94986" lon="2.1079">
        <ele>68.2</ele>
        <time>2022-09-14T13:27:24Z</time>
      </trkpt>
      <trkpt lat="49.94986" lon="2.1079">
        <ele>68.2</ele>
        <time>2022-09-14T13:27:25Z</time>
      </trkpt>
      <trkpt lat="49.94986" lon="2.1079">
        <ele>68.2</ele>
        <time>2022-09-14T13:27:26Z</time>
      </trkpt>
      <trkpt lat="49.94986" lon="2.1079">
        <ele>68.2</ele>
        <time>2022-09-14T13:27:27Z</time>
      </trkpt>
      <trkpt lat="49.94986" lon="2.1079">
        <ele>68.2</ele>
        <time>2022-09-14T13:27:28Z</time>
      </trkpt>
      <trkpt lat="49.94986" lon="2.1079">
        <ele>68.2</ele>
        <time>2022-09-14T13:27:29Z</time>
      </trkpt>
      <trkpt lat="49.94986" lon="2.1079">
        <ele>68.2</ele>
        <time>2022-09-14T13:27:30Z</time>
      </trkpt>
      <trkpt lat="49.94986" lon="2.1079">
        <ele>68.2</ele>
        <time>2022-09-14T13:27:31Z</time>
      </trkpt>
      <trkpt lat="49.94986" lon="2.1079">
        <ele>68.2</ele>
        <time>2022-09-14T13:27:32Z</time>
      </trkpt>
      <trkpt lat="49.94986" lon="2.1079">
        <ele>68.2</ele>
        <time>2022-09-14T13:27:33Z</time>
      </trkpt>
      <trkpt lat="49.94986" lon="2.1079">
        <ele>68.2</ele>
        <time>2022-09-14T13:27:34Z</time>
      </trkpt>
      <trkpt lat="49.94986" lon="2.1079">
        <ele>68.2</ele>
        <time>2022-09-14T13:27:35Z</time>
      </trkpt>
      <trkpt lat="49.94986" lon="2.1079">
        <ele>68.2</ele>
        <time>2022-09-14T13:27:36Z</time>
      </trkpt>
      <trkpt lat="49.94986" lon="2.1079">
        <ele>68.2</ele>
        <time>2022-09-14T13:27:37Z</time>
      </trkpt>
      <trkpt lat="49.94986" lon="2.1079">
        <ele>68.2</ele>
        <time>2022-09-14T13:27:38Z</time>
      </trkpt>
      <trkpt lat="49.94986" lon="2.1079">
        <ele>68.2</ele>
        <time>2022-09-14T13:27:39Z</time>
      </trkpt>
      <trkpt lat="49.94986" lon="2.1079">
        <ele>68.2</ele>
        <time>2022-09-14T13:27:40Z</time>
      </trkpt>
      <trkpt lat="49.94986" lon="2.1079">
        <ele>68.2</ele>
        <time>2022-09-14T13:27:41Z</time>
      </trkpt>
      <trkpt lat="49.94986" lon="2.1079">
        <ele>68.2</ele>
        <time>2022-09-14T13:27:42Z</time>
      </trkpt>
      <trkpt lat="49.94986" lon="2.1079">
        <ele>68.2</ele>
        <time>2022-09-14T13:27:43Z</time>
      </trkpt>
      <trkpt lat="49.94986" lon="2.1079">
        <ele>68.2</ele>
        <time>2022-09-14T13:27:44Z</time>
      </trkpt>
      <trkpt lat="49.94986" lon="2.1079">
        <ele>68.2</ele>
        <time>2022-09-14T13:27:45Z</time>
      </trkpt>
      <trkpt lat="49.94986" lon="2.1079">
        <ele>68.2</ele>
        <time>2022-09-14T13:27:46Z</time>
      </trkpt>
      <trkpt lat="49.94986" lon="2.1079">
        <ele>68.2</ele>
        <time>2022-09-14T13:27:47Z</time>
      </trkpt>
      <trkpt lat="49.94986" lon="2.1079">
        <ele>68.2</ele>
        <time>2022-09-14T13:27:48Z</time>
      </trkpt>
      <trkpt lat="49.94986" lon="2.1079">
        <ele>68.2</ele>
        <time>2022-09-14T13:27:49Z</time>
      </trkpt>
      <trkpt lat="49.94986" lon="2.1079">
        <ele>68.2</ele>
        <time>2022-09-14T13:27:50Z</time>
      </trkpt>
      <trkpt lat="49.94986" lon="2.1079">
        <ele>68.2</ele>
        <time>2022-09-14T13:27:51Z</time>
      </trkpt>
      <trkpt lat="49.94986" lon="2.1079">
        <ele>68.2</ele>
        <time>2022-09-14T13:27:52Z</time>
      </trkpt>
      <trkpt lat="49.94986" lon="2.1079">
        <ele>68.2</ele>
        <time>2022-09-14T13:27:53Z</time>
      </trkpt>
      <trkpt lat="49.94986" lon="2.1079">
        <ele>68.2</ele>
        <time>2022-09-14T13:27:54Z</time>
      </trkpt>
      <trkpt lat="49.94986" lon="2.1079">
        <ele>68.2</ele>
        <time>2022-09-14T13:27:55Z</time>
      </trkpt>
      <trkpt lat="49.94986" lon="2.1079">
        <ele>68.2</ele>
        <time>2022-09-14T13:27:56Z</time>
      </trkpt>
      <trkpt lat="49.94986" lon="2.1079">
        <ele>68.2</ele>
        <time>2022-09-14T13:27:57Z</time>
      </trkpt>
      <trkpt lat="49.94986" lon="2.10791">
        <ele>68.2</ele>
        <time>2022-09-14T13:27:58Z</time>
      </trkpt>
      <trkpt lat="49.94986" lon="2.10792">
        <ele>68.2</ele>
        <time>2022-09-14T13:27:59Z</time>
      </trkpt>
      <trkpt lat="49.94987" lon="2.10792">
        <ele>68.2</ele>
        <time>2022-09-14T13:28:00Z</time>
      </trkpt>
      <trkpt lat="49.94987" lon="2.10794">
        <ele>68.1</ele>
        <time>2022-09-14T13:28:01Z</time>
      </trkpt>
      <trkpt lat="49.94988" lon="2.10794">
        <ele>68.1</ele>
        <time>2022-09-14T13:28:02Z</time>
      </trkpt>
      <trkpt lat="49.94989" lon="2.10795">
        <ele>68.1</ele>
        <time>2022-09-14T13:28:03Z</time>
      </trkpt>
      <trkpt lat="49.94989" lon="2.10796">
        <ele>68.1</ele>
        <time>2022-09-14T13:28:04Z</time>
      </trkpt>
      <trkpt lat="49.9499" lon="2.10797">
        <ele>68.1</ele>
        <time>2022-09-14T13:28:06Z</time>
      </trkpt>
      <trkpt lat="49.94991" lon="2.10798">
        <ele>68.1</ele>
        <time>2022-09-14T13:28:07Z</time>
      </trkpt>
      <trkpt lat="49.94992" lon="2.108">
        <ele>68.1</ele>
        <time>2022-09-14T13:28:08Z</time>
      </trkpt>
      <trkpt lat="49.94994" lon="2.10801">
        <ele>68</ele>
        <time>2022-09-14T13:28:09Z</time>
      </trkpt>
      <trkpt lat="49.94995" lon="2.10802">
        <ele>68</ele>
        <time>2022-09-14T13:28:10Z</time>
      </trkpt>
      <trkpt lat="49.94995" lon="2.10803">
        <ele>68</ele>
        <time>2022-09-14T13:28:11Z</time>
      </trkpt>
      <trkpt lat="49.94996" lon="2.10803">
        <ele>68</ele>
        <time>2022-09-14T13:28:12Z</time>
      </trkpt>
      <trkpt lat="49.94997" lon="2.10803">
        <ele>68</ele>
        <time>2022-09-14T13:28:13Z</time>
      </trkpt>
      <trkpt lat="49.94998" lon="2.10803">
        <ele>68</ele>
        <time>2022-09-14T13:28:15Z</time>
      </trkpt>
      <trkpt lat="49.94999" lon="2.10803">
        <ele>67.9</ele>
        <time>2022-09-14T13:28:16Z</time>
      </trkpt>
      <trkpt lat="49.95" lon="2.10803">
        <ele>67.8</ele>
        <time>2022-09-14T13:28:17Z</time>
      </trkpt>
      <trkpt lat="49.95001" lon="2.10804">
        <ele>67.7</ele>
        <time>2022-09-14T13:28:18Z</time>
      </trkpt>
      <trkpt lat="49.95002" lon="2.10804">
        <ele>67.7</ele>
        <time>2022-09-14T13:28:19Z</time>
      </trkpt>
      <trkpt lat="49.95003" lon="2.10804">
        <ele>67.7</ele>
        <time>2022-09-14T13:28:20Z</time>
      </trkpt>
      <trkpt lat="49.95003" lon="2.10805">
        <ele>67.7</ele>
        <time>2022-09-14T13:28:21Z</time>
      </trkpt>
      <trkpt lat="49.95004" lon="2.10805">
        <ele>67.7</ele>
        <time>2022-09-14T13:28:22Z</time>
      </trkpt>
      <trkpt lat="49.95006" lon="2.10806">
        <ele>67.7</ele>
        <time>2022-09-14T13:28:23Z</time>
      </trkpt>
      <trkpt lat="49.95008" lon="2.10807">
        <ele>67.7</ele>
        <time>2022-09-14T13:28:25Z</time>
      </trkpt>
      <trkpt lat="49.95009" lon="2.10808">
        <ele>67.6</ele>
        <time>2022-09-14T13:28:26Z</time>
      </trkpt>
      <trkpt lat="49.9501" lon="2.10809">
        <ele>67.6</ele>
        <time>2022-09-14T13:28:27Z</time>
      </trkpt>
      <trkpt lat="49.95012" lon="2.1081">
        <ele>67.6</ele>
        <time>2022-09-14T13:28:28Z</time>
      </trkpt>
      <trkpt lat="49.95013" lon="2.10811">
        <ele>67.6</ele>
        <time>2022-09-14T13:28:29Z</time>
      </trkpt>
      <trkpt lat="49.95014" lon="2.10811">
        <ele>67.6</ele>
        <time>2022-09-14T13:28:30Z</time>
      </trkpt>
      <trkpt lat="49.95017" lon="2.10812">
        <ele>67.5</ele>
        <time>2022-09-14T13:28:31Z</time>
      </trkpt>
      <trkpt lat="49.95018" lon="2.10813">
        <ele>67.5</ele>
        <time>2022-09-14T13:28:32Z</time>
      </trkpt>
      <trkpt lat="49.95018" lon="2.10813">
        <ele>67.5</ele>
        <time>2022-09-14T13:28:33Z</time>
      </trkpt>
      <trkpt lat="49.9502" lon="2.10814">
        <ele>67.5</ele>
        <time>2022-09-14T13:28:35Z</time>
      </trkpt>
      <trkpt lat="49.95021" lon="2.10815">
        <ele>67.4</ele>
        <time>2022-09-14T13:28:36Z</time>
      </trkpt>
      <trkpt lat="49.95022" lon="2.10816">
        <ele>67.4</ele>
        <time>2022-09-14T13:28:37Z</time>
      </trkpt>
      <trkpt lat="49.95023" lon="2.10817">
        <ele>67.4</ele>
        <time>2022-09-14T13:28:38Z</time>
      </trkpt>
      <trkpt lat="49.95024" lon="2.10818">
        <ele>67.4</ele>
        <time>2022-09-14T13:28:39Z</time>
      </trkpt>
      <trkpt lat="49.95025" lon="2.10819">
        <ele>67.4</ele>
        <time>2022-09-14T13:28:40Z</time>
      </trkpt>
      <trkpt lat="49.95026" lon="2.10819">
        <ele>67.3</ele>
        <time>2022-09-14T13:28:41Z</time>
      </trkpt>
      <trkpt lat="49.95027" lon="2.10819">
        <ele>67.3</ele>
        <time>2022-09-14T13:28:42Z</time>
      </trkpt>
      <trkpt lat="49.95029" lon="2.10821">
        <ele>67.3</ele>
        <time>2022-09-14T13:28:43Z</time>
      </trkpt>
      <trkpt lat="49.95029" lon="2.10822">
        <ele>67.3</ele>
        <time>2022-09-14T13:28:44Z</time>
      </trkpt>
      <trkpt lat="49.9503" lon="2.10823">
        <ele>67.3</ele>
        <time>2022-09-14T13:28:45Z</time>
      </trkpt>
      <trkpt lat="49.95032" lon="2.10824">
        <ele>67.2</ele>
        <time>2022-09-14T13:28:47Z</time>
      </trkpt>
      <trkpt lat="49.95033" lon="2.10825">
        <ele>67.2</ele>
        <time>2022-09-14T13:28:48Z</time>
      </trkpt>
      <trkpt lat="49.95035" lon="2.10827">
        <ele>67.2</ele>
        <time>2022-09-14T13:28:49Z</time>
      </trkpt>
      <trkpt lat="49.95036" lon="2.10827">
        <ele>67.1</ele>
        <time>2022-09-14T13:28:50Z</time>
      </trkpt>
      <trkpt lat="49.95036" lon="2.10828">
        <ele>67.1</ele>
        <time>2022-09-14T13:28:51Z</time>
      </trkpt>
      <trkpt lat="49.95037" lon="2.10829">
        <ele>67.1</ele>
        <time>2022-09-14T13:28:52Z</time>
      </trkpt>
      <trkpt lat="49.95039" lon="2.1083">
        <ele>67.1</ele>
        <time>2022-09-14T13:28:53Z</time>
      </trkpt>
      <trkpt lat="49.9504" lon="2.10831">
        <ele>67.1</ele>
        <time>2022-09-14T13:28:55Z</time>
      </trkpt>
      <trkpt lat="49.95041" lon="2.10832">
        <ele>67</ele>
        <time>2022-09-14T13:28:56Z</time>
      </trkpt>
      <trkpt lat="49.95043" lon="2.10833">
        <ele>67</ele>
        <time>2022-09-14T13:28:58Z</time>
      </trkpt>
      <trkpt lat="49.95045" lon="2.10834">
        <ele>67</ele>
        <time>2022-09-14T13:28:59Z</time>
      </trkpt>
      <trkpt lat="49.95046" lon="2.10834">
        <ele>66.9</ele>
        <time>2022-09-14T13:29:00Z</time>
      </trkpt>
      <trkpt lat="49.95047" lon="2.10835">
        <ele>66.9</ele>
        <time>2022-09-14T13:29:01Z</time>
      </trkpt>
      <trkpt lat="49.95049" lon="2.10836">
        <ele>66.9</ele>
        <time>2022-09-14T13:29:02Z</time>
      </trkpt>
      <trkpt lat="49.95049" lon="2.10837">
        <ele>66.8</ele>
        <time>2022-09-14T13:29:03Z</time>
      </trkpt>
      <trkpt lat="49.9505" lon="2.10837">
        <ele>66.8</ele>
        <time>2022-09-14T13:29:04Z</time>
      </trkpt>
      <trkpt lat="49.95052" lon="2.10839">
        <ele>66.8</ele>
        <time>2022-09-14T13:29:06Z</time>
      </trkpt>
      <trkpt lat="49.95053" lon="2.10839">
        <ele>66.8</ele>
        <time>2022-09-14T13:29:07Z</time>
      </trkpt>
      <trkpt lat="49.95056" lon="2.10841">
        <ele>66.7</ele>
        <time>2022-09-14T13:29:09Z</time>
      </trkpt>
      <trkpt lat="49.95056" lon="2.10842">
        <ele>66.7</ele>
        <time>2022-09-14T13:29:10Z</time>
      </trkpt>
      <trkpt lat="49.95057" lon="2.10842">
        <ele>66.7</ele>
        <time>2022-09-14T13:29:11Z</time>
      </trkpt>
      <trkpt lat="49.95058" lon="2.10843">
        <ele>66.6</ele>
        <time>2022-09-14T13:29:12Z</time>
      </trkpt>
      <trkpt lat="49.95059" lon="2.10844">
        <ele>66.6</ele>
        <time>2022-09-14T13:29:13Z</time>
      </trkpt>
      <trkpt lat="49.95061" lon="2.10844">
        <ele>66.6</ele>
        <time>2022-09-14T13:29:14Z</time>
      </trkpt>
      <trkpt lat="49.95062" lon="2.10845">
        <ele>66.5</ele>
        <time>2022-09-14T13:29:16Z</time>
      </trkpt>
      <trkpt lat="49.95063" lon="2.10846">
        <ele>66.5</ele>
        <time>2022-09-14T13:29:17Z</time>
      </trkpt>
      <trkpt lat="49.95065" lon="2.10847">
        <ele>66.5</ele>
        <time>2022-09-14T13:29:19Z</time>
      </trkpt>
      <trkpt lat="49.95067" lon="2.10848">
        <ele>66.4</ele>
        <time>2022-09-14T13:29:20Z</time>
      </trkpt>
      <trkpt lat="49.95068" lon="2.10849">
        <ele>66.4</ele>
        <time>2022-09-14T13:29:21Z</time>
      </trkpt>
      <trkpt lat="49.95069" lon="2.1085">
        <ele>66.4</ele>
        <time>2022-09-14T13:29:22Z</time>
      </trkpt>
      <trkpt lat="49.9507" lon="2.1085">
        <ele>66.4</ele>
        <time>2022-09-14T13:29:23Z</time>
      </trkpt>
      <trkpt lat="49.95071" lon="2.10851">
        <ele>66.4</ele>
        <time>2022-09-14T13:29:24Z</time>
      </trkpt>
      <trkpt lat="49.95071" lon="2.10852">
        <ele>66.3</ele>
        <time>2022-09-14T13:29:25Z</time>
      </trkpt>
      <trkpt lat="49.95072" lon="2.10853">
        <ele>66.3</ele>
        <time>2022-09-14T13:29:26Z</time>
      </trkpt>
      <trkpt lat="49.95073" lon="2.10854">
        <ele>66.3</ele>
        <time>2022-09-14T13:29:27Z</time>
      </trkpt>
      <trkpt lat="49.95075" lon="2.10855">
        <ele>66.3</ele>
        <time>2022-09-14T13:29:28Z</time>
      </trkpt>
      <trkpt lat="49.95076" lon="2.10856">
        <ele>66.2</ele>
        <time>2022-09-14T13:29:30Z</time>
      </trkpt>
      <trkpt lat="49.95077" lon="2.10857">
        <ele>66.2</ele>
        <time>2022-09-14T13:29:31Z</time>
      </trkpt>
      <trkpt lat="49.95077" lon="2.10858">
        <ele>66.2</ele>
        <time>2022-09-14T13:29:32Z</time>
      </trkpt>
      <trkpt lat="49.95078" lon="2.10859">
        <ele>66.2</ele>
        <time>2022-09-14T13:29:33Z</time>
      </trkpt>
      <trkpt lat="49.9508" lon="2.10861">
        <ele>66.1</ele>
        <time>2022-09-14T13:29:34Z</time>
      </trkpt>
      <trkpt lat="49.95081" lon="2.10861">
        <ele>66.1</ele>
        <time>2022-09-14T13:29:35Z</time>
      </trkpt>
      <trkpt lat="49.95082" lon="2.10862">
        <ele>66.1</ele>
        <time>2022-09-14T13:29:36Z</time>
      </trkpt>
      <trkpt lat="49.95084" lon="2.10864">
        <ele>66.1</ele>
        <time>2022-09-14T13:29:37Z</time>
      </trkpt>
      <trkpt lat="49.95084" lon="2.10864">
        <ele>66</ele>
        <time>2022-09-14T13:29:38Z</time>
      </trkpt>
      <trkpt lat="49.95085" lon="2.10865">
        <ele>66</ele>
        <time>2022-09-14T13:29:39Z</time>
      </trkpt>
      <trkpt lat="49.95087" lon="2.10866">
        <ele>66</ele>
        <time>2022-09-14T13:29:41Z</time>
      </trkpt>
      <trkpt lat="49.95088" lon="2.10867">
        <ele>66</ele>
        <time>2022-09-14T13:29:42Z</time>
      </trkpt>
      <trkpt lat="49.95089" lon="2.10868">
        <ele>65.9</ele>
        <time>2022-09-14T13:29:43Z</time>
      </trkpt>
      <trkpt lat="49.9509" lon="2.10869">
        <ele>65.9</ele>
        <time>2022-09-14T13:29:44Z</time>
      </trkpt>
      <trkpt lat="49.95091" lon="2.1087">
        <ele>65.9</ele>
        <time>2022-09-14T13:29:45Z</time>
      </trkpt>
      <trkpt lat="49.95092" lon="2.1087">
        <ele>65.9</ele>
        <time>2022-09-14T13:29:46Z</time>
      </trkpt>
      <trkpt lat="49.95093" lon="2.10871">
        <ele>65.8</ele>
        <time>2022-09-14T13:29:47Z</time>
      </trkpt>
      <trkpt lat="49.95094" lon="2.10872">
        <ele>65.8</ele>
        <time>2022-09-14T13:29:48Z</time>
      </trkpt>
      <trkpt lat="49.95096" lon="2.10874">
        <ele>65.8</ele>
        <time>2022-09-14T13:29:49Z</time>
      </trkpt>
      <trkpt lat="49.95097" lon="2.10874">
        <ele>65.8</ele>
        <time>2022-09-14T13:29:50Z</time>
      </trkpt>
      <trkpt lat="49.95098" lon="2.10875">
        <ele>65.7</ele>
        <time>2022-09-14T13:29:51Z</time>
      </trkpt>
      <trkpt lat="49.951" lon="2.10877">
        <ele>65.7</ele>
        <time>2022-09-14T13:29:53Z</time>
      </trkpt>
      <trkpt lat="49.95101" lon="2.10877">
        <ele>65.7</ele>
        <time>2022-09-14T13:29:54Z</time>
      </trkpt>
      <trkpt lat="49.95101" lon="2.10878">
        <ele>65.7</ele>
        <time>2022-09-14T13:29:55Z</time>
      </trkpt>
      <trkpt lat="49.95102" lon="2.10879">
        <ele>65.6</ele>
        <time>2022-09-14T13:29:56Z</time>
      </trkpt>
      <trkpt lat="49.95104" lon="2.1088">
        <ele>65.6</ele>
        <time>2022-09-14T13:29:57Z</time>
      </trkpt>
      <trkpt lat="49.95106" lon="2.10882">
        <ele>65.6</ele>
        <time>2022-09-14T13:29:59Z</time>
      </trkpt>
      <trkpt lat="49.95107" lon="2.10883">
        <ele>65.5</ele>
        <time>2022-09-14T13:30:00Z</time>
      </trkpt>
      <trkpt lat="49.95108" lon="2.10884">
        <ele>65.5</ele>
        <time>2022-09-14T13:30:01Z</time>
      </trkpt>
      <trkpt lat="49.95109" lon="2.10885">
        <ele>65.5</ele>
        <time>2022-09-14T13:30:02Z</time>
      </trkpt>
      <trkpt lat="49.9511" lon="2.10886">
        <ele>65.4</ele>
        <time>2022-09-14T13:30:03Z</time>
      </trkpt>
      <trkpt lat="49.95112" lon="2.10888">
        <ele>65.4</ele>
        <time>2022-09-14T13:30:04Z</time>
      </trkpt>
      <trkpt lat="49.95113" lon="2.10888">
        <ele>65.4</ele>
        <time>2022-09-14T13:30:05Z</time>
      </trkpt>
      <trkpt lat="49.95115" lon="2.1089">
        <ele>65.3</ele>
        <time>2022-09-14T13:30:07Z</time>
      </trkpt>
      <trkpt lat="49.95115" lon="2.10891">
        <ele>65.3</ele>
        <time>2022-09-14T13:30:08Z</time>
      </trkpt>
      <trkpt lat="49.95116" lon="2.10892">
        <ele>65.3</ele>
        <time>2022-09-14T13:30:09Z</time>
      </trkpt>
      <trkpt lat="49.95118" lon="2.10893">
        <ele>65.2</ele>
        <time>2022-09-14T13:30:10Z</time>
      </trkpt>
      <trkpt lat="49.95119" lon="2.10894">
        <ele>65.2</ele>
        <time>2022-09-14T13:30:11Z</time>
      </trkpt>
      <trkpt lat="49.95119" lon="2.10894">
        <ele>65.2</ele>
        <time>2022-09-14T13:30:12Z</time>
      </trkpt>
      <trkpt lat="49.9512" lon="2.10895">
        <ele>65.1</ele>
        <time>2022-09-14T13:30:13Z</time>
      </trkpt>
      <trkpt lat="49.95121" lon="2.10896">
        <ele>65.1</ele>
        <time>2022-09-14T13:30:14Z</time>
      </trkpt>
      <trkpt lat="49.95122" lon="2.10897">
        <ele>65.1</ele>
        <time>2022-09-14T13:30:15Z</time>
      </trkpt>
      <trkpt lat="49.95123" lon="2.10898">
        <ele>65.1</ele>
        <time>2022-09-14T13:30:16Z</time>
      </trkpt>
      <trkpt lat="49.95124" lon="2.10899">
        <ele>65</ele>
        <time>2022-09-14T13:30:17Z</time>
      </trkpt>
      <trkpt lat="49.95126" lon="2.109">
        <ele>65</ele>
        <time>2022-09-14T13:30:19Z</time>
      </trkpt>
      <trkpt lat="49.95127" lon="2.10901">
        <ele>65</ele>
        <time>2022-09-14T13:30:20Z</time>
      </trkpt>
      <trkpt lat="49.95128" lon="2.10902">
        <ele>64.9</ele>
        <time>2022-09-14T13:30:21Z</time>
      </trkpt>
      <trkpt lat="49.9513" lon="2.10904">
        <ele>64.9</ele>
        <time>2022-09-14T13:30:23Z</time>
      </trkpt>
      <trkpt lat="49.95132" lon="2.10906">
        <ele>64.9</ele>
        <time>2022-09-14T13:30:24Z</time>
      </trkpt>
      <trkpt lat="49.95133" lon="2.10907">
        <ele>64.9</ele>
        <time>2022-09-14T13:30:25Z</time>
      </trkpt>
      <trkpt lat="49.95133" lon="2.10908">
        <ele>64.9</ele>
        <time>2022-09-14T13:30:26Z</time>
      </trkpt>
      <trkpt lat="49.95134" lon="2.10908">
        <ele>64.8</ele>
        <time>2022-09-14T13:30:27Z</time>
      </trkpt>
      <trkpt lat="49.95136" lon="2.1091">
        <ele>64.8</ele>
        <time>2022-09-14T13:30:28Z</time>
      </trkpt>
      <trkpt lat="49.95138" lon="2.10912">
        <ele>64.8</ele>
        <time>2022-09-14T13:30:30Z</time>
      </trkpt>
      <trkpt lat="49.95139" lon="2.10913">
        <ele>64.8</ele>
        <time>2022-09-14T13:30:31Z</time>
      </trkpt>
      <trkpt lat="49.95139" lon="2.10913">
        <ele>64.8</ele>
        <time>2022-09-14T13:30:32Z</time>
      </trkpt>
      <trkpt lat="49.9514" lon="2.10914">
        <ele>64.8</ele>
        <time>2022-09-14T13:30:33Z</time>
      </trkpt>
      <trkpt lat="49.95141" lon="2.10915">
        <ele>64.8</ele>
        <time>2022-09-14T13:30:34Z</time>
      </trkpt>
      <trkpt lat="49.95142" lon="2.10916">
        <ele>64.7</ele>
        <time>2022-09-14T13:30:35Z</time>
      </trkpt>
      <trkpt lat="49.95144" lon="2.10918">
        <ele>64.7</ele>
        <time>2022-09-14T13:30:36Z</time>
      </trkpt>
      <trkpt lat="49.95145" lon="2.10919">
        <ele>64.7</ele>
        <time>2022-09-14T13:30:37Z</time>
      </trkpt>
      <trkpt lat="49.95146" lon="2.10919">
        <ele>64.7</ele>
        <time>2022-09-14T13:30:38Z</time>
      </trkpt>
      <trkpt lat="49.95147" lon="2.10921">
        <ele>64.7</ele>
        <time>2022-09-14T13:30:39Z</time>
      </trkpt>
      <trkpt lat="49.95148" lon="2.10922">
        <ele>64.7</ele>
        <time>2022-09-14T13:30:40Z</time>
      </trkpt>
      <trkpt lat="49.9515" lon="2.10924">
        <ele>64.7</ele>
        <time>2022-09-14T13:30:41Z</time>
      </trkpt>
      <trkpt lat="49.95151" lon="2.10925">
        <ele>64.6</ele>
        <time>2022-09-14T13:30:43Z</time>
      </trkpt>
      <trkpt lat="49.95152" lon="2.10925">
        <ele>64.6</ele>
        <time>2022-09-14T13:30:44Z</time>
      </trkpt>
      <trkpt lat="49.95153" lon="2.10926">
        <ele>64.6</ele>
        <time>2022-09-14T13:30:45Z</time>
      </trkpt>
      <trkpt lat="49.95154" lon="2.10928">
        <ele>64.6</ele>
        <time>2022-09-14T13:30:46Z</time>
      </trkpt>
      <trkpt lat="49.95155" lon="2.10929">
        <ele>64.6</ele>
        <time>2022-09-14T13:30:47Z</time>
      </trkpt>
      <trkpt lat="49.95156" lon="2.10929">
        <ele>64.6</ele>
        <time>2022-09-14T13:30:48Z</time>
      </trkpt>
      <trkpt lat="49.95157" lon="2.1093">
        <ele>64.6</ele>
        <time>2022-09-14T13:30:49Z</time>
      </trkpt>
      <trkpt lat="49.95158" lon="2.10932">
        <ele>64.6</ele>
        <time>2022-09-14T13:30:50Z</time>
      </trkpt>
      <trkpt lat="49.95159" lon="2.10933">
        <ele>64.6</ele>
        <time>2022-09-14T13:30:51Z</time>
      </trkpt>
      <trkpt lat="49.9516" lon="2.10935">
        <ele>64.6</ele>
        <time>2022-09-14T13:30:52Z</time>
      </trkpt>
      <trkpt lat="49.95161" lon="2.10936">
        <ele>64.6</ele>
        <time>2022-09-14T13:30:53Z</time>
      </trkpt>
      <trkpt lat="49.95162" lon="2.10937">
        <ele>64.6</ele>
        <time>2022-09-14T13:30:55Z</time>
      </trkpt>
      <trkpt lat="49.95163" lon="2.10937">
        <ele>64.6</ele>
        <time>2022-09-14T13:30:56Z</time>
      </trkpt>
      <trkpt lat="49.95165" lon="2.10939">
        <ele>64.6</ele>
        <time>2022-09-14T13:30:57Z</time>
      </trkpt>
      <trkpt lat="49.95166" lon="2.10939">
        <ele>64.6</ele>
        <time>2022-09-14T13:30:58Z</time>
      </trkpt>
      <trkpt lat="49.95166" lon="2.1094">
        <ele>64.6</ele>
        <time>2022-09-14T13:30:59Z</time>
      </trkpt>
      <trkpt lat="49.95168" lon="2.10941">
        <ele>64.7</ele>
        <time>2022-09-14T13:31:00Z</time>
      </trkpt>
      <trkpt lat="49.95169" lon="2.10943">
        <ele>64.7</ele>
        <time>2022-09-14T13:31:02Z</time>
      </trkpt>
      <trkpt lat="49.9517" lon="2.10944">
        <ele>64.7</ele>
        <time>2022-09-14T13:31:03Z</time>
      </trkpt>
      <trkpt lat="49.95171" lon="2.10945">
        <ele>64.7</ele>
        <time>2022-09-14T13:31:04Z</time>
      </trkpt>
      <trkpt lat="49.95173" lon="2.10946">
        <ele>64.7</ele>
        <time>2022-09-14T13:31:05Z</time>
      </trkpt>
      <trkpt lat="49.95174" lon="2.10947">
        <ele>64.8</ele>
        <time>2022-09-14T13:31:07Z</time>
      </trkpt>
      <trkpt lat="49.95175" lon="2.10948">
        <ele>64.8</ele>
        <time>2022-09-14T13:31:08Z</time>
      </trkpt>
      <trkpt lat="49.95177" lon="2.10949">
        <ele>64.8</ele>
        <time>2022-09-14T13:31:09Z</time>
      </trkpt>
      <trkpt lat="49.95177" lon="2.10949">
        <ele>64.9</ele>
        <time>2022-09-14T13:31:10Z</time>
      </trkpt>
      <trkpt lat="49.95179" lon="2.10951">
        <ele>64.9</ele>
        <time>2022-09-14T13:31:11Z</time>
      </trkpt>
      <trkpt lat="49.9518" lon="2.10951">
        <ele>64.9</ele>
        <time>2022-09-14T13:31:12Z</time>
      </trkpt>
      <trkpt lat="49.95181" lon="2.10952">
        <ele>65</ele>
        <time>2022-09-14T13:31:13Z</time>
      </trkpt>
      <trkpt lat="49.95182" lon="2.10952">
        <ele>65</ele>
        <time>2022-09-14T13:31:14Z</time>
      </trkpt>
      <trkpt lat="49.95183" lon="2.10953">
        <ele>65.1</ele>
        <time>2022-09-14T13:31:15Z</time>
      </trkpt>
      <trkpt lat="49.95184" lon="2.10954">
        <ele>65.1</ele>
        <time>2022-09-14T13:31:16Z</time>
      </trkpt>
      <trkpt lat="49.95185" lon="2.10956">
        <ele>65.2</ele>
        <time>2022-09-14T13:31:18Z</time>
      </trkpt>
      <trkpt lat="49.95187" lon="2.10957">
        <ele>65.2</ele>
        <time>2022-09-14T13:31:19Z</time>
      </trkpt>
      <trkpt lat="49.95187" lon="2.10957">
        <ele>65.3</ele>
        <time>2022-09-14T13:31:20Z</time>
      </trkpt>
      <trkpt lat="49.95189" lon="2.10959">
        <ele>65.4</ele>
        <time>2022-09-14T13:31:22Z</time>
      </trkpt>
      <trkpt lat="49.95191" lon="2.10961">
        <ele>65.5</ele>
        <time>2022-09-14T13:31:24Z</time>
      </trkpt>
      <trkpt lat="49.95192" lon="2.10962">
        <ele>65.5</ele>
        <time>2022-09-14T13:31:25Z</time>
      </trkpt>
      <trkpt lat="49.95194" lon="2.10964">
        <ele>65.5</ele>
        <time>2022-09-14T13:31:26Z</time>
      </trkpt>
      <trkpt lat="49.95195" lon="2.10965">
        <ele>65.5</ele>
        <time>2022-09-14T13:31:27Z</time>
      </trkpt>
      <trkpt lat="49.95196" lon="2.10966">
        <ele>65.4</ele>
        <time>2022-09-14T13:31:29Z</time>
      </trkpt>
      <trkpt lat="49.95197" lon="2.10968">
        <ele>65.3</ele>
        <time>2022-09-14T13:31:30Z</time>
      </trkpt>
      <trkpt lat="49.95198" lon="2.10971">
        <ele>65.2</ele>
        <time>2022-09-14T13:31:31Z</time>
      </trkpt>
      <trkpt lat="49.95198" lon="2.10972">
        <ele>65.1</ele>
        <time>2022-09-14T13:31:32Z</time>
      </trkpt>
      <trkpt lat="49.95198" lon="2.10974">
        <ele>65.1</ele>
        <time>2022-09-14T13:31:33Z</time>
      </trkpt>
      <trkpt lat="49.95198" lon="2.10976">
        <ele>65</ele>
        <time>2022-09-14T13:31:34Z</time>
      </trkpt>
      <trkpt lat="49.95199" lon="2.10979">
        <ele>64.9</ele>
        <time>2022-09-14T13:31:35Z</time>
      </trkpt>
      <trkpt lat="49.95199" lon="2.10984">
        <ele>64.7</ele>
        <time>2022-09-14T13:31:37Z</time>
      </trkpt>
      <trkpt lat="49.95199" lon="2.10986">
        <ele>64.7</ele>
        <time>2022-09-14T13:31:38Z</time>
      </trkpt>
      <trkpt lat="49.95199" lon="2.1099">
        <ele>64.6</ele>
        <time>2022-09-14T13:31:39Z</time>
      </trkpt>
      <trkpt lat="49.95199" lon="2.10991">
        <ele>64.5</ele>
        <time>2022-09-14T13:31:40Z</time>
      </trkpt>
      <trkpt lat="49.95199" lon="2.10996">
        <ele>64.4</ele>
        <time>2022-09-14T13:31:41Z</time>
      </trkpt>
      <trkpt lat="49.95199" lon="2.10999">
        <ele>64.3</ele>
        <time>2022-09-14T13:31:43Z</time>
      </trkpt>
      <trkpt lat="49.95199" lon="2.11001">
        <ele>64.2</ele>
        <time>2022-09-14T13:31:44Z</time>
      </trkpt>
      <trkpt lat="49.95199" lon="2.11005">
        <ele>64.1</ele>
        <time>2022-09-14T13:31:45Z</time>
      </trkpt>
      <trkpt lat="49.95199" lon="2.11008">
        <ele>64</ele>
        <time>2022-09-14T13:31:47Z</time>
      </trkpt>
      <trkpt lat="49.95198" lon="2.1101">
        <ele>63.9</ele>
        <time>2022-09-14T13:31:48Z</time>
      </trkpt>
      <trkpt lat="49.95198" lon="2.11012">
        <ele>63.9</ele>
        <time>2022-09-14T13:31:49Z</time>
      </trkpt>
      <trkpt lat="49.95198" lon="2.11014">
        <ele>63.8</ele>
        <time>2022-09-14T13:31:50Z</time>
      </trkpt>
      <trkpt lat="49.95198" lon="2.11016">
        <ele>63.8</ele>
        <time>2022-09-14T13:31:51Z</time>
      </trkpt>
      <trkpt lat="49.95198" lon="2.11017">
        <ele>63.7</ele>
        <time>2022-09-14T13:31:52Z</time>
      </trkpt>
      <trkpt lat="49.95198" lon="2.1102">
        <ele>63.6</ele>
        <time>2022-09-14T13:31:53Z</time>
      </trkpt>
      <trkpt lat="49.95198" lon="2.11021">
        <ele>63.6</ele>
        <time>2022-09-14T13:31:54Z</time>
      </trkpt>
      <trkpt lat="49.95198" lon="2.11023">
        <ele>63.6</ele>
        <time>2022-09-14T13:31:55Z</time>
      </trkpt>
      <trkpt lat="49.95198" lon="2.11026">
        <ele>63.5</ele>
        <time>2022-09-14T13:31:57Z</time>
      </trkpt>
      <trkpt lat="49.95198" lon="2.11027">
        <ele>63.4</ele>
        <time>2022-09-14T13:31:58Z</time>
      </trkpt>
      <trkpt lat="49.95198" lon="2.11029">
        <ele>63.4</ele>
        <time>2022-09-14T13:31:59Z</time>
      </trkpt>
      <trkpt lat="49.95198" lon="2.11031">
        <ele>63.3</ele>
        <time>2022-09-14T13:32:00Z</time>
      </trkpt>
      <trkpt lat="49.95198" lon="2.11033">
        <ele>63.3</ele>
        <time>2022-09-14T13:32:01Z</time>
      </trkpt>
      <trkpt lat="49.95198" lon="2.11035">
        <ele>63.2</ele>
        <time>2022-09-14T13:32:02Z</time>
      </trkpt>
      <trkpt lat="49.95198" lon="2.11036">
        <ele>63.2</ele>
        <time>2022-09-14T13:32:03Z</time>
      </trkpt>
      <trkpt lat="49.95198" lon="2.11037">
        <ele>63.1</ele>
        <time>2022-09-14T13:32:04Z</time>
      </trkpt>
      <trkpt lat="49.95198" lon="2.11038">
        <ele>63.1</ele>
        <time>2022-09-14T13:32:05Z</time>
      </trkpt>
      <trkpt lat="49.95198" lon="2.11041">
        <ele>63</ele>
        <time>2022-09-14T13:32:06Z</time>
      </trkpt>
      <trkpt lat="49.95198" lon="2.11043">
        <ele>62.9</ele>
        <time>2022-09-14T13:32:07Z</time>
      </trkpt>
      <trkpt lat="49.95199" lon="2.11046">
        <ele>62.8</ele>
        <time>2022-09-14T13:32:08Z</time>
      </trkpt>
      <trkpt lat="49.95199" lon="2.11048">
        <ele>62.7</ele>
        <time>2022-09-14T13:32:10Z</time>
      </trkpt>
      <trkpt lat="49.95199" lon="2.11049">
        <ele>62.7</ele>
        <time>2022-09-14T13:32:11Z</time>
      </trkpt>
      <trkpt lat="49.95199" lon="2.11051">
        <ele>62.6</ele>
        <time>2022-09-14T13:32:12Z</time>
      </trkpt>
      <trkpt lat="49.95199" lon="2.11053">
        <ele>62.5</ele>
        <time>2022-09-14T13:32:13Z</time>
      </trkpt>
      <trkpt lat="49.95199" lon="2.11055">
        <ele>62.5</ele>
        <time>2022-09-14T13:32:14Z</time>
      </trkpt>
      <trkpt lat="49.95199" lon="2.11057">
        <ele>62.4</ele>
        <time>2022-09-14T13:32:15Z</time>
      </trkpt>
      <trkpt lat="49.952" lon="2.11061">
        <ele>62.2</ele>
        <time>2022-09-14T13:32:16Z</time>
      </trkpt>
      <trkpt lat="49.952" lon="2.11062">
        <ele>62.1</ele>
        <time>2022-09-14T13:32:17Z</time>
      </trkpt>
      <trkpt lat="49.952" lon="2.11064">
        <ele>62.1</ele>
        <time>2022-09-14T13:32:18Z</time>
      </trkpt>
      <trkpt lat="49.952" lon="2.11067">
        <ele>61.9</ele>
        <time>2022-09-14T13:32:20Z</time>
      </trkpt>
      <trkpt lat="49.952" lon="2.11069">
        <ele>61.8</ele>
        <time>2022-09-14T13:32:21Z</time>
      </trkpt>
      <trkpt lat="49.952" lon="2.1107">
        <ele>61.8</ele>
        <time>2022-09-14T13:32:22Z</time>
      </trkpt>
      <trkpt lat="49.952" lon="2.11073">
        <ele>61.7</ele>
        <time>2022-09-14T13:32:23Z</time>
      </trkpt>
      <trkpt lat="49.952" lon="2.11075">
        <ele>61.6</ele>
        <time>2022-09-14T13:32:24Z</time>
      </trkpt>
      <trkpt lat="49.952" lon="2.11077">
        <ele>61.5</ele>
        <time>2022-09-14T13:32:25Z</time>
      </trkpt>
      <trkpt lat="49.952" lon="2.11079">
        <ele>61.4</ele>
        <time>2022-09-14T13:32:26Z</time>
      </trkpt>
      <trkpt lat="49.952" lon="2.1108">
        <ele>61.4</ele>
        <time>2022-09-14T13:32:27Z</time>
      </trkpt>
      <trkpt lat="49.95201" lon="2.11082">
        <ele>61.3</ele>
        <time>2022-09-14T13:32:28Z</time>
      </trkpt>
      <trkpt lat="49.95201" lon="2.11084">
        <ele>61.2</ele>
        <time>2022-09-14T13:32:29Z</time>
      </trkpt>
      <trkpt lat="49.95201" lon="2.11085">
        <ele>61.2</ele>
        <time>2022-09-14T13:32:30Z</time>
      </trkpt>
      <trkpt lat="49.95201" lon="2.11087">
        <ele>61.1</ele>
        <time>2022-09-14T13:32:31Z</time>
      </trkpt>
      <trkpt lat="49.95201" lon="2.11089">
        <ele>61.1</ele>
        <time>2022-09-14T13:32:32Z</time>
      </trkpt>
      <trkpt lat="49.95201" lon="2.11092">
        <ele>61</ele>
        <time>2022-09-14T13:32:34Z</time>
      </trkpt>
      <trkpt lat="49.95201" lon="2.11095">
        <ele>60.9</ele>
        <time>2022-09-14T13:32:35Z</time>
      </trkpt>
      <trkpt lat="49.95201" lon="2.11097">
        <ele>60.8</ele>
        <time>2022-09-14T13:32:36Z</time>
      </trkpt>
      <trkpt lat="49.95201" lon="2.111">
        <ele>60.7</ele>
        <time>2022-09-14T13:32:37Z</time>
      </trkpt>
      <trkpt lat="49.95201" lon="2.11105">
        <ele>60.6</ele>
        <time>2022-09-14T13:32:39Z</time>
      </trkpt>
      <trkpt lat="49.95202" lon="2.11107">
        <ele>60.5</ele>
        <time>2022-09-14T13:32:40Z</time>
      </trkpt>
      <trkpt lat="49.95202" lon="2.11109">
        <ele>60.5</ele>
        <time>2022-09-14T13:32:41Z</time>
      </trkpt>
      <trkpt lat="49.95202" lon="2.11111">
        <ele>60.4</ele>
        <time>2022-09-14T13:32:42Z</time>
      </trkpt>
      <trkpt lat="49.95202" lon="2.11113">
        <ele>60.4</ele>
        <time>2022-09-14T13:32:43Z</time>
      </trkpt>
      <trkpt lat="49.95203" lon="2.11115">
        <ele>60.3</ele>
        <time>2022-09-14T13:32:44Z</time>
      </trkpt>
      <trkpt lat="49.95203" lon="2.11118">
        <ele>60.2</ele>
        <time>2022-09-14T13:32:45Z</time>
      </trkpt>
      <trkpt lat="49.95203" lon="2.11121">
        <ele>60.2</ele>
        <time>2022-09-14T13:32:47Z</time>
      </trkpt>
      <trkpt lat="49.95204" lon="2.11123">
        <ele>60.1</ele>
        <time>2022-09-14T13:32:48Z</time>
      </trkpt>
      <trkpt lat="49.95204" lon="2.11125">
        <ele>60.1</ele>
        <time>2022-09-14T13:32:49Z</time>
      </trkpt>
      <trkpt lat="49.95205" lon="2.11127">
        <ele>60</ele>
        <time>2022-09-14T13:32:50Z</time>
      </trkpt>
      <trkpt lat="49.95205" lon="2.11128">
        <ele>60</ele>
        <time>2022-09-14T13:32:51Z</time>
      </trkpt>
      <trkpt lat="49.95206" lon="2.11131">
        <ele>59.9</ele>
        <time>2022-09-14T13:32:53Z</time>
      </trkpt>
      <trkpt lat="49.95206" lon="2.11133">
        <ele>59.8</ele>
        <time>2022-09-14T13:32:54Z</time>
      </trkpt>
      <trkpt lat="49.95206" lon="2.11136">
        <ele>59.8</ele>
        <time>2022-09-14T13:32:55Z</time>
      </trkpt>
      <trkpt lat="49.95206" lon="2.11137">
        <ele>59.7</ele>
        <time>2022-09-14T13:32:57Z</time>
      </trkpt>
      <trkpt lat="49.95207" lon="2.11139">
        <ele>59.7</ele>
        <time>2022-09-14T13:32:58Z</time>
      </trkpt>
      <trkpt lat="49.95207" lon="2.11141">
        <ele>59.6</ele>
        <time>2022-09-14T13:32:59Z</time>
      </trkpt>
      <trkpt lat="49.95208" lon="2.11142">
        <ele>59.6</ele>
        <time>2022-09-14T13:33:00Z</time>
      </trkpt>
      <trkpt lat="49.95208" lon="2.11143">
        <ele>59.6</ele>
        <time>2022-09-14T13:33:02Z</time>
      </trkpt>
      <trkpt lat="49.95209" lon="2.11143">
        <ele>59.5</ele>
        <time>2022-09-14T13:33:03Z</time>
      </trkpt>
      <trkpt lat="49.95209" lon="2.11144">
        <ele>59.5</ele>
        <time>2022-09-14T13:33:04Z</time>
      </trkpt>
      <trkpt lat="49.9521" lon="2.11145">
        <ele>59.5</ele>
        <time>2022-09-14T13:33:05Z</time>
      </trkpt>
      <trkpt lat="49.9521" lon="2.11147">
        <ele>59.4</ele>
        <time>2022-09-14T13:33:06Z</time>
      </trkpt>
      <trkpt lat="49.95211" lon="2.11149">
        <ele>59.4</ele>
        <time>2022-09-14T13:33:07Z</time>
      </trkpt>
      <trkpt lat="49.95212" lon="2.11153">
        <ele>59.3</ele>
        <time>2022-09-14T13:33:08Z</time>
      </trkpt>
      <trkpt lat="49.95213" lon="2.11154">
        <ele>59.2</ele>
        <time>2022-09-14T13:33:10Z</time>
      </trkpt>
      <trkpt lat="49.95214" lon="2.11156">
        <ele>59.2</ele>
        <time>2022-09-14T13:33:11Z</time>
      </trkpt>
      <trkpt lat="49.95214" lon="2.11157">
        <ele>59.2</ele>
        <time>2022-09-14T13:33:12Z</time>
      </trkpt>
      <trkpt lat="49.95215" lon="2.11158">
        <ele>59.1</ele>
        <time>2022-09-14T13:33:13Z</time>
      </trkpt>
      <trkpt lat="49.95216" lon="2.11161">
        <ele>59.1</ele>
        <time>2022-09-14T13:33:14Z</time>
      </trkpt>
      <trkpt lat="49.95217" lon="2.11162">
        <ele>59</ele>
        <time>2022-09-14T13:33:15Z</time>
      </trkpt>
      <trkpt lat="49.95217" lon="2.11164">
        <ele>59</ele>
        <time>2022-09-14T13:33:16Z</time>
      </trkpt>
      <trkpt lat="49.95218" lon="2.11167">
        <ele>58.9</ele>
        <time>2022-09-14T13:33:17Z</time>
      </trkpt>
      <trkpt lat="49.95219" lon="2.11168">
        <ele>58.9</ele>
        <time>2022-09-14T13:33:18Z</time>
      </trkpt>
      <trkpt lat="49.9522" lon="2.11171">
        <ele>58.8</ele>
        <time>2022-09-14T13:33:19Z</time>
      </trkpt>
      <trkpt lat="49.95222" lon="2.11174">
        <ele>58.7</ele>
        <time>2022-09-14T13:33:20Z</time>
      </trkpt>
      <trkpt lat="49.95223" lon="2.11176">
        <ele>58.7</ele>
        <time>2022-09-14T13:33:22Z</time>
      </trkpt>
      <trkpt lat="49.95223" lon="2.11177">
        <ele>58.7</ele>
        <time>2022-09-14T13:33:23Z</time>
      </trkpt>
      <trkpt lat="49.95224" lon="2.11179">
        <ele>58.6</ele>
        <time>2022-09-14T13:33:24Z</time>
      </trkpt>
      <trkpt lat="49.95227" lon="2.11183">
        <ele>58.5</ele>
        <time>2022-09-14T13:33:26Z</time>
      </trkpt>
      <trkpt lat="49.95227" lon="2.11185">
        <ele>58.5</ele>
        <time>2022-09-14T13:33:27Z</time>
      </trkpt>
      <trkpt lat="49.95228" lon="2.11187">
        <ele>58.4</ele>
        <time>2022-09-14T13:33:29Z</time>
      </trkpt>
      <trkpt lat="49.95229" lon="2.11188">
        <ele>58.4</ele>
        <time>2022-09-14T13:33:30Z</time>
      </trkpt>
      <trkpt lat="49.9523" lon="2.1119">
        <ele>58.3</ele>
        <time>2022-09-14T13:33:31Z</time>
      </trkpt>
      <trkpt lat="49.95232" lon="2.11192">
        <ele>58.3</ele>
        <time>2022-09-14T13:33:33Z</time>
      </trkpt>
      <trkpt lat="49.95232" lon="2.11194">
        <ele>58.3</ele>
        <time>2022-09-14T13:33:34Z</time>
      </trkpt>
      <trkpt lat="49.95233" lon="2.11195">
        <ele>58.2</ele>
        <time>2022-09-14T13:33:35Z</time>
      </trkpt>
      <trkpt lat="49.95234" lon="2.11196">
        <ele>58.2</ele>
        <time>2022-09-14T13:33:36Z</time>
      </trkpt>
      <trkpt lat="49.95236" lon="2.112">
        <ele>58.1</ele>
        <time>2022-09-14T13:33:38Z</time>
      </trkpt>
      <trkpt lat="49.95236" lon="2.11201">
        <ele>58.1</ele>
        <time>2022-09-14T13:33:39Z</time>
      </trkpt>
      <trkpt lat="49.95237" lon="2.11203">
        <ele>58</ele>
        <time>2022-09-14T13:33:40Z</time>
      </trkpt>
      <trkpt lat="49.95238" lon="2.11205">
        <ele>58</ele>
        <time>2022-09-14T13:33:41Z</time>
      </trkpt>
      <trkpt lat="49.95239" lon="2.11206">
        <ele>58</ele>
        <time>2022-09-14T13:33:42Z</time>
      </trkpt>
      <trkpt lat="49.9524" lon="2.11208">
        <ele>57.9</ele>
        <time>2022-09-14T13:33:44Z</time>
      </trkpt>
      <trkpt lat="49.95241" lon="2.1121">
        <ele>57.9</ele>
        <time>2022-09-14T13:33:45Z</time>
      </trkpt>
      <trkpt lat="49.95241" lon="2.11212">
        <ele>57.9</ele>
        <time>2022-09-14T13:33:46Z</time>
      </trkpt>
      <trkpt lat="49.95242" lon="2.11213">
        <ele>57.8</ele>
        <time>2022-09-14T13:33:48Z</time>
      </trkpt>
      <trkpt lat="49.95243" lon="2.11213">
        <ele>57.8</ele>
        <time>2022-09-14T13:33:49Z</time>
      </trkpt>
      <trkpt lat="49.95243" lon="2.11215">
        <ele>57.8</ele>
        <time>2022-09-14T13:33:50Z</time>
      </trkpt>
      <trkpt lat="49.95244" lon="2.11216">
        <ele>57.8</ele>
        <time>2022-09-14T13:33:51Z</time>
      </trkpt>
      <trkpt lat="49.95245" lon="2.11219">
        <ele>57.8</ele>
        <time>2022-09-14T13:33:52Z</time>
      </trkpt>
      <trkpt lat="49.95246" lon="2.11221">
        <ele>57.8</ele>
        <time>2022-09-14T13:33:53Z</time>
      </trkpt>
      <trkpt lat="49.95246" lon="2.11222">
        <ele>57.8</ele>
        <time>2022-09-14T13:33:54Z</time>
      </trkpt>
      <trkpt lat="49.95247" lon="2.11225">
        <ele>57.7</ele>
        <time>2022-09-14T13:33:56Z</time>
      </trkpt>
      <trkpt lat="49.95247" lon="2.11226">
        <ele>57.7</ele>
        <time>2022-09-14T13:33:57Z</time>
      </trkpt>
      <trkpt lat="49.95247" lon="2.11227">
        <ele>57.7</ele>
        <time>2022-09-14T13:33:58Z</time>
      </trkpt>
      <trkpt lat="49.95248" lon="2.11228">
        <ele>57.7</ele>
        <time>2022-09-14T13:33:59Z</time>
      </trkpt>
      <trkpt lat="49.95249" lon="2.1123">
        <ele>57.7</ele>
        <time>2022-09-14T13:34:00Z</time>
      </trkpt>
      <trkpt lat="49.95249" lon="2.11231">
        <ele>57.7</ele>
        <time>2022-09-14T13:34:01Z</time>
      </trkpt>
      <trkpt lat="49.95249" lon="2.11233">
        <ele>57.7</ele>
        <time>2022-09-14T13:34:02Z</time>
      </trkpt>
      <trkpt lat="49.9525" lon="2.11234">
        <ele>57.6</ele>
        <time>2022-09-14T13:34:03Z</time>
      </trkpt>
      <trkpt lat="49.9525" lon="2.11235">
        <ele>57.6</ele>
        <time>2022-09-14T13:34:04Z</time>
      </trkpt>
      <trkpt lat="49.9525" lon="2.11236">
        <ele>57.6</ele>
        <time>2022-09-14T13:34:05Z</time>
      </trkpt>
      <trkpt lat="49.95251" lon="2.11239">
        <ele>57.6</ele>
        <time>2022-09-14T13:34:06Z</time>
      </trkpt>
      <trkpt lat="49.95252" lon="2.11241">
        <ele>57.5</ele>
        <time>2022-09-14T13:34:08Z</time>
      </trkpt>
      <trkpt lat="49.95253" lon="2.11244">
        <ele>57.5</ele>
        <time>2022-09-14T13:34:09Z</time>
      </trkpt>
      <trkpt lat="49.95253" lon="2.11245">
        <ele>57.5</ele>
        <time>2022-09-14T13:34:10Z</time>
      </trkpt>
      <trkpt lat="49.95254" lon="2.11246">
        <ele>57.5</ele>
        <time>2022-09-14T13:34:11Z</time>
      </trkpt>
      <trkpt lat="49.95256" lon="2.11252">
        <ele>57.4</ele>
        <time>2022-09-14T13:34:14Z</time>
      </trkpt>
      <trkpt lat="49.95256" lon="2.11253">
        <ele>57.3</ele>
        <time>2022-09-14T13:34:15Z</time>
      </trkpt>
      <trkpt lat="49.95257" lon="2.11256">
        <ele>57.3</ele>
        <time>2022-09-14T13:34:16Z</time>
      </trkpt>
      <trkpt lat="49.95257" lon="2.11257">
        <ele>57.3</ele>
        <time>2022-09-14T13:34:17Z</time>
      </trkpt>
      <trkpt lat="49.95257" lon="2.11258">
        <ele>57.3</ele>
        <time>2022-09-14T13:34:18Z</time>
      </trkpt>
      <trkpt lat="49.95257" lon="2.1126">
        <ele>57.2</ele>
        <time>2022-09-14T13:34:19Z</time>
      </trkpt>
      <trkpt lat="49.95258" lon="2.11262">
        <ele>57.2</ele>
        <time>2022-09-14T13:34:20Z</time>
      </trkpt>
      <trkpt lat="49.95259" lon="2.11266">
        <ele>57.2</ele>
        <time>2022-09-14T13:34:22Z</time>
      </trkpt>
      <trkpt lat="49.95259" lon="2.11268">
        <ele>57.1</ele>
        <time>2022-09-14T13:34:23Z</time>
      </trkpt>
      <trkpt lat="49.9526" lon="2.1127">
        <ele>57.1</ele>
        <time>2022-09-14T13:34:24Z</time>
      </trkpt>
      <trkpt lat="49.9526" lon="2.11272">
        <ele>57.1</ele>
        <time>2022-09-14T13:34:25Z</time>
      </trkpt>
      <trkpt lat="49.95261" lon="2.11274">
        <ele>57.1</ele>
        <time>2022-09-14T13:34:26Z</time>
      </trkpt>
      <trkpt lat="49.95261" lon="2.11276">
        <ele>57.1</ele>
        <time>2022-09-14T13:34:27Z</time>
      </trkpt>
      <trkpt lat="49.95262" lon="2.11278">
        <ele>57.1</ele>
        <time>2022-09-14T13:34:28Z</time>
      </trkpt>
      <trkpt lat="49.95262" lon="2.1128">
        <ele>57.1</ele>
        <time>2022-09-14T13:34:29Z</time>
      </trkpt>
      <trkpt lat="49.95262" lon="2.11282">
        <ele>57</ele>
        <time>2022-09-14T13:34:31Z</time>
      </trkpt>
      <trkpt lat="49.95263" lon="2.11284">
        <ele>57</ele>
        <time>2022-09-14T13:34:32Z</time>
      </trkpt>
      <trkpt lat="49.95263" lon="2.11285">
        <ele>57</ele>
        <time>2022-09-14T13:34:33Z</time>
      </trkpt>
      <trkpt lat="49.95264" lon="2.11287">
        <ele>57</ele>
        <time>2022-09-14T13:34:34Z</time>
      </trkpt>
      <trkpt lat="49.95265" lon="2.11291">
        <ele>57</ele>
        <time>2022-09-14T13:34:35Z</time>
      </trkpt>
      <trkpt lat="49.95265" lon="2.11292">
        <ele>57</ele>
        <time>2022-09-14T13:34:37Z</time>
      </trkpt>
      <trkpt lat="49.95266" lon="2.11294">
        <ele>57.1</ele>
        <time>2022-09-14T13:34:38Z</time>
      </trkpt>
      <trkpt lat="49.95266" lon="2.11295">
        <ele>57.1</ele>
        <time>2022-09-14T13:34:39Z</time>
      </trkpt>
      <trkpt lat="49.95267" lon="2.11297">
        <ele>57.1</ele>
        <time>2022-09-14T13:34:40Z</time>
      </trkpt>
      <trkpt lat="49.95268" lon="2.113">
        <ele>57.1</ele>
        <time>2022-09-14T13:34:42Z</time>
      </trkpt>
      <trkpt lat="49.95269" lon="2.11302">
        <ele>57.2</ele>
        <time>2022-09-14T13:34:43Z</time>
      </trkpt>
      <trkpt lat="49.9527" lon="2.11305">
        <ele>57.2</ele>
        <time>2022-09-14T13:34:44Z</time>
      </trkpt>
      <trkpt lat="49.9527" lon="2.11307">
        <ele>57.2</ele>
        <time>2022-09-14T13:34:45Z</time>
      </trkpt>
      <trkpt lat="49.95271" lon="2.11308">
        <ele>57.3</ele>
        <time>2022-09-14T13:34:46Z</time>
      </trkpt>
      <trkpt lat="49.95271" lon="2.11311">
        <ele>57.3</ele>
        <time>2022-09-14T13:34:48Z</time>
      </trkpt>
      <trkpt lat="49.95272" lon="2.11314">
        <ele>57.4</ele>
        <time>2022-09-14T13:34:49Z</time>
      </trkpt>
      <trkpt lat="49.95273" lon="2.11317">
        <ele>57.4</ele>
        <time>2022-09-14T13:34:50Z</time>
      </trkpt>
      <trkpt lat="49.95273" lon="2.11318">
        <ele>57.4</ele>
        <time>2022-09-14T13:34:51Z</time>
      </trkpt>
      <trkpt lat="49.95273" lon="2.11319">
        <ele>57.4</ele>
        <time>2022-09-14T13:34:52Z</time>
      </trkpt>
      <trkpt lat="49.95274" lon="2.1132">
        <ele>57.5</ele>
        <time>2022-09-14T13:34:53Z</time>
      </trkpt>
      <trkpt lat="49.95274" lon="2.1132">
        <ele>57.5</ele>
        <time>2022-09-14T13:34:54Z</time>
      </trkpt>
      <trkpt lat="49.95274" lon="2.11321">
        <ele>57.5</ele>
        <time>2022-09-14T13:34:55Z</time>
      </trkpt>
      <trkpt lat="49.95275" lon="2.11323">
        <ele>57.5</ele>
        <time>2022-09-14T13:34:56Z</time>
      </trkpt>
      <trkpt lat="49.95276" lon="2.11325">
        <ele>57.5</ele>
        <time>2022-09-14T13:34:58Z</time>
      </trkpt>
      <trkpt lat="49.95276" lon="2.11327">
        <ele>57.5</ele>
        <time>2022-09-14T13:34:59Z</time>
      </trkpt>
      <trkpt lat="49.95277" lon="2.1133">
        <ele>57.5</ele>
        <time>2022-09-14T13:35:00Z</time>
      </trkpt>
      <trkpt lat="49.95278" lon="2.11331">
        <ele>57.5</ele>
        <time>2022-09-14T13:35:01Z</time>
      </trkpt>
      <trkpt lat="49.95279" lon="2.11332">
        <ele>57.5</ele>
        <time>2022-09-14T13:35:02Z</time>
      </trkpt>
      <trkpt lat="49.95279" lon="2.11333">
        <ele>57.5</ele>
        <time>2022-09-14T13:35:03Z</time>
      </trkpt>
      <trkpt lat="49.95281" lon="2.11333">
        <ele>57.5</ele>
        <time>2022-09-14T13:35:04Z</time>
      </trkpt>
      <trkpt lat="49.95281" lon="2.11334">
        <ele>57.5</ele>
        <time>2022-09-14T13:35:05Z</time>
      </trkpt>
      <trkpt lat="49.95283" lon="2.11337">
        <ele>57.5</ele>
        <time>2022-09-14T13:35:06Z</time>
      </trkpt>
      <trkpt lat="49.95283" lon="2.11338">
        <ele>57.5</ele>
        <time>2022-09-14T13:35:08Z</time>
      </trkpt>
      <trkpt lat="49.95284" lon="2.1134">
        <ele>57.5</ele>
        <time>2022-09-14T13:35:09Z</time>
      </trkpt>
      <trkpt lat="49.95285" lon="2.11341">
        <ele>57.5</ele>
        <time>2022-09-14T13:35:10Z</time>
      </trkpt>
      <trkpt lat="49.95285" lon="2.11343">
        <ele>57.5</ele>
        <time>2022-09-14T13:35:11Z</time>
      </trkpt>
      <trkpt lat="49.95286" lon="2.11344">
        <ele>57.5</ele>
        <time>2022-09-14T13:35:12Z</time>
      </trkpt>
      <trkpt lat="49.95287" lon="2.11345">
        <ele>57.5</ele>
        <time>2022-09-14T13:35:13Z</time>
      </trkpt>
      <trkpt lat="49.95288" lon="2.11347">
        <ele>57.5</ele>
        <time>2022-09-14T13:35:14Z</time>
      </trkpt>
      <trkpt lat="49.95288" lon="2.11348">
        <ele>57.5</ele>
        <time>2022-09-14T13:35:15Z</time>
      </trkpt>
      <trkpt lat="49.9529" lon="2.11351">
        <ele>57.5</ele>
        <time>2022-09-14T13:35:16Z</time>
      </trkpt>
      <trkpt lat="49.95291" lon="2.11354">
        <ele>57.5</ele>
        <time>2022-09-14T13:35:18Z</time>
      </trkpt>
      <trkpt lat="49.95291" lon="2.11355">
        <ele>57.5</ele>
        <time>2022-09-14T13:35:19Z</time>
      </trkpt>
      <trkpt lat="49.95292" lon="2.11356">
        <ele>57.5</ele>
        <time>2022-09-14T13:35:20Z</time>
      </trkpt>
      <trkpt lat="49.95293" lon="2.11357">
        <ele>57.5</ele>
        <time>2022-09-14T13:35:21Z</time>
      </trkpt>
      <trkpt lat="49.95294" lon="2.11359">
        <ele>57.5</ele>
        <time>2022-09-14T13:35:22Z</time>
      </trkpt>
      <trkpt lat="49.95295" lon="2.11361">
        <ele>57.5</ele>
        <time>2022-09-14T13:35:24Z</time>
      </trkpt>
      <trkpt lat="49.95295" lon="2.11362">
        <ele>57.5</ele>
        <time>2022-09-14T13:35:25Z</time>
      </trkpt>
      <trkpt lat="49.95296" lon="2.11364">
        <ele>57.5</ele>
        <time>2022-09-14T13:35:26Z</time>
      </trkpt>
      <trkpt lat="49.95297" lon="2.11365">
        <ele>57.4</ele>
        <time>2022-09-14T13:35:27Z</time>
      </trkpt>
      <trkpt lat="49.95298" lon="2.11369">
        <ele>57.4</ele>
        <time>2022-09-14T13:35:29Z</time>
      </trkpt>
      <trkpt lat="49.95299" lon="2.1137">
        <ele>57.4</ele>
        <time>2022-09-14T13:35:30Z</time>
      </trkpt>
      <trkpt lat="49.95299" lon="2.11372">
        <ele>57.4</ele>
        <time>2022-09-14T13:35:31Z</time>
      </trkpt>
      <trkpt lat="49.95301" lon="2.11375">
        <ele>57.4</ele>
        <time>2022-09-14T13:35:33Z</time>
      </trkpt>
      <trkpt lat="49.95302" lon="2.11378">
        <ele>57.4</ele>
        <time>2022-09-14T13:35:34Z</time>
      </trkpt>
      <trkpt lat="49.95302" lon="2.11379">
        <ele>57.4</ele>
        <time>2022-09-14T13:35:35Z</time>
      </trkpt>
      <trkpt lat="49.95302" lon="2.1138">
        <ele>57.4</ele>
        <time>2022-09-14T13:35:36Z</time>
      </trkpt>
      <trkpt lat="49.95304" lon="2.11383">
        <ele>57.4</ele>
        <time>2022-09-14T13:35:37Z</time>
      </trkpt>
      <trkpt lat="49.95304" lon="2.11384">
        <ele>57.4</ele>
        <time>2022-09-14T13:35:38Z</time>
      </trkpt>
      <trkpt lat="49.95305" lon="2.11385">
        <ele>57.4</ele>
        <time>2022-09-14T13:35:39Z</time>
      </trkpt>
      <trkpt lat="49.95306" lon="2.11386">
        <ele>57.4</ele>
        <time>2022-09-14T13:35:41Z</time>
      </trkpt>
      <trkpt lat="49.95306" lon="2.11388">
        <ele>57.4</ele>
        <time>2022-09-14T13:35:42Z</time>
      </trkpt>
      <trkpt lat="49.95307" lon="2.11389">
        <ele>57.4</ele>
        <time>2022-09-14T13:35:43Z</time>
      </trkpt>
      <trkpt lat="49.95307" lon="2.1139">
        <ele>57.4</ele>
        <time>2022-09-14T13:35:44Z</time>
      </trkpt>
      <trkpt lat="49.95308" lon="2.11392">
        <ele>57.3</ele>
        <time>2022-09-14T13:35:45Z</time>
      </trkpt>
      <trkpt lat="49.95309" lon="2.11393">
        <ele>57.3</ele>
        <time>2022-09-14T13:35:46Z</time>
      </trkpt>
      <trkpt lat="49.9531" lon="2.11396">
        <ele>57.3</ele>
        <time>2022-09-14T13:35:47Z</time>
      </trkpt>
      <trkpt lat="49.9531" lon="2.11397">
        <ele>57.3</ele>
        <time>2022-09-14T13:35:48Z</time>
      </trkpt>
      <trkpt lat="49.9531" lon="2.11398">
        <ele>57.3</ele>
        <time>2022-09-14T13:35:49Z</time>
      </trkpt>
      <trkpt lat="49.95311" lon="2.114">
        <ele>57.3</ele>
        <time>2022-09-14T13:35:50Z</time>
      </trkpt>
      <trkpt lat="49.95312" lon="2.11402">
        <ele>57.3</ele>
        <time>2022-09-14T13:35:52Z</time>
      </trkpt>
      <trkpt lat="49.95313" lon="2.11404">
        <ele>57.3</ele>
        <time>2022-09-14T13:35:53Z</time>
      </trkpt>
      <trkpt lat="49.95314" lon="2.11406">
        <ele>57.4</ele>
        <time>2022-09-14T13:35:54Z</time>
      </trkpt>
      <trkpt lat="49.95315" lon="2.11408">
        <ele>57.4</ele>
        <time>2022-09-14T13:35:56Z</time>
      </trkpt>
      <trkpt lat="49.95316" lon="2.11409">
        <ele>57.4</ele>
        <time>2022-09-14T13:35:57Z</time>
      </trkpt>
      <trkpt lat="49.95316" lon="2.1141">
        <ele>57.4</ele>
        <time>2022-09-14T13:35:58Z</time>
      </trkpt>
      <trkpt lat="49.95317" lon="2.11412">
        <ele>57.4</ele>
        <time>2022-09-14T13:35:59Z</time>
      </trkpt>
      <trkpt lat="49.95318" lon="2.11413">
        <ele>57.4</ele>
        <time>2022-09-14T13:36:00Z</time>
      </trkpt>
      <trkpt lat="49.95318" lon="2.11415">
        <ele>57.4</ele>
        <time>2022-09-14T13:36:01Z</time>
      </trkpt>
      <trkpt lat="49.9532" lon="2.11418">
        <ele>57.4</ele>
        <time>2022-09-14T13:36:03Z</time>
      </trkpt>
      <trkpt lat="49.9532" lon="2.11419">
        <ele>57.4</ele>
        <time>2022-09-14T13:36:04Z</time>
      </trkpt>
      <trkpt lat="49.95321" lon="2.1142">
        <ele>57.4</ele>
        <time>2022-09-14T13:36:05Z</time>
      </trkpt>
      <trkpt lat="49.95322" lon="2.11422">
        <ele>57.4</ele>
        <time>2022-09-14T13:36:06Z</time>
      </trkpt>
      <trkpt lat="49.95322" lon="2.11423">
        <ele>57.4</ele>
        <time>2022-09-14T13:36:07Z</time>
      </trkpt>
      <trkpt lat="49.95324" lon="2.11425">
        <ele>57.4</ele>
        <time>2022-09-14T13:36:08Z</time>
      </trkpt>
      <trkpt lat="49.95324" lon="2.11426">
        <ele>57.4</ele>
        <time>2022-09-14T13:36:09Z</time>
      </trkpt>
      <trkpt lat="49.95325" lon="2.11427">
        <ele>57.4</ele>
        <time>2022-09-14T13:36:10Z</time>
      </trkpt>
      <trkpt lat="49.95326" lon="2.11429">
        <ele>57.5</ele>
        <time>2022-09-14T13:36:11Z</time>
      </trkpt>
      <trkpt lat="49.95327" lon="2.11432">
        <ele>57.5</ele>
        <time>2022-09-14T13:36:12Z</time>
      </trkpt>
      <trkpt lat="49.95328" lon="2.11433">
        <ele>57.5</ele>
        <time>2022-09-14T13:36:14Z</time>
      </trkpt>
      <trkpt lat="49.95329" lon="2.11434">
        <ele>57.5</ele>
        <time>2022-09-14T13:36:15Z</time>
      </trkpt>
      <trkpt lat="49.9533" lon="2.11435">
        <ele>57.5</ele>
        <time>2022-09-14T13:36:16Z</time>
      </trkpt>
      <trkpt lat="49.9533" lon="2.11437">
        <ele>57.5</ele>
        <time>2022-09-14T13:36:17Z</time>
      </trkpt>
      <trkpt lat="49.95331" lon="2.11439">
        <ele>57.5</ele>
        <time>2022-09-14T13:36:18Z</time>
      </trkpt>
      <trkpt lat="49.95332" lon="2.11441">
        <ele>57.5</ele>
        <time>2022-09-14T13:36:19Z</time>
      </trkpt>
      <trkpt lat="49.95334" lon="2.11444">
        <ele>57.5</ele>
        <time>2022-09-14T13:36:21Z</time>
      </trkpt>
      <trkpt lat="49.95335" lon="2.11445">
        <ele>57.5</ele>
        <time>2022-09-14T13:36:22Z</time>
      </trkpt>
      <trkpt lat="49.95336" lon="2.11446">
        <ele>57.4</ele>
        <time>2022-09-14T13:36:23Z</time>
      </trkpt>
      <trkpt lat="49.95337" lon="2.11448">
        <ele>57.4</ele>
        <time>2022-09-14T13:36:24Z</time>
      </trkpt>
      <trkpt lat="49.95338" lon="2.11449">
        <ele>57.4</ele>
        <time>2022-09-14T13:36:25Z</time>
      </trkpt>
      <trkpt lat="49.95339" lon="2.1145">
        <ele>57.4</ele>
        <time>2022-09-14T13:36:26Z</time>
      </trkpt>
      <trkpt lat="49.9534" lon="2.11452">
        <ele>57.4</ele>
        <time>2022-09-14T13:36:28Z</time>
      </trkpt>
      <trkpt lat="49.95341" lon="2.11453">
        <ele>57.4</ele>
        <time>2022-09-14T13:36:29Z</time>
      </trkpt>
      <trkpt lat="49.95342" lon="2.11456">
        <ele>57.4</ele>
        <time>2022-09-14T13:36:30Z</time>
      </trkpt>
      <trkpt lat="49.95342" lon="2.11457">
        <ele>57.4</ele>
        <time>2022-09-14T13:36:31Z</time>
      </trkpt>
      <trkpt lat="49.95343" lon="2.11458">
        <ele>57.4</ele>
        <time>2022-09-14T13:36:32Z</time>
      </trkpt>
      <trkpt lat="49.95344" lon="2.11461">
        <ele>57.4</ele>
        <time>2022-09-14T13:36:33Z</time>
      </trkpt>
      <trkpt lat="49.95345" lon="2.11462">
        <ele>57.4</ele>
        <time>2022-09-14T13:36:34Z</time>
      </trkpt>
      <trkpt lat="49.95345" lon="2.11463">
        <ele>57.4</ele>
        <time>2022-09-14T13:36:35Z</time>
      </trkpt>
      <trkpt lat="49.95347" lon="2.11466">
        <ele>57.4</ele>
        <time>2022-09-14T13:36:36Z</time>
      </trkpt>
      <trkpt lat="49.95348" lon="2.11467">
        <ele>57.4</ele>
        <time>2022-09-14T13:36:38Z</time>
      </trkpt>
      <trkpt lat="49.95349" lon="2.11468">
        <ele>57.4</ele>
        <time>2022-09-14T13:36:39Z</time>
      </trkpt>
      <trkpt lat="49.9535" lon="2.1147">
        <ele>57.4</ele>
        <time>2022-09-14T13:36:40Z</time>
      </trkpt>
      <trkpt lat="49.95351" lon="2.11471">
        <ele>57.4</ele>
        <time>2022-09-14T13:36:41Z</time>
      </trkpt>
      <trkpt lat="49.95352" lon="2.11473">
        <ele>57.4</ele>
        <time>2022-09-14T13:36:42Z</time>
      </trkpt>
      <trkpt lat="49.95353" lon="2.11474">
        <ele>57.4</ele>
        <time>2022-09-14T13:36:43Z</time>
      </trkpt>
      <trkpt lat="49.95354" lon="2.11475">
        <ele>57.4</ele>
        <time>2022-09-14T13:36:44Z</time>
      </trkpt>
      <trkpt lat="49.95355" lon="2.11477">
        <ele>57.4</ele>
        <time>2022-09-14T13:36:45Z</time>
      </trkpt>
      <trkpt lat="49.95356" lon="2.11478">
        <ele>57.4</ele>
        <time>2022-09-14T13:36:46Z</time>
      </trkpt>
      <trkpt lat="49.95356" lon="2.11479">
        <ele>57.4</ele>
        <time>2022-09-14T13:36:47Z</time>
      </trkpt>
      <trkpt lat="49.95357" lon="2.1148">
        <ele>57.4</ele>
        <time>2022-09-14T13:36:48Z</time>
      </trkpt>
      <trkpt lat="49.95359" lon="2.11482">
        <ele>57.4</ele>
        <time>2022-09-14T13:36:49Z</time>
      </trkpt>
      <trkpt lat="49.95361" lon="2.11484">
        <ele>57.4</ele>
        <time>2022-09-14T13:36:51Z</time>
      </trkpt>
      <trkpt lat="49.95362" lon="2.11486">
        <ele>57.4</ele>
        <time>2022-09-14T13:36:52Z</time>
      </trkpt>
      <trkpt lat="49.95363" lon="2.11487">
        <ele>57.4</ele>
        <time>2022-09-14T13:36:53Z</time>
      </trkpt>
      <trkpt lat="49.95365" lon="2.1149">
        <ele>57.4</ele>
        <time>2022-09-14T13:36:55Z</time>
      </trkpt>
      <trkpt lat="49.95367" lon="2.11491">
        <ele>57.5</ele>
        <time>2022-09-14T13:36:56Z</time>
      </trkpt>
      <trkpt lat="49.95368" lon="2.11492">
        <ele>57.5</ele>
        <time>2022-09-14T13:36:57Z</time>
      </trkpt>
      <trkpt lat="49.95369" lon="2.11493">
        <ele>57.5</ele>
        <time>2022-09-14T13:36:58Z</time>
      </trkpt>
      <trkpt lat="49.95369" lon="2.11494">
        <ele>57.5</ele>
        <time>2022-09-14T13:36:59Z</time>
      </trkpt>
      <trkpt lat="49.9537" lon="2.11495">
        <ele>57.5</ele>
        <time>2022-09-14T13:37:00Z</time>
      </trkpt>
      <trkpt lat="49.95371" lon="2.11495">
        <ele>57.5</ele>
        <time>2022-09-14T13:37:02Z</time>
      </trkpt>
      <trkpt lat="49.95372" lon="2.11496">
        <ele>57.5</ele>
        <time>2022-09-14T13:37:03Z</time>
      </trkpt>
      <trkpt lat="49.95374" lon="2.11498">
        <ele>57.6</ele>
        <time>2022-09-14T13:37:04Z</time>
      </trkpt>
      <trkpt lat="49.95375" lon="2.115">
        <ele>57.6</ele>
        <time>2022-09-14T13:37:05Z</time>
      </trkpt>
      <trkpt lat="49.95376" lon="2.115">
        <ele>57.6</ele>
        <time>2022-09-14T13:37:06Z</time>
      </trkpt>
      <trkpt lat="49.95377" lon="2.11501">
        <ele>57.6</ele>
        <time>2022-09-14T13:37:07Z</time>
      </trkpt>
      <trkpt lat="49.95378" lon="2.11502">
        <ele>57.6</ele>
        <time>2022-09-14T13:37:08Z</time>
      </trkpt>
      <trkpt lat="49.95379" lon="2.11503">
        <ele>57.6</ele>
        <time>2022-09-14T13:37:09Z</time>
      </trkpt>
      <trkpt lat="49.9538" lon="2.11504">
        <ele>57.6</ele>
        <time>2022-09-14T13:37:10Z</time>
      </trkpt>
      <trkpt lat="49.95381" lon="2.11506">
        <ele>57.6</ele>
        <time>2022-09-14T13:37:11Z</time>
      </trkpt>
      <trkpt lat="49.95382" lon="2.11507">
        <ele>57.6</ele>
        <time>2022-09-14T13:37:13Z</time>
      </trkpt>
      <trkpt lat="49.95383" lon="2.11507">
        <ele>57.6</ele>
        <time>2022-09-14T13:37:14Z</time>
      </trkpt>
      <trkpt lat="49.95384" lon="2.11508">
        <ele>57.6</ele>
        <time>2022-09-14T13:37:15Z</time>
      </trkpt>
      <trkpt lat="49.95385" lon="2.11509">
        <ele>57.5</ele>
        <time>2022-09-14T13:37:16Z</time>
      </trkpt>
      <trkpt lat="49.95386" lon="2.1151">
        <ele>57.5</ele>
        <time>2022-09-14T13:37:17Z</time>
      </trkpt>
      <trkpt lat="49.95387" lon="2.11511">
        <ele>57.5</ele>
        <time>2022-09-14T13:37:18Z</time>
      </trkpt>
      <trkpt lat="49.95389" lon="2.11513">
        <ele>57.5</ele>
        <time>2022-09-14T13:37:20Z</time>
      </trkpt>
      <trkpt lat="49.95389" lon="2.11512">
        <ele>57.5</ele>
        <time>2022-09-14T13:37:21Z</time>
      </trkpt>
      <trkpt lat="49.9539" lon="2.11512">
        <ele>57.5</ele>
        <time>2022-09-14T13:37:22Z</time>
      </trkpt>
      <trkpt lat="49.95392" lon="2.11513">
        <ele>57.4</ele>
        <time>2022-09-14T13:37:23Z</time>
      </trkpt>
      <trkpt lat="49.95394" lon="2.11514">
        <ele>57.4</ele>
        <time>2022-09-14T13:37:24Z</time>
      </trkpt>
      <trkpt lat="49.95395" lon="2.11515">
        <ele>57.4</ele>
        <time>2022-09-14T13:37:26Z</time>
      </trkpt>
      <trkpt lat="49.95396" lon="2.11516">
        <ele>57.4</ele>
        <time>2022-09-14T13:37:27Z</time>
      </trkpt>
      <trkpt lat="49.95397" lon="2.11516">
        <ele>57.3</ele>
        <time>2022-09-14T13:37:28Z</time>
      </trkpt>
      <trkpt lat="49.95399" lon="2.11518">
        <ele>57.3</ele>
        <time>2022-09-14T13:37:29Z</time>
      </trkpt>
      <trkpt lat="49.954" lon="2.11519">
        <ele>57.3</ele>
        <time>2022-09-14T13:37:30Z</time>
      </trkpt>
      <trkpt lat="49.95401" lon="2.11519">
        <ele>57.3</ele>
        <time>2022-09-14T13:37:31Z</time>
      </trkpt>
      <trkpt lat="49.95403" lon="2.1152">
        <ele>57.2</ele>
        <time>2022-09-14T13:37:33Z</time>
      </trkpt>
      <trkpt lat="49.95404" lon="2.1152">
        <ele>57.2</ele>
        <time>2022-09-14T13:37:34Z</time>
      </trkpt>
      <trkpt lat="49.95405" lon="2.11522">
        <ele>57.1</ele>
        <time>2022-09-14T13:37:35Z</time>
      </trkpt>
      <trkpt lat="49.95407" lon="2.11523">
        <ele>57.1</ele>
        <time>2022-09-14T13:37:36Z</time>
      </trkpt>
      <trkpt lat="49.95408" lon="2.11524">
        <ele>57</ele>
        <time>2022-09-14T13:37:37Z</time>
      </trkpt>
      <trkpt lat="49.95409" lon="2.11525">
        <ele>57</ele>
        <time>2022-09-14T13:37:38Z</time>
      </trkpt>
      <trkpt lat="49.95409" lon="2.11525">
        <ele>57</ele>
        <time>2022-09-14T13:37:39Z</time>
      </trkpt>
      <trkpt lat="49.95411" lon="2.11527">
        <ele>56.9</ele>
        <time>2022-09-14T13:37:41Z</time>
      </trkpt>
      <trkpt lat="49.95412" lon="2.11528">
        <ele>56.9</ele>
        <time>2022-09-14T13:37:42Z</time>
      </trkpt>
      <trkpt lat="49.95413" lon="2.11528">
        <ele>56.9</ele>
        <time>2022-09-14T13:37:43Z</time>
      </trkpt>
      <trkpt lat="49.95415" lon="2.1153">
        <ele>56.8</ele>
        <time>2022-09-14T13:37:45Z</time>
      </trkpt>
      <trkpt lat="49.95416" lon="2.11531">
        <ele>56.8</ele>
        <time>2022-09-14T13:37:46Z</time>
      </trkpt>
      <trkpt lat="49.95417" lon="2.11532">
        <ele>56.7</ele>
        <time>2022-09-14T13:37:47Z</time>
      </trkpt>
      <trkpt lat="49.95418" lon="2.11533">
        <ele>56.7</ele>
        <time>2022-09-14T13:37:48Z</time>
      </trkpt>
      <trkpt lat="49.9542" lon="2.11534">
        <ele>56.7</ele>
        <time>2022-09-14T13:37:49Z</time>
      </trkpt>
      <trkpt lat="49.95422" lon="2.11535">
        <ele>56.6</ele>
        <time>2022-09-14T13:37:50Z</time>
      </trkpt>
      <trkpt lat="49.95423" lon="2.11536">
        <ele>56.6</ele>
        <time>2022-09-14T13:37:51Z</time>
      </trkpt>
      <trkpt lat="49.95424" lon="2.11536">
        <ele>56.6</ele>
        <time>2022-09-14T13:37:52Z</time>
      </trkpt>
      <trkpt lat="49.95426" lon="2.11538">
        <ele>56.5</ele>
        <time>2022-09-14T13:37:54Z</time>
      </trkpt>
      <trkpt lat="49.95427" lon="2.11538">
        <ele>56.5</ele>
        <time>2022-09-14T13:37:55Z</time>
      </trkpt>
      <trkpt lat="49.95428" lon="2.11538">
        <ele>56.5</ele>
        <time>2022-09-14T13:37:56Z</time>
      </trkpt>
      <trkpt lat="49.95429" lon="2.11539">
        <ele>56.4</ele>
        <time>2022-09-14T13:37:57Z</time>
      </trkpt>
      <trkpt lat="49.9543" lon="2.11539">
        <ele>56.4</ele>
        <time>2022-09-14T13:37:58Z</time>
      </trkpt>
      <trkpt lat="49.95431" lon="2.1154">
        <ele>56.4</ele>
        <time>2022-09-14T13:37:59Z</time>
      </trkpt>
      <trkpt lat="49.95432" lon="2.11541">
        <ele>56.3</ele>
        <time>2022-09-14T13:38:00Z</time>
      </trkpt>
      <trkpt lat="49.95433" lon="2.11541">
        <ele>56.3</ele>
        <time>2022-09-14T13:38:01Z</time>
      </trkpt>
      <trkpt lat="49.95434" lon="2.11542">
        <ele>56.2</ele>
        <time>2022-09-14T13:38:02Z</time>
      </trkpt>
      <trkpt lat="49.95436" lon="2.11543">
        <ele>56.2</ele>
        <time>2022-09-14T13:38:03Z</time>
      </trkpt>
      <trkpt lat="49.95437" lon="2.11544">
        <ele>56.1</ele>
        <time>2022-09-14T13:38:04Z</time>
      </trkpt>
      <trkpt lat="49.95438" lon="2.11544">
        <ele>56.1</ele>
        <time>2022-09-14T13:38:05Z</time>
      </trkpt>
      <trkpt lat="49.9544" lon="2.11546">
        <ele>56</ele>
        <time>2022-09-14T13:38:06Z</time>
      </trkpt>
      <trkpt lat="49.95441" lon="2.11547">
        <ele>56</ele>
        <time>2022-09-14T13:38:07Z</time>
      </trkpt>
      <trkpt lat="49.95443" lon="2.11548">
        <ele>55.9</ele>
        <time>2022-09-14T13:38:09Z</time>
      </trkpt>
      <trkpt lat="49.95443" lon="2.11549">
        <ele>55.8</ele>
        <time>2022-09-14T13:38:10Z</time>
      </trkpt>
      <trkpt lat="49.95444" lon="2.11549">
        <ele>55.8</ele>
        <time>2022-09-14T13:38:11Z</time>
      </trkpt>
      <trkpt lat="49.95444" lon="2.1155">
        <ele>55.8</ele>
        <time>2022-09-14T13:38:12Z</time>
      </trkpt>
      <trkpt lat="49.95446" lon="2.11551">
        <ele>55.7</ele>
        <time>2022-09-14T13:38:13Z</time>
      </trkpt>
      <trkpt lat="49.95447" lon="2.11551">
        <ele>55.7</ele>
        <time>2022-09-14T13:38:14Z</time>
      </trkpt>
      <trkpt lat="49.95448" lon="2.11552">
        <ele>55.6</ele>
        <time>2022-09-14T13:38:15Z</time>
      </trkpt>
      <trkpt lat="49.95449" lon="2.11553">
        <ele>55.6</ele>
        <time>2022-09-14T13:38:16Z</time>
      </trkpt>
      <trkpt lat="49.9545" lon="2.11555">
        <ele>55.5</ele>
        <time>2022-09-14T13:38:17Z</time>
      </trkpt>
      <trkpt lat="49.95453" lon="2.11557">
        <ele>55.3</ele>
        <time>2022-09-14T13:38:19Z</time>
      </trkpt>
      <trkpt lat="49.95454" lon="2.11558">
        <ele>55.3</ele>
        <time>2022-09-14T13:38:20Z</time>
      </trkpt>
      <trkpt lat="49.95455" lon="2.11559">
        <ele>55.2</ele>
        <time>2022-09-14T13:38:21Z</time>
      </trkpt>
      <trkpt lat="49.95457" lon="2.1156">
        <ele>55.1</ele>
        <time>2022-09-14T13:38:22Z</time>
      </trkpt>
      <trkpt lat="49.95458" lon="2.11561">
        <ele>55</ele>
        <time>2022-09-14T13:38:23Z</time>
      </trkpt>
      <trkpt lat="49.95459" lon="2.11562">
        <ele>54.9</ele>
        <time>2022-09-14T13:38:24Z</time>
      </trkpt>
      <trkpt lat="49.9546" lon="2.11563">
        <ele>54.8</ele>
        <time>2022-09-14T13:38:26Z</time>
      </trkpt>
      <trkpt lat="49.95462" lon="2.11565">
        <ele>54.7</ele>
        <time>2022-09-14T13:38:27Z</time>
      </trkpt>
      <trkpt lat="49.95463" lon="2.11565">
        <ele>54.7</ele>
        <time>2022-09-14T13:38:28Z</time>
      </trkpt>
      <trkpt lat="49.95464" lon="2.11566">
        <ele>54.6</ele>
        <time>2022-09-14T13:38:29Z</time>
      </trkpt>
      <trkpt lat="49.95465" lon="2.11567">
        <ele>54.5</ele>
        <time>2022-09-14T13:38:30Z</time>
      </trkpt>
      <trkpt lat="49.95466" lon="2.11568">
        <ele>54.5</ele>
        <time>2022-09-14T13:38:31Z</time>
      </trkpt>
      <trkpt lat="49.95467" lon="2.11568">
        <ele>54.4</ele>
        <time>2022-09-14T13:38:32Z</time>
      </trkpt>
      <trkpt lat="49.95468" lon="2.11569">
        <ele>54.3</ele>
        <time>2022-09-14T13:38:33Z</time>
      </trkpt>
      <trkpt lat="49.95469" lon="2.1157">
        <ele>54.2</ele>
        <time>2022-09-14T13:38:34Z</time>
      </trkpt>
      <trkpt lat="49.9547" lon="2.11571">
        <ele>54.2</ele>
        <time>2022-09-14T13:38:35Z</time>
      </trkpt>
      <trkpt lat="49.95471" lon="2.11572">
        <ele>54.1</ele>
        <time>2022-09-14T13:38:36Z</time>
      </trkpt>
      <trkpt lat="49.95473" lon="2.11574">
        <ele>53.9</ele>
        <time>2022-09-14T13:38:37Z</time>
      </trkpt>
      <trkpt lat="49.95475" lon="2.11576">
        <ele>53.7</ele>
        <time>2022-09-14T13:38:39Z</time>
      </trkpt>
      <trkpt lat="49.95476" lon="2.11577">
        <ele>53.6</ele>
        <time>2022-09-14T13:38:40Z</time>
      </trkpt>
      <trkpt lat="49.95477" lon="2.11578">
        <ele>53.5</ele>
        <time>2022-09-14T13:38:41Z</time>
      </trkpt>
      <trkpt lat="49.95479" lon="2.11579">
        <ele>53.4</ele>
        <time>2022-09-14T13:38:42Z</time>
      </trkpt>
      <trkpt lat="49.9548" lon="2.1158">
        <ele>53.3</ele>
        <time>2022-09-14T13:38:43Z</time>
      </trkpt>
      <trkpt lat="49.95482" lon="2.11581">
        <ele>53.1</ele>
        <time>2022-09-14T13:38:45Z</time>
      </trkpt>
      <trkpt lat="49.95483" lon="2.11582">
        <ele>53</ele>
        <time>2022-09-14T13:38:46Z</time>
      </trkpt>
      <trkpt lat="49.95484" lon="2.11583">
        <ele>52.9</ele>
        <time>2022-09-14T13:38:47Z</time>
      </trkpt>
      <trkpt lat="49.95485" lon="2.11584">
        <ele>52.8</ele>
        <time>2022-09-14T13:38:48Z</time>
      </trkpt>
      <trkpt lat="49.95486" lon="2.11585">
        <ele>52.7</ele>
        <time>2022-09-14T13:38:49Z</time>
      </trkpt>
      <trkpt lat="49.95486" lon="2.11585">
        <ele>52.7</ele>
        <time>2022-09-14T13:38:50Z</time>
      </trkpt>
      <trkpt lat="49.95487" lon="2.11585">
        <ele>52.6</ele>
        <time>2022-09-14T13:38:51Z</time>
      </trkpt>
      <trkpt lat="49.95489" lon="2.11587">
        <ele>52.4</ele>
        <time>2022-09-14T13:38:52Z</time>
      </trkpt>
      <trkpt lat="49.9549" lon="2.11588">
        <ele>52.3</ele>
        <time>2022-09-14T13:38:53Z</time>
      </trkpt>
      <trkpt lat="49.9549" lon="2.11589">
        <ele>52.2</ele>
        <time>2022-09-14T13:38:54Z</time>
      </trkpt>
      <trkpt lat="49.95491" lon="2.1159">
        <ele>52.1</ele>
        <time>2022-09-14T13:38:56Z</time>
      </trkpt>
      <trkpt lat="49.95492" lon="2.11591">
        <ele>52</ele>
        <time>2022-09-14T13:38:57Z</time>
      </trkpt>
      <trkpt lat="49.95493" lon="2.11592">
        <ele>51.9</ele>
        <time>2022-09-14T13:38:58Z</time>
      </trkpt>
      <trkpt lat="49.95494" lon="2.11593">
        <ele>51.8</ele>
        <time>2022-09-14T13:38:59Z</time>
      </trkpt>
      <trkpt lat="49.95495" lon="2.11594">
        <ele>51.7</ele>
        <time>2022-09-14T13:39:00Z</time>
      </trkpt>
      <trkpt lat="49.95496" lon="2.11594">
        <ele>51.7</ele>
        <time>2022-09-14T13:39:01Z</time>
      </trkpt>
      <trkpt lat="49.95497" lon="2.11595">
        <ele>51.5</ele>
        <time>2022-09-14T13:39:02Z</time>
      </trkpt>
      <trkpt lat="49.95498" lon="2.11596">
        <ele>51.4</ele>
        <time>2022-09-14T13:39:03Z</time>
      </trkpt>
      <trkpt lat="49.95499" lon="2.11596">
        <ele>51.3</ele>
        <time>2022-09-14T13:39:04Z</time>
      </trkpt>
      <trkpt lat="49.955" lon="2.11597">
        <ele>51.2</ele>
        <time>2022-09-14T13:39:05Z</time>
      </trkpt>
      <trkpt lat="49.95502" lon="2.11598">
        <ele>51.1</ele>
        <time>2022-09-14T13:39:06Z</time>
      </trkpt>
      <trkpt lat="49.95503" lon="2.11599">
        <ele>50.9</ele>
        <time>2022-09-14T13:39:08Z</time>
      </trkpt>
      <trkpt lat="49.95504" lon="2.116">
        <ele>50.8</ele>
        <time>2022-09-14T13:39:09Z</time>
      </trkpt>
      <trkpt lat="49.95507" lon="2.11602">
        <ele>50.5</ele>
        <time>2022-09-14T13:39:10Z</time>
      </trkpt>
      <trkpt lat="49.95508" lon="2.11604">
        <ele>50.4</ele>
        <time>2022-09-14T13:39:11Z</time>
      </trkpt>
      <trkpt lat="49.95511" lon="2.11606">
        <ele>50.1</ele>
        <time>2022-09-14T13:39:13Z</time>
      </trkpt>
      <trkpt lat="49.95512" lon="2.11607">
        <ele>50</ele>
        <time>2022-09-14T13:39:14Z</time>
      </trkpt>
      <trkpt lat="49.95513" lon="2.11609">
        <ele>49.8</ele>
        <time>2022-09-14T13:39:15Z</time>
      </trkpt>
      <trkpt lat="49.95516" lon="2.11613">
        <ele>49.4</ele>
        <time>2022-09-14T13:39:17Z</time>
      </trkpt>
      <trkpt lat="49.95517" lon="2.11615">
        <ele>49.3</ele>
        <time>2022-09-14T13:39:18Z</time>
      </trkpt>
      <trkpt lat="49.95519" lon="2.11616">
        <ele>49.1</ele>
        <time>2022-09-14T13:39:19Z</time>
      </trkpt>
      <trkpt lat="49.9552" lon="2.11618">
        <ele>49</ele>
        <time>2022-09-14T13:39:20Z</time>
      </trkpt>
      <trkpt lat="49.95521" lon="2.1162">
        <ele>48.8</ele>
        <time>2022-09-14T13:39:21Z</time>
      </trkpt>
      <trkpt lat="49.95522" lon="2.11622">
        <ele>48.7</ele>
        <time>2022-09-14T13:39:22Z</time>
      </trkpt>
      <trkpt lat="49.95523" lon="2.11623">
        <ele>48.5</ele>
        <time>2022-09-14T13:39:23Z</time>
      </trkpt>
      <trkpt lat="49.95525" lon="2.11625">
        <ele>48.3</ele>
        <time>2022-09-14T13:39:24Z</time>
      </trkpt>
      <trkpt lat="49.95526" lon="2.11626">
        <ele>48.2</ele>
        <time>2022-09-14T13:39:25Z</time>
      </trkpt>
      <trkpt lat="49.95527" lon="2.11627">
        <ele>48.1</ele>
        <time>2022-09-14T13:39:26Z</time>
      </trkpt>
      <trkpt lat="49.95528" lon="2.11628">
        <ele>48</ele>
        <time>2022-09-14T13:39:28Z</time>
      </trkpt>
      <trkpt lat="49.95529" lon="2.11629">
        <ele>47.9</ele>
        <time>2022-09-14T13:39:29Z</time>
      </trkpt>
      <trkpt lat="49.95532" lon="2.11631">
        <ele>47.6</ele>
        <time>2022-09-14T13:39:31Z</time>
      </trkpt>
      <trkpt lat="49.95533" lon="2.11631">
        <ele>47.6</ele>
        <time>2022-09-14T13:39:32Z</time>
      </trkpt>
      <trkpt lat="49.95533" lon="2.11632">
        <ele>47.5</ele>
        <time>2022-09-14T13:39:33Z</time>
      </trkpt>
      <trkpt lat="49.95534" lon="2.11632">
        <ele>47.4</ele>
        <time>2022-09-14T13:39:34Z</time>
      </trkpt>
      <trkpt lat="49.95535" lon="2.11633">
        <ele>47.2</ele>
        <time>2022-09-14T13:39:35Z</time>
      </trkpt>
      <trkpt lat="49.95537" lon="2.11635">
        <ele>47</ele>
        <time>2022-09-14T13:39:36Z</time>
      </trkpt>
      <trkpt lat="49.95538" lon="2.11635">
        <ele>46.9</ele>
        <time>2022-09-14T13:39:37Z</time>
      </trkpt>
      <trkpt lat="49.95539" lon="2.11636">
        <ele>46.8</ele>
        <time>2022-09-14T13:39:38Z</time>
      </trkpt>
      <trkpt lat="49.95541" lon="2.11637">
        <ele>46.6</ele>
        <time>2022-09-14T13:39:39Z</time>
      </trkpt>
      <trkpt lat="49.95542" lon="2.11638">
        <ele>46.5</ele>
        <time>2022-09-14T13:39:41Z</time>
      </trkpt>
      <trkpt lat="49.95543" lon="2.11638">
        <ele>46.4</ele>
        <time>2022-09-14T13:39:42Z</time>
      </trkpt>
      <trkpt lat="49.95543" lon="2.11639">
        <ele>46.3</ele>
        <time>2022-09-14T13:39:43Z</time>
      </trkpt>
      <trkpt lat="49.95544" lon="2.1164">
        <ele>46.2</ele>
        <time>2022-09-14T13:39:44Z</time>
      </trkpt>
      <trkpt lat="49.95545" lon="2.1164">
        <ele>46.1</ele>
        <time>2022-09-14T13:39:45Z</time>
      </trkpt>
      <trkpt lat="49.95546" lon="2.11642">
        <ele>46</ele>
        <time>2022-09-14T13:39:46Z</time>
      </trkpt>
      <trkpt lat="49.95547" lon="2.11643">
        <ele>45.9</ele>
        <time>2022-09-14T13:39:47Z</time>
      </trkpt>
      <trkpt lat="49.95549" lon="2.11645">
        <ele>45.7</ele>
        <time>2022-09-14T13:39:49Z</time>
      </trkpt>
      <trkpt lat="49.9555" lon="2.11646">
        <ele>45.6</ele>
        <time>2022-09-14T13:39:50Z</time>
      </trkpt>
      <trkpt lat="49.9555" lon="2.11647">
        <ele>45.5</ele>
        <time>2022-09-14T13:39:51Z</time>
      </trkpt>
      <trkpt lat="49.95551" lon="2.11648">
        <ele>45.4</ele>
        <time>2022-09-14T13:39:52Z</time>
      </trkpt>
      <trkpt lat="49.9555" lon="2.11649">
        <ele>45.3</ele>
        <time>2022-09-14T13:39:53Z</time>
      </trkpt>
      <trkpt lat="49.95551" lon="2.11651">
        <ele>45.1</ele>
        <time>2022-09-14T13:39:55Z</time>
      </trkpt>
      <trkpt lat="49.95552" lon="2.11653">
        <ele>44.9</ele>
        <time>2022-09-14T13:39:56Z</time>
      </trkpt>
      <trkpt lat="49.95552" lon="2.11656">
        <ele>44.7</ele>
        <time>2022-09-14T13:39:58Z</time>
      </trkpt>
      <trkpt lat="49.95553" lon="2.1166">
        <ele>44.4</ele>
        <time>2022-09-14T13:39:59Z</time>
      </trkpt>
      <trkpt lat="49.95553" lon="2.11663">
        <ele>44.2</ele>
        <time>2022-09-14T13:40:01Z</time>
      </trkpt>
      <trkpt lat="49.95553" lon="2.11665">
        <ele>44.1</ele>
        <time>2022-09-14T13:40:02Z</time>
      </trkpt>
      <trkpt lat="49.95553" lon="2.11667">
        <ele>44</ele>
        <time>2022-09-14T13:40:03Z</time>
      </trkpt>
      <trkpt lat="49.95553" lon="2.11669">
        <ele>43.8</ele>
        <time>2022-09-14T13:40:04Z</time>
      </trkpt>
      <trkpt lat="49.95552" lon="2.11671">
        <ele>43.7</ele>
        <time>2022-09-14T13:40:05Z</time>
      </trkpt>
      <trkpt lat="49.95551" lon="2.11675">
        <ele>43.5</ele>
        <time>2022-09-14T13:40:07Z</time>
      </trkpt>
      <trkpt lat="49.9555" lon="2.11676">
        <ele>43.3</ele>
        <time>2022-09-14T13:40:08Z</time>
      </trkpt>
      <trkpt lat="49.95549" lon="2.11678">
        <ele>43.2</ele>
        <time>2022-09-14T13:40:09Z</time>
      </trkpt>
      <trkpt lat="49.95548" lon="2.1168">
        <ele>43</ele>
        <time>2022-09-14T13:40:10Z</time>
      </trkpt>
      <trkpt lat="49.95548" lon="2.11682">
        <ele>42.9</ele>
        <time>2022-09-14T13:40:11Z</time>
      </trkpt>
      <trkpt lat="49.95545" lon="2.11685">
        <ele>42.6</ele>
        <time>2022-09-14T13:40:13Z</time>
      </trkpt>
      <trkpt lat="49.95545" lon="2.11686">
        <ele>42.5</ele>
        <time>2022-09-14T13:40:14Z</time>
      </trkpt>
      <trkpt lat="49.95543" lon="2.11687">
        <ele>42.4</ele>
        <time>2022-09-14T13:40:15Z</time>
      </trkpt>
      <trkpt lat="49.95397" lon="2.12003">
        <ele>20</ele>
        <time>2022-09-14T13:46:28Z</time>
      </trkpt>
      <trkpt lat="49.95397" lon="2.12004">
        <ele>19.9</ele>
        <time>2022-09-14T13:46:29Z</time>
      </trkpt>
      <trkpt lat="49.95397" lon="2.12005">
        <ele>19.9</ele>
        <time>2022-09-14T13:46:30Z</time>
      </trkpt>
      <trkpt lat="49.95396" lon="2.12">
        <ele>19.8</ele>
        <time>2022-09-14T13:46:31Z</time>
      </trkpt>
      <trkpt lat="49.95396" lon="2.12004">
        <ele>19.7</ele>
        <time>2022-09-14T13:46:32Z</time>
      </trkpt>
      <trkpt lat="49.95396" lon="2.12007">
        <ele>19.5</ele>
        <time>2022-09-14T13:46:34Z</time>
      </trkpt>
      <trkpt lat="49.95395" lon="2.12008">
        <ele>19.5</ele>
        <time>2022-09-14T13:46:35Z</time>
      </trkpt>
      <trkpt lat="49.95395" lon="2.1201">
        <ele>19.4</ele>
        <time>2022-09-14T13:46:36Z</time>
      </trkpt>
      <trkpt lat="49.95395" lon="2.12012">
        <ele>19.3</ele>
        <time>2022-09-14T13:46:37Z</time>
      </trkpt>
      <trkpt lat="49.95395" lon="2.12014">
        <ele>19.2</ele>
        <time>2022-09-14T13:46:39Z</time>
      </trkpt>
      <trkpt lat="49.95394" lon="2.12015">
        <ele>19.2</ele>
        <time>2022-09-14T13:46:40Z</time>
      </trkpt>
      <trkpt lat="49.95393" lon="2.12016">
        <ele>19.1</ele>
        <time>2022-09-14T13:46:41Z</time>
      </trkpt>
      <trkpt lat="49.95393" lon="2.12018">
        <ele>19.1</ele>
        <time>2022-09-14T13:46:43Z</time>
      </trkpt>
      <trkpt lat="49.95392" lon="2.12019">
        <ele>19</ele>
        <time>2022-09-14T13:46:44Z</time>
      </trkpt>
      <trkpt lat="49.95392" lon="2.1202">
        <ele>18.9</ele>
        <time>2022-09-14T13:46:45Z</time>
      </trkpt>
      <trkpt lat="49.95391" lon="2.12023">
        <ele>18.8</ele>
        <time>2022-09-14T13:46:46Z</time>
      </trkpt>
      <trkpt lat="49.9539" lon="2.12024">
        <ele>18.8</ele>
        <time>2022-09-14T13:46:47Z</time>
      </trkpt>
      <trkpt lat="49.9539" lon="2.12025">
        <ele>18.7</ele>
        <time>2022-09-14T13:46:48Z</time>
      </trkpt>
      <trkpt lat="49.95389" lon="2.12027">
        <ele>18.6</ele>
        <time>2022-09-14T13:46:49Z</time>
      </trkpt>
      <trkpt lat="49.95388" lon="2.12028">
        <ele>18.5</ele>
        <time>2022-09-14T13:46:50Z</time>
      </trkpt>
      <trkpt lat="49.95387" lon="2.1203">
        <ele>18.5</ele>
        <time>2022-09-14T13:46:52Z</time>
      </trkpt>
      <trkpt lat="49.95386" lon="2.12031">
        <ele>18.4</ele>
        <time>2022-09-14T13:46:53Z</time>
      </trkpt>
      <trkpt lat="49.95385" lon="2.12033">
        <ele>18.3</ele>
        <time>2022-09-14T13:46:54Z</time>
      </trkpt>
      <trkpt lat="49.95385" lon="2.12034">
        <ele>18.2</ele>
        <time>2022-09-14T13:46:55Z</time>
      </trkpt>
      <trkpt lat="49.95384" lon="2.12036">
        <ele>18.1</ele>
        <time>2022-09-14T13:46:56Z</time>
      </trkpt>
      <trkpt lat="49.95383" lon="2.12037">
        <ele>18</ele>
        <time>2022-09-14T13:46:58Z</time>
      </trkpt>
      <trkpt lat="49.95383" lon="2.12039">
        <ele>17.9</ele>
        <time>2022-09-14T13:46:59Z</time>
      </trkpt>
      <trkpt lat="49.95382" lon="2.1204">
        <ele>17.9</ele>
        <time>2022-09-14T13:47:00Z</time>
      </trkpt>
      <trkpt lat="49.95381" lon="2.12041">
        <ele>17.8</ele>
        <time>2022-09-14T13:47:01Z</time>
      </trkpt>
      <trkpt lat="49.95381" lon="2.12042">
        <ele>17.8</ele>
        <time>2022-09-14T13:47:02Z</time>
      </trkpt>
      <trkpt lat="49.95381" lon="2.12043">
        <ele>17.7</ele>
        <time>2022-09-14T13:47:03Z</time>
      </trkpt>
      <trkpt lat="49.9538" lon="2.12044">
        <ele>17.7</ele>
        <time>2022-09-14T13:47:04Z</time>
      </trkpt>
      <trkpt lat="49.9538" lon="2.12043">
        <ele>17.7</ele>
        <time>2022-09-14T13:47:05Z</time>
      </trkpt>
      <trkpt lat="49.9538" lon="2.12044">
        <ele>17.6</ele>
        <time>2022-09-14T13:47:06Z</time>
      </trkpt>
      <trkpt lat="49.95379" lon="2.12045">
        <ele>17.5</ele>
        <time>2022-09-14T13:47:07Z</time>
      </trkpt>
      <trkpt lat="49.95378" lon="2.12046">
        <ele>17.5</ele>
        <time>2022-09-14T13:47:08Z</time>
      </trkpt>
      <trkpt lat="49.95378" lon="2.12048">
        <ele>17.4</ele>
        <time>2022-09-14T13:47:09Z</time>
      </trkpt>
      <trkpt lat="49.95377" lon="2.1205">
        <ele>17.4</ele>
        <time>2022-09-14T13:47:10Z</time>
      </trkpt>
      <trkpt lat="49.95377" lon="2.12052">
        <ele>17.3</ele>
        <time>2022-09-14T13:47:12Z</time>
      </trkpt>
      <trkpt lat="49.95376" lon="2.12053">
        <ele>17.2</ele>
        <time>2022-09-14T13:47:13Z</time>
      </trkpt>
      <trkpt lat="49.95376" lon="2.12054">
        <ele>17.2</ele>
        <time>2022-09-14T13:47:14Z</time>
      </trkpt>
      <trkpt lat="49.95376" lon="2.12057">
        <ele>17.1</ele>
        <time>2022-09-14T13:47:15Z</time>
      </trkpt>
      <trkpt lat="49.95376" lon="2.12059">
        <ele>17.1</ele>
        <time>2022-09-14T13:47:16Z</time>
      </trkpt>
      <trkpt lat="49.95376" lon="2.1206">
        <ele>17</ele>
        <time>2022-09-14T13:47:17Z</time>
      </trkpt>
      <trkpt lat="49.95376" lon="2.12062">
        <ele>17</ele>
        <time>2022-09-14T13:47:18Z</time>
      </trkpt>
      <trkpt lat="49.95376" lon="2.12064">
        <ele>16.9</ele>
        <time>2022-09-14T13:47:20Z</time>
      </trkpt>
      <trkpt lat="49.95376" lon="2.12065">
        <ele>16.9</ele>
        <time>2022-09-14T13:47:21Z</time>
      </trkpt>
      <trkpt lat="49.95376" lon="2.12067">
        <ele>16.8</ele>
        <time>2022-09-14T13:47:22Z</time>
      </trkpt>
      <trkpt lat="49.95376" lon="2.12068">
        <ele>16.7</ele>
        <time>2022-09-14T13:47:23Z</time>
      </trkpt>
      <trkpt lat="49.95375" lon="2.1207">
        <ele>16.7</ele>
        <time>2022-09-14T13:47:24Z</time>
      </trkpt>
      <trkpt lat="49.95375" lon="2.12072">
        <ele>16.7</ele>
        <time>2022-09-14T13:47:25Z</time>
      </trkpt>
      <trkpt lat="49.95374" lon="2.12074">
        <ele>16.7</ele>
        <time>2022-09-14T13:47:26Z</time>
      </trkpt>
      <trkpt lat="49.95372" lon="2.12077">
        <ele>16.7</ele>
        <time>2022-09-14T13:47:27Z</time>
      </trkpt>
      <trkpt lat="49.95371" lon="2.12078">
        <ele>16.7</ele>
        <time>2022-09-14T13:47:28Z</time>
      </trkpt>
      <trkpt lat="49.9537" lon="2.1208">
        <ele>16.7</ele>
        <time>2022-09-14T13:47:30Z</time>
      </trkpt>
      <trkpt lat="49.95369" lon="2.12081">
        <ele>16.7</ele>
        <time>2022-09-14T13:47:31Z</time>
      </trkpt>
      <trkpt lat="49.95367" lon="2.12083">
        <ele>16.7</ele>
        <time>2022-09-14T13:47:32Z</time>
      </trkpt>
      <trkpt lat="49.95366" lon="2.12083">
        <ele>16.7</ele>
        <time>2022-09-14T13:47:33Z</time>
      </trkpt>
      <trkpt lat="49.95365" lon="2.12084">
        <ele>16.7</ele>
        <time>2022-09-14T13:47:34Z</time>
      </trkpt>
      <trkpt lat="49.95364" lon="2.12086">
        <ele>16.7</ele>
        <time>2022-09-14T13:47:35Z</time>
      </trkpt>
      <trkpt lat="49.95363" lon="2.12087">
        <ele>16.7</ele>
        <time>2022-09-14T13:47:36Z</time>
      </trkpt>
      <trkpt lat="49.95362" lon="2.12088">
        <ele>16.7</ele>
        <time>2022-09-14T13:47:37Z</time>
      </trkpt>
      <trkpt lat="49.9536" lon="2.12091">
        <ele>16.7</ele>
        <time>2022-09-14T13:47:38Z</time>
      </trkpt>
      <trkpt lat="49.95359" lon="2.12092">
        <ele>16.7</ele>
        <time>2022-09-14T13:47:39Z</time>
      </trkpt>
      <trkpt lat="49.95358" lon="2.12093">
        <ele>16.7</ele>
        <time>2022-09-14T13:47:41Z</time>
      </trkpt>
      <trkpt lat="49.95356" lon="2.12094">
        <ele>16.7</ele>
        <time>2022-09-14T13:47:42Z</time>
      </trkpt>
      <trkpt lat="49.95355" lon="2.12095">
        <ele>16.7</ele>
        <time>2022-09-14T13:47:43Z</time>
      </trkpt>
      <trkpt lat="49.95354" lon="2.12096">
        <ele>16.7</ele>
        <time>2022-09-14T13:47:44Z</time>
      </trkpt>
      <trkpt lat="49.95352" lon="2.12098">
        <ele>16.7</ele>
        <time>2022-09-14T13:47:45Z</time>
      </trkpt>
      <trkpt lat="49.95351" lon="2.12099">
        <ele>16.7</ele>
        <time>2022-09-14T13:47:46Z</time>
      </trkpt>
      <trkpt lat="49.95351" lon="2.12099">
        <ele>16.7</ele>
        <time>2022-09-14T13:47:47Z</time>
      </trkpt>
      <trkpt lat="49.95349" lon="2.12101">
        <ele>16.7</ele>
        <time>2022-09-14T13:47:48Z</time>
      </trkpt>
      <trkpt lat="49.95348" lon="2.12102">
        <ele>16.7</ele>
        <time>2022-09-14T13:47:49Z</time>
      </trkpt>
      <trkpt lat="49.95347" lon="2.12103">
        <ele>16.7</ele>
        <time>2022-09-14T13:47:50Z</time>
      </trkpt>
      <trkpt lat="49.95346" lon="2.12104">
        <ele>16.7</ele>
        <time>2022-09-14T13:47:51Z</time>
      </trkpt>
      <trkpt lat="49.95344" lon="2.12105">
        <ele>16.7</ele>
        <time>2022-09-14T13:47:53Z</time>
      </trkpt>
      <trkpt lat="49.95343" lon="2.12106">
        <ele>16.7</ele>
        <time>2022-09-14T13:47:54Z</time>
      </trkpt>
      <trkpt lat="49.95342" lon="2.12108">
        <ele>16.7</ele>
        <time>2022-09-14T13:47:55Z</time>
      </trkpt>
      <trkpt lat="49.95341" lon="2.12109">
        <ele>16.7</ele>
        <time>2022-09-14T13:47:56Z</time>
      </trkpt>
      <trkpt lat="49.9534" lon="2.12109">
        <ele>16.7</ele>
        <time>2022-09-14T13:47:57Z</time>
      </trkpt>
      <trkpt lat="49.95339" lon="2.1211">
        <ele>16.7</ele>
        <time>2022-09-14T13:47:58Z</time>
      </trkpt>
      <trkpt lat="49.95339" lon="2.1211">
        <ele>16.7</ele>
        <time>2022-09-14T13:47:59Z</time>
      </trkpt>
      <trkpt lat="49.95338" lon="2.1211">
        <ele>16.7</ele>
        <time>2022-09-14T13:48:00Z</time>
      </trkpt>
      <trkpt lat="49.95336" lon="2.12112">
        <ele>16.7</ele>
        <time>2022-09-14T13:48:01Z</time>
      </trkpt>
      <trkpt lat="49.95336" lon="2.12113">
        <ele>16.7</ele>
        <time>2022-09-14T13:48:02Z</time>
      </trkpt>
      <trkpt lat="49.95335" lon="2.12114">
        <ele>16.7</ele>
        <time>2022-09-14T13:48:03Z</time>
      </trkpt>
      <trkpt lat="49.95333" lon="2.12116">
        <ele>16.7</ele>
        <time>2022-09-14T13:48:05Z</time>
      </trkpt>
      <trkpt lat="49.95332" lon="2.12118">
        <ele>16.6</ele>
        <time>2022-09-14T13:48:06Z</time>
      </trkpt>
      <trkpt lat="49.95331" lon="2.12118">
        <ele>16.6</ele>
        <time>2022-09-14T13:48:07Z</time>
      </trkpt>
      <trkpt lat="49.9533" lon="2.12119">
        <ele>16.6</ele>
        <time>2022-09-14T13:48:08Z</time>
      </trkpt>
      <trkpt lat="49.95329" lon="2.12119">
        <ele>16.6</ele>
        <time>2022-09-14T13:48:09Z</time>
      </trkpt>
      <trkpt lat="49.95328" lon="2.1212">
        <ele>16.6</ele>
        <time>2022-09-14T13:48:10Z</time>
      </trkpt>
      <trkpt lat="49.95326" lon="2.12119">
        <ele>17.4</ele>
        <time>2022-09-14T13:48:11Z</time>
      </trkpt>
      <trkpt lat="49.95325" lon="2.12119">
        <ele>17.5</ele>
        <time>2022-09-14T13:48:12Z</time>
      </trkpt>
      <trkpt lat="49.95323" lon="2.12118">
        <ele>17.5</ele>
        <time>2022-09-14T13:48:13Z</time>
      </trkpt>
      <trkpt lat="49.95322" lon="2.12116">
        <ele>17.6</ele>
        <time>2022-09-14T13:48:15Z</time>
      </trkpt>
      <trkpt lat="49.95321" lon="2.12115">
        <ele>17.6</ele>
        <time>2022-09-14T13:48:16Z</time>
      </trkpt>
      <trkpt lat="49.9532" lon="2.12113">
        <ele>17.7</ele>
        <time>2022-09-14T13:48:17Z</time>
      </trkpt>
      <trkpt lat="49.95318" lon="2.12111">
        <ele>17.8</ele>
        <time>2022-09-14T13:48:19Z</time>
      </trkpt>
      <trkpt lat="49.95318" lon="2.12109">
        <ele>18.1</ele>
        <time>2022-09-14T13:48:20Z</time>
      </trkpt>
      <trkpt lat="49.95317" lon="2.12108">
        <ele>18.2</ele>
        <time>2022-09-14T13:48:21Z</time>
      </trkpt>
      <trkpt lat="49.95317" lon="2.12107">
        <ele>18.2</ele>
        <time>2022-09-14T13:48:22Z</time>
      </trkpt>
      <trkpt lat="49.95316" lon="2.12106">
        <ele>18.3</ele>
        <time>2022-09-14T13:48:23Z</time>
      </trkpt>
      <trkpt lat="49.95315" lon="2.12103">
        <ele>18.4</ele>
        <time>2022-09-14T13:48:25Z</time>
      </trkpt>
      <trkpt lat="49.95315" lon="2.12103">
        <ele>18.4</ele>
        <time>2022-09-14T13:48:26Z</time>
      </trkpt>
      <trkpt lat="49.95315" lon="2.12102">
        <ele>18.5</ele>
        <time>2022-09-14T13:48:27Z</time>
      </trkpt>
      <trkpt lat="49.95315" lon="2.12101">
        <ele>18.5</ele>
        <time>2022-09-14T13:48:28Z</time>
      </trkpt>
      <trkpt lat="49.95314" lon="2.121">
        <ele>18.5</ele>
        <time>2022-09-14T13:48:29Z</time>
      </trkpt>
      <trkpt lat="49.95314" lon="2.12098">
        <ele>18.6</ele>
        <time>2022-09-14T13:48:30Z</time>
      </trkpt>
      <trkpt lat="49.95313" lon="2.12095">
        <ele>18.8</ele>
        <time>2022-09-14T13:48:32Z</time>
      </trkpt>
      <trkpt lat="49.95313" lon="2.12094">
        <ele>18.8</ele>
        <time>2022-09-14T13:48:33Z</time>
      </trkpt>
      <trkpt lat="49.95313" lon="2.12093">
        <ele>18.9</ele>
        <time>2022-09-14T13:48:34Z</time>
      </trkpt>
      <trkpt lat="49.95312" lon="2.1209">
        <ele>19</ele>
        <time>2022-09-14T13:48:36Z</time>
      </trkpt>
      <trkpt lat="49.95312" lon="2.12089">
        <ele>19.1</ele>
        <time>2022-09-14T13:48:37Z</time>
      </trkpt>
      <trkpt lat="49.95312" lon="2.12087">
        <ele>19.1</ele>
        <time>2022-09-14T13:48:38Z</time>
      </trkpt>
      <trkpt lat="49.95311" lon="2.12086">
        <ele>19.2</ele>
        <time>2022-09-14T13:48:40Z</time>
      </trkpt>
      <trkpt lat="49.95311" lon="2.12085">
        <ele>19.3</ele>
        <time>2022-09-14T13:48:41Z</time>
      </trkpt>
      <trkpt lat="49.95311" lon="2.12083">
        <ele>19.3</ele>
        <time>2022-09-14T13:48:42Z</time>
      </trkpt>
      <trkpt lat="49.9531" lon="2.12083">
        <ele>19.4</ele>
        <time>2022-09-14T13:48:43Z</time>
      </trkpt>
      <trkpt lat="49.9531" lon="2.12083">
        <ele>19.4</ele>
        <time>2022-09-14T13:48:44Z</time>
      </trkpt>
      <trkpt lat="49.9531" lon="2.12084">
        <ele>19.4</ele>
        <time>2022-09-14T13:48:45Z</time>
      </trkpt>
      <trkpt lat="49.9531" lon="2.12083">
        <ele>19.4</ele>
        <time>2022-09-14T13:48:46Z</time>
      </trkpt>
      <trkpt lat="49.95309" lon="2.12082">
        <ele>19.5</ele>
        <time>2022-09-14T13:48:48Z</time>
      </trkpt>
      <trkpt lat="49.95308" lon="2.12081">
        <ele>19.6</ele>
        <time>2022-09-14T13:48:49Z</time>
      </trkpt>
      <trkpt lat="49.95306" lon="2.1208">
        <ele>19.8</ele>
        <time>2022-09-14T13:48:50Z</time>
      </trkpt>
      <trkpt lat="49.95305" lon="2.12078">
        <ele>19.9</ele>
        <time>2022-09-14T13:48:51Z</time>
      </trkpt>
      <trkpt lat="49.95304" lon="2.12076">
        <ele>20</ele>
        <time>2022-09-14T13:48:53Z</time>
      </trkpt>
      <trkpt lat="49.95304" lon="2.12075">
        <ele>20.1</ele>
        <time>2022-09-14T13:48:54Z</time>
      </trkpt>
      <trkpt lat="49.95303" lon="2.12073">
        <ele>20.2</ele>
        <time>2022-09-14T13:48:55Z</time>
      </trkpt>
      <trkpt lat="49.95303" lon="2.12072">
        <ele>20.3</ele>
        <time>2022-09-14T13:48:56Z</time>
      </trkpt>
      <trkpt lat="49.95302" lon="2.1207">
        <ele>20.4</ele>
        <time>2022-09-14T13:48:57Z</time>
      </trkpt>
      <trkpt lat="49.95301" lon="2.12069">
        <ele>20.5</ele>
        <time>2022-09-14T13:48:58Z</time>
      </trkpt>
      <trkpt lat="49.95299" lon="2.12064">
        <ele>20.8</ele>
        <time>2022-09-14T13:49:00Z</time>
      </trkpt>
      <trkpt lat="49.95299" lon="2.12064">
        <ele>20.9</ele>
        <time>2022-09-14T13:49:01Z</time>
      </trkpt>
      <trkpt lat="49.95298" lon="2.12062">
        <ele>20.9</ele>
        <time>2022-09-14T13:49:02Z</time>
      </trkpt>
      <trkpt lat="49.95297" lon="2.12061">
        <ele>21</ele>
        <time>2022-09-14T13:49:03Z</time>
      </trkpt>
      <trkpt lat="49.95297" lon="2.12061">
        <ele>21.1</ele>
        <time>2022-09-14T13:49:04Z</time>
      </trkpt>
      <trkpt lat="49.95298" lon="2.12061">
        <ele>21.1</ele>
        <time>2022-09-14T13:49:05Z</time>
      </trkpt>
      <trkpt lat="49.95298" lon="2.1206">
        <ele>21.2</ele>
        <time>2022-09-14T13:49:06Z</time>
      </trkpt>
      <trkpt lat="49.95297" lon="2.12059">
        <ele>21.3</ele>
        <time>2022-09-14T13:49:07Z</time>
      </trkpt>
      <trkpt lat="49.95296" lon="2.12057">
        <ele>21.4</ele>
        <time>2022-09-14T13:49:09Z</time>
      </trkpt>
      <trkpt lat="49.95295" lon="2.12055">
        <ele>21.5</ele>
        <time>2022-09-14T13:49:10Z</time>
      </trkpt>
      <trkpt lat="49.95294" lon="2.12054">
        <ele>21.6</ele>
        <time>2022-09-14T13:49:11Z</time>
      </trkpt>
      <trkpt lat="49.95293" lon="2.12051">
        <ele>21.8</ele>
        <time>2022-09-14T13:49:13Z</time>
      </trkpt>
      <trkpt lat="49.95292" lon="2.12049">
        <ele>22</ele>
        <time>2022-09-14T13:49:14Z</time>
      </trkpt>
      <trkpt lat="49.95292" lon="2.12048">
        <ele>22</ele>
        <time>2022-09-14T13:49:15Z</time>
      </trkpt>
      <trkpt lat="49.95292" lon="2.12047">
        <ele>22.1</ele>
        <time>2022-09-14T13:49:16Z</time>
      </trkpt>
      <trkpt lat="49.95291" lon="2.12046">
        <ele>22.1</ele>
        <time>2022-09-14T13:49:17Z</time>
      </trkpt>
      <trkpt lat="49.95291" lon="2.12046">
        <ele>22.2</ele>
        <time>2022-09-14T13:49:18Z</time>
      </trkpt>
      <trkpt lat="49.9529" lon="2.12045">
        <ele>22.3</ele>
        <time>2022-09-14T13:49:19Z</time>
      </trkpt>
      <trkpt lat="49.95289" lon="2.12044">
        <ele>22.3</ele>
        <time>2022-09-14T13:49:20Z</time>
      </trkpt>
      <trkpt lat="49.95289" lon="2.12043">
        <ele>22.4</ele>
        <time>2022-09-14T13:49:21Z</time>
      </trkpt>
      <trkpt lat="49.95288" lon="2.12041">
        <ele>22.5</ele>
        <time>2022-09-14T13:49:22Z</time>
      </trkpt>
      <trkpt lat="49.95287" lon="2.1204">
        <ele>22.6</ele>
        <time>2022-09-14T13:49:23Z</time>
      </trkpt>
      <trkpt lat="49.95287" lon="2.1204">
        <ele>22.6</ele>
        <time>2022-09-14T13:49:24Z</time>
      </trkpt>
      <trkpt lat="49.95286" lon="2.12039">
        <ele>22.7</ele>
        <time>2022-09-14T13:49:25Z</time>
      </trkpt>
      <trkpt lat="49.95285" lon="2.12036">
        <ele>22.9</ele>
        <time>2022-09-14T13:49:27Z</time>
      </trkpt>
      <trkpt lat="49.95284" lon="2.12035">
        <ele>22.9</ele>
        <time>2022-09-14T13:49:28Z</time>
      </trkpt>
      <trkpt lat="49.95284" lon="2.12034">
        <ele>23</ele>
        <time>2022-09-14T13:49:29Z</time>
      </trkpt>
      <trkpt lat="49.95283" lon="2.12033">
        <ele>23.1</ele>
        <time>2022-09-14T13:49:30Z</time>
      </trkpt>
      <trkpt lat="49.95282" lon="2.12031">
        <ele>23.2</ele>
        <time>2022-09-14T13:49:32Z</time>
      </trkpt>
      <trkpt lat="49.95282" lon="2.1203">
        <ele>23.3</ele>
        <time>2022-09-14T13:49:33Z</time>
      </trkpt>
      <trkpt lat="49.95281" lon="2.12029">
        <ele>23.3</ele>
        <time>2022-09-14T13:49:34Z</time>
      </trkpt>
      <trkpt lat="49.95281" lon="2.12028">
        <ele>23.4</ele>
        <time>2022-09-14T13:49:35Z</time>
      </trkpt>
      <trkpt lat="49.9528" lon="2.12027">
        <ele>23.5</ele>
        <time>2022-09-14T13:49:36Z</time>
      </trkpt>
      <trkpt lat="49.9528" lon="2.12026">
        <ele>23.5</ele>
        <time>2022-09-14T13:49:37Z</time>
      </trkpt>
      <trkpt lat="49.95278" lon="2.12023">
        <ele>23.7</ele>
        <time>2022-09-14T13:49:39Z</time>
      </trkpt>
      <trkpt lat="49.95278" lon="2.12023">
        <ele>23.7</ele>
        <time>2022-09-14T13:49:40Z</time>
      </trkpt>
      <trkpt lat="49.95278" lon="2.12021">
        <ele>23.8</ele>
        <time>2022-09-14T13:49:41Z</time>
      </trkpt>
      <trkpt lat="49.95277" lon="2.1202">
        <ele>23.9</ele>
        <time>2022-09-14T13:49:42Z</time>
      </trkpt>
      <trkpt lat="49.95276" lon="2.12018">
        <ele>24</ele>
        <time>2022-09-14T13:49:43Z</time>
      </trkpt>
      <trkpt lat="49.95275" lon="2.12016">
        <ele>24.1</ele>
        <time>2022-09-14T13:49:45Z</time>
      </trkpt>
      <trkpt lat="49.95274" lon="2.12014">
        <ele>24.2</ele>
        <time>2022-09-14T13:49:46Z</time>
      </trkpt>
      <trkpt lat="49.95272" lon="2.12012">
        <ele>24.4</ele>
        <time>2022-09-14T13:49:47Z</time>
      </trkpt>
      <trkpt lat="49.95271" lon="2.12011">
        <ele>24.4</ele>
        <time>2022-09-14T13:49:48Z</time>
      </trkpt>
      <trkpt lat="49.9527" lon="2.12008">
        <ele>24.6</ele>
        <time>2022-09-14T13:49:49Z</time>
      </trkpt>
      <trkpt lat="49.9527" lon="2.12007">
        <ele>24.6</ele>
        <time>2022-09-14T13:49:51Z</time>
      </trkpt>
      <trkpt lat="49.95269" lon="2.12006">
        <ele>24.7</ele>
        <time>2022-09-14T13:49:52Z</time>
      </trkpt>
      <trkpt lat="49.95268" lon="2.12005">
        <ele>24.8</ele>
        <time>2022-09-14T13:49:53Z</time>
      </trkpt>
      <trkpt lat="49.95267" lon="2.12003">
        <ele>24.9</ele>
        <time>2022-09-14T13:49:54Z</time>
      </trkpt>
      <trkpt lat="49.95266" lon="2.12001">
        <ele>25</ele>
        <time>2022-09-14T13:49:55Z</time>
      </trkpt>
      <trkpt lat="49.95265" lon="2.11999">
        <ele>25.1</ele>
        <time>2022-09-14T13:49:57Z</time>
      </trkpt>
      <trkpt lat="49.95264" lon="2.11997">
        <ele>25.2</ele>
        <time>2022-09-14T13:49:58Z</time>
      </trkpt>
      <trkpt lat="49.95264" lon="2.11995">
        <ele>25.3</ele>
        <time>2022-09-14T13:49:59Z</time>
      </trkpt>
      <trkpt lat="49.95262" lon="2.11992">
        <ele>25.4</ele>
        <time>2022-09-14T13:50:00Z</time>
      </trkpt>
      <trkpt lat="49.95262" lon="2.11991">
        <ele>25.5</ele>
        <time>2022-09-14T13:50:01Z</time>
      </trkpt>
      <trkpt lat="49.95262" lon="2.1199">
        <ele>25.5</ele>
        <time>2022-09-14T13:50:02Z</time>
      </trkpt>
      <trkpt lat="49.95261" lon="2.11989">
        <ele>25.6</ele>
        <time>2022-09-14T13:50:03Z</time>
      </trkpt>
      <trkpt lat="49.9526" lon="2.11986">
        <ele>25.7</ele>
        <time>2022-09-14T13:50:05Z</time>
      </trkpt>
      <trkpt lat="49.95259" lon="2.11985">
        <ele>25.8</ele>
        <time>2022-09-14T13:50:06Z</time>
      </trkpt>
      <trkpt lat="49.95259" lon="2.11984">
        <ele>25.8</ele>
        <time>2022-09-14T13:50:07Z</time>
      </trkpt>
      <trkpt lat="49.95258" lon="2.11983">
        <ele>25.9</ele>
        <time>2022-09-14T13:50:08Z</time>
      </trkpt>
      <trkpt lat="49.95257" lon="2.1198">
        <ele>26</ele>
        <time>2022-09-14T13:50:10Z</time>
      </trkpt>
      <trkpt lat="49.95257" lon="2.11979">
        <ele>26.1</ele>
        <time>2022-09-14T13:50:11Z</time>
      </trkpt>
      <trkpt lat="49.95257" lon="2.11977">
        <ele>26.1</ele>
        <time>2022-09-14T13:50:12Z</time>
      </trkpt>
      <trkpt lat="49.95256" lon="2.11976">
        <ele>26.2</ele>
        <time>2022-09-14T13:50:13Z</time>
      </trkpt>
      <trkpt lat="49.95256" lon="2.11974">
        <ele>26.3</ele>
        <time>2022-09-14T13:50:14Z</time>
      </trkpt>
      <trkpt lat="49.95255" lon="2.11972">
        <ele>26.4</ele>
        <time>2022-09-14T13:50:15Z</time>
      </trkpt>
      <trkpt lat="49.95255" lon="2.1197">
        <ele>26.4</ele>
        <time>2022-09-14T13:50:17Z</time>
      </trkpt>
      <trkpt lat="49.95254" lon="2.11969">
        <ele>26.5</ele>
        <time>2022-09-14T13:50:18Z</time>
      </trkpt>
      <trkpt lat="49.95254" lon="2.11967">
        <ele>26.6</ele>
        <time>2022-09-14T13:50:19Z</time>
      </trkpt>
      <trkpt lat="49.95253" lon="2.11966">
        <ele>26.6</ele>
        <time>2022-09-14T13:50:20Z</time>
      </trkpt>
      <trkpt lat="49.95253" lon="2.11965">
        <ele>26.6</ele>
        <time>2022-09-14T13:50:21Z</time>
      </trkpt>
      <trkpt lat="49.95252" lon="2.11964">
        <ele>26.7</ele>
        <time>2022-09-14T13:50:22Z</time>
      </trkpt>
      <trkpt lat="49.95251" lon="2.11961">
        <ele>26.8</ele>
        <time>2022-09-14T13:50:24Z</time>
      </trkpt>
      <trkpt lat="49.95251" lon="2.1196">
        <ele>26.9</ele>
        <time>2022-09-14T13:50:25Z</time>
      </trkpt>
      <trkpt lat="49.95251" lon="2.11959">
        <ele>26.9</ele>
        <time>2022-09-14T13:50:26Z</time>
      </trkpt>
      <trkpt lat="49.9525" lon="2.11958">
        <ele>27</ele>
        <time>2022-09-14T13:50:27Z</time>
      </trkpt>
      <trkpt lat="49.9525" lon="2.11956">
        <ele>27</ele>
        <time>2022-09-14T13:50:28Z</time>
      </trkpt>
      <trkpt lat="49.95249" lon="2.11954">
        <ele>27.1</ele>
        <time>2022-09-14T13:50:29Z</time>
      </trkpt>
      <trkpt lat="49.95249" lon="2.11953">
        <ele>27.1</ele>
        <time>2022-09-14T13:50:30Z</time>
      </trkpt>
      <trkpt lat="49.95248" lon="2.1195">
        <ele>27.2</ele>
        <time>2022-09-14T13:50:32Z</time>
      </trkpt>
      <trkpt lat="49.95248" lon="2.11949">
        <ele>27.2</ele>
        <time>2022-09-14T13:50:33Z</time>
      </trkpt>
      <trkpt lat="49.95247" lon="2.11946">
        <ele>27.2</ele>
        <time>2022-09-14T13:50:34Z</time>
      </trkpt>
      <trkpt lat="49.95246" lon="2.11945">
        <ele>27.2</ele>
        <time>2022-09-14T13:50:35Z</time>
      </trkpt>
      <trkpt lat="49.95246" lon="2.11944">
        <ele>27.3</ele>
        <time>2022-09-14T13:50:36Z</time>
      </trkpt>
      <trkpt lat="49.95245" lon="2.11942">
        <ele>27.3</ele>
        <time>2022-09-14T13:50:37Z</time>
      </trkpt>
      <trkpt lat="49.95245" lon="2.1194">
        <ele>27.3</ele>
        <time>2022-09-14T13:50:39Z</time>
      </trkpt>
      <trkpt lat="49.95243" lon="2.11936">
        <ele>27.4</ele>
        <time>2022-09-14T13:50:41Z</time>
      </trkpt>
      <trkpt lat="49.95242" lon="2.11936">
        <ele>27.4</ele>
        <time>2022-09-14T13:50:42Z</time>
      </trkpt>
      <trkpt lat="49.95242" lon="2.11934">
        <ele>27.4</ele>
        <time>2022-09-14T13:50:43Z</time>
      </trkpt>
      <trkpt lat="49.95241" lon="2.11932">
        <ele>27.4</ele>
        <time>2022-09-14T13:50:44Z</time>
      </trkpt>
      <trkpt lat="49.9524" lon="2.11931">
        <ele>27.5</ele>
        <time>2022-09-14T13:50:45Z</time>
      </trkpt>
      <trkpt lat="49.9524" lon="2.1193">
        <ele>27.5</ele>
        <time>2022-09-14T13:50:46Z</time>
      </trkpt>
      <trkpt lat="49.95239" lon="2.11928">
        <ele>27.5</ele>
        <time>2022-09-14T13:50:47Z</time>
      </trkpt>
      <trkpt lat="49.95239" lon="2.11926">
        <ele>27.5</ele>
        <time>2022-09-14T13:50:48Z</time>
      </trkpt>
      <trkpt lat="49.95238" lon="2.11924">
        <ele>27.6</ele>
        <time>2022-09-14T13:50:49Z</time>
      </trkpt>
      <trkpt lat="49.95237" lon="2.11922">
        <ele>27.6</ele>
        <time>2022-09-14T13:50:50Z</time>
      </trkpt>
      <trkpt lat="49.95237" lon="2.11921">
        <ele>27.6</ele>
        <time>2022-09-14T13:50:51Z</time>
      </trkpt>
      <trkpt lat="49.95237" lon="2.11919">
        <ele>27.7</ele>
        <time>2022-09-14T13:50:52Z</time>
      </trkpt>
      <trkpt lat="49.95236" lon="2.11918">
        <ele>27.7</ele>
        <time>2022-09-14T13:50:53Z</time>
      </trkpt>
      <trkpt lat="49.95235" lon="2.11915">
        <ele>27.7</ele>
        <time>2022-09-14T13:50:54Z</time>
      </trkpt>
      <trkpt lat="49.95234" lon="2.11913">
        <ele>27.8</ele>
        <time>2022-09-14T13:50:56Z</time>
      </trkpt>
      <trkpt lat="49.95234" lon="2.11911">
        <ele>27.8</ele>
        <time>2022-09-14T13:50:57Z</time>
      </trkpt>
      <trkpt lat="49.95233" lon="2.1191">
        <ele>27.8</ele>
        <time>2022-09-14T13:50:58Z</time>
      </trkpt>
      <trkpt lat="49.95232" lon="2.11908">
        <ele>27.9</ele>
        <time>2022-09-14T13:50:59Z</time>
      </trkpt>
      <trkpt lat="49.95231" lon="2.11905">
        <ele>28</ele>
        <time>2022-09-14T13:51:00Z</time>
      </trkpt>
      <trkpt lat="49.9523" lon="2.11904">
        <ele>28</ele>
        <time>2022-09-14T13:51:01Z</time>
      </trkpt>
      <trkpt lat="49.9523" lon="2.11902">
        <ele>28</ele>
        <time>2022-09-14T13:51:02Z</time>
      </trkpt>
      <trkpt lat="49.95229" lon="2.119">
        <ele>28.1</ele>
        <time>2022-09-14T13:51:04Z</time>
      </trkpt>
      <trkpt lat="49.95228" lon="2.11898">
        <ele>28.1</ele>
        <time>2022-09-14T13:51:05Z</time>
      </trkpt>
      <trkpt lat="49.95228" lon="2.11897">
        <ele>28.2</ele>
        <time>2022-09-14T13:51:06Z</time>
      </trkpt>
      <trkpt lat="49.95227" lon="2.11895">
        <ele>28.2</ele>
        <time>2022-09-14T13:51:07Z</time>
      </trkpt>
      <trkpt lat="49.95227" lon="2.11894">
        <ele>28.2</ele>
        <time>2022-09-14T13:51:08Z</time>
      </trkpt>
      <trkpt lat="49.95226" lon="2.11891">
        <ele>28.3</ele>
        <time>2022-09-14T13:51:09Z</time>
      </trkpt>
      <trkpt lat="49.95226" lon="2.1189">
        <ele>28.3</ele>
        <time>2022-09-14T13:51:10Z</time>
      </trkpt>
      <trkpt lat="49.95225" lon="2.11888">
        <ele>28.4</ele>
        <time>2022-09-14T13:51:12Z</time>
      </trkpt>
      <trkpt lat="49.95224" lon="2.11887">
        <ele>28.4</ele>
        <time>2022-09-14T13:51:13Z</time>
      </trkpt>
      <trkpt lat="49.95223" lon="2.11885">
        <ele>28.5</ele>
        <time>2022-09-14T13:51:14Z</time>
      </trkpt>
      <trkpt lat="49.95223" lon="2.11884">
        <ele>28.5</ele>
        <time>2022-09-14T13:51:15Z</time>
      </trkpt>
      <trkpt lat="49.95222" lon="2.11883">
        <ele>28.5</ele>
        <time>2022-09-14T13:51:16Z</time>
      </trkpt>
      <trkpt lat="49.95222" lon="2.11881">
        <ele>28.5</ele>
        <time>2022-09-14T13:51:17Z</time>
      </trkpt>
      <trkpt lat="49.95221" lon="2.1188">
        <ele>28.6</ele>
        <time>2022-09-14T13:51:18Z</time>
      </trkpt>
      <trkpt lat="49.95221" lon="2.11878">
        <ele>28.6</ele>
        <time>2022-09-14T13:51:19Z</time>
      </trkpt>
      <trkpt lat="49.9522" lon="2.11876">
        <ele>28.7</ele>
        <time>2022-09-14T13:51:20Z</time>
      </trkpt>
      <trkpt lat="49.9522" lon="2.11875">
        <ele>28.7</ele>
        <time>2022-09-14T13:51:21Z</time>
      </trkpt>
      <trkpt lat="49.95219" lon="2.11873">
        <ele>28.7</ele>
        <time>2022-09-14T13:51:23Z</time>
      </trkpt>
      <trkpt lat="49.95218" lon="2.11871">
        <ele>28.8</ele>
        <time>2022-09-14T13:51:24Z</time>
      </trkpt>
      <trkpt lat="49.95218" lon="2.1187">
        <ele>28.8</ele>
        <time>2022-09-14T13:51:25Z</time>
      </trkpt>
      <trkpt lat="49.95217" lon="2.11868">
        <ele>28.8</ele>
        <time>2022-09-14T13:51:26Z</time>
      </trkpt>
      <trkpt lat="49.95216" lon="2.11865">
        <ele>28.9</ele>
        <time>2022-09-14T13:51:28Z</time>
      </trkpt>
      <trkpt lat="49.95215" lon="2.11862">
        <ele>29</ele>
        <time>2022-09-14T13:51:29Z</time>
      </trkpt>
      <trkpt lat="49.95215" lon="2.1186">
        <ele>29</ele>
        <time>2022-09-14T13:51:30Z</time>
      </trkpt>
      <trkpt lat="49.95215" lon="2.11859">
        <ele>29</ele>
        <time>2022-09-14T13:51:31Z</time>
      </trkpt>
      <trkpt lat="49.95214" lon="2.11856">
        <ele>29.1</ele>
        <time>2022-09-14T13:51:32Z</time>
      </trkpt>
      <trkpt lat="49.95213" lon="2.11854">
        <ele>29.2</ele>
        <time>2022-09-14T13:51:33Z</time>
      </trkpt>
      <trkpt lat="49.95213" lon="2.11853">
        <ele>29.2</ele>
        <time>2022-09-14T13:51:34Z</time>
      </trkpt>
      <trkpt lat="49.95213" lon="2.11851">
        <ele>29.3</ele>
        <time>2022-09-14T13:51:36Z</time>
      </trkpt>
      <trkpt lat="49.95212" lon="2.1185">
        <ele>29.3</ele>
        <time>2022-09-14T13:51:37Z</time>
      </trkpt>
      <trkpt lat="49.95212" lon="2.11849">
        <ele>29.3</ele>
        <time>2022-09-14T13:51:38Z</time>
      </trkpt>
      <trkpt lat="49.95212" lon="2.11846">
        <ele>29.4</ele>
        <time>2022-09-14T13:51:39Z</time>
      </trkpt>
      <trkpt lat="49.95211" lon="2.11845">
        <ele>29.5</ele>
        <time>2022-09-14T13:51:40Z</time>
      </trkpt>
      <trkpt lat="49.95211" lon="2.11841">
        <ele>29.6</ele>
        <time>2022-09-14T13:51:41Z</time>
      </trkpt>
      <trkpt lat="49.95211" lon="2.1184">
        <ele>29.6</ele>
        <time>2022-09-14T13:51:43Z</time>
      </trkpt>
      <trkpt lat="49.9521" lon="2.11838">
        <ele>29.7</ele>
        <time>2022-09-14T13:51:44Z</time>
      </trkpt>
      <trkpt lat="49.9521" lon="2.11837">
        <ele>29.7</ele>
        <time>2022-09-14T13:51:45Z</time>
      </trkpt>
      <trkpt lat="49.9521" lon="2.11835">
        <ele>29.7</ele>
        <time>2022-09-14T13:51:46Z</time>
      </trkpt>
      <trkpt lat="49.9521" lon="2.11834">
        <ele>29.8</ele>
        <time>2022-09-14T13:51:47Z</time>
      </trkpt>
      <trkpt lat="49.9521" lon="2.11832">
        <ele>29.9</ele>
        <time>2022-09-14T13:51:48Z</time>
      </trkpt>
      <trkpt lat="49.95209" lon="2.11829">
        <ele>29.9</ele>
        <time>2022-09-14T13:51:50Z</time>
      </trkpt>
      <trkpt lat="49.95209" lon="2.11828">
        <ele>30</ele>
        <time>2022-09-14T13:51:51Z</time>
      </trkpt>
      <trkpt lat="49.95209" lon="2.11826">
        <ele>30</ele>
        <time>2022-09-14T13:51:52Z</time>
      </trkpt>
      <trkpt lat="49.95209" lon="2.11825">
        <ele>30.1</ele>
        <time>2022-09-14T13:51:53Z</time>
      </trkpt>
      <trkpt lat="49.95209" lon="2.11824">
        <ele>30.1</ele>
        <time>2022-09-14T13:51:54Z</time>
      </trkpt>
      <trkpt lat="49.95208" lon="2.11821">
        <ele>30.2</ele>
        <time>2022-09-14T13:51:55Z</time>
      </trkpt>
      <trkpt lat="49.95208" lon="2.1182">
        <ele>30.2</ele>
        <time>2022-09-14T13:51:56Z</time>
      </trkpt>
      <trkpt lat="49.95208" lon="2.11819">
        <ele>30.3</ele>
        <time>2022-09-14T13:51:57Z</time>
      </trkpt>
      <trkpt lat="49.95208" lon="2.11817">
        <ele>30.3</ele>
        <time>2022-09-14T13:51:58Z</time>
      </trkpt>
      <trkpt lat="49.95208" lon="2.11816">
        <ele>30.4</ele>
        <time>2022-09-14T13:51:59Z</time>
      </trkpt>
      <trkpt lat="49.95208" lon="2.11814">
        <ele>30.4</ele>
        <time>2022-09-14T13:52:00Z</time>
      </trkpt>
      <trkpt lat="49.95208" lon="2.11813">
        <ele>30.5</ele>
        <time>2022-09-14T13:52:01Z</time>
      </trkpt>
      <trkpt lat="49.95208" lon="2.11811">
        <ele>30.5</ele>
        <time>2022-09-14T13:52:02Z</time>
      </trkpt>
      <trkpt lat="49.95208" lon="2.11808">
        <ele>30.6</ele>
        <time>2022-09-14T13:52:03Z</time>
      </trkpt>
      <trkpt lat="49.95208" lon="2.11807">
        <ele>30.6</ele>
        <time>2022-09-14T13:52:05Z</time>
      </trkpt>
      <trkpt lat="49.95207" lon="2.11805">
        <ele>30.7</ele>
        <time>2022-09-14T13:52:06Z</time>
      </trkpt>
      <trkpt lat="49.95207" lon="2.11804">
        <ele>30.7</ele>
        <time>2022-09-14T13:52:07Z</time>
      </trkpt>
      <trkpt lat="49.95207" lon="2.11802">
        <ele>30.8</ele>
        <time>2022-09-14T13:52:08Z</time>
      </trkpt>
      <trkpt lat="49.95207" lon="2.118">
        <ele>30.9</ele>
        <time>2022-09-14T13:52:09Z</time>
      </trkpt>
      <trkpt lat="49.95206" lon="2.11798">
        <ele>30.9</ele>
        <time>2022-09-14T13:52:10Z</time>
      </trkpt>
      <trkpt lat="49.95206" lon="2.11797">
        <ele>31</ele>
        <time>2022-09-14T13:52:11Z</time>
      </trkpt>
      <trkpt lat="49.95206" lon="2.11796">
        <ele>31</ele>
        <time>2022-09-14T13:52:12Z</time>
      </trkpt>
      <trkpt lat="49.95205" lon="2.11795">
        <ele>31.1</ele>
        <time>2022-09-14T13:52:13Z</time>
      </trkpt>
      <trkpt lat="49.95205" lon="2.11793">
        <ele>31.1</ele>
        <time>2022-09-14T13:52:14Z</time>
      </trkpt>
      <trkpt lat="49.95205" lon="2.11791">
        <ele>31.2</ele>
        <time>2022-09-14T13:52:15Z</time>
      </trkpt>
      <trkpt lat="49.95204" lon="2.11788">
        <ele>31.3</ele>
        <time>2022-09-14T13:52:17Z</time>
      </trkpt>
      <trkpt lat="49.95204" lon="2.11787">
        <ele>31.3</ele>
        <time>2022-09-14T13:52:18Z</time>
      </trkpt>
      <trkpt lat="49.95204" lon="2.11785">
        <ele>31.4</ele>
        <time>2022-09-14T13:52:19Z</time>
      </trkpt>
      <trkpt lat="49.95204" lon="2.11783">
        <ele>31.5</ele>
        <time>2022-09-14T13:52:20Z</time>
      </trkpt>
      <trkpt lat="49.95204" lon="2.11782">
        <ele>31.5</ele>
        <time>2022-09-14T13:52:21Z</time>
      </trkpt>
      <trkpt lat="49.95204" lon="2.11779">
        <ele>31.6</ele>
        <time>2022-09-14T13:52:23Z</time>
      </trkpt>
      <trkpt lat="49.95203" lon="2.11777">
        <ele>31.7</ele>
        <time>2022-09-14T13:52:24Z</time>
      </trkpt>
      <trkpt lat="49.95203" lon="2.11775">
        <ele>31.8</ele>
        <time>2022-09-14T13:52:25Z</time>
      </trkpt>
      <trkpt lat="49.95202" lon="2.11774">
        <ele>31.8</ele>
        <time>2022-09-14T13:52:26Z</time>
      </trkpt>
      <trkpt lat="49.95202" lon="2.11772">
        <ele>31.9</ele>
        <time>2022-09-14T13:52:27Z</time>
      </trkpt>
      <trkpt lat="49.95201" lon="2.11771">
        <ele>31.9</ele>
        <time>2022-09-14T13:52:28Z</time>
      </trkpt>
      <trkpt lat="49.952" lon="2.11766">
        <ele>32.1</ele>
        <time>2022-09-14T13:52:30Z</time>
      </trkpt>
      <trkpt lat="49.952" lon="2.11765">
        <ele>32.2</ele>
        <time>2022-09-14T13:52:32Z</time>
      </trkpt>
      <trkpt lat="49.95199" lon="2.11763">
        <ele>32.2</ele>
        <time>2022-09-14T13:52:33Z</time>
      </trkpt>
      <trkpt lat="49.95199" lon="2.11761">
        <ele>32.3</ele>
        <time>2022-09-14T13:52:34Z</time>
      </trkpt>
      <trkpt lat="49.95199" lon="2.1176">
        <ele>32.3</ele>
        <time>2022-09-14T13:52:35Z</time>
      </trkpt>
      <trkpt lat="49.95198" lon="2.11758">
        <ele>32.4</ele>
        <time>2022-09-14T13:52:36Z</time>
      </trkpt>
      <trkpt lat="49.95198" lon="2.11756">
        <ele>32.5</ele>
        <time>2022-09-14T13:52:37Z</time>
      </trkpt>
      <trkpt lat="49.95197" lon="2.11755">
        <ele>32.5</ele>
        <time>2022-09-14T13:52:38Z</time>
      </trkpt>
      <trkpt lat="49.95196" lon="2.11753">
        <ele>32.6</ele>
        <time>2022-09-14T13:52:39Z</time>
      </trkpt>
      <trkpt lat="49.95195" lon="2.11752">
        <ele>32.6</ele>
        <time>2022-09-14T13:52:40Z</time>
      </trkpt>
      <trkpt lat="49.95194" lon="2.1175">
        <ele>32.7</ele>
        <time>2022-09-14T13:52:41Z</time>
      </trkpt>
      <trkpt lat="49.95194" lon="2.11748">
        <ele>32.8</ele>
        <time>2022-09-14T13:52:42Z</time>
      </trkpt>
      <trkpt lat="49.95192" lon="2.11747">
        <ele>32.9</ele>
        <time>2022-09-14T13:52:44Z</time>
      </trkpt>
      <trkpt lat="49.9519" lon="2.11744">
        <ele>33</ele>
        <time>2022-09-14T13:52:45Z</time>
      </trkpt>
      <trkpt lat="49.9519" lon="2.11743">
        <ele>33</ele>
        <time>2022-09-14T13:52:47Z</time>
      </trkpt>
      <trkpt lat="49.95188" lon="2.11739">
        <ele>33.2</ele>
        <time>2022-09-14T13:52:48Z</time>
      </trkpt>
      <trkpt lat="49.95188" lon="2.11737">
        <ele>33.2</ele>
        <time>2022-09-14T13:52:49Z</time>
      </trkpt>
      <trkpt lat="49.95187" lon="2.11736">
        <ele>33.3</ele>
        <time>2022-09-14T13:52:50Z</time>
      </trkpt>
      <trkpt lat="49.95187" lon="2.11734">
        <ele>33.3</ele>
        <time>2022-09-14T13:52:52Z</time>
      </trkpt>
      <trkpt lat="49.95186" lon="2.11733">
        <ele>33.4</ele>
        <time>2022-09-14T13:52:53Z</time>
      </trkpt>
      <trkpt lat="49.95186" lon="2.11731">
        <ele>33.4</ele>
        <time>2022-09-14T13:52:54Z</time>
      </trkpt>
      <trkpt lat="49.95185" lon="2.11729">
        <ele>33.5</ele>
        <time>2022-09-14T13:52:55Z</time>
      </trkpt>
      <trkpt lat="49.95184" lon="2.11727">
        <ele>33.6</ele>
        <time>2022-09-14T13:52:56Z</time>
      </trkpt>
      <trkpt lat="49.95184" lon="2.11726">
        <ele>33.6</ele>
        <time>2022-09-14T13:52:58Z</time>
      </trkpt>
      <trkpt lat="49.95183" lon="2.11725">
        <ele>33.7</ele>
        <time>2022-09-14T13:52:59Z</time>
      </trkpt>
      <trkpt lat="49.95182" lon="2.11724">
        <ele>33.7</ele>
        <time>2022-09-14T13:53:00Z</time>
      </trkpt>
      <trkpt lat="49.95182" lon="2.11722">
        <ele>33.7</ele>
        <time>2022-09-14T13:53:01Z</time>
      </trkpt>
      <trkpt lat="49.95181" lon="2.11721">
        <ele>33.8</ele>
        <time>2022-09-14T13:53:02Z</time>
      </trkpt>
      <trkpt lat="49.95181" lon="2.11719">
        <ele>33.9</ele>
        <time>2022-09-14T13:53:04Z</time>
      </trkpt>
      <trkpt lat="49.9518" lon="2.11718">
        <ele>33.9</ele>
        <time>2022-09-14T13:53:05Z</time>
      </trkpt>
      <trkpt lat="49.9518" lon="2.11718">
        <ele>33.9</ele>
        <time>2022-09-14T13:53:06Z</time>
      </trkpt>
      <trkpt lat="49.95179" lon="2.11718">
        <ele>33.9</ele>
        <time>2022-09-14T13:53:07Z</time>
      </trkpt>
      <trkpt lat="49.95178" lon="2.11715">
        <ele>34</ele>
        <time>2022-09-14T13:53:09Z</time>
      </trkpt>
      <trkpt lat="49.95178" lon="2.11714">
        <ele>34.1</ele>
        <time>2022-09-14T13:53:10Z</time>
      </trkpt>
      <trkpt lat="49.95177" lon="2.11712">
        <ele>34.2</ele>
        <time>2022-09-14T13:53:11Z</time>
      </trkpt>
      <trkpt lat="49.95177" lon="2.1171">
        <ele>34.2</ele>
        <time>2022-09-14T13:53:12Z</time>
      </trkpt>
      <trkpt lat="49.95176" lon="2.11708">
        <ele>34.3</ele>
        <time>2022-09-14T13:53:14Z</time>
      </trkpt>
      <trkpt lat="49.95175" lon="2.11705">
        <ele>34.4</ele>
        <time>2022-09-14T13:53:15Z</time>
      </trkpt>
      <trkpt lat="49.95175" lon="2.11703">
        <ele>34.5</ele>
        <time>2022-09-14T13:53:16Z</time>
      </trkpt>
      <trkpt lat="49.95174" lon="2.117">
        <ele>34.6</ele>
        <time>2022-09-14T13:53:17Z</time>
      </trkpt>
      <trkpt lat="49.95173" lon="2.11699">
        <ele>34.7</ele>
        <time>2022-09-14T13:53:18Z</time>
      </trkpt>
      <trkpt lat="49.95173" lon="2.11698">
        <ele>34.7</ele>
        <time>2022-09-14T13:53:19Z</time>
      </trkpt>
      <trkpt lat="49.95172" lon="2.11696">
        <ele>34.8</ele>
        <time>2022-09-14T13:53:20Z</time>
      </trkpt>
      <trkpt lat="49.95171" lon="2.11695">
        <ele>34.9</ele>
        <time>2022-09-14T13:53:21Z</time>
      </trkpt>
      <trkpt lat="49.95171" lon="2.11693">
        <ele>34.9</ele>
        <time>2022-09-14T13:53:22Z</time>
      </trkpt>
      <trkpt lat="49.95171" lon="2.11692">
        <ele>35</ele>
        <time>2022-09-14T13:53:23Z</time>
      </trkpt>
      <trkpt lat="49.9517" lon="2.11692">
        <ele>35</ele>
        <time>2022-09-14T13:53:24Z</time>
      </trkpt>
      <trkpt lat="49.9517" lon="2.1169">
        <ele>35.1</ele>
        <time>2022-09-14T13:53:26Z</time>
      </trkpt>
      <trkpt lat="49.9517" lon="2.11689">
        <ele>35.1</ele>
        <time>2022-09-14T13:53:27Z</time>
      </trkpt>
      <trkpt lat="49.95169" lon="2.11688">
        <ele>35.2</ele>
        <time>2022-09-14T13:53:28Z</time>
      </trkpt>
      <trkpt lat="49.95169" lon="2.11687">
        <ele>35.2</ele>
        <time>2022-09-14T13:53:29Z</time>
      </trkpt>
      <trkpt lat="49.95168" lon="2.11685">
        <ele>35.3</ele>
        <time>2022-09-14T13:53:30Z</time>
      </trkpt>
      <trkpt lat="49.95168" lon="2.11684">
        <ele>35.3</ele>
        <time>2022-09-14T13:53:31Z</time>
      </trkpt>
      <trkpt lat="49.95167" lon="2.11682">
        <ele>35.4</ele>
        <time>2022-09-14T13:53:33Z</time>
      </trkpt>
      <trkpt lat="49.95167" lon="2.11681">
        <ele>35.5</ele>
        <time>2022-09-14T13:53:34Z</time>
      </trkpt>
      <trkpt lat="49.95165" lon="2.11678">
        <ele>35.6</ele>
        <time>2022-09-14T13:53:36Z</time>
      </trkpt>
      <trkpt lat="49.95165" lon="2.11676">
        <ele>35.7</ele>
        <time>2022-09-14T13:53:37Z</time>
      </trkpt>
      <trkpt lat="49.95164" lon="2.11674">
        <ele>35.7</ele>
        <time>2022-09-14T13:53:38Z</time>
      </trkpt>
      <trkpt lat="49.95164" lon="2.11674">
        <ele>35.8</ele>
        <time>2022-09-14T13:53:39Z</time>
      </trkpt>
      <trkpt lat="49.95164" lon="2.11673">
        <ele>35.8</ele>
        <time>2022-09-14T13:53:40Z</time>
      </trkpt>
      <trkpt lat="49.95163" lon="2.11672">
        <ele>35.8</ele>
        <time>2022-09-14T13:53:41Z</time>
      </trkpt>
      <trkpt lat="49.95163" lon="2.11672">
        <ele>35.8</ele>
        <time>2022-09-14T13:53:42Z</time>
      </trkpt>
      <trkpt lat="49.95163" lon="2.11671">
        <ele>35.9</ele>
        <time>2022-09-14T13:53:43Z</time>
      </trkpt>
      <trkpt lat="49.95162" lon="2.1167">
        <ele>35.9</ele>
        <time>2022-09-14T13:53:44Z</time>
      </trkpt>
      <trkpt lat="49.95162" lon="2.11669">
        <ele>36</ele>
        <time>2022-09-14T13:53:46Z</time>
      </trkpt>
      <trkpt lat="49.95161" lon="2.11667">
        <ele>36</ele>
        <time>2022-09-14T13:53:47Z</time>
      </trkpt>
      <trkpt lat="49.95161" lon="2.11666">
        <ele>36.1</ele>
        <time>2022-09-14T13:53:48Z</time>
      </trkpt>
      <trkpt lat="49.95161" lon="2.11665">
        <ele>36.1</ele>
        <time>2022-09-14T13:53:49Z</time>
      </trkpt>
      <trkpt lat="49.9516" lon="2.11664">
        <ele>36.2</ele>
        <time>2022-09-14T13:53:50Z</time>
      </trkpt>
      <trkpt lat="49.9516" lon="2.11663">
        <ele>36.2</ele>
        <time>2022-09-14T13:53:51Z</time>
      </trkpt>
      <trkpt lat="49.9516" lon="2.11662">
        <ele>36.2</ele>
        <time>2022-09-14T13:53:52Z</time>
      </trkpt>
      <trkpt lat="49.9516" lon="2.1166">
        <ele>36.3</ele>
        <time>2022-09-14T13:53:53Z</time>
      </trkpt>
      <trkpt lat="49.95159" lon="2.11658">
        <ele>36.4</ele>
        <time>2022-09-14T13:53:55Z</time>
      </trkpt>
      <trkpt lat="49.95159" lon="2.11655">
        <ele>36.5</ele>
        <time>2022-09-14T13:53:57Z</time>
      </trkpt>
      <trkpt lat="49.95158" lon="2.11653">
        <ele>36.6</ele>
        <time>2022-09-14T13:53:58Z</time>
      </trkpt>
      <trkpt lat="49.95158" lon="2.11651">
        <ele>36.7</ele>
        <time>2022-09-14T13:53:59Z</time>
      </trkpt>
      <trkpt lat="49.95158" lon="2.1165">
        <ele>36.8</ele>
        <time>2022-09-14T13:54:00Z</time>
      </trkpt>
      <trkpt lat="49.95157" lon="2.11649">
        <ele>36.8</ele>
        <time>2022-09-14T13:54:01Z</time>
      </trkpt>
      <trkpt lat="49.95157" lon="2.11647">
        <ele>37</ele>
        <time>2022-09-14T13:54:03Z</time>
      </trkpt>
      <trkpt lat="49.95157" lon="2.11646">
        <ele>37</ele>
        <time>2022-09-14T13:54:04Z</time>
      </trkpt>
      <trkpt lat="49.95156" lon="2.11644">
        <ele>37.1</ele>
        <time>2022-09-14T13:54:05Z</time>
      </trkpt>
      <trkpt lat="49.95156" lon="2.11641">
        <ele>37.3</ele>
        <time>2022-09-14T13:54:06Z</time>
      </trkpt>
      <trkpt lat="49.95155" lon="2.1164">
        <ele>37.3</ele>
        <time>2022-09-14T13:54:07Z</time>
      </trkpt>
      <trkpt lat="49.95155" lon="2.11639">
        <ele>37.4</ele>
        <time>2022-09-14T13:54:08Z</time>
      </trkpt>
      <trkpt lat="49.95154" lon="2.11636">
        <ele>37.6</ele>
        <time>2022-09-14T13:54:09Z</time>
      </trkpt>
      <trkpt lat="49.95154" lon="2.11635">
        <ele>37.7</ele>
        <time>2022-09-14T13:54:10Z</time>
      </trkpt>
      <trkpt lat="49.95154" lon="2.11634">
        <ele>37.7</ele>
        <time>2022-09-14T13:54:11Z</time>
      </trkpt>
      <trkpt lat="49.95153" lon="2.11631">
        <ele>37.9</ele>
        <time>2022-09-14T13:54:12Z</time>
      </trkpt>
      <trkpt lat="49.95153" lon="2.1163">
        <ele>38</ele>
        <time>2022-09-14T13:54:13Z</time>
      </trkpt>
      <trkpt lat="49.95152" lon="2.11628">
        <ele>38.1</ele>
        <time>2022-09-14T13:54:14Z</time>
      </trkpt>
      <trkpt lat="49.95152" lon="2.11627">
        <ele>38.2</ele>
        <time>2022-09-14T13:54:15Z</time>
      </trkpt>
      <trkpt lat="49.95151" lon="2.11625">
        <ele>38.3</ele>
        <time>2022-09-14T13:54:17Z</time>
      </trkpt>
      <trkpt lat="49.9515" lon="2.11624">
        <ele>38.3</ele>
        <time>2022-09-14T13:54:18Z</time>
      </trkpt>
      <trkpt lat="49.9515" lon="2.11622">
        <ele>38.5</ele>
        <time>2022-09-14T13:54:19Z</time>
      </trkpt>
      <trkpt lat="49.95149" lon="2.1162">
        <ele>38.6</ele>
        <time>2022-09-14T13:54:20Z</time>
      </trkpt>
      <trkpt lat="49.95148" lon="2.11618">
        <ele>38.7</ele>
        <time>2022-09-14T13:54:22Z</time>
      </trkpt>
      <trkpt lat="49.95148" lon="2.11617">
        <ele>38.8</ele>
        <time>2022-09-14T13:54:23Z</time>
      </trkpt>
      <trkpt lat="49.95147" lon="2.11616">
        <ele>38.9</ele>
        <time>2022-09-14T13:54:24Z</time>
      </trkpt>
      <trkpt lat="49.95147" lon="2.11615">
        <ele>38.9</ele>
        <time>2022-09-14T13:54:25Z</time>
      </trkpt>
      <trkpt lat="49.95146" lon="2.11613">
        <ele>39</ele>
        <time>2022-09-14T13:54:26Z</time>
      </trkpt>
      <trkpt lat="49.95146" lon="2.11612">
        <ele>39.1</ele>
        <time>2022-09-14T13:54:27Z</time>
      </trkpt>
      <trkpt lat="49.95144" lon="2.11609">
        <ele>39.3</ele>
        <time>2022-09-14T13:54:29Z</time>
      </trkpt>
      <trkpt lat="49.95144" lon="2.11608">
        <ele>39.4</ele>
        <time>2022-09-14T13:54:30Z</time>
      </trkpt>
      <trkpt lat="49.95143" lon="2.11606">
        <ele>39.5</ele>
        <time>2022-09-14T13:54:31Z</time>
      </trkpt>
      <trkpt lat="49.95142" lon="2.11605">
        <ele>39.6</ele>
        <time>2022-09-14T13:54:32Z</time>
      </trkpt>
      <trkpt lat="49.95141" lon="2.11603">
        <ele>39.7</ele>
        <time>2022-09-14T13:54:34Z</time>
      </trkpt>
      <trkpt lat="49.9514" lon="2.11602">
        <ele>39.8</ele>
        <time>2022-09-14T13:54:35Z</time>
      </trkpt>
      <trkpt lat="49.95139" lon="2.11601">
        <ele>39.9</ele>
        <time>2022-09-14T13:54:36Z</time>
      </trkpt>
      <trkpt lat="49.95137" lon="2.116">
        <ele>40</ele>
        <time>2022-09-14T13:54:37Z</time>
      </trkpt>
      <trkpt lat="49.95136" lon="2.11599">
        <ele>40.1</ele>
        <time>2022-09-14T13:54:39Z</time>
      </trkpt>
      <trkpt lat="49.95135" lon="2.11598">
        <ele>40.1</ele>
        <time>2022-09-14T13:54:40Z</time>
      </trkpt>
      <trkpt lat="49.95134" lon="2.11597">
        <ele>40.2</ele>
        <time>2022-09-14T13:54:41Z</time>
      </trkpt>
      <trkpt lat="49.95133" lon="2.11596">
        <ele>40.3</ele>
        <time>2022-09-14T13:54:42Z</time>
      </trkpt>
      <trkpt lat="49.95132" lon="2.11596">
        <ele>40.4</ele>
        <time>2022-09-14T13:54:43Z</time>
      </trkpt>
      <trkpt lat="49.95131" lon="2.11595">
        <ele>40.5</ele>
        <time>2022-09-14T13:54:44Z</time>
      </trkpt>
      <trkpt lat="49.95129" lon="2.11593">
        <ele>40.6</ele>
        <time>2022-09-14T13:54:46Z</time>
      </trkpt>
      <trkpt lat="49.95128" lon="2.11592">
        <ele>40.7</ele>
        <time>2022-09-14T13:54:47Z</time>
      </trkpt>
      <trkpt lat="49.95127" lon="2.11592">
        <ele>40.8</ele>
        <time>2022-09-14T13:54:48Z</time>
      </trkpt>
      <trkpt lat="49.95126" lon="2.11592">
        <ele>40.9</ele>
        <time>2022-09-14T13:54:49Z</time>
      </trkpt>
      <trkpt lat="49.95125" lon="2.11592">
        <ele>40.9</ele>
        <time>2022-09-14T13:54:51Z</time>
      </trkpt>
      <trkpt lat="49.95124" lon="2.11591">
        <ele>41</ele>
        <time>2022-09-14T13:54:52Z</time>
      </trkpt>
      <trkpt lat="49.95123" lon="2.11591">
        <ele>41.1</ele>
        <time>2022-09-14T13:54:53Z</time>
      </trkpt>
      <trkpt lat="49.95121" lon="2.1159">
        <ele>41.2</ele>
        <time>2022-09-14T13:54:54Z</time>
      </trkpt>
      <trkpt lat="49.9512" lon="2.11589">
        <ele>41.3</ele>
        <time>2022-09-14T13:54:55Z</time>
      </trkpt>
      <trkpt lat="49.95119" lon="2.11589">
        <ele>41.4</ele>
        <time>2022-09-14T13:54:56Z</time>
      </trkpt>
      <trkpt lat="49.95117" lon="2.11588">
        <ele>41.5</ele>
        <time>2022-09-14T13:54:58Z</time>
      </trkpt>
      <trkpt lat="49.95116" lon="2.11588">
        <ele>41.6</ele>
        <time>2022-09-14T13:54:59Z</time>
      </trkpt>
      <trkpt lat="49.95115" lon="2.11587">
        <ele>41.7</ele>
        <time>2022-09-14T13:55:00Z</time>
      </trkpt>
      <trkpt lat="49.95115" lon="2.11589">
        <ele>41.7</ele>
        <time>2022-09-14T13:55:01Z</time>
      </trkpt>
      <trkpt lat="49.95114" lon="2.11588">
        <ele>41.8</ele>
        <time>2022-09-14T13:55:03Z</time>
      </trkpt>
      <trkpt lat="49.95113" lon="2.11587">
        <ele>41.9</ele>
        <time>2022-09-14T13:55:04Z</time>
      </trkpt>
      <trkpt lat="49.95112" lon="2.11586">
        <ele>42</ele>
        <time>2022-09-14T13:55:05Z</time>
      </trkpt>
      <trkpt lat="49.9511" lon="2.11585">
        <ele>42.1</ele>
        <time>2022-09-14T13:55:06Z</time>
      </trkpt>
      <trkpt lat="49.95108" lon="2.11583">
        <ele>42.2</ele>
        <time>2022-09-14T13:55:08Z</time>
      </trkpt>
      <trkpt lat="49.95108" lon="2.11583">
        <ele>42.3</ele>
        <time>2022-09-14T13:55:09Z</time>
      </trkpt>
      <trkpt lat="49.95107" lon="2.11582">
        <ele>42.3</ele>
        <time>2022-09-14T13:55:10Z</time>
      </trkpt>
      <trkpt lat="49.95105" lon="2.11582">
        <ele>42.4</ele>
        <time>2022-09-14T13:55:11Z</time>
      </trkpt>
      <trkpt lat="49.95104" lon="2.11582">
        <ele>42.5</ele>
        <time>2022-09-14T13:55:13Z</time>
      </trkpt>
      <trkpt lat="49.95103" lon="2.11581">
        <ele>42.6</ele>
        <time>2022-09-14T13:55:14Z</time>
      </trkpt>
      <trkpt lat="49.95102" lon="2.11581">
        <ele>42.7</ele>
        <time>2022-09-14T13:55:15Z</time>
      </trkpt>
      <trkpt lat="49.951" lon="2.11581">
        <ele>42.8</ele>
        <time>2022-09-14T13:55:16Z</time>
      </trkpt>
      <trkpt lat="49.95099" lon="2.11581">
        <ele>42.9</ele>
        <time>2022-09-14T13:55:17Z</time>
      </trkpt>
      <trkpt lat="49.95097" lon="2.1158">
        <ele>43</ele>
        <time>2022-09-14T13:55:19Z</time>
      </trkpt>
      <trkpt lat="49.95095" lon="2.1158">
        <ele>43.2</ele>
        <time>2022-09-14T13:55:21Z</time>
      </trkpt>
      <trkpt lat="49.95094" lon="2.1158">
        <ele>43.2</ele>
        <time>2022-09-14T13:55:22Z</time>
      </trkpt>
      <trkpt lat="49.95093" lon="2.1158">
        <ele>43.3</ele>
        <time>2022-09-14T13:55:23Z</time>
      </trkpt>
      <trkpt lat="49.95092" lon="2.11581">
        <ele>43.4</ele>
        <time>2022-09-14T13:55:24Z</time>
      </trkpt>
      <trkpt lat="49.9509" lon="2.11581">
        <ele>43.5</ele>
        <time>2022-09-14T13:55:25Z</time>
      </trkpt>
      <trkpt lat="49.95089" lon="2.11581">
        <ele>43.7</ele>
        <time>2022-09-14T13:55:27Z</time>
      </trkpt>
      <trkpt lat="49.95088" lon="2.11581">
        <ele>43.8</ele>
        <time>2022-09-14T13:55:28Z</time>
      </trkpt>
      <trkpt lat="49.95086" lon="2.1158">
        <ele>44</ele>
        <time>2022-09-14T13:55:29Z</time>
      </trkpt>
      <trkpt lat="49.95085" lon="2.1158">
        <ele>44</ele>
        <time>2022-09-14T13:55:30Z</time>
      </trkpt>
      <trkpt lat="49.95084" lon="2.1158">
        <ele>44.1</ele>
        <time>2022-09-14T13:55:31Z</time>
      </trkpt>
      <trkpt lat="49.95082" lon="2.1158">
        <ele>44.2</ele>
        <time>2022-09-14T13:55:32Z</time>
      </trkpt>
      <trkpt lat="49.95081" lon="2.1158">
        <ele>44.4</ele>
        <time>2022-09-14T13:55:34Z</time>
      </trkpt>
      <trkpt lat="49.95079" lon="2.1158">
        <ele>44.5</ele>
        <time>2022-09-14T13:55:35Z</time>
      </trkpt>
      <trkpt lat="49.95078" lon="2.1158">
        <ele>44.6</ele>
        <time>2022-09-14T13:55:36Z</time>
      </trkpt>
      <trkpt lat="49.95078" lon="2.1158">
        <ele>44.6</ele>
        <time>2022-09-14T13:55:37Z</time>
      </trkpt>
      <trkpt lat="49.95077" lon="2.11581">
        <ele>44.7</ele>
        <time>2022-09-14T13:55:38Z</time>
      </trkpt>
      <trkpt lat="49.95076" lon="2.11581">
        <ele>44.8</ele>
        <time>2022-09-14T13:55:39Z</time>
      </trkpt>
      <trkpt lat="49.95075" lon="2.11581">
        <ele>44.9</ele>
        <time>2022-09-14T13:55:41Z</time>
      </trkpt>
      <trkpt lat="49.95074" lon="2.11582">
        <ele>45</ele>
        <time>2022-09-14T13:55:42Z</time>
      </trkpt>
      <trkpt lat="49.95073" lon="2.11582">
        <ele>45</ele>
        <time>2022-09-14T13:55:43Z</time>
      </trkpt>
      <trkpt lat="49.95071" lon="2.11582">
        <ele>45.2</ele>
        <time>2022-09-14T13:55:45Z</time>
      </trkpt>
      <trkpt lat="49.95071" lon="2.11582">
        <ele>45.2</ele>
        <time>2022-09-14T13:55:46Z</time>
      </trkpt>
      <trkpt lat="49.9507" lon="2.11582">
        <ele>45.3</ele>
        <time>2022-09-14T13:55:47Z</time>
      </trkpt>
      <trkpt lat="49.95069" lon="2.11582">
        <ele>45.3</ele>
        <time>2022-09-14T13:55:48Z</time>
      </trkpt>
      <trkpt lat="49.95068" lon="2.11583">
        <ele>45.4</ele>
        <time>2022-09-14T13:55:49Z</time>
      </trkpt>
      <trkpt lat="49.95068" lon="2.11585">
        <ele>45.5</ele>
        <time>2022-09-14T13:55:51Z</time>
      </trkpt>
      <trkpt lat="49.95067" lon="2.11585">
        <ele>45.6</ele>
        <time>2022-09-14T13:55:53Z</time>
      </trkpt>
      <trkpt lat="49.95066" lon="2.11586">
        <ele>45.6</ele>
        <time>2022-09-14T13:55:54Z</time>
      </trkpt>
      <trkpt lat="49.95065" lon="2.11586">
        <ele>45.7</ele>
        <time>2022-09-14T13:55:55Z</time>
      </trkpt>
      <trkpt lat="49.95065" lon="2.11586">
        <ele>45.7</ele>
        <time>2022-09-14T13:55:56Z</time>
      </trkpt>
      <trkpt lat="49.95063" lon="2.11587">
        <ele>45.8</ele>
        <time>2022-09-14T13:55:58Z</time>
      </trkpt>
      <trkpt lat="49.95062" lon="2.11588">
        <ele>45.9</ele>
        <time>2022-09-14T13:55:59Z</time>
      </trkpt>
      <trkpt lat="49.95062" lon="2.11588">
        <ele>46</ele>
        <time>2022-09-14T13:56:00Z</time>
      </trkpt>
      <trkpt lat="49.95061" lon="2.11589">
        <ele>46</ele>
        <time>2022-09-14T13:56:01Z</time>
      </trkpt>
      <trkpt lat="49.9506" lon="2.1159">
        <ele>46.1</ele>
        <time>2022-09-14T13:56:02Z</time>
      </trkpt>
      <trkpt lat="49.9506" lon="2.11591">
        <ele>46.1</ele>
        <time>2022-09-14T13:56:04Z</time>
      </trkpt>
      <trkpt lat="49.95059" lon="2.11592">
        <ele>46.2</ele>
        <time>2022-09-14T13:56:05Z</time>
      </trkpt>
      <trkpt lat="49.95059" lon="2.11592">
        <ele>46.2</ele>
        <time>2022-09-14T13:56:06Z</time>
      </trkpt>
      <trkpt lat="49.95057" lon="2.11595">
        <ele>46.4</ele>
        <time>2022-09-14T13:56:07Z</time>
      </trkpt>
      <trkpt lat="49.95056" lon="2.11595">
        <ele>46.5</ele>
        <time>2022-09-14T13:56:08Z</time>
      </trkpt>
      <trkpt lat="49.95056" lon="2.11596">
        <ele>46.5</ele>
        <time>2022-09-14T13:56:09Z</time>
      </trkpt>
      <trkpt lat="49.95054" lon="2.11598">
        <ele>46.7</ele>
        <time>2022-09-14T13:56:11Z</time>
      </trkpt>
      <trkpt lat="49.95053" lon="2.11598">
        <ele>46.8</ele>
        <time>2022-09-14T13:56:12Z</time>
      </trkpt>
      <trkpt lat="49.95052" lon="2.11599">
        <ele>46.9</ele>
        <time>2022-09-14T13:56:13Z</time>
      </trkpt>
      <trkpt lat="49.9505" lon="2.11601">
        <ele>47.1</ele>
        <time>2022-09-14T13:56:14Z</time>
      </trkpt>
      <trkpt lat="49.9505" lon="2.11602">
        <ele>47.1</ele>
        <time>2022-09-14T13:56:16Z</time>
      </trkpt>
      <trkpt lat="49.95049" lon="2.11602">
        <ele>47.2</ele>
        <time>2022-09-14T13:56:17Z</time>
      </trkpt>
      <trkpt lat="49.95049" lon="2.11603">
        <ele>47.3</ele>
        <time>2022-09-14T13:56:18Z</time>
      </trkpt>
      <trkpt lat="49.95047" lon="2.11604">
        <ele>47.4</ele>
        <time>2022-09-14T13:56:19Z</time>
      </trkpt>
      <trkpt lat="49.95046" lon="2.11605">
        <ele>47.5</ele>
        <time>2022-09-14T13:56:21Z</time>
      </trkpt>
      <trkpt lat="49.95045" lon="2.11606">
        <ele>47.6</ele>
        <time>2022-09-14T13:56:22Z</time>
      </trkpt>
      <trkpt lat="49.95043" lon="2.11607">
        <ele>47.7</ele>
        <time>2022-09-14T13:56:23Z</time>
      </trkpt>
      <trkpt lat="49.95041" lon="2.11609">
        <ele>47.8</ele>
        <time>2022-09-14T13:56:24Z</time>
      </trkpt>
      <trkpt lat="49.9504" lon="2.11609">
        <ele>47.9</ele>
        <time>2022-09-14T13:56:25Z</time>
      </trkpt>
      <trkpt lat="49.95039" lon="2.1161">
        <ele>48</ele>
        <time>2022-09-14T13:56:26Z</time>
      </trkpt>
      <trkpt lat="49.95038" lon="2.11611">
        <ele>48.1</ele>
        <time>2022-09-14T13:56:28Z</time>
      </trkpt>
      <trkpt lat="49.95037" lon="2.11612">
        <ele>48.1</ele>
        <time>2022-09-14T13:56:29Z</time>
      </trkpt>
      <trkpt lat="49.95036" lon="2.11613">
        <ele>48.2</ele>
        <time>2022-09-14T13:56:30Z</time>
      </trkpt>
      <trkpt lat="49.95036" lon="2.11614">
        <ele>48.2</ele>
        <time>2022-09-14T13:56:31Z</time>
      </trkpt>
      <trkpt lat="49.95036" lon="2.11615">
        <ele>48.2</ele>
        <time>2022-09-14T13:56:32Z</time>
      </trkpt>
      <trkpt lat="49.95035" lon="2.11616">
        <ele>48.3</ele>
        <time>2022-09-14T13:56:33Z</time>
      </trkpt>
      <trkpt lat="49.95034" lon="2.11617">
        <ele>48.4</ele>
        <time>2022-09-14T13:56:35Z</time>
      </trkpt>
      <trkpt lat="49.95033" lon="2.11619">
        <ele>48.4</ele>
        <time>2022-09-14T13:56:36Z</time>
      </trkpt>
      <trkpt lat="49.95032" lon="2.1162">
        <ele>48.5</ele>
        <time>2022-09-14T13:56:38Z</time>
      </trkpt>
      <trkpt lat="49.95032" lon="2.11621">
        <ele>48.5</ele>
        <time>2022-09-14T13:56:39Z</time>
      </trkpt>
      <trkpt lat="49.95031" lon="2.11621">
        <ele>48.6</ele>
        <time>2022-09-14T13:56:40Z</time>
      </trkpt>
      <trkpt lat="49.9503" lon="2.11622">
        <ele>48.6</ele>
        <time>2022-09-14T13:56:41Z</time>
      </trkpt>
      <trkpt lat="49.9503" lon="2.11623">
        <ele>48.7</ele>
        <time>2022-09-14T13:56:42Z</time>
      </trkpt>
      <trkpt lat="49.95029" lon="2.11624">
        <ele>48.7</ele>
        <time>2022-09-14T13:56:43Z</time>
      </trkpt>
      <trkpt lat="49.95027" lon="2.11626">
        <ele>48.9</ele>
        <time>2022-09-14T13:56:44Z</time>
      </trkpt>
      <trkpt lat="49.95027" lon="2.11627">
        <ele>48.9</ele>
        <time>2022-09-14T13:56:46Z</time>
      </trkpt>
      <trkpt lat="49.95026" lon="2.11628">
        <ele>49</ele>
        <time>2022-09-14T13:56:47Z</time>
      </trkpt>
      <trkpt lat="49.95025" lon="2.11629">
        <ele>49</ele>
        <time>2022-09-14T13:56:48Z</time>
      </trkpt>
      <trkpt lat="49.95024" lon="2.1163">
        <ele>49.1</ele>
        <time>2022-09-14T13:56:49Z</time>
      </trkpt>
      <trkpt lat="49.95023" lon="2.11631">
        <ele>49.2</ele>
        <time>2022-09-14T13:56:50Z</time>
      </trkpt>
      <trkpt lat="49.95023" lon="2.11633">
        <ele>49.3</ele>
        <time>2022-09-14T13:56:51Z</time>
      </trkpt>
      <trkpt lat="49.95023" lon="2.11634">
        <ele>49.3</ele>
        <time>2022-09-14T13:56:52Z</time>
      </trkpt>
      <trkpt lat="49.95022" lon="2.11634">
        <ele>49.4</ele>
        <time>2022-09-14T13:56:53Z</time>
      </trkpt>
      <trkpt lat="49.95021" lon="2.11634">
        <ele>49.5</ele>
        <time>2022-09-14T13:56:54Z</time>
      </trkpt>
      <trkpt lat="49.95019" lon="2.11636">
        <ele>49.6</ele>
        <time>2022-09-14T13:56:55Z</time>
      </trkpt>
      <trkpt lat="49.95018" lon="2.11636">
        <ele>49.7</ele>
        <time>2022-09-14T13:56:56Z</time>
      </trkpt>
      <trkpt lat="49.95018" lon="2.11637">
        <ele>49.7</ele>
        <time>2022-09-14T13:56:58Z</time>
      </trkpt>
      <trkpt lat="49.95017" lon="2.11638">
        <ele>49.8</ele>
        <time>2022-09-14T13:56:59Z</time>
      </trkpt>
      <trkpt lat="49.95016" lon="2.11638">
        <ele>49.9</ele>
        <time>2022-09-14T13:57:00Z</time>
      </trkpt>
      <trkpt lat="49.95015" lon="2.11639">
        <ele>49.9</ele>
        <time>2022-09-14T13:57:01Z</time>
      </trkpt>
      <trkpt lat="49.95015" lon="2.1164">
        <ele>50</ele>
        <time>2022-09-14T13:57:02Z</time>
      </trkpt>
      <trkpt lat="49.95014" lon="2.11641">
        <ele>50.1</ele>
        <time>2022-09-14T13:57:03Z</time>
      </trkpt>
      <trkpt lat="49.95013" lon="2.11641">
        <ele>50.2</ele>
        <time>2022-09-14T13:57:05Z</time>
      </trkpt>
      <trkpt lat="49.95012" lon="2.11642">
        <ele>50.2</ele>
        <time>2022-09-14T13:57:06Z</time>
      </trkpt>
      <trkpt lat="49.95011" lon="2.11644">
        <ele>50.4</ele>
        <time>2022-09-14T13:57:07Z</time>
      </trkpt>
      <trkpt lat="49.9501" lon="2.11645">
        <ele>50.4</ele>
        <time>2022-09-14T13:57:09Z</time>
      </trkpt>
      <trkpt lat="49.9501" lon="2.11646">
        <ele>50.5</ele>
        <time>2022-09-14T13:57:10Z</time>
      </trkpt>
      <trkpt lat="49.95009" lon="2.11647">
        <ele>50.6</ele>
        <time>2022-09-14T13:57:11Z</time>
      </trkpt>
      <trkpt lat="49.95009" lon="2.11648">
        <ele>50.6</ele>
        <time>2022-09-14T13:57:12Z</time>
      </trkpt>
      <trkpt lat="49.95009" lon="2.11649">
        <ele>50.7</ele>
        <time>2022-09-14T13:57:13Z</time>
      </trkpt>
      <trkpt lat="49.95008" lon="2.11651">
        <ele>50.8</ele>
        <time>2022-09-14T13:57:15Z</time>
      </trkpt>
      <trkpt lat="49.95007" lon="2.11653">
        <ele>50.9</ele>
        <time>2022-09-14T13:57:16Z</time>
      </trkpt>
      <trkpt lat="49.95007" lon="2.11654">
        <ele>51</ele>
        <time>2022-09-14T13:57:17Z</time>
      </trkpt>
      <trkpt lat="49.95006" lon="2.11655">
        <ele>51.1</ele>
        <time>2022-09-14T13:57:18Z</time>
      </trkpt>
      <trkpt lat="49.95005" lon="2.11656">
        <ele>51.2</ele>
        <time>2022-09-14T13:57:20Z</time>
      </trkpt>
      <trkpt lat="49.95004" lon="2.11657">
        <ele>51.2</ele>
        <time>2022-09-14T13:57:21Z</time>
      </trkpt>
      <trkpt lat="49.95003" lon="2.11658">
        <ele>51.4</ele>
        <time>2022-09-14T13:57:22Z</time>
      </trkpt>
      <trkpt lat="49.95002" lon="2.11659">
        <ele>51.5</ele>
        <time>2022-09-14T13:57:24Z</time>
      </trkpt>
      <trkpt lat="49.95" lon="2.11661">
        <ele>51.6</ele>
        <time>2022-09-14T13:57:26Z</time>
      </trkpt>
      <trkpt lat="49.94999" lon="2.11661">
        <ele>51.8</ele>
        <time>2022-09-14T13:57:27Z</time>
      </trkpt>
      <trkpt lat="49.94998" lon="2.11662">
        <ele>51.8</ele>
        <time>2022-09-14T13:57:28Z</time>
      </trkpt>
      <trkpt lat="49.94997" lon="2.11663">
        <ele>52</ele>
        <time>2022-09-14T13:57:30Z</time>
      </trkpt>
      <trkpt lat="49.94996" lon="2.11664">
        <ele>52.1</ele>
        <time>2022-09-14T13:57:31Z</time>
      </trkpt>
      <trkpt lat="49.94994" lon="2.11665">
        <ele>52.3</ele>
        <time>2022-09-14T13:57:33Z</time>
      </trkpt>
      <trkpt lat="49.94993" lon="2.11666">
        <ele>52.4</ele>
        <time>2022-09-14T13:57:34Z</time>
      </trkpt>
      <trkpt lat="49.94992" lon="2.11666">
        <ele>52.5</ele>
        <time>2022-09-14T13:57:35Z</time>
      </trkpt>
      <trkpt lat="49.94991" lon="2.11667">
        <ele>52.6</ele>
        <time>2022-09-14T13:57:37Z</time>
      </trkpt>
      <trkpt lat="49.9499" lon="2.11668">
        <ele>52.7</ele>
        <time>2022-09-14T13:57:38Z</time>
      </trkpt>
      <trkpt lat="49.94989" lon="2.11668">
        <ele>52.8</ele>
        <time>2022-09-14T13:57:39Z</time>
      </trkpt>
      <trkpt lat="49.94988" lon="2.11669">
        <ele>53</ele>
        <time>2022-09-14T13:57:40Z</time>
      </trkpt>
      <trkpt lat="49.94987" lon="2.1167">
        <ele>53.1</ele>
        <time>2022-09-14T13:57:42Z</time>
      </trkpt>
      <trkpt lat="49.94986" lon="2.11671">
        <ele>53.2</ele>
        <time>2022-09-14T13:57:43Z</time>
      </trkpt>
      <trkpt lat="49.94986" lon="2.11672">
        <ele>53.3</ele>
        <time>2022-09-14T13:57:44Z</time>
      </trkpt>
      <trkpt lat="49.94984" lon="2.11674">
        <ele>53.5</ele>
        <time>2022-09-14T13:57:46Z</time>
      </trkpt>
      <trkpt lat="49.94984" lon="2.11675">
        <ele>53.6</ele>
        <time>2022-09-14T13:57:47Z</time>
      </trkpt>
      <trkpt lat="49.94983" lon="2.11676">
        <ele>53.7</ele>
        <time>2022-09-14T13:57:48Z</time>
      </trkpt>
      <trkpt lat="49.94982" lon="2.11677">
        <ele>53.8</ele>
        <time>2022-09-14T13:57:49Z</time>
      </trkpt>
      <trkpt lat="49.94982" lon="2.11678">
        <ele>53.9</ele>
        <time>2022-09-14T13:57:51Z</time>
      </trkpt>
      <trkpt lat="49.94982" lon="2.1168">
        <ele>54</ele>
        <time>2022-09-14T13:57:52Z</time>
      </trkpt>
      <trkpt lat="49.94982" lon="2.1168">
        <ele>54.1</ele>
        <time>2022-09-14T13:57:53Z</time>
      </trkpt>
      <trkpt lat="49.9498" lon="2.11683">
        <ele>54.3</ele>
        <time>2022-09-14T13:57:55Z</time>
      </trkpt>
      <trkpt lat="49.9498" lon="2.11684">
        <ele>54.4</ele>
        <time>2022-09-14T13:57:56Z</time>
      </trkpt>
      <trkpt lat="49.94979" lon="2.11686">
        <ele>54.5</ele>
        <time>2022-09-14T13:57:57Z</time>
      </trkpt>
      <trkpt lat="49.94979" lon="2.11687">
        <ele>54.6</ele>
        <time>2022-09-14T13:57:59Z</time>
      </trkpt>
      <trkpt lat="49.94979" lon="2.11688">
        <ele>54.7</ele>
        <time>2022-09-14T13:58:00Z</time>
      </trkpt>
      <trkpt lat="49.94978" lon="2.1169">
        <ele>54.8</ele>
        <time>2022-09-14T13:58:01Z</time>
      </trkpt>
      <trkpt lat="49.94977" lon="2.11692">
        <ele>54.9</ele>
        <time>2022-09-14T13:58:03Z</time>
      </trkpt>
      <trkpt lat="49.94977" lon="2.11693">
        <ele>55</ele>
        <time>2022-09-14T13:58:04Z</time>
      </trkpt>
      <trkpt lat="49.94977" lon="2.11694">
        <ele>55.1</ele>
        <time>2022-09-14T13:58:05Z</time>
      </trkpt>
      <trkpt lat="49.94976" lon="2.11696">
        <ele>55.2</ele>
        <time>2022-09-14T13:58:06Z</time>
      </trkpt>
      <trkpt lat="49.94976" lon="2.11698">
        <ele>55.3</ele>
        <time>2022-09-14T13:58:08Z</time>
      </trkpt>
      <trkpt lat="49.94976" lon="2.11699">
        <ele>55.4</ele>
        <time>2022-09-14T13:58:09Z</time>
      </trkpt>
      <trkpt lat="49.94976" lon="2.117">
        <ele>55.4</ele>
        <time>2022-09-14T13:58:10Z</time>
      </trkpt>
      <trkpt lat="49.94975" lon="2.117">
        <ele>55.5</ele>
        <time>2022-09-14T13:58:11Z</time>
      </trkpt>
      <trkpt lat="49.94975" lon="2.11702">
        <ele>55.6</ele>
        <time>2022-09-14T13:58:12Z</time>
      </trkpt>
      <trkpt lat="49.94975" lon="2.11703">
        <ele>55.6</ele>
        <time>2022-09-14T13:58:13Z</time>
      </trkpt>
      <trkpt lat="49.94974" lon="2.11704">
        <ele>55.7</ele>
        <time>2022-09-14T13:58:15Z</time>
      </trkpt>
      <trkpt lat="49.94974" lon="2.11706">
        <ele>55.8</ele>
        <time>2022-09-14T13:58:16Z</time>
      </trkpt>
      <trkpt lat="49.94974" lon="2.11708">
        <ele>55.9</ele>
        <time>2022-09-14T13:58:17Z</time>
      </trkpt>
      <trkpt lat="49.94973" lon="2.1171">
        <ele>56</ele>
        <time>2022-09-14T13:58:18Z</time>
      </trkpt>
      <trkpt lat="49.94973" lon="2.11711">
        <ele>56.1</ele>
        <time>2022-09-14T13:58:19Z</time>
      </trkpt>
      <trkpt lat="49.94973" lon="2.11712">
        <ele>56.1</ele>
        <time>2022-09-14T13:58:20Z</time>
      </trkpt>
      <trkpt lat="49.94972" lon="2.11713">
        <ele>56.2</ele>
        <time>2022-09-14T13:58:21Z</time>
      </trkpt>
      <trkpt lat="49.94972" lon="2.11715">
        <ele>56.3</ele>
        <time>2022-09-14T13:58:22Z</time>
      </trkpt>
      <trkpt lat="49.94972" lon="2.11716">
        <ele>56.3</ele>
        <time>2022-09-14T13:58:23Z</time>
      </trkpt>
      <trkpt lat="49.94971" lon="2.11717">
        <ele>56.4</ele>
        <time>2022-09-14T13:58:24Z</time>
      </trkpt>
      <trkpt lat="49.94971" lon="2.11719">
        <ele>56.5</ele>
        <time>2022-09-14T13:58:25Z</time>
      </trkpt>
      <trkpt lat="49.9497" lon="2.1172">
        <ele>56.5</ele>
        <time>2022-09-14T13:58:26Z</time>
      </trkpt>
      <trkpt lat="49.9497" lon="2.11722">
        <ele>56.6</ele>
        <time>2022-09-14T13:58:27Z</time>
      </trkpt>
      <trkpt lat="49.94969" lon="2.11725">
        <ele>56.8</ele>
        <time>2022-09-14T13:58:28Z</time>
      </trkpt>
      <trkpt lat="49.94969" lon="2.11726">
        <ele>56.8</ele>
        <time>2022-09-14T13:58:30Z</time>
      </trkpt>
      <trkpt lat="49.94968" lon="2.11727">
        <ele>56.9</ele>
        <time>2022-09-14T13:58:31Z</time>
      </trkpt>
      <trkpt lat="49.94967" lon="2.11729">
        <ele>57</ele>
        <time>2022-09-14T13:58:33Z</time>
      </trkpt>
      <trkpt lat="49.94967" lon="2.11731">
        <ele>57.1</ele>
        <time>2022-09-14T13:58:34Z</time>
      </trkpt>
      <trkpt lat="49.94966" lon="2.11732">
        <ele>57.2</ele>
        <time>2022-09-14T13:58:35Z</time>
      </trkpt>
      <trkpt lat="49.94965" lon="2.11735">
        <ele>57.3</ele>
        <time>2022-09-14T13:58:37Z</time>
      </trkpt>
      <trkpt lat="49.94965" lon="2.11736">
        <ele>57.4</ele>
        <time>2022-09-14T13:58:38Z</time>
      </trkpt>
      <trkpt lat="49.94965" lon="2.11736">
        <ele>57.4</ele>
        <time>2022-09-14T13:58:39Z</time>
      </trkpt>
      <trkpt lat="49.94964" lon="2.11736">
        <ele>57.4</ele>
        <time>2022-09-14T13:58:40Z</time>
      </trkpt>
      <trkpt lat="49.94964" lon="2.11737">
        <ele>57.5</ele>
        <time>2022-09-14T13:58:41Z</time>
      </trkpt>
      <trkpt lat="49.94964" lon="2.11739">
        <ele>57.6</ele>
        <time>2022-09-14T13:58:42Z</time>
      </trkpt>
      <trkpt lat="49.94963" lon="2.11741">
        <ele>57.7</ele>
        <time>2022-09-14T13:58:43Z</time>
      </trkpt>
      <trkpt lat="49.94963" lon="2.11743">
        <ele>57.8</ele>
        <time>2022-09-14T13:58:44Z</time>
      </trkpt>
      <trkpt lat="49.94962" lon="2.11744">
        <ele>57.9</ele>
        <time>2022-09-14T13:58:45Z</time>
      </trkpt>
      <trkpt lat="49.94961" lon="2.11748">
        <ele>58</ele>
        <time>2022-09-14T13:58:47Z</time>
      </trkpt>
      <trkpt lat="49.94961" lon="2.11749">
        <ele>58.1</ele>
        <time>2022-09-14T13:58:48Z</time>
      </trkpt>
      <trkpt lat="49.94961" lon="2.1175">
        <ele>58.2</ele>
        <time>2022-09-14T13:58:49Z</time>
      </trkpt>
      <trkpt lat="49.9496" lon="2.11752">
        <ele>58.2</ele>
        <time>2022-09-14T13:58:51Z</time>
      </trkpt>
      <trkpt lat="49.9496" lon="2.11752">
        <ele>58.3</ele>
        <time>2022-09-14T13:58:52Z</time>
      </trkpt>
      <trkpt lat="49.94959" lon="2.11754">
        <ele>58.4</ele>
        <time>2022-09-14T13:58:53Z</time>
      </trkpt>
      <trkpt lat="49.94958" lon="2.11756">
        <ele>58.5</ele>
        <time>2022-09-14T13:58:54Z</time>
      </trkpt>
      <trkpt lat="49.94958" lon="2.11757">
        <ele>58.5</ele>
        <time>2022-09-14T13:58:56Z</time>
      </trkpt>
      <trkpt lat="49.94957" lon="2.11759">
        <ele>58.6</ele>
        <time>2022-09-14T13:58:57Z</time>
      </trkpt>
      <trkpt lat="49.94957" lon="2.11761">
        <ele>58.7</ele>
        <time>2022-09-14T13:58:58Z</time>
      </trkpt>
      <trkpt lat="49.94957" lon="2.11763">
        <ele>58.8</ele>
        <time>2022-09-14T13:58:59Z</time>
      </trkpt>
      <trkpt lat="49.94956" lon="2.11764">
        <ele>58.9</ele>
        <time>2022-09-14T13:59:00Z</time>
      </trkpt>
      <trkpt lat="49.94956" lon="2.11766">
        <ele>59</ele>
        <time>2022-09-14T13:59:02Z</time>
      </trkpt>
      <trkpt lat="49.94956" lon="2.11768">
        <ele>59</ele>
        <time>2022-09-14T13:59:03Z</time>
      </trkpt>
      <trkpt lat="49.94956" lon="2.1177">
        <ele>59.1</ele>
        <time>2022-09-14T13:59:04Z</time>
      </trkpt>
      <trkpt lat="49.94955" lon="2.11771">
        <ele>59.2</ele>
        <time>2022-09-14T13:59:06Z</time>
      </trkpt>
      <trkpt lat="49.94955" lon="2.11772">
        <ele>59.2</ele>
        <time>2022-09-14T13:59:07Z</time>
      </trkpt>
      <trkpt lat="49.94955" lon="2.11773">
        <ele>59.3</ele>
        <time>2022-09-14T13:59:08Z</time>
      </trkpt>
      <trkpt lat="49.94955" lon="2.11774">
        <ele>59.3</ele>
        <time>2022-09-14T13:59:09Z</time>
      </trkpt>
      <trkpt lat="49.94954" lon="2.11776">
        <ele>59.5</ele>
        <time>2022-09-14T13:59:11Z</time>
      </trkpt>
      <trkpt lat="49.94954" lon="2.11777">
        <ele>59.6</ele>
        <time>2022-09-14T13:59:12Z</time>
      </trkpt>
      <trkpt lat="49.94954" lon="2.11778">
        <ele>59.6</ele>
        <time>2022-09-14T13:59:13Z</time>
      </trkpt>
      <trkpt lat="49.94953" lon="2.1178">
        <ele>59.7</ele>
        <time>2022-09-14T13:59:14Z</time>
      </trkpt>
      <trkpt lat="49.94953" lon="2.11782">
        <ele>59.8</ele>
        <time>2022-09-14T13:59:16Z</time>
      </trkpt>
      <trkpt lat="49.94952" lon="2.11783">
        <ele>59.8</ele>
        <time>2022-09-14T13:59:17Z</time>
      </trkpt>
      <trkpt lat="49.94952" lon="2.11783">
        <ele>59.9</ele>
        <time>2022-09-14T13:59:18Z</time>
      </trkpt>
      <trkpt lat="49.94952" lon="2.11783">
        <ele>59.9</ele>
        <time>2022-09-14T13:59:19Z</time>
      </trkpt>
      <trkpt lat="49.94952" lon="2.11783">
        <ele>59.9</ele>
        <time>2022-09-14T13:59:21Z</time>
      </trkpt>
      <trkpt lat="49.94952" lon="2.11783">
        <ele>59.9</ele>
        <time>2022-09-14T13:59:22Z</time>
      </trkpt>
      <trkpt lat="49.94952" lon="2.11783">
        <ele>59.9</ele>
        <time>2022-09-14T13:59:23Z</time>
      </trkpt>
      <trkpt lat="49.94952" lon="2.11783">
        <ele>59.9</ele>
        <time>2022-09-14T13:59:24Z</time>
      </trkpt>
      <trkpt lat="49.94952" lon="2.11783">
        <ele>59.9</ele>
        <time>2022-09-14T13:59:25Z</time>
      </trkpt>
      <trkpt lat="49.94952" lon="2.11783">
        <ele>59.9</ele>
        <time>2022-09-14T13:59:26Z</time>
      </trkpt>
      <trkpt lat="49.94952" lon="2.11783">
        <ele>59.9</ele>
        <time>2022-09-14T13:59:27Z</time>
      </trkpt>
      <trkpt lat="49.94952" lon="2.11783">
        <ele>59.9</ele>
        <time>2022-09-14T13:59:28Z</time>
      </trkpt>
      <trkpt lat="49.94952" lon="2.11783">
        <ele>60</ele>
        <time>2022-09-14T13:59:29Z</time>
      </trkpt>
      <trkpt lat="49.94952" lon="2.11783">
        <ele>60</ele>
        <time>2022-09-14T13:59:30Z</time>
      </trkpt>
      <trkpt lat="49.94952" lon="2.11783">
        <ele>60</ele>
        <time>2022-09-14T13:59:31Z</time>
      </trkpt>
      <trkpt lat="49.94952" lon="2.11783">
        <ele>60</ele>
        <time>2022-09-14T13:59:32Z</time>
      </trkpt>
      <trkpt lat="49.94952" lon="2.11783">
        <ele>60</ele>
        <time>2022-09-14T13:59:33Z</time>
      </trkpt>
      <trkpt lat="49.94952" lon="2.11783">
        <ele>60</ele>
        <time>2022-09-14T13:59:34Z</time>
      </trkpt>
      <trkpt lat="49.94952" lon="2.11783">
        <ele>60</ele>
        <time>2022-09-14T13:59:35Z</time>
      </trkpt>
      <trkpt lat="49.94952" lon="2.11783">
        <ele>60</ele>
        <time>2022-09-14T13:59:36Z</time>
      </trkpt>
      <trkpt lat="49.94952" lon="2.11783">
        <ele>60</ele>
        <time>2022-09-14T13:59:37Z</time>
      </trkpt>
      <trkpt lat="49.94952" lon="2.11783">
        <ele>60</ele>
        <time>2022-09-14T13:59:38Z</time>
      </trkpt>
      <trkpt lat="49.94953" lon="2.11783">
        <ele>60</ele>
        <time>2022-09-14T13:59:39Z</time>
      </trkpt>
      <trkpt lat="49.94953" lon="2.11783">
        <ele>60</ele>
        <time>2022-09-14T13:59:40Z</time>
      </trkpt>
      <trkpt lat="49.94953" lon="2.11783">
        <ele>60</ele>
        <time>2022-09-14T13:59:41Z</time>
      </trkpt>
      <trkpt lat="49.94953" lon="2.11783">
        <ele>60</ele>
        <time>2022-09-14T13:59:42Z</time>
      </trkpt>
      <trkpt lat="49.94953" lon="2.11783">
        <ele>60</ele>
        <time>2022-09-14T13:59:43Z</time>
      </trkpt>
      <trkpt lat="49.94953" lon="2.11783">
        <ele>60</ele>
        <time>2022-09-14T13:59:44Z</time>
      </trkpt>
      <trkpt lat="49.94953" lon="2.11783">
        <ele>60</ele>
        <time>2022-09-14T13:59:45Z</time>
      </trkpt>
      <trkpt lat="49.94953" lon="2.11783">
        <ele>60.1</ele>
        <time>2022-09-14T13:59:46Z</time>
      </trkpt>
      <trkpt lat="49.94953" lon="2.11783">
        <ele>60.1</ele>
        <time>2022-09-14T13:59:47Z</time>
      </trkpt>
      <trkpt lat="49.94953" lon="2.11783">
        <ele>60.1</ele>
        <time>2022-09-14T13:59:48Z</time>
      </trkpt>
      <trkpt lat="49.94953" lon="2.11783">
        <ele>60.1</ele>
        <time>2022-09-14T13:59:49Z</time>
      </trkpt>
      <trkpt lat="49.94953" lon="2.11783">
        <ele>60.1</ele>
        <time>2022-09-14T13:59:50Z</time>
      </trkpt>
      <trkpt lat="49.94953" lon="2.11783">
        <ele>60.1</ele>
        <time>2022-09-14T13:59:51Z</time>
      </trkpt>
      <trkpt lat="49.94953" lon="2.11783">
        <ele>60.1</ele>
        <time>2022-09-14T13:59:52Z</time>
      </trkpt>
      <trkpt lat="49.94953" lon="2.11782">
        <ele>60.1</ele>
        <time>2022-09-14T13:59:53Z</time>
      </trkpt>
      <trkpt lat="49.94953" lon="2.11782">
        <ele>60.1</ele>
        <time>2022-09-14T13:59:54Z</time>
      </trkpt>
      <trkpt lat="49.94953" lon="2.11782">
        <ele>60.1</ele>
        <time>2022-09-14T13:59:55Z</time>
      </trkpt>
      <trkpt lat="49.94953" lon="2.11782">
        <ele>60.1</ele>
        <time>2022-09-14T13:59:56Z</time>
      </trkpt>
      <trkpt lat="49.94953" lon="2.11782">
        <ele>60.2</ele>
        <time>2022-09-14T13:59:57Z</time>
      </trkpt>
      <trkpt lat="49.94953" lon="2.11782">
        <ele>60.2</ele>
        <time>2022-09-14T13:59:58Z</time>
      </trkpt>
      <trkpt lat="49.94953" lon="2.11782">
        <ele>60.2</ele>
        <time>2022-09-14T13:59:59Z</time>
      </trkpt>
      <trkpt lat="49.94953" lon="2.11782">
        <ele>60.2</ele>
        <time>2022-09-14T14:00:00Z</time>
      </trkpt>
      <trkpt lat="49.94953" lon="2.11782">
        <ele>60.2</ele>
        <time>2022-09-14T14:00:01Z</time>
      </trkpt>
      <trkpt lat="49.94953" lon="2.11782">
        <ele>60.2</ele>
        <time>2022-09-14T14:00:02Z</time>
      </trkpt>
      <trkpt lat="49.94953" lon="2.11782">
        <ele>60.3</ele>
        <time>2022-09-14T14:00:03Z</time>
      </trkpt>
      <trkpt lat="49.94953" lon="2.11782">
        <ele>60.3</ele>
        <time>2022-09-14T14:00:04Z</time>
      </trkpt>
      <trkpt lat="49.94953" lon="2.11782">
        <ele>60.3</ele>
        <time>2022-09-14T14:00:05Z</time>
      </trkpt>
      <trkpt lat="49.94953" lon="2.11782">
        <ele>60.3</ele>
        <time>2022-09-14T14:00:06Z</time>
      </trkpt>
      <trkpt lat="49.94953" lon="2.11782">
        <ele>60.3</ele>
        <time>2022-09-14T14:00:07Z</time>
      </trkpt>
      <trkpt lat="49.94953" lon="2.11782">
        <ele>60.3</ele>
        <time>2022-09-14T14:00:08Z</time>
      </trkpt>
      <trkpt lat="49.94953" lon="2.11782">
        <ele>60.3</ele>
        <time>2022-09-14T14:00:09Z</time>
      </trkpt>
      <trkpt lat="49.94953" lon="2.11782">
        <ele>60.3</ele>
        <time>2022-09-14T14:00:10Z</time>
      </trkpt>
      <trkpt lat="49.94953" lon="2.11782">
        <ele>60.3</ele>
        <time>2022-09-14T14:00:11Z</time>
      </trkpt>
      <trkpt lat="49.94953" lon="2.11782">
        <ele>60.3</ele>
        <time>2022-09-14T14:00:12Z</time>
      </trkpt>
      <trkpt lat="49.94953" lon="2.11782">
        <ele>60.3</ele>
        <time>2022-09-14T14:00:13Z</time>
      </trkpt>
      <trkpt lat="49.94953" lon="2.11782">
        <ele>60.3</ele>
        <time>2022-09-14T14:00:14Z</time>
      </trkpt>
      <trkpt lat="49.94953" lon="2.11782">
        <ele>60.3</ele>
        <time>2022-09-14T14:00:15Z</time>
      </trkpt>
      <trkpt lat="49.94953" lon="2.11782">
        <ele>60.3</ele>
        <time>2022-09-14T14:00:16Z</time>
      </trkpt>
      <trkpt lat="49.94953" lon="2.11782">
        <ele>60.3</ele>
        <time>2022-09-14T14:00:17Z</time>
      </trkpt>
      <trkpt lat="49.94953" lon="2.11782">
        <ele>60.3</ele>
        <time>2022-09-14T14:00:18Z</time>
      </trkpt>
      <trkpt lat="49.94954" lon="2.11781">
        <ele>60.5</ele>
        <time>2022-09-14T14:00:19Z</time>
      </trkpt>
      <trkpt lat="49.94954" lon="2.1178">
        <ele>60.5</ele>
        <time>2022-09-14T14:00:20Z</time>
      </trkpt>
      <trkpt lat="49.94955" lon="2.11779">
        <ele>60.5</ele>
        <time>2022-09-14T14:00:21Z</time>
      </trkpt>
      <trkpt lat="49.94955" lon="2.11779">
        <ele>60.5</ele>
        <time>2022-09-14T14:00:23Z</time>
      </trkpt>
      <trkpt lat="49.94955" lon="2.11779">
        <ele>60.5</ele>
        <time>2022-09-14T14:00:24Z</time>
      </trkpt>
      <trkpt lat="49.94955" lon="2.11779">
        <ele>60.5</ele>
        <time>2022-09-14T14:00:25Z</time>
      </trkpt>
      <trkpt lat="49.94955" lon="2.11779">
        <ele>60.5</ele>
        <time>2022-09-14T14:00:26Z</time>
      </trkpt>
      <trkpt lat="49.94955" lon="2.11779">
        <ele>60.5</ele>
        <time>2022-09-14T14:00:27Z</time>
      </trkpt>
      <trkpt lat="49.94955" lon="2.11779">
        <ele>60.5</ele>
        <time>2022-09-14T14:00:28Z</time>
      </trkpt>
      <trkpt lat="49.94955" lon="2.11779">
        <ele>60.6</ele>
        <time>2022-09-14T14:00:29Z</time>
      </trkpt>
      <trkpt lat="49.94955" lon="2.11779">
        <ele>60.6</ele>
        <time>2022-09-14T14:00:30Z</time>
      </trkpt>
      <trkpt lat="49.94955" lon="2.11779">
        <ele>60.6</ele>
        <time>2022-09-14T14:00:31Z</time>
      </trkpt>
      <trkpt lat="49.94955" lon="2.11779">
        <ele>60.6</ele>
        <time>2022-09-14T14:00:32Z</time>
      </trkpt>
      <trkpt lat="49.94955" lon="2.11779">
        <ele>60.6</ele>
        <time>2022-09-14T14:00:33Z</time>
      </trkpt>
      <trkpt lat="49.94955" lon="2.11779">
        <ele>60.6</ele>
        <time>2022-09-14T14:00:34Z</time>
      </trkpt>
      <trkpt lat="49.94955" lon="2.11779">
        <ele>60.6</ele>
        <time>2022-09-14T14:00:35Z</time>
      </trkpt>
      <trkpt lat="49.94955" lon="2.11779">
        <ele>60.6</ele>
        <time>2022-09-14T14:00:36Z</time>
      </trkpt>
      <trkpt lat="49.94955" lon="2.11779">
        <ele>60.7</ele>
        <time>2022-09-14T14:00:37Z</time>
      </trkpt>
      <trkpt lat="49.94955" lon="2.11779">
        <ele>60.7</ele>
        <time>2022-09-14T14:00:38Z</time>
      </trkpt>
      <trkpt lat="49.94955" lon="2.11779">
        <ele>60.7</ele>
        <time>2022-09-14T14:00:39Z</time>
      </trkpt>
      <trkpt lat="49.94955" lon="2.11779">
        <ele>60.7</ele>
        <time>2022-09-14T14:00:40Z</time>
      </trkpt>
      <trkpt lat="49.94955" lon="2.11779">
        <ele>60.7</ele>
        <time>2022-09-14T14:00:41Z</time>
      </trkpt>
      <trkpt lat="49.94955" lon="2.11779">
        <ele>60.7</ele>
        <time>2022-09-14T14:00:42Z</time>
      </trkpt>
      <trkpt lat="49.94955" lon="2.11779">
        <ele>60.7</ele>
        <time>2022-09-14T14:00:43Z</time>
      </trkpt>
      <trkpt lat="49.94955" lon="2.11779">
        <ele>60.7</ele>
        <time>2022-09-14T14:00:44Z</time>
      </trkpt>
      <trkpt lat="49.94955" lon="2.11779">
        <ele>60.7</ele>
        <time>2022-09-14T14:00:45Z</time>
      </trkpt>
      <trkpt lat="49.94955" lon="2.11779">
        <ele>60.7</ele>
        <time>2022-09-14T14:00:46Z</time>
      </trkpt>
      <trkpt lat="49.94955" lon="2.11779">
        <ele>60.7</ele>
        <time>2022-09-14T14:00:47Z</time>
      </trkpt>
      <trkpt lat="49.94955" lon="2.11779">
        <ele>60.7</ele>
        <time>2022-09-14T14:00:48Z</time>
      </trkpt>
      <trkpt lat="49.94955" lon="2.11779">
        <ele>60.7</ele>
        <time>2022-09-14T14:00:49Z</time>
      </trkpt>
      <trkpt lat="49.94955" lon="2.11779">
        <ele>60.7</ele>
        <time>2022-09-14T14:00:50Z</time>
      </trkpt>
      <trkpt lat="49.94955" lon="2.11779">
        <ele>60.7</ele>
        <time>2022-09-14T14:00:51Z</time>
      </trkpt>
      <trkpt lat="49.94955" lon="2.11779">
        <ele>60.7</ele>
        <time>2022-09-14T14:00:52Z</time>
      </trkpt>
      <trkpt lat="49.94955" lon="2.11779">
        <ele>60.7</ele>
        <time>2022-09-14T14:00:53Z</time>
      </trkpt>
      <trkpt lat="49.94955" lon="2.11779">
        <ele>60.7</ele>
        <time>2022-09-14T14:00:54Z</time>
      </trkpt>
      <trkpt lat="49.94955" lon="2.11779">
        <ele>60.7</ele>
        <time>2022-09-14T14:00:55Z</time>
      </trkpt>
      <trkpt lat="49.94955" lon="2.11779">
        <ele>60.7</ele>
        <time>2022-09-14T14:00:56Z</time>
      </trkpt>
      <trkpt lat="49.94955" lon="2.11778">
        <ele>60.8</ele>
        <time>2022-09-14T14:00:57Z</time>
      </trkpt>
      <trkpt lat="49.94955" lon="2.11778">
        <ele>60.8</ele>
        <time>2022-09-14T14:00:59Z</time>
      </trkpt>
      <trkpt lat="49.94954" lon="2.11778">
        <ele>60.8</ele>
        <time>2022-09-14T14:01:00Z</time>
      </trkpt>
      <trkpt lat="49.94953" lon="2.1178">
        <ele>60.9</ele>
        <time>2022-09-14T14:01:01Z</time>
      </trkpt>
      <trkpt lat="49.94952" lon="2.11781">
        <ele>61</ele>
        <time>2022-09-14T14:01:02Z</time>
      </trkpt>
      <trkpt lat="49.94951" lon="2.11784">
        <ele>61.1</ele>
        <time>2022-09-14T14:01:03Z</time>
      </trkpt>
      <trkpt lat="49.94949" lon="2.11788">
        <ele>61.3</ele>
        <time>2022-09-14T14:01:06Z</time>
      </trkpt>
      <trkpt lat="49.94949" lon="2.11789">
        <ele>61.3</ele>
        <time>2022-09-14T14:01:07Z</time>
      </trkpt>
      <trkpt lat="49.94949" lon="2.11791">
        <ele>61.4</ele>
        <time>2022-09-14T14:01:08Z</time>
      </trkpt>
      <trkpt lat="49.94949" lon="2.11792">
        <ele>61.5</ele>
        <time>2022-09-14T14:01:10Z</time>
      </trkpt>
      <trkpt lat="49.94949" lon="2.11793">
        <ele>61.5</ele>
        <time>2022-09-14T14:01:11Z</time>
      </trkpt>
      <trkpt lat="49.94949" lon="2.11794">
        <ele>61.5</ele>
        <time>2022-09-14T14:01:12Z</time>
      </trkpt>
      <trkpt lat="49.94949" lon="2.11798">
        <ele>61.7</ele>
        <time>2022-09-14T14:01:14Z</time>
      </trkpt>
      <trkpt lat="49.94949" lon="2.118">
        <ele>61.7</ele>
        <time>2022-09-14T14:01:15Z</time>
      </trkpt>
      <trkpt lat="49.94949" lon="2.11802">
        <ele>61.8</ele>
        <time>2022-09-14T14:01:16Z</time>
      </trkpt>
      <trkpt lat="49.94948" lon="2.11804">
        <ele>61.9</ele>
        <time>2022-09-14T14:01:18Z</time>
      </trkpt>
      <trkpt lat="49.94948" lon="2.11805">
        <ele>62</ele>
        <time>2022-09-14T14:01:19Z</time>
      </trkpt>
      <trkpt lat="49.94948" lon="2.11807">
        <ele>62</ele>
        <time>2022-09-14T14:01:20Z</time>
      </trkpt>
      <trkpt lat="49.94947" lon="2.11809">
        <ele>62.1</ele>
        <time>2022-09-14T14:01:21Z</time>
      </trkpt>
      <trkpt lat="49.94946" lon="2.11812">
        <ele>62.2</ele>
        <time>2022-09-14T14:01:22Z</time>
      </trkpt>
      <trkpt lat="49.94946" lon="2.11813">
        <ele>62.2</ele>
        <time>2022-09-14T14:01:23Z</time>
      </trkpt>
      <trkpt lat="49.94946" lon="2.11814">
        <ele>62.3</ele>
        <time>2022-09-14T14:01:24Z</time>
      </trkpt>
      <trkpt lat="49.94945" lon="2.11816">
        <ele>62.4</ele>
        <time>2022-09-14T14:01:26Z</time>
      </trkpt>
      <trkpt lat="49.94944" lon="2.11818">
        <ele>62.4</ele>
        <time>2022-09-14T14:01:27Z</time>
      </trkpt>
      <trkpt lat="49.94943" lon="2.11819">
        <ele>62.5</ele>
        <time>2022-09-14T14:01:28Z</time>
      </trkpt>
      <trkpt lat="49.94942" lon="2.11823">
        <ele>62.6</ele>
        <time>2022-09-14T14:01:30Z</time>
      </trkpt>
      <trkpt lat="49.94942" lon="2.11826">
        <ele>62.7</ele>
        <time>2022-09-14T14:01:31Z</time>
      </trkpt>
      <trkpt lat="49.94941" lon="2.11828">
        <ele>62.8</ele>
        <time>2022-09-14T14:01:33Z</time>
      </trkpt>
      <trkpt lat="49.94941" lon="2.11829">
        <ele>62.9</ele>
        <time>2022-09-14T14:01:34Z</time>
      </trkpt>
      <trkpt lat="49.9494" lon="2.11831">
        <ele>62.9</ele>
        <time>2022-09-14T14:01:35Z</time>
      </trkpt>
      <trkpt lat="49.9494" lon="2.11833">
        <ele>63</ele>
        <time>2022-09-14T14:01:36Z</time>
      </trkpt>
      <trkpt lat="49.94939" lon="2.11834">
        <ele>63</ele>
        <time>2022-09-14T14:01:37Z</time>
      </trkpt>
      <trkpt lat="49.94939" lon="2.11836">
        <ele>63.1</ele>
        <time>2022-09-14T14:01:38Z</time>
      </trkpt>
      <trkpt lat="49.94938" lon="2.11839">
        <ele>63.2</ele>
        <time>2022-09-14T14:01:40Z</time>
      </trkpt>
      <trkpt lat="49.94938" lon="2.1184">
        <ele>63.3</ele>
        <time>2022-09-14T14:01:41Z</time>
      </trkpt>
      <trkpt lat="49.94937" lon="2.11842">
        <ele>63.3</ele>
        <time>2022-09-14T14:01:42Z</time>
      </trkpt>
      <trkpt lat="49.94937" lon="2.11843">
        <ele>63.4</ele>
        <time>2022-09-14T14:01:43Z</time>
      </trkpt>
      <trkpt lat="49.94936" lon="2.11845">
        <ele>63.4</ele>
        <time>2022-09-14T14:01:44Z</time>
      </trkpt>
      <trkpt lat="49.94935" lon="2.11847">
        <ele>63.5</ele>
        <time>2022-09-14T14:01:45Z</time>
      </trkpt>
      <trkpt lat="49.94935" lon="2.11848">
        <ele>63.5</ele>
        <time>2022-09-14T14:01:46Z</time>
      </trkpt>
      <trkpt lat="49.94934" lon="2.11849">
        <ele>63.6</ele>
        <time>2022-09-14T14:01:47Z</time>
      </trkpt>
      <trkpt lat="49.94933" lon="2.11852">
        <ele>63.7</ele>
        <time>2022-09-14T14:01:48Z</time>
      </trkpt>
      <trkpt lat="49.94932" lon="2.11853">
        <ele>63.7</ele>
        <time>2022-09-14T14:01:49Z</time>
      </trkpt>
      <trkpt lat="49.94932" lon="2.11855">
        <ele>63.8</ele>
        <time>2022-09-14T14:01:51Z</time>
      </trkpt>
      <trkpt lat="49.94931" lon="2.11856">
        <ele>63.9</ele>
        <time>2022-09-14T14:01:52Z</time>
      </trkpt>
      <trkpt lat="49.94931" lon="2.11857">
        <ele>63.9</ele>
        <time>2022-09-14T14:01:53Z</time>
      </trkpt>
      <trkpt lat="49.9493" lon="2.11859">
        <ele>64</ele>
        <time>2022-09-14T14:01:54Z</time>
      </trkpt>
      <trkpt lat="49.94929" lon="2.1186">
        <ele>64</ele>
        <time>2022-09-14T14:01:55Z</time>
      </trkpt>
      <trkpt lat="49.94929" lon="2.11862">
        <ele>64.1</ele>
        <time>2022-09-14T14:01:57Z</time>
      </trkpt>
      <trkpt lat="49.94928" lon="2.11863">
        <ele>64.1</ele>
        <time>2022-09-14T14:01:58Z</time>
      </trkpt>
      <trkpt lat="49.94928" lon="2.11864">
        <ele>64.2</ele>
        <time>2022-09-14T14:01:59Z</time>
      </trkpt>
      <trkpt lat="49.94927" lon="2.11865">
        <ele>64.2</ele>
        <time>2022-09-14T14:02:00Z</time>
      </trkpt>
      <trkpt lat="49.94927" lon="2.11866">
        <ele>64.2</ele>
        <time>2022-09-14T14:02:01Z</time>
      </trkpt>
      <trkpt lat="49.94926" lon="2.11868">
        <ele>64.3</ele>
        <time>2022-09-14T14:02:02Z</time>
      </trkpt>
      <trkpt lat="49.94926" lon="2.11869">
        <ele>64.3</ele>
        <time>2022-09-14T14:02:03Z</time>
      </trkpt>
      <trkpt lat="49.94925" lon="2.1187">
        <ele>64.3</ele>
        <time>2022-09-14T14:02:04Z</time>
      </trkpt>
      <trkpt lat="49.94925" lon="2.11871">
        <ele>64.4</ele>
        <time>2022-09-14T14:02:05Z</time>
      </trkpt>
      <trkpt lat="49.94925" lon="2.11873">
        <ele>64.4</ele>
        <time>2022-09-14T14:02:06Z</time>
      </trkpt>
      <trkpt lat="49.94924" lon="2.11876">
        <ele>64.5</ele>
        <time>2022-09-14T14:02:07Z</time>
      </trkpt>
      <trkpt lat="49.94923" lon="2.11877">
        <ele>64.5</ele>
        <time>2022-09-14T14:02:08Z</time>
      </trkpt>
      <trkpt lat="49.94923" lon="2.11878">
        <ele>64.6</ele>
        <time>2022-09-14T14:02:09Z</time>
      </trkpt>
      <trkpt lat="49.94922" lon="2.11881">
        <ele>64.6</ele>
        <time>2022-09-14T14:02:11Z</time>
      </trkpt>
      <trkpt lat="49.94921" lon="2.11881">
        <ele>64.7</ele>
        <time>2022-09-14T14:02:12Z</time>
      </trkpt>
      <trkpt lat="49.94921" lon="2.11882">
        <ele>64.7</ele>
        <time>2022-09-14T14:02:13Z</time>
      </trkpt>
      <trkpt lat="49.9492" lon="2.11885">
        <ele>64.7</ele>
        <time>2022-09-14T14:02:14Z</time>
      </trkpt>
      <trkpt lat="49.9492" lon="2.11886">
        <ele>64.8</ele>
        <time>2022-09-14T14:02:15Z</time>
      </trkpt>
      <trkpt lat="49.94919" lon="2.11888">
        <ele>64.8</ele>
        <time>2022-09-14T14:02:16Z</time>
      </trkpt>
      <trkpt lat="49.94919" lon="2.11889">
        <ele>64.8</ele>
        <time>2022-09-14T14:02:18Z</time>
      </trkpt>
      <trkpt lat="49.94918" lon="2.11891">
        <ele>64.9</ele>
        <time>2022-09-14T14:02:19Z</time>
      </trkpt>
      <trkpt lat="49.94918" lon="2.11892">
        <ele>64.9</ele>
        <time>2022-09-14T14:02:20Z</time>
      </trkpt>
      <trkpt lat="49.94917" lon="2.11894">
        <ele>64.9</ele>
        <time>2022-09-14T14:02:21Z</time>
      </trkpt>
      <trkpt lat="49.94917" lon="2.11896">
        <ele>65</ele>
        <time>2022-09-14T14:02:22Z</time>
      </trkpt>
      <trkpt lat="49.94916" lon="2.11898">
        <ele>65</ele>
        <time>2022-09-14T14:02:23Z</time>
      </trkpt>
      <trkpt lat="49.94916" lon="2.119">
        <ele>65</ele>
        <time>2022-09-14T14:02:25Z</time>
      </trkpt>
      <trkpt lat="49.94915" lon="2.11902">
        <ele>65.1</ele>
        <time>2022-09-14T14:02:26Z</time>
      </trkpt>
      <trkpt lat="49.94915" lon="2.11903">
        <ele>65.1</ele>
        <time>2022-09-14T14:02:27Z</time>
      </trkpt>
      <trkpt lat="49.94915" lon="2.11905">
        <ele>65.1</ele>
        <time>2022-09-14T14:02:28Z</time>
      </trkpt>
      <trkpt lat="49.94915" lon="2.11906">
        <ele>65.1</ele>
        <time>2022-09-14T14:02:29Z</time>
      </trkpt>
      <trkpt lat="49.94914" lon="2.11909">
        <ele>65.2</ele>
        <time>2022-09-14T14:02:31Z</time>
      </trkpt>
      <trkpt lat="49.94913" lon="2.11911">
        <ele>65.2</ele>
        <time>2022-09-14T14:02:32Z</time>
      </trkpt>
      <trkpt lat="49.94913" lon="2.11912">
        <ele>65.2</ele>
        <time>2022-09-14T14:02:33Z</time>
      </trkpt>
      <trkpt lat="49.94912" lon="2.11913">
        <ele>65.2</ele>
        <time>2022-09-14T14:02:34Z</time>
      </trkpt>
      <trkpt lat="49.94912" lon="2.11915">
        <ele>65.3</ele>
        <time>2022-09-14T14:02:35Z</time>
      </trkpt>
      <trkpt lat="49.94912" lon="2.11917">
        <ele>65.3</ele>
        <time>2022-09-14T14:02:36Z</time>
      </trkpt>
      <trkpt lat="49.94911" lon="2.11919">
        <ele>65.3</ele>
        <time>2022-09-14T14:02:38Z</time>
      </trkpt>
      <trkpt lat="49.94911" lon="2.11921">
        <ele>65.4</ele>
        <time>2022-09-14T14:02:39Z</time>
      </trkpt>
      <trkpt lat="49.9491" lon="2.11923">
        <ele>65.4</ele>
        <time>2022-09-14T14:02:40Z</time>
      </trkpt>
      <trkpt lat="49.9491" lon="2.11924">
        <ele>65.4</ele>
        <time>2022-09-14T14:02:41Z</time>
      </trkpt>
      <trkpt lat="49.94909" lon="2.11925">
        <ele>65.4</ele>
        <time>2022-09-14T14:02:42Z</time>
      </trkpt>
      <trkpt lat="49.94909" lon="2.11927">
        <ele>65.5</ele>
        <time>2022-09-14T14:02:43Z</time>
      </trkpt>
      <trkpt lat="49.94908" lon="2.11929">
        <ele>65.5</ele>
        <time>2022-09-14T14:02:45Z</time>
      </trkpt>
      <trkpt lat="49.94908" lon="2.1193">
        <ele>65.5</ele>
        <time>2022-09-14T14:02:46Z</time>
      </trkpt>
      <trkpt lat="49.94907" lon="2.11931">
        <ele>65.5</ele>
        <time>2022-09-14T14:02:47Z</time>
      </trkpt>
      <trkpt lat="49.94907" lon="2.11932">
        <ele>65.5</ele>
        <time>2022-09-14T14:02:48Z</time>
      </trkpt>
      <trkpt lat="49.94906" lon="2.11933">
        <ele>65.6</ele>
        <time>2022-09-14T14:02:49Z</time>
      </trkpt>
      <trkpt lat="49.94905" lon="2.11934">
        <ele>65.6</ele>
        <time>2022-09-14T14:02:50Z</time>
      </trkpt>
      <trkpt lat="49.94904" lon="2.11936">
        <ele>65.6</ele>
        <time>2022-09-14T14:02:51Z</time>
      </trkpt>
      <trkpt lat="49.94903" lon="2.11938">
        <ele>65.6</ele>
        <time>2022-09-14T14:02:53Z</time>
      </trkpt>
      <trkpt lat="49.94902" lon="2.1194">
        <ele>65.7</ele>
        <time>2022-09-14T14:02:55Z</time>
      </trkpt>
      <trkpt lat="49.94902" lon="2.11942">
        <ele>65.7</ele>
        <time>2022-09-14T14:02:56Z</time>
      </trkpt>
      <trkpt lat="49.94901" lon="2.11945">
        <ele>65.7</ele>
        <time>2022-09-14T14:02:58Z</time>
      </trkpt>
      <trkpt lat="49.949" lon="2.11946">
        <ele>65.7</ele>
        <time>2022-09-14T14:02:59Z</time>
      </trkpt>
      <trkpt lat="49.949" lon="2.11947">
        <ele>65.7</ele>
        <time>2022-09-14T14:03:00Z</time>
      </trkpt>
      <trkpt lat="49.94899" lon="2.11948">
        <ele>65.7</ele>
        <time>2022-09-14T14:03:01Z</time>
      </trkpt>
      <trkpt lat="49.94899" lon="2.11949">
        <ele>65.7</ele>
        <time>2022-09-14T14:03:02Z</time>
      </trkpt>
      <trkpt lat="49.94898" lon="2.11951">
        <ele>65.8</ele>
        <time>2022-09-14T14:03:03Z</time>
      </trkpt>
      <trkpt lat="49.94897" lon="2.11953">
        <ele>65.8</ele>
        <time>2022-09-14T14:03:05Z</time>
      </trkpt>
      <trkpt lat="49.94897" lon="2.11955">
        <ele>65.8</ele>
        <time>2022-09-14T14:03:06Z</time>
      </trkpt>
      <trkpt lat="49.94896" lon="2.11956">
        <ele>65.8</ele>
        <time>2022-09-14T14:03:07Z</time>
      </trkpt>
      <trkpt lat="49.94896" lon="2.11957">
        <ele>65.8</ele>
        <time>2022-09-14T14:03:08Z</time>
      </trkpt>
      <trkpt lat="49.94895" lon="2.11958">
        <ele>65.8</ele>
        <time>2022-09-14T14:03:09Z</time>
      </trkpt>
      <trkpt lat="49.94895" lon="2.1196">
        <ele>65.8</ele>
        <time>2022-09-14T14:03:10Z</time>
      </trkpt>
      <trkpt lat="49.94894" lon="2.11962">
        <ele>65.8</ele>
        <time>2022-09-14T14:03:11Z</time>
      </trkpt>
      <trkpt lat="49.94893" lon="2.11966">
        <ele>65.9</ele>
        <time>2022-09-14T14:03:14Z</time>
      </trkpt>
      <trkpt lat="49.94892" lon="2.11968">
        <ele>65.9</ele>
        <time>2022-09-14T14:03:15Z</time>
      </trkpt>
      <trkpt lat="49.94892" lon="2.11969">
        <ele>65.9</ele>
        <time>2022-09-14T14:03:16Z</time>
      </trkpt>
      <trkpt lat="49.94891" lon="2.11971">
        <ele>65.9</ele>
        <time>2022-09-14T14:03:17Z</time>
      </trkpt>
      <trkpt lat="49.94891" lon="2.11973">
        <ele>65.9</ele>
        <time>2022-09-14T14:03:18Z</time>
      </trkpt>
      <trkpt lat="49.9489" lon="2.11975">
        <ele>65.9</ele>
        <time>2022-09-14T14:03:19Z</time>
      </trkpt>
      <trkpt lat="49.94889" lon="2.11977">
        <ele>65.9</ele>
        <time>2022-09-14T14:03:21Z</time>
      </trkpt>
      <trkpt lat="49.94889" lon="2.11979">
        <ele>66</ele>
        <time>2022-09-14T14:03:22Z</time>
      </trkpt>
      <trkpt lat="49.94888" lon="2.11979">
        <ele>66</ele>
        <time>2022-09-14T14:03:23Z</time>
      </trkpt>
      <trkpt lat="49.94888" lon="2.11981">
        <ele>66</ele>
        <time>2022-09-14T14:03:24Z</time>
      </trkpt>
      <trkpt lat="49.94888" lon="2.11982">
        <ele>66</ele>
        <time>2022-09-14T14:03:25Z</time>
      </trkpt>
      <trkpt lat="49.94887" lon="2.11984">
        <ele>66</ele>
        <time>2022-09-14T14:03:26Z</time>
      </trkpt>
      <trkpt lat="49.94886" lon="2.11986">
        <ele>66</ele>
        <time>2022-09-14T14:03:28Z</time>
      </trkpt>
      <trkpt lat="49.94886" lon="2.11988">
        <ele>66</ele>
        <time>2022-09-14T14:03:29Z</time>
      </trkpt>
      <trkpt lat="49.94885" lon="2.1199">
        <ele>66</ele>
        <time>2022-09-14T14:03:30Z</time>
      </trkpt>
      <trkpt lat="49.94884" lon="2.11991">
        <ele>66</ele>
        <time>2022-09-14T14:03:31Z</time>
      </trkpt>
      <trkpt lat="49.94884" lon="2.11992">
        <ele>66</ele>
        <time>2022-09-14T14:03:32Z</time>
      </trkpt>
      <trkpt lat="49.94883" lon="2.11994">
        <ele>66</ele>
        <time>2022-09-14T14:03:33Z</time>
      </trkpt>
      <trkpt lat="49.94883" lon="2.11995">
        <ele>66</ele>
        <time>2022-09-14T14:03:34Z</time>
      </trkpt>
      <trkpt lat="49.94882" lon="2.11997">
        <ele>66</ele>
        <time>2022-09-14T14:03:35Z</time>
      </trkpt>
      <trkpt lat="49.94882" lon="2.11998">
        <ele>66</ele>
        <time>2022-09-14T14:03:36Z</time>
      </trkpt>
      <trkpt lat="49.94881" lon="2.12">
        <ele>66</ele>
        <time>2022-09-14T14:03:37Z</time>
      </trkpt>
      <trkpt lat="49.94881" lon="2.12001">
        <ele>66</ele>
        <time>2022-09-14T14:03:38Z</time>
      </trkpt>
      <trkpt lat="49.9488" lon="2.12002">
        <ele>65.9</ele>
        <time>2022-09-14T14:03:39Z</time>
      </trkpt>
      <trkpt lat="49.9488" lon="2.12004">
        <ele>65.9</ele>
        <time>2022-09-14T14:03:40Z</time>
      </trkpt>
      <trkpt lat="49.94879" lon="2.12005">
        <ele>65.9</ele>
        <time>2022-09-14T14:03:41Z</time>
      </trkpt>
      <trkpt lat="49.94878" lon="2.12008">
        <ele>65.9</ele>
        <time>2022-09-14T14:03:43Z</time>
      </trkpt>
      <trkpt lat="49.94878" lon="2.12009">
        <ele>65.9</ele>
        <time>2022-09-14T14:03:44Z</time>
      </trkpt>
      <trkpt lat="49.94877" lon="2.12011">
        <ele>65.9</ele>
        <time>2022-09-14T14:03:45Z</time>
      </trkpt>
      <trkpt lat="49.94876" lon="2.12012">
        <ele>65.9</ele>
        <time>2022-09-14T14:03:46Z</time>
      </trkpt>
      <trkpt lat="49.94875" lon="2.12014">
        <ele>66</ele>
        <time>2022-09-14T14:03:47Z</time>
      </trkpt>
      <trkpt lat="49.94874" lon="2.12015">
        <ele>66</ele>
        <time>2022-09-14T14:03:48Z</time>
      </trkpt>
      <trkpt lat="49.94874" lon="2.12017">
        <ele>66</ele>
        <time>2022-09-14T14:03:49Z</time>
      </trkpt>
      <trkpt lat="49.94873" lon="2.12019">
        <ele>66</ele>
        <time>2022-09-14T14:03:51Z</time>
      </trkpt>
      <trkpt lat="49.94872" lon="2.12021">
        <ele>66</ele>
        <time>2022-09-14T14:03:52Z</time>
      </trkpt>
      <trkpt lat="49.94871" lon="2.12024">
        <ele>66</ele>
        <time>2022-09-14T14:03:53Z</time>
      </trkpt>
      <trkpt lat="49.94871" lon="2.12025">
        <ele>66</ele>
        <time>2022-09-14T14:03:54Z</time>
      </trkpt>
      <trkpt lat="49.9487" lon="2.12026">
        <ele>66</ele>
        <time>2022-09-14T14:03:55Z</time>
      </trkpt>
      <trkpt lat="49.94869" lon="2.12029">
        <ele>66</ele>
        <time>2022-09-14T14:03:57Z</time>
      </trkpt>
      <trkpt lat="49.94868" lon="2.1203">
        <ele>66.1</ele>
        <time>2022-09-14T14:03:58Z</time>
      </trkpt>
      <trkpt lat="49.94867" lon="2.12033">
        <ele>66.1</ele>
        <time>2022-09-14T14:03:59Z</time>
      </trkpt>
      <trkpt lat="49.94867" lon="2.12034">
        <ele>66.1</ele>
        <time>2022-09-14T14:04:00Z</time>
      </trkpt>
      <trkpt lat="49.94866" lon="2.12035">
        <ele>66.1</ele>
        <time>2022-09-14T14:04:01Z</time>
      </trkpt>
      <trkpt lat="49.94865" lon="2.12038">
        <ele>66.1</ele>
        <time>2022-09-14T14:04:02Z</time>
      </trkpt>
      <trkpt lat="49.94864" lon="2.12039">
        <ele>66.2</ele>
        <time>2022-09-14T14:04:04Z</time>
      </trkpt>
      <trkpt lat="49.94864" lon="2.12041">
        <ele>66.2</ele>
        <time>2022-09-14T14:04:05Z</time>
      </trkpt>
      <trkpt lat="49.94863" lon="2.12042">
        <ele>66.2</ele>
        <time>2022-09-14T14:04:06Z</time>
      </trkpt>
      <trkpt lat="49.94862" lon="2.12043">
        <ele>66.2</ele>
        <time>2022-09-14T14:04:07Z</time>
      </trkpt>
      <trkpt lat="49.94862" lon="2.12045">
        <ele>66.2</ele>
        <time>2022-09-14T14:04:08Z</time>
      </trkpt>
      <trkpt lat="49.94861" lon="2.12046">
        <ele>66.2</ele>
        <time>2022-09-14T14:04:09Z</time>
      </trkpt>
      <trkpt lat="49.94859" lon="2.12049">
        <ele>66.3</ele>
        <time>2022-09-14T14:04:11Z</time>
      </trkpt>
      <trkpt lat="49.94859" lon="2.12051">
        <ele>66.3</ele>
        <time>2022-09-14T14:04:12Z</time>
      </trkpt>
      <trkpt lat="49.94858" lon="2.12052">
        <ele>66.3</ele>
        <time>2022-09-14T14:04:13Z</time>
      </trkpt>
      <trkpt lat="49.94857" lon="2.12053">
        <ele>66.3</ele>
        <time>2022-09-14T14:04:14Z</time>
      </trkpt>
      <trkpt lat="49.94856" lon="2.12056">
        <ele>66.3</ele>
        <time>2022-09-14T14:04:15Z</time>
      </trkpt>
      <trkpt lat="49.94856" lon="2.12057">
        <ele>66.3</ele>
        <time>2022-09-14T14:04:16Z</time>
      </trkpt>
      <trkpt lat="49.94855" lon="2.12058">
        <ele>66.3</ele>
        <time>2022-09-14T14:04:17Z</time>
      </trkpt>
      <trkpt lat="49.94854" lon="2.12059">
        <ele>66.3</ele>
        <time>2022-09-14T14:04:19Z</time>
      </trkpt>
      <trkpt lat="49.94853" lon="2.12063">
        <ele>66.4</ele>
        <time>2022-09-14T14:04:21Z</time>
      </trkpt>
      <trkpt lat="49.94852" lon="2.12064">
        <ele>66.4</ele>
        <time>2022-09-14T14:04:22Z</time>
      </trkpt>
      <trkpt lat="49.94852" lon="2.12065">
        <ele>66.4</ele>
        <time>2022-09-14T14:04:23Z</time>
      </trkpt>
      <trkpt lat="49.94851" lon="2.12067">
        <ele>66.4</ele>
        <time>2022-09-14T14:04:24Z</time>
      </trkpt>
      <trkpt lat="49.9485" lon="2.12069">
        <ele>66.4</ele>
        <time>2022-09-14T14:04:25Z</time>
      </trkpt>
      <trkpt lat="49.9485" lon="2.1207">
        <ele>66.3</ele>
        <time>2022-09-14T14:04:26Z</time>
      </trkpt>
      <trkpt lat="49.94849" lon="2.12073">
        <ele>66.3</ele>
        <time>2022-09-14T14:04:28Z</time>
      </trkpt>
      <trkpt lat="49.94848" lon="2.12075">
        <ele>66.3</ele>
        <time>2022-09-14T14:04:29Z</time>
      </trkpt>
      <trkpt lat="49.94847" lon="2.12077">
        <ele>66.3</ele>
        <time>2022-09-14T14:04:30Z</time>
      </trkpt>
      <trkpt lat="49.94847" lon="2.12078">
        <ele>66.3</ele>
        <time>2022-09-14T14:04:31Z</time>
      </trkpt>
      <trkpt lat="49.94846" lon="2.1208">
        <ele>66.3</ele>
        <time>2022-09-14T14:04:32Z</time>
      </trkpt>
      <trkpt lat="49.94846" lon="2.12081">
        <ele>66.3</ele>
        <time>2022-09-14T14:04:33Z</time>
      </trkpt>
      <trkpt lat="49.94845" lon="2.12083">
        <ele>66.3</ele>
        <time>2022-09-14T14:04:34Z</time>
      </trkpt>
      <trkpt lat="49.94844" lon="2.12086">
        <ele>66.2</ele>
        <time>2022-09-14T14:04:36Z</time>
      </trkpt>
      <trkpt lat="49.94844" lon="2.12088">
        <ele>66.2</ele>
        <time>2022-09-14T14:04:37Z</time>
      </trkpt>
      <trkpt lat="49.94843" lon="2.1209">
        <ele>66.2</ele>
        <time>2022-09-14T14:04:38Z</time>
      </trkpt>
      <trkpt lat="49.94843" lon="2.12091">
        <ele>66.2</ele>
        <time>2022-09-14T14:04:39Z</time>
      </trkpt>
      <trkpt lat="49.94842" lon="2.12093">
        <ele>66.2</ele>
        <time>2022-09-14T14:04:40Z</time>
      </trkpt>
      <trkpt lat="49.94841" lon="2.12095">
        <ele>66.1</ele>
        <time>2022-09-14T14:04:41Z</time>
      </trkpt>
      <trkpt lat="49.9484" lon="2.12097">
        <ele>66.1</ele>
        <time>2022-09-14T14:04:42Z</time>
      </trkpt>
      <trkpt lat="49.94839" lon="2.12098">
        <ele>66.1</ele>
        <time>2022-09-14T14:04:43Z</time>
      </trkpt>
      <trkpt lat="49.94838" lon="2.121">
        <ele>66</ele>
        <time>2022-09-14T14:04:45Z</time>
      </trkpt>
      <trkpt lat="49.94837" lon="2.12102">
        <ele>66</ele>
        <time>2022-09-14T14:04:46Z</time>
      </trkpt>
      <trkpt lat="49.94836" lon="2.12102">
        <ele>66</ele>
        <time>2022-09-14T14:04:47Z</time>
      </trkpt>
      <trkpt lat="49.94835" lon="2.12103">
        <ele>65.9</ele>
        <time>2022-09-14T14:04:48Z</time>
      </trkpt>
      <trkpt lat="49.94834" lon="2.12105">
        <ele>65.9</ele>
        <time>2022-09-14T14:04:49Z</time>
      </trkpt>
      <trkpt lat="49.94833" lon="2.12106">
        <ele>65.9</ele>
        <time>2022-09-14T14:04:50Z</time>
      </trkpt>
      <trkpt lat="49.94833" lon="2.12107">
        <ele>65.8</ele>
        <time>2022-09-14T14:04:51Z</time>
      </trkpt>
      <trkpt lat="49.94832" lon="2.12109">
        <ele>65.8</ele>
        <time>2022-09-14T14:04:52Z</time>
      </trkpt>
      <trkpt lat="49.9483" lon="2.12111">
        <ele>65.8</ele>
        <time>2022-09-14T14:04:54Z</time>
      </trkpt>
      <trkpt lat="49.9483" lon="2.12113">
        <ele>65.7</ele>
        <time>2022-09-14T14:04:55Z</time>
      </trkpt>
      <trkpt lat="49.94829" lon="2.12114">
        <ele>65.7</ele>
        <time>2022-09-14T14:04:56Z</time>
      </trkpt>
      <trkpt lat="49.94829" lon="2.12116">
        <ele>65.7</ele>
        <time>2022-09-14T14:04:57Z</time>
      </trkpt>
      <trkpt lat="49.94828" lon="2.12117">
        <ele>65.7</ele>
        <time>2022-09-14T14:04:58Z</time>
      </trkpt>
      <trkpt lat="49.94827" lon="2.12119">
        <ele>65.6</ele>
        <time>2022-09-14T14:04:59Z</time>
      </trkpt>
      <trkpt lat="49.94826" lon="2.12121">
        <ele>65.6</ele>
        <time>2022-09-14T14:05:00Z</time>
      </trkpt>
      <trkpt lat="49.94825" lon="2.12123">
        <ele>65.6</ele>
        <time>2022-09-14T14:05:02Z</time>
      </trkpt>
      <trkpt lat="49.94824" lon="2.12125">
        <ele>65.6</ele>
        <time>2022-09-14T14:05:03Z</time>
      </trkpt>
      <trkpt lat="49.94823" lon="2.12126">
        <ele>65.6</ele>
        <time>2022-09-14T14:05:04Z</time>
      </trkpt>
      <trkpt lat="49.94822" lon="2.12129">
        <ele>65.5</ele>
        <time>2022-09-14T14:05:05Z</time>
      </trkpt>
      <trkpt lat="49.94821" lon="2.1213">
        <ele>65.5</ele>
        <time>2022-09-14T14:05:06Z</time>
      </trkpt>
      <trkpt lat="49.94821" lon="2.12131">
        <ele>65.5</ele>
        <time>2022-09-14T14:05:07Z</time>
      </trkpt>
      <trkpt lat="49.9482" lon="2.12133">
        <ele>65.5</ele>
        <time>2022-09-14T14:05:08Z</time>
      </trkpt>
      <trkpt lat="49.94819" lon="2.12135">
        <ele>65.5</ele>
        <time>2022-09-14T14:05:09Z</time>
      </trkpt>
      <trkpt lat="49.94818" lon="2.12136">
        <ele>65.5</ele>
        <time>2022-09-14T14:05:10Z</time>
      </trkpt>
      <trkpt lat="49.94817" lon="2.12138">
        <ele>65.5</ele>
        <time>2022-09-14T14:05:12Z</time>
      </trkpt>
      <trkpt lat="49.94816" lon="2.12139">
        <ele>65.5</ele>
        <time>2022-09-14T14:05:13Z</time>
      </trkpt>
      <trkpt lat="49.94815" lon="2.1214">
        <ele>65.5</ele>
        <time>2022-09-14T14:05:14Z</time>
      </trkpt>
      <trkpt lat="49.94814" lon="2.12141">
        <ele>65.4</ele>
        <time>2022-09-14T14:05:15Z</time>
      </trkpt>
      <trkpt lat="49.94813" lon="2.12143">
        <ele>65.4</ele>
        <time>2022-09-14T14:05:16Z</time>
      </trkpt>
      <trkpt lat="49.94811" lon="2.12145">
        <ele>65.4</ele>
        <time>2022-09-14T14:05:17Z</time>
      </trkpt>
      <trkpt lat="49.9481" lon="2.12146">
        <ele>65.4</ele>
        <time>2022-09-14T14:05:18Z</time>
      </trkpt>
      <trkpt lat="49.94809" lon="2.12148">
        <ele>65.4</ele>
        <time>2022-09-14T14:05:20Z</time>
      </trkpt>
      <trkpt lat="49.94808" lon="2.12149">
        <ele>65.4</ele>
        <time>2022-09-14T14:05:21Z</time>
      </trkpt>
      <trkpt lat="49.94807" lon="2.12149">
        <ele>65.4</ele>
        <time>2022-09-14T14:05:22Z</time>
      </trkpt>
      <trkpt lat="49.94806" lon="2.1215">
        <ele>65.4</ele>
        <time>2022-09-14T14:05:23Z</time>
      </trkpt>
      <trkpt lat="49.94805" lon="2.12151">
        <ele>65.4</ele>
        <time>2022-09-14T14:05:24Z</time>
      </trkpt>
      <trkpt lat="49.94804" lon="2.12152">
        <ele>65.4</ele>
        <time>2022-09-14T14:05:25Z</time>
      </trkpt>
      <trkpt lat="49.94803" lon="2.12153">
        <ele>65.3</ele>
        <time>2022-09-14T14:05:26Z</time>
      </trkpt>
      <trkpt lat="49.94802" lon="2.12154">
        <ele>65.3</ele>
        <time>2022-09-14T14:05:27Z</time>
      </trkpt>
      <trkpt lat="49.94801" lon="2.12155">
        <ele>65.3</ele>
        <time>2022-09-14T14:05:29Z</time>
      </trkpt>
      <trkpt lat="49.94801" lon="2.12155">
        <ele>65.3</ele>
        <time>2022-09-14T14:05:30Z</time>
      </trkpt>
      <trkpt lat="49.948" lon="2.12156">
        <ele>65.3</ele>
        <time>2022-09-14T14:05:31Z</time>
      </trkpt>
      <trkpt lat="49.94799" lon="2.12157">
        <ele>65.3</ele>
        <time>2022-09-14T14:05:32Z</time>
      </trkpt>
      <trkpt lat="49.94798" lon="2.12158">
        <ele>65.3</ele>
        <time>2022-09-14T14:05:33Z</time>
      </trkpt>
      <trkpt lat="49.94797" lon="2.12159">
        <ele>65.3</ele>
        <time>2022-09-14T14:05:34Z</time>
      </trkpt>
      <trkpt lat="49.94796" lon="2.12161">
        <ele>65.3</ele>
        <time>2022-09-14T14:05:35Z</time>
      </trkpt>
      <trkpt lat="49.94795" lon="2.12163">
        <ele>65.3</ele>
        <time>2022-09-14T14:05:37Z</time>
      </trkpt>
      <trkpt lat="49.94794" lon="2.12164">
        <ele>65.3</ele>
        <time>2022-09-14T14:05:38Z</time>
      </trkpt>
      <trkpt lat="49.94793" lon="2.12165">
        <ele>65.3</ele>
        <time>2022-09-14T14:05:39Z</time>
      </trkpt>
      <trkpt lat="49.94792" lon="2.12166">
        <ele>65.2</ele>
        <time>2022-09-14T14:05:40Z</time>
      </trkpt>
      <trkpt lat="49.94791" lon="2.12167">
        <ele>65.2</ele>
        <time>2022-09-14T14:05:41Z</time>
      </trkpt>
      <trkpt lat="49.9479" lon="2.12168">
        <ele>65.2</ele>
        <time>2022-09-14T14:05:42Z</time>
      </trkpt>
      <trkpt lat="49.94789" lon="2.12169">
        <ele>65.2</ele>
        <time>2022-09-14T14:05:43Z</time>
      </trkpt>
      <trkpt lat="49.94788" lon="2.1217">
        <ele>65.2</ele>
        <time>2022-09-14T14:05:45Z</time>
      </trkpt>
      <trkpt lat="49.94787" lon="2.12171">
        <ele>65.2</ele>
        <time>2022-09-14T14:05:46Z</time>
      </trkpt>
      <trkpt lat="49.94786" lon="2.12172">
        <ele>65.2</ele>
        <time>2022-09-14T14:05:47Z</time>
      </trkpt>
      <trkpt lat="49.94785" lon="2.12174">
        <ele>65.2</ele>
        <time>2022-09-14T14:05:48Z</time>
      </trkpt>
      <trkpt lat="49.94784" lon="2.12175">
        <ele>65.2</ele>
        <time>2022-09-14T14:05:49Z</time>
      </trkpt>
      <trkpt lat="49.94783" lon="2.12176">
        <ele>65.2</ele>
        <time>2022-09-14T14:05:50Z</time>
      </trkpt>
      <trkpt lat="49.94781" lon="2.12179">
        <ele>65.2</ele>
        <time>2022-09-14T14:05:52Z</time>
      </trkpt>
      <trkpt lat="49.94781" lon="2.12179">
        <ele>65.2</ele>
        <time>2022-09-14T14:05:53Z</time>
      </trkpt>
      <trkpt lat="49.9478" lon="2.12181">
        <ele>65.2</ele>
        <time>2022-09-14T14:05:54Z</time>
      </trkpt>
      <trkpt lat="49.94779" lon="2.12182">
        <ele>65.2</ele>
        <time>2022-09-14T14:05:55Z</time>
      </trkpt>
      <trkpt lat="49.94778" lon="2.12184">
        <ele>65.2</ele>
        <time>2022-09-14T14:05:56Z</time>
      </trkpt>
      <trkpt lat="49.94778" lon="2.12185">
        <ele>65.2</ele>
        <time>2022-09-14T14:05:57Z</time>
      </trkpt>
      <trkpt lat="49.94777" lon="2.12187">
        <ele>65.2</ele>
        <time>2022-09-14T14:05:58Z</time>
      </trkpt>
      <trkpt lat="49.94776" lon="2.12188">
        <ele>65.1</ele>
        <time>2022-09-14T14:06:00Z</time>
      </trkpt>
      <trkpt lat="49.94775" lon="2.12191">
        <ele>65.1</ele>
        <time>2022-09-14T14:06:01Z</time>
      </trkpt>
      <trkpt lat="49.94774" lon="2.12192">
        <ele>65.1</ele>
        <time>2022-09-14T14:06:02Z</time>
      </trkpt>
      <trkpt lat="49.94774" lon="2.12193">
        <ele>65</ele>
        <time>2022-09-14T14:06:03Z</time>
      </trkpt>
      <trkpt lat="49.94773" lon="2.12195">
        <ele>65</ele>
        <time>2022-09-14T14:06:05Z</time>
      </trkpt>
      <trkpt lat="49.94771" lon="2.12198">
        <ele>64.9</ele>
        <time>2022-09-14T14:06:07Z</time>
      </trkpt>
      <trkpt lat="49.9477" lon="2.122">
        <ele>64.8</ele>
        <time>2022-09-14T14:06:08Z</time>
      </trkpt>
      <trkpt lat="49.94769" lon="2.12201">
        <ele>64.7</ele>
        <time>2022-09-14T14:06:09Z</time>
      </trkpt>
      <trkpt lat="49.94768" lon="2.12203">
        <ele>64.7</ele>
        <time>2022-09-14T14:06:10Z</time>
      </trkpt>
      <trkpt lat="49.94768" lon="2.12203">
        <ele>64.7</ele>
        <time>2022-09-14T14:06:12Z</time>
      </trkpt>
      <trkpt lat="49.94767" lon="2.12204">
        <ele>64.6</ele>
        <time>2022-09-14T14:06:13Z</time>
      </trkpt>
      <trkpt lat="49.94766" lon="2.12204">
        <ele>64.5</ele>
        <time>2022-09-14T14:06:15Z</time>
      </trkpt>
      <trkpt lat="49.94765" lon="2.12204">
        <ele>64.5</ele>
        <time>2022-09-14T14:06:16Z</time>
      </trkpt>
      <trkpt lat="49.94764" lon="2.12204">
        <ele>64.5</ele>
        <time>2022-09-14T14:06:18Z</time>
      </trkpt>
      <trkpt lat="49.94764" lon="2.12204">
        <ele>64.4</ele>
        <time>2022-09-14T14:06:19Z</time>
      </trkpt>
      <trkpt lat="49.94763" lon="2.12204">
        <ele>64.4</ele>
        <time>2022-09-14T14:06:20Z</time>
      </trkpt>
      <trkpt lat="49.94763" lon="2.12203">
        <ele>64.4</ele>
        <time>2022-09-14T14:06:21Z</time>
      </trkpt>
      <trkpt lat="49.94763" lon="2.12203">
        <ele>64.4</ele>
        <time>2022-09-14T14:06:22Z</time>
      </trkpt>
      <trkpt lat="49.94763" lon="2.12203">
        <ele>64.4</ele>
        <time>2022-09-14T14:06:23Z</time>
      </trkpt>
      <trkpt lat="49.94763" lon="2.12203">
        <ele>64.4</ele>
        <time>2022-09-14T14:06:24Z</time>
      </trkpt>
      <trkpt lat="49.94763" lon="2.12203">
        <ele>64.4</ele>
        <time>2022-09-14T14:06:25Z</time>
      </trkpt>
      <trkpt lat="49.94763" lon="2.12203">
        <ele>64.4</ele>
        <time>2022-09-14T14:06:26Z</time>
      </trkpt>
      <trkpt lat="49.94763" lon="2.12203">
        <ele>64.4</ele>
        <time>2022-09-14T14:06:27Z</time>
      </trkpt>
      <trkpt lat="49.94763" lon="2.12203">
        <ele>64.4</ele>
        <time>2022-09-14T14:06:28Z</time>
      </trkpt>
      <trkpt lat="49.94763" lon="2.12203">
        <ele>64.4</ele>
        <time>2022-09-14T14:06:29Z</time>
      </trkpt>
      <trkpt lat="49.94763" lon="2.12202">
        <ele>64.3</ele>
        <time>2022-09-14T14:06:30Z</time>
      </trkpt>
      <trkpt lat="49.94763" lon="2.12202">
        <ele>64.3</ele>
        <time>2022-09-14T14:06:31Z</time>
      </trkpt>
      <trkpt lat="49.94763" lon="2.12202">
        <ele>64.3</ele>
        <time>2022-09-14T14:06:32Z</time>
      </trkpt>
      <trkpt lat="49.94763" lon="2.12202">
        <ele>64.3</ele>
        <time>2022-09-14T14:06:33Z</time>
      </trkpt>
      <trkpt lat="49.94763" lon="2.12202">
        <ele>64.3</ele>
        <time>2022-09-14T14:06:34Z</time>
      </trkpt>
      <trkpt lat="49.94763" lon="2.12202">
        <ele>64.3</ele>
        <time>2022-09-14T14:06:35Z</time>
      </trkpt>
      <trkpt lat="49.94763" lon="2.12202">
        <ele>64.3</ele>
        <time>2022-09-14T14:06:36Z</time>
      </trkpt>
      <trkpt lat="49.94763" lon="2.12202">
        <ele>64.3</ele>
        <time>2022-09-14T14:06:37Z</time>
      </trkpt>
      <trkpt lat="49.94763" lon="2.12202">
        <ele>64.3</ele>
        <time>2022-09-14T14:06:38Z</time>
      </trkpt>
      <trkpt lat="49.94763" lon="2.12202">
        <ele>64.3</ele>
        <time>2022-09-14T14:06:39Z</time>
      </trkpt>
      <trkpt lat="49.94763" lon="2.12202">
        <ele>64.3</ele>
        <time>2022-09-14T14:06:40Z</time>
      </trkpt>
      <trkpt lat="49.94763" lon="2.12202">
        <ele>64.3</ele>
        <time>2022-09-14T14:06:41Z</time>
      </trkpt>
      <trkpt lat="49.94764" lon="2.12202">
        <ele>64.3</ele>
        <time>2022-09-14T14:06:42Z</time>
      </trkpt>
      <trkpt lat="49.94764" lon="2.12202">
        <ele>64.3</ele>
        <time>2022-09-14T14:06:43Z</time>
      </trkpt>
      <trkpt lat="49.94764" lon="2.12202">
        <ele>64.3</ele>
        <time>2022-09-14T14:06:44Z</time>
      </trkpt>
      <trkpt lat="49.94764" lon="2.12202">
        <ele>64.3</ele>
        <time>2022-09-14T14:06:45Z</time>
      </trkpt>
      <trkpt lat="49.94764" lon="2.12202">
        <ele>64.3</ele>
        <time>2022-09-14T14:06:46Z</time>
      </trkpt>
      <trkpt lat="49.94764" lon="2.12201">
        <ele>64.3</ele>
        <time>2022-09-14T14:06:47Z</time>
      </trkpt>
      <trkpt lat="49.94764" lon="2.12201">
        <ele>64.3</ele>
        <time>2022-09-14T14:06:48Z</time>
      </trkpt>
      <trkpt lat="49.94764" lon="2.12201">
        <ele>64.3</ele>
        <time>2022-09-14T14:06:49Z</time>
      </trkpt>
      <trkpt lat="49.94764" lon="2.12201">
        <ele>64.3</ele>
        <time>2022-09-14T14:06:50Z</time>
      </trkpt>
      <trkpt lat="49.94764" lon="2.12201">
        <ele>64.3</ele>
        <time>2022-09-14T14:06:51Z</time>
      </trkpt>
      <trkpt lat="49.94764" lon="2.12201">
        <ele>64.3</ele>
        <time>2022-09-14T14:06:52Z</time>
      </trkpt>
      <trkpt lat="49.94764" lon="2.12201">
        <ele>64.3</ele>
        <time>2022-09-14T14:06:53Z</time>
      </trkpt>
      <trkpt lat="49.94764" lon="2.12201">
        <ele>64.3</ele>
        <time>2022-09-14T14:06:54Z</time>
      </trkpt>
      <trkpt lat="49.94764" lon="2.12201">
        <ele>64.3</ele>
        <time>2022-09-14T14:06:55Z</time>
      </trkpt>
      <trkpt lat="49.94764" lon="2.12201">
        <ele>64.3</ele>
        <time>2022-09-14T14:06:56Z</time>
      </trkpt>
      <trkpt lat="49.94764" lon="2.12201">
        <ele>64.3</ele>
        <time>2022-09-14T14:06:57Z</time>
      </trkpt>
      <trkpt lat="49.94764" lon="2.12201">
        <ele>64.3</ele>
        <time>2022-09-14T14:06:58Z</time>
      </trkpt>
      <trkpt lat="49.94764" lon="2.12201">
        <ele>64.3</ele>
        <time>2022-09-14T14:06:59Z</time>
      </trkpt>
      <trkpt lat="49.94764" lon="2.12201">
        <ele>64.3</ele>
        <time>2022-09-14T14:07:00Z</time>
      </trkpt>
      <trkpt lat="49.94764" lon="2.12201">
        <ele>64.3</ele>
        <time>2022-09-14T14:07:01Z</time>
      </trkpt>
      <trkpt lat="49.94764" lon="2.12201">
        <ele>64.3</ele>
        <time>2022-09-14T14:07:02Z</time>
      </trkpt>
      <trkpt lat="49.94764" lon="2.12201">
        <ele>64.3</ele>
        <time>2022-09-14T14:07:03Z</time>
      </trkpt>
      <trkpt lat="49.94764" lon="2.122">
        <ele>64.2</ele>
        <time>2022-09-14T14:07:04Z</time>
      </trkpt>
      <trkpt lat="49.94764" lon="2.122">
        <ele>64.2</ele>
        <time>2022-09-14T14:07:05Z</time>
      </trkpt>
      <trkpt lat="49.94764" lon="2.122">
        <ele>64.2</ele>
        <time>2022-09-14T14:07:06Z</time>
      </trkpt>
      <trkpt lat="49.94765" lon="2.122">
        <ele>64.2</ele>
        <time>2022-09-14T14:07:07Z</time>
      </trkpt>
      <trkpt lat="49.94765" lon="2.122">
        <ele>64.2</ele>
        <time>2022-09-14T14:07:08Z</time>
      </trkpt>
      <trkpt lat="49.94765" lon="2.122">
        <ele>64.2</ele>
        <time>2022-09-14T14:07:09Z</time>
      </trkpt>
      <trkpt lat="49.94765" lon="2.122">
        <ele>64.2</ele>
        <time>2022-09-14T14:07:10Z</time>
      </trkpt>
      <trkpt lat="49.94765" lon="2.122">
        <ele>64.2</ele>
        <time>2022-09-14T14:07:11Z</time>
      </trkpt>
      <trkpt lat="49.94765" lon="2.122">
        <ele>64.2</ele>
        <time>2022-09-14T14:07:12Z</time>
      </trkpt>
      <trkpt lat="49.94765" lon="2.122">
        <ele>64.2</ele>
        <time>2022-09-14T14:07:13Z</time>
      </trkpt>
      <trkpt lat="49.94765" lon="2.122">
        <ele>64.2</ele>
        <time>2022-09-14T14:07:14Z</time>
      </trkpt>
      <trkpt lat="49.94765" lon="2.122">
        <ele>64.2</ele>
        <time>2022-09-14T14:07:15Z</time>
      </trkpt>
      <trkpt lat="49.94765" lon="2.122">
        <ele>64.2</ele>
        <time>2022-09-14T14:07:16Z</time>
      </trkpt>
      <trkpt lat="49.94765" lon="2.122">
        <ele>64.2</ele>
        <time>2022-09-14T14:07:17Z</time>
      </trkpt>
      <trkpt lat="49.94765" lon="2.122">
        <ele>64.2</ele>
        <time>2022-09-14T14:07:18Z</time>
      </trkpt>
      <trkpt lat="49.94765" lon="2.122">
        <ele>64.2</ele>
        <time>2022-09-14T14:07:19Z</time>
      </trkpt>
      <trkpt lat="49.94765" lon="2.122">
        <ele>64.2</ele>
        <time>2022-09-14T14:07:20Z</time>
      </trkpt>
      <trkpt lat="49.94765" lon="2.12199">
        <ele>64.2</ele>
        <time>2022-09-14T14:07:21Z</time>
      </trkpt>
      <trkpt lat="49.94765" lon="2.12199">
        <ele>64.2</ele>
        <time>2022-09-14T14:07:22Z</time>
      </trkpt>
      <trkpt lat="49.94765" lon="2.12199">
        <ele>64.2</ele>
        <time>2022-09-14T14:07:23Z</time>
      </trkpt>
      <trkpt lat="49.94765" lon="2.12199">
        <ele>64.2</ele>
        <time>2022-09-14T14:07:24Z</time>
      </trkpt>
      <trkpt lat="49.94765" lon="2.12199">
        <ele>64.2</ele>
        <time>2022-09-14T14:07:25Z</time>
      </trkpt>
      <trkpt lat="49.94765" lon="2.12199">
        <ele>64.2</ele>
        <time>2022-09-14T14:07:26Z</time>
      </trkpt>
      <trkpt lat="49.94765" lon="2.12199">
        <ele>64.2</ele>
        <time>2022-09-14T14:07:27Z</time>
      </trkpt>
      <trkpt lat="49.94765" lon="2.12199">
        <ele>64.2</ele>
        <time>2022-09-14T14:07:28Z</time>
      </trkpt>
      <trkpt lat="49.94765" lon="2.12199">
        <ele>64.2</ele>
        <time>2022-09-14T14:07:29Z</time>
      </trkpt>
      <trkpt lat="49.94765" lon="2.12199">
        <ele>64.2</ele>
        <time>2022-09-14T14:07:30Z</time>
      </trkpt>
      <trkpt lat="49.94766" lon="2.12199">
        <ele>64.2</ele>
        <time>2022-09-14T14:07:31Z</time>
      </trkpt>
      <trkpt lat="49.94766" lon="2.12199">
        <ele>64.2</ele>
        <time>2022-09-14T14:07:32Z</time>
      </trkpt>
      <trkpt lat="49.94766" lon="2.12199">
        <ele>64.2</ele>
        <time>2022-09-14T14:07:33Z</time>
      </trkpt>
      <trkpt lat="49.94766" lon="2.12199">
        <ele>64.2</ele>
        <time>2022-09-14T14:07:34Z</time>
      </trkpt>
      <trkpt lat="49.94766" lon="2.12199">
        <ele>64.2</ele>
        <time>2022-09-14T14:07:35Z</time>
      </trkpt>
      <trkpt lat="49.94766" lon="2.12199">
        <ele>64.1</ele>
        <time>2022-09-14T14:07:36Z</time>
      </trkpt>
      <trkpt lat="49.94766" lon="2.12199">
        <ele>64.1</ele>
        <time>2022-09-14T14:07:37Z</time>
      </trkpt>
      <trkpt lat="49.94766" lon="2.12198">
        <ele>64.1</ele>
        <time>2022-09-14T14:07:38Z</time>
      </trkpt>
      <trkpt lat="49.94766" lon="2.12198">
        <ele>64.1</ele>
        <time>2022-09-14T14:07:39Z</time>
      </trkpt>
      <trkpt lat="49.94766" lon="2.12198">
        <ele>64.1</ele>
        <time>2022-09-14T14:07:40Z</time>
      </trkpt>
      <trkpt lat="49.94766" lon="2.12198">
        <ele>64.1</ele>
        <time>2022-09-14T14:07:41Z</time>
      </trkpt>
      <trkpt lat="49.94766" lon="2.12198">
        <ele>64.1</ele>
        <time>2022-09-14T14:07:42Z</time>
      </trkpt>
      <trkpt lat="49.94766" lon="2.12198">
        <ele>64.1</ele>
        <time>2022-09-14T14:07:43Z</time>
      </trkpt>
      <trkpt lat="49.94766" lon="2.12198">
        <ele>64.1</ele>
        <time>2022-09-14T14:07:44Z</time>
      </trkpt>
      <trkpt lat="49.94766" lon="2.12198">
        <ele>64.1</ele>
        <time>2022-09-14T14:07:45Z</time>
      </trkpt>
      <trkpt lat="49.94766" lon="2.12198">
        <ele>64.1</ele>
        <time>2022-09-14T14:07:46Z</time>
      </trkpt>
      <trkpt lat="49.94766" lon="2.12198">
        <ele>64.1</ele>
        <time>2022-09-14T14:07:47Z</time>
      </trkpt>
      <trkpt lat="49.94766" lon="2.12198">
        <ele>64.1</ele>
        <time>2022-09-14T14:07:48Z</time>
      </trkpt>
      <trkpt lat="49.94766" lon="2.12198">
        <ele>64.1</ele>
        <time>2022-09-14T14:07:49Z</time>
      </trkpt>
      <trkpt lat="49.94766" lon="2.12198">
        <ele>64.1</ele>
        <time>2022-09-14T14:07:50Z</time>
      </trkpt>
      <trkpt lat="49.94767" lon="2.12196">
        <ele>64</ele>
        <time>2022-09-14T14:07:51Z</time>
      </trkpt>
      <trkpt lat="49.94767" lon="2.12196">
        <ele>64</ele>
        <time>2022-09-14T14:07:52Z</time>
      </trkpt>
      <trkpt lat="49.94766" lon="2.12196">
        <ele>63.9</ele>
        <time>2022-09-14T14:07:53Z</time>
      </trkpt>
      <trkpt lat="49.94765" lon="2.12196">
        <ele>63.9</ele>
        <time>2022-09-14T14:07:54Z</time>
      </trkpt>
      <trkpt lat="49.94764" lon="2.12197">
        <ele>63.8</ele>
        <time>2022-09-14T14:07:55Z</time>
      </trkpt>
      <trkpt lat="49.94763" lon="2.12199">
        <ele>63.7</ele>
        <time>2022-09-14T14:07:56Z</time>
      </trkpt>
      <trkpt lat="49.94762" lon="2.122">
        <ele>63.7</ele>
        <time>2022-09-14T14:07:57Z</time>
      </trkpt>
      <trkpt lat="49.94761" lon="2.12201">
        <ele>63.6</ele>
        <time>2022-09-14T14:07:58Z</time>
      </trkpt>
      <trkpt lat="49.94759" lon="2.12202">
        <ele>63.5</ele>
        <time>2022-09-14T14:08:00Z</time>
      </trkpt>
      <trkpt lat="49.94757" lon="2.12205">
        <ele>63.3</ele>
        <time>2022-09-14T14:08:01Z</time>
      </trkpt>
      <trkpt lat="49.94756" lon="2.12206">
        <ele>63.3</ele>
        <time>2022-09-14T14:08:02Z</time>
      </trkpt>
      <trkpt lat="49.94755" lon="2.12208">
        <ele>63.2</ele>
        <time>2022-09-14T14:08:04Z</time>
      </trkpt>
      <trkpt lat="49.94754" lon="2.12209">
        <ele>63.1</ele>
        <time>2022-09-14T14:08:05Z</time>
      </trkpt>
      <trkpt lat="49.94753" lon="2.12211">
        <ele>63.1</ele>
        <time>2022-09-14T14:08:06Z</time>
      </trkpt>
      <trkpt lat="49.94752" lon="2.12212">
        <ele>63</ele>
        <time>2022-09-14T14:08:08Z</time>
      </trkpt>
      <trkpt lat="49.94752" lon="2.12213">
        <ele>63</ele>
        <time>2022-09-14T14:08:09Z</time>
      </trkpt>
      <trkpt lat="49.9475" lon="2.12215">
        <ele>62.9</ele>
        <time>2022-09-14T14:08:10Z</time>
      </trkpt>
      <trkpt lat="49.9475" lon="2.12215">
        <ele>62.9</ele>
        <time>2022-09-14T14:08:11Z</time>
      </trkpt>
      <trkpt lat="49.94749" lon="2.12216">
        <ele>62.8</ele>
        <time>2022-09-14T14:08:12Z</time>
      </trkpt>
      <trkpt lat="49.94749" lon="2.12217">
        <ele>62.8</ele>
        <time>2022-09-14T14:08:13Z</time>
      </trkpt>
      <trkpt lat="49.94748" lon="2.12218">
        <ele>62.8</ele>
        <time>2022-09-14T14:08:15Z</time>
      </trkpt>
      <trkpt lat="49.94747" lon="2.12219">
        <ele>62.7</ele>
        <time>2022-09-14T14:08:16Z</time>
      </trkpt>
      <trkpt lat="49.94746" lon="2.12221">
        <ele>62.6</ele>
        <time>2022-09-14T14:08:18Z</time>
      </trkpt>
      <trkpt lat="49.94745" lon="2.12222">
        <ele>62.6</ele>
        <time>2022-09-14T14:08:19Z</time>
      </trkpt>
      <trkpt lat="49.94744" lon="2.12223">
        <ele>62.5</ele>
        <time>2022-09-14T14:08:20Z</time>
      </trkpt>
      <trkpt lat="49.94744" lon="2.12224">
        <ele>62.5</ele>
        <time>2022-09-14T14:08:22Z</time>
      </trkpt>
      <trkpt lat="49.94743" lon="2.12225">
        <ele>62.5</ele>
        <time>2022-09-14T14:08:23Z</time>
      </trkpt>
      <trkpt lat="49.94742" lon="2.12226">
        <ele>62.4</ele>
        <time>2022-09-14T14:08:24Z</time>
      </trkpt>
      <trkpt lat="49.94741" lon="2.12227">
        <ele>62.4</ele>
        <time>2022-09-14T14:08:25Z</time>
      </trkpt>
      <trkpt lat="49.94741" lon="2.12228">
        <ele>62.4</ele>
        <time>2022-09-14T14:08:26Z</time>
      </trkpt>
      <trkpt lat="49.9474" lon="2.12229">
        <ele>62.3</ele>
        <time>2022-09-14T14:08:28Z</time>
      </trkpt>
      <trkpt lat="49.94739" lon="2.12229">
        <ele>62.3</ele>
        <time>2022-09-14T14:08:29Z</time>
      </trkpt>
      <trkpt lat="49.94738" lon="2.1223">
        <ele>62.2</ele>
        <time>2022-09-14T14:08:30Z</time>
      </trkpt>
      <trkpt lat="49.94738" lon="2.12231">
        <ele>62.2</ele>
        <time>2022-09-14T14:08:31Z</time>
      </trkpt>
      <trkpt lat="49.94736" lon="2.12232">
        <ele>62.2</ele>
        <time>2022-09-14T14:08:32Z</time>
      </trkpt>
      <trkpt lat="49.94736" lon="2.12233">
        <ele>62.1</ele>
        <time>2022-09-14T14:08:33Z</time>
      </trkpt>
      <trkpt lat="49.94735" lon="2.12234">
        <ele>62.1</ele>
        <time>2022-09-14T14:08:34Z</time>
      </trkpt>
      <trkpt lat="49.94734" lon="2.12235">
        <ele>62</ele>
        <time>2022-09-14T14:08:35Z</time>
      </trkpt>
      <trkpt lat="49.94733" lon="2.12236">
        <ele>62</ele>
        <time>2022-09-14T14:08:36Z</time>
      </trkpt>
      <trkpt lat="49.94732" lon="2.12237">
        <ele>61.9</ele>
        <time>2022-09-14T14:08:37Z</time>
      </trkpt>
      <trkpt lat="49.94731" lon="2.12238">
        <ele>61.9</ele>
        <time>2022-09-14T14:08:38Z</time>
      </trkpt>
      <trkpt lat="49.94731" lon="2.12238">
        <ele>61.9</ele>
        <time>2022-09-14T14:08:39Z</time>
      </trkpt>
      <trkpt lat="49.9473" lon="2.12239">
        <ele>61.8</ele>
        <time>2022-09-14T14:08:40Z</time>
      </trkpt>
      <trkpt lat="49.94728" lon="2.12242">
        <ele>61.8</ele>
        <time>2022-09-14T14:08:42Z</time>
      </trkpt>
      <trkpt lat="49.94728" lon="2.12242">
        <ele>61.7</ele>
        <time>2022-09-14T14:08:43Z</time>
      </trkpt>
      <trkpt lat="49.94727" lon="2.12244">
        <ele>61.7</ele>
        <time>2022-09-14T14:08:44Z</time>
      </trkpt>
      <trkpt lat="49.94726" lon="2.12245">
        <ele>61.7</ele>
        <time>2022-09-14T14:08:45Z</time>
      </trkpt>
      <trkpt lat="49.94725" lon="2.12246">
        <ele>61.6</ele>
        <time>2022-09-14T14:08:46Z</time>
      </trkpt>
      <trkpt lat="49.94724" lon="2.12248">
        <ele>61.6</ele>
        <time>2022-09-14T14:08:47Z</time>
      </trkpt>
      <trkpt lat="49.94723" lon="2.12249">
        <ele>61.5</ele>
        <time>2022-09-14T14:08:48Z</time>
      </trkpt>
      <trkpt lat="49.94723" lon="2.12251">
        <ele>61.5</ele>
        <time>2022-09-14T14:08:49Z</time>
      </trkpt>
      <trkpt lat="49.94722" lon="2.12252">
        <ele>61.4</ele>
        <time>2022-09-14T14:08:50Z</time>
      </trkpt>
      <trkpt lat="49.9472" lon="2.12255">
        <ele>61.3</ele>
        <time>2022-09-14T14:08:52Z</time>
      </trkpt>
      <trkpt lat="49.9472" lon="2.12255">
        <ele>61.3</ele>
        <time>2022-09-14T14:08:53Z</time>
      </trkpt>
      <trkpt lat="49.94719" lon="2.12256">
        <ele>61.3</ele>
        <time>2022-09-14T14:08:54Z</time>
      </trkpt>
      <trkpt lat="49.94718" lon="2.12258">
        <ele>61.2</ele>
        <time>2022-09-14T14:08:55Z</time>
      </trkpt>
      <trkpt lat="49.94717" lon="2.12259">
        <ele>61.2</ele>
        <time>2022-09-14T14:08:56Z</time>
      </trkpt>
      <trkpt lat="49.94716" lon="2.1226">
        <ele>61.1</ele>
        <time>2022-09-14T14:08:57Z</time>
      </trkpt>
      <trkpt lat="49.94714" lon="2.12262">
        <ele>61</ele>
        <time>2022-09-14T14:08:59Z</time>
      </trkpt>
      <trkpt lat="49.94714" lon="2.12262">
        <ele>61</ele>
        <time>2022-09-14T14:09:00Z</time>
      </trkpt>
      <trkpt lat="49.94713" lon="2.12263">
        <ele>61</ele>
        <time>2022-09-14T14:09:01Z</time>
      </trkpt>
      <trkpt lat="49.94712" lon="2.12264">
        <ele>60.9</ele>
        <time>2022-09-14T14:09:02Z</time>
      </trkpt>
      <trkpt lat="49.94711" lon="2.12265">
        <ele>60.9</ele>
        <time>2022-09-14T14:09:03Z</time>
      </trkpt>
      <trkpt lat="49.94709" lon="2.12266">
        <ele>60.8</ele>
        <time>2022-09-14T14:09:05Z</time>
      </trkpt>
      <trkpt lat="49.94708" lon="2.12267">
        <ele>60.7</ele>
        <time>2022-09-14T14:09:06Z</time>
      </trkpt>
      <trkpt lat="49.94707" lon="2.12268">
        <ele>60.7</ele>
        <time>2022-09-14T14:09:07Z</time>
      </trkpt>
      <trkpt lat="49.94707" lon="2.12269">
        <ele>60.6</ele>
        <time>2022-09-14T14:09:08Z</time>
      </trkpt>
      <trkpt lat="49.94706" lon="2.1227">
        <ele>60.6</ele>
        <time>2022-09-14T14:09:09Z</time>
      </trkpt>
      <trkpt lat="49.94705" lon="2.12271">
        <ele>60.5</ele>
        <time>2022-09-14T14:09:10Z</time>
      </trkpt>
      <trkpt lat="49.94704" lon="2.12272">
        <ele>60.5</ele>
        <time>2022-09-14T14:09:11Z</time>
      </trkpt>
      <trkpt lat="49.94702" lon="2.12274">
        <ele>60.4</ele>
        <time>2022-09-14T14:09:12Z</time>
      </trkpt>
      <trkpt lat="49.94701" lon="2.12275">
        <ele>60.3</ele>
        <time>2022-09-14T14:09:14Z</time>
      </trkpt>
      <trkpt lat="49.947" lon="2.12276">
        <ele>60.2</ele>
        <time>2022-09-14T14:09:15Z</time>
      </trkpt>
      <trkpt lat="49.94699" lon="2.12277">
        <ele>60.2</ele>
        <time>2022-09-14T14:09:16Z</time>
      </trkpt>
      <trkpt lat="49.94698" lon="2.12278">
        <ele>60.1</ele>
        <time>2022-09-14T14:09:17Z</time>
      </trkpt>
      <trkpt lat="49.94697" lon="2.12279">
        <ele>60</ele>
        <time>2022-09-14T14:09:18Z</time>
      </trkpt>
      <trkpt lat="49.94696" lon="2.1228">
        <ele>60</ele>
        <time>2022-09-14T14:09:20Z</time>
      </trkpt>
      <trkpt lat="49.94695" lon="2.12281">
        <ele>59.9</ele>
        <time>2022-09-14T14:09:21Z</time>
      </trkpt>
      <trkpt lat="49.94694" lon="2.12283">
        <ele>59.8</ele>
        <time>2022-09-14T14:09:22Z</time>
      </trkpt>
      <trkpt lat="49.94693" lon="2.12284">
        <ele>59.7</ele>
        <time>2022-09-14T14:09:23Z</time>
      </trkpt>
      <trkpt lat="49.94692" lon="2.12285">
        <ele>59.7</ele>
        <time>2022-09-14T14:09:24Z</time>
      </trkpt>
      <trkpt lat="49.94691" lon="2.12287">
        <ele>59.6</ele>
        <time>2022-09-14T14:09:26Z</time>
      </trkpt>
      <trkpt lat="49.94689" lon="2.12289">
        <ele>59.4</ele>
        <time>2022-09-14T14:09:27Z</time>
      </trkpt>
      <trkpt lat="49.94688" lon="2.1229">
        <ele>59.4</ele>
        <time>2022-09-14T14:09:28Z</time>
      </trkpt>
      <trkpt lat="49.94687" lon="2.12291">
        <ele>59.4</ele>
        <time>2022-09-14T14:09:29Z</time>
      </trkpt>
      <trkpt lat="49.94686" lon="2.12292">
        <ele>59.3</ele>
        <time>2022-09-14T14:09:30Z</time>
      </trkpt>
      <trkpt lat="49.94685" lon="2.12293">
        <ele>59.2</ele>
        <time>2022-09-14T14:09:32Z</time>
      </trkpt>
      <trkpt lat="49.94684" lon="2.12294">
        <ele>59.2</ele>
        <time>2022-09-14T14:09:33Z</time>
      </trkpt>
      <trkpt lat="49.94683" lon="2.12295">
        <ele>59.1</ele>
        <time>2022-09-14T14:09:34Z</time>
      </trkpt>
      <trkpt lat="49.94682" lon="2.12296">
        <ele>59</ele>
        <time>2022-09-14T14:09:35Z</time>
      </trkpt>
      <trkpt lat="49.94681" lon="2.12297">
        <ele>59</ele>
        <time>2022-09-14T14:09:36Z</time>
      </trkpt>
      <trkpt lat="49.9468" lon="2.12298">
        <ele>58.9</ele>
        <time>2022-09-14T14:09:37Z</time>
      </trkpt>
      <trkpt lat="49.94679" lon="2.12299">
        <ele>58.9</ele>
        <time>2022-09-14T14:09:38Z</time>
      </trkpt>
      <trkpt lat="49.94677" lon="2.12301">
        <ele>58.7</ele>
        <time>2022-09-14T14:09:40Z</time>
      </trkpt>
      <trkpt lat="49.94676" lon="2.12301">
        <ele>58.7</ele>
        <time>2022-09-14T14:09:41Z</time>
      </trkpt>
      <trkpt lat="49.94675" lon="2.12302">
        <ele>58.6</ele>
        <time>2022-09-14T14:09:42Z</time>
      </trkpt>
      <trkpt lat="49.94674" lon="2.12303">
        <ele>58.6</ele>
        <time>2022-09-14T14:09:43Z</time>
      </trkpt>
      <trkpt lat="49.94674" lon="2.12304">
        <ele>58.6</ele>
        <time>2022-09-14T14:09:44Z</time>
      </trkpt>
      <trkpt lat="49.94672" lon="2.12305">
        <ele>58.5</ele>
        <time>2022-09-14T14:09:45Z</time>
      </trkpt>
      <trkpt lat="49.94671" lon="2.12306">
        <ele>58.4</ele>
        <time>2022-09-14T14:09:46Z</time>
      </trkpt>
      <trkpt lat="49.9467" lon="2.12307">
        <ele>58.4</ele>
        <time>2022-09-14T14:09:47Z</time>
      </trkpt>
      <trkpt lat="49.94669" lon="2.12308">
        <ele>58.3</ele>
        <time>2022-09-14T14:09:48Z</time>
      </trkpt>
      <trkpt lat="49.94668" lon="2.12309">
        <ele>58.3</ele>
        <time>2022-09-14T14:09:50Z</time>
      </trkpt>
      <trkpt lat="49.94668" lon="2.1231">
        <ele>58.2</ele>
        <time>2022-09-14T14:09:51Z</time>
      </trkpt>
      <trkpt lat="49.94666" lon="2.12311">
        <ele>58.2</ele>
        <time>2022-09-14T14:09:52Z</time>
      </trkpt>
      <trkpt lat="49.94666" lon="2.12312">
        <ele>58.1</ele>
        <time>2022-09-14T14:09:53Z</time>
      </trkpt>
      <trkpt lat="49.94665" lon="2.12312">
        <ele>58.1</ele>
        <time>2022-09-14T14:09:54Z</time>
      </trkpt>
      <trkpt lat="49.94663" lon="2.12314">
        <ele>58</ele>
        <time>2022-09-14T14:09:55Z</time>
      </trkpt>
      <trkpt lat="49.94662" lon="2.12315">
        <ele>57.9</ele>
        <time>2022-09-14T14:09:56Z</time>
      </trkpt>
      <trkpt lat="49.94661" lon="2.12316">
        <ele>57.9</ele>
        <time>2022-09-14T14:09:57Z</time>
      </trkpt>
      <trkpt lat="49.94659" lon="2.12317">
        <ele>57.8</ele>
        <time>2022-09-14T14:09:59Z</time>
      </trkpt>
      <trkpt lat="49.94659" lon="2.12318">
        <ele>57.7</ele>
        <time>2022-09-14T14:10:00Z</time>
      </trkpt>
      <trkpt lat="49.94658" lon="2.12319">
        <ele>57.7</ele>
        <time>2022-09-14T14:10:01Z</time>
      </trkpt>
      <trkpt lat="49.94656" lon="2.1232">
        <ele>57.5</ele>
        <time>2022-09-14T14:10:02Z</time>
      </trkpt>
      <trkpt lat="49.94655" lon="2.1232">
        <ele>57.5</ele>
        <time>2022-09-14T14:10:03Z</time>
      </trkpt>
      <trkpt lat="49.94654" lon="2.12321">
        <ele>57.4</ele>
        <time>2022-09-14T14:10:04Z</time>
      </trkpt>
      <trkpt lat="49.94653" lon="2.12321">
        <ele>57.4</ele>
        <time>2022-09-14T14:10:05Z</time>
      </trkpt>
      <trkpt lat="49.94651" lon="2.12323">
        <ele>57.2</ele>
        <time>2022-09-14T14:10:07Z</time>
      </trkpt>
      <trkpt lat="49.9465" lon="2.12324">
        <ele>57.1</ele>
        <time>2022-09-14T14:10:09Z</time>
      </trkpt>
      <trkpt lat="49.94649" lon="2.12325">
        <ele>57</ele>
        <time>2022-09-14T14:10:10Z</time>
      </trkpt>
      <trkpt lat="49.94647" lon="2.12325">
        <ele>57</ele>
        <time>2022-09-14T14:10:11Z</time>
      </trkpt>
      <trkpt lat="49.94646" lon="2.12326">
        <ele>56.9</ele>
        <time>2022-09-14T14:10:12Z</time>
      </trkpt>
      <trkpt lat="49.94645" lon="2.12327">
        <ele>56.8</ele>
        <time>2022-09-14T14:10:13Z</time>
      </trkpt>
      <trkpt lat="49.94644" lon="2.12328">
        <ele>56.7</ele>
        <time>2022-09-14T14:10:14Z</time>
      </trkpt>
      <trkpt lat="49.94643" lon="2.12329">
        <ele>56.6</ele>
        <time>2022-09-14T14:10:15Z</time>
      </trkpt>
      <trkpt lat="49.94642" lon="2.12329">
        <ele>56.5</ele>
        <time>2022-09-14T14:10:16Z</time>
      </trkpt>
      <trkpt lat="49.9464" lon="2.12331">
        <ele>56.4</ele>
        <time>2022-09-14T14:10:17Z</time>
      </trkpt>
      <trkpt lat="49.94639" lon="2.12331">
        <ele>56.3</ele>
        <time>2022-09-14T14:10:19Z</time>
      </trkpt>
      <trkpt lat="49.94638" lon="2.12332">
        <ele>56.2</ele>
        <time>2022-09-14T14:10:20Z</time>
      </trkpt>
      <trkpt lat="49.94636" lon="2.12333">
        <ele>56.1</ele>
        <time>2022-09-14T14:10:21Z</time>
      </trkpt>
      <trkpt lat="49.94635" lon="2.12335">
        <ele>56</ele>
        <time>2022-09-14T14:10:22Z</time>
      </trkpt>
      <trkpt lat="49.94634" lon="2.12335">
        <ele>55.9</ele>
        <time>2022-09-14T14:10:23Z</time>
      </trkpt>
      <trkpt lat="49.94633" lon="2.12336">
        <ele>55.8</ele>
        <time>2022-09-14T14:10:24Z</time>
      </trkpt>
      <trkpt lat="49.94632" lon="2.12337">
        <ele>55.7</ele>
        <time>2022-09-14T14:10:25Z</time>
      </trkpt>
      <trkpt lat="49.9463" lon="2.12339">
        <ele>55.6</ele>
        <time>2022-09-14T14:10:26Z</time>
      </trkpt>
      <trkpt lat="49.94629" lon="2.12339">
        <ele>55.5</ele>
        <time>2022-09-14T14:10:28Z</time>
      </trkpt>
      <trkpt lat="49.94628" lon="2.1234">
        <ele>55.4</ele>
        <time>2022-09-14T14:10:29Z</time>
      </trkpt>
      <trkpt lat="49.94627" lon="2.12341">
        <ele>55.3</ele>
        <time>2022-09-14T14:10:30Z</time>
      </trkpt>
      <trkpt lat="49.94626" lon="2.12342">
        <ele>55.2</ele>
        <time>2022-09-14T14:10:31Z</time>
      </trkpt>
      <trkpt lat="49.94625" lon="2.12343">
        <ele>55.1</ele>
        <time>2022-09-14T14:10:32Z</time>
      </trkpt>
      <trkpt lat="49.94623" lon="2.12345">
        <ele>54.9</ele>
        <time>2022-09-14T14:10:34Z</time>
      </trkpt>
      <trkpt lat="49.94622" lon="2.12345">
        <ele>54.8</ele>
        <time>2022-09-14T14:10:35Z</time>
      </trkpt>
      <trkpt lat="49.94621" lon="2.12346">
        <ele>54.7</ele>
        <time>2022-09-14T14:10:36Z</time>
      </trkpt>
      <trkpt lat="49.9462" lon="2.12347">
        <ele>54.6</ele>
        <time>2022-09-14T14:10:38Z</time>
      </trkpt>
      <trkpt lat="49.94619" lon="2.12348">
        <ele>54.5</ele>
        <time>2022-09-14T14:10:39Z</time>
      </trkpt>
      <trkpt lat="49.94619" lon="2.12349">
        <ele>54.4</ele>
        <time>2022-09-14T14:10:40Z</time>
      </trkpt>
      <trkpt lat="49.94618" lon="2.1235">
        <ele>54.3</ele>
        <time>2022-09-14T14:10:41Z</time>
      </trkpt>
      <trkpt lat="49.94617" lon="2.12351">
        <ele>54.2</ele>
        <time>2022-09-14T14:10:42Z</time>
      </trkpt>
      <trkpt lat="49.94616" lon="2.12353">
        <ele>54</ele>
        <time>2022-09-14T14:10:43Z</time>
      </trkpt>
      <trkpt lat="49.94615" lon="2.12354">
        <ele>53.9</ele>
        <time>2022-09-14T14:10:44Z</time>
      </trkpt>
      <trkpt lat="49.94614" lon="2.12355">
        <ele>53.7</ele>
        <time>2022-09-14T14:10:45Z</time>
      </trkpt>
      <trkpt lat="49.94612" lon="2.12357">
        <ele>53.5</ele>
        <time>2022-09-14T14:10:47Z</time>
      </trkpt>
      <trkpt lat="49.94611" lon="2.12359">
        <ele>53.3</ele>
        <time>2022-09-14T14:10:48Z</time>
      </trkpt>
      <trkpt lat="49.94611" lon="2.12359">
        <ele>53.3</ele>
        <time>2022-09-14T14:10:49Z</time>
      </trkpt>
      <trkpt lat="49.9461" lon="2.12361">
        <ele>53.2</ele>
        <time>2022-09-14T14:10:50Z</time>
      </trkpt>
      <trkpt lat="49.94609" lon="2.12362">
        <ele>53</ele>
        <time>2022-09-14T14:10:51Z</time>
      </trkpt>
      <trkpt lat="49.94608" lon="2.12363">
        <ele>52.9</ele>
        <time>2022-09-14T14:10:52Z</time>
      </trkpt>
      <trkpt lat="49.94607" lon="2.12365">
        <ele>52.8</ele>
        <time>2022-09-14T14:10:53Z</time>
      </trkpt>
      <trkpt lat="49.94605" lon="2.12366">
        <ele>52.6</ele>
        <time>2022-09-14T14:10:54Z</time>
      </trkpt>
      <trkpt lat="49.94604" lon="2.12367">
        <ele>52.5</ele>
        <time>2022-09-14T14:10:56Z</time>
      </trkpt>
      <trkpt lat="49.94603" lon="2.12368">
        <ele>52.4</ele>
        <time>2022-09-14T14:10:57Z</time>
      </trkpt>
      <trkpt lat="49.94602" lon="2.12369">
        <ele>52.3</ele>
        <time>2022-09-14T14:10:58Z</time>
      </trkpt>
      <trkpt lat="49.94601" lon="2.12369">
        <ele>52.2</ele>
        <time>2022-09-14T14:10:59Z</time>
      </trkpt>
      <trkpt lat="49.946" lon="2.1237">
        <ele>52.1</ele>
        <time>2022-09-14T14:11:00Z</time>
      </trkpt>
      <trkpt lat="49.94599" lon="2.12371">
        <ele>52</ele>
        <time>2022-09-14T14:11:01Z</time>
      </trkpt>
      <trkpt lat="49.94598" lon="2.12372">
        <ele>51.9</ele>
        <time>2022-09-14T14:11:03Z</time>
      </trkpt>
      <trkpt lat="49.94596" lon="2.12374">
        <ele>51.8</ele>
        <time>2022-09-14T14:11:04Z</time>
      </trkpt>
      <trkpt lat="49.94595" lon="2.12374">
        <ele>51.7</ele>
        <time>2022-09-14T14:11:05Z</time>
      </trkpt>
      <trkpt lat="49.94595" lon="2.12375">
        <ele>51.7</ele>
        <time>2022-09-14T14:11:06Z</time>
      </trkpt>
      <trkpt lat="49.94594" lon="2.12375">
        <ele>51.6</ele>
        <time>2022-09-14T14:11:08Z</time>
      </trkpt>
      <trkpt lat="49.94593" lon="2.12375">
        <ele>51.6</ele>
        <time>2022-09-14T14:11:09Z</time>
      </trkpt>
      <trkpt lat="49.94592" lon="2.12376">
        <ele>51.5</ele>
        <time>2022-09-14T14:11:10Z</time>
      </trkpt>
      <trkpt lat="49.94591" lon="2.12377">
        <ele>51.5</ele>
        <time>2022-09-14T14:11:11Z</time>
      </trkpt>
      <trkpt lat="49.9459" lon="2.12378">
        <ele>51.4</ele>
        <time>2022-09-14T14:11:12Z</time>
      </trkpt>
      <trkpt lat="49.94588" lon="2.12379">
        <ele>51.3</ele>
        <time>2022-09-14T14:11:13Z</time>
      </trkpt>
      <trkpt lat="49.94587" lon="2.12381">
        <ele>51.2</ele>
        <time>2022-09-14T14:11:15Z</time>
      </trkpt>
      <trkpt lat="49.94586" lon="2.12382">
        <ele>51.2</ele>
        <time>2022-09-14T14:11:16Z</time>
      </trkpt>
      <trkpt lat="49.94585" lon="2.12382">
        <ele>51.2</ele>
        <time>2022-09-14T14:11:17Z</time>
      </trkpt>
      <trkpt lat="49.94584" lon="2.12383">
        <ele>51.1</ele>
        <time>2022-09-14T14:11:18Z</time>
      </trkpt>
      <trkpt lat="49.94583" lon="2.12384">
        <ele>51.1</ele>
        <time>2022-09-14T14:11:19Z</time>
      </trkpt>
      <trkpt lat="49.94581" lon="2.12386">
        <ele>51</ele>
        <time>2022-09-14T14:11:20Z</time>
      </trkpt>
      <trkpt lat="49.9458" lon="2.12386">
        <ele>51</ele>
        <time>2022-09-14T14:11:22Z</time>
      </trkpt>
      <trkpt lat="49.94579" lon="2.12387">
        <ele>51</ele>
        <time>2022-09-14T14:11:23Z</time>
      </trkpt>
      <trkpt lat="49.94577" lon="2.12389">
        <ele>50.9</ele>
        <time>2022-09-14T14:11:24Z</time>
      </trkpt>
      <trkpt lat="49.94576" lon="2.12389">
        <ele>50.9</ele>
        <time>2022-09-14T14:11:25Z</time>
      </trkpt>
      <trkpt lat="49.94576" lon="2.1239">
        <ele>50.9</ele>
        <time>2022-09-14T14:11:26Z</time>
      </trkpt>
      <trkpt lat="49.94575" lon="2.12391">
        <ele>50.9</ele>
        <time>2022-09-14T14:11:28Z</time>
      </trkpt>
      <trkpt lat="49.94573" lon="2.12392">
        <ele>50.9</ele>
        <time>2022-09-14T14:11:29Z</time>
      </trkpt>
      <trkpt lat="49.94572" lon="2.12394">
        <ele>50.9</ele>
        <time>2022-09-14T14:11:30Z</time>
      </trkpt>
      <trkpt lat="49.94571" lon="2.12395">
        <ele>50.8</ele>
        <time>2022-09-14T14:11:31Z</time>
      </trkpt>
      <trkpt lat="49.9457" lon="2.12396">
        <ele>50.8</ele>
        <time>2022-09-14T14:11:32Z</time>
      </trkpt>
      <trkpt lat="49.94569" lon="2.12398">
        <ele>50.8</ele>
        <time>2022-09-14T14:11:33Z</time>
      </trkpt>
      <trkpt lat="49.94568" lon="2.12399">
        <ele>50.8</ele>
        <time>2022-09-14T14:11:34Z</time>
      </trkpt>
      <trkpt lat="49.94566" lon="2.12401">
        <ele>50.8</ele>
        <time>2022-09-14T14:11:36Z</time>
      </trkpt>
      <trkpt lat="49.94566" lon="2.12402">
        <ele>50.8</ele>
        <time>2022-09-14T14:11:37Z</time>
      </trkpt>
      <trkpt lat="49.94565" lon="2.12403">
        <ele>50.8</ele>
        <time>2022-09-14T14:11:38Z</time>
      </trkpt>
      <trkpt lat="49.94565" lon="2.12406">
        <ele>50.8</ele>
        <time>2022-09-14T14:11:39Z</time>
      </trkpt>
      <trkpt lat="49.94564" lon="2.12408">
        <ele>50.8</ele>
        <time>2022-09-14T14:11:40Z</time>
      </trkpt>
      <trkpt lat="49.94564" lon="2.12409">
        <ele>50.8</ele>
        <time>2022-09-14T14:11:41Z</time>
      </trkpt>
      <trkpt lat="49.94564" lon="2.12411">
        <ele>50.8</ele>
        <time>2022-09-14T14:11:43Z</time>
      </trkpt>
      <trkpt lat="49.94563" lon="2.12413">
        <ele>50.8</ele>
        <time>2022-09-14T14:11:44Z</time>
      </trkpt>
      <trkpt lat="49.94562" lon="2.12414">
        <ele>50.8</ele>
        <time>2022-09-14T14:11:45Z</time>
      </trkpt>
      <trkpt lat="49.94561" lon="2.12417">
        <ele>50.8</ele>
        <time>2022-09-14T14:11:46Z</time>
      </trkpt>
      <trkpt lat="49.9456" lon="2.12418">
        <ele>50.8</ele>
        <time>2022-09-14T14:11:47Z</time>
      </trkpt>
      <trkpt lat="49.9456" lon="2.1242">
        <ele>50.9</ele>
        <time>2022-09-14T14:11:48Z</time>
      </trkpt>
      <trkpt lat="49.94559" lon="2.12421">
        <ele>50.9</ele>
        <time>2022-09-14T14:11:50Z</time>
      </trkpt>
      <trkpt lat="49.94559" lon="2.12423">
        <ele>50.9</ele>
        <time>2022-09-14T14:11:51Z</time>
      </trkpt>
      <trkpt lat="49.94558" lon="2.12425">
        <ele>50.9</ele>
        <time>2022-09-14T14:11:52Z</time>
      </trkpt>
      <trkpt lat="49.94558" lon="2.12426">
        <ele>50.9</ele>
        <time>2022-09-14T14:11:53Z</time>
      </trkpt>
      <trkpt lat="49.94557" lon="2.12428">
        <ele>50.9</ele>
        <time>2022-09-14T14:11:54Z</time>
      </trkpt>
      <trkpt lat="49.94557" lon="2.12431">
        <ele>50.9</ele>
        <time>2022-09-14T14:11:55Z</time>
      </trkpt>
      <trkpt lat="49.94557" lon="2.12432">
        <ele>50.9</ele>
        <time>2022-09-14T14:11:56Z</time>
      </trkpt>
      <trkpt lat="49.94557" lon="2.12433">
        <ele>50.9</ele>
        <time>2022-09-14T14:11:57Z</time>
      </trkpt>
      <trkpt lat="49.94556" lon="2.12435">
        <ele>50.9</ele>
        <time>2022-09-14T14:11:59Z</time>
      </trkpt>
      <trkpt lat="49.94556" lon="2.12437">
        <ele>51</ele>
        <time>2022-09-14T14:12:00Z</time>
      </trkpt>
      <trkpt lat="49.94555" lon="2.12439">
        <ele>51</ele>
        <time>2022-09-14T14:12:01Z</time>
      </trkpt>
      <trkpt lat="49.94555" lon="2.1244">
        <ele>51</ele>
        <time>2022-09-14T14:12:02Z</time>
      </trkpt>
      <trkpt lat="49.94555" lon="2.12441">
        <ele>51</ele>
        <time>2022-09-14T14:12:03Z</time>
      </trkpt>
      <trkpt lat="49.94554" lon="2.12443">
        <ele>51</ele>
        <time>2022-09-14T14:12:04Z</time>
      </trkpt>
      <trkpt lat="49.94554" lon="2.12445">
        <ele>51</ele>
        <time>2022-09-14T14:12:05Z</time>
      </trkpt>
      <trkpt lat="49.94554" lon="2.12447">
        <ele>51.1</ele>
        <time>2022-09-14T14:12:06Z</time>
      </trkpt>
      <trkpt lat="49.94553" lon="2.12449">
        <ele>51.1</ele>
        <time>2022-09-14T14:12:07Z</time>
      </trkpt>
      <trkpt lat="49.94553" lon="2.12451">
        <ele>51.1</ele>
        <time>2022-09-14T14:12:09Z</time>
      </trkpt>
      <trkpt lat="49.94552" lon="2.12452">
        <ele>51.1</ele>
        <time>2022-09-14T14:12:10Z</time>
      </trkpt>
      <trkpt lat="49.94552" lon="2.12455">
        <ele>51.2</ele>
        <time>2022-09-14T14:12:11Z</time>
      </trkpt>
      <trkpt lat="49.94552" lon="2.12456">
        <ele>51.2</ele>
        <time>2022-09-14T14:12:12Z</time>
      </trkpt>
      <trkpt lat="49.94551" lon="2.12459">
        <ele>51.3</ele>
        <time>2022-09-14T14:12:13Z</time>
      </trkpt>
      <trkpt lat="49.94551" lon="2.1246">
        <ele>51.3</ele>
        <time>2022-09-14T14:12:15Z</time>
      </trkpt>
      <trkpt lat="49.9455" lon="2.12461">
        <ele>51.3</ele>
        <time>2022-09-14T14:12:16Z</time>
      </trkpt>
      <trkpt lat="49.9455" lon="2.12463">
        <ele>51.4</ele>
        <time>2022-09-14T14:12:17Z</time>
      </trkpt>
      <trkpt lat="49.9455" lon="2.12465">
        <ele>51.4</ele>
        <time>2022-09-14T14:12:18Z</time>
      </trkpt>
      <trkpt lat="49.9455" lon="2.12466">
        <ele>51.5</ele>
        <time>2022-09-14T14:12:20Z</time>
      </trkpt>
      <trkpt lat="49.9455" lon="2.12469">
        <ele>51.6</ele>
        <time>2022-09-14T14:12:21Z</time>
      </trkpt>
      <trkpt lat="49.94549" lon="2.1247">
        <ele>51.6</ele>
        <time>2022-09-14T14:12:22Z</time>
      </trkpt>
      <trkpt lat="49.94549" lon="2.12471">
        <ele>51.6</ele>
        <time>2022-09-14T14:12:23Z</time>
      </trkpt>
      <trkpt lat="49.94549" lon="2.12474">
        <ele>51.7</ele>
        <time>2022-09-14T14:12:24Z</time>
      </trkpt>
      <trkpt lat="49.94549" lon="2.12475">
        <ele>51.8</ele>
        <time>2022-09-14T14:12:25Z</time>
      </trkpt>
      <trkpt lat="49.94549" lon="2.12477">
        <ele>51.8</ele>
        <time>2022-09-14T14:12:26Z</time>
      </trkpt>
      <trkpt lat="49.94549" lon="2.1248">
        <ele>51.9</ele>
        <time>2022-09-14T14:12:28Z</time>
      </trkpt>
      <trkpt lat="49.94549" lon="2.12481">
        <ele>52</ele>
        <time>2022-09-14T14:12:29Z</time>
      </trkpt>
      <trkpt lat="49.94549" lon="2.12483">
        <ele>52</ele>
        <time>2022-09-14T14:12:30Z</time>
      </trkpt>
      <trkpt lat="49.94549" lon="2.12486">
        <ele>52.2</ele>
        <time>2022-09-14T14:12:31Z</time>
      </trkpt>
      <trkpt lat="49.94549" lon="2.12487">
        <ele>52.2</ele>
        <time>2022-09-14T14:12:33Z</time>
      </trkpt>
      <trkpt lat="49.94549" lon="2.12489">
        <ele>52.3</ele>
        <time>2022-09-14T14:12:34Z</time>
      </trkpt>
      <trkpt lat="49.94549" lon="2.12491">
        <ele>52.4</ele>
        <time>2022-09-14T14:12:35Z</time>
      </trkpt>
      <trkpt lat="49.94549" lon="2.12492">
        <ele>52.4</ele>
        <time>2022-09-14T14:12:37Z</time>
      </trkpt>
      <trkpt lat="49.94549" lon="2.12493">
        <ele>52.5</ele>
        <time>2022-09-14T14:12:38Z</time>
      </trkpt>
      <trkpt lat="49.94549" lon="2.12494">
        <ele>52.5</ele>
        <time>2022-09-14T14:12:39Z</time>
      </trkpt>
      <trkpt lat="49.94549" lon="2.12496">
        <ele>52.6</ele>
        <time>2022-09-14T14:12:40Z</time>
      </trkpt>
      <trkpt lat="49.94549" lon="2.12498">
        <ele>52.6</ele>
        <time>2022-09-14T14:12:42Z</time>
      </trkpt>
      <trkpt lat="49.94549" lon="2.12499">
        <ele>52.7</ele>
        <time>2022-09-14T14:12:43Z</time>
      </trkpt>
      <trkpt lat="49.94549" lon="2.125">
        <ele>52.7</ele>
        <time>2022-09-14T14:12:44Z</time>
      </trkpt>
      <trkpt lat="49.94549" lon="2.12501">
        <ele>52.8</ele>
        <time>2022-09-14T14:12:45Z</time>
      </trkpt>
      <trkpt lat="49.94549" lon="2.12504">
        <ele>52.9</ele>
        <time>2022-09-14T14:12:46Z</time>
      </trkpt>
      <trkpt lat="49.94549" lon="2.12505">
        <ele>52.9</ele>
        <time>2022-09-14T14:12:47Z</time>
      </trkpt>
      <trkpt lat="49.94549" lon="2.12507">
        <ele>53</ele>
        <time>2022-09-14T14:12:49Z</time>
      </trkpt>
      <trkpt lat="49.94549" lon="2.12509">
        <ele>53.1</ele>
        <time>2022-09-14T14:12:50Z</time>
      </trkpt>
      <trkpt lat="49.94549" lon="2.12511">
        <ele>53.2</ele>
        <time>2022-09-14T14:12:51Z</time>
      </trkpt>
      <trkpt lat="49.94549" lon="2.12513">
        <ele>53.2</ele>
        <time>2022-09-14T14:12:53Z</time>
      </trkpt>
      <trkpt lat="49.94549" lon="2.12514">
        <ele>53.3</ele>
        <time>2022-09-14T14:12:54Z</time>
      </trkpt>
      <trkpt lat="49.94549" lon="2.12516">
        <ele>53.4</ele>
        <time>2022-09-14T14:12:55Z</time>
      </trkpt>
      <trkpt lat="49.94549" lon="2.12518">
        <ele>53.4</ele>
        <time>2022-09-14T14:12:57Z</time>
      </trkpt>
      <trkpt lat="49.94549" lon="2.12519">
        <ele>53.5</ele>
        <time>2022-09-14T14:12:58Z</time>
      </trkpt>
      <trkpt lat="49.94549" lon="2.12521">
        <ele>53.5</ele>
        <time>2022-09-14T14:12:59Z</time>
      </trkpt>
      <trkpt lat="49.94549" lon="2.12522">
        <ele>53.6</ele>
        <time>2022-09-14T14:13:00Z</time>
      </trkpt>
      <trkpt lat="49.94549" lon="2.12524">
        <ele>53.6</ele>
        <time>2022-09-14T14:13:01Z</time>
      </trkpt>
      <trkpt lat="49.94548" lon="2.12526">
        <ele>53.7</ele>
        <time>2022-09-14T14:13:02Z</time>
      </trkpt>
      <trkpt lat="49.94548" lon="2.12528">
        <ele>53.8</ele>
        <time>2022-09-14T14:13:04Z</time>
      </trkpt>
      <trkpt lat="49.94547" lon="2.12529">
        <ele>53.8</ele>
        <time>2022-09-14T14:13:05Z</time>
      </trkpt>
      <trkpt lat="49.94546" lon="2.1253">
        <ele>53.9</ele>
        <time>2022-09-14T14:13:06Z</time>
      </trkpt>
      <trkpt lat="49.94546" lon="2.12531">
        <ele>53.9</ele>
        <time>2022-09-14T14:13:07Z</time>
      </trkpt>
      <trkpt lat="49.94545" lon="2.1253">
        <ele>53.9</ele>
        <time>2022-09-14T14:13:08Z</time>
      </trkpt>
      <trkpt lat="49.94545" lon="2.1253">
        <ele>53.9</ele>
        <time>2022-09-14T14:13:09Z</time>
      </trkpt>
      <trkpt lat="49.94545" lon="2.1253">
        <ele>54</ele>
        <time>2022-09-14T14:13:10Z</time>
      </trkpt>
      <trkpt lat="49.94545" lon="2.1253">
        <ele>54</ele>
        <time>2022-09-14T14:13:11Z</time>
      </trkpt>
      <trkpt lat="49.94545" lon="2.1253">
        <ele>54</ele>
        <time>2022-09-14T14:13:12Z</time>
      </trkpt>
      <trkpt lat="49.94545" lon="2.1253">
        <ele>54</ele>
        <time>2022-09-14T14:13:13Z</time>
      </trkpt>
      <trkpt lat="49.94545" lon="2.1253">
        <ele>54</ele>
        <time>2022-09-14T14:13:14Z</time>
      </trkpt>
      <trkpt lat="49.94545" lon="2.1253">
        <ele>54</ele>
        <time>2022-09-14T14:13:15Z</time>
      </trkpt>
      <trkpt lat="49.94545" lon="2.1253">
        <ele>54</ele>
        <time>2022-09-14T14:13:16Z</time>
      </trkpt>
      <trkpt lat="49.94545" lon="2.12529">
        <ele>54</ele>
        <time>2022-09-14T14:13:17Z</time>
      </trkpt>
      <trkpt lat="49.94545" lon="2.1253">
        <ele>54</ele>
        <time>2022-09-14T14:13:18Z</time>
      </trkpt>
      <trkpt lat="49.94545" lon="2.1253">
        <ele>54</ele>
        <time>2022-09-14T14:13:19Z</time>
      </trkpt>
      <trkpt lat="49.94545" lon="2.1253">
        <ele>54</ele>
        <time>2022-09-14T14:13:20Z</time>
      </trkpt>
      <trkpt lat="49.94545" lon="2.1253">
        <ele>54</ele>
        <time>2022-09-14T14:13:21Z</time>
      </trkpt>
      <trkpt lat="49.94545" lon="2.1253">
        <ele>54</ele>
        <time>2022-09-14T14:13:22Z</time>
      </trkpt>
      <trkpt lat="49.94545" lon="2.1253">
        <ele>54</ele>
        <time>2022-09-14T14:13:23Z</time>
      </trkpt>
      <trkpt lat="49.94545" lon="2.12529">
        <ele>54</ele>
        <time>2022-09-14T14:13:24Z</time>
      </trkpt>
      <trkpt lat="49.94545" lon="2.12529">
        <ele>54</ele>
        <time>2022-09-14T14:13:25Z</time>
      </trkpt>
      <trkpt lat="49.94545" lon="2.12529">
        <ele>54</ele>
        <time>2022-09-14T14:13:26Z</time>
      </trkpt>
      <trkpt lat="49.94545" lon="2.12529">
        <ele>54</ele>
        <time>2022-09-14T14:13:27Z</time>
      </trkpt>
      <trkpt lat="49.94545" lon="2.12529">
        <ele>54</ele>
        <time>2022-09-14T14:13:28Z</time>
      </trkpt>
      <trkpt lat="49.94545" lon="2.12529">
        <ele>54</ele>
        <time>2022-09-14T14:13:29Z</time>
      </trkpt>
      <trkpt lat="49.94545" lon="2.12529">
        <ele>54</ele>
        <time>2022-09-14T14:13:30Z</time>
      </trkpt>
      <trkpt lat="49.94546" lon="2.12528">
        <ele>54.1</ele>
        <time>2022-09-14T14:13:31Z</time>
      </trkpt>
      <trkpt lat="49.94547" lon="2.12527">
        <ele>54.1</ele>
        <time>2022-09-14T14:13:32Z</time>
      </trkpt>
      <trkpt lat="49.94547" lon="2.12527">
        <ele>54.1</ele>
        <time>2022-09-14T14:13:33Z</time>
      </trkpt>
      <trkpt lat="49.94546" lon="2.12531">
        <ele>54.3</ele>
        <time>2022-09-14T14:13:34Z</time>
      </trkpt>
      <trkpt lat="49.94546" lon="2.12532">
        <ele>54.3</ele>
        <time>2022-09-14T14:13:35Z</time>
      </trkpt>
      <trkpt lat="49.94546" lon="2.12533">
        <ele>54.3</ele>
        <time>2022-09-14T14:13:37Z</time>
      </trkpt>
      <trkpt lat="49.94546" lon="2.12534">
        <ele>54.3</ele>
        <time>2022-09-14T14:13:38Z</time>
      </trkpt>
      <trkpt lat="49.94547" lon="2.12535">
        <ele>54.4</ele>
        <time>2022-09-14T14:13:39Z</time>
      </trkpt>
      <trkpt lat="49.94547" lon="2.12537">
        <ele>54.4</ele>
        <time>2022-09-14T14:13:40Z</time>
      </trkpt>
      <trkpt lat="49.94547" lon="2.1254">
        <ele>54.5</ele>
        <time>2022-09-14T14:13:41Z</time>
      </trkpt>
      <trkpt lat="49.94546" lon="2.12541">
        <ele>54.5</ele>
        <time>2022-09-14T14:13:42Z</time>
      </trkpt>
      <trkpt lat="49.94546" lon="2.12542">
        <ele>54.6</ele>
        <time>2022-09-14T14:13:44Z</time>
      </trkpt>
      <trkpt lat="49.94546" lon="2.12544">
        <ele>54.6</ele>
        <time>2022-09-14T14:13:45Z</time>
      </trkpt>
      <trkpt lat="49.94545" lon="2.12546">
        <ele>54.7</ele>
        <time>2022-09-14T14:13:46Z</time>
      </trkpt>
      <trkpt lat="49.94544" lon="2.12547">
        <ele>54.7</ele>
        <time>2022-09-14T14:13:47Z</time>
      </trkpt>
      <trkpt lat="49.94543" lon="2.12549">
        <ele>54.8</ele>
        <time>2022-09-14T14:13:48Z</time>
      </trkpt>
      <trkpt lat="49.94543" lon="2.12551">
        <ele>54.8</ele>
        <time>2022-09-14T14:13:50Z</time>
      </trkpt>
      <trkpt lat="49.94542" lon="2.12553">
        <ele>54.9</ele>
        <time>2022-09-14T14:13:51Z</time>
      </trkpt>
      <trkpt lat="49.94542" lon="2.12554">
        <ele>54.9</ele>
        <time>2022-09-14T14:13:52Z</time>
      </trkpt>
      <trkpt lat="49.94541" lon="2.12555">
        <ele>55</ele>
        <time>2022-09-14T14:13:53Z</time>
      </trkpt>
      <trkpt lat="49.94541" lon="2.12556">
        <ele>55</ele>
        <time>2022-09-14T14:13:54Z</time>
      </trkpt>
      <trkpt lat="49.9454" lon="2.12559">
        <ele>55.1</ele>
        <time>2022-09-14T14:13:55Z</time>
      </trkpt>
      <trkpt lat="49.9454" lon="2.1256">
        <ele>55.1</ele>
        <time>2022-09-14T14:13:56Z</time>
      </trkpt>
      <trkpt lat="49.9454" lon="2.12562">
        <ele>55.2</ele>
        <time>2022-09-14T14:13:57Z</time>
      </trkpt>
      <trkpt lat="49.94538" lon="2.12566">
        <ele>55.3</ele>
        <time>2022-09-14T14:13:59Z</time>
      </trkpt>
      <trkpt lat="49.94538" lon="2.12567">
        <ele>55.3</ele>
        <time>2022-09-14T14:14:00Z</time>
      </trkpt>
      <trkpt lat="49.94537" lon="2.12569">
        <ele>55.4</ele>
        <time>2022-09-14T14:14:02Z</time>
      </trkpt>
      <trkpt lat="49.94537" lon="2.12571">
        <ele>55.4</ele>
        <time>2022-09-14T14:14:03Z</time>
      </trkpt>
      <trkpt lat="49.94536" lon="2.12573">
        <ele>55.5</ele>
        <time>2022-09-14T14:14:04Z</time>
      </trkpt>
      <trkpt lat="49.94536" lon="2.12575">
        <ele>55.6</ele>
        <time>2022-09-14T14:14:05Z</time>
      </trkpt>
      <trkpt lat="49.94535" lon="2.12578">
        <ele>55.6</ele>
        <time>2022-09-14T14:14:06Z</time>
      </trkpt>
      <trkpt lat="49.94534" lon="2.12579">
        <ele>55.7</ele>
        <time>2022-09-14T14:14:07Z</time>
      </trkpt>
      <trkpt lat="49.94534" lon="2.1258">
        <ele>55.7</ele>
        <time>2022-09-14T14:14:08Z</time>
      </trkpt>
      <trkpt lat="49.94533" lon="2.12584">
        <ele>55.8</ele>
        <time>2022-09-14T14:14:09Z</time>
      </trkpt>
      <trkpt lat="49.94533" lon="2.12585">
        <ele>55.9</ele>
        <time>2022-09-14T14:14:11Z</time>
      </trkpt>
      <trkpt lat="49.94532" lon="2.12586">
        <ele>56</ele>
        <time>2022-09-14T14:14:12Z</time>
      </trkpt>
      <trkpt lat="49.94531" lon="2.12588">
        <ele>56.2</ele>
        <time>2022-09-14T14:14:13Z</time>
      </trkpt>
      <trkpt lat="49.94531" lon="2.1259">
        <ele>56.2</ele>
        <time>2022-09-14T14:14:14Z</time>
      </trkpt>
      <trkpt lat="49.94531" lon="2.12591">
        <ele>56.3</ele>
        <time>2022-09-14T14:14:15Z</time>
      </trkpt>
      <trkpt lat="49.9453" lon="2.12594">
        <ele>56.6</ele>
        <time>2022-09-14T14:14:17Z</time>
      </trkpt>
      <trkpt lat="49.94529" lon="2.12595">
        <ele>56.6</ele>
        <time>2022-09-14T14:14:18Z</time>
      </trkpt>
      <trkpt lat="49.94529" lon="2.12597">
        <ele>56.7</ele>
        <time>2022-09-14T14:14:19Z</time>
      </trkpt>
      <trkpt lat="49.94528" lon="2.12598">
        <ele>56.8</ele>
        <time>2022-09-14T14:14:20Z</time>
      </trkpt>
      <trkpt lat="49.94528" lon="2.126">
        <ele>56.9</ele>
        <time>2022-09-14T14:14:21Z</time>
      </trkpt>
      <trkpt lat="49.94527" lon="2.12602">
        <ele>57.1</ele>
        <time>2022-09-14T14:14:23Z</time>
      </trkpt>
      <trkpt lat="49.94527" lon="2.12603">
        <ele>57.2</ele>
        <time>2022-09-14T14:14:24Z</time>
      </trkpt>
      <trkpt lat="49.94526" lon="2.12605">
        <ele>57.3</ele>
        <time>2022-09-14T14:14:25Z</time>
      </trkpt>
      <trkpt lat="49.94526" lon="2.12607">
        <ele>57.4</ele>
        <time>2022-09-14T14:14:27Z</time>
      </trkpt>
      <trkpt lat="49.94526" lon="2.12608">
        <ele>57.5</ele>
        <time>2022-09-14T14:14:28Z</time>
      </trkpt>
      <trkpt lat="49.94525" lon="2.12611">
        <ele>57.7</ele>
        <time>2022-09-14T14:14:29Z</time>
      </trkpt>
      <trkpt lat="49.94525" lon="2.12612">
        <ele>57.8</ele>
        <time>2022-09-14T14:14:30Z</time>
      </trkpt>
      <trkpt lat="49.94525" lon="2.12614">
        <ele>57.9</ele>
        <time>2022-09-14T14:14:31Z</time>
      </trkpt>
      <trkpt lat="49.94524" lon="2.12615">
        <ele>58</ele>
        <time>2022-09-14T14:14:33Z</time>
      </trkpt>
      <trkpt lat="49.94524" lon="2.12618">
        <ele>58.2</ele>
        <time>2022-09-14T14:14:34Z</time>
      </trkpt>
      <trkpt lat="49.94524" lon="2.1262">
        <ele>58.3</ele>
        <time>2022-09-14T14:14:36Z</time>
      </trkpt>
      <trkpt lat="49.94523" lon="2.12622">
        <ele>58.4</ele>
        <time>2022-09-14T14:14:37Z</time>
      </trkpt>
      <trkpt lat="49.94523" lon="2.12623">
        <ele>58.5</ele>
        <time>2022-09-14T14:14:38Z</time>
      </trkpt>
      <trkpt lat="49.94523" lon="2.12625">
        <ele>58.7</ele>
        <time>2022-09-14T14:14:39Z</time>
      </trkpt>
      <trkpt lat="49.94522" lon="2.12628">
        <ele>58.9</ele>
        <time>2022-09-14T14:14:41Z</time>
      </trkpt>
      <trkpt lat="49.94522" lon="2.12629">
        <ele>59</ele>
        <time>2022-09-14T14:14:42Z</time>
      </trkpt>
      <trkpt lat="49.94521" lon="2.12631">
        <ele>59.1</ele>
        <time>2022-09-14T14:14:43Z</time>
      </trkpt>
      <trkpt lat="49.94521" lon="2.12634">
        <ele>59.2</ele>
        <time>2022-09-14T14:14:44Z</time>
      </trkpt>
      <trkpt lat="49.94521" lon="2.12635">
        <ele>59.3</ele>
        <time>2022-09-14T14:14:46Z</time>
      </trkpt>
      <trkpt lat="49.9452" lon="2.12636">
        <ele>59.4</ele>
        <time>2022-09-14T14:14:47Z</time>
      </trkpt>
      <trkpt lat="49.9452" lon="2.12638">
        <ele>59.5</ele>
        <time>2022-09-14T14:14:48Z</time>
      </trkpt>
      <trkpt lat="49.9452" lon="2.12639">
        <ele>59.6</ele>
        <time>2022-09-14T14:14:49Z</time>
      </trkpt>
      <trkpt lat="49.9452" lon="2.12641">
        <ele>59.7</ele>
        <time>2022-09-14T14:14:50Z</time>
      </trkpt>
      <trkpt lat="49.9452" lon="2.12644">
        <ele>59.9</ele>
        <time>2022-09-14T14:14:51Z</time>
      </trkpt>
      <trkpt lat="49.9452" lon="2.12647">
        <ele>60</ele>
        <time>2022-09-14T14:14:53Z</time>
      </trkpt>
      <trkpt lat="49.9452" lon="2.12649">
        <ele>60.1</ele>
        <time>2022-09-14T14:14:54Z</time>
      </trkpt>
      <trkpt lat="49.9452" lon="2.12651">
        <ele>60.2</ele>
        <time>2022-09-14T14:14:55Z</time>
      </trkpt>
      <trkpt lat="49.94519" lon="2.12652">
        <ele>60.3</ele>
        <time>2022-09-14T14:14:56Z</time>
      </trkpt>
      <trkpt lat="49.94519" lon="2.12654">
        <ele>60.3</ele>
        <time>2022-09-14T14:14:58Z</time>
      </trkpt>
      <trkpt lat="49.94519" lon="2.12655">
        <ele>60.4</ele>
        <time>2022-09-14T14:14:59Z</time>
      </trkpt>
      <trkpt lat="49.94519" lon="2.12657">
        <ele>60.5</ele>
        <time>2022-09-14T14:15:00Z</time>
      </trkpt>
      <trkpt lat="49.94519" lon="2.12659">
        <ele>60.6</ele>
        <time>2022-09-14T14:15:02Z</time>
      </trkpt>
      <trkpt lat="49.9452" lon="2.1266">
        <ele>60.6</ele>
        <time>2022-09-14T14:15:03Z</time>
      </trkpt>
      <trkpt lat="49.9452" lon="2.12662">
        <ele>60.7</ele>
        <time>2022-09-14T14:15:04Z</time>
      </trkpt>
      <trkpt lat="49.9452" lon="2.12665">
        <ele>60.8</ele>
        <time>2022-09-14T14:15:05Z</time>
      </trkpt>
      <trkpt lat="49.9452" lon="2.12667">
        <ele>60.9</ele>
        <time>2022-09-14T14:15:06Z</time>
      </trkpt>
      <trkpt lat="49.94519" lon="2.1267">
        <ele>61.1</ele>
        <time>2022-09-14T14:15:08Z</time>
      </trkpt>
      <trkpt lat="49.94519" lon="2.12672">
        <ele>61.2</ele>
        <time>2022-09-14T14:15:09Z</time>
      </trkpt>
      <trkpt lat="49.94519" lon="2.12673">
        <ele>61.2</ele>
        <time>2022-09-14T14:15:10Z</time>
      </trkpt>
      <trkpt lat="49.94519" lon="2.12675">
        <ele>61.3</ele>
        <time>2022-09-14T14:15:12Z</time>
      </trkpt>
      <trkpt lat="49.94519" lon="2.12677">
        <ele>61.4</ele>
        <time>2022-09-14T14:15:13Z</time>
      </trkpt>
      <trkpt lat="49.94519" lon="2.1268">
        <ele>61.5</ele>
        <time>2022-09-14T14:15:14Z</time>
      </trkpt>
      <trkpt lat="49.94519" lon="2.12681">
        <ele>61.6</ele>
        <time>2022-09-14T14:15:15Z</time>
      </trkpt>
      <trkpt lat="49.94519" lon="2.12683">
        <ele>61.7</ele>
        <time>2022-09-14T14:15:17Z</time>
      </trkpt>
      <trkpt lat="49.94519" lon="2.12683">
        <ele>61.7</ele>
        <time>2022-09-14T14:15:18Z</time>
      </trkpt>
      <trkpt lat="49.94519" lon="2.12684">
        <ele>61.7</ele>
        <time>2022-09-14T14:15:19Z</time>
      </trkpt>
      <trkpt lat="49.94519" lon="2.12686">
        <ele>61.8</ele>
        <time>2022-09-14T14:15:20Z</time>
      </trkpt>
      <trkpt lat="49.94519" lon="2.12689">
        <ele>61.9</ele>
        <time>2022-09-14T14:15:22Z</time>
      </trkpt>
      <trkpt lat="49.94519" lon="2.12691">
        <ele>62</ele>
        <time>2022-09-14T14:15:23Z</time>
      </trkpt>
      <trkpt lat="49.94519" lon="2.12693">
        <ele>62.1</ele>
        <time>2022-09-14T14:15:24Z</time>
      </trkpt>
      <trkpt lat="49.94519" lon="2.12695">
        <ele>62.2</ele>
        <time>2022-09-14T14:15:25Z</time>
      </trkpt>
      <trkpt lat="49.9452" lon="2.12697">
        <ele>62.2</ele>
        <time>2022-09-14T14:15:27Z</time>
      </trkpt>
      <trkpt lat="49.9452" lon="2.12698">
        <ele>62.3</ele>
        <time>2022-09-14T14:15:28Z</time>
      </trkpt>
      <trkpt lat="49.94521" lon="2.12699">
        <ele>62.4</ele>
        <time>2022-09-14T14:15:29Z</time>
      </trkpt>
      <trkpt lat="49.94521" lon="2.127">
        <ele>62.4</ele>
        <time>2022-09-14T14:15:30Z</time>
      </trkpt>
      <trkpt lat="49.94521" lon="2.12701">
        <ele>62.4</ele>
        <time>2022-09-14T14:15:32Z</time>
      </trkpt>
      <trkpt lat="49.94521" lon="2.12703">
        <ele>62.5</ele>
        <time>2022-09-14T14:15:33Z</time>
      </trkpt>
      <trkpt lat="49.94522" lon="2.12706">
        <ele>62.6</ele>
        <time>2022-09-14T14:15:34Z</time>
      </trkpt>
      <trkpt lat="49.94522" lon="2.12707">
        <ele>62.6</ele>
        <time>2022-09-14T14:15:35Z</time>
      </trkpt>
      <trkpt lat="49.94522" lon="2.12708">
        <ele>62.6</ele>
        <time>2022-09-14T14:15:37Z</time>
      </trkpt>
      <trkpt lat="49.94522" lon="2.12709">
        <ele>62.7</ele>
        <time>2022-09-14T14:15:38Z</time>
      </trkpt>
      <trkpt lat="49.94522" lon="2.12711">
        <ele>62.7</ele>
        <time>2022-09-14T14:15:39Z</time>
      </trkpt>
      <trkpt lat="49.94522" lon="2.12712">
        <ele>62.7</ele>
        <time>2022-09-14T14:15:40Z</time>
      </trkpt>
      <trkpt lat="49.94522" lon="2.12713">
        <ele>62.8</ele>
        <time>2022-09-14T14:15:41Z</time>
      </trkpt>
      <trkpt lat="49.94523" lon="2.12714">
        <ele>62.8</ele>
        <time>2022-09-14T14:15:42Z</time>
      </trkpt>
      <trkpt lat="49.94523" lon="2.12715">
        <ele>62.8</ele>
        <time>2022-09-14T14:15:43Z</time>
      </trkpt>
      <trkpt lat="49.94522" lon="2.12717">
        <ele>62.9</ele>
        <time>2022-09-14T14:15:44Z</time>
      </trkpt>
      <trkpt lat="49.94522" lon="2.12721">
        <ele>63</ele>
        <time>2022-09-14T14:15:45Z</time>
      </trkpt>
      <trkpt lat="49.94522" lon="2.12722">
        <ele>63</ele>
        <time>2022-09-14T14:15:46Z</time>
      </trkpt>
      <trkpt lat="49.94521" lon="2.12723">
        <ele>63.1</ele>
        <time>2022-09-14T14:15:47Z</time>
      </trkpt>
      <trkpt lat="49.9452" lon="2.12727">
        <ele>63.2</ele>
        <time>2022-09-14T14:15:48Z</time>
      </trkpt>
      <trkpt lat="49.9452" lon="2.12729">
        <ele>63.2</ele>
        <time>2022-09-14T14:15:50Z</time>
      </trkpt>
      <trkpt lat="49.94519" lon="2.12731">
        <ele>63.3</ele>
        <time>2022-09-14T14:15:52Z</time>
      </trkpt>
      <trkpt lat="49.94518" lon="2.12733">
        <ele>63.3</ele>
        <time>2022-09-14T14:15:53Z</time>
      </trkpt>
      <trkpt lat="49.94517" lon="2.12736">
        <ele>63.4</ele>
        <time>2022-09-14T14:15:54Z</time>
      </trkpt>
      <trkpt lat="49.94517" lon="2.12737">
        <ele>63.4</ele>
        <time>2022-09-14T14:15:55Z</time>
      </trkpt>
      <trkpt lat="49.94516" lon="2.12738">
        <ele>63.5</ele>
        <time>2022-09-14T14:15:56Z</time>
      </trkpt>
      <trkpt lat="49.94515" lon="2.1274">
        <ele>63.5</ele>
        <time>2022-09-14T14:15:58Z</time>
      </trkpt>
      <trkpt lat="49.94515" lon="2.12741">
        <ele>63.6</ele>
        <time>2022-09-14T14:15:59Z</time>
      </trkpt>
      <trkpt lat="49.94514" lon="2.12742">
        <ele>63.6</ele>
        <time>2022-09-14T14:16:00Z</time>
      </trkpt>
      <trkpt lat="49.94513" lon="2.12744">
        <ele>63.6</ele>
        <time>2022-09-14T14:16:01Z</time>
      </trkpt>
      <trkpt lat="49.94512" lon="2.12747">
        <ele>63.7</ele>
        <time>2022-09-14T14:16:02Z</time>
      </trkpt>
      <trkpt lat="49.94511" lon="2.12749">
        <ele>63.7</ele>
        <time>2022-09-14T14:16:04Z</time>
      </trkpt>
      <trkpt lat="49.94511" lon="2.1275">
        <ele>63.7</ele>
        <time>2022-09-14T14:16:05Z</time>
      </trkpt>
      <trkpt lat="49.9451" lon="2.12751">
        <ele>63.8</ele>
        <time>2022-09-14T14:16:06Z</time>
      </trkpt>
      <trkpt lat="49.9451" lon="2.12752">
        <ele>63.8</ele>
        <time>2022-09-14T14:16:07Z</time>
      </trkpt>
      <trkpt lat="49.94509" lon="2.12753">
        <ele>63.8</ele>
        <time>2022-09-14T14:16:09Z</time>
      </trkpt>
      <trkpt lat="49.94509" lon="2.12755">
        <ele>63.8</ele>
        <time>2022-09-14T14:16:10Z</time>
      </trkpt>
      <trkpt lat="49.94508" lon="2.12756">
        <ele>63.8</ele>
        <time>2022-09-14T14:16:11Z</time>
      </trkpt>
      <trkpt lat="49.94508" lon="2.12757">
        <ele>63.8</ele>
        <time>2022-09-14T14:16:12Z</time>
      </trkpt>
      <trkpt lat="49.94507" lon="2.12758">
        <ele>63.9</ele>
        <time>2022-09-14T14:16:13Z</time>
      </trkpt>
      <trkpt lat="49.94507" lon="2.1276">
        <ele>63.9</ele>
        <time>2022-09-14T14:16:14Z</time>
      </trkpt>
      <trkpt lat="49.94506" lon="2.12761">
        <ele>63.9</ele>
        <time>2022-09-14T14:16:15Z</time>
      </trkpt>
      <trkpt lat="49.94506" lon="2.12762">
        <ele>63.9</ele>
        <time>2022-09-14T14:16:16Z</time>
      </trkpt>
      <trkpt lat="49.94505" lon="2.12764">
        <ele>63.9</ele>
        <time>2022-09-14T14:16:18Z</time>
      </trkpt>
      <trkpt lat="49.94505" lon="2.12765">
        <ele>63.9</ele>
        <time>2022-09-14T14:16:19Z</time>
      </trkpt>
      <trkpt lat="49.94504" lon="2.12767">
        <ele>64</ele>
        <time>2022-09-14T14:16:20Z</time>
      </trkpt>
      <trkpt lat="49.94502" lon="2.12769">
        <ele>64</ele>
        <time>2022-09-14T14:16:22Z</time>
      </trkpt>
      <trkpt lat="49.94501" lon="2.12771">
        <ele>64</ele>
        <time>2022-09-14T14:16:23Z</time>
      </trkpt>
      <trkpt lat="49.94501" lon="2.12772">
        <ele>64</ele>
        <time>2022-09-14T14:16:24Z</time>
      </trkpt>
      <trkpt lat="49.945" lon="2.12773">
        <ele>64.1</ele>
        <time>2022-09-14T14:16:25Z</time>
      </trkpt>
      <trkpt lat="49.94499" lon="2.12775">
        <ele>64.1</ele>
        <time>2022-09-14T14:16:26Z</time>
      </trkpt>
      <trkpt lat="49.94499" lon="2.12776">
        <ele>64.1</ele>
        <time>2022-09-14T14:16:27Z</time>
      </trkpt>
      <trkpt lat="49.94498" lon="2.12777">
        <ele>64.1</ele>
        <time>2022-09-14T14:16:28Z</time>
      </trkpt>
      <trkpt lat="49.94497" lon="2.12779">
        <ele>64.1</ele>
        <time>2022-09-14T14:16:29Z</time>
      </trkpt>
      <trkpt lat="49.94497" lon="2.1278">
        <ele>64.2</ele>
        <time>2022-09-14T14:16:30Z</time>
      </trkpt>
      <trkpt lat="49.94496" lon="2.12781">
        <ele>64.2</ele>
        <time>2022-09-14T14:16:31Z</time>
      </trkpt>
      <trkpt lat="49.94496" lon="2.12782">
        <ele>64.2</ele>
        <time>2022-09-14T14:16:32Z</time>
      </trkpt>
      <trkpt lat="49.94495" lon="2.12783">
        <ele>64.2</ele>
        <time>2022-09-14T14:16:33Z</time>
      </trkpt>
      <trkpt lat="49.94494" lon="2.12784">
        <ele>64.2</ele>
        <time>2022-09-14T14:16:34Z</time>
      </trkpt>
      <trkpt lat="49.94493" lon="2.12785">
        <ele>64.3</ele>
        <time>2022-09-14T14:16:36Z</time>
      </trkpt>
      <trkpt lat="49.94493" lon="2.12787">
        <ele>64.3</ele>
        <time>2022-09-14T14:16:37Z</time>
      </trkpt>
      <trkpt lat="49.94492" lon="2.12789">
        <ele>64.3</ele>
        <time>2022-09-14T14:16:38Z</time>
      </trkpt>
      <trkpt lat="49.94492" lon="2.1279">
        <ele>64.3</ele>
        <time>2022-09-14T14:16:39Z</time>
      </trkpt>
      <trkpt lat="49.94491" lon="2.12793">
        <ele>64.4</ele>
        <time>2022-09-14T14:16:40Z</time>
      </trkpt>
      <trkpt lat="49.9449" lon="2.12795">
        <ele>64.4</ele>
        <time>2022-09-14T14:16:42Z</time>
      </trkpt>
      <trkpt lat="49.9449" lon="2.12796">
        <ele>64.4</ele>
        <time>2022-09-14T14:16:43Z</time>
      </trkpt>
      <trkpt lat="49.94489" lon="2.12798">
        <ele>64.4</ele>
        <time>2022-09-14T14:16:45Z</time>
      </trkpt>
      <trkpt lat="49.94489" lon="2.12799">
        <ele>64.5</ele>
        <time>2022-09-14T14:16:46Z</time>
      </trkpt>
      <trkpt lat="49.94488" lon="2.12801">
        <ele>64.5</ele>
        <time>2022-09-14T14:16:47Z</time>
      </trkpt>
      <trkpt lat="49.94487" lon="2.12803">
        <ele>64.5</ele>
        <time>2022-09-14T14:16:48Z</time>
      </trkpt>
      <trkpt lat="49.94487" lon="2.12805">
        <ele>64.6</ele>
        <time>2022-09-14T14:16:49Z</time>
      </trkpt>
      <trkpt lat="49.94486" lon="2.12807">
        <ele>64.6</ele>
        <time>2022-09-14T14:16:51Z</time>
      </trkpt>
      <trkpt lat="49.94486" lon="2.12809">
        <ele>64.6</ele>
        <time>2022-09-14T14:16:52Z</time>
      </trkpt>
      <trkpt lat="49.94485" lon="2.12811">
        <ele>64.7</ele>
        <time>2022-09-14T14:16:53Z</time>
      </trkpt>
      <trkpt lat="49.94485" lon="2.12812">
        <ele>64.7</ele>
        <time>2022-09-14T14:16:54Z</time>
      </trkpt>
      <trkpt lat="49.94484" lon="2.12813">
        <ele>64.7</ele>
        <time>2022-09-14T14:16:55Z</time>
      </trkpt>
      <trkpt lat="49.94483" lon="2.12816">
        <ele>64.8</ele>
        <time>2022-09-14T14:16:56Z</time>
      </trkpt>
      <trkpt lat="49.94483" lon="2.12818">
        <ele>64.8</ele>
        <time>2022-09-14T14:16:57Z</time>
      </trkpt>
      <trkpt lat="49.94482" lon="2.12819">
        <ele>64.8</ele>
        <time>2022-09-14T14:16:58Z</time>
      </trkpt>
      <trkpt lat="49.94482" lon="2.1282">
        <ele>64.8</ele>
        <time>2022-09-14T14:16:59Z</time>
      </trkpt>
      <trkpt lat="49.94481" lon="2.12822">
        <ele>64.9</ele>
        <time>2022-09-14T14:17:01Z</time>
      </trkpt>
      <trkpt lat="49.9448" lon="2.12823">
        <ele>64.9</ele>
        <time>2022-09-14T14:17:02Z</time>
      </trkpt>
      <trkpt lat="49.94478" lon="2.12827">
        <ele>64.9</ele>
        <time>2022-09-14T14:17:03Z</time>
      </trkpt>
      <trkpt lat="49.94477" lon="2.12828">
        <ele>65</ele>
        <time>2022-09-14T14:17:05Z</time>
      </trkpt>
      <trkpt lat="49.94477" lon="2.1283">
        <ele>65</ele>
        <time>2022-09-14T14:17:06Z</time>
      </trkpt>
      <trkpt lat="49.94476" lon="2.12831">
        <ele>65</ele>
        <time>2022-09-14T14:17:08Z</time>
      </trkpt>
      <trkpt lat="49.94475" lon="2.12832">
        <ele>65</ele>
        <time>2022-09-14T14:17:09Z</time>
      </trkpt>
      <trkpt lat="49.94474" lon="2.12833">
        <ele>65.1</ele>
        <time>2022-09-14T14:17:10Z</time>
      </trkpt>
      <trkpt lat="49.94474" lon="2.12835">
        <ele>65.1</ele>
        <time>2022-09-14T14:17:11Z</time>
      </trkpt>
      <trkpt lat="49.94473" lon="2.12837">
        <ele>65.1</ele>
        <time>2022-09-14T14:17:13Z</time>
      </trkpt>
      <trkpt lat="49.94472" lon="2.12838">
        <ele>65.1</ele>
        <time>2022-09-14T14:17:14Z</time>
      </trkpt>
      <trkpt lat="49.94471" lon="2.12841">
        <ele>65.2</ele>
        <time>2022-09-14T14:17:15Z</time>
      </trkpt>
      <trkpt lat="49.9447" lon="2.12842">
        <ele>65.2</ele>
        <time>2022-09-14T14:17:16Z</time>
      </trkpt>
      <trkpt lat="49.9447" lon="2.12843">
        <ele>65.2</ele>
        <time>2022-09-14T14:17:17Z</time>
      </trkpt>
      <trkpt lat="49.94468" lon="2.12846">
        <ele>65.3</ele>
        <time>2022-09-14T14:17:18Z</time>
      </trkpt>
      <trkpt lat="49.94468" lon="2.12847">
        <ele>65.3</ele>
        <time>2022-09-14T14:17:20Z</time>
      </trkpt>
      <trkpt lat="49.94467" lon="2.12848">
        <ele>65.3</ele>
        <time>2022-09-14T14:17:21Z</time>
      </trkpt>
      <trkpt lat="49.94466" lon="2.1285">
        <ele>65.4</ele>
        <time>2022-09-14T14:17:22Z</time>
      </trkpt>
      <trkpt lat="49.94466" lon="2.12851">
        <ele>65.4</ele>
        <time>2022-09-14T14:17:23Z</time>
      </trkpt>
      <trkpt lat="49.94465" lon="2.12852">
        <ele>65.4</ele>
        <time>2022-09-14T14:17:24Z</time>
      </trkpt>
      <trkpt lat="49.94465" lon="2.12853">
        <ele>65.4</ele>
        <time>2022-09-14T14:17:26Z</time>
      </trkpt>
      <trkpt lat="49.94464" lon="2.12855">
        <ele>65.5</ele>
        <time>2022-09-14T14:17:27Z</time>
      </trkpt>
      <trkpt lat="49.94463" lon="2.12856">
        <ele>65.5</ele>
        <time>2022-09-14T14:17:28Z</time>
      </trkpt>
      <trkpt lat="49.94462" lon="2.12857">
        <ele>65.5</ele>
        <time>2022-09-14T14:17:29Z</time>
      </trkpt>
      <trkpt lat="49.94462" lon="2.12858">
        <ele>65.6</ele>
        <time>2022-09-14T14:17:30Z</time>
      </trkpt>
      <trkpt lat="49.94461" lon="2.12859">
        <ele>65.6</ele>
        <time>2022-09-14T14:17:31Z</time>
      </trkpt>
      <trkpt lat="49.9446" lon="2.1286">
        <ele>65.6</ele>
        <time>2022-09-14T14:17:32Z</time>
      </trkpt>
      <trkpt lat="49.94458" lon="2.12863">
        <ele>65.7</ele>
        <time>2022-09-14T14:17:34Z</time>
      </trkpt>
      <trkpt lat="49.94458" lon="2.12863">
        <ele>65.7</ele>
        <time>2022-09-14T14:17:35Z</time>
      </trkpt>
      <trkpt lat="49.94457" lon="2.12864">
        <ele>65.7</ele>
        <time>2022-09-14T14:17:36Z</time>
      </trkpt>
      <trkpt lat="49.94456" lon="2.12865">
        <ele>65.7</ele>
        <time>2022-09-14T14:17:37Z</time>
      </trkpt>
      <trkpt lat="49.94455" lon="2.12867">
        <ele>65.8</ele>
        <time>2022-09-14T14:17:38Z</time>
      </trkpt>
      <trkpt lat="49.94454" lon="2.12869">
        <ele>65.8</ele>
        <time>2022-09-14T14:17:39Z</time>
      </trkpt>
      <trkpt lat="49.94453" lon="2.12871">
        <ele>65.9</ele>
        <time>2022-09-14T14:17:41Z</time>
      </trkpt>
      <trkpt lat="49.94453" lon="2.12872">
        <ele>65.9</ele>
        <time>2022-09-14T14:17:42Z</time>
      </trkpt>
      <trkpt lat="49.94452" lon="2.12873">
        <ele>65.9</ele>
        <time>2022-09-14T14:17:43Z</time>
      </trkpt>
      <trkpt lat="49.94451" lon="2.12875">
        <ele>65.9</ele>
        <time>2022-09-14T14:17:44Z</time>
      </trkpt>
      <trkpt lat="49.94451" lon="2.12876">
        <ele>65.9</ele>
        <time>2022-09-14T14:17:45Z</time>
      </trkpt>
      <trkpt lat="49.9445" lon="2.12877">
        <ele>66</ele>
        <time>2022-09-14T14:17:46Z</time>
      </trkpt>
      <trkpt lat="49.94449" lon="2.12878">
        <ele>66</ele>
        <time>2022-09-14T14:17:47Z</time>
      </trkpt>
      <trkpt lat="49.94448" lon="2.12881">
        <ele>66.1</ele>
        <time>2022-09-14T14:17:49Z</time>
      </trkpt>
      <trkpt lat="49.94447" lon="2.12882">
        <ele>66.1</ele>
        <time>2022-09-14T14:17:50Z</time>
      </trkpt>
      <trkpt lat="49.94447" lon="2.12884">
        <ele>66.1</ele>
        <time>2022-09-14T14:17:51Z</time>
      </trkpt>
      <trkpt lat="49.94446" lon="2.12886">
        <ele>66.1</ele>
        <time>2022-09-14T14:17:52Z</time>
      </trkpt>
      <trkpt lat="49.94445" lon="2.12888">
        <ele>66.2</ele>
        <time>2022-09-14T14:17:53Z</time>
      </trkpt>
      <trkpt lat="49.94445" lon="2.1289">
        <ele>66.2</ele>
        <time>2022-09-14T14:17:54Z</time>
      </trkpt>
      <trkpt lat="49.94444" lon="2.12892">
        <ele>66.2</ele>
        <time>2022-09-14T14:17:56Z</time>
      </trkpt>
      <trkpt lat="49.94443" lon="2.12894">
        <ele>66.2</ele>
        <time>2022-09-14T14:17:58Z</time>
      </trkpt>
      <trkpt lat="49.94442" lon="2.12896">
        <ele>66.2</ele>
        <time>2022-09-14T14:17:59Z</time>
      </trkpt>
      <trkpt lat="49.94441" lon="2.12897">
        <ele>66.2</ele>
        <time>2022-09-14T14:18:00Z</time>
      </trkpt>
      <trkpt lat="49.94441" lon="2.12898">
        <ele>66.3</ele>
        <time>2022-09-14T14:18:01Z</time>
      </trkpt>
      <trkpt lat="49.9444" lon="2.129">
        <ele>66.3</ele>
        <time>2022-09-14T14:18:02Z</time>
      </trkpt>
      <trkpt lat="49.94439" lon="2.12901">
        <ele>66.3</ele>
        <time>2022-09-14T14:18:03Z</time>
      </trkpt>
      <trkpt lat="49.94439" lon="2.12903">
        <ele>66.3</ele>
        <time>2022-09-14T14:18:04Z</time>
      </trkpt>
      <trkpt lat="49.94438" lon="2.12904">
        <ele>66.3</ele>
        <time>2022-09-14T14:18:05Z</time>
      </trkpt>
      <trkpt lat="49.94438" lon="2.12905">
        <ele>66.3</ele>
        <time>2022-09-14T14:18:06Z</time>
      </trkpt>
      <trkpt lat="49.94437" lon="2.12907">
        <ele>66.3</ele>
        <time>2022-09-14T14:18:07Z</time>
      </trkpt>
      <trkpt lat="49.94435" lon="2.12909">
        <ele>66.4</ele>
        <time>2022-09-14T14:18:08Z</time>
      </trkpt>
      <trkpt lat="49.94435" lon="2.12911">
        <ele>66.4</ele>
        <time>2022-09-14T14:18:09Z</time>
      </trkpt>
      <trkpt lat="49.94434" lon="2.12912">
        <ele>66.4</ele>
        <time>2022-09-14T14:18:11Z</time>
      </trkpt>
      <trkpt lat="49.94433" lon="2.12914">
        <ele>66.4</ele>
        <time>2022-09-14T14:18:12Z</time>
      </trkpt>
      <trkpt lat="49.94433" lon="2.12915">
        <ele>66.4</ele>
        <time>2022-09-14T14:18:13Z</time>
      </trkpt>
      <trkpt lat="49.94432" lon="2.12917">
        <ele>66.4</ele>
        <time>2022-09-14T14:18:14Z</time>
      </trkpt>
      <trkpt lat="49.94431" lon="2.12919">
        <ele>66.5</ele>
        <time>2022-09-14T14:18:15Z</time>
      </trkpt>
      <trkpt lat="49.9443" lon="2.1292">
        <ele>66.5</ele>
        <time>2022-09-14T14:18:16Z</time>
      </trkpt>
      <trkpt lat="49.94429" lon="2.12922">
        <ele>66.5</ele>
        <time>2022-09-14T14:18:17Z</time>
      </trkpt>
      <trkpt lat="49.94428" lon="2.12924">
        <ele>66.5</ele>
        <time>2022-09-14T14:18:19Z</time>
      </trkpt>
      <trkpt lat="49.94428" lon="2.12925">
        <ele>66.5</ele>
        <time>2022-09-14T14:18:20Z</time>
      </trkpt>
      <trkpt lat="49.94428" lon="2.12927">
        <ele>66.5</ele>
        <time>2022-09-14T14:18:21Z</time>
      </trkpt>
      <trkpt lat="49.94427" lon="2.12929">
        <ele>66.6</ele>
        <time>2022-09-14T14:18:22Z</time>
      </trkpt>
      <trkpt lat="49.94426" lon="2.1293">
        <ele>66.6</ele>
        <time>2022-09-14T14:18:23Z</time>
      </trkpt>
      <trkpt lat="49.94425" lon="2.12933">
        <ele>66.6</ele>
        <time>2022-09-14T14:18:24Z</time>
      </trkpt>
      <trkpt lat="49.94425" lon="2.12934">
        <ele>66.6</ele>
        <time>2022-09-14T14:18:26Z</time>
      </trkpt>
      <trkpt lat="49.94424" lon="2.12936">
        <ele>66.6</ele>
        <time>2022-09-14T14:18:27Z</time>
      </trkpt>
      <trkpt lat="49.94424" lon="2.12937">
        <ele>66.6</ele>
        <time>2022-09-14T14:18:28Z</time>
      </trkpt>
      <trkpt lat="49.94423" lon="2.12938">
        <ele>66.7</ele>
        <time>2022-09-14T14:18:29Z</time>
      </trkpt>
      <trkpt lat="49.94422" lon="2.12939">
        <ele>66.7</ele>
        <time>2022-09-14T14:18:30Z</time>
      </trkpt>
      <trkpt lat="49.94421" lon="2.1294">
        <ele>66.7</ele>
        <time>2022-09-14T14:18:31Z</time>
      </trkpt>
      <trkpt lat="49.9442" lon="2.12941">
        <ele>66.7</ele>
        <time>2022-09-14T14:18:32Z</time>
      </trkpt>
      <trkpt lat="49.94419" lon="2.12944">
        <ele>66.7</ele>
        <time>2022-09-14T14:18:34Z</time>
      </trkpt>
      <trkpt lat="49.94418" lon="2.12945">
        <ele>66.7</ele>
        <time>2022-09-14T14:18:35Z</time>
      </trkpt>
      <trkpt lat="49.94417" lon="2.12946">
        <ele>66.7</ele>
        <time>2022-09-14T14:18:36Z</time>
      </trkpt>
      <trkpt lat="49.94417" lon="2.12947">
        <ele>66.8</ele>
        <time>2022-09-14T14:18:37Z</time>
      </trkpt>
      <trkpt lat="49.94416" lon="2.12949">
        <ele>66.8</ele>
        <time>2022-09-14T14:18:38Z</time>
      </trkpt>
      <trkpt lat="49.94415" lon="2.12951">
        <ele>66.8</ele>
        <time>2022-09-14T14:18:39Z</time>
      </trkpt>
      <trkpt lat="49.94414" lon="2.12952">
        <ele>66.8</ele>
        <time>2022-09-14T14:18:40Z</time>
      </trkpt>
      <trkpt lat="49.94414" lon="2.12953">
        <ele>66.8</ele>
        <time>2022-09-14T14:18:42Z</time>
      </trkpt>
      <trkpt lat="49.94413" lon="2.12955">
        <ele>66.8</ele>
        <time>2022-09-14T14:18:43Z</time>
      </trkpt>
      <trkpt lat="49.94412" lon="2.12957">
        <ele>66.9</ele>
        <time>2022-09-14T14:18:44Z</time>
      </trkpt>
      <trkpt lat="49.94411" lon="2.12958">
        <ele>66.9</ele>
        <time>2022-09-14T14:18:45Z</time>
      </trkpt>
      <trkpt lat="49.94411" lon="2.12959">
        <ele>66.9</ele>
        <time>2022-09-14T14:18:46Z</time>
      </trkpt>
      <trkpt lat="49.9441" lon="2.1296">
        <ele>66.9</ele>
        <time>2022-09-14T14:18:47Z</time>
      </trkpt>
      <trkpt lat="49.94409" lon="2.12962">
        <ele>67</ele>
        <time>2022-09-14T14:18:49Z</time>
      </trkpt>
      <trkpt lat="49.94408" lon="2.12963">
        <ele>67</ele>
        <time>2022-09-14T14:18:50Z</time>
      </trkpt>
      <trkpt lat="49.94408" lon="2.12964">
        <ele>67</ele>
        <time>2022-09-14T14:18:51Z</time>
      </trkpt>
      <trkpt lat="49.94407" lon="2.12966">
        <ele>67</ele>
        <time>2022-09-14T14:18:52Z</time>
      </trkpt>
      <trkpt lat="49.94406" lon="2.12967">
        <ele>67</ele>
        <time>2022-09-14T14:18:53Z</time>
      </trkpt>
      <trkpt lat="49.94405" lon="2.1297">
        <ele>67.1</ele>
        <time>2022-09-14T14:18:54Z</time>
      </trkpt>
      <trkpt lat="49.94405" lon="2.12971">
        <ele>67.1</ele>
        <time>2022-09-14T14:18:56Z</time>
      </trkpt>
      <trkpt lat="49.94404" lon="2.12973">
        <ele>67.1</ele>
        <time>2022-09-14T14:18:57Z</time>
      </trkpt>
      <trkpt lat="49.94403" lon="2.12974">
        <ele>67.1</ele>
        <time>2022-09-14T14:18:58Z</time>
      </trkpt>
      <trkpt lat="49.94402" lon="2.12977">
        <ele>67.2</ele>
        <time>2022-09-14T14:18:59Z</time>
      </trkpt>
      <trkpt lat="49.94402" lon="2.12978">
        <ele>67.2</ele>
        <time>2022-09-14T14:19:00Z</time>
      </trkpt>
      <trkpt lat="49.94402" lon="2.12979">
        <ele>67.2</ele>
        <time>2022-09-14T14:19:01Z</time>
      </trkpt>
      <trkpt lat="49.944" lon="2.12983">
        <ele>67.2</ele>
        <time>2022-09-14T14:19:02Z</time>
      </trkpt>
      <trkpt lat="49.944" lon="2.12984">
        <ele>67.2</ele>
        <time>2022-09-14T14:19:04Z</time>
      </trkpt>
      <trkpt lat="49.94399" lon="2.12986">
        <ele>67.2</ele>
        <time>2022-09-14T14:19:05Z</time>
      </trkpt>
      <trkpt lat="49.94398" lon="2.12987">
        <ele>67.3</ele>
        <time>2022-09-14T14:19:07Z</time>
      </trkpt>
      <trkpt lat="49.94398" lon="2.12989">
        <ele>67.3</ele>
        <time>2022-09-14T14:19:08Z</time>
      </trkpt>
      <trkpt lat="49.94397" lon="2.12991">
        <ele>67.3</ele>
        <time>2022-09-14T14:19:09Z</time>
      </trkpt>
      <trkpt lat="49.94396" lon="2.12992">
        <ele>67.3</ele>
        <time>2022-09-14T14:19:10Z</time>
      </trkpt>
      <trkpt lat="49.94395" lon="2.12995">
        <ele>67.3</ele>
        <time>2022-09-14T14:19:12Z</time>
      </trkpt>
      <trkpt lat="49.94395" lon="2.12996">
        <ele>67.3</ele>
        <time>2022-09-14T14:19:13Z</time>
      </trkpt>
      <trkpt lat="49.94394" lon="2.12998">
        <ele>67.4</ele>
        <time>2022-09-14T14:19:14Z</time>
      </trkpt>
      <trkpt lat="49.94393" lon="2.12998">
        <ele>67.4</ele>
        <time>2022-09-14T14:19:15Z</time>
      </trkpt>
      <trkpt lat="49.94392" lon="2.13001">
        <ele>67.4</ele>
        <time>2022-09-14T14:19:16Z</time>
      </trkpt>
      <trkpt lat="49.94391" lon="2.13002">
        <ele>67.4</ele>
        <time>2022-09-14T14:19:17Z</time>
      </trkpt>
      <trkpt lat="49.9439" lon="2.13004">
        <ele>67.4</ele>
        <time>2022-09-14T14:19:18Z</time>
      </trkpt>
      <trkpt lat="49.94389" lon="2.13006">
        <ele>67.5</ele>
        <time>2022-09-14T14:19:20Z</time>
      </trkpt>
      <trkpt lat="49.94389" lon="2.13007">
        <ele>67.5</ele>
        <time>2022-09-14T14:19:21Z</time>
      </trkpt>
      <trkpt lat="49.94388" lon="2.13008">
        <ele>67.5</ele>
        <time>2022-09-14T14:19:22Z</time>
      </trkpt>
      <trkpt lat="49.94387" lon="2.1301">
        <ele>67.5</ele>
        <time>2022-09-14T14:19:23Z</time>
      </trkpt>
      <trkpt lat="49.94387" lon="2.13012">
        <ele>67.5</ele>
        <time>2022-09-14T14:19:24Z</time>
      </trkpt>
      <trkpt lat="49.94386" lon="2.13013">
        <ele>67.6</ele>
        <time>2022-09-14T14:19:26Z</time>
      </trkpt>
      <trkpt lat="49.94385" lon="2.13016">
        <ele>67.6</ele>
        <time>2022-09-14T14:19:28Z</time>
      </trkpt>
      <trkpt lat="49.94384" lon="2.13018">
        <ele>67.6</ele>
        <time>2022-09-14T14:19:29Z</time>
      </trkpt>
      <trkpt lat="49.94383" lon="2.13019">
        <ele>67.6</ele>
        <time>2022-09-14T14:19:30Z</time>
      </trkpt>
      <trkpt lat="49.94382" lon="2.1302">
        <ele>67.6</ele>
        <time>2022-09-14T14:19:31Z</time>
      </trkpt>
      <trkpt lat="49.9438" lon="2.13022">
        <ele>67.7</ele>
        <time>2022-09-14T14:19:32Z</time>
      </trkpt>
      <trkpt lat="49.9438" lon="2.13023">
        <ele>67.7</ele>
        <time>2022-09-14T14:19:33Z</time>
      </trkpt>
      <trkpt lat="49.94379" lon="2.13024">
        <ele>67.7</ele>
        <time>2022-09-14T14:19:34Z</time>
      </trkpt>
      <trkpt lat="49.94378" lon="2.13026">
        <ele>67.7</ele>
        <time>2022-09-14T14:19:36Z</time>
      </trkpt>
      <trkpt lat="49.94377" lon="2.13028">
        <ele>67.7</ele>
        <time>2022-09-14T14:19:37Z</time>
      </trkpt>
      <trkpt lat="49.94377" lon="2.13029">
        <ele>67.8</ele>
        <time>2022-09-14T14:19:38Z</time>
      </trkpt>
      <trkpt lat="49.94375" lon="2.13032">
        <ele>67.8</ele>
        <time>2022-09-14T14:19:39Z</time>
      </trkpt>
      <trkpt lat="49.94374" lon="2.13035">
        <ele>67.8</ele>
        <time>2022-09-14T14:19:40Z</time>
      </trkpt>
      <trkpt lat="49.94374" lon="2.13036">
        <ele>67.8</ele>
        <time>2022-09-14T14:19:41Z</time>
      </trkpt>
      <trkpt lat="49.94374" lon="2.13037">
        <ele>67.8</ele>
        <time>2022-09-14T14:19:42Z</time>
      </trkpt>
      <trkpt lat="49.94373" lon="2.13039">
        <ele>67.9</ele>
        <time>2022-09-14T14:19:44Z</time>
      </trkpt>
      <trkpt lat="49.94372" lon="2.1304">
        <ele>67.9</ele>
        <time>2022-09-14T14:19:45Z</time>
      </trkpt>
      <trkpt lat="49.94371" lon="2.13042">
        <ele>67.9</ele>
        <time>2022-09-14T14:19:46Z</time>
      </trkpt>
      <trkpt lat="49.94371" lon="2.13043">
        <ele>67.9</ele>
        <time>2022-09-14T14:19:47Z</time>
      </trkpt>
      <trkpt lat="49.9437" lon="2.13045">
        <ele>67.9</ele>
        <time>2022-09-14T14:19:48Z</time>
      </trkpt>
      <trkpt lat="49.94369" lon="2.13046">
        <ele>67.9</ele>
        <time>2022-09-14T14:19:49Z</time>
      </trkpt>
      <trkpt lat="49.94368" lon="2.13049">
        <ele>68</ele>
        <time>2022-09-14T14:19:50Z</time>
      </trkpt>
      <trkpt lat="49.94368" lon="2.1305">
        <ele>68</ele>
        <time>2022-09-14T14:19:52Z</time>
      </trkpt>
      <trkpt lat="49.94367" lon="2.13051">
        <ele>68</ele>
        <time>2022-09-14T14:19:53Z</time>
      </trkpt>
      <trkpt lat="49.94366" lon="2.13052">
        <ele>68</ele>
        <time>2022-09-14T14:19:54Z</time>
      </trkpt>
      <trkpt lat="49.94366" lon="2.13054">
        <ele>68</ele>
        <time>2022-09-14T14:19:55Z</time>
      </trkpt>
      <trkpt lat="49.94365" lon="2.13055">
        <ele>68</ele>
        <time>2022-09-14T14:19:56Z</time>
      </trkpt>
      <trkpt lat="49.94364" lon="2.13056">
        <ele>68</ele>
        <time>2022-09-14T14:19:57Z</time>
      </trkpt>
      <trkpt lat="49.94364" lon="2.13057">
        <ele>68</ele>
        <time>2022-09-14T14:19:58Z</time>
      </trkpt>
      <trkpt lat="49.94363" lon="2.13059">
        <ele>68</ele>
        <time>2022-09-14T14:19:59Z</time>
      </trkpt>
      <trkpt lat="49.94361" lon="2.13061">
        <ele>68.1</ele>
        <time>2022-09-14T14:20:01Z</time>
      </trkpt>
      <trkpt lat="49.94361" lon="2.13062">
        <ele>68.1</ele>
        <time>2022-09-14T14:20:02Z</time>
      </trkpt>
      <trkpt lat="49.9436" lon="2.13064">
        <ele>68.1</ele>
        <time>2022-09-14T14:20:03Z</time>
      </trkpt>
      <trkpt lat="49.94359" lon="2.13065">
        <ele>68.1</ele>
        <time>2022-09-14T14:20:04Z</time>
      </trkpt>
      <trkpt lat="49.94358" lon="2.13066">
        <ele>68.1</ele>
        <time>2022-09-14T14:20:05Z</time>
      </trkpt>
      <trkpt lat="49.94357" lon="2.13069">
        <ele>68.1</ele>
        <time>2022-09-14T14:20:06Z</time>
      </trkpt>
      <trkpt lat="49.94356" lon="2.13071">
        <ele>68.1</ele>
        <time>2022-09-14T14:20:08Z</time>
      </trkpt>
      <trkpt lat="49.94355" lon="2.13072">
        <ele>68.1</ele>
        <time>2022-09-14T14:20:09Z</time>
      </trkpt>
      <trkpt lat="49.94355" lon="2.13073">
        <ele>68.1</ele>
        <time>2022-09-14T14:20:10Z</time>
      </trkpt>
      <trkpt lat="49.94354" lon="2.13075">
        <ele>68.1</ele>
        <time>2022-09-14T14:20:11Z</time>
      </trkpt>
      <trkpt lat="49.94353" lon="2.13076">
        <ele>68</ele>
        <time>2022-09-14T14:20:12Z</time>
      </trkpt>
      <trkpt lat="49.94352" lon="2.13078">
        <ele>68</ele>
        <time>2022-09-14T14:20:13Z</time>
      </trkpt>
      <trkpt lat="49.94351" lon="2.13079">
        <ele>68</ele>
        <time>2022-09-14T14:20:14Z</time>
      </trkpt>
      <trkpt lat="49.94351" lon="2.13081">
        <ele>68</ele>
        <time>2022-09-14T14:20:16Z</time>
      </trkpt>
      <trkpt lat="49.9435" lon="2.13083">
        <ele>68</ele>
        <time>2022-09-14T14:20:17Z</time>
      </trkpt>
      <trkpt lat="49.9435" lon="2.13083">
        <ele>68</ele>
        <time>2022-09-14T14:20:18Z</time>
      </trkpt>
      <trkpt lat="49.94349" lon="2.13085">
        <ele>68</ele>
        <time>2022-09-14T14:20:19Z</time>
      </trkpt>
      <trkpt lat="49.94348" lon="2.13086">
        <ele>68</ele>
        <time>2022-09-14T14:20:20Z</time>
      </trkpt>
      <trkpt lat="49.94347" lon="2.13089">
        <ele>67.9</ele>
        <time>2022-09-14T14:20:21Z</time>
      </trkpt>
      <trkpt lat="49.94347" lon="2.1309">
        <ele>67.9</ele>
        <time>2022-09-14T14:20:23Z</time>
      </trkpt>
      <trkpt lat="49.94347" lon="2.13091">
        <ele>67.9</ele>
        <time>2022-09-14T14:20:24Z</time>
      </trkpt>
      <trkpt lat="49.94346" lon="2.13092">
        <ele>67.9</ele>
        <time>2022-09-14T14:20:25Z</time>
      </trkpt>
      <trkpt lat="49.94346" lon="2.13093">
        <ele>67.9</ele>
        <time>2022-09-14T14:20:26Z</time>
      </trkpt>
      <trkpt lat="49.94345" lon="2.13095">
        <ele>67.9</ele>
        <time>2022-09-14T14:20:27Z</time>
      </trkpt>
      <trkpt lat="49.94344" lon="2.13097">
        <ele>67.9</ele>
        <time>2022-09-14T14:20:28Z</time>
      </trkpt>
      <trkpt lat="49.94343" lon="2.13099">
        <ele>67.9</ele>
        <time>2022-09-14T14:20:29Z</time>
      </trkpt>
      <trkpt lat="49.94342" lon="2.13101">
        <ele>67.9</ele>
        <time>2022-09-14T14:20:31Z</time>
      </trkpt>
      <trkpt lat="49.94341" lon="2.13102">
        <ele>67.8</ele>
        <time>2022-09-14T14:20:32Z</time>
      </trkpt>
      <trkpt lat="49.9434" lon="2.13103">
        <ele>67.8</ele>
        <time>2022-09-14T14:20:33Z</time>
      </trkpt>
      <trkpt lat="49.94339" lon="2.13105">
        <ele>67.8</ele>
        <time>2022-09-14T14:20:34Z</time>
      </trkpt>
      <trkpt lat="49.94339" lon="2.13106">
        <ele>67.8</ele>
        <time>2022-09-14T14:20:35Z</time>
      </trkpt>
      <trkpt lat="49.94338" lon="2.13107">
        <ele>67.8</ele>
        <time>2022-09-14T14:20:36Z</time>
      </trkpt>
      <trkpt lat="49.94337" lon="2.1311">
        <ele>67.7</ele>
        <time>2022-09-14T14:20:38Z</time>
      </trkpt>
      <trkpt lat="49.94336" lon="2.13111">
        <ele>67.7</ele>
        <time>2022-09-14T14:20:39Z</time>
      </trkpt>
      <trkpt lat="49.94335" lon="2.13112">
        <ele>67.7</ele>
        <time>2022-09-14T14:20:40Z</time>
      </trkpt>
      <trkpt lat="49.94335" lon="2.13113">
        <ele>67.7</ele>
        <time>2022-09-14T14:20:41Z</time>
      </trkpt>
      <trkpt lat="49.94334" lon="2.13115">
        <ele>67.7</ele>
        <time>2022-09-14T14:20:42Z</time>
      </trkpt>
      <trkpt lat="49.94334" lon="2.13116">
        <ele>67.6</ele>
        <time>2022-09-14T14:20:43Z</time>
      </trkpt>
      <trkpt lat="49.94333" lon="2.13117">
        <ele>67.6</ele>
        <time>2022-09-14T14:20:44Z</time>
      </trkpt>
      <trkpt lat="49.94332" lon="2.1312">
        <ele>67.5</ele>
        <time>2022-09-14T14:20:46Z</time>
      </trkpt>
      <trkpt lat="49.94332" lon="2.13121">
        <ele>67.5</ele>
        <time>2022-09-14T14:20:47Z</time>
      </trkpt>
      <trkpt lat="49.94331" lon="2.13122">
        <ele>67.5</ele>
        <time>2022-09-14T14:20:48Z</time>
      </trkpt>
      <trkpt lat="49.94331" lon="2.13123">
        <ele>67.5</ele>
        <time>2022-09-14T14:20:49Z</time>
      </trkpt>
      <trkpt lat="49.9433" lon="2.13124">
        <ele>67.4</ele>
        <time>2022-09-14T14:20:50Z</time>
      </trkpt>
      <trkpt lat="49.94329" lon="2.13126">
        <ele>67.4</ele>
        <time>2022-09-14T14:20:51Z</time>
      </trkpt>
      <trkpt lat="49.94328" lon="2.13129">
        <ele>67.3</ele>
        <time>2022-09-14T14:20:52Z</time>
      </trkpt>
      <trkpt lat="49.94327" lon="2.13132">
        <ele>67.3</ele>
        <time>2022-09-14T14:20:54Z</time>
      </trkpt>
      <trkpt lat="49.94327" lon="2.13133">
        <ele>67.3</ele>
        <time>2022-09-14T14:20:55Z</time>
      </trkpt>
      <trkpt lat="49.94326" lon="2.13135">
        <ele>67.2</ele>
        <time>2022-09-14T14:20:56Z</time>
      </trkpt>
      <trkpt lat="49.94325" lon="2.13138">
        <ele>67.2</ele>
        <time>2022-09-14T14:20:58Z</time>
      </trkpt>
      <trkpt lat="49.94324" lon="2.13139">
        <ele>67.2</ele>
        <time>2022-09-14T14:20:59Z</time>
      </trkpt>
      <trkpt lat="49.94324" lon="2.1314">
        <ele>67.1</ele>
        <time>2022-09-14T14:21:00Z</time>
      </trkpt>
      <trkpt lat="49.94324" lon="2.13142">
        <ele>67.1</ele>
        <time>2022-09-14T14:21:01Z</time>
      </trkpt>
      <trkpt lat="49.94323" lon="2.13144">
        <ele>67.1</ele>
        <time>2022-09-14T14:21:03Z</time>
      </trkpt>
      <trkpt lat="49.94323" lon="2.13143">
        <ele>67.1</ele>
        <time>2022-09-14T14:21:04Z</time>
      </trkpt>
      <trkpt lat="49.94322" lon="2.13144">
        <ele>67.1</ele>
        <time>2022-09-14T14:21:06Z</time>
      </trkpt>
      <trkpt lat="49.94321" lon="2.13145">
        <ele>67.1</ele>
        <time>2022-09-14T14:21:07Z</time>
      </trkpt>
      <trkpt lat="49.94321" lon="2.13145">
        <ele>67.1</ele>
        <time>2022-09-14T14:21:08Z</time>
      </trkpt>
      <trkpt lat="49.94321" lon="2.13146">
        <ele>67</ele>
        <time>2022-09-14T14:21:10Z</time>
      </trkpt>
      <trkpt lat="49.94321" lon="2.13147">
        <ele>67</ele>
        <time>2022-09-14T14:21:11Z</time>
      </trkpt>
      <trkpt lat="49.9432" lon="2.13148">
        <ele>67</ele>
        <time>2022-09-14T14:21:12Z</time>
      </trkpt>
      <trkpt lat="49.94319" lon="2.1315">
        <ele>66.9</ele>
        <time>2022-09-14T14:21:14Z</time>
      </trkpt>
      <trkpt lat="49.94319" lon="2.1315">
        <ele>66.9</ele>
        <time>2022-09-14T14:21:15Z</time>
      </trkpt>
      <trkpt lat="49.94318" lon="2.13149">
        <ele>66.9</ele>
        <time>2022-09-14T14:21:16Z</time>
      </trkpt>
      <trkpt lat="49.94317" lon="2.13149">
        <ele>66.9</ele>
        <time>2022-09-14T14:21:18Z</time>
      </trkpt>
      <trkpt lat="49.94316" lon="2.13149">
        <ele>66.8</ele>
        <time>2022-09-14T14:21:19Z</time>
      </trkpt>
      <trkpt lat="49.94315" lon="2.13149">
        <ele>66.8</ele>
        <time>2022-09-14T14:21:20Z</time>
      </trkpt>
      <trkpt lat="49.94314" lon="2.1315">
        <ele>66.7</ele>
        <time>2022-09-14T14:21:21Z</time>
      </trkpt>
      <trkpt lat="49.94314" lon="2.13151">
        <ele>66.7</ele>
        <time>2022-09-14T14:21:23Z</time>
      </trkpt>
      <trkpt lat="49.94314" lon="2.13152">
        <ele>66.7</ele>
        <time>2022-09-14T14:21:24Z</time>
      </trkpt>
      <trkpt lat="49.94313" lon="2.13153">
        <ele>66.6</ele>
        <time>2022-09-14T14:21:25Z</time>
      </trkpt>
      <trkpt lat="49.94312" lon="2.13155">
        <ele>66.6</ele>
        <time>2022-09-14T14:21:26Z</time>
      </trkpt>
      <trkpt lat="49.94312" lon="2.13158">
        <ele>66.5</ele>
        <time>2022-09-14T14:21:28Z</time>
      </trkpt>
      <trkpt lat="49.94312" lon="2.1316">
        <ele>66.5</ele>
        <time>2022-09-14T14:21:29Z</time>
      </trkpt>
      <trkpt lat="49.94312" lon="2.13162">
        <ele>66.4</ele>
        <time>2022-09-14T14:21:30Z</time>
      </trkpt>
      <trkpt lat="49.94313" lon="2.13166">
        <ele>66.3</ele>
        <time>2022-09-14T14:21:31Z</time>
      </trkpt>
      <trkpt lat="49.94313" lon="2.13168">
        <ele>66.3</ele>
        <time>2022-09-14T14:21:32Z</time>
      </trkpt>
      <trkpt lat="49.94313" lon="2.13169">
        <ele>66.2</ele>
        <time>2022-09-14T14:21:33Z</time>
      </trkpt>
      <trkpt lat="49.94313" lon="2.13171">
        <ele>66.2</ele>
        <time>2022-09-14T14:21:34Z</time>
      </trkpt>
      <trkpt lat="49.94313" lon="2.13174">
        <ele>66.1</ele>
        <time>2022-09-14T14:21:36Z</time>
      </trkpt>
      <trkpt lat="49.94313" lon="2.13177">
        <ele>66.1</ele>
        <time>2022-09-14T14:21:37Z</time>
      </trkpt>
      <trkpt lat="49.94314" lon="2.13178">
        <ele>66</ele>
        <time>2022-09-14T14:21:38Z</time>
      </trkpt>
      <trkpt lat="49.94314" lon="2.1318">
        <ele>66</ele>
        <time>2022-09-14T14:21:39Z</time>
      </trkpt>
      <trkpt lat="49.94314" lon="2.13182">
        <ele>65.9</ele>
        <time>2022-09-14T14:21:40Z</time>
      </trkpt>
      <trkpt lat="49.94314" lon="2.13184">
        <ele>65.9</ele>
        <time>2022-09-14T14:21:41Z</time>
      </trkpt>
      <trkpt lat="49.94314" lon="2.13187">
        <ele>65.8</ele>
        <time>2022-09-14T14:21:43Z</time>
      </trkpt>
      <trkpt lat="49.94314" lon="2.13192">
        <ele>65.7</ele>
        <time>2022-09-14T14:21:45Z</time>
      </trkpt>
      <trkpt lat="49.94314" lon="2.13195">
        <ele>65.7</ele>
        <time>2022-09-14T14:21:46Z</time>
      </trkpt>
      <trkpt lat="49.94314" lon="2.13196">
        <ele>65.6</ele>
        <time>2022-09-14T14:21:47Z</time>
      </trkpt>
      <trkpt lat="49.94314" lon="2.13197">
        <ele>65.6</ele>
        <time>2022-09-14T14:21:48Z</time>
      </trkpt>
      <trkpt lat="49.94314" lon="2.13199">
        <ele>65.6</ele>
        <time>2022-09-14T14:21:49Z</time>
      </trkpt>
      <trkpt lat="49.94314" lon="2.13201">
        <ele>65.5</ele>
        <time>2022-09-14T14:21:50Z</time>
      </trkpt>
      <trkpt lat="49.94314" lon="2.13202">
        <ele>65.5</ele>
        <time>2022-09-14T14:21:51Z</time>
      </trkpt>
      <trkpt lat="49.94314" lon="2.13205">
        <ele>65.4</ele>
        <time>2022-09-14T14:21:52Z</time>
      </trkpt>
      <trkpt lat="49.94314" lon="2.13207">
        <ele>65.4</ele>
        <time>2022-09-14T14:21:54Z</time>
      </trkpt>
      <trkpt lat="49.94314" lon="2.13209">
        <ele>65.4</ele>
        <time>2022-09-14T14:21:55Z</time>
      </trkpt>
      <trkpt lat="49.94314" lon="2.1321">
        <ele>65.3</ele>
        <time>2022-09-14T14:21:56Z</time>
      </trkpt>
      <trkpt lat="49.94314" lon="2.13212">
        <ele>65.3</ele>
        <time>2022-09-14T14:21:58Z</time>
      </trkpt>
      <trkpt lat="49.94314" lon="2.13213">
        <ele>65.3</ele>
        <time>2022-09-14T14:21:59Z</time>
      </trkpt>
      <trkpt lat="49.94314" lon="2.13215">
        <ele>65.2</ele>
        <time>2022-09-14T14:22:00Z</time>
      </trkpt>
      <trkpt lat="49.94314" lon="2.13217">
        <ele>65.2</ele>
        <time>2022-09-14T14:22:01Z</time>
      </trkpt>
      <trkpt lat="49.94314" lon="2.13219">
        <ele>65.1</ele>
        <time>2022-09-14T14:22:02Z</time>
      </trkpt>
      <trkpt lat="49.94314" lon="2.13222">
        <ele>65.1</ele>
        <time>2022-09-14T14:22:04Z</time>
      </trkpt>
      <trkpt lat="49.94314" lon="2.13224">
        <ele>65</ele>
        <time>2022-09-14T14:22:05Z</time>
      </trkpt>
      <trkpt lat="49.94314" lon="2.13225">
        <ele>65</ele>
        <time>2022-09-14T14:22:06Z</time>
      </trkpt>
      <trkpt lat="49.94314" lon="2.13225">
        <ele>65</ele>
        <time>2022-09-14T14:22:07Z</time>
      </trkpt>
      <trkpt lat="49.94314" lon="2.13227">
        <ele>65</ele>
        <time>2022-09-14T14:22:08Z</time>
      </trkpt>
      <trkpt lat="49.94314" lon="2.13228">
        <ele>64.9</ele>
        <time>2022-09-14T14:22:09Z</time>
      </trkpt>
      <trkpt lat="49.94314" lon="2.1323">
        <ele>64.9</ele>
        <time>2022-09-14T14:22:10Z</time>
      </trkpt>
      <trkpt lat="49.94314" lon="2.13232">
        <ele>64.8</ele>
        <time>2022-09-14T14:22:12Z</time>
      </trkpt>
      <trkpt lat="49.94314" lon="2.13234">
        <ele>64.8</ele>
        <time>2022-09-14T14:22:13Z</time>
      </trkpt>
      <trkpt lat="49.94314" lon="2.13236">
        <ele>64.7</ele>
        <time>2022-09-14T14:22:14Z</time>
      </trkpt>
      <trkpt lat="49.94314" lon="2.13237">
        <ele>64.7</ele>
        <time>2022-09-14T14:22:15Z</time>
      </trkpt>
      <trkpt lat="49.94314" lon="2.13239">
        <ele>64.7</ele>
        <time>2022-09-14T14:22:16Z</time>
      </trkpt>
      <trkpt lat="49.94314" lon="2.13241">
        <ele>64.6</ele>
        <time>2022-09-14T14:22:17Z</time>
      </trkpt>
      <trkpt lat="49.94314" lon="2.13243">
        <ele>64.6</ele>
        <time>2022-09-14T14:22:18Z</time>
      </trkpt>
      <trkpt lat="49.94314" lon="2.13245">
        <ele>64.5</ele>
        <time>2022-09-14T14:22:19Z</time>
      </trkpt>
      <trkpt lat="49.94314" lon="2.13248">
        <ele>64.5</ele>
        <time>2022-09-14T14:22:20Z</time>
      </trkpt>
      <trkpt lat="49.94313" lon="2.1325">
        <ele>64.4</ele>
        <time>2022-09-14T14:22:21Z</time>
      </trkpt>
      <trkpt lat="49.94313" lon="2.13253">
        <ele>64.3</ele>
        <time>2022-09-14T14:22:22Z</time>
      </trkpt>
      <trkpt lat="49.94313" lon="2.13255">
        <ele>64.3</ele>
        <time>2022-09-14T14:22:23Z</time>
      </trkpt>
      <trkpt lat="49.94313" lon="2.13257">
        <ele>64.2</ele>
        <time>2022-09-14T14:22:25Z</time>
      </trkpt>
      <trkpt lat="49.94313" lon="2.13259">
        <ele>64.2</ele>
        <time>2022-09-14T14:22:26Z</time>
      </trkpt>
      <trkpt lat="49.94313" lon="2.13262">
        <ele>64.1</ele>
        <time>2022-09-14T14:22:27Z</time>
      </trkpt>
      <trkpt lat="49.94313" lon="2.13264">
        <ele>64</ele>
        <time>2022-09-14T14:22:28Z</time>
      </trkpt>
      <trkpt lat="49.94312" lon="2.13266">
        <ele>64</ele>
        <time>2022-09-14T14:22:29Z</time>
      </trkpt>
      <trkpt lat="49.94312" lon="2.13268">
        <ele>63.9</ele>
        <time>2022-09-14T14:22:30Z</time>
      </trkpt>
      <trkpt lat="49.94312" lon="2.1327">
        <ele>63.9</ele>
        <time>2022-09-14T14:22:31Z</time>
      </trkpt>
      <trkpt lat="49.94312" lon="2.13271">
        <ele>63.9</ele>
        <time>2022-09-14T14:22:32Z</time>
      </trkpt>
      <trkpt lat="49.94312" lon="2.13273">
        <ele>63.8</ele>
        <time>2022-09-14T14:22:33Z</time>
      </trkpt>
      <trkpt lat="49.94312" lon="2.13274">
        <ele>63.8</ele>
        <time>2022-09-14T14:22:34Z</time>
      </trkpt>
      <trkpt lat="49.94312" lon="2.13276">
        <ele>63.7</ele>
        <time>2022-09-14T14:22:35Z</time>
      </trkpt>
      <trkpt lat="49.94312" lon="2.13279">
        <ele>63.7</ele>
        <time>2022-09-14T14:22:36Z</time>
      </trkpt>
      <trkpt lat="49.94312" lon="2.13281">
        <ele>63.6</ele>
        <time>2022-09-14T14:22:37Z</time>
      </trkpt>
      <trkpt lat="49.94312" lon="2.13283">
        <ele>63.6</ele>
        <time>2022-09-14T14:22:39Z</time>
      </trkpt>
      <trkpt lat="49.94311" lon="2.13284">
        <ele>63.6</ele>
        <time>2022-09-14T14:22:40Z</time>
      </trkpt>
      <trkpt lat="49.94311" lon="2.13288">
        <ele>63.4</ele>
        <time>2022-09-14T14:22:42Z</time>
      </trkpt>
      <trkpt lat="49.94311" lon="2.13292">
        <ele>63.4</ele>
        <time>2022-09-14T14:22:43Z</time>
      </trkpt>
      <trkpt lat="49.94311" lon="2.13293">
        <ele>63.3</ele>
        <time>2022-09-14T14:22:44Z</time>
      </trkpt>
      <trkpt lat="49.9431" lon="2.13294">
        <ele>63.3</ele>
        <time>2022-09-14T14:22:45Z</time>
      </trkpt>
      <trkpt lat="49.94311" lon="2.13296">
        <ele>63.2</ele>
        <time>2022-09-14T14:22:46Z</time>
      </trkpt>
      <trkpt lat="49.94311" lon="2.13298">
        <ele>63.2</ele>
        <time>2022-09-14T14:22:47Z</time>
      </trkpt>
      <trkpt lat="49.94311" lon="2.13301">
        <ele>63.1</ele>
        <time>2022-09-14T14:22:48Z</time>
      </trkpt>
      <trkpt lat="49.94311" lon="2.13305">
        <ele>63</ele>
        <time>2022-09-14T14:22:50Z</time>
      </trkpt>
      <trkpt lat="49.94311" lon="2.13307">
        <ele>62.9</ele>
        <time>2022-09-14T14:22:51Z</time>
      </trkpt>
      <trkpt lat="49.94311" lon="2.13309">
        <ele>62.9</ele>
        <time>2022-09-14T14:22:52Z</time>
      </trkpt>
      <trkpt lat="49.9431" lon="2.13313">
        <ele>62.8</ele>
        <time>2022-09-14T14:22:53Z</time>
      </trkpt>
      <trkpt lat="49.9431" lon="2.13314">
        <ele>62.7</ele>
        <time>2022-09-14T14:22:54Z</time>
      </trkpt>
      <trkpt lat="49.94311" lon="2.13315">
        <ele>62.7</ele>
        <time>2022-09-14T14:22:55Z</time>
      </trkpt>
      <trkpt lat="49.94311" lon="2.13319">
        <ele>62.6</ele>
        <time>2022-09-14T14:22:57Z</time>
      </trkpt>
      <trkpt lat="49.94311" lon="2.1332">
        <ele>62.6</ele>
        <time>2022-09-14T14:22:58Z</time>
      </trkpt>
      <trkpt lat="49.9431" lon="2.13321">
        <ele>62.5</ele>
        <time>2022-09-14T14:22:59Z</time>
      </trkpt>
      <trkpt lat="49.9431" lon="2.13323">
        <ele>62.5</ele>
        <time>2022-09-14T14:23:00Z</time>
      </trkpt>
      <trkpt lat="49.9431" lon="2.13327">
        <ele>62.4</ele>
        <time>2022-09-14T14:23:02Z</time>
      </trkpt>
      <trkpt lat="49.9431" lon="2.13328">
        <ele>62.3</ele>
        <time>2022-09-14T14:23:03Z</time>
      </trkpt>
      <trkpt lat="49.9431" lon="2.1333">
        <ele>62.3</ele>
        <time>2022-09-14T14:23:04Z</time>
      </trkpt>
      <trkpt lat="49.9431" lon="2.13332">
        <ele>62.2</ele>
        <time>2022-09-14T14:23:05Z</time>
      </trkpt>
      <trkpt lat="49.9431" lon="2.13336">
        <ele>62.1</ele>
        <time>2022-09-14T14:23:06Z</time>
      </trkpt>
      <trkpt lat="49.9431" lon="2.13337">
        <ele>62.1</ele>
        <time>2022-09-14T14:23:07Z</time>
      </trkpt>
      <trkpt lat="49.9431" lon="2.13339">
        <ele>62</ele>
        <time>2022-09-14T14:23:08Z</time>
      </trkpt>
      <trkpt lat="49.94311" lon="2.13343">
        <ele>61.9</ele>
        <time>2022-09-14T14:23:09Z</time>
      </trkpt>
      <trkpt lat="49.94311" lon="2.13345">
        <ele>61.8</ele>
        <time>2022-09-14T14:23:10Z</time>
      </trkpt>
      <trkpt lat="49.94311" lon="2.13346">
        <ele>61.8</ele>
        <time>2022-09-14T14:23:11Z</time>
      </trkpt>
      <trkpt lat="49.94311" lon="2.13348">
        <ele>61.7</ele>
        <time>2022-09-14T14:23:13Z</time>
      </trkpt>
      <trkpt lat="49.94311" lon="2.1335">
        <ele>61.7</ele>
        <time>2022-09-14T14:23:14Z</time>
      </trkpt>
      <trkpt lat="49.94311" lon="2.13353">
        <ele>61.6</ele>
        <time>2022-09-14T14:23:15Z</time>
      </trkpt>
      <trkpt lat="49.94311" lon="2.13355">
        <ele>61.5</ele>
        <time>2022-09-14T14:23:16Z</time>
      </trkpt>
      <trkpt lat="49.94311" lon="2.13356">
        <ele>61.5</ele>
        <time>2022-09-14T14:23:17Z</time>
      </trkpt>
      <trkpt lat="49.94311" lon="2.13358">
        <ele>61.5</ele>
        <time>2022-09-14T14:23:18Z</time>
      </trkpt>
      <trkpt lat="49.9431" lon="2.13359">
        <ele>61.4</ele>
        <time>2022-09-14T14:23:19Z</time>
      </trkpt>
      <trkpt lat="49.9431" lon="2.13361">
        <ele>61.4</ele>
        <time>2022-09-14T14:23:20Z</time>
      </trkpt>
      <trkpt lat="49.9431" lon="2.13363">
        <ele>61.3</ele>
        <time>2022-09-14T14:23:21Z</time>
      </trkpt>
      <trkpt lat="49.9431" lon="2.13365">
        <ele>61.2</ele>
        <time>2022-09-14T14:23:22Z</time>
      </trkpt>
      <trkpt lat="49.9431" lon="2.13367">
        <ele>61.2</ele>
        <time>2022-09-14T14:23:23Z</time>
      </trkpt>
      <trkpt lat="49.9431" lon="2.13369">
        <ele>61.1</ele>
        <time>2022-09-14T14:23:24Z</time>
      </trkpt>
      <trkpt lat="49.9431" lon="2.13372">
        <ele>61</ele>
        <time>2022-09-14T14:23:26Z</time>
      </trkpt>
      <trkpt lat="49.9431" lon="2.13373">
        <ele>61</ele>
        <time>2022-09-14T14:23:27Z</time>
      </trkpt>
      <trkpt lat="49.9431" lon="2.13375">
        <ele>60.9</ele>
        <time>2022-09-14T14:23:28Z</time>
      </trkpt>
      <trkpt lat="49.9431" lon="2.13376">
        <ele>60.9</ele>
        <time>2022-09-14T14:23:29Z</time>
      </trkpt>
      <trkpt lat="49.9431" lon="2.13378">
        <ele>60.8</ele>
        <time>2022-09-14T14:23:30Z</time>
      </trkpt>
      <trkpt lat="49.9431" lon="2.1338">
        <ele>60.8</ele>
        <time>2022-09-14T14:23:31Z</time>
      </trkpt>
      <trkpt lat="49.94311" lon="2.13381">
        <ele>60.8</ele>
        <time>2022-09-14T14:23:32Z</time>
      </trkpt>
      <trkpt lat="49.94311" lon="2.13385">
        <ele>60.6</ele>
        <time>2022-09-14T14:23:33Z</time>
      </trkpt>
      <trkpt lat="49.94311" lon="2.13387">
        <ele>60.6</ele>
        <time>2022-09-14T14:23:34Z</time>
      </trkpt>
      <trkpt lat="49.94311" lon="2.13389">
        <ele>60.5</ele>
        <time>2022-09-14T14:23:35Z</time>
      </trkpt>
      <trkpt lat="49.94312" lon="2.1339">
        <ele>60.5</ele>
        <time>2022-09-14T14:23:36Z</time>
      </trkpt>
      <trkpt lat="49.94312" lon="2.13391">
        <ele>60.4</ele>
        <time>2022-09-14T14:23:37Z</time>
      </trkpt>
      <trkpt lat="49.94312" lon="2.13393">
        <ele>60.3</ele>
        <time>2022-09-14T14:23:38Z</time>
      </trkpt>
      <trkpt lat="49.94312" lon="2.13395">
        <ele>60.3</ele>
        <time>2022-09-14T14:23:40Z</time>
      </trkpt>
      <trkpt lat="49.94313" lon="2.13397">
        <ele>60.2</ele>
        <time>2022-09-14T14:23:41Z</time>
      </trkpt>
      <trkpt lat="49.94313" lon="2.13399">
        <ele>60.1</ele>
        <time>2022-09-14T14:23:42Z</time>
      </trkpt>
      <trkpt lat="49.94313" lon="2.13401">
        <ele>60</ele>
        <time>2022-09-14T14:23:43Z</time>
      </trkpt>
      <trkpt lat="49.94314" lon="2.13404">
        <ele>59.9</ele>
        <time>2022-09-14T14:23:44Z</time>
      </trkpt>
      <trkpt lat="49.94314" lon="2.13406">
        <ele>59.9</ele>
        <time>2022-09-14T14:23:45Z</time>
      </trkpt>
      <trkpt lat="49.94314" lon="2.13407">
        <ele>59.8</ele>
        <time>2022-09-14T14:23:46Z</time>
      </trkpt>
      <trkpt lat="49.94314" lon="2.13409">
        <ele>59.7</ele>
        <time>2022-09-14T14:23:47Z</time>
      </trkpt>
      <trkpt lat="49.94315" lon="2.13412">
        <ele>59.6</ele>
        <time>2022-09-14T14:23:48Z</time>
      </trkpt>
      <trkpt lat="49.94315" lon="2.13414">
        <ele>59.5</ele>
        <time>2022-09-14T14:23:49Z</time>
      </trkpt>
      <trkpt lat="49.94315" lon="2.13417">
        <ele>59.4</ele>
        <time>2022-09-14T14:23:50Z</time>
      </trkpt>
      <trkpt lat="49.94316" lon="2.13419">
        <ele>59.3</ele>
        <time>2022-09-14T14:23:51Z</time>
      </trkpt>
      <trkpt lat="49.94317" lon="2.13421">
        <ele>59.2</ele>
        <time>2022-09-14T14:23:52Z</time>
      </trkpt>
      <trkpt lat="49.94318" lon="2.13426">
        <ele>59</ele>
        <time>2022-09-14T14:23:54Z</time>
      </trkpt>
      <trkpt lat="49.94318" lon="2.13428">
        <ele>59</ele>
        <time>2022-09-14T14:23:55Z</time>
      </trkpt>
      <trkpt lat="49.94319" lon="2.1343">
        <ele>58.9</ele>
        <time>2022-09-14T14:23:56Z</time>
      </trkpt>
      <trkpt lat="49.94319" lon="2.13433">
        <ele>58.8</ele>
        <time>2022-09-14T14:23:57Z</time>
      </trkpt>
      <trkpt lat="49.94319" lon="2.13436">
        <ele>58.6</ele>
        <time>2022-09-14T14:23:58Z</time>
      </trkpt>
      <trkpt lat="49.9432" lon="2.13438">
        <ele>58.5</ele>
        <time>2022-09-14T14:23:59Z</time>
      </trkpt>
      <trkpt lat="49.9432" lon="2.13441">
        <ele>58.4</ele>
        <time>2022-09-14T14:24:00Z</time>
      </trkpt>
      <trkpt lat="49.94321" lon="2.13442">
        <ele>58.4</ele>
        <time>2022-09-14T14:24:01Z</time>
      </trkpt>
      <trkpt lat="49.94321" lon="2.13443">
        <ele>58.3</ele>
        <time>2022-09-14T14:24:02Z</time>
      </trkpt>
      <trkpt lat="49.94321" lon="2.13445">
        <ele>58.3</ele>
        <time>2022-09-14T14:24:03Z</time>
      </trkpt>
      <trkpt lat="49.94321" lon="2.13447">
        <ele>58.2</ele>
        <time>2022-09-14T14:24:04Z</time>
      </trkpt>
      <trkpt lat="49.94322" lon="2.13449">
        <ele>58.1</ele>
        <time>2022-09-14T14:24:05Z</time>
      </trkpt>
      <trkpt lat="49.94322" lon="2.1345">
        <ele>58</ele>
        <time>2022-09-14T14:24:06Z</time>
      </trkpt>
      <trkpt lat="49.94322" lon="2.13452">
        <ele>58</ele>
        <time>2022-09-14T14:24:07Z</time>
      </trkpt>
      <trkpt lat="49.94322" lon="2.13456">
        <ele>57.8</ele>
        <time>2022-09-14T14:24:09Z</time>
      </trkpt>
      <trkpt lat="49.94323" lon="2.13457">
        <ele>57.8</ele>
        <time>2022-09-14T14:24:10Z</time>
      </trkpt>
      <trkpt lat="49.94323" lon="2.13459">
        <ele>57.7</ele>
        <time>2022-09-14T14:24:11Z</time>
      </trkpt>
      <trkpt lat="49.94323" lon="2.1346">
        <ele>57.6</ele>
        <time>2022-09-14T14:24:12Z</time>
      </trkpt>
      <trkpt lat="49.94323" lon="2.13462">
        <ele>57.6</ele>
        <time>2022-09-14T14:24:13Z</time>
      </trkpt>
      <trkpt lat="49.94324" lon="2.13464">
        <ele>57.5</ele>
        <time>2022-09-14T14:24:14Z</time>
      </trkpt>
      <trkpt lat="49.94324" lon="2.13466">
        <ele>57.4</ele>
        <time>2022-09-14T14:24:15Z</time>
      </trkpt>
      <trkpt lat="49.94325" lon="2.13469">
        <ele>57.3</ele>
        <time>2022-09-14T14:24:16Z</time>
      </trkpt>
      <trkpt lat="49.94325" lon="2.1347">
        <ele>57.2</ele>
        <time>2022-09-14T14:24:17Z</time>
      </trkpt>
      <trkpt lat="49.94325" lon="2.13471">
        <ele>57.2</ele>
        <time>2022-09-14T14:24:18Z</time>
      </trkpt>
      <trkpt lat="49.94326" lon="2.13475">
        <ele>57</ele>
        <time>2022-09-14T14:24:19Z</time>
      </trkpt>
      <trkpt lat="49.94326" lon="2.13477">
        <ele>57</ele>
        <time>2022-09-14T14:24:20Z</time>
      </trkpt>
      <trkpt lat="49.94327" lon="2.13479">
        <ele>56.9</ele>
        <time>2022-09-14T14:24:21Z</time>
      </trkpt>
      <trkpt lat="49.94327" lon="2.13481">
        <ele>56.8</ele>
        <time>2022-09-14T14:24:23Z</time>
      </trkpt>
      <trkpt lat="49.94327" lon="2.13483">
        <ele>56.7</ele>
        <time>2022-09-14T14:24:24Z</time>
      </trkpt>
      <trkpt lat="49.94328" lon="2.13485">
        <ele>56.6</ele>
        <time>2022-09-14T14:24:25Z</time>
      </trkpt>
      <trkpt lat="49.94328" lon="2.13487">
        <ele>56.5</ele>
        <time>2022-09-14T14:24:26Z</time>
      </trkpt>
      <trkpt lat="49.94328" lon="2.13489">
        <ele>56.5</ele>
        <time>2022-09-14T14:24:27Z</time>
      </trkpt>
      <trkpt lat="49.94328" lon="2.13491">
        <ele>56.4</ele>
        <time>2022-09-14T14:24:28Z</time>
      </trkpt>
      <trkpt lat="49.94328" lon="2.13492">
        <ele>56.4</ele>
        <time>2022-09-14T14:24:29Z</time>
      </trkpt>
      <trkpt lat="49.94329" lon="2.13493">
        <ele>56.3</ele>
        <time>2022-09-14T14:24:30Z</time>
      </trkpt>
      <trkpt lat="49.94329" lon="2.13495">
        <ele>56.3</ele>
        <time>2022-09-14T14:24:31Z</time>
      </trkpt>
      <trkpt lat="49.9433" lon="2.13497">
        <ele>56.2</ele>
        <time>2022-09-14T14:24:32Z</time>
      </trkpt>
      <trkpt lat="49.94331" lon="2.13499">
        <ele>56.2</ele>
        <time>2022-09-14T14:24:33Z</time>
      </trkpt>
      <trkpt lat="49.94331" lon="2.13501">
        <ele>56.1</ele>
        <time>2022-09-14T14:24:34Z</time>
      </trkpt>
      <trkpt lat="49.94332" lon="2.13504">
        <ele>56</ele>
        <time>2022-09-14T14:24:35Z</time>
      </trkpt>
      <trkpt lat="49.94333" lon="2.13506">
        <ele>56</ele>
        <time>2022-09-14T14:24:36Z</time>
      </trkpt>
      <trkpt lat="49.94333" lon="2.13508">
        <ele>55.9</ele>
        <time>2022-09-14T14:24:37Z</time>
      </trkpt>
      <trkpt lat="49.94334" lon="2.13511">
        <ele>55.9</ele>
        <time>2022-09-14T14:24:39Z</time>
      </trkpt>
      <trkpt lat="49.94334" lon="2.13513">
        <ele>55.8</ele>
        <time>2022-09-14T14:24:40Z</time>
      </trkpt>
      <trkpt lat="49.94335" lon="2.13515">
        <ele>55.8</ele>
        <time>2022-09-14T14:24:41Z</time>
      </trkpt>
      <trkpt lat="49.94335" lon="2.13517">
        <ele>55.7</ele>
        <time>2022-09-14T14:24:42Z</time>
      </trkpt>
      <trkpt lat="49.94335" lon="2.13518">
        <ele>55.7</ele>
        <time>2022-09-14T14:24:43Z</time>
      </trkpt>
      <trkpt lat="49.94336" lon="2.1352">
        <ele>55.6</ele>
        <time>2022-09-14T14:24:44Z</time>
      </trkpt>
      <trkpt lat="49.94336" lon="2.13521">
        <ele>55.6</ele>
        <time>2022-09-14T14:24:45Z</time>
      </trkpt>
      <trkpt lat="49.94337" lon="2.13522">
        <ele>55.6</ele>
        <time>2022-09-14T14:24:46Z</time>
      </trkpt>
      <trkpt lat="49.94337" lon="2.13523">
        <ele>55.5</ele>
        <time>2022-09-14T14:24:47Z</time>
      </trkpt>
      <trkpt lat="49.94338" lon="2.13526">
        <ele>55.5</ele>
        <time>2022-09-14T14:24:48Z</time>
      </trkpt>
      <trkpt lat="49.94338" lon="2.13527">
        <ele>55.4</ele>
        <time>2022-09-14T14:24:49Z</time>
      </trkpt>
      <trkpt lat="49.94338" lon="2.13528">
        <ele>55.4</ele>
        <time>2022-09-14T14:24:50Z</time>
      </trkpt>
      <trkpt lat="49.94339" lon="2.1353">
        <ele>55.4</ele>
        <time>2022-09-14T14:24:51Z</time>
      </trkpt>
      <trkpt lat="49.9434" lon="2.13533">
        <ele>55.3</ele>
        <time>2022-09-14T14:24:52Z</time>
      </trkpt>
      <trkpt lat="49.94341" lon="2.13535">
        <ele>55.2</ele>
        <time>2022-09-14T14:24:54Z</time>
      </trkpt>
      <trkpt lat="49.94341" lon="2.13537">
        <ele>55.2</ele>
        <time>2022-09-14T14:24:55Z</time>
      </trkpt>
      <trkpt lat="49.94342" lon="2.13539">
        <ele>55.1</ele>
        <time>2022-09-14T14:24:56Z</time>
      </trkpt>
      <trkpt lat="49.94343" lon="2.1354">
        <ele>55.1</ele>
        <time>2022-09-14T14:24:57Z</time>
      </trkpt>
      <trkpt lat="49.94343" lon="2.13541">
        <ele>55</ele>
        <time>2022-09-14T14:24:58Z</time>
      </trkpt>
      <trkpt lat="49.94344" lon="2.13542">
        <ele>55</ele>
        <time>2022-09-14T14:24:59Z</time>
      </trkpt>
      <trkpt lat="49.94344" lon="2.13544">
        <ele>55</ele>
        <time>2022-09-14T14:25:00Z</time>
      </trkpt>
      <trkpt lat="49.94345" lon="2.13545">
        <ele>54.9</ele>
        <time>2022-09-14T14:25:01Z</time>
      </trkpt>
      <trkpt lat="49.94346" lon="2.13547">
        <ele>54.9</ele>
        <time>2022-09-14T14:25:02Z</time>
      </trkpt>
      <trkpt lat="49.94346" lon="2.13548">
        <ele>54.8</ele>
        <time>2022-09-14T14:25:03Z</time>
      </trkpt>
      <trkpt lat="49.94347" lon="2.1355">
        <ele>54.8</ele>
        <time>2022-09-14T14:25:04Z</time>
      </trkpt>
      <trkpt lat="49.94348" lon="2.13552">
        <ele>54.7</ele>
        <time>2022-09-14T14:25:05Z</time>
      </trkpt>
      <trkpt lat="49.94349" lon="2.13555">
        <ele>54.7</ele>
        <time>2022-09-14T14:25:07Z</time>
      </trkpt>
      <trkpt lat="49.94349" lon="2.13556">
        <ele>54.7</ele>
        <time>2022-09-14T14:25:08Z</time>
      </trkpt>
      <trkpt lat="49.9435" lon="2.13558">
        <ele>54.7</ele>
        <time>2022-09-14T14:25:09Z</time>
      </trkpt>
      <trkpt lat="49.9435" lon="2.13559">
        <ele>54.7</ele>
        <time>2022-09-14T14:25:10Z</time>
      </trkpt>
      <trkpt lat="49.94351" lon="2.13563">
        <ele>54.7</ele>
        <time>2022-09-14T14:25:11Z</time>
      </trkpt>
      <trkpt lat="49.94351" lon="2.13564">
        <ele>54.7</ele>
        <time>2022-09-14T14:25:12Z</time>
      </trkpt>
      <trkpt lat="49.94351" lon="2.13565">
        <ele>54.7</ele>
        <time>2022-09-14T14:25:13Z</time>
      </trkpt>
      <trkpt lat="49.94351" lon="2.13567">
        <ele>54.7</ele>
        <time>2022-09-14T14:25:14Z</time>
      </trkpt>
      <trkpt lat="49.94351" lon="2.1357">
        <ele>54.7</ele>
        <time>2022-09-14T14:25:15Z</time>
      </trkpt>
      <trkpt lat="49.94351" lon="2.13571">
        <ele>54.7</ele>
        <time>2022-09-14T14:25:16Z</time>
      </trkpt>
      <trkpt lat="49.9435" lon="2.13573">
        <ele>54.6</ele>
        <time>2022-09-14T14:25:17Z</time>
      </trkpt>
      <trkpt lat="49.94349" lon="2.13574">
        <ele>54.6</ele>
        <time>2022-09-14T14:25:19Z</time>
      </trkpt>
      <trkpt lat="49.94346" lon="2.13575">
        <ele>54.6</ele>
        <time>2022-09-14T14:25:20Z</time>
      </trkpt>
      <trkpt lat="49.94345" lon="2.13574">
        <ele>54.6</ele>
        <time>2022-09-14T14:25:21Z</time>
      </trkpt>
      <trkpt lat="49.94344" lon="2.13574">
        <ele>54.6</ele>
        <time>2022-09-14T14:25:22Z</time>
      </trkpt>
      <trkpt lat="49.94342" lon="2.13574">
        <ele>54.6</ele>
        <time>2022-09-14T14:25:23Z</time>
      </trkpt>
      <trkpt lat="49.94341" lon="2.13574">
        <ele>54.6</ele>
        <time>2022-09-14T14:25:24Z</time>
      </trkpt>
      <trkpt lat="49.9434" lon="2.13576">
        <ele>54.6</ele>
        <time>2022-09-14T14:25:25Z</time>
      </trkpt>
      <trkpt lat="49.94339" lon="2.13577">
        <ele>54.6</ele>
        <time>2022-09-14T14:25:26Z</time>
      </trkpt>
      <trkpt lat="49.94337" lon="2.13578">
        <ele>54.6</ele>
        <time>2022-09-14T14:25:27Z</time>
      </trkpt>
      <trkpt lat="49.94336" lon="2.13578">
        <ele>54.6</ele>
        <time>2022-09-14T14:25:28Z</time>
      </trkpt>
      <trkpt lat="49.94335" lon="2.13579">
        <ele>54.6</ele>
        <time>2022-09-14T14:25:30Z</time>
      </trkpt>
      <trkpt lat="49.94334" lon="2.13579">
        <ele>54.6</ele>
        <time>2022-09-14T14:25:31Z</time>
      </trkpt>
      <trkpt lat="49.94333" lon="2.13579">
        <ele>54.5</ele>
        <time>2022-09-14T14:25:32Z</time>
      </trkpt>
      <trkpt lat="49.94332" lon="2.1358">
        <ele>54.5</ele>
        <time>2022-09-14T14:25:33Z</time>
      </trkpt>
      <trkpt lat="49.94331" lon="2.13581">
        <ele>54.5</ele>
        <time>2022-09-14T14:25:34Z</time>
      </trkpt>
      <trkpt lat="49.94329" lon="2.13582">
        <ele>54.5</ele>
        <time>2022-09-14T14:25:36Z</time>
      </trkpt>
      <trkpt lat="49.94329" lon="2.13582">
        <ele>54.5</ele>
        <time>2022-09-14T14:25:37Z</time>
      </trkpt>
      <trkpt lat="49.94328" lon="2.13583">
        <ele>54.5</ele>
        <time>2022-09-14T14:25:38Z</time>
      </trkpt>
      <trkpt lat="49.94327" lon="2.13584">
        <ele>54.5</ele>
        <time>2022-09-14T14:25:39Z</time>
      </trkpt>
      <trkpt lat="49.94324" lon="2.13587">
        <ele>54.5</ele>
        <time>2022-09-14T14:25:41Z</time>
      </trkpt>
      <trkpt lat="49.94323" lon="2.13587">
        <ele>54.5</ele>
        <time>2022-09-14T14:25:42Z</time>
      </trkpt>
      <trkpt lat="49.94322" lon="2.13588">
        <ele>54.5</ele>
        <time>2022-09-14T14:25:43Z</time>
      </trkpt>
      <trkpt lat="49.9432" lon="2.13589">
        <ele>54.5</ele>
        <time>2022-09-14T14:25:44Z</time>
      </trkpt>
      <trkpt lat="49.94319" lon="2.1359">
        <ele>54.5</ele>
        <time>2022-09-14T14:25:45Z</time>
      </trkpt>
      <trkpt lat="49.94318" lon="2.13591">
        <ele>54.5</ele>
        <time>2022-09-14T14:25:46Z</time>
      </trkpt>
      <trkpt lat="49.94317" lon="2.13591">
        <ele>54.5</ele>
        <time>2022-09-14T14:25:47Z</time>
      </trkpt>
      <trkpt lat="49.94315" lon="2.13592">
        <ele>54.5</ele>
        <time>2022-09-14T14:25:48Z</time>
      </trkpt>
      <trkpt lat="49.94313" lon="2.13594">
        <ele>54.4</ele>
        <time>2022-09-14T14:25:49Z</time>
      </trkpt>
      <trkpt lat="49.94311" lon="2.13595">
        <ele>54.4</ele>
        <time>2022-09-14T14:25:50Z</time>
      </trkpt>
      <trkpt lat="49.9431" lon="2.13597">
        <ele>54.4</ele>
        <time>2022-09-14T14:25:51Z</time>
      </trkpt>
      <trkpt lat="49.94308" lon="2.13598">
        <ele>54.4</ele>
        <time>2022-09-14T14:25:53Z</time>
      </trkpt>
      <trkpt lat="49.94307" lon="2.13599">
        <ele>54.4</ele>
        <time>2022-09-14T14:25:54Z</time>
      </trkpt>
      <trkpt lat="49.94305" lon="2.13601">
        <ele>54.4</ele>
        <time>2022-09-14T14:25:55Z</time>
      </trkpt>
      <trkpt lat="49.94303" lon="2.13603">
        <ele>54.4</ele>
        <time>2022-09-14T14:25:56Z</time>
      </trkpt>
      <trkpt lat="49.94303" lon="2.13603">
        <ele>54.4</ele>
        <time>2022-09-14T14:25:57Z</time>
      </trkpt>
      <trkpt lat="49.94302" lon="2.13604">
        <ele>54.4</ele>
        <time>2022-09-14T14:25:58Z</time>
      </trkpt>
      <trkpt lat="49.943" lon="2.13606">
        <ele>54.4</ele>
        <time>2022-09-14T14:25:59Z</time>
      </trkpt>
      <trkpt lat="49.94299" lon="2.13608">
        <ele>54.5</ele>
        <time>2022-09-14T14:26:00Z</time>
      </trkpt>
      <trkpt lat="49.94298" lon="2.13609">
        <ele>54.5</ele>
        <time>2022-09-14T14:26:01Z</time>
      </trkpt>
      <trkpt lat="49.94297" lon="2.1361">
        <ele>54.5</ele>
        <time>2022-09-14T14:26:03Z</time>
      </trkpt>
      <trkpt lat="49.94295" lon="2.13611">
        <ele>54.5</ele>
        <time>2022-09-14T14:26:04Z</time>
      </trkpt>
      <trkpt lat="49.94295" lon="2.13612">
        <ele>54.5</ele>
        <time>2022-09-14T14:26:05Z</time>
      </trkpt>
      <trkpt lat="49.94295" lon="2.13613">
        <ele>54.5</ele>
        <time>2022-09-14T14:26:06Z</time>
      </trkpt>
      <trkpt lat="49.94294" lon="2.13614">
        <ele>54.5</ele>
        <time>2022-09-14T14:26:08Z</time>
      </trkpt>
      <trkpt lat="49.94294" lon="2.13614">
        <ele>54.5</ele>
        <time>2022-09-14T14:26:09Z</time>
      </trkpt>
      <trkpt lat="49.94293" lon="2.13616">
        <ele>54.6</ele>
        <time>2022-09-14T14:26:10Z</time>
      </trkpt>
      <trkpt lat="49.94292" lon="2.13616">
        <ele>54.6</ele>
        <time>2022-09-14T14:26:11Z</time>
      </trkpt>
      <trkpt lat="49.94291" lon="2.13618">
        <ele>54.6</ele>
        <time>2022-09-14T14:26:12Z</time>
      </trkpt>
      <trkpt lat="49.9429" lon="2.13619">
        <ele>54.6</ele>
        <time>2022-09-14T14:26:13Z</time>
      </trkpt>
      <trkpt lat="49.94289" lon="2.1362">
        <ele>54.6</ele>
        <time>2022-09-14T14:26:14Z</time>
      </trkpt>
      <trkpt lat="49.94288" lon="2.13621">
        <ele>54.7</ele>
        <time>2022-09-14T14:26:16Z</time>
      </trkpt>
      <trkpt lat="49.94287" lon="2.13622">
        <ele>54.7</ele>
        <time>2022-09-14T14:26:17Z</time>
      </trkpt>
      <trkpt lat="49.94286" lon="2.13623">
        <ele>54.7</ele>
        <time>2022-09-14T14:26:18Z</time>
      </trkpt>
      <trkpt lat="49.94285" lon="2.13624">
        <ele>54.7</ele>
        <time>2022-09-14T14:26:19Z</time>
      </trkpt>
      <trkpt lat="49.94284" lon="2.13625">
        <ele>54.8</ele>
        <time>2022-09-14T14:26:20Z</time>
      </trkpt>
      <trkpt lat="49.94284" lon="2.13626">
        <ele>54.8</ele>
        <time>2022-09-14T14:26:21Z</time>
      </trkpt>
      <trkpt lat="49.94283" lon="2.13628">
        <ele>54.8</ele>
        <time>2022-09-14T14:26:22Z</time>
      </trkpt>
      <trkpt lat="49.94282" lon="2.1363">
        <ele>54.9</ele>
        <time>2022-09-14T14:26:23Z</time>
      </trkpt>
      <trkpt lat="49.94282" lon="2.13631">
        <ele>54.9</ele>
        <time>2022-09-14T14:26:24Z</time>
      </trkpt>
      <trkpt lat="49.94281" lon="2.13632">
        <ele>54.9</ele>
        <time>2022-09-14T14:26:25Z</time>
      </trkpt>
      <trkpt lat="49.9428" lon="2.13634">
        <ele>54.9</ele>
        <time>2022-09-14T14:26:27Z</time>
      </trkpt>
      <trkpt lat="49.9428" lon="2.13635">
        <ele>55</ele>
        <time>2022-09-14T14:26:28Z</time>
      </trkpt>
      <trkpt lat="49.94279" lon="2.13637">
        <ele>55</ele>
        <time>2022-09-14T14:26:29Z</time>
      </trkpt>
      <trkpt lat="49.94278" lon="2.13639">
        <ele>55.1</ele>
        <time>2022-09-14T14:26:30Z</time>
      </trkpt>
      <trkpt lat="49.94277" lon="2.1364">
        <ele>55.1</ele>
        <time>2022-09-14T14:26:31Z</time>
      </trkpt>
      <trkpt lat="49.94276" lon="2.13641">
        <ele>55.2</ele>
        <time>2022-09-14T14:26:32Z</time>
      </trkpt>
      <trkpt lat="49.94275" lon="2.13643">
        <ele>55.2</ele>
        <time>2022-09-14T14:26:33Z</time>
      </trkpt>
      <trkpt lat="49.94274" lon="2.13644">
        <ele>55.3</ele>
        <time>2022-09-14T14:26:35Z</time>
      </trkpt>
      <trkpt lat="49.94273" lon="2.13645">
        <ele>55.3</ele>
        <time>2022-09-14T14:26:36Z</time>
      </trkpt>
      <trkpt lat="49.94272" lon="2.13646">
        <ele>55.4</ele>
        <time>2022-09-14T14:26:37Z</time>
      </trkpt>
      <trkpt lat="49.94271" lon="2.13648">
        <ele>55.5</ele>
        <time>2022-09-14T14:26:39Z</time>
      </trkpt>
      <trkpt lat="49.9427" lon="2.13649">
        <ele>55.5</ele>
        <time>2022-09-14T14:26:40Z</time>
      </trkpt>
      <trkpt lat="49.94269" lon="2.1365">
        <ele>55.6</ele>
        <time>2022-09-14T14:26:41Z</time>
      </trkpt>
      <trkpt lat="49.94268" lon="2.13651">
        <ele>55.6</ele>
        <time>2022-09-14T14:26:42Z</time>
      </trkpt>
      <trkpt lat="49.94266" lon="2.13653">
        <ele>55.7</ele>
        <time>2022-09-14T14:26:43Z</time>
      </trkpt>
      <trkpt lat="49.94266" lon="2.13654">
        <ele>55.7</ele>
        <time>2022-09-14T14:26:45Z</time>
      </trkpt>
      <trkpt lat="49.94265" lon="2.13654">
        <ele>55.8</ele>
        <time>2022-09-14T14:26:46Z</time>
      </trkpt>
      <trkpt lat="49.94263" lon="2.13656">
        <ele>55.9</ele>
        <time>2022-09-14T14:26:47Z</time>
      </trkpt>
      <trkpt lat="49.94262" lon="2.13657">
        <ele>55.9</ele>
        <time>2022-09-14T14:26:48Z</time>
      </trkpt>
      <trkpt lat="49.94261" lon="2.13657">
        <ele>56</ele>
        <time>2022-09-14T14:26:49Z</time>
      </trkpt>
      <trkpt lat="49.94261" lon="2.13658">
        <ele>56</ele>
        <time>2022-09-14T14:26:50Z</time>
      </trkpt>
      <trkpt lat="49.9426" lon="2.13659">
        <ele>56.1</ele>
        <time>2022-09-14T14:26:52Z</time>
      </trkpt>
      <trkpt lat="49.94259" lon="2.1366">
        <ele>56.1</ele>
        <time>2022-09-14T14:26:53Z</time>
      </trkpt>
      <trkpt lat="49.94257" lon="2.13661">
        <ele>56.2</ele>
        <time>2022-09-14T14:26:54Z</time>
      </trkpt>
      <trkpt lat="49.94256" lon="2.13662">
        <ele>56.3</ele>
        <time>2022-09-14T14:26:55Z</time>
      </trkpt>
      <trkpt lat="49.94255" lon="2.13663">
        <ele>56.3</ele>
        <time>2022-09-14T14:26:56Z</time>
      </trkpt>
      <trkpt lat="49.94254" lon="2.13664">
        <ele>56.4</ele>
        <time>2022-09-14T14:26:58Z</time>
      </trkpt>
      <trkpt lat="49.94253" lon="2.13665">
        <ele>56.4</ele>
        <time>2022-09-14T14:26:59Z</time>
      </trkpt>
      <trkpt lat="49.94252" lon="2.13667">
        <ele>56.5</ele>
        <time>2022-09-14T14:27:00Z</time>
      </trkpt>
      <trkpt lat="49.94252" lon="2.13668">
        <ele>56.5</ele>
        <time>2022-09-14T14:27:01Z</time>
      </trkpt>
      <trkpt lat="49.9425" lon="2.13669">
        <ele>56.6</ele>
        <time>2022-09-14T14:27:02Z</time>
      </trkpt>
      <trkpt lat="49.94249" lon="2.1367">
        <ele>56.7</ele>
        <time>2022-09-14T14:27:04Z</time>
      </trkpt>
      <trkpt lat="49.94249" lon="2.13671">
        <ele>56.7</ele>
        <time>2022-09-14T14:27:05Z</time>
      </trkpt>
      <trkpt lat="49.94248" lon="2.13672">
        <ele>56.8</ele>
        <time>2022-09-14T14:27:06Z</time>
      </trkpt>
      <trkpt lat="49.94246" lon="2.13673">
        <ele>56.8</ele>
        <time>2022-09-14T14:27:07Z</time>
      </trkpt>
      <trkpt lat="49.94245" lon="2.13674">
        <ele>56.9</ele>
        <time>2022-09-14T14:27:08Z</time>
      </trkpt>
      <trkpt lat="49.94244" lon="2.13676">
        <ele>56.9</ele>
        <time>2022-09-14T14:27:10Z</time>
      </trkpt>
      <trkpt lat="49.94244" lon="2.13676">
        <ele>57</ele>
        <time>2022-09-14T14:27:11Z</time>
      </trkpt>
      <trkpt lat="49.94243" lon="2.13677">
        <ele>57</ele>
        <time>2022-09-14T14:27:12Z</time>
      </trkpt>
      <trkpt lat="49.94242" lon="2.13678">
        <ele>57.1</ele>
        <time>2022-09-14T14:27:13Z</time>
      </trkpt>
      <trkpt lat="49.94241" lon="2.13679">
        <ele>57.1</ele>
        <time>2022-09-14T14:27:14Z</time>
      </trkpt>
      <trkpt lat="49.9424" lon="2.1368">
        <ele>57.1</ele>
        <time>2022-09-14T14:27:15Z</time>
      </trkpt>
      <trkpt lat="49.94239" lon="2.13681">
        <ele>57.2</ele>
        <time>2022-09-14T14:27:16Z</time>
      </trkpt>
      <trkpt lat="49.94238" lon="2.13682">
        <ele>57.2</ele>
        <time>2022-09-14T14:27:17Z</time>
      </trkpt>
      <trkpt lat="49.94236" lon="2.13683">
        <ele>57.3</ele>
        <time>2022-09-14T14:27:19Z</time>
      </trkpt>
      <trkpt lat="49.94235" lon="2.13684">
        <ele>57.3</ele>
        <time>2022-09-14T14:27:20Z</time>
      </trkpt>
      <trkpt lat="49.94235" lon="2.13685">
        <ele>57.4</ele>
        <time>2022-09-14T14:27:22Z</time>
      </trkpt>
      <trkpt lat="49.94234" lon="2.13686">
        <ele>57.4</ele>
        <time>2022-09-14T14:27:23Z</time>
      </trkpt>
      <trkpt lat="49.94232" lon="2.13688">
        <ele>57.5</ele>
        <time>2022-09-14T14:27:24Z</time>
      </trkpt>
      <trkpt lat="49.94232" lon="2.13689">
        <ele>57.5</ele>
        <time>2022-09-14T14:27:25Z</time>
      </trkpt>
      <trkpt lat="49.94231" lon="2.1369">
        <ele>57.5</ele>
        <time>2022-09-14T14:27:26Z</time>
      </trkpt>
      <trkpt lat="49.9423" lon="2.13691">
        <ele>57.5</ele>
        <time>2022-09-14T14:27:27Z</time>
      </trkpt>
      <trkpt lat="49.94229" lon="2.13692">
        <ele>57.5</ele>
        <time>2022-09-14T14:27:28Z</time>
      </trkpt>
      <trkpt lat="49.94228" lon="2.13693">
        <ele>57.6</ele>
        <time>2022-09-14T14:27:29Z</time>
      </trkpt>
      <trkpt lat="49.94227" lon="2.13694">
        <ele>57.6</ele>
        <time>2022-09-14T14:27:30Z</time>
      </trkpt>
      <trkpt lat="49.94226" lon="2.13695">
        <ele>57.6</ele>
        <time>2022-09-14T14:27:32Z</time>
      </trkpt>
      <trkpt lat="49.94225" lon="2.13696">
        <ele>57.6</ele>
        <time>2022-09-14T14:27:33Z</time>
      </trkpt>
      <trkpt lat="49.94225" lon="2.13697">
        <ele>57.7</ele>
        <time>2022-09-14T14:27:34Z</time>
      </trkpt>
      <trkpt lat="49.94224" lon="2.13698">
        <ele>57.7</ele>
        <time>2022-09-14T14:27:35Z</time>
      </trkpt>
      <trkpt lat="49.94223" lon="2.137">
        <ele>57.7</ele>
        <time>2022-09-14T14:27:36Z</time>
      </trkpt>
      <trkpt lat="49.94222" lon="2.13701">
        <ele>57.7</ele>
        <time>2022-09-14T14:27:37Z</time>
      </trkpt>
      <trkpt lat="49.94221" lon="2.13703">
        <ele>57.8</ele>
        <time>2022-09-14T14:27:38Z</time>
      </trkpt>
      <trkpt lat="49.9422" lon="2.13704">
        <ele>57.8</ele>
        <time>2022-09-14T14:27:40Z</time>
      </trkpt>
      <trkpt lat="49.9422" lon="2.13705">
        <ele>57.8</ele>
        <time>2022-09-14T14:27:41Z</time>
      </trkpt>
      <trkpt lat="49.94219" lon="2.13707">
        <ele>57.8</ele>
        <time>2022-09-14T14:27:42Z</time>
      </trkpt>
      <trkpt lat="49.94218" lon="2.13708">
        <ele>57.9</ele>
        <time>2022-09-14T14:27:43Z</time>
      </trkpt>
      <trkpt lat="49.94217" lon="2.1371">
        <ele>57.9</ele>
        <time>2022-09-14T14:27:44Z</time>
      </trkpt>
      <trkpt lat="49.94216" lon="2.13711">
        <ele>57.9</ele>
        <time>2022-09-14T14:27:45Z</time>
      </trkpt>
      <trkpt lat="49.94214" lon="2.13713">
        <ele>58</ele>
        <time>2022-09-14T14:27:46Z</time>
      </trkpt>
      <trkpt lat="49.94213" lon="2.13715">
        <ele>58</ele>
        <time>2022-09-14T14:27:48Z</time>
      </trkpt>
      <trkpt lat="49.94212" lon="2.13716">
        <ele>58</ele>
        <time>2022-09-14T14:27:49Z</time>
      </trkpt>
      <trkpt lat="49.9421" lon="2.13718">
        <ele>58</ele>
        <time>2022-09-14T14:27:51Z</time>
      </trkpt>
      <trkpt lat="49.9421" lon="2.13719">
        <ele>58.1</ele>
        <time>2022-09-14T14:27:52Z</time>
      </trkpt>
      <trkpt lat="49.94209" lon="2.13719">
        <ele>58.1</ele>
        <time>2022-09-14T14:27:53Z</time>
      </trkpt>
      <trkpt lat="49.94208" lon="2.13721">
        <ele>58.1</ele>
        <time>2022-09-14T14:27:54Z</time>
      </trkpt>
      <trkpt lat="49.94207" lon="2.13723">
        <ele>58.1</ele>
        <time>2022-09-14T14:27:55Z</time>
      </trkpt>
      <trkpt lat="49.94205" lon="2.13725">
        <ele>58.2</ele>
        <time>2022-09-14T14:27:56Z</time>
      </trkpt>
      <trkpt lat="49.94204" lon="2.13726">
        <ele>58.2</ele>
        <time>2022-09-14T14:27:58Z</time>
      </trkpt>
      <trkpt lat="49.94204" lon="2.13726">
        <ele>58.2</ele>
        <time>2022-09-14T14:27:59Z</time>
      </trkpt>
      <trkpt lat="49.94202" lon="2.13727">
        <ele>58.2</ele>
        <time>2022-09-14T14:28:00Z</time>
      </trkpt>
      <trkpt lat="49.94201" lon="2.13728">
        <ele>58.2</ele>
        <time>2022-09-14T14:28:01Z</time>
      </trkpt>
      <trkpt lat="49.94201" lon="2.13729">
        <ele>58.2</ele>
        <time>2022-09-14T14:28:02Z</time>
      </trkpt>
      <trkpt lat="49.94199" lon="2.13731">
        <ele>58.3</ele>
        <time>2022-09-14T14:28:03Z</time>
      </trkpt>
      <trkpt lat="49.94198" lon="2.13731">
        <ele>58.3</ele>
        <time>2022-09-14T14:28:05Z</time>
      </trkpt>
      <trkpt lat="49.94197" lon="2.13732">
        <ele>58.3</ele>
        <time>2022-09-14T14:28:06Z</time>
      </trkpt>
      <trkpt lat="49.94196" lon="2.13732">
        <ele>58.3</ele>
        <time>2022-09-14T14:28:07Z</time>
      </trkpt>
      <trkpt lat="49.94196" lon="2.13733">
        <ele>58.3</ele>
        <time>2022-09-14T14:28:08Z</time>
      </trkpt>
      <trkpt lat="49.94194" lon="2.13734">
        <ele>58.3</ele>
        <time>2022-09-14T14:28:09Z</time>
      </trkpt>
      <trkpt lat="49.94193" lon="2.13736">
        <ele>58.3</ele>
        <time>2022-09-14T14:28:10Z</time>
      </trkpt>
      <trkpt lat="49.94192" lon="2.13736">
        <ele>58.3</ele>
        <time>2022-09-14T14:28:11Z</time>
      </trkpt>
      <trkpt lat="49.94192" lon="2.13737">
        <ele>58.4</ele>
        <time>2022-09-14T14:28:13Z</time>
      </trkpt>
      <trkpt lat="49.94191" lon="2.13738">
        <ele>58.4</ele>
        <time>2022-09-14T14:28:14Z</time>
      </trkpt>
      <trkpt lat="49.94189" lon="2.1374">
        <ele>58.4</ele>
        <time>2022-09-14T14:28:15Z</time>
      </trkpt>
      <trkpt lat="49.94189" lon="2.1374">
        <ele>58.4</ele>
        <time>2022-09-14T14:28:16Z</time>
      </trkpt>
      <trkpt lat="49.94188" lon="2.13741">
        <ele>58.4</ele>
        <time>2022-09-14T14:28:17Z</time>
      </trkpt>
      <trkpt lat="49.94187" lon="2.13742">
        <ele>58.4</ele>
        <time>2022-09-14T14:28:18Z</time>
      </trkpt>
      <trkpt lat="49.94186" lon="2.13744">
        <ele>58.4</ele>
        <time>2022-09-14T14:28:19Z</time>
      </trkpt>
      <trkpt lat="49.94185" lon="2.13744">
        <ele>58.4</ele>
        <time>2022-09-14T14:28:21Z</time>
      </trkpt>
      <trkpt lat="49.94184" lon="2.13746">
        <ele>58.4</ele>
        <time>2022-09-14T14:28:22Z</time>
      </trkpt>
      <trkpt lat="49.94183" lon="2.13747">
        <ele>58.4</ele>
        <time>2022-09-14T14:28:23Z</time>
      </trkpt>
      <trkpt lat="49.94181" lon="2.13749">
        <ele>58.4</ele>
        <time>2022-09-14T14:28:24Z</time>
      </trkpt>
      <trkpt lat="49.94181" lon="2.1375">
        <ele>58.4</ele>
        <time>2022-09-14T14:28:25Z</time>
      </trkpt>
      <trkpt lat="49.9418" lon="2.1375">
        <ele>58.5</ele>
        <time>2022-09-14T14:28:26Z</time>
      </trkpt>
      <trkpt lat="49.94179" lon="2.13752">
        <ele>58.5</ele>
        <time>2022-09-14T14:28:27Z</time>
      </trkpt>
      <trkpt lat="49.94178" lon="2.13753">
        <ele>58.5</ele>
        <time>2022-09-14T14:28:28Z</time>
      </trkpt>
      <trkpt lat="49.94177" lon="2.13755">
        <ele>58.5</ele>
        <time>2022-09-14T14:28:30Z</time>
      </trkpt>
      <trkpt lat="49.94176" lon="2.13756">
        <ele>58.5</ele>
        <time>2022-09-14T14:28:31Z</time>
      </trkpt>
      <trkpt lat="49.94175" lon="2.13757">
        <ele>58.5</ele>
        <time>2022-09-14T14:28:32Z</time>
      </trkpt>
      <trkpt lat="49.94174" lon="2.13757">
        <ele>58.5</ele>
        <time>2022-09-14T14:28:33Z</time>
      </trkpt>
      <trkpt lat="49.94173" lon="2.13758">
        <ele>58.5</ele>
        <time>2022-09-14T14:28:34Z</time>
      </trkpt>
      <trkpt lat="49.94172" lon="2.13759">
        <ele>58.5</ele>
        <time>2022-09-14T14:28:35Z</time>
      </trkpt>
      <trkpt lat="49.9417" lon="2.13761">
        <ele>58.5</ele>
        <time>2022-09-14T14:28:36Z</time>
      </trkpt>
      <trkpt lat="49.94169" lon="2.13762">
        <ele>58.5</ele>
        <time>2022-09-14T14:28:38Z</time>
      </trkpt>
      <trkpt lat="49.94169" lon="2.13763">
        <ele>58.5</ele>
        <time>2022-09-14T14:28:39Z</time>
      </trkpt>
      <trkpt lat="49.94168" lon="2.13764">
        <ele>58.5</ele>
        <time>2022-09-14T14:28:40Z</time>
      </trkpt>
      <trkpt lat="49.94167" lon="2.13765">
        <ele>58.5</ele>
        <time>2022-09-14T14:28:41Z</time>
      </trkpt>
      <trkpt lat="49.94166" lon="2.13766">
        <ele>58.5</ele>
        <time>2022-09-14T14:28:42Z</time>
      </trkpt>
      <trkpt lat="49.94165" lon="2.13767">
        <ele>58.5</ele>
        <time>2022-09-14T14:28:44Z</time>
      </trkpt>
      <trkpt lat="49.94164" lon="2.13768">
        <ele>58.6</ele>
        <time>2022-09-14T14:28:45Z</time>
      </trkpt>
      <trkpt lat="49.94162" lon="2.1377">
        <ele>58.6</ele>
        <time>2022-09-14T14:28:46Z</time>
      </trkpt>
      <trkpt lat="49.94161" lon="2.1377">
        <ele>58.6</ele>
        <time>2022-09-14T14:28:47Z</time>
      </trkpt>
      <trkpt lat="49.9416" lon="2.13771">
        <ele>58.6</ele>
        <time>2022-09-14T14:28:48Z</time>
      </trkpt>
      <trkpt lat="49.94159" lon="2.13772">
        <ele>58.6</ele>
        <time>2022-09-14T14:28:50Z</time>
      </trkpt>
      <trkpt lat="49.94158" lon="2.13773">
        <ele>58.6</ele>
        <time>2022-09-14T14:28:51Z</time>
      </trkpt>
      <trkpt lat="49.94158" lon="2.13775">
        <ele>58.6</ele>
        <time>2022-09-14T14:28:52Z</time>
      </trkpt>
      <trkpt lat="49.94157" lon="2.13775">
        <ele>58.6</ele>
        <time>2022-09-14T14:28:53Z</time>
      </trkpt>
      <trkpt lat="49.94156" lon="2.13777">
        <ele>58.6</ele>
        <time>2022-09-14T14:28:54Z</time>
      </trkpt>
      <trkpt lat="49.94155" lon="2.13778">
        <ele>58.5</ele>
        <time>2022-09-14T14:28:55Z</time>
      </trkpt>
      <trkpt lat="49.94154" lon="2.13781">
        <ele>58.5</ele>
        <time>2022-09-14T14:28:56Z</time>
      </trkpt>
      <trkpt lat="49.94153" lon="2.13782">
        <ele>58.5</ele>
        <time>2022-09-14T14:28:57Z</time>
      </trkpt>
      <trkpt lat="49.94152" lon="2.13784">
        <ele>58.5</ele>
        <time>2022-09-14T14:28:59Z</time>
      </trkpt>
      <trkpt lat="49.94151" lon="2.13787">
        <ele>58.5</ele>
        <time>2022-09-14T14:29:00Z</time>
      </trkpt>
      <trkpt lat="49.9415" lon="2.13789">
        <ele>58.5</ele>
        <time>2022-09-14T14:29:01Z</time>
      </trkpt>
      <trkpt lat="49.9415" lon="2.13792">
        <ele>58.5</ele>
        <time>2022-09-14T14:29:02Z</time>
      </trkpt>
      <trkpt lat="49.9415" lon="2.13794">
        <ele>58.5</ele>
        <time>2022-09-14T14:29:03Z</time>
      </trkpt>
      <trkpt lat="49.9415" lon="2.13797">
        <ele>58.3</ele>
        <time>2022-09-14T14:29:04Z</time>
      </trkpt>
      <trkpt lat="49.9415" lon="2.13799">
        <ele>58.3</ele>
        <time>2022-09-14T14:29:05Z</time>
      </trkpt>
      <trkpt lat="49.94151" lon="2.13801">
        <ele>58.2</ele>
        <time>2022-09-14T14:29:06Z</time>
      </trkpt>
      <trkpt lat="49.94151" lon="2.13804">
        <ele>58.2</ele>
        <time>2022-09-14T14:29:08Z</time>
      </trkpt>
      <trkpt lat="49.94151" lon="2.13807">
        <ele>58.1</ele>
        <time>2022-09-14T14:29:09Z</time>
      </trkpt>
      <trkpt lat="49.94154" lon="2.1381">
        <ele>58</ele>
        <time>2022-09-14T14:29:10Z</time>
      </trkpt>
      <trkpt lat="49.94156" lon="2.13814">
        <ele>57.9</ele>
        <time>2022-09-14T14:29:12Z</time>
      </trkpt>
      <trkpt lat="49.94156" lon="2.13815">
        <ele>57.8</ele>
        <time>2022-09-14T14:29:13Z</time>
      </trkpt>
      <trkpt lat="49.94158" lon="2.13818">
        <ele>57.7</ele>
        <time>2022-09-14T14:29:14Z</time>
      </trkpt>
      <trkpt lat="49.94159" lon="2.13819">
        <ele>57.7</ele>
        <time>2022-09-14T14:29:15Z</time>
      </trkpt>
      <trkpt lat="49.94161" lon="2.13823">
        <ele>57.6</ele>
        <time>2022-09-14T14:29:17Z</time>
      </trkpt>
      <trkpt lat="49.94162" lon="2.13824">
        <ele>57.5</ele>
        <time>2022-09-14T14:29:18Z</time>
      </trkpt>
      <trkpt lat="49.94163" lon="2.13826">
        <ele>57.5</ele>
        <time>2022-09-14T14:29:19Z</time>
      </trkpt>
      <trkpt lat="49.94164" lon="2.13828">
        <ele>57.4</ele>
        <time>2022-09-14T14:29:20Z</time>
      </trkpt>
      <trkpt lat="49.94165" lon="2.13829">
        <ele>57.3</ele>
        <time>2022-09-14T14:29:21Z</time>
      </trkpt>
      <trkpt lat="49.94166" lon="2.13831">
        <ele>57.3</ele>
        <time>2022-09-14T14:29:22Z</time>
      </trkpt>
      <trkpt lat="49.94167" lon="2.13832">
        <ele>57.2</ele>
        <time>2022-09-14T14:29:23Z</time>
      </trkpt>
      <trkpt lat="49.94168" lon="2.13834">
        <ele>57.2</ele>
        <time>2022-09-14T14:29:24Z</time>
      </trkpt>
      <trkpt lat="49.94169" lon="2.13836">
        <ele>57.1</ele>
        <time>2022-09-14T14:29:25Z</time>
      </trkpt>
      <trkpt lat="49.9417" lon="2.13838">
        <ele>57</ele>
        <time>2022-09-14T14:29:27Z</time>
      </trkpt>
      <trkpt lat="49.94171" lon="2.13839">
        <ele>57</ele>
        <time>2022-09-14T14:29:28Z</time>
      </trkpt>
      <trkpt lat="49.94173" lon="2.1384">
        <ele>56.9</ele>
        <time>2022-09-14T14:29:29Z</time>
      </trkpt>
      <trkpt lat="49.94174" lon="2.13841">
        <ele>56.8</ele>
        <time>2022-09-14T14:29:31Z</time>
      </trkpt>
      <trkpt lat="49.94175" lon="2.13842">
        <ele>56.8</ele>
        <time>2022-09-14T14:29:32Z</time>
      </trkpt>
      <trkpt lat="49.94176" lon="2.13844">
        <ele>56.7</ele>
        <time>2022-09-14T14:29:33Z</time>
      </trkpt>
      <trkpt lat="49.94177" lon="2.13847">
        <ele>56.6</ele>
        <time>2022-09-14T14:29:35Z</time>
      </trkpt>
      <trkpt lat="49.94178" lon="2.1385">
        <ele>56.5</ele>
        <time>2022-09-14T14:29:36Z</time>
      </trkpt>
      <trkpt lat="49.94178" lon="2.13851">
        <ele>56.5</ele>
        <time>2022-09-14T14:29:37Z</time>
      </trkpt>
      <trkpt lat="49.94179" lon="2.13852">
        <ele>56.5</ele>
        <time>2022-09-14T14:29:38Z</time>
      </trkpt>
      <trkpt lat="49.9418" lon="2.13856">
        <ele>56.3</ele>
        <time>2022-09-14T14:29:39Z</time>
      </trkpt>
      <trkpt lat="49.94181" lon="2.13857">
        <ele>56.3</ele>
        <time>2022-09-14T14:29:40Z</time>
      </trkpt>
      <trkpt lat="49.94182" lon="2.13859">
        <ele>56.2</ele>
        <time>2022-09-14T14:29:42Z</time>
      </trkpt>
      <trkpt lat="49.94183" lon="2.13861">
        <ele>56.1</ele>
        <time>2022-09-14T14:29:43Z</time>
      </trkpt>
      <trkpt lat="49.94183" lon="2.13863">
        <ele>56.1</ele>
        <time>2022-09-14T14:29:44Z</time>
      </trkpt>
      <trkpt lat="49.94184" lon="2.13864">
        <ele>56</ele>
        <time>2022-09-14T14:29:45Z</time>
      </trkpt>
      <trkpt lat="49.94184" lon="2.13866">
        <ele>56</ele>
        <time>2022-09-14T14:29:46Z</time>
      </trkpt>
      <trkpt lat="49.94185" lon="2.13867">
        <ele>56</ele>
        <time>2022-09-14T14:29:47Z</time>
      </trkpt>
      <trkpt lat="49.94185" lon="2.13868">
        <ele>55.9</ele>
        <time>2022-09-14T14:29:48Z</time>
      </trkpt>
      <trkpt lat="49.94186" lon="2.13869">
        <ele>55.9</ele>
        <time>2022-09-14T14:29:49Z</time>
      </trkpt>
      <trkpt lat="49.94187" lon="2.13871">
        <ele>55.8</ele>
        <time>2022-09-14T14:29:51Z</time>
      </trkpt>
      <trkpt lat="49.94187" lon="2.13872">
        <ele>55.8</ele>
        <time>2022-09-14T14:29:52Z</time>
      </trkpt>
      <trkpt lat="49.94187" lon="2.13871">
        <ele>55.7</ele>
        <time>2022-09-14T14:29:53Z</time>
      </trkpt>
      <trkpt lat="49.94188" lon="2.13872">
        <ele>55.7</ele>
        <time>2022-09-14T14:29:54Z</time>
      </trkpt>
      <trkpt lat="49.94188" lon="2.13873">
        <ele>55.7</ele>
        <time>2022-09-14T14:29:55Z</time>
      </trkpt>
      <trkpt lat="49.94189" lon="2.13875">
        <ele>55.6</ele>
        <time>2022-09-14T14:29:56Z</time>
      </trkpt>
      <trkpt lat="49.94189" lon="2.13876">
        <ele>55.6</ele>
        <time>2022-09-14T14:29:57Z</time>
      </trkpt>
      <trkpt lat="49.9419" lon="2.13878">
        <ele>55.5</ele>
        <time>2022-09-14T14:29:58Z</time>
      </trkpt>
      <trkpt lat="49.94191" lon="2.13879">
        <ele>55.4</ele>
        <time>2022-09-14T14:29:59Z</time>
      </trkpt>
      <trkpt lat="49.94192" lon="2.13882">
        <ele>55.3</ele>
        <time>2022-09-14T14:30:01Z</time>
      </trkpt>
      <trkpt lat="49.94193" lon="2.13883">
        <ele>55.3</ele>
        <time>2022-09-14T14:30:02Z</time>
      </trkpt>
      <trkpt lat="49.94193" lon="2.13885">
        <ele>55.2</ele>
        <time>2022-09-14T14:30:03Z</time>
      </trkpt>
      <trkpt lat="49.94194" lon="2.13887">
        <ele>55.2</ele>
        <time>2022-09-14T14:30:04Z</time>
      </trkpt>
      <trkpt lat="49.94194" lon="2.13888">
        <ele>55.1</ele>
        <time>2022-09-14T14:30:05Z</time>
      </trkpt>
      <trkpt lat="49.94195" lon="2.13889">
        <ele>55.1</ele>
        <time>2022-09-14T14:30:06Z</time>
      </trkpt>
      <trkpt lat="49.94196" lon="2.13891">
        <ele>55</ele>
        <time>2022-09-14T14:30:07Z</time>
      </trkpt>
      <trkpt lat="49.94197" lon="2.13893">
        <ele>54.9</ele>
        <time>2022-09-14T14:30:09Z</time>
      </trkpt>
      <trkpt lat="49.94197" lon="2.13895">
        <ele>54.8</ele>
        <time>2022-09-14T14:30:10Z</time>
      </trkpt>
      <trkpt lat="49.94198" lon="2.13897">
        <ele>54.7</ele>
        <time>2022-09-14T14:30:11Z</time>
      </trkpt>
      <trkpt lat="49.94198" lon="2.13899">
        <ele>54.7</ele>
        <time>2022-09-14T14:30:12Z</time>
      </trkpt>
      <trkpt lat="49.94199" lon="2.13899">
        <ele>54.7</ele>
        <time>2022-09-14T14:30:13Z</time>
      </trkpt>
      <trkpt lat="49.94199" lon="2.13901">
        <ele>54.6</ele>
        <time>2022-09-14T14:30:14Z</time>
      </trkpt>
      <trkpt lat="49.942" lon="2.13902">
        <ele>54.5</ele>
        <time>2022-09-14T14:30:15Z</time>
      </trkpt>
      <trkpt lat="49.942" lon="2.13904">
        <ele>54.5</ele>
        <time>2022-09-14T14:30:16Z</time>
      </trkpt>
      <trkpt lat="49.94201" lon="2.13906">
        <ele>54.4</ele>
        <time>2022-09-14T14:30:17Z</time>
      </trkpt>
      <trkpt lat="49.94202" lon="2.13908">
        <ele>54.3</ele>
        <time>2022-09-14T14:30:18Z</time>
      </trkpt>
      <trkpt lat="49.94203" lon="2.1391">
        <ele>54.2</ele>
        <time>2022-09-14T14:30:20Z</time>
      </trkpt>
      <trkpt lat="49.94203" lon="2.13912">
        <ele>54.1</ele>
        <time>2022-09-14T14:30:21Z</time>
      </trkpt>
      <trkpt lat="49.94205" lon="2.13915">
        <ele>54</ele>
        <time>2022-09-14T14:30:22Z</time>
      </trkpt>
      <trkpt lat="49.94205" lon="2.13916">
        <ele>54</ele>
        <time>2022-09-14T14:30:23Z</time>
      </trkpt>
      <trkpt lat="49.94206" lon="2.13917">
        <ele>53.9</ele>
        <time>2022-09-14T14:30:24Z</time>
      </trkpt>
      <trkpt lat="49.94206" lon="2.13919">
        <ele>53.9</ele>
        <time>2022-09-14T14:30:25Z</time>
      </trkpt>
      <trkpt lat="49.94207" lon="2.13921">
        <ele>53.8</ele>
        <time>2022-09-14T14:30:26Z</time>
      </trkpt>
      <trkpt lat="49.94208" lon="2.13922">
        <ele>53.7</ele>
        <time>2022-09-14T14:30:27Z</time>
      </trkpt>
      <trkpt lat="49.9421" lon="2.13926">
        <ele>53.5</ele>
        <time>2022-09-14T14:30:29Z</time>
      </trkpt>
      <trkpt lat="49.94211" lon="2.13928">
        <ele>53.4</ele>
        <time>2022-09-14T14:30:30Z</time>
      </trkpt>
      <trkpt lat="49.94212" lon="2.13931">
        <ele>53.4</ele>
        <time>2022-09-14T14:30:31Z</time>
      </trkpt>
      <trkpt lat="49.94213" lon="2.13933">
        <ele>53.3</ele>
        <time>2022-09-14T14:30:32Z</time>
      </trkpt>
      <trkpt lat="49.94214" lon="2.13935">
        <ele>53.2</ele>
        <time>2022-09-14T14:30:33Z</time>
      </trkpt>
      <trkpt lat="49.94215" lon="2.13936">
        <ele>53.1</ele>
        <time>2022-09-14T14:30:34Z</time>
      </trkpt>
      <trkpt lat="49.94215" lon="2.13938">
        <ele>53.1</ele>
        <time>2022-09-14T14:30:35Z</time>
      </trkpt>
      <trkpt lat="49.94216" lon="2.13939">
        <ele>53</ele>
        <time>2022-09-14T14:30:37Z</time>
      </trkpt>
      <trkpt lat="49.94216" lon="2.13941">
        <ele>53</ele>
        <time>2022-09-14T14:30:38Z</time>
      </trkpt>
      <trkpt lat="49.94217" lon="2.13942">
        <ele>52.9</ele>
        <time>2022-09-14T14:30:39Z</time>
      </trkpt>
      <trkpt lat="49.94218" lon="2.13943">
        <ele>52.9</ele>
        <time>2022-09-14T14:30:40Z</time>
      </trkpt>
      <trkpt lat="49.94218" lon="2.13944">
        <ele>52.8</ele>
        <time>2022-09-14T14:30:41Z</time>
      </trkpt>
      <trkpt lat="49.94219" lon="2.13945">
        <ele>52.8</ele>
        <time>2022-09-14T14:30:42Z</time>
      </trkpt>
      <trkpt lat="49.9422" lon="2.13947">
        <ele>52.7</ele>
        <time>2022-09-14T14:30:43Z</time>
      </trkpt>
      <trkpt lat="49.9422" lon="2.13947">
        <ele>52.7</ele>
        <time>2022-09-14T14:30:45Z</time>
      </trkpt>
      <trkpt lat="49.94221" lon="2.13948">
        <ele>52.6</ele>
        <time>2022-09-14T14:30:46Z</time>
      </trkpt>
      <trkpt lat="49.94222" lon="2.13949">
        <ele>52.6</ele>
        <time>2022-09-14T14:30:47Z</time>
      </trkpt>
      <trkpt lat="49.94224" lon="2.13951">
        <ele>52.5</ele>
        <time>2022-09-14T14:30:48Z</time>
      </trkpt>
      <trkpt lat="49.94224" lon="2.13952">
        <ele>52.4</ele>
        <time>2022-09-14T14:30:49Z</time>
      </trkpt>
      <trkpt lat="49.94225" lon="2.13953">
        <ele>52.4</ele>
        <time>2022-09-14T14:30:50Z</time>
      </trkpt>
      <trkpt lat="49.94225" lon="2.13954">
        <ele>52.3</ele>
        <time>2022-09-14T14:30:51Z</time>
      </trkpt>
      <trkpt lat="49.94226" lon="2.13955">
        <ele>52.3</ele>
        <time>2022-09-14T14:30:53Z</time>
      </trkpt>
      <trkpt lat="49.94227" lon="2.13956">
        <ele>52.2</ele>
        <time>2022-09-14T14:30:54Z</time>
      </trkpt>
      <trkpt lat="49.94228" lon="2.13957">
        <ele>52.2</ele>
        <time>2022-09-14T14:30:55Z</time>
      </trkpt>
      <trkpt lat="49.94228" lon="2.13958">
        <ele>52.1</ele>
        <time>2022-09-14T14:30:56Z</time>
      </trkpt>
      <trkpt lat="49.94229" lon="2.13959">
        <ele>52.1</ele>
        <time>2022-09-14T14:30:57Z</time>
      </trkpt>
      <trkpt lat="49.9423" lon="2.1396">
        <ele>52</ele>
        <time>2022-09-14T14:30:58Z</time>
      </trkpt>
      <trkpt lat="49.9423" lon="2.13962">
        <ele>52</ele>
        <time>2022-09-14T14:30:59Z</time>
      </trkpt>
      <trkpt lat="49.94231" lon="2.13963">
        <ele>51.9</ele>
        <time>2022-09-14T14:31:00Z</time>
      </trkpt>
      <trkpt lat="49.94232" lon="2.13965">
        <ele>51.9</ele>
        <time>2022-09-14T14:31:01Z</time>
      </trkpt>
      <trkpt lat="49.94233" lon="2.13968">
        <ele>51.7</ele>
        <time>2022-09-14T14:31:03Z</time>
      </trkpt>
      <trkpt lat="49.94234" lon="2.1397">
        <ele>51.7</ele>
        <time>2022-09-14T14:31:04Z</time>
      </trkpt>
      <trkpt lat="49.94235" lon="2.13971">
        <ele>51.6</ele>
        <time>2022-09-14T14:31:05Z</time>
      </trkpt>
      <trkpt lat="49.94235" lon="2.13972">
        <ele>51.6</ele>
        <time>2022-09-14T14:31:06Z</time>
      </trkpt>
      <trkpt lat="49.94236" lon="2.13975">
        <ele>51.5</ele>
        <time>2022-09-14T14:31:07Z</time>
      </trkpt>
      <trkpt lat="49.94237" lon="2.13976">
        <ele>51.5</ele>
        <time>2022-09-14T14:31:08Z</time>
      </trkpt>
      <trkpt lat="49.94237" lon="2.13977">
        <ele>51.4</ele>
        <time>2022-09-14T14:31:09Z</time>
      </trkpt>
      <trkpt lat="49.94238" lon="2.13979">
        <ele>51.4</ele>
        <time>2022-09-14T14:31:11Z</time>
      </trkpt>
      <trkpt lat="49.94239" lon="2.13981">
        <ele>51.3</ele>
        <time>2022-09-14T14:31:12Z</time>
      </trkpt>
      <trkpt lat="49.9424" lon="2.13983">
        <ele>51.2</ele>
        <time>2022-09-14T14:31:13Z</time>
      </trkpt>
      <trkpt lat="49.94241" lon="2.13985">
        <ele>51.2</ele>
        <time>2022-09-14T14:31:14Z</time>
      </trkpt>
      <trkpt lat="49.94241" lon="2.13986">
        <ele>51.1</ele>
        <time>2022-09-14T14:31:15Z</time>
      </trkpt>
      <trkpt lat="49.94242" lon="2.13988">
        <ele>51</ele>
        <time>2022-09-14T14:31:17Z</time>
      </trkpt>
      <trkpt lat="49.94243" lon="2.1399">
        <ele>51</ele>
        <time>2022-09-14T14:31:18Z</time>
      </trkpt>
      <trkpt lat="49.94243" lon="2.13992">
        <ele>50.9</ele>
        <time>2022-09-14T14:31:20Z</time>
      </trkpt>
      <trkpt lat="49.94244" lon="2.13993">
        <ele>50.9</ele>
        <time>2022-09-14T14:31:21Z</time>
      </trkpt>
      <trkpt lat="49.94244" lon="2.13994">
        <ele>50.8</ele>
        <time>2022-09-14T14:31:22Z</time>
      </trkpt>
      <trkpt lat="49.94245" lon="2.13996">
        <ele>50.8</ele>
        <time>2022-09-14T14:31:23Z</time>
      </trkpt>
      <trkpt lat="49.94245" lon="2.13997">
        <ele>50.7</ele>
        <time>2022-09-14T14:31:24Z</time>
      </trkpt>
      <trkpt lat="49.94245" lon="2.13999">
        <ele>50.7</ele>
        <time>2022-09-14T14:31:25Z</time>
      </trkpt>
      <trkpt lat="49.94246" lon="2.14">
        <ele>50.6</ele>
        <time>2022-09-14T14:31:26Z</time>
      </trkpt>
      <trkpt lat="49.94246" lon="2.14002">
        <ele>50.6</ele>
        <time>2022-09-14T14:31:27Z</time>
      </trkpt>
      <trkpt lat="49.94247" lon="2.14003">
        <ele>50.5</ele>
        <time>2022-09-14T14:31:29Z</time>
      </trkpt>
      <trkpt lat="49.94247" lon="2.14002">
        <ele>50.5</ele>
        <time>2022-09-14T14:31:30Z</time>
      </trkpt>
      <trkpt lat="49.94247" lon="2.14003">
        <ele>50.5</ele>
        <time>2022-09-14T14:31:31Z</time>
      </trkpt>
      <trkpt lat="49.94248" lon="2.14004">
        <ele>50.4</ele>
        <time>2022-09-14T14:31:32Z</time>
      </trkpt>
      <trkpt lat="49.94248" lon="2.14005">
        <ele>50.3</ele>
        <time>2022-09-14T14:31:33Z</time>
      </trkpt>
      <trkpt lat="49.94249" lon="2.14007">
        <ele>50.3</ele>
        <time>2022-09-14T14:31:34Z</time>
      </trkpt>
      <trkpt lat="49.9425" lon="2.14009">
        <ele>50.2</ele>
        <time>2022-09-14T14:31:35Z</time>
      </trkpt>
      <trkpt lat="49.9425" lon="2.1401">
        <ele>50.1</ele>
        <time>2022-09-14T14:31:36Z</time>
      </trkpt>
      <trkpt lat="49.94251" lon="2.14011">
        <ele>50.1</ele>
        <time>2022-09-14T14:31:37Z</time>
      </trkpt>
      <trkpt lat="49.94252" lon="2.14011">
        <ele>50</ele>
        <time>2022-09-14T14:31:38Z</time>
      </trkpt>
      <trkpt lat="49.94252" lon="2.14011">
        <ele>50</ele>
        <time>2022-09-14T14:31:39Z</time>
      </trkpt>
      <trkpt lat="49.94253" lon="2.14012">
        <ele>50</ele>
        <time>2022-09-14T14:31:40Z</time>
      </trkpt>
      <trkpt lat="49.94254" lon="2.14013">
        <ele>49.9</ele>
        <time>2022-09-14T14:31:41Z</time>
      </trkpt>
      <trkpt lat="49.94255" lon="2.14014">
        <ele>49.8</ele>
        <time>2022-09-14T14:31:42Z</time>
      </trkpt>
      <trkpt lat="49.94255" lon="2.14016">
        <ele>49.8</ele>
        <time>2022-09-14T14:31:43Z</time>
      </trkpt>
      <trkpt lat="49.94256" lon="2.14017">
        <ele>49.7</ele>
        <time>2022-09-14T14:31:44Z</time>
      </trkpt>
      <trkpt lat="49.94257" lon="2.14019">
        <ele>49.6</ele>
        <time>2022-09-14T14:31:45Z</time>
      </trkpt>
      <trkpt lat="49.94257" lon="2.14021">
        <ele>49.6</ele>
        <time>2022-09-14T14:31:46Z</time>
      </trkpt>
      <trkpt lat="49.94258" lon="2.14023">
        <ele>49.5</ele>
        <time>2022-09-14T14:31:48Z</time>
      </trkpt>
      <trkpt lat="49.94259" lon="2.14026">
        <ele>49.5</ele>
        <time>2022-09-14T14:31:49Z</time>
      </trkpt>
      <trkpt lat="49.9426" lon="2.14027">
        <ele>49.5</ele>
        <time>2022-09-14T14:31:50Z</time>
      </trkpt>
      <trkpt lat="49.9426" lon="2.14028">
        <ele>49.5</ele>
        <time>2022-09-14T14:31:51Z</time>
      </trkpt>
      <trkpt lat="49.9426" lon="2.1403">
        <ele>49.5</ele>
        <time>2022-09-14T14:31:52Z</time>
      </trkpt>
      <trkpt lat="49.9426" lon="2.14031">
        <ele>49.4</ele>
        <time>2022-09-14T14:31:53Z</time>
      </trkpt>
      <trkpt lat="49.94261" lon="2.14033">
        <ele>49.4</ele>
        <time>2022-09-14T14:31:55Z</time>
      </trkpt>
      <trkpt lat="49.94261" lon="2.14035">
        <ele>49.4</ele>
        <time>2022-09-14T14:31:56Z</time>
      </trkpt>
      <trkpt lat="49.94261" lon="2.14036">
        <ele>49.4</ele>
        <time>2022-09-14T14:31:57Z</time>
      </trkpt>
      <trkpt lat="49.94262" lon="2.14037">
        <ele>49.4</ele>
        <time>2022-09-14T14:31:58Z</time>
      </trkpt>
      <trkpt lat="49.94262" lon="2.14038">
        <ele>49.4</ele>
        <time>2022-09-14T14:31:59Z</time>
      </trkpt>
      <trkpt lat="49.94263" lon="2.1404">
        <ele>49.3</ele>
        <time>2022-09-14T14:32:00Z</time>
      </trkpt>
      <trkpt lat="49.94263" lon="2.14041">
        <ele>49.3</ele>
        <time>2022-09-14T14:32:01Z</time>
      </trkpt>
      <trkpt lat="49.94263" lon="2.14042">
        <ele>49.3</ele>
        <time>2022-09-14T14:32:02Z</time>
      </trkpt>
      <trkpt lat="49.94264" lon="2.14044">
        <ele>49.3</ele>
        <time>2022-09-14T14:32:03Z</time>
      </trkpt>
      <trkpt lat="49.94264" lon="2.14045">
        <ele>49.3</ele>
        <time>2022-09-14T14:32:05Z</time>
      </trkpt>
      <trkpt lat="49.94265" lon="2.14047">
        <ele>49.3</ele>
        <time>2022-09-14T14:32:06Z</time>
      </trkpt>
      <trkpt lat="49.94266" lon="2.14049">
        <ele>49.2</ele>
        <time>2022-09-14T14:32:07Z</time>
      </trkpt>
      <trkpt lat="49.94266" lon="2.1405">
        <ele>49.2</ele>
        <time>2022-09-14T14:32:08Z</time>
      </trkpt>
      <trkpt lat="49.94266" lon="2.14051">
        <ele>49.2</ele>
        <time>2022-09-14T14:32:09Z</time>
      </trkpt>
      <trkpt lat="49.94266" lon="2.14053">
        <ele>49.2</ele>
        <time>2022-09-14T14:32:10Z</time>
      </trkpt>
      <trkpt lat="49.94267" lon="2.14054">
        <ele>49.2</ele>
        <time>2022-09-14T14:32:11Z</time>
      </trkpt>
      <trkpt lat="49.94267" lon="2.14054">
        <ele>49.2</ele>
        <time>2022-09-14T14:32:12Z</time>
      </trkpt>
      <trkpt lat="49.94267" lon="2.14056">
        <ele>49.1</ele>
        <time>2022-09-14T14:32:14Z</time>
      </trkpt>
      <trkpt lat="49.94267" lon="2.14058">
        <ele>49.1</ele>
        <time>2022-09-14T14:32:15Z</time>
      </trkpt>
      <trkpt lat="49.94267" lon="2.14059">
        <ele>49.1</ele>
        <time>2022-09-14T14:32:16Z</time>
      </trkpt>
      <trkpt lat="49.94268" lon="2.14061">
        <ele>49.1</ele>
        <time>2022-09-14T14:32:17Z</time>
      </trkpt>
      <trkpt lat="49.94267" lon="2.14063">
        <ele>49.1</ele>
        <time>2022-09-14T14:32:18Z</time>
      </trkpt>
      <trkpt lat="49.94266" lon="2.14063">
        <ele>49</ele>
        <time>2022-09-14T14:32:19Z</time>
      </trkpt>
      <trkpt lat="49.94265" lon="2.14064">
        <ele>49</ele>
        <time>2022-09-14T14:32:20Z</time>
      </trkpt>
      <trkpt lat="49.94264" lon="2.14064">
        <ele>49</ele>
        <time>2022-09-14T14:32:22Z</time>
      </trkpt>
      <trkpt lat="49.94262" lon="2.14065">
        <ele>49</ele>
        <time>2022-09-14T14:32:24Z</time>
      </trkpt>
      <trkpt lat="49.94262" lon="2.14066">
        <ele>49</ele>
        <time>2022-09-14T14:32:25Z</time>
      </trkpt>
      <trkpt lat="49.94263" lon="2.14067">
        <ele>49</ele>
        <time>2022-09-14T14:32:26Z</time>
      </trkpt>
      <trkpt lat="49.94264" lon="2.14068">
        <ele>48.9</ele>
        <time>2022-09-14T14:32:27Z</time>
      </trkpt>
      <trkpt lat="49.94264" lon="2.14068">
        <ele>48.9</ele>
        <time>2022-09-14T14:32:28Z</time>
      </trkpt>
      <trkpt lat="49.94265" lon="2.14068">
        <ele>48.9</ele>
        <time>2022-09-14T14:32:29Z</time>
      </trkpt>
      <trkpt lat="49.94265" lon="2.14068">
        <ele>48.9</ele>
        <time>2022-09-14T14:32:30Z</time>
      </trkpt>
      <trkpt lat="49.94265" lon="2.14067">
        <ele>48.9</ele>
        <time>2022-09-14T14:32:31Z</time>
      </trkpt>
      <trkpt lat="49.94265" lon="2.14067">
        <ele>48.9</ele>
        <time>2022-09-14T14:32:32Z</time>
      </trkpt>
      <trkpt lat="49.94265" lon="2.14067">
        <ele>48.9</ele>
        <time>2022-09-14T14:32:33Z</time>
      </trkpt>
      <trkpt lat="49.94265" lon="2.14067">
        <ele>48.9</ele>
        <time>2022-09-14T14:32:34Z</time>
      </trkpt>
      <trkpt lat="49.94265" lon="2.14067">
        <ele>48.9</ele>
        <time>2022-09-14T14:32:35Z</time>
      </trkpt>
      <trkpt lat="49.94265" lon="2.14067">
        <ele>48.9</ele>
        <time>2022-09-14T14:32:36Z</time>
      </trkpt>
      <trkpt lat="49.94265" lon="2.14067">
        <ele>48.9</ele>
        <time>2022-09-14T14:32:37Z</time>
      </trkpt>
      <trkpt lat="49.94265" lon="2.14067">
        <ele>48.9</ele>
        <time>2022-09-14T14:32:38Z</time>
      </trkpt>
      <trkpt lat="49.94265" lon="2.14067">
        <ele>48.9</ele>
        <time>2022-09-14T14:32:39Z</time>
      </trkpt>
      <trkpt lat="49.94265" lon="2.14067">
        <ele>48.9</ele>
        <time>2022-09-14T14:32:40Z</time>
      </trkpt>
      <trkpt lat="49.94265" lon="2.14067">
        <ele>48.9</ele>
        <time>2022-09-14T14:32:41Z</time>
      </trkpt>
      <trkpt lat="49.94265" lon="2.14066">
        <ele>48.9</ele>
        <time>2022-09-14T14:32:42Z</time>
      </trkpt>
      <trkpt lat="49.94266" lon="2.14064">
        <ele>48.9</ele>
        <time>2022-09-14T14:32:43Z</time>
      </trkpt>
      <trkpt lat="49.94266" lon="2.14063">
        <ele>48.9</ele>
        <time>2022-09-14T14:32:44Z</time>
      </trkpt>
      <trkpt lat="49.94266" lon="2.14062">
        <ele>48.8</ele>
        <time>2022-09-14T14:32:45Z</time>
      </trkpt>
      <trkpt lat="49.94266" lon="2.14062">
        <ele>48.8</ele>
        <time>2022-09-14T14:32:46Z</time>
      </trkpt>
      <trkpt lat="49.94266" lon="2.14062">
        <ele>48.8</ele>
        <time>2022-09-14T14:32:47Z</time>
      </trkpt>
      <trkpt lat="49.94266" lon="2.14062">
        <ele>48.8</ele>
        <time>2022-09-14T14:32:48Z</time>
      </trkpt>
      <trkpt lat="49.94266" lon="2.14062">
        <ele>48.8</ele>
        <time>2022-09-14T14:32:49Z</time>
      </trkpt>
      <trkpt lat="49.94266" lon="2.14062">
        <ele>48.8</ele>
        <time>2022-09-14T14:32:50Z</time>
      </trkpt>
      <trkpt lat="49.94266" lon="2.14062">
        <ele>48.8</ele>
        <time>2022-09-14T14:32:51Z</time>
      </trkpt>
      <trkpt lat="49.94266" lon="2.14062">
        <ele>48.8</ele>
        <time>2022-09-14T14:32:52Z</time>
      </trkpt>
      <trkpt lat="49.94266" lon="2.14062">
        <ele>48.8</ele>
        <time>2022-09-14T14:32:53Z</time>
      </trkpt>
      <trkpt lat="49.94266" lon="2.14062">
        <ele>48.8</ele>
        <time>2022-09-14T14:32:54Z</time>
      </trkpt>
      <trkpt lat="49.94266" lon="2.14062">
        <ele>48.8</ele>
        <time>2022-09-14T14:32:55Z</time>
      </trkpt>
      <trkpt lat="49.94266" lon="2.14062">
        <ele>48.8</ele>
        <time>2022-09-14T14:32:56Z</time>
      </trkpt>
      <trkpt lat="49.94266" lon="2.14062">
        <ele>48.8</ele>
        <time>2022-09-14T14:32:57Z</time>
      </trkpt>
      <trkpt lat="49.94266" lon="2.14062">
        <ele>48.8</ele>
        <time>2022-09-14T14:32:58Z</time>
      </trkpt>
      <trkpt lat="49.94266" lon="2.14062">
        <ele>48.8</ele>
        <time>2022-09-14T14:32:59Z</time>
      </trkpt>
      <trkpt lat="49.94266" lon="2.14062">
        <ele>48.8</ele>
        <time>2022-09-14T14:33:00Z</time>
      </trkpt>
      <trkpt lat="49.94266" lon="2.14061">
        <ele>48.8</ele>
        <time>2022-09-14T14:33:01Z</time>
      </trkpt>
      <trkpt lat="49.94265" lon="2.14061">
        <ele>48.8</ele>
        <time>2022-09-14T14:33:02Z</time>
      </trkpt>
      <trkpt lat="49.94266" lon="2.1406">
        <ele>48.8</ele>
        <time>2022-09-14T14:33:03Z</time>
      </trkpt>
      <trkpt lat="49.94266" lon="2.1406">
        <ele>48.8</ele>
        <time>2022-09-14T14:33:04Z</time>
      </trkpt>
      <trkpt lat="49.94267" lon="2.1406">
        <ele>48.8</ele>
        <time>2022-09-14T14:33:06Z</time>
      </trkpt>
      <trkpt lat="49.94267" lon="2.1406">
        <ele>48.8</ele>
        <time>2022-09-14T14:33:07Z</time>
      </trkpt>
      <trkpt lat="49.94268" lon="2.1406">
        <ele>48.8</ele>
        <time>2022-09-14T14:33:08Z</time>
      </trkpt>
      <trkpt lat="49.94268" lon="2.1406">
        <ele>48.8</ele>
        <time>2022-09-14T14:33:09Z</time>
      </trkpt>
      <trkpt lat="49.94268" lon="2.1406">
        <ele>48.8</ele>
        <time>2022-09-14T14:33:10Z</time>
      </trkpt>
      <trkpt lat="49.94268" lon="2.1406">
        <ele>48.8</ele>
        <time>2022-09-14T14:33:11Z</time>
      </trkpt>
      <trkpt lat="49.94268" lon="2.14061">
        <ele>48.8</ele>
        <time>2022-09-14T14:33:12Z</time>
      </trkpt>
      <trkpt lat="49.94268" lon="2.14062">
        <ele>48.7</ele>
        <time>2022-09-14T14:33:13Z</time>
      </trkpt>
      <trkpt lat="49.94268" lon="2.14062">
        <ele>48.7</ele>
        <time>2022-09-14T14:33:14Z</time>
      </trkpt>
      <trkpt lat="49.94268" lon="2.14062">
        <ele>48.7</ele>
        <time>2022-09-14T14:33:16Z</time>
      </trkpt>
      <trkpt lat="49.94267" lon="2.14062">
        <ele>48.7</ele>
        <time>2022-09-14T14:33:17Z</time>
      </trkpt>
      <trkpt lat="49.94267" lon="2.14063">
        <ele>48.7</ele>
        <time>2022-09-14T14:33:18Z</time>
      </trkpt>
      <trkpt lat="49.94267" lon="2.14063">
        <ele>48.7</ele>
        <time>2022-09-14T14:33:19Z</time>
      </trkpt>
      <trkpt lat="49.94267" lon="2.14063">
        <ele>48.7</ele>
        <time>2022-09-14T14:33:20Z</time>
      </trkpt>
      <trkpt lat="49.94267" lon="2.14063">
        <ele>48.7</ele>
        <time>2022-09-14T14:33:21Z</time>
      </trkpt>
      <trkpt lat="49.94267" lon="2.14063">
        <ele>48.7</ele>
        <time>2022-09-14T14:33:22Z</time>
      </trkpt>
      <trkpt lat="49.94267" lon="2.14063">
        <ele>48.7</ele>
        <time>2022-09-14T14:33:23Z</time>
      </trkpt>
      <trkpt lat="49.94267" lon="2.14063">
        <ele>48.7</ele>
        <time>2022-09-14T14:33:24Z</time>
      </trkpt>
      <trkpt lat="49.94267" lon="2.14063">
        <ele>48.7</ele>
        <time>2022-09-14T14:33:26Z</time>
      </trkpt>
      <trkpt lat="49.94267" lon="2.14063">
        <ele>48.7</ele>
        <time>2022-09-14T14:33:27Z</time>
      </trkpt>
      <trkpt lat="49.94267" lon="2.14063">
        <ele>48.7</ele>
        <time>2022-09-14T14:33:28Z</time>
      </trkpt>
      <trkpt lat="49.94267" lon="2.14063">
        <ele>48.7</ele>
        <time>2022-09-14T14:33:29Z</time>
      </trkpt>
      <trkpt lat="49.94267" lon="2.14062">
        <ele>48.7</ele>
        <time>2022-09-14T14:33:30Z</time>
      </trkpt>
      <trkpt lat="49.94267" lon="2.14062">
        <ele>48.7</ele>
        <time>2022-09-14T14:33:31Z</time>
      </trkpt>
      <trkpt lat="49.94267" lon="2.14062">
        <ele>48.7</ele>
        <time>2022-09-14T14:33:32Z</time>
      </trkpt>
      <trkpt lat="49.94267" lon="2.14062">
        <ele>48.7</ele>
        <time>2022-09-14T14:33:33Z</time>
      </trkpt>
      <trkpt lat="49.94267" lon="2.14062">
        <ele>48.7</ele>
        <time>2022-09-14T14:33:34Z</time>
      </trkpt>
      <trkpt lat="49.94267" lon="2.14062">
        <ele>48.7</ele>
        <time>2022-09-14T14:33:35Z</time>
      </trkpt>
      <trkpt lat="49.94267" lon="2.14062">
        <ele>48.7</ele>
        <time>2022-09-14T14:33:36Z</time>
      </trkpt>
      <trkpt lat="49.94267" lon="2.14062">
        <ele>48.7</ele>
        <time>2022-09-14T14:33:37Z</time>
      </trkpt>
      <trkpt lat="49.94267" lon="2.14062">
        <ele>48.7</ele>
        <time>2022-09-14T14:33:38Z</time>
      </trkpt>
      <trkpt lat="49.94267" lon="2.14062">
        <ele>48.7</ele>
        <time>2022-09-14T14:33:39Z</time>
      </trkpt>
      <trkpt lat="49.94267" lon="2.14062">
        <ele>48.7</ele>
        <time>2022-09-14T14:33:40Z</time>
      </trkpt>
      <trkpt lat="49.94267" lon="2.14062">
        <ele>48.7</ele>
        <time>2022-09-14T14:33:41Z</time>
      </trkpt>
      <trkpt lat="49.94267" lon="2.14062">
        <ele>48.7</ele>
        <time>2022-09-14T14:33:42Z</time>
      </trkpt>
      <trkpt lat="49.94267" lon="2.14062">
        <ele>48.7</ele>
        <time>2022-09-14T14:33:43Z</time>
      </trkpt>
      <trkpt lat="49.94267" lon="2.14062">
        <ele>48.7</ele>
        <time>2022-09-14T14:33:44Z</time>
      </trkpt>
      <trkpt lat="49.94267" lon="2.14062">
        <ele>48.7</ele>
        <time>2022-09-14T14:33:45Z</time>
      </trkpt>
      <trkpt lat="49.94267" lon="2.14062">
        <ele>48.7</ele>
        <time>2022-09-14T14:33:46Z</time>
      </trkpt>
      <trkpt lat="49.94267" lon="2.14062">
        <ele>48.7</ele>
        <time>2022-09-14T14:33:47Z</time>
      </trkpt>
      <trkpt lat="49.94267" lon="2.14062">
        <ele>48.7</ele>
        <time>2022-09-14T14:33:48Z</time>
      </trkpt>
      <trkpt lat="49.94267" lon="2.14062">
        <ele>48.7</ele>
        <time>2022-09-14T14:33:49Z</time>
      </trkpt>
      <trkpt lat="49.94267" lon="2.14062">
        <ele>48.7</ele>
        <time>2022-09-14T14:33:50Z</time>
      </trkpt>
      <trkpt lat="49.94267" lon="2.14062">
        <ele>48.7</ele>
        <time>2022-09-14T14:33:51Z</time>
      </trkpt>
      <trkpt lat="49.94267" lon="2.14062">
        <ele>48.7</ele>
        <time>2022-09-14T14:33:52Z</time>
      </trkpt>
      <trkpt lat="49.94267" lon="2.14062">
        <ele>48.7</ele>
        <time>2022-09-14T14:33:53Z</time>
      </trkpt>
      <trkpt lat="49.94267" lon="2.14062">
        <ele>48.7</ele>
        <time>2022-09-14T14:33:54Z</time>
      </trkpt>
      <trkpt lat="49.94267" lon="2.14062">
        <ele>48.7</ele>
        <time>2022-09-14T14:33:55Z</time>
      </trkpt>
      <trkpt lat="49.94267" lon="2.14062">
        <ele>48.7</ele>
        <time>2022-09-14T14:33:56Z</time>
      </trkpt>
      <trkpt lat="49.94267" lon="2.14062">
        <ele>48.7</ele>
        <time>2022-09-14T14:33:57Z</time>
      </trkpt>
      <trkpt lat="49.94267" lon="2.14062">
        <ele>48.7</ele>
        <time>2022-09-14T14:33:58Z</time>
      </trkpt>
      <trkpt lat="49.94267" lon="2.14062">
        <ele>48.7</ele>
        <time>2022-09-14T14:33:59Z</time>
      </trkpt>
      <trkpt lat="49.94267" lon="2.14062">
        <ele>48.7</ele>
        <time>2022-09-14T14:34:00Z</time>
      </trkpt>
      <trkpt lat="49.94267" lon="2.14062">
        <ele>48.7</ele>
        <time>2022-09-14T14:34:01Z</time>
      </trkpt>
      <trkpt lat="49.94267" lon="2.14062">
        <ele>48.7</ele>
        <time>2022-09-14T14:34:02Z</time>
      </trkpt>
      <trkpt lat="49.94267" lon="2.14062">
        <ele>48.7</ele>
        <time>2022-09-14T14:34:03Z</time>
      </trkpt>
      <trkpt lat="49.94267" lon="2.14062">
        <ele>48.7</ele>
        <time>2022-09-14T14:34:04Z</time>
      </trkpt>
      <trkpt lat="49.94267" lon="2.14062">
        <ele>48.7</ele>
        <time>2022-09-14T14:34:05Z</time>
      </trkpt>
      <trkpt lat="49.94267" lon="2.14062">
        <ele>48.7</ele>
        <time>2022-09-14T14:34:06Z</time>
      </trkpt>
      <trkpt lat="49.94267" lon="2.14062">
        <ele>48.7</ele>
        <time>2022-09-14T14:34:07Z</time>
      </trkpt>
      <trkpt lat="49.94267" lon="2.14062">
        <ele>48.7</ele>
        <time>2022-09-14T14:34:08Z</time>
      </trkpt>
      <trkpt lat="49.94267" lon="2.14062">
        <ele>48.7</ele>
        <time>2022-09-14T14:34:09Z</time>
      </trkpt>
      <trkpt lat="49.94267" lon="2.14062">
        <ele>48.7</ele>
        <time>2022-09-14T14:34:10Z</time>
      </trkpt>
      <trkpt lat="49.94267" lon="2.14062">
        <ele>48.7</ele>
        <time>2022-09-14T14:34:11Z</time>
      </trkpt>
      <trkpt lat="49.94267" lon="2.14062">
        <ele>48.7</ele>
        <time>2022-09-14T14:34:12Z</time>
      </trkpt>
      <trkpt lat="49.94267" lon="2.14062">
        <ele>48.7</ele>
        <time>2022-09-14T14:34:13Z</time>
      </trkpt>
      <trkpt lat="49.94267" lon="2.14062">
        <ele>48.7</ele>
        <time>2022-09-14T14:34:14Z</time>
      </trkpt>
      <trkpt lat="49.94267" lon="2.14062">
        <ele>48.7</ele>
        <time>2022-09-14T14:34:15Z</time>
      </trkpt>
      <trkpt lat="49.94267" lon="2.14062">
        <ele>48.7</ele>
        <time>2022-09-14T14:34:16Z</time>
      </trkpt>
      <trkpt lat="49.94267" lon="2.14062">
        <ele>48.7</ele>
        <time>2022-09-14T14:34:17Z</time>
      </trkpt>
      <trkpt lat="49.94267" lon="2.14062">
        <ele>48.7</ele>
        <time>2022-09-14T14:34:18Z</time>
      </trkpt>
      <trkpt lat="49.94267" lon="2.14062">
        <ele>48.7</ele>
        <time>2022-09-14T14:34:19Z</time>
      </trkpt>
      <trkpt lat="49.94267" lon="2.14062">
        <ele>48.7</ele>
        <time>2022-09-14T14:34:20Z</time>
      </trkpt>
      <trkpt lat="49.94267" lon="2.14062">
        <ele>48.7</ele>
        <time>2022-09-14T14:34:21Z</time>
      </trkpt>
      <trkpt lat="49.94267" lon="2.14062">
        <ele>48.7</ele>
        <time>2022-09-14T14:34:22Z</time>
      </trkpt>
      <trkpt lat="49.94267" lon="2.14062">
        <ele>48.7</ele>
        <time>2022-09-14T14:34:23Z</time>
      </trkpt>
      <trkpt lat="49.94267" lon="2.14062">
        <ele>48.7</ele>
        <time>2022-09-14T14:34:24Z</time>
      </trkpt>
      <trkpt lat="49.94267" lon="2.14062">
        <ele>48.7</ele>
        <time>2022-09-14T14:34:25Z</time>
      </trkpt>
      <trkpt lat="49.94267" lon="2.14062">
        <ele>48.7</ele>
        <time>2022-09-14T14:34:26Z</time>
      </trkpt>
      <trkpt lat="49.94267" lon="2.14062">
        <ele>48.7</ele>
        <time>2022-09-14T14:34:27Z</time>
      </trkpt>
      <trkpt lat="49.94267" lon="2.14062">
        <ele>48.7</ele>
        <time>2022-09-14T14:34:28Z</time>
      </trkpt>
      <trkpt lat="49.94267" lon="2.14062">
        <ele>48.7</ele>
        <time>2022-09-14T14:34:29Z</time>
      </trkpt>
      <trkpt lat="49.94267" lon="2.14062">
        <ele>48.7</ele>
        <time>2022-09-14T14:34:30Z</time>
      </trkpt>
      <trkpt lat="49.94267" lon="2.14062">
        <ele>48.7</ele>
        <time>2022-09-14T14:34:31Z</time>
      </trkpt>
      <trkpt lat="49.94267" lon="2.14062">
        <ele>48.7</ele>
        <time>2022-09-14T14:34:32Z</time>
      </trkpt>
      <trkpt lat="49.94267" lon="2.14062">
        <ele>48.7</ele>
        <time>2022-09-14T14:34:33Z</time>
      </trkpt>
      <trkpt lat="49.94267" lon="2.14062">
        <ele>48.7</ele>
        <time>2022-09-14T14:34:34Z</time>
      </trkpt>
      <trkpt lat="49.94267" lon="2.14062">
        <ele>48.7</ele>
        <time>2022-09-14T14:34:35Z</time>
      </trkpt>
      <trkpt lat="49.94267" lon="2.14062">
        <ele>48.7</ele>
        <time>2022-09-14T14:34:36Z</time>
      </trkpt>
      <trkpt lat="49.94267" lon="2.14062">
        <ele>48.7</ele>
        <time>2022-09-14T14:34:37Z</time>
      </trkpt>
      <trkpt lat="49.94267" lon="2.14062">
        <ele>48.7</ele>
        <time>2022-09-14T14:34:38Z</time>
      </trkpt>
      <trkpt lat="49.94267" lon="2.14062">
        <ele>48.7</ele>
        <time>2022-09-14T14:34:39Z</time>
      </trkpt>
      <trkpt lat="49.94267" lon="2.14062">
        <ele>48.7</ele>
        <time>2022-09-14T14:34:40Z</time>
      </trkpt>
      <trkpt lat="49.94267" lon="2.14062">
        <ele>48.7</ele>
        <time>2022-09-14T14:34:41Z</time>
      </trkpt>
      <trkpt lat="49.94267" lon="2.14062">
        <ele>48.7</ele>
        <time>2022-09-14T14:34:42Z</time>
      </trkpt>
      <trkpt lat="49.94267" lon="2.14062">
        <ele>48.7</ele>
        <time>2022-09-14T14:34:43Z</time>
      </trkpt>
      <trkpt lat="49.94267" lon="2.14062">
        <ele>48.7</ele>
        <time>2022-09-14T14:34:44Z</time>
      </trkpt>
      <trkpt lat="49.94267" lon="2.14062">
        <ele>48.7</ele>
        <time>2022-09-14T14:34:45Z</time>
      </trkpt>
      <trkpt lat="49.94267" lon="2.14062">
        <ele>48.7</ele>
        <time>2022-09-14T14:34:46Z</time>
      </trkpt>
      <trkpt lat="49.94267" lon="2.14062">
        <ele>48.7</ele>
        <time>2022-09-14T14:34:47Z</time>
      </trkpt>
      <trkpt lat="49.94267" lon="2.14062">
        <ele>48.7</ele>
        <time>2022-09-14T14:34:48Z</time>
      </trkpt>
      <trkpt lat="49.94267" lon="2.14062">
        <ele>48.7</ele>
        <time>2022-09-14T14:34:49Z</time>
      </trkpt>
      <trkpt lat="49.94267" lon="2.14062">
        <ele>48.7</ele>
        <time>2022-09-14T14:34:50Z</time>
      </trkpt>
      <trkpt lat="49.94267" lon="2.14062">
        <ele>48.7</ele>
        <time>2022-09-14T14:34:51Z</time>
      </trkpt>
      <trkpt lat="49.94267" lon="2.14062">
        <ele>48.7</ele>
        <time>2022-09-14T14:34:52Z</time>
      </trkpt>
      <trkpt lat="49.94267" lon="2.14062">
        <ele>48.7</ele>
        <time>2022-09-14T14:34:53Z</time>
      </trkpt>
      <trkpt lat="49.94267" lon="2.14062">
        <ele>48.7</ele>
        <time>2022-09-14T14:34:54Z</time>
      </trkpt>
      <trkpt lat="49.94267" lon="2.14062">
        <ele>48.7</ele>
        <time>2022-09-14T14:34:55Z</time>
      </trkpt>
      <trkpt lat="49.94267" lon="2.14062">
        <ele>48.7</ele>
        <time>2022-09-14T14:34:56Z</time>
      </trkpt>
      <trkpt lat="49.94267" lon="2.14062">
        <ele>48.7</ele>
        <time>2022-09-14T14:34:57Z</time>
      </trkpt>
      <trkpt lat="49.94267" lon="2.14062">
        <ele>48.7</ele>
        <time>2022-09-14T14:34:58Z</time>
      </trkpt>
      <trkpt lat="49.94267" lon="2.14062">
        <ele>48.7</ele>
        <time>2022-09-14T14:34:59Z</time>
      </trkpt>
      <trkpt lat="49.94267" lon="2.14062">
        <ele>48.7</ele>
        <time>2022-09-14T14:35:00Z</time>
      </trkpt>
      <trkpt lat="49.94267" lon="2.14062">
        <ele>48.7</ele>
        <time>2022-09-14T14:35:01Z</time>
      </trkpt>
      <trkpt lat="49.94267" lon="2.14062">
        <ele>48.7</ele>
        <time>2022-09-14T14:35:02Z</time>
      </trkpt>
      <trkpt lat="49.94267" lon="2.14062">
        <ele>48.7</ele>
        <time>2022-09-14T14:35:03Z</time>
      </trkpt>
      <trkpt lat="49.94267" lon="2.14062">
        <ele>48.7</ele>
        <time>2022-09-14T14:35:04Z</time>
      </trkpt>
      <trkpt lat="49.94267" lon="2.14062">
        <ele>48.7</ele>
        <time>2022-09-14T14:35:05Z</time>
      </trkpt>
      <trkpt lat="49.94267" lon="2.14062">
        <ele>48.7</ele>
        <time>2022-09-14T14:35:06Z</time>
      </trkpt>
      <trkpt lat="49.94267" lon="2.14062">
        <ele>48.7</ele>
        <time>2022-09-14T14:35:07Z</time>
      </trkpt>
      <trkpt lat="49.94267" lon="2.14062">
        <ele>48.7</ele>
        <time>2022-09-14T14:35:08Z</time>
      </trkpt>
      <trkpt lat="49.94267" lon="2.14062">
        <ele>48.7</ele>
        <time>2022-09-14T14:35:09Z</time>
      </trkpt>
      <trkpt lat="49.94267" lon="2.14062">
        <ele>48.7</ele>
        <time>2022-09-14T14:35:10Z</time>
      </trkpt>
      <trkpt lat="49.94267" lon="2.14062">
        <ele>48.7</ele>
        <time>2022-09-14T14:35:11Z</time>
      </trkpt>
      <trkpt lat="49.94267" lon="2.14062">
        <ele>48.7</ele>
        <time>2022-09-14T14:35:12Z</time>
      </trkpt>
      <trkpt lat="49.94267" lon="2.14062">
        <ele>48.7</ele>
        <time>2022-09-14T14:35:13Z</time>
      </trkpt>
      <trkpt lat="49.94267" lon="2.14062">
        <ele>48.7</ele>
        <time>2022-09-14T14:35:14Z</time>
      </trkpt>
      <trkpt lat="49.94267" lon="2.14062">
        <ele>48.7</ele>
        <time>2022-09-14T14:35:15Z</time>
      </trkpt>
      <trkpt lat="49.94267" lon="2.14062">
        <ele>48.7</ele>
        <time>2022-09-14T14:35:16Z</time>
      </trkpt>
      <trkpt lat="49.94267" lon="2.14062">
        <ele>48.7</ele>
        <time>2022-09-14T14:35:17Z</time>
      </trkpt>
      <trkpt lat="49.94267" lon="2.14062">
        <ele>48.7</ele>
        <time>2022-09-14T14:35:18Z</time>
      </trkpt>
      <trkpt lat="49.94267" lon="2.14062">
        <ele>48.7</ele>
        <time>2022-09-14T14:35:19Z</time>
      </trkpt>
      <trkpt lat="49.94267" lon="2.14062">
        <ele>48.7</ele>
        <time>2022-09-14T14:35:20Z</time>
      </trkpt>
      <trkpt lat="49.94267" lon="2.14062">
        <ele>48.7</ele>
        <time>2022-09-14T14:35:21Z</time>
      </trkpt>
      <trkpt lat="49.94267" lon="2.14062">
        <ele>48.7</ele>
        <time>2022-09-14T14:35:22Z</time>
      </trkpt>
      <trkpt lat="49.94267" lon="2.14062">
        <ele>48.7</ele>
        <time>2022-09-14T14:35:23Z</time>
      </trkpt>
      <trkpt lat="49.94267" lon="2.14062">
        <ele>48.7</ele>
        <time>2022-09-14T14:35:24Z</time>
      </trkpt>
      <trkpt lat="49.94267" lon="2.14062">
        <ele>48.7</ele>
        <time>2022-09-14T14:35:25Z</time>
      </trkpt>
      <trkpt lat="49.94267" lon="2.14062">
        <ele>48.7</ele>
        <time>2022-09-14T14:35:26Z</time>
      </trkpt>
      <trkpt lat="49.94267" lon="2.14062">
        <ele>48.7</ele>
        <time>2022-09-14T14:35:27Z</time>
      </trkpt>
      <trkpt lat="49.94267" lon="2.14062">
        <ele>48.7</ele>
        <time>2022-09-14T14:35:28Z</time>
      </trkpt>
      <trkpt lat="49.94267" lon="2.14062">
        <ele>48.7</ele>
        <time>2022-09-14T14:35:29Z</time>
      </trkpt>
      <trkpt lat="49.94267" lon="2.14062">
        <ele>48.7</ele>
        <time>2022-09-14T14:35:30Z</time>
      </trkpt>
      <trkpt lat="49.94267" lon="2.14062">
        <ele>48.7</ele>
        <time>2022-09-14T14:35:31Z</time>
      </trkpt>
      <trkpt lat="49.94267" lon="2.14062">
        <ele>48.7</ele>
        <time>2022-09-14T14:35:32Z</time>
      </trkpt>
      <trkpt lat="49.94267" lon="2.14062">
        <ele>48.7</ele>
        <time>2022-09-14T14:35:33Z</time>
      </trkpt>
      <trkpt lat="49.94267" lon="2.14062">
        <ele>48.7</ele>
        <time>2022-09-14T14:35:34Z</time>
      </trkpt>
      <trkpt lat="49.94267" lon="2.14062">
        <ele>48.7</ele>
        <time>2022-09-14T14:35:35Z</time>
      </trkpt>
      <trkpt lat="49.94267" lon="2.14062">
        <ele>48.7</ele>
        <time>2022-09-14T14:35:36Z</time>
      </trkpt>
      <trkpt lat="49.94267" lon="2.14062">
        <ele>48.7</ele>
        <time>2022-09-14T14:35:37Z</time>
      </trkpt>
      <trkpt lat="49.94267" lon="2.14062">
        <ele>48.7</ele>
        <time>2022-09-14T14:35:38Z</time>
      </trkpt>
      <trkpt lat="49.94267" lon="2.14062">
        <ele>48.7</ele>
        <time>2022-09-14T14:35:39Z</time>
      </trkpt>
      <trkpt lat="49.94267" lon="2.14062">
        <ele>48.7</ele>
        <time>2022-09-14T14:35:40Z</time>
      </trkpt>
      <trkpt lat="49.94267" lon="2.14062">
        <ele>48.7</ele>
        <time>2022-09-14T14:35:41Z</time>
      </trkpt>
      <trkpt lat="49.94267" lon="2.14062">
        <ele>48.7</ele>
        <time>2022-09-14T14:35:42Z</time>
      </trkpt>
      <trkpt lat="49.94267" lon="2.14062">
        <ele>48.7</ele>
        <time>2022-09-14T14:35:43Z</time>
      </trkpt>
      <trkpt lat="49.94267" lon="2.14062">
        <ele>48.7</ele>
        <time>2022-09-14T14:35:44Z</time>
      </trkpt>
      <trkpt lat="49.94267" lon="2.14062">
        <ele>48.7</ele>
        <time>2022-09-14T14:35:45Z</time>
      </trkpt>
      <trkpt lat="49.94267" lon="2.14062">
        <ele>48.7</ele>
        <time>2022-09-14T14:35:46Z</time>
      </trkpt>
      <trkpt lat="49.94267" lon="2.14062">
        <ele>48.7</ele>
        <time>2022-09-14T14:35:47Z</time>
      </trkpt>
      <trkpt lat="49.94267" lon="2.14062">
        <ele>48.7</ele>
        <time>2022-09-14T14:35:48Z</time>
      </trkpt>
      <trkpt lat="49.94267" lon="2.14062">
        <ele>48.7</ele>
        <time>2022-09-14T14:35:49Z</time>
      </trkpt>
      <trkpt lat="49.94267" lon="2.14062">
        <ele>48.7</ele>
        <time>2022-09-14T14:35:50Z</time>
      </trkpt>
      <trkpt lat="49.94267" lon="2.14062">
        <ele>48.7</ele>
        <time>2022-09-14T14:35:51Z</time>
      </trkpt>
      <trkpt lat="49.94267" lon="2.14062">
        <ele>48.7</ele>
        <time>2022-09-14T14:35:52Z</time>
      </trkpt>
      <trkpt lat="49.94267" lon="2.14062">
        <ele>48.7</ele>
        <time>2022-09-14T14:35:53Z</time>
      </trkpt>
      <trkpt lat="49.94267" lon="2.14062">
        <ele>48.7</ele>
        <time>2022-09-14T14:35:54Z</time>
      </trkpt>
      <trkpt lat="49.94267" lon="2.14062">
        <ele>48.7</ele>
        <time>2022-09-14T14:35:55Z</time>
      </trkpt>
      <trkpt lat="49.94267" lon="2.14062">
        <ele>48.7</ele>
        <time>2022-09-14T14:35:56Z</time>
      </trkpt>
      <trkpt lat="49.94267" lon="2.14062">
        <ele>48.7</ele>
        <time>2022-09-14T14:35:57Z</time>
      </trkpt>
      <trkpt lat="49.94267" lon="2.14062">
        <ele>48.7</ele>
        <time>2022-09-14T14:35:58Z</time>
      </trkpt>
      <trkpt lat="49.94267" lon="2.14062">
        <ele>48.7</ele>
        <time>2022-09-14T14:35:59Z</time>
      </trkpt>
      <trkpt lat="49.94267" lon="2.14062">
        <ele>48.7</ele>
        <time>2022-09-14T14:36:00Z</time>
      </trkpt>
      <trkpt lat="49.94267" lon="2.14062">
        <ele>48.7</ele>
        <time>2022-09-14T14:36:01Z</time>
      </trkpt>
      <trkpt lat="49.94267" lon="2.14062">
        <ele>48.7</ele>
        <time>2022-09-14T14:36:02Z</time>
      </trkpt>
      <trkpt lat="49.94267" lon="2.14062">
        <ele>48.7</ele>
        <time>2022-09-14T14:36:03Z</time>
      </trkpt>
      <trkpt lat="49.94267" lon="2.14062">
        <ele>48.7</ele>
        <time>2022-09-14T14:36:04Z</time>
      </trkpt>
      <trkpt lat="49.94267" lon="2.14062">
        <ele>48.7</ele>
        <time>2022-09-14T14:36:05Z</time>
      </trkpt>
      <trkpt lat="49.94267" lon="2.14062">
        <ele>48.7</ele>
        <time>2022-09-14T14:36:06Z</time>
      </trkpt>
      <trkpt lat="49.94267" lon="2.14062">
        <ele>48.7</ele>
        <time>2022-09-14T14:36:07Z</time>
      </trkpt>
      <trkpt lat="49.94267" lon="2.14062">
        <ele>48.7</ele>
        <time>2022-09-14T14:36:08Z</time>
      </trkpt>
      <trkpt lat="49.94267" lon="2.14062">
        <ele>48.7</ele>
        <time>2022-09-14T14:36:09Z</time>
      </trkpt>
      <trkpt lat="49.94267" lon="2.14062">
        <ele>48.7</ele>
        <time>2022-09-14T14:36:10Z</time>
      </trkpt>
      <trkpt lat="49.94267" lon="2.14062">
        <ele>48.7</ele>
        <time>2022-09-14T14:36:11Z</time>
      </trkpt>
      <trkpt lat="49.94267" lon="2.14062">
        <ele>48.7</ele>
        <time>2022-09-14T14:36:12Z</time>
      </trkpt>
      <trkpt lat="49.94267" lon="2.14062">
        <ele>48.7</ele>
        <time>2022-09-14T14:36:13Z</time>
      </trkpt>
      <trkpt lat="49.94267" lon="2.14062">
        <ele>48.7</ele>
        <time>2022-09-14T14:36:14Z</time>
      </trkpt>
      <trkpt lat="49.94267" lon="2.14062">
        <ele>48.7</ele>
        <time>2022-09-14T14:36:15Z</time>
      </trkpt>
      <trkpt lat="49.94267" lon="2.14062">
        <ele>48.7</ele>
        <time>2022-09-14T14:36:16Z</time>
      </trkpt>
      <trkpt lat="49.94267" lon="2.14062">
        <ele>48.7</ele>
        <time>2022-09-14T14:36:17Z</time>
      </trkpt>
      <trkpt lat="49.94267" lon="2.14062">
        <ele>48.7</ele>
        <time>2022-09-14T14:36:18Z</time>
      </trkpt>
      <trkpt lat="49.94267" lon="2.14062">
        <ele>48.7</ele>
        <time>2022-09-14T14:36:19Z</time>
      </trkpt>
      <trkpt lat="49.94267" lon="2.14062">
        <ele>48.7</ele>
        <time>2022-09-14T14:36:20Z</time>
      </trkpt>
      <trkpt lat="49.94267" lon="2.14062">
        <ele>48.7</ele>
        <time>2022-09-14T14:36:21Z</time>
      </trkpt>
      <trkpt lat="49.94267" lon="2.14062">
        <ele>48.7</ele>
        <time>2022-09-14T14:36:22Z</time>
      </trkpt>
      <trkpt lat="49.94267" lon="2.14062">
        <ele>48.7</ele>
        <time>2022-09-14T14:36:23Z</time>
      </trkpt>
      <trkpt lat="49.94267" lon="2.14062">
        <ele>48.7</ele>
        <time>2022-09-14T14:36:24Z</time>
      </trkpt>
      <trkpt lat="49.94267" lon="2.14062">
        <ele>48.7</ele>
        <time>2022-09-14T14:36:25Z</time>
      </trkpt>
      <trkpt lat="49.94267" lon="2.14062">
        <ele>48.7</ele>
        <time>2022-09-14T14:36:26Z</time>
      </trkpt>
      <trkpt lat="49.94267" lon="2.14062">
        <ele>48.7</ele>
        <time>2022-09-14T14:36:27Z</time>
      </trkpt>
      <trkpt lat="49.94267" lon="2.14062">
        <ele>48.7</ele>
        <time>2022-09-14T14:36:28Z</time>
      </trkpt>
      <trkpt lat="49.94267" lon="2.14062">
        <ele>48.7</ele>
        <time>2022-09-14T14:36:29Z</time>
      </trkpt>
      <trkpt lat="49.94267" lon="2.14062">
        <ele>48.7</ele>
        <time>2022-09-14T14:36:30Z</time>
      </trkpt>
      <trkpt lat="49.94267" lon="2.14062">
        <ele>48.7</ele>
        <time>2022-09-14T14:36:31Z</time>
      </trkpt>
      <trkpt lat="49.94267" lon="2.14062">
        <ele>48.7</ele>
        <time>2022-09-14T14:36:32Z</time>
      </trkpt>
      <trkpt lat="49.94267" lon="2.14062">
        <ele>48.7</ele>
        <time>2022-09-14T14:36:33Z</time>
      </trkpt>
      <trkpt lat="49.94267" lon="2.14062">
        <ele>48.7</ele>
        <time>2022-09-14T14:36:34Z</time>
      </trkpt>
      <trkpt lat="49.94267" lon="2.14062">
        <ele>48.7</ele>
        <time>2022-09-14T14:36:35Z</time>
      </trkpt>
      <trkpt lat="49.94267" lon="2.14062">
        <ele>48.7</ele>
        <time>2022-09-14T14:36:36Z</time>
      </trkpt>
      <trkpt lat="49.94267" lon="2.14062">
        <ele>48.7</ele>
        <time>2022-09-14T14:36:37Z</time>
      </trkpt>
      <trkpt lat="49.94267" lon="2.14062">
        <ele>48.7</ele>
        <time>2022-09-14T14:36:38Z</time>
      </trkpt>
      <trkpt lat="49.94267" lon="2.14062">
        <ele>48.7</ele>
        <time>2022-09-14T14:36:39Z</time>
      </trkpt>
      <trkpt lat="49.94267" lon="2.14062">
        <ele>48.7</ele>
        <time>2022-09-14T14:36:40Z</time>
      </trkpt>
      <trkpt lat="49.94267" lon="2.14062">
        <ele>48.7</ele>
        <time>2022-09-14T14:36:41Z</time>
      </trkpt>
      <trkpt lat="49.94267" lon="2.14062">
        <ele>48.7</ele>
        <time>2022-09-14T14:36:42Z</time>
      </trkpt>
      <trkpt lat="49.94267" lon="2.14062">
        <ele>48.7</ele>
        <time>2022-09-14T14:36:43Z</time>
      </trkpt>
      <trkpt lat="49.94267" lon="2.14062">
        <ele>48.7</ele>
        <time>2022-09-14T14:36:44Z</time>
      </trkpt>
      <trkpt lat="49.94267" lon="2.14062">
        <ele>48.7</ele>
        <time>2022-09-14T14:36:45Z</time>
      </trkpt>
      <trkpt lat="49.94267" lon="2.14062">
        <ele>48.7</ele>
        <time>2022-09-14T14:36:46Z</time>
      </trkpt>
      <trkpt lat="49.94267" lon="2.14062">
        <ele>48.7</ele>
        <time>2022-09-14T14:36:47Z</time>
      </trkpt>
      <trkpt lat="49.94267" lon="2.14062">
        <ele>48.7</ele>
        <time>2022-09-14T14:36:48Z</time>
      </trkpt>
      <trkpt lat="49.94267" lon="2.14062">
        <ele>48.7</ele>
        <time>2022-09-14T14:36:49Z</time>
      </trkpt>
      <trkpt lat="49.94267" lon="2.14062">
        <ele>48.7</ele>
        <time>2022-09-14T14:36:50Z</time>
      </trkpt>
      <trkpt lat="49.94267" lon="2.14062">
        <ele>48.7</ele>
        <time>2022-09-14T14:36:51Z</time>
      </trkpt>
      <trkpt lat="49.94267" lon="2.14062">
        <ele>48.7</ele>
        <time>2022-09-14T14:36:52Z</time>
      </trkpt>
      <trkpt lat="49.94267" lon="2.14062">
        <ele>48.7</ele>
        <time>2022-09-14T14:36:53Z</time>
      </trkpt>
      <trkpt lat="49.94267" lon="2.14062">
        <ele>48.7</ele>
        <time>2022-09-14T14:36:54Z</time>
      </trkpt>
      <trkpt lat="49.94267" lon="2.14062">
        <ele>48.7</ele>
        <time>2022-09-14T14:36:55Z</time>
      </trkpt>
      <trkpt lat="49.94267" lon="2.14062">
        <ele>48.7</ele>
        <time>2022-09-14T14:36:56Z</time>
      </trkpt>
      <trkpt lat="49.94267" lon="2.14062">
        <ele>48.7</ele>
        <time>2022-09-14T14:36:57Z</time>
      </trkpt>
      <trkpt lat="49.94267" lon="2.14062">
        <ele>48.7</ele>
        <time>2022-09-14T14:36:58Z</time>
      </trkpt>
      <trkpt lat="49.94267" lon="2.14062">
        <ele>48.7</ele>
        <time>2022-09-14T14:36:59Z</time>
      </trkpt>
      <trkpt lat="49.94267" lon="2.14062">
        <ele>48.7</ele>
        <time>2022-09-14T14:37:00Z</time>
      </trkpt>
      <trkpt lat="49.94267" lon="2.14062">
        <ele>48.7</ele>
        <time>2022-09-14T14:37:01Z</time>
      </trkpt>
      <trkpt lat="49.94267" lon="2.14062">
        <ele>48.7</ele>
        <time>2022-09-14T14:37:02Z</time>
      </trkpt>
      <trkpt lat="49.94267" lon="2.14062">
        <ele>48.7</ele>
        <time>2022-09-14T14:37:03Z</time>
      </trkpt>
      <trkpt lat="49.94267" lon="2.14062">
        <ele>48.7</ele>
        <time>2022-09-14T14:37:04Z</time>
      </trkpt>
      <trkpt lat="49.94267" lon="2.14062">
        <ele>48.7</ele>
        <time>2022-09-14T14:37:05Z</time>
      </trkpt>
      <trkpt lat="49.94267" lon="2.14062">
        <ele>48.7</ele>
        <time>2022-09-14T14:37:06Z</time>
      </trkpt>
      <trkpt lat="49.94267" lon="2.14062">
        <ele>48.7</ele>
        <time>2022-09-14T14:37:07Z</time>
      </trkpt>
      <trkpt lat="49.94267" lon="2.14062">
        <ele>48.7</ele>
        <time>2022-09-14T14:37:08Z</time>
      </trkpt>
      <trkpt lat="49.94267" lon="2.14062">
        <ele>48.7</ele>
        <time>2022-09-14T14:37:09Z</time>
      </trkpt>
      <trkpt lat="49.94267" lon="2.14062">
        <ele>48.7</ele>
        <time>2022-09-14T14:37:10Z</time>
      </trkpt>
      <trkpt lat="49.94265" lon="2.14061">
        <ele>48.7</ele>
        <time>2022-09-14T14:37:11Z</time>
      </trkpt>
      <trkpt lat="49.94263" lon="2.1406">
        <ele>48.6</ele>
        <time>2022-09-14T14:37:12Z</time>
      </trkpt>
      <trkpt lat="49.94263" lon="2.1406">
        <ele>48.6</ele>
        <time>2022-09-14T14:37:13Z</time>
      </trkpt>
      <trkpt lat="49.94265" lon="2.14061">
        <ele>48.6</ele>
        <time>2022-09-14T14:37:14Z</time>
      </trkpt>
      <trkpt lat="49.94264" lon="2.14062">
        <ele>48.6</ele>
        <time>2022-09-14T14:37:16Z</time>
      </trkpt>
      <trkpt lat="49.94264" lon="2.14063">
        <ele>48.6</ele>
        <time>2022-09-14T14:37:17Z</time>
      </trkpt>
      <trkpt lat="49.94264" lon="2.14063">
        <ele>48.6</ele>
        <time>2022-09-14T14:37:18Z</time>
      </trkpt>
      <trkpt lat="49.94265" lon="2.14064">
        <ele>48.5</ele>
        <time>2022-09-14T14:37:19Z</time>
      </trkpt>
      <trkpt lat="49.94265" lon="2.14064">
        <ele>48.5</ele>
        <time>2022-09-14T14:37:20Z</time>
      </trkpt>
      <trkpt lat="49.94266" lon="2.14064">
        <ele>48.5</ele>
        <time>2022-09-14T14:37:21Z</time>
      </trkpt>
      <trkpt lat="49.94266" lon="2.14064">
        <ele>48.5</ele>
        <time>2022-09-14T14:37:22Z</time>
      </trkpt>
      <trkpt lat="49.94266" lon="2.14064">
        <ele>48.5</ele>
        <time>2022-09-14T14:37:23Z</time>
      </trkpt>
      <trkpt lat="49.94266" lon="2.14064">
        <ele>48.5</ele>
        <time>2022-09-14T14:37:24Z</time>
      </trkpt>
      <trkpt lat="49.94266" lon="2.14064">
        <ele>48.5</ele>
        <time>2022-09-14T14:37:25Z</time>
      </trkpt>
      <trkpt lat="49.94266" lon="2.14064">
        <ele>48.5</ele>
        <time>2022-09-14T14:37:26Z</time>
      </trkpt>
      <trkpt lat="49.94266" lon="2.14064">
        <ele>48.5</ele>
        <time>2022-09-14T14:37:27Z</time>
      </trkpt>
      <trkpt lat="49.94267" lon="2.14064">
        <ele>48.5</ele>
        <time>2022-09-14T14:37:28Z</time>
      </trkpt>
      <trkpt lat="49.94267" lon="2.14064">
        <ele>48.5</ele>
        <time>2022-09-14T14:37:29Z</time>
      </trkpt>
      <trkpt lat="49.94267" lon="2.14064">
        <ele>48.5</ele>
        <time>2022-09-14T14:37:30Z</time>
      </trkpt>
      <trkpt lat="49.94267" lon="2.14064">
        <ele>48.5</ele>
        <time>2022-09-14T14:37:31Z</time>
      </trkpt>
      <trkpt lat="49.94267" lon="2.14064">
        <ele>48.5</ele>
        <time>2022-09-14T14:37:32Z</time>
      </trkpt>
      <trkpt lat="49.94267" lon="2.14064">
        <ele>48.5</ele>
        <time>2022-09-14T14:37:33Z</time>
      </trkpt>
      <trkpt lat="49.94267" lon="2.14064">
        <ele>48.5</ele>
        <time>2022-09-14T14:37:34Z</time>
      </trkpt>
      <trkpt lat="49.94267" lon="2.14064">
        <ele>48.5</ele>
        <time>2022-09-14T14:37:35Z</time>
      </trkpt>
      <trkpt lat="49.94266" lon="2.14064">
        <ele>48.5</ele>
        <time>2022-09-14T14:37:36Z</time>
      </trkpt>
      <trkpt lat="49.94266" lon="2.14064">
        <ele>48.5</ele>
        <time>2022-09-14T14:37:37Z</time>
      </trkpt>
      <trkpt lat="49.94266" lon="2.14064">
        <ele>48.5</ele>
        <time>2022-09-14T14:37:38Z</time>
      </trkpt>
      <trkpt lat="49.94266" lon="2.14064">
        <ele>48.5</ele>
        <time>2022-09-14T14:37:39Z</time>
      </trkpt>
      <trkpt lat="49.94266" lon="2.14064">
        <ele>48.5</ele>
        <time>2022-09-14T14:37:40Z</time>
      </trkpt>
      <trkpt lat="49.94266" lon="2.14064">
        <ele>48.5</ele>
        <time>2022-09-14T14:37:41Z</time>
      </trkpt>
      <trkpt lat="49.94266" lon="2.14064">
        <ele>48.5</ele>
        <time>2022-09-14T14:37:42Z</time>
      </trkpt>
      <trkpt lat="49.94266" lon="2.14064">
        <ele>48.5</ele>
        <time>2022-09-14T14:37:43Z</time>
      </trkpt>
      <trkpt lat="49.94266" lon="2.14064">
        <ele>48.5</ele>
        <time>2022-09-14T14:37:44Z</time>
      </trkpt>
      <trkpt lat="49.94266" lon="2.14064">
        <ele>48.5</ele>
        <time>2022-09-14T14:37:45Z</time>
      </trkpt>
      <trkpt lat="49.94266" lon="2.14064">
        <ele>48.5</ele>
        <time>2022-09-14T14:37:46Z</time>
      </trkpt>
      <trkpt lat="49.94266" lon="2.14064">
        <ele>48.5</ele>
        <time>2022-09-14T14:37:47Z</time>
      </trkpt>
      <trkpt lat="49.94266" lon="2.14064">
        <ele>48.5</ele>
        <time>2022-09-14T14:37:48Z</time>
      </trkpt>
      <trkpt lat="49.94266" lon="2.14064">
        <ele>48.5</ele>
        <time>2022-09-14T14:37:49Z</time>
      </trkpt>
      <trkpt lat="49.94266" lon="2.14064">
        <ele>48.5</ele>
        <time>2022-09-14T14:37:50Z</time>
      </trkpt>
      <trkpt lat="49.94266" lon="2.14064">
        <ele>48.5</ele>
        <time>2022-09-14T14:37:51Z</time>
      </trkpt>
      <trkpt lat="49.94266" lon="2.14064">
        <ele>48.5</ele>
        <time>2022-09-14T14:37:52Z</time>
      </trkpt>
      <trkpt lat="49.94266" lon="2.14064">
        <ele>48.5</ele>
        <time>2022-09-14T14:37:53Z</time>
      </trkpt>
      <trkpt lat="49.94266" lon="2.14064">
        <ele>48.5</ele>
        <time>2022-09-14T14:37:54Z</time>
      </trkpt>
      <trkpt lat="49.94266" lon="2.14064">
        <ele>48.5</ele>
        <time>2022-09-14T14:37:55Z</time>
      </trkpt>
      <trkpt lat="49.94266" lon="2.14064">
        <ele>48.5</ele>
        <time>2022-09-14T14:37:56Z</time>
      </trkpt>
      <trkpt lat="49.94266" lon="2.14064">
        <ele>48.5</ele>
        <time>2022-09-14T14:37:57Z</time>
      </trkpt>
      <trkpt lat="49.94266" lon="2.14064">
        <ele>48.5</ele>
        <time>2022-09-14T14:37:58Z</time>
      </trkpt>
      <trkpt lat="49.94266" lon="2.14064">
        <ele>48.5</ele>
        <time>2022-09-14T14:37:59Z</time>
      </trkpt>
      <trkpt lat="49.94266" lon="2.14064">
        <ele>48.5</ele>
        <time>2022-09-14T14:38:00Z</time>
      </trkpt>
      <trkpt lat="49.94266" lon="2.14064">
        <ele>48.5</ele>
        <time>2022-09-14T14:38:01Z</time>
      </trkpt>
      <trkpt lat="49.94266" lon="2.14064">
        <ele>48.5</ele>
        <time>2022-09-14T14:38:02Z</time>
      </trkpt>
      <trkpt lat="49.94266" lon="2.14064">
        <ele>48.5</ele>
        <time>2022-09-14T14:38:03Z</time>
      </trkpt>
      <trkpt lat="49.94266" lon="2.14064">
        <ele>48.5</ele>
        <time>2022-09-14T14:38:04Z</time>
      </trkpt>
      <trkpt lat="49.94266" lon="2.14064">
        <ele>48.5</ele>
        <time>2022-09-14T14:38:05Z</time>
      </trkpt>
      <trkpt lat="49.94266" lon="2.14064">
        <ele>48.5</ele>
        <time>2022-09-14T14:38:06Z</time>
      </trkpt>
      <trkpt lat="49.94266" lon="2.14064">
        <ele>48.5</ele>
        <time>2022-09-14T14:38:07Z</time>
      </trkpt>
      <trkpt lat="49.94266" lon="2.14064">
        <ele>48.5</ele>
        <time>2022-09-14T14:38:08Z</time>
      </trkpt>
      <trkpt lat="49.94266" lon="2.14064">
        <ele>48.5</ele>
        <time>2022-09-14T14:38:09Z</time>
      </trkpt>
      <trkpt lat="49.94266" lon="2.14064">
        <ele>48.5</ele>
        <time>2022-09-14T14:38:10Z</time>
      </trkpt>
      <trkpt lat="49.94266" lon="2.14064">
        <ele>48.5</ele>
        <time>2022-09-14T14:38:11Z</time>
      </trkpt>
      <trkpt lat="49.94266" lon="2.14064">
        <ele>48.5</ele>
        <time>2022-09-14T14:38:12Z</time>
      </trkpt>
      <trkpt lat="49.94266" lon="2.14064">
        <ele>48.5</ele>
        <time>2022-09-14T14:38:13Z</time>
      </trkpt>
      <trkpt lat="49.94266" lon="2.14064">
        <ele>48.5</ele>
        <time>2022-09-14T14:38:14Z</time>
      </trkpt>
      <trkpt lat="49.94266" lon="2.14064">
        <ele>48.5</ele>
        <time>2022-09-14T14:38:15Z</time>
      </trkpt>
      <trkpt lat="49.94266" lon="2.14064">
        <ele>48.5</ele>
        <time>2022-09-14T14:38:16Z</time>
      </trkpt>
      <trkpt lat="49.94266" lon="2.14064">
        <ele>48.5</ele>
        <time>2022-09-14T14:38:17Z</time>
      </trkpt>
      <trkpt lat="49.94266" lon="2.14064">
        <ele>48.5</ele>
        <time>2022-09-14T14:38:18Z</time>
      </trkpt>
      <trkpt lat="49.94266" lon="2.14064">
        <ele>48.5</ele>
        <time>2022-09-14T14:38:19Z</time>
      </trkpt>
      <trkpt lat="49.94266" lon="2.14064">
        <ele>48.5</ele>
        <time>2022-09-14T14:38:20Z</time>
      </trkpt>
      <trkpt lat="49.94266" lon="2.14064">
        <ele>48.5</ele>
        <time>2022-09-14T14:38:21Z</time>
      </trkpt>
      <trkpt lat="49.94266" lon="2.14064">
        <ele>48.5</ele>
        <time>2022-09-14T14:38:22Z</time>
      </trkpt>
      <trkpt lat="49.94266" lon="2.14064">
        <ele>48.5</ele>
        <time>2022-09-14T14:38:23Z</time>
      </trkpt>
      <trkpt lat="49.94266" lon="2.14064">
        <ele>48.5</ele>
        <time>2022-09-14T14:38:24Z</time>
      </trkpt>
      <trkpt lat="49.94266" lon="2.14064">
        <ele>48.5</ele>
        <time>2022-09-14T14:38:25Z</time>
      </trkpt>
      <trkpt lat="49.94266" lon="2.14064">
        <ele>48.5</ele>
        <time>2022-09-14T14:38:26Z</time>
      </trkpt>
      <trkpt lat="49.94266" lon="2.14064">
        <ele>48.5</ele>
        <time>2022-09-14T14:38:27Z</time>
      </trkpt>
      <trkpt lat="49.94266" lon="2.14064">
        <ele>48.5</ele>
        <time>2022-09-14T14:38:28Z</time>
      </trkpt>
      <trkpt lat="49.94266" lon="2.14064">
        <ele>48.5</ele>
        <time>2022-09-14T14:38:29Z</time>
      </trkpt>
      <trkpt lat="49.94266" lon="2.14064">
        <ele>48.5</ele>
        <time>2022-09-14T14:38:30Z</time>
      </trkpt>
      <trkpt lat="49.94266" lon="2.14064">
        <ele>48.5</ele>
        <time>2022-09-14T14:38:31Z</time>
      </trkpt>
      <trkpt lat="49.94266" lon="2.14064">
        <ele>48.5</ele>
        <time>2022-09-14T14:38:32Z</time>
      </trkpt>
      <trkpt lat="49.94266" lon="2.14064">
        <ele>48.5</ele>
        <time>2022-09-14T14:38:33Z</time>
      </trkpt>
      <trkpt lat="49.94266" lon="2.14064">
        <ele>48.5</ele>
        <time>2022-09-14T14:38:34Z</time>
      </trkpt>
      <trkpt lat="49.94266" lon="2.14064">
        <ele>48.5</ele>
        <time>2022-09-14T14:38:35Z</time>
      </trkpt>
      <trkpt lat="49.94266" lon="2.14064">
        <ele>48.5</ele>
        <time>2022-09-14T14:38:36Z</time>
      </trkpt>
      <trkpt lat="49.94266" lon="2.14064">
        <ele>48.5</ele>
        <time>2022-09-14T14:38:37Z</time>
      </trkpt>
      <trkpt lat="49.94266" lon="2.14064">
        <ele>48.5</ele>
        <time>2022-09-14T14:38:38Z</time>
      </trkpt>
      <trkpt lat="49.94266" lon="2.14064">
        <ele>48.5</ele>
        <time>2022-09-14T14:38:39Z</time>
      </trkpt>
      <trkpt lat="49.94266" lon="2.14064">
        <ele>48.5</ele>
        <time>2022-09-14T14:38:40Z</time>
      </trkpt>
      <trkpt lat="49.94266" lon="2.14064">
        <ele>48.5</ele>
        <time>2022-09-14T14:38:41Z</time>
      </trkpt>
      <trkpt lat="49.94266" lon="2.14064">
        <ele>48.5</ele>
        <time>2022-09-14T14:38:42Z</time>
      </trkpt>
      <trkpt lat="49.94266" lon="2.14064">
        <ele>48.5</ele>
        <time>2022-09-14T14:38:43Z</time>
      </trkpt>
      <trkpt lat="49.94266" lon="2.14064">
        <ele>48.5</ele>
        <time>2022-09-14T14:38:44Z</time>
      </trkpt>
      <trkpt lat="49.94266" lon="2.14064">
        <ele>48.5</ele>
        <time>2022-09-14T14:38:45Z</time>
      </trkpt>
      <trkpt lat="49.94266" lon="2.14064">
        <ele>48.5</ele>
        <time>2022-09-14T14:38:46Z</time>
      </trkpt>
      <trkpt lat="49.94266" lon="2.14064">
        <ele>48.5</ele>
        <time>2022-09-14T14:38:47Z</time>
      </trkpt>
      <trkpt lat="49.94266" lon="2.14064">
        <ele>48.5</ele>
        <time>2022-09-14T14:38:48Z</time>
      </trkpt>
      <trkpt lat="49.94266" lon="2.14064">
        <ele>48.5</ele>
        <time>2022-09-14T14:38:49Z</time>
      </trkpt>
      <trkpt lat="49.94266" lon="2.14064">
        <ele>48.5</ele>
        <time>2022-09-14T14:38:50Z</time>
      </trkpt>
      <trkpt lat="49.94266" lon="2.14064">
        <ele>48.5</ele>
        <time>2022-09-14T14:38:51Z</time>
      </trkpt>
      <trkpt lat="49.94266" lon="2.14064">
        <ele>48.5</ele>
        <time>2022-09-14T14:38:52Z</time>
      </trkpt>
      <trkpt lat="49.94266" lon="2.14064">
        <ele>48.5</ele>
        <time>2022-09-14T14:38:53Z</time>
      </trkpt>
      <trkpt lat="49.94266" lon="2.14064">
        <ele>48.5</ele>
        <time>2022-09-14T14:38:54Z</time>
      </trkpt>
      <trkpt lat="49.94266" lon="2.14064">
        <ele>48.5</ele>
        <time>2022-09-14T14:38:55Z</time>
      </trkpt>
      <trkpt lat="49.94266" lon="2.14064">
        <ele>48.5</ele>
        <time>2022-09-14T14:38:56Z</time>
      </trkpt>
      <trkpt lat="49.94266" lon="2.14064">
        <ele>48.5</ele>
        <time>2022-09-14T14:38:57Z</time>
      </trkpt>
      <trkpt lat="49.94266" lon="2.14064">
        <ele>48.5</ele>
        <time>2022-09-14T14:38:58Z</time>
      </trkpt>
      <trkpt lat="49.94266" lon="2.14064">
        <ele>48.5</ele>
        <time>2022-09-14T14:38:59Z</time>
      </trkpt>
      <trkpt lat="49.94266" lon="2.14064">
        <ele>48.5</ele>
        <time>2022-09-14T14:39:00Z</time>
      </trkpt>
      <trkpt lat="49.94266" lon="2.14064">
        <ele>48.5</ele>
        <time>2022-09-14T14:39:01Z</time>
      </trkpt>
      <trkpt lat="49.94266" lon="2.14064">
        <ele>48.5</ele>
        <time>2022-09-14T14:39:02Z</time>
      </trkpt>
      <trkpt lat="49.94266" lon="2.14064">
        <ele>48.5</ele>
        <time>2022-09-14T14:39:03Z</time>
      </trkpt>
      <trkpt lat="49.94266" lon="2.14064">
        <ele>48.5</ele>
        <time>2022-09-14T14:39:04Z</time>
      </trkpt>
      <trkpt lat="49.94266" lon="2.14064">
        <ele>48.5</ele>
        <time>2022-09-14T14:39:05Z</time>
      </trkpt>
      <trkpt lat="49.94264" lon="2.14061">
        <ele>48.4</ele>
        <time>2022-09-14T14:39:06Z</time>
      </trkpt>
      <trkpt lat="49.94263" lon="2.1406">
        <ele>48.4</ele>
        <time>2022-09-14T14:39:07Z</time>
      </trkpt>
      <trkpt lat="49.94263" lon="2.1406">
        <ele>48.4</ele>
        <time>2022-09-14T14:39:08Z</time>
      </trkpt>
      <trkpt lat="49.94263" lon="2.1406">
        <ele>48.4</ele>
        <time>2022-09-14T14:39:09Z</time>
      </trkpt>
      <trkpt lat="49.94263" lon="2.1406">
        <ele>48.4</ele>
        <time>2022-09-14T14:39:10Z</time>
      </trkpt>
      <trkpt lat="49.94263" lon="2.1406">
        <ele>48.4</ele>
        <time>2022-09-14T14:39:11Z</time>
      </trkpt>
      <trkpt lat="49.94263" lon="2.1406">
        <ele>48.4</ele>
        <time>2022-09-14T14:39:12Z</time>
      </trkpt>
      <trkpt lat="49.94263" lon="2.1406">
        <ele>48.4</ele>
        <time>2022-09-14T14:39:13Z</time>
      </trkpt>
      <trkpt lat="49.94263" lon="2.1406">
        <ele>48.4</ele>
        <time>2022-09-14T14:39:14Z</time>
      </trkpt>
      <trkpt lat="49.94263" lon="2.1406">
        <ele>48.4</ele>
        <time>2022-09-14T14:39:15Z</time>
      </trkpt>
      <trkpt lat="49.94263" lon="2.1406">
        <ele>48.4</ele>
        <time>2022-09-14T14:39:16Z</time>
      </trkpt>
      <trkpt lat="49.94263" lon="2.1406">
        <ele>48.4</ele>
        <time>2022-09-14T14:39:17Z</time>
      </trkpt>
      <trkpt lat="49.94263" lon="2.1406">
        <ele>48.4</ele>
        <time>2022-09-14T14:39:18Z</time>
      </trkpt>
      <trkpt lat="49.94263" lon="2.1406">
        <ele>48.4</ele>
        <time>2022-09-14T14:39:19Z</time>
      </trkpt>
      <trkpt lat="49.94263" lon="2.1406">
        <ele>48.4</ele>
        <time>2022-09-14T14:39:20Z</time>
      </trkpt>
      <trkpt lat="49.94263" lon="2.1406">
        <ele>48.4</ele>
        <time>2022-09-14T14:39:21Z</time>
      </trkpt>
      <trkpt lat="49.94263" lon="2.1406">
        <ele>48.4</ele>
        <time>2022-09-14T14:39:22Z</time>
      </trkpt>
      <trkpt lat="49.94263" lon="2.1406">
        <ele>48.4</ele>
        <time>2022-09-14T14:39:23Z</time>
      </trkpt>
      <trkpt lat="49.94263" lon="2.1406">
        <ele>48.4</ele>
        <time>2022-09-14T14:39:24Z</time>
      </trkpt>
      <trkpt lat="49.94263" lon="2.1406">
        <ele>48.4</ele>
        <time>2022-09-14T14:39:25Z</time>
      </trkpt>
      <trkpt lat="49.94263" lon="2.1406">
        <ele>48.4</ele>
        <time>2022-09-14T14:39:26Z</time>
      </trkpt>
      <trkpt lat="49.94263" lon="2.14059">
        <ele>48.4</ele>
        <time>2022-09-14T14:39:27Z</time>
      </trkpt>
      <trkpt lat="49.94263" lon="2.14059">
        <ele>48.4</ele>
        <time>2022-09-14T14:39:28Z</time>
      </trkpt>
      <trkpt lat="49.94263" lon="2.14059">
        <ele>48.4</ele>
        <time>2022-09-14T14:39:29Z</time>
      </trkpt>
      <trkpt lat="49.94263" lon="2.14059">
        <ele>48.4</ele>
        <time>2022-09-14T14:39:30Z</time>
      </trkpt>
      <trkpt lat="49.94263" lon="2.14059">
        <ele>48.4</ele>
        <time>2022-09-14T14:39:31Z</time>
      </trkpt>
      <trkpt lat="49.94263" lon="2.14059">
        <ele>48.4</ele>
        <time>2022-09-14T14:39:32Z</time>
      </trkpt>
      <trkpt lat="49.94263" lon="2.14059">
        <ele>48.4</ele>
        <time>2022-09-14T14:39:33Z</time>
      </trkpt>
      <trkpt lat="49.94263" lon="2.14059">
        <ele>48.4</ele>
        <time>2022-09-14T14:39:34Z</time>
      </trkpt>
      <trkpt lat="49.94263" lon="2.14059">
        <ele>48.4</ele>
        <time>2022-09-14T14:39:35Z</time>
      </trkpt>
      <trkpt lat="49.94263" lon="2.14059">
        <ele>48.4</ele>
        <time>2022-09-14T14:39:36Z</time>
      </trkpt>
      <trkpt lat="49.94263" lon="2.14059">
        <ele>48.4</ele>
        <time>2022-09-14T14:39:37Z</time>
      </trkpt>
      <trkpt lat="49.94263" lon="2.14059">
        <ele>48.4</ele>
        <time>2022-09-14T14:39:38Z</time>
      </trkpt>
      <trkpt lat="49.94263" lon="2.14059">
        <ele>48.4</ele>
        <time>2022-09-14T14:39:39Z</time>
      </trkpt>
      <trkpt lat="49.94263" lon="2.14059">
        <ele>48.4</ele>
        <time>2022-09-14T14:39:40Z</time>
      </trkpt>
      <trkpt lat="49.94263" lon="2.14059">
        <ele>48.4</ele>
        <time>2022-09-14T14:39:41Z</time>
      </trkpt>
      <trkpt lat="49.94263" lon="2.14059">
        <ele>48.4</ele>
        <time>2022-09-14T14:39:42Z</time>
      </trkpt>
      <trkpt lat="49.94263" lon="2.14059">
        <ele>48.4</ele>
        <time>2022-09-14T14:39:43Z</time>
      </trkpt>
      <trkpt lat="49.94263" lon="2.14059">
        <ele>48.4</ele>
        <time>2022-09-14T14:39:44Z</time>
      </trkpt>
      <trkpt lat="49.94263" lon="2.14059">
        <ele>48.4</ele>
        <time>2022-09-14T14:39:45Z</time>
      </trkpt>
      <trkpt lat="49.94263" lon="2.14059">
        <ele>48.4</ele>
        <time>2022-09-14T14:39:46Z</time>
      </trkpt>
      <trkpt lat="49.94263" lon="2.14059">
        <ele>48.4</ele>
        <time>2022-09-14T14:39:47Z</time>
      </trkpt>
      <trkpt lat="49.94263" lon="2.14059">
        <ele>48.4</ele>
        <time>2022-09-14T14:39:48Z</time>
      </trkpt>
      <trkpt lat="49.94263" lon="2.14059">
        <ele>48.4</ele>
        <time>2022-09-14T14:39:49Z</time>
      </trkpt>
      <trkpt lat="49.94263" lon="2.14059">
        <ele>48.4</ele>
        <time>2022-09-14T14:39:50Z</time>
      </trkpt>
      <trkpt lat="49.94263" lon="2.14059">
        <ele>48.4</ele>
        <time>2022-09-14T14:39:51Z</time>
      </trkpt>
      <trkpt lat="49.94263" lon="2.14059">
        <ele>48.4</ele>
        <time>2022-09-14T14:39:52Z</time>
      </trkpt>
      <trkpt lat="49.94263" lon="2.14059">
        <ele>48.4</ele>
        <time>2022-09-14T14:39:53Z</time>
      </trkpt>
      <trkpt lat="49.94263" lon="2.14059">
        <ele>48.4</ele>
        <time>2022-09-14T14:39:54Z</time>
      </trkpt>
      <trkpt lat="49.94263" lon="2.14059">
        <ele>48.4</ele>
        <time>2022-09-14T14:39:55Z</time>
      </trkpt>
      <trkpt lat="49.94263" lon="2.14059">
        <ele>48.4</ele>
        <time>2022-09-14T14:39:56Z</time>
      </trkpt>
      <trkpt lat="49.94263" lon="2.14059">
        <ele>48.4</ele>
        <time>2022-09-14T14:39:57Z</time>
      </trkpt>
      <trkpt lat="49.94263" lon="2.14059">
        <ele>48.4</ele>
        <time>2022-09-14T14:39:58Z</time>
      </trkpt>
      <trkpt lat="49.94263" lon="2.14059">
        <ele>48.4</ele>
        <time>2022-09-14T14:39:59Z</time>
      </trkpt>
      <trkpt lat="49.94263" lon="2.14059">
        <ele>48.4</ele>
        <time>2022-09-14T14:40:00Z</time>
      </trkpt>
      <trkpt lat="49.94263" lon="2.14059">
        <ele>48.4</ele>
        <time>2022-09-14T14:40:01Z</time>
      </trkpt>
      <trkpt lat="49.94263" lon="2.14059">
        <ele>48.4</ele>
        <time>2022-09-14T14:40:02Z</time>
      </trkpt>
      <trkpt lat="49.94263" lon="2.14059">
        <ele>48.4</ele>
        <time>2022-09-14T14:40:03Z</time>
      </trkpt>
      <trkpt lat="49.94263" lon="2.14059">
        <ele>48.4</ele>
        <time>2022-09-14T14:40:04Z</time>
      </trkpt>
      <trkpt lat="49.94263" lon="2.14059">
        <ele>48.4</ele>
        <time>2022-09-14T14:40:05Z</time>
      </trkpt>
      <trkpt lat="49.94263" lon="2.14059">
        <ele>48.4</ele>
        <time>2022-09-14T14:40:06Z</time>
      </trkpt>
      <trkpt lat="49.94263" lon="2.14059">
        <ele>48.4</ele>
        <time>2022-09-14T14:40:07Z</time>
      </trkpt>
      <trkpt lat="49.94263" lon="2.14059">
        <ele>48.4</ele>
        <time>2022-09-14T14:40:08Z</time>
      </trkpt>
      <trkpt lat="49.94263" lon="2.14059">
        <ele>48.4</ele>
        <time>2022-09-14T14:40:09Z</time>
      </trkpt>
      <trkpt lat="49.94263" lon="2.14059">
        <ele>48.4</ele>
        <time>2022-09-14T14:40:10Z</time>
      </trkpt>
      <trkpt lat="49.94263" lon="2.14059">
        <ele>48.4</ele>
        <time>2022-09-14T14:40:11Z</time>
      </trkpt>
      <trkpt lat="49.94263" lon="2.14059">
        <ele>48.4</ele>
        <time>2022-09-14T14:40:12Z</time>
      </trkpt>
      <trkpt lat="49.94263" lon="2.14059">
        <ele>48.4</ele>
        <time>2022-09-14T14:40:13Z</time>
      </trkpt>
      <trkpt lat="49.94263" lon="2.14059">
        <ele>48.4</ele>
        <time>2022-09-14T14:40:14Z</time>
      </trkpt>
      <trkpt lat="49.94263" lon="2.14059">
        <ele>48.4</ele>
        <time>2022-09-14T14:40:15Z</time>
      </trkpt>
      <trkpt lat="49.94263" lon="2.14059">
        <ele>48.4</ele>
        <time>2022-09-14T14:40:16Z</time>
      </trkpt>
      <trkpt lat="49.94263" lon="2.14059">
        <ele>48.4</ele>
        <time>2022-09-14T14:40:17Z</time>
      </trkpt>
      <trkpt lat="49.94263" lon="2.14059">
        <ele>48.4</ele>
        <time>2022-09-14T14:40:18Z</time>
      </trkpt>
      <trkpt lat="49.94263" lon="2.14059">
        <ele>48.4</ele>
        <time>2022-09-14T14:40:19Z</time>
      </trkpt>
      <trkpt lat="49.94263" lon="2.14059">
        <ele>48.4</ele>
        <time>2022-09-14T14:40:20Z</time>
      </trkpt>
      <trkpt lat="49.94263" lon="2.14059">
        <ele>48.4</ele>
        <time>2022-09-14T14:40:21Z</time>
      </trkpt>
      <trkpt lat="49.94263" lon="2.14059">
        <ele>48.4</ele>
        <time>2022-09-14T14:40:22Z</time>
      </trkpt>
      <trkpt lat="49.94263" lon="2.14059">
        <ele>48.4</ele>
        <time>2022-09-14T14:40:23Z</time>
      </trkpt>
      <trkpt lat="49.94263" lon="2.14059">
        <ele>48.4</ele>
        <time>2022-09-14T14:40:24Z</time>
      </trkpt>
      <trkpt lat="49.94263" lon="2.14059">
        <ele>48.4</ele>
        <time>2022-09-14T14:40:25Z</time>
      </trkpt>
      <trkpt lat="49.94263" lon="2.14059">
        <ele>48.4</ele>
        <time>2022-09-14T14:40:26Z</time>
      </trkpt>
      <trkpt lat="49.94263" lon="2.14059">
        <ele>48.4</ele>
        <time>2022-09-14T14:40:27Z</time>
      </trkpt>
      <trkpt lat="49.94263" lon="2.14059">
        <ele>48.4</ele>
        <time>2022-09-14T14:40:28Z</time>
      </trkpt>
      <trkpt lat="49.94263" lon="2.14059">
        <ele>48.4</ele>
        <time>2022-09-14T14:40:29Z</time>
      </trkpt>
      <trkpt lat="49.94263" lon="2.14059">
        <ele>48.4</ele>
        <time>2022-09-14T14:40:30Z</time>
      </trkpt>
      <trkpt lat="49.94263" lon="2.14059">
        <ele>48.4</ele>
        <time>2022-09-14T14:40:31Z</time>
      </trkpt>
      <trkpt lat="49.94263" lon="2.14059">
        <ele>48.4</ele>
        <time>2022-09-14T14:40:32Z</time>
      </trkpt>
      <trkpt lat="49.94263" lon="2.14059">
        <ele>48.4</ele>
        <time>2022-09-14T14:40:33Z</time>
      </trkpt>
      <trkpt lat="49.94263" lon="2.14059">
        <ele>48.4</ele>
        <time>2022-09-14T14:40:34Z</time>
      </trkpt>
      <trkpt lat="49.94263" lon="2.14059">
        <ele>48.4</ele>
        <time>2022-09-14T14:40:35Z</time>
      </trkpt>
      <trkpt lat="49.94263" lon="2.14059">
        <ele>48.4</ele>
        <time>2022-09-14T14:40:36Z</time>
      </trkpt>
      <trkpt lat="49.94263" lon="2.14059">
        <ele>48.4</ele>
        <time>2022-09-14T14:40:37Z</time>
      </trkpt>
      <trkpt lat="49.94263" lon="2.14059">
        <ele>48.4</ele>
        <time>2022-09-14T14:40:38Z</time>
      </trkpt>
      <trkpt lat="49.94263" lon="2.14059">
        <ele>48.4</ele>
        <time>2022-09-14T14:40:39Z</time>
      </trkpt>
      <trkpt lat="49.94263" lon="2.14059">
        <ele>48.4</ele>
        <time>2022-09-14T14:40:40Z</time>
      </trkpt>
      <trkpt lat="49.94263" lon="2.14059">
        <ele>48.4</ele>
        <time>2022-09-14T14:40:41Z</time>
      </trkpt>
      <trkpt lat="49.94263" lon="2.14059">
        <ele>48.4</ele>
        <time>2022-09-14T14:40:42Z</time>
      </trkpt>
      <trkpt lat="49.94263" lon="2.14059">
        <ele>48.4</ele>
        <time>2022-09-14T14:40:43Z</time>
      </trkpt>
      <trkpt lat="49.94263" lon="2.14059">
        <ele>48.4</ele>
        <time>2022-09-14T14:40:44Z</time>
      </trkpt>
      <trkpt lat="49.94263" lon="2.14059">
        <ele>48.4</ele>
        <time>2022-09-14T14:40:45Z</time>
      </trkpt>
      <trkpt lat="49.94263" lon="2.14059">
        <ele>48.4</ele>
        <time>2022-09-14T14:40:46Z</time>
      </trkpt>
      <trkpt lat="49.94263" lon="2.14059">
        <ele>48.4</ele>
        <time>2022-09-14T14:40:47Z</time>
      </trkpt>
      <trkpt lat="49.94263" lon="2.14059">
        <ele>48.4</ele>
        <time>2022-09-14T14:40:48Z</time>
      </trkpt>
      <trkpt lat="49.94263" lon="2.14059">
        <ele>48.4</ele>
        <time>2022-09-14T14:40:49Z</time>
      </trkpt>
      <trkpt lat="49.94263" lon="2.14059">
        <ele>48.4</ele>
        <time>2022-09-14T14:40:50Z</time>
      </trkpt>
      <trkpt lat="49.94263" lon="2.14059">
        <ele>48.4</ele>
        <time>2022-09-14T14:40:51Z</time>
      </trkpt>
      <trkpt lat="49.94263" lon="2.14059">
        <ele>48.4</ele>
        <time>2022-09-14T14:40:52Z</time>
      </trkpt>
      <trkpt lat="49.94263" lon="2.14059">
        <ele>48.4</ele>
        <time>2022-09-14T14:40:53Z</time>
      </trkpt>
      <trkpt lat="49.94263" lon="2.14059">
        <ele>48.4</ele>
        <time>2022-09-14T14:40:54Z</time>
      </trkpt>
      <trkpt lat="49.94263" lon="2.14059">
        <ele>48.4</ele>
        <time>2022-09-14T14:40:55Z</time>
      </trkpt>
      <trkpt lat="49.94263" lon="2.14059">
        <ele>48.4</ele>
        <time>2022-09-14T14:40:56Z</time>
      </trkpt>
      <trkpt lat="49.94263" lon="2.14059">
        <ele>48.4</ele>
        <time>2022-09-14T14:40:57Z</time>
      </trkpt>
      <trkpt lat="49.94263" lon="2.14059">
        <ele>48.4</ele>
        <time>2022-09-14T14:40:58Z</time>
      </trkpt>
      <trkpt lat="49.94263" lon="2.14059">
        <ele>48.4</ele>
        <time>2022-09-14T14:40:59Z</time>
      </trkpt>
      <trkpt lat="49.94263" lon="2.14059">
        <ele>48.4</ele>
        <time>2022-09-14T14:41:00Z</time>
      </trkpt>
      <trkpt lat="49.94263" lon="2.14059">
        <ele>48.4</ele>
        <time>2022-09-14T14:41:01Z</time>
      </trkpt>
      <trkpt lat="49.94263" lon="2.14059">
        <ele>48.4</ele>
        <time>2022-09-14T14:41:02Z</time>
      </trkpt>
      <trkpt lat="49.94263" lon="2.14059">
        <ele>48.4</ele>
        <time>2022-09-14T14:41:03Z</time>
      </trkpt>
      <trkpt lat="49.94263" lon="2.14059">
        <ele>48.4</ele>
        <time>2022-09-14T14:41:04Z</time>
      </trkpt>
      <trkpt lat="49.94263" lon="2.14059">
        <ele>48.4</ele>
        <time>2022-09-14T14:41:05Z</time>
      </trkpt>
      <trkpt lat="49.94263" lon="2.14059">
        <ele>48.4</ele>
        <time>2022-09-14T14:41:06Z</time>
      </trkpt>
      <trkpt lat="49.94263" lon="2.14059">
        <ele>48.4</ele>
        <time>2022-09-14T14:41:07Z</time>
      </trkpt>
      <trkpt lat="49.94263" lon="2.14059">
        <ele>48.4</ele>
        <time>2022-09-14T14:41:08Z</time>
      </trkpt>
      <trkpt lat="49.94263" lon="2.14059">
        <ele>48.4</ele>
        <time>2022-09-14T14:41:09Z</time>
      </trkpt>
      <trkpt lat="49.94263" lon="2.14059">
        <ele>48.4</ele>
        <time>2022-09-14T14:41:10Z</time>
      </trkpt>
      <trkpt lat="49.94263" lon="2.14059">
        <ele>48.4</ele>
        <time>2022-09-14T14:41:11Z</time>
      </trkpt>
      <trkpt lat="49.94263" lon="2.14058">
        <ele>48.4</ele>
        <time>2022-09-14T14:41:12Z</time>
      </trkpt>
      <trkpt lat="49.94263" lon="2.14058">
        <ele>48.4</ele>
        <time>2022-09-14T14:41:13Z</time>
      </trkpt>
      <trkpt lat="49.94264" lon="2.14058">
        <ele>48.4</ele>
        <time>2022-09-14T14:41:14Z</time>
      </trkpt>
      <trkpt lat="49.94264" lon="2.14058">
        <ele>48.3</ele>
        <time>2022-09-14T14:41:15Z</time>
      </trkpt>
      <trkpt lat="49.94264" lon="2.14058">
        <ele>48.3</ele>
        <time>2022-09-14T14:41:16Z</time>
      </trkpt>
      <trkpt lat="49.94264" lon="2.14058">
        <ele>48.3</ele>
        <time>2022-09-14T14:41:17Z</time>
      </trkpt>
      <trkpt lat="49.94264" lon="2.14058">
        <ele>48.3</ele>
        <time>2022-09-14T14:41:18Z</time>
      </trkpt>
      <trkpt lat="49.94264" lon="2.14058">
        <ele>48.3</ele>
        <time>2022-09-14T14:41:19Z</time>
      </trkpt>
      <trkpt lat="49.94264" lon="2.14058">
        <ele>48.3</ele>
        <time>2022-09-14T14:41:20Z</time>
      </trkpt>
      <trkpt lat="49.94264" lon="2.14058">
        <ele>48.3</ele>
        <time>2022-09-14T14:41:21Z</time>
      </trkpt>
      <trkpt lat="49.94264" lon="2.14058">
        <ele>48.3</ele>
        <time>2022-09-14T14:41:22Z</time>
      </trkpt>
      <trkpt lat="49.94264" lon="2.14058">
        <ele>48.3</ele>
        <time>2022-09-14T14:41:23Z</time>
      </trkpt>
      <trkpt lat="49.94264" lon="2.14058">
        <ele>48.3</ele>
        <time>2022-09-14T14:41:24Z</time>
      </trkpt>
      <trkpt lat="49.94264" lon="2.14058">
        <ele>48.3</ele>
        <time>2022-09-14T14:41:25Z</time>
      </trkpt>
      <trkpt lat="49.94264" lon="2.14057">
        <ele>48.3</ele>
        <time>2022-09-14T14:41:26Z</time>
      </trkpt>
      <trkpt lat="49.94264" lon="2.14057">
        <ele>48.3</ele>
        <time>2022-09-14T14:41:27Z</time>
      </trkpt>
      <trkpt lat="49.94264" lon="2.14057">
        <ele>48.3</ele>
        <time>2022-09-14T14:41:28Z</time>
      </trkpt>
      <trkpt lat="49.94264" lon="2.14057">
        <ele>48.3</ele>
        <time>2022-09-14T14:41:29Z</time>
      </trkpt>
      <trkpt lat="49.94264" lon="2.14057">
        <ele>48.3</ele>
        <time>2022-09-14T14:41:30Z</time>
      </trkpt>
      <trkpt lat="49.94264" lon="2.14058">
        <ele>48.3</ele>
        <time>2022-09-14T14:41:31Z</time>
      </trkpt>
      <trkpt lat="49.94264" lon="2.14058">
        <ele>48.3</ele>
        <time>2022-09-14T14:41:32Z</time>
      </trkpt>
      <trkpt lat="49.94264" lon="2.14058">
        <ele>48.3</ele>
        <time>2022-09-14T14:41:33Z</time>
      </trkpt>
      <trkpt lat="49.94264" lon="2.14058">
        <ele>48.3</ele>
        <time>2022-09-14T14:41:34Z</time>
      </trkpt>
      <trkpt lat="49.94264" lon="2.14058">
        <ele>48.3</ele>
        <time>2022-09-14T14:41:35Z</time>
      </trkpt>
      <trkpt lat="49.94264" lon="2.14058">
        <ele>48.3</ele>
        <time>2022-09-14T14:41:36Z</time>
      </trkpt>
      <trkpt lat="49.94264" lon="2.14058">
        <ele>48.3</ele>
        <time>2022-09-14T14:41:37Z</time>
      </trkpt>
      <trkpt lat="49.94264" lon="2.14058">
        <ele>48.3</ele>
        <time>2022-09-14T14:41:38Z</time>
      </trkpt>
      <trkpt lat="49.94264" lon="2.14058">
        <ele>48.3</ele>
        <time>2022-09-14T14:41:39Z</time>
      </trkpt>
      <trkpt lat="49.94264" lon="2.14058">
        <ele>48.3</ele>
        <time>2022-09-14T14:41:40Z</time>
      </trkpt>
      <trkpt lat="49.94264" lon="2.14058">
        <ele>48.3</ele>
        <time>2022-09-14T14:41:41Z</time>
      </trkpt>
      <trkpt lat="49.94264" lon="2.14058">
        <ele>48.3</ele>
        <time>2022-09-14T14:41:42Z</time>
      </trkpt>
      <trkpt lat="49.94264" lon="2.14058">
        <ele>48.3</ele>
        <time>2022-09-14T14:41:43Z</time>
      </trkpt>
      <trkpt lat="49.94264" lon="2.14058">
        <ele>48.3</ele>
        <time>2022-09-14T14:41:44Z</time>
      </trkpt>
      <trkpt lat="49.94264" lon="2.14058">
        <ele>48.3</ele>
        <time>2022-09-14T14:41:45Z</time>
      </trkpt>
      <trkpt lat="49.94264" lon="2.14058">
        <ele>48.3</ele>
        <time>2022-09-14T14:41:46Z</time>
      </trkpt>
      <trkpt lat="49.94264" lon="2.14058">
        <ele>48.3</ele>
        <time>2022-09-14T14:41:47Z</time>
      </trkpt>
      <trkpt lat="49.94264" lon="2.14058">
        <ele>48.3</ele>
        <time>2022-09-14T14:41:48Z</time>
      </trkpt>
      <trkpt lat="49.94264" lon="2.14058">
        <ele>48.3</ele>
        <time>2022-09-14T14:41:49Z</time>
      </trkpt>
      <trkpt lat="49.94264" lon="2.14058">
        <ele>48.3</ele>
        <time>2022-09-14T14:41:50Z</time>
      </trkpt>
      <trkpt lat="49.94264" lon="2.14058">
        <ele>48.3</ele>
        <time>2022-09-14T14:41:51Z</time>
      </trkpt>
      <trkpt lat="49.94264" lon="2.14057">
        <ele>48.3</ele>
        <time>2022-09-14T14:41:53Z</time>
      </trkpt>
      <trkpt lat="49.94264" lon="2.14057">
        <ele>48.3</ele>
        <time>2022-09-14T14:41:54Z</time>
      </trkpt>
      <trkpt lat="49.94264" lon="2.14056">
        <ele>48.3</ele>
        <time>2022-09-14T14:41:55Z</time>
      </trkpt>
    </trkseg>
  </trk>
</gpx>